<?xml version="1.0" encoding="UTF-8"?>
<gpx version="1.1" creator="https://www.youtrack.es" xsi:schemaLocation="http://www.topografix.com/GPX/1/1 http://www.topografix.com/GPX/1/1/gpx.xsd http://www.garmin.com/xmlschemas/GpxExtensions/v3 http://www.garmin.com/xmlschemas/GpxExtensionsv3.xsd http://www.garmin.com/xmlschemas/TrackPointExtension/v1 http://www.garmin.com/xmlschemas/TrackPointExtensionv1.xsd" xmlns:gpxtpx="http://www.garmin.com/xmlschemas/TrackPointExtension/v1" xmlns:gpxx="http://www.garmin.com/xmlschemas/GpxExtensions/v3" xmlns:xsi="http://www.w3.org/2001/XMLSchema-instance">
  <metadata>
    <link href="https://www.youtrack.es">
      <text>YouTrack.es</text>
    </link>
    <time>2026-05-08T06:20:57Z</time>
  </metadata>
  <trk>
    <src>https://www.youtrack.es</src>
    <link href="https://www.youtrack.es/ruta/10691-volcan-irazu">
      <text>YouTrack.es</text>
    </link>
    <trkseg>
      <trkpt lat="9.8680550" lon="-84.0860280">
        <ele>1245.1</ele>
        <time>2020-01-26T12:33:50Z</time>
      </trkpt>
      <trkpt lat="9.8679950" lon="-84.0859140">
        <ele>1244.4</ele>
        <time>2020-01-26T12:33:51Z</time>
      </trkpt>
      <trkpt lat="9.8679920" lon="-84.0859710">
        <ele>1244.1</ele>
        <time>2020-01-26T12:33:53Z</time>
      </trkpt>
      <trkpt lat="9.8680510" lon="-84.0859020">
        <ele>1243.6</ele>
        <time>2020-01-26T12:33:59Z</time>
      </trkpt>
      <trkpt lat="9.8680820" lon="-84.0858960">
        <ele>1243.4</ele>
        <time>2020-01-26T12:34:00Z</time>
      </trkpt>
      <trkpt lat="9.8680810" lon="-84.0858980">
        <ele>1243.4</ele>
        <time>2020-01-26T12:34:01Z</time>
      </trkpt>
      <trkpt lat="9.8680950" lon="-84.0858740">
        <ele>1243.3</ele>
        <time>2020-01-26T12:34:02Z</time>
      </trkpt>
      <trkpt lat="9.8681600" lon="-84.0857520">
        <ele>1242.7</ele>
        <time>2020-01-26T12:34:05Z</time>
      </trkpt>
      <trkpt lat="9.8682260" lon="-84.0855360">
        <ele>1241.7</ele>
        <time>2020-01-26T12:34:09Z</time>
      </trkpt>
      <trkpt lat="9.8683230" lon="-84.0853330">
        <ele>1240.3</ele>
        <time>2020-01-26T12:34:13Z</time>
      </trkpt>
      <trkpt lat="9.8684360" lon="-84.0851220">
        <ele>1239.2</ele>
        <time>2020-01-26T12:34:16Z</time>
      </trkpt>
      <trkpt lat="9.8685600" lon="-84.0849580">
        <ele>1238.2</ele>
        <time>2020-01-26T12:34:19Z</time>
      </trkpt>
      <trkpt lat="9.8686350" lon="-84.0847860">
        <ele>1237.1</ele>
        <time>2020-01-26T12:34:23Z</time>
      </trkpt>
      <trkpt lat="9.8686390" lon="-84.0847710">
        <ele>1237.0</ele>
        <time>2020-01-26T12:34:30Z</time>
      </trkpt>
      <trkpt lat="9.8686930" lon="-84.0845780">
        <ele>1236.0</ele>
        <time>2020-01-26T12:34:43Z</time>
      </trkpt>
      <trkpt lat="9.8687760" lon="-84.0843940">
        <ele>1234.8</ele>
        <time>2020-01-26T12:34:46Z</time>
      </trkpt>
      <trkpt lat="9.8688850" lon="-84.0841600">
        <ele>1232.3</ele>
        <time>2020-01-26T12:34:49Z</time>
      </trkpt>
      <trkpt lat="9.8689690" lon="-84.0839850">
        <ele>1230.9</ele>
        <time>2020-01-26T12:34:51Z</time>
      </trkpt>
      <trkpt lat="9.8690580" lon="-84.0837930">
        <ele>1229.7</ele>
        <time>2020-01-26T12:34:53Z</time>
      </trkpt>
      <trkpt lat="9.8691620" lon="-84.0835470">
        <ele>1228.1</ele>
        <time>2020-01-26T12:34:55Z</time>
      </trkpt>
      <trkpt lat="9.8692800" lon="-84.0833370">
        <ele>1226.4</ele>
        <time>2020-01-26T12:34:57Z</time>
      </trkpt>
      <trkpt lat="9.8693880" lon="-84.0831380">
        <ele>1224.3</ele>
        <time>2020-01-26T12:34:59Z</time>
      </trkpt>
      <trkpt lat="9.8694960" lon="-84.0829250">
        <ele>1222.0</ele>
        <time>2020-01-26T12:35:01Z</time>
      </trkpt>
      <trkpt lat="9.8696150" lon="-84.0827060">
        <ele>1219.9</ele>
        <time>2020-01-26T12:35:03Z</time>
      </trkpt>
      <trkpt lat="9.8697370" lon="-84.0824870">
        <ele>1217.5</ele>
        <time>2020-01-26T12:35:05Z</time>
      </trkpt>
      <trkpt lat="9.8698570" lon="-84.0822630">
        <ele>1214.8</ele>
        <time>2020-01-26T12:35:07Z</time>
      </trkpt>
      <trkpt lat="9.8699730" lon="-84.0820410">
        <ele>1214.0</ele>
        <time>2020-01-26T12:35:09Z</time>
      </trkpt>
      <trkpt lat="9.8700900" lon="-84.0818240">
        <ele>1213.7</ele>
        <time>2020-01-26T12:35:11Z</time>
      </trkpt>
      <trkpt lat="9.8702010" lon="-84.0816100">
        <ele>1213.2</ele>
        <time>2020-01-26T12:35:13Z</time>
      </trkpt>
      <trkpt lat="9.8703100" lon="-84.0813980">
        <ele>1212.5</ele>
        <time>2020-01-26T12:35:15Z</time>
      </trkpt>
      <trkpt lat="9.8704250" lon="-84.0811970">
        <ele>1211.4</ele>
        <time>2020-01-26T12:35:17Z</time>
      </trkpt>
      <trkpt lat="9.8705410" lon="-84.0810060">
        <ele>1210.7</ele>
        <time>2020-01-26T12:35:19Z</time>
      </trkpt>
      <trkpt lat="9.8706600" lon="-84.0808240">
        <ele>1210.1</ele>
        <time>2020-01-26T12:35:21Z</time>
      </trkpt>
      <trkpt lat="9.8707280" lon="-84.0807420">
        <ele>1209.8</ele>
        <time>2020-01-26T12:35:22Z</time>
      </trkpt>
      <trkpt lat="9.8708830" lon="-84.0805930">
        <ele>1209.2</ele>
        <time>2020-01-26T12:35:24Z</time>
      </trkpt>
      <trkpt lat="9.8710630" lon="-84.0804660">
        <ele>1208.2</ele>
        <time>2020-01-26T12:35:26Z</time>
      </trkpt>
      <trkpt lat="9.8712550" lon="-84.0803430">
        <ele>1206.6</ele>
        <time>2020-01-26T12:35:28Z</time>
      </trkpt>
      <trkpt lat="9.8714530" lon="-84.0802220">
        <ele>1205.0</ele>
        <time>2020-01-26T12:35:30Z</time>
      </trkpt>
      <trkpt lat="9.8716480" lon="-84.0800970">
        <ele>1203.8</ele>
        <time>2020-01-26T12:35:32Z</time>
      </trkpt>
      <trkpt lat="9.8718260" lon="-84.0799550">
        <ele>1202.9</ele>
        <time>2020-01-26T12:35:34Z</time>
      </trkpt>
      <trkpt lat="9.8719760" lon="-84.0797860">
        <ele>1201.9</ele>
        <time>2020-01-26T12:35:36Z</time>
      </trkpt>
      <trkpt lat="9.8720880" lon="-84.0796000">
        <ele>1201.1</ele>
        <time>2020-01-26T12:35:38Z</time>
      </trkpt>
      <trkpt lat="9.8721770" lon="-84.0794000">
        <ele>1201.3</ele>
        <time>2020-01-26T12:35:40Z</time>
      </trkpt>
      <trkpt lat="9.8722670" lon="-84.0792010">
        <ele>1202.1</ele>
        <time>2020-01-26T12:35:42Z</time>
      </trkpt>
      <trkpt lat="9.8723780" lon="-84.0790210">
        <ele>1203.4</ele>
        <time>2020-01-26T12:35:44Z</time>
      </trkpt>
      <trkpt lat="9.8724450" lon="-84.0789460">
        <ele>1203.9</ele>
        <time>2020-01-26T12:35:45Z</time>
      </trkpt>
      <trkpt lat="9.8725930" lon="-84.0788260">
        <ele>1204.9</ele>
        <time>2020-01-26T12:35:47Z</time>
      </trkpt>
      <trkpt lat="9.8727300" lon="-84.0787170">
        <ele>1205.7</ele>
        <time>2020-01-26T12:35:49Z</time>
      </trkpt>
      <trkpt lat="9.8727960" lon="-84.0786670">
        <ele>1206.1</ele>
        <time>2020-01-26T12:35:50Z</time>
      </trkpt>
      <trkpt lat="9.8729980" lon="-84.0785320">
        <ele>1207.3</ele>
        <time>2020-01-26T12:35:53Z</time>
      </trkpt>
      <trkpt lat="9.8731820" lon="-84.0784090">
        <ele>1207.7</ele>
        <time>2020-01-26T12:35:56Z</time>
      </trkpt>
      <trkpt lat="9.8733010" lon="-84.0783290">
        <ele>1207.8</ele>
        <time>2020-01-26T12:35:58Z</time>
      </trkpt>
      <trkpt lat="9.8734140" lon="-84.0782530">
        <ele>1207.7</ele>
        <time>2020-01-26T12:36:00Z</time>
      </trkpt>
      <trkpt lat="9.8735210" lon="-84.0781780">
        <ele>1206.9</ele>
        <time>2020-01-26T12:36:02Z</time>
      </trkpt>
      <trkpt lat="9.8736810" lon="-84.0780760">
        <ele>1206.9</ele>
        <time>2020-01-26T12:36:05Z</time>
      </trkpt>
      <trkpt lat="9.8737860" lon="-84.0780160">
        <ele>1206.8</ele>
        <time>2020-01-26T12:36:07Z</time>
      </trkpt>
      <trkpt lat="9.8738360" lon="-84.0779860">
        <ele>1206.8</ele>
        <time>2020-01-26T12:36:08Z</time>
      </trkpt>
      <trkpt lat="9.8739430" lon="-84.0779220">
        <ele>1206.8</ele>
        <time>2020-01-26T12:36:10Z</time>
      </trkpt>
      <trkpt lat="9.8741160" lon="-84.0778120">
        <ele>1206.9</ele>
        <time>2020-01-26T12:36:13Z</time>
      </trkpt>
      <trkpt lat="9.8741780" lon="-84.0777750">
        <ele>1206.9</ele>
        <time>2020-01-26T12:36:14Z</time>
      </trkpt>
      <trkpt lat="9.8743700" lon="-84.0776540">
        <ele>1207.1</ele>
        <time>2020-01-26T12:36:17Z</time>
      </trkpt>
      <trkpt lat="9.8745650" lon="-84.0775110">
        <ele>1207.6</ele>
        <time>2020-01-26T12:36:20Z</time>
      </trkpt>
      <trkpt lat="9.8747460" lon="-84.0773490">
        <ele>1207.8</ele>
        <time>2020-01-26T12:36:23Z</time>
      </trkpt>
      <trkpt lat="9.8749200" lon="-84.0771830">
        <ele>1208.0</ele>
        <time>2020-01-26T12:36:26Z</time>
      </trkpt>
      <trkpt lat="9.8750830" lon="-84.0770060">
        <ele>1208.2</ele>
        <time>2020-01-26T12:36:29Z</time>
      </trkpt>
      <trkpt lat="9.8752500" lon="-84.0768320">
        <ele>1208.1</ele>
        <time>2020-01-26T12:36:32Z</time>
      </trkpt>
      <trkpt lat="9.8754140" lon="-84.0766590">
        <ele>1207.6</ele>
        <time>2020-01-26T12:36:35Z</time>
      </trkpt>
      <trkpt lat="9.8755720" lon="-84.0764810">
        <ele>1207.6</ele>
        <time>2020-01-26T12:36:38Z</time>
      </trkpt>
      <trkpt lat="9.8757180" lon="-84.0762890">
        <ele>1206.6</ele>
        <time>2020-01-26T12:36:41Z</time>
      </trkpt>
      <trkpt lat="9.8758660" lon="-84.0760970">
        <ele>1205.3</ele>
        <time>2020-01-26T12:36:44Z</time>
      </trkpt>
      <trkpt lat="9.8760140" lon="-84.0759180">
        <ele>1203.7</ele>
        <time>2020-01-26T12:36:47Z</time>
      </trkpt>
      <trkpt lat="9.8761260" lon="-84.0758200">
        <ele>1202.9</ele>
        <time>2020-01-26T12:36:49Z</time>
      </trkpt>
      <trkpt lat="9.8763280" lon="-84.0757030">
        <ele>1203.0</ele>
        <time>2020-01-26T12:36:52Z</time>
      </trkpt>
      <trkpt lat="9.8765400" lon="-84.0755880">
        <ele>1202.3</ele>
        <time>2020-01-26T12:36:55Z</time>
      </trkpt>
      <trkpt lat="9.8767600" lon="-84.0754710">
        <ele>1201.2</ele>
        <time>2020-01-26T12:36:58Z</time>
      </trkpt>
      <trkpt lat="9.8769870" lon="-84.0753550">
        <ele>1199.9</ele>
        <time>2020-01-26T12:37:01Z</time>
      </trkpt>
      <trkpt lat="9.8772140" lon="-84.0752340">
        <ele>1198.6</ele>
        <time>2020-01-26T12:37:04Z</time>
      </trkpt>
      <trkpt lat="9.8773680" lon="-84.0751510">
        <ele>1197.7</ele>
        <time>2020-01-26T12:37:06Z</time>
      </trkpt>
      <trkpt lat="9.8775970" lon="-84.0750210">
        <ele>1196.7</ele>
        <time>2020-01-26T12:37:09Z</time>
      </trkpt>
      <trkpt lat="9.8777520" lon="-84.0749340">
        <ele>1195.9</ele>
        <time>2020-01-26T12:37:11Z</time>
      </trkpt>
      <trkpt lat="9.8779130" lon="-84.0748480">
        <ele>1194.9</ele>
        <time>2020-01-26T12:37:13Z</time>
      </trkpt>
      <trkpt lat="9.8780750" lon="-84.0747590">
        <ele>1195.2</ele>
        <time>2020-01-26T12:37:15Z</time>
      </trkpt>
      <trkpt lat="9.8782400" lon="-84.0746710">
        <ele>1194.9</ele>
        <time>2020-01-26T12:37:17Z</time>
      </trkpt>
      <trkpt lat="9.8784080" lon="-84.0745780">
        <ele>1194.9</ele>
        <time>2020-01-26T12:37:19Z</time>
      </trkpt>
      <trkpt lat="9.8785790" lon="-84.0744820">
        <ele>1195.0</ele>
        <time>2020-01-26T12:37:21Z</time>
      </trkpt>
      <trkpt lat="9.8787500" lon="-84.0743830">
        <ele>1195.1</ele>
        <time>2020-01-26T12:37:23Z</time>
      </trkpt>
      <trkpt lat="9.8789220" lon="-84.0742830">
        <ele>1194.2</ele>
        <time>2020-01-26T12:37:25Z</time>
      </trkpt>
      <trkpt lat="9.8790850" lon="-84.0741810">
        <ele>1193.1</ele>
        <time>2020-01-26T12:37:27Z</time>
      </trkpt>
      <trkpt lat="9.8792400" lon="-84.0740760">
        <ele>1192.2</ele>
        <time>2020-01-26T12:37:29Z</time>
      </trkpt>
      <trkpt lat="9.8793930" lon="-84.0739680">
        <ele>1191.1</ele>
        <time>2020-01-26T12:37:31Z</time>
      </trkpt>
      <trkpt lat="9.8795470" lon="-84.0738600">
        <ele>1190.1</ele>
        <time>2020-01-26T12:37:33Z</time>
      </trkpt>
      <trkpt lat="9.8797040" lon="-84.0737450">
        <ele>1188.9</ele>
        <time>2020-01-26T12:37:35Z</time>
      </trkpt>
      <trkpt lat="9.8798660" lon="-84.0736260">
        <ele>1186.8</ele>
        <time>2020-01-26T12:37:37Z</time>
      </trkpt>
      <trkpt lat="9.8800240" lon="-84.0735050">
        <ele>1185.4</ele>
        <time>2020-01-26T12:37:39Z</time>
      </trkpt>
      <trkpt lat="9.8801740" lon="-84.0733850">
        <ele>1184.9</ele>
        <time>2020-01-26T12:37:41Z</time>
      </trkpt>
      <trkpt lat="9.8803210" lon="-84.0732620">
        <ele>1184.6</ele>
        <time>2020-01-26T12:37:43Z</time>
      </trkpt>
      <trkpt lat="9.8804640" lon="-84.0731290">
        <ele>1183.9</ele>
        <time>2020-01-26T12:37:45Z</time>
      </trkpt>
      <trkpt lat="9.8806000" lon="-84.0729860">
        <ele>1182.6</ele>
        <time>2020-01-26T12:37:47Z</time>
      </trkpt>
      <trkpt lat="9.8807320" lon="-84.0728330">
        <ele>1181.5</ele>
        <time>2020-01-26T12:37:49Z</time>
      </trkpt>
      <trkpt lat="9.8808440" lon="-84.0726470">
        <ele>1180.2</ele>
        <time>2020-01-26T12:37:51Z</time>
      </trkpt>
      <trkpt lat="9.8809200" lon="-84.0724300">
        <ele>1179.8</ele>
        <time>2020-01-26T12:37:53Z</time>
      </trkpt>
      <trkpt lat="9.8809890" lon="-84.0722010">
        <ele>1179.1</ele>
        <time>2020-01-26T12:37:55Z</time>
      </trkpt>
      <trkpt lat="9.8810580" lon="-84.0719730">
        <ele>1177.3</ele>
        <time>2020-01-26T12:37:57Z</time>
      </trkpt>
      <trkpt lat="9.8811270" lon="-84.0717470">
        <ele>1176.2</ele>
        <time>2020-01-26T12:37:59Z</time>
      </trkpt>
      <trkpt lat="9.8811910" lon="-84.0715270">
        <ele>1175.7</ele>
        <time>2020-01-26T12:38:01Z</time>
      </trkpt>
      <trkpt lat="9.8812500" lon="-84.0713170">
        <ele>1175.2</ele>
        <time>2020-01-26T12:38:03Z</time>
      </trkpt>
      <trkpt lat="9.8813090" lon="-84.0711170">
        <ele>1174.8</ele>
        <time>2020-01-26T12:38:05Z</time>
      </trkpt>
      <trkpt lat="9.8813690" lon="-84.0709270">
        <ele>1174.3</ele>
        <time>2020-01-26T12:38:07Z</time>
      </trkpt>
      <trkpt lat="9.8814290" lon="-84.0707420">
        <ele>1173.4</ele>
        <time>2020-01-26T12:38:09Z</time>
      </trkpt>
      <trkpt lat="9.8814970" lon="-84.0705630">
        <ele>1171.9</ele>
        <time>2020-01-26T12:38:11Z</time>
      </trkpt>
      <trkpt lat="9.8815700" lon="-84.0703900">
        <ele>1171.0</ele>
        <time>2020-01-26T12:38:13Z</time>
      </trkpt>
      <trkpt lat="9.8816510" lon="-84.0702200">
        <ele>1170.6</ele>
        <time>2020-01-26T12:38:15Z</time>
      </trkpt>
      <trkpt lat="9.8817360" lon="-84.0700540">
        <ele>1170.3</ele>
        <time>2020-01-26T12:38:17Z</time>
      </trkpt>
      <trkpt lat="9.8818210" lon="-84.0698900">
        <ele>1169.2</ele>
        <time>2020-01-26T12:38:19Z</time>
      </trkpt>
      <trkpt lat="9.8819080" lon="-84.0697190">
        <ele>1167.9</ele>
        <time>2020-01-26T12:38:21Z</time>
      </trkpt>
      <trkpt lat="9.8820060" lon="-84.0695450">
        <ele>1167.3</ele>
        <time>2020-01-26T12:38:23Z</time>
      </trkpt>
      <trkpt lat="9.8821110" lon="-84.0693670">
        <ele>1167.4</ele>
        <time>2020-01-26T12:38:25Z</time>
      </trkpt>
      <trkpt lat="9.8822270" lon="-84.0691950">
        <ele>1167.5</ele>
        <time>2020-01-26T12:38:27Z</time>
      </trkpt>
      <trkpt lat="9.8823640" lon="-84.0690410">
        <ele>1167.5</ele>
        <time>2020-01-26T12:38:29Z</time>
      </trkpt>
      <trkpt lat="9.8825080" lon="-84.0689090">
        <ele>1167.6</ele>
        <time>2020-01-26T12:38:31Z</time>
      </trkpt>
      <trkpt lat="9.8825850" lon="-84.0688560">
        <ele>1167.7</ele>
        <time>2020-01-26T12:38:32Z</time>
      </trkpt>
      <trkpt lat="9.8828250" lon="-84.0687410">
        <ele>1167.5</ele>
        <time>2020-01-26T12:38:35Z</time>
      </trkpt>
      <trkpt lat="9.8829090" lon="-84.0687130">
        <ele>1167.4</ele>
        <time>2020-01-26T12:38:36Z</time>
      </trkpt>
      <trkpt lat="9.8830780" lon="-84.0686720">
        <ele>1166.9</ele>
        <time>2020-01-26T12:38:38Z</time>
      </trkpt>
      <trkpt lat="9.8832580" lon="-84.0686450">
        <ele>1166.3</ele>
        <time>2020-01-26T12:38:40Z</time>
      </trkpt>
      <trkpt lat="9.8834440" lon="-84.0686200">
        <ele>1165.3</ele>
        <time>2020-01-26T12:38:42Z</time>
      </trkpt>
      <trkpt lat="9.8836270" lon="-84.0685920">
        <ele>1163.2</ele>
        <time>2020-01-26T12:38:44Z</time>
      </trkpt>
      <trkpt lat="9.8837170" lon="-84.0685620">
        <ele>1162.6</ele>
        <time>2020-01-26T12:38:45Z</time>
      </trkpt>
      <trkpt lat="9.8838930" lon="-84.0684610">
        <ele>1161.6</ele>
        <time>2020-01-26T12:38:47Z</time>
      </trkpt>
      <trkpt lat="9.8840540" lon="-84.0683230">
        <ele>1160.4</ele>
        <time>2020-01-26T12:38:49Z</time>
      </trkpt>
      <trkpt lat="9.8841300" lon="-84.0682510">
        <ele>1159.7</ele>
        <time>2020-01-26T12:38:50Z</time>
      </trkpt>
      <trkpt lat="9.8842800" lon="-84.0681040">
        <ele>1159.1</ele>
        <time>2020-01-26T12:38:52Z</time>
      </trkpt>
      <trkpt lat="9.8844200" lon="-84.0679610">
        <ele>1159.6</ele>
        <time>2020-01-26T12:38:54Z</time>
      </trkpt>
      <trkpt lat="9.8845590" lon="-84.0678270">
        <ele>1160.1</ele>
        <time>2020-01-26T12:38:56Z</time>
      </trkpt>
      <trkpt lat="9.8846880" lon="-84.0676990">
        <ele>1160.3</ele>
        <time>2020-01-26T12:38:58Z</time>
      </trkpt>
      <trkpt lat="9.8848560" lon="-84.0675290">
        <ele>1162.6</ele>
        <time>2020-01-26T12:39:01Z</time>
      </trkpt>
      <trkpt lat="9.8850110" lon="-84.0673840">
        <ele>1165.1</ele>
        <time>2020-01-26T12:39:04Z</time>
      </trkpt>
      <trkpt lat="9.8851450" lon="-84.0672530">
        <ele>1166.6</ele>
        <time>2020-01-26T12:39:07Z</time>
      </trkpt>
      <trkpt lat="9.8852520" lon="-84.0671200">
        <ele>1168.8</ele>
        <time>2020-01-26T12:39:10Z</time>
      </trkpt>
      <trkpt lat="9.8852810" lon="-84.0670710">
        <ele>1169.6</ele>
        <time>2020-01-26T12:39:11Z</time>
      </trkpt>
      <trkpt lat="9.8853540" lon="-84.0669290">
        <ele>1171.6</ele>
        <time>2020-01-26T12:39:14Z</time>
      </trkpt>
      <trkpt lat="9.8854280" lon="-84.0667580">
        <ele>1172.8</ele>
        <time>2020-01-26T12:39:18Z</time>
      </trkpt>
      <trkpt lat="9.8854570" lon="-84.0666830">
        <ele>1172.8</ele>
        <time>2020-01-26T12:39:20Z</time>
      </trkpt>
      <trkpt lat="9.8855210" lon="-84.0665060">
        <ele>1172.7</ele>
        <time>2020-01-26T12:39:25Z</time>
      </trkpt>
      <trkpt lat="9.8855760" lon="-84.0663070">
        <ele>1172.3</ele>
        <time>2020-01-26T12:39:30Z</time>
      </trkpt>
      <trkpt lat="9.8856100" lon="-84.0661710">
        <ele>1171.9</ele>
        <time>2020-01-26T12:39:33Z</time>
      </trkpt>
      <trkpt lat="9.8856620" lon="-84.0660370">
        <ele>1171.5</ele>
        <time>2020-01-26T12:39:36Z</time>
      </trkpt>
      <trkpt lat="9.8857280" lon="-84.0658430">
        <ele>1170.5</ele>
        <time>2020-01-26T12:39:41Z</time>
      </trkpt>
      <trkpt lat="9.8858590" lon="-84.0656840">
        <ele>1169.0</ele>
        <time>2020-01-26T12:39:46Z</time>
      </trkpt>
      <trkpt lat="9.8859580" lon="-84.0656110">
        <ele>1168.0</ele>
        <time>2020-01-26T12:39:48Z</time>
      </trkpt>
      <trkpt lat="9.8861420" lon="-84.0655330">
        <ele>1166.7</ele>
        <time>2020-01-26T12:39:51Z</time>
      </trkpt>
      <trkpt lat="9.8863490" lon="-84.0654720">
        <ele>1165.6</ele>
        <time>2020-01-26T12:39:54Z</time>
      </trkpt>
      <trkpt lat="9.8865960" lon="-84.0654120">
        <ele>1164.4</ele>
        <time>2020-01-26T12:39:57Z</time>
      </trkpt>
      <trkpt lat="9.8867760" lon="-84.0653650">
        <ele>1163.3</ele>
        <time>2020-01-26T12:39:59Z</time>
      </trkpt>
      <trkpt lat="9.8869700" lon="-84.0653140">
        <ele>1162.6</ele>
        <time>2020-01-26T12:40:01Z</time>
      </trkpt>
      <trkpt lat="9.8871820" lon="-84.0652590">
        <ele>1162.5</ele>
        <time>2020-01-26T12:40:03Z</time>
      </trkpt>
      <trkpt lat="9.8874070" lon="-84.0652010">
        <ele>1162.1</ele>
        <time>2020-01-26T12:40:05Z</time>
      </trkpt>
      <trkpt lat="9.8876400" lon="-84.0651370">
        <ele>1161.7</ele>
        <time>2020-01-26T12:40:07Z</time>
      </trkpt>
      <trkpt lat="9.8878750" lon="-84.0650770">
        <ele>1161.4</ele>
        <time>2020-01-26T12:40:09Z</time>
      </trkpt>
      <trkpt lat="9.8880980" lon="-84.0650140">
        <ele>1159.5</ele>
        <time>2020-01-26T12:40:11Z</time>
      </trkpt>
      <trkpt lat="9.8883050" lon="-84.0649460">
        <ele>1160.0</ele>
        <time>2020-01-26T12:40:13Z</time>
      </trkpt>
      <trkpt lat="9.8884990" lon="-84.0648820">
        <ele>1161.1</ele>
        <time>2020-01-26T12:40:15Z</time>
      </trkpt>
      <trkpt lat="9.8886780" lon="-84.0648120">
        <ele>1162.2</ele>
        <time>2020-01-26T12:40:17Z</time>
      </trkpt>
      <trkpt lat="9.8889220" lon="-84.0647240">
        <ele>1163.5</ele>
        <time>2020-01-26T12:40:20Z</time>
      </trkpt>
      <trkpt lat="9.8891220" lon="-84.0646510">
        <ele>1164.2</ele>
        <time>2020-01-26T12:40:23Z</time>
      </trkpt>
      <trkpt lat="9.8891780" lon="-84.0646290">
        <ele>1164.4</ele>
        <time>2020-01-26T12:40:24Z</time>
      </trkpt>
      <trkpt lat="9.8893210" lon="-84.0645640">
        <ele>1164.5</ele>
        <time>2020-01-26T12:40:27Z</time>
      </trkpt>
      <trkpt lat="9.8894890" lon="-84.0644910">
        <ele>1164.7</ele>
        <time>2020-01-26T12:40:31Z</time>
      </trkpt>
      <trkpt lat="9.8895460" lon="-84.0644420">
        <ele>1164.9</ele>
        <time>2020-01-26T12:40:33Z</time>
      </trkpt>
      <trkpt lat="9.8895620" lon="-84.0643570">
        <ele>1165.2</ele>
        <time>2020-01-26T12:40:35Z</time>
      </trkpt>
      <trkpt lat="9.8895790" lon="-84.0641740">
        <ele>1166.1</ele>
        <time>2020-01-26T12:40:38Z</time>
      </trkpt>
      <trkpt lat="9.8895950" lon="-84.0639460">
        <ele>1167.2</ele>
        <time>2020-01-26T12:40:42Z</time>
      </trkpt>
      <trkpt lat="9.8896220" lon="-84.0637030">
        <ele>1168.5</ele>
        <time>2020-01-26T12:40:46Z</time>
      </trkpt>
      <trkpt lat="9.8896360" lon="-84.0635130">
        <ele>1169.9</ele>
        <time>2020-01-26T12:40:49Z</time>
      </trkpt>
      <trkpt lat="9.8896560" lon="-84.0632730">
        <ele>1171.3</ele>
        <time>2020-01-26T12:40:53Z</time>
      </trkpt>
      <trkpt lat="9.8896900" lon="-84.0630630">
        <ele>1170.0</ele>
        <time>2020-01-26T12:40:56Z</time>
      </trkpt>
      <trkpt lat="9.8897310" lon="-84.0628590">
        <ele>1168.1</ele>
        <time>2020-01-26T12:40:59Z</time>
      </trkpt>
      <trkpt lat="9.8898910" lon="-84.0627450">
        <ele>1168.5</ele>
        <time>2020-01-26T12:41:03Z</time>
      </trkpt>
      <trkpt lat="9.8899580" lon="-84.0627430">
        <ele>1168.6</ele>
        <time>2020-01-26T12:41:04Z</time>
      </trkpt>
      <trkpt lat="9.8901670" lon="-84.0627510">
        <ele>1168.9</ele>
        <time>2020-01-26T12:41:07Z</time>
      </trkpt>
      <trkpt lat="9.8903690" lon="-84.0627740">
        <ele>1169.2</ele>
        <time>2020-01-26T12:41:10Z</time>
      </trkpt>
      <trkpt lat="9.8905780" lon="-84.0627970">
        <ele>1169.2</ele>
        <time>2020-01-26T12:41:13Z</time>
      </trkpt>
      <trkpt lat="9.8907890" lon="-84.0628190">
        <ele>1168.5</ele>
        <time>2020-01-26T12:41:16Z</time>
      </trkpt>
      <trkpt lat="9.8909940" lon="-84.0628290">
        <ele>1167.8</ele>
        <time>2020-01-26T12:41:19Z</time>
      </trkpt>
      <trkpt lat="9.8911590" lon="-84.0628210">
        <ele>1167.1</ele>
        <time>2020-01-26T12:41:22Z</time>
      </trkpt>
      <trkpt lat="9.8912480" lon="-84.0626530">
        <ele>1167.1</ele>
        <time>2020-01-26T12:41:27Z</time>
      </trkpt>
      <trkpt lat="9.8912420" lon="-84.0626040">
        <ele>1167.2</ele>
        <time>2020-01-26T12:41:28Z</time>
      </trkpt>
      <trkpt lat="9.8912280" lon="-84.0623940">
        <ele>1167.5</ele>
        <time>2020-01-26T12:41:32Z</time>
      </trkpt>
      <trkpt lat="9.8912140" lon="-84.0621830">
        <ele>1167.6</ele>
        <time>2020-01-26T12:41:36Z</time>
      </trkpt>
      <trkpt lat="9.8912090" lon="-84.0619840">
        <ele>1167.6</ele>
        <time>2020-01-26T12:41:40Z</time>
      </trkpt>
      <trkpt lat="9.8912050" lon="-84.0617460">
        <ele>1166.6</ele>
        <time>2020-01-26T12:41:44Z</time>
      </trkpt>
      <trkpt lat="9.8912170" lon="-84.0616890">
        <ele>1166.4</ele>
        <time>2020-01-26T12:41:45Z</time>
      </trkpt>
      <trkpt lat="9.8912450" lon="-84.0616400">
        <ele>1166.2</ele>
        <time>2020-01-26T12:41:46Z</time>
      </trkpt>
      <trkpt lat="9.8914350" lon="-84.0615470">
        <ele>1164.8</ele>
        <time>2020-01-26T12:41:50Z</time>
      </trkpt>
      <trkpt lat="9.8914930" lon="-84.0615340">
        <ele>1164.6</ele>
        <time>2020-01-26T12:41:51Z</time>
      </trkpt>
      <trkpt lat="9.8916780" lon="-84.0614940">
        <ele>1163.7</ele>
        <time>2020-01-26T12:41:54Z</time>
      </trkpt>
      <trkpt lat="9.8917930" lon="-84.0614520">
        <ele>1163.1</ele>
        <time>2020-01-26T12:41:56Z</time>
      </trkpt>
      <trkpt lat="9.8919080" lon="-84.0612590">
        <ele>1160.8</ele>
        <time>2020-01-26T12:42:00Z</time>
      </trkpt>
      <trkpt lat="9.8919060" lon="-84.0610810">
        <ele>1159.2</ele>
        <time>2020-01-26T12:42:03Z</time>
      </trkpt>
      <trkpt lat="9.8919110" lon="-84.0608480">
        <ele>1158.3</ele>
        <time>2020-01-26T12:42:07Z</time>
      </trkpt>
      <trkpt lat="9.8919190" lon="-84.0606300">
        <ele>1157.7</ele>
        <time>2020-01-26T12:42:11Z</time>
      </trkpt>
      <trkpt lat="9.8919160" lon="-84.0604750">
        <ele>1157.5</ele>
        <time>2020-01-26T12:42:14Z</time>
      </trkpt>
      <trkpt lat="9.8919410" lon="-84.0602330">
        <ele>1158.2</ele>
        <time>2020-01-26T12:42:18Z</time>
      </trkpt>
      <trkpt lat="9.8919560" lon="-84.0600290">
        <ele>1159.5</ele>
        <time>2020-01-26T12:42:21Z</time>
      </trkpt>
      <trkpt lat="9.8919730" lon="-84.0598270">
        <ele>1160.2</ele>
        <time>2020-01-26T12:42:24Z</time>
      </trkpt>
      <trkpt lat="9.8919860" lon="-84.0596020">
        <ele>1160.1</ele>
        <time>2020-01-26T12:42:28Z</time>
      </trkpt>
      <trkpt lat="9.8920230" lon="-84.0594000">
        <ele>1160.0</ele>
        <time>2020-01-26T12:42:32Z</time>
      </trkpt>
      <trkpt lat="9.8920480" lon="-84.0593010">
        <ele>1159.9</ele>
        <time>2020-01-26T12:42:34Z</time>
      </trkpt>
      <trkpt lat="9.8920640" lon="-84.0592500">
        <ele>1159.8</ele>
        <time>2020-01-26T12:42:35Z</time>
      </trkpt>
      <trkpt lat="9.8921310" lon="-84.0590360">
        <ele>1159.2</ele>
        <time>2020-01-26T12:42:39Z</time>
      </trkpt>
      <trkpt lat="9.8921500" lon="-84.0589820">
        <ele>1159.1</ele>
        <time>2020-01-26T12:42:40Z</time>
      </trkpt>
      <trkpt lat="9.8922210" lon="-84.0588120">
        <ele>1158.9</ele>
        <time>2020-01-26T12:42:43Z</time>
      </trkpt>
      <trkpt lat="9.8923080" lon="-84.0586290">
        <ele>1159.4</ele>
        <time>2020-01-26T12:42:46Z</time>
      </trkpt>
      <trkpt lat="9.8924050" lon="-84.0584280">
        <ele>1159.1</ele>
        <time>2020-01-26T12:42:49Z</time>
      </trkpt>
      <trkpt lat="9.8925330" lon="-84.0582310">
        <ele>1157.3</ele>
        <time>2020-01-26T12:42:52Z</time>
      </trkpt>
      <trkpt lat="9.8926760" lon="-84.0580320">
        <ele>1157.2</ele>
        <time>2020-01-26T12:42:55Z</time>
      </trkpt>
      <trkpt lat="9.8928410" lon="-84.0578510">
        <ele>1157.1</ele>
        <time>2020-01-26T12:42:58Z</time>
      </trkpt>
      <trkpt lat="9.8930200" lon="-84.0576880">
        <ele>1156.9</ele>
        <time>2020-01-26T12:43:01Z</time>
      </trkpt>
      <trkpt lat="9.8932080" lon="-84.0575360">
        <ele>1156.6</ele>
        <time>2020-01-26T12:43:04Z</time>
      </trkpt>
      <trkpt lat="9.8934190" lon="-84.0574010">
        <ele>1156.0</ele>
        <time>2020-01-26T12:43:07Z</time>
      </trkpt>
      <trkpt lat="9.8936360" lon="-84.0572800">
        <ele>1157.0</ele>
        <time>2020-01-26T12:43:10Z</time>
      </trkpt>
      <trkpt lat="9.8938360" lon="-84.0571700">
        <ele>1158.0</ele>
        <time>2020-01-26T12:43:13Z</time>
      </trkpt>
      <trkpt lat="9.8940010" lon="-84.0570780">
        <ele>1158.8</ele>
        <time>2020-01-26T12:43:16Z</time>
      </trkpt>
      <trkpt lat="9.8941900" lon="-84.0569710">
        <ele>1159.8</ele>
        <time>2020-01-26T12:43:20Z</time>
      </trkpt>
      <trkpt lat="9.8943630" lon="-84.0568630">
        <ele>1159.3</ele>
        <time>2020-01-26T12:43:24Z</time>
      </trkpt>
      <trkpt lat="9.8945350" lon="-84.0567660">
        <ele>1159.1</ele>
        <time>2020-01-26T12:43:28Z</time>
      </trkpt>
      <trkpt lat="9.8945570" lon="-84.0566080">
        <ele>1159.3</ele>
        <time>2020-01-26T12:43:32Z</time>
      </trkpt>
      <trkpt lat="9.8944420" lon="-84.0564260">
        <ele>1159.5</ele>
        <time>2020-01-26T12:43:36Z</time>
      </trkpt>
      <trkpt lat="9.8943850" lon="-84.0563190">
        <ele>1159.7</ele>
        <time>2020-01-26T12:43:38Z</time>
      </trkpt>
      <trkpt lat="9.8942920" lon="-84.0561600">
        <ele>1160.1</ele>
        <time>2020-01-26T12:43:41Z</time>
      </trkpt>
      <trkpt lat="9.8941800" lon="-84.0559550">
        <ele>1160.6</ele>
        <time>2020-01-26T12:43:45Z</time>
      </trkpt>
      <trkpt lat="9.8940660" lon="-84.0557580">
        <ele>1161.5</ele>
        <time>2020-01-26T12:43:49Z</time>
      </trkpt>
      <trkpt lat="9.8939580" lon="-84.0555670">
        <ele>1160.0</ele>
        <time>2020-01-26T12:43:53Z</time>
      </trkpt>
      <trkpt lat="9.8938350" lon="-84.0553590">
        <ele>1158.3</ele>
        <time>2020-01-26T12:43:57Z</time>
      </trkpt>
      <trkpt lat="9.8937420" lon="-84.0552010">
        <ele>1157.8</ele>
        <time>2020-01-26T12:44:00Z</time>
      </trkpt>
      <trkpt lat="9.8936450" lon="-84.0550350">
        <ele>1158.4</ele>
        <time>2020-01-26T12:44:03Z</time>
      </trkpt>
      <trkpt lat="9.8935470" lon="-84.0548550">
        <ele>1158.3</ele>
        <time>2020-01-26T12:44:06Z</time>
      </trkpt>
      <trkpt lat="9.8934430" lon="-84.0546720">
        <ele>1158.7</ele>
        <time>2020-01-26T12:44:09Z</time>
      </trkpt>
      <trkpt lat="9.8933300" lon="-84.0544890">
        <ele>1159.0</ele>
        <time>2020-01-26T12:44:12Z</time>
      </trkpt>
      <trkpt lat="9.8932290" lon="-84.0543040">
        <ele>1159.0</ele>
        <time>2020-01-26T12:44:15Z</time>
      </trkpt>
      <trkpt lat="9.8931300" lon="-84.0541200">
        <ele>1159.1</ele>
        <time>2020-01-26T12:44:18Z</time>
      </trkpt>
      <trkpt lat="9.8930130" lon="-84.0539290">
        <ele>1159.3</ele>
        <time>2020-01-26T12:44:21Z</time>
      </trkpt>
      <trkpt lat="9.8928880" lon="-84.0537380">
        <ele>1159.5</ele>
        <time>2020-01-26T12:44:24Z</time>
      </trkpt>
      <trkpt lat="9.8927750" lon="-84.0535470">
        <ele>1159.6</ele>
        <time>2020-01-26T12:44:27Z</time>
      </trkpt>
      <trkpt lat="9.8926790" lon="-84.0533620">
        <ele>1159.8</ele>
        <time>2020-01-26T12:44:30Z</time>
      </trkpt>
      <trkpt lat="9.8926080" lon="-84.0531700">
        <ele>1160.1</ele>
        <time>2020-01-26T12:44:33Z</time>
      </trkpt>
      <trkpt lat="9.8925930" lon="-84.0531030">
        <ele>1160.2</ele>
        <time>2020-01-26T12:44:34Z</time>
      </trkpt>
      <trkpt lat="9.8925800" lon="-84.0528890">
        <ele>1160.4</ele>
        <time>2020-01-26T12:44:37Z</time>
      </trkpt>
      <trkpt lat="9.8925760" lon="-84.0526830">
        <ele>1160.4</ele>
        <time>2020-01-26T12:44:40Z</time>
      </trkpt>
      <trkpt lat="9.8925770" lon="-84.0524400">
        <ele>1159.6</ele>
        <time>2020-01-26T12:44:44Z</time>
      </trkpt>
      <trkpt lat="9.8925760" lon="-84.0522580">
        <ele>1159.4</ele>
        <time>2020-01-26T12:44:47Z</time>
      </trkpt>
      <trkpt lat="9.8925710" lon="-84.0520180">
        <ele>1159.2</ele>
        <time>2020-01-26T12:44:51Z</time>
      </trkpt>
      <trkpt lat="9.8925630" lon="-84.0519070">
        <ele>1159.6</ele>
        <time>2020-01-26T12:44:53Z</time>
      </trkpt>
      <trkpt lat="9.8925610" lon="-84.0517100">
        <ele>1160.4</ele>
        <time>2020-01-26T12:44:57Z</time>
      </trkpt>
      <trkpt lat="9.8925630" lon="-84.0514860">
        <ele>1160.7</ele>
        <time>2020-01-26T12:45:02Z</time>
      </trkpt>
      <trkpt lat="9.8925730" lon="-84.0513930">
        <ele>1160.7</ele>
        <time>2020-01-26T12:45:04Z</time>
      </trkpt>
      <trkpt lat="9.8925820" lon="-84.0511820">
        <ele>1160.6</ele>
        <time>2020-01-26T12:45:08Z</time>
      </trkpt>
      <trkpt lat="9.8925910" lon="-84.0509590">
        <ele>1160.4</ele>
        <time>2020-01-26T12:45:12Z</time>
      </trkpt>
      <trkpt lat="9.8926030" lon="-84.0507230">
        <ele>1160.1</ele>
        <time>2020-01-26T12:45:16Z</time>
      </trkpt>
      <trkpt lat="9.8926180" lon="-84.0504870">
        <ele>1160.1</ele>
        <time>2020-01-26T12:45:20Z</time>
      </trkpt>
      <trkpt lat="9.8926340" lon="-84.0503070">
        <ele>1160.1</ele>
        <time>2020-01-26T12:45:23Z</time>
      </trkpt>
      <trkpt lat="9.8926340" lon="-84.0502480">
        <ele>1160.1</ele>
        <time>2020-01-26T12:45:24Z</time>
      </trkpt>
      <trkpt lat="9.8926460" lon="-84.0500290">
        <ele>1160.5</ele>
        <time>2020-01-26T12:45:28Z</time>
      </trkpt>
      <trkpt lat="9.8926570" lon="-84.0498100">
        <ele>1161.0</ele>
        <time>2020-01-26T12:45:32Z</time>
      </trkpt>
      <trkpt lat="9.8926530" lon="-84.0495790">
        <ele>1161.7</ele>
        <time>2020-01-26T12:45:36Z</time>
      </trkpt>
      <trkpt lat="9.8926570" lon="-84.0493610">
        <ele>1162.2</ele>
        <time>2020-01-26T12:45:40Z</time>
      </trkpt>
      <trkpt lat="9.8926700" lon="-84.0491550">
        <ele>1162.6</ele>
        <time>2020-01-26T12:45:44Z</time>
      </trkpt>
      <trkpt lat="9.8926850" lon="-84.0489590">
        <ele>1163.0</ele>
        <time>2020-01-26T12:45:48Z</time>
      </trkpt>
      <trkpt lat="9.8926900" lon="-84.0487520">
        <ele>1163.9</ele>
        <time>2020-01-26T12:45:52Z</time>
      </trkpt>
      <trkpt lat="9.8926930" lon="-84.0485970">
        <ele>1164.7</ele>
        <time>2020-01-26T12:45:55Z</time>
      </trkpt>
      <trkpt lat="9.8926950" lon="-84.0485450">
        <ele>1165.0</ele>
        <time>2020-01-26T12:45:56Z</time>
      </trkpt>
      <trkpt lat="9.8927010" lon="-84.0483360">
        <ele>1166.1</ele>
        <time>2020-01-26T12:46:00Z</time>
      </trkpt>
      <trkpt lat="9.8927050" lon="-84.0481190">
        <ele>1166.1</ele>
        <time>2020-01-26T12:46:04Z</time>
      </trkpt>
      <trkpt lat="9.8927240" lon="-84.0478960">
        <ele>1166.0</ele>
        <time>2020-01-26T12:46:08Z</time>
      </trkpt>
      <trkpt lat="9.8927440" lon="-84.0476630">
        <ele>1166.0</ele>
        <time>2020-01-26T12:46:12Z</time>
      </trkpt>
      <trkpt lat="9.8927630" lon="-84.0475440">
        <ele>1166.1</ele>
        <time>2020-01-26T12:46:14Z</time>
      </trkpt>
      <trkpt lat="9.8928450" lon="-84.0473460">
        <ele>1166.9</ele>
        <time>2020-01-26T12:46:18Z</time>
      </trkpt>
      <trkpt lat="9.8929550" lon="-84.0471700">
        <ele>1168.1</ele>
        <time>2020-01-26T12:46:22Z</time>
      </trkpt>
      <trkpt lat="9.8930100" lon="-84.0469630">
        <ele>1168.9</ele>
        <time>2020-01-26T12:46:26Z</time>
      </trkpt>
      <trkpt lat="9.8930650" lon="-84.0467700">
        <ele>1169.0</ele>
        <time>2020-01-26T12:46:30Z</time>
      </trkpt>
      <trkpt lat="9.8931080" lon="-84.0465590">
        <ele>1169.0</ele>
        <time>2020-01-26T12:46:34Z</time>
      </trkpt>
      <trkpt lat="9.8931520" lon="-84.0463420">
        <ele>1169.0</ele>
        <time>2020-01-26T12:46:38Z</time>
      </trkpt>
      <trkpt lat="9.8931830" lon="-84.0461300">
        <ele>1170.1</ele>
        <time>2020-01-26T12:46:42Z</time>
      </trkpt>
      <trkpt lat="9.8932000" lon="-84.0459710">
        <ele>1170.9</ele>
        <time>2020-01-26T12:46:45Z</time>
      </trkpt>
      <trkpt lat="9.8932440" lon="-84.0457720">
        <ele>1172.0</ele>
        <time>2020-01-26T12:46:49Z</time>
      </trkpt>
      <trkpt lat="9.8932830" lon="-84.0455550">
        <ele>1173.4</ele>
        <time>2020-01-26T12:46:53Z</time>
      </trkpt>
      <trkpt lat="9.8932890" lon="-84.0454450">
        <ele>1174.0</ele>
        <time>2020-01-26T12:46:55Z</time>
      </trkpt>
      <trkpt lat="9.8932540" lon="-84.0452420">
        <ele>1174.9</ele>
        <time>2020-01-26T12:46:59Z</time>
      </trkpt>
      <trkpt lat="9.8931870" lon="-84.0450990">
        <ele>1175.5</ele>
        <time>2020-01-26T12:47:02Z</time>
      </trkpt>
      <trkpt lat="9.8930740" lon="-84.0449190">
        <ele>1176.7</ele>
        <time>2020-01-26T12:47:06Z</time>
      </trkpt>
      <trkpt lat="9.8929620" lon="-84.0447410">
        <ele>1177.8</ele>
        <time>2020-01-26T12:47:10Z</time>
      </trkpt>
      <trkpt lat="9.8928310" lon="-84.0445660">
        <ele>1178.7</ele>
        <time>2020-01-26T12:47:14Z</time>
      </trkpt>
      <trkpt lat="9.8926970" lon="-84.0444050">
        <ele>1179.3</ele>
        <time>2020-01-26T12:47:18Z</time>
      </trkpt>
      <trkpt lat="9.8926070" lon="-84.0442220">
        <ele>1178.5</ele>
        <time>2020-01-26T12:47:22Z</time>
      </trkpt>
      <trkpt lat="9.8925490" lon="-84.0440140">
        <ele>1178.0</ele>
        <time>2020-01-26T12:47:26Z</time>
      </trkpt>
      <trkpt lat="9.8925140" lon="-84.0437950">
        <ele>1177.7</ele>
        <time>2020-01-26T12:47:30Z</time>
      </trkpt>
      <trkpt lat="9.8924920" lon="-84.0435710">
        <ele>1177.5</ele>
        <time>2020-01-26T12:47:34Z</time>
      </trkpt>
      <trkpt lat="9.8924740" lon="-84.0433450">
        <ele>1177.1</ele>
        <time>2020-01-26T12:47:38Z</time>
      </trkpt>
      <trkpt lat="9.8924580" lon="-84.0431160">
        <ele>1176.7</ele>
        <time>2020-01-26T12:47:42Z</time>
      </trkpt>
      <trkpt lat="9.8924330" lon="-84.0429450">
        <ele>1176.4</ele>
        <time>2020-01-26T12:47:45Z</time>
      </trkpt>
      <trkpt lat="9.8923590" lon="-84.0427200">
        <ele>1177.0</ele>
        <time>2020-01-26T12:47:49Z</time>
      </trkpt>
      <trkpt lat="9.8922480" lon="-84.0425240">
        <ele>1180.5</ele>
        <time>2020-01-26T12:47:53Z</time>
      </trkpt>
      <trkpt lat="9.8921190" lon="-84.0423250">
        <ele>1182.2</ele>
        <time>2020-01-26T12:47:57Z</time>
      </trkpt>
      <trkpt lat="9.8920630" lon="-84.0422420">
        <ele>1182.7</ele>
        <time>2020-01-26T12:47:59Z</time>
      </trkpt>
      <trkpt lat="9.8919680" lon="-84.0421330">
        <ele>1183.4</ele>
        <time>2020-01-26T12:48:02Z</time>
      </trkpt>
      <trkpt lat="9.8918270" lon="-84.0419810">
        <ele>1183.0</ele>
        <time>2020-01-26T12:48:07Z</time>
      </trkpt>
      <trkpt lat="9.8917970" lon="-84.0419400">
        <ele>1182.9</ele>
        <time>2020-01-26T12:48:09Z</time>
      </trkpt>
      <trkpt lat="9.8917220" lon="-84.0417810">
        <ele>1182.7</ele>
        <time>2020-01-26T12:48:17Z</time>
      </trkpt>
      <trkpt lat="9.8917750" lon="-84.0417920">
        <ele>1182.6</ele>
        <time>2020-01-26T12:48:20Z</time>
      </trkpt>
      <trkpt lat="9.8918720" lon="-84.0419300">
        <ele>1182.9</ele>
        <time>2020-01-26T12:48:24Z</time>
      </trkpt>
      <trkpt lat="9.8919930" lon="-84.0421240">
        <ele>1183.4</ele>
        <time>2020-01-26T12:48:28Z</time>
      </trkpt>
      <trkpt lat="9.8921110" lon="-84.0422940">
        <ele>1182.3</ele>
        <time>2020-01-26T12:48:31Z</time>
      </trkpt>
      <trkpt lat="9.8921990" lon="-84.0424130">
        <ele>1181.5</ele>
        <time>2020-01-26T12:48:33Z</time>
      </trkpt>
      <trkpt lat="9.8923380" lon="-84.0425790">
        <ele>1179.0</ele>
        <time>2020-01-26T12:48:36Z</time>
      </trkpt>
      <trkpt lat="9.8924940" lon="-84.0427140">
        <ele>1177.3</ele>
        <time>2020-01-26T12:48:39Z</time>
      </trkpt>
      <trkpt lat="9.8926040" lon="-84.0427930">
        <ele>1177.8</ele>
        <time>2020-01-26T12:48:41Z</time>
      </trkpt>
      <trkpt lat="9.8927990" lon="-84.0428540">
        <ele>1178.9</ele>
        <time>2020-01-26T12:48:44Z</time>
      </trkpt>
      <trkpt lat="9.8928660" lon="-84.0428650">
        <ele>1178.8</ele>
        <time>2020-01-26T12:48:45Z</time>
      </trkpt>
      <trkpt lat="9.8929330" lon="-84.0428700">
        <ele>1178.7</ele>
        <time>2020-01-26T12:48:46Z</time>
      </trkpt>
      <trkpt lat="9.8931380" lon="-84.0428760">
        <ele>1178.6</ele>
        <time>2020-01-26T12:48:49Z</time>
      </trkpt>
      <trkpt lat="9.8933510" lon="-84.0428850">
        <ele>1178.4</ele>
        <time>2020-01-26T12:48:52Z</time>
      </trkpt>
      <trkpt lat="9.8934930" lon="-84.0428880">
        <ele>1178.1</ele>
        <time>2020-01-26T12:48:54Z</time>
      </trkpt>
      <trkpt lat="9.8937110" lon="-84.0429250">
        <ele>1177.6</ele>
        <time>2020-01-26T12:48:57Z</time>
      </trkpt>
      <trkpt lat="9.8939290" lon="-84.0429940">
        <ele>1177.0</ele>
        <time>2020-01-26T12:49:00Z</time>
      </trkpt>
      <trkpt lat="9.8941510" lon="-84.0430690">
        <ele>1176.6</ele>
        <time>2020-01-26T12:49:03Z</time>
      </trkpt>
      <trkpt lat="9.8943750" lon="-84.0431500">
        <ele>1176.3</ele>
        <time>2020-01-26T12:49:06Z</time>
      </trkpt>
      <trkpt lat="9.8945960" lon="-84.0432350">
        <ele>1176.1</ele>
        <time>2020-01-26T12:49:09Z</time>
      </trkpt>
      <trkpt lat="9.8947470" lon="-84.0432730">
        <ele>1176.1</ele>
        <time>2020-01-26T12:49:11Z</time>
      </trkpt>
      <trkpt lat="9.8949590" lon="-84.0432630">
        <ele>1176.3</ele>
        <time>2020-01-26T12:49:14Z</time>
      </trkpt>
      <trkpt lat="9.8951320" lon="-84.0431870">
        <ele>1176.5</ele>
        <time>2020-01-26T12:49:17Z</time>
      </trkpt>
      <trkpt lat="9.8951830" lon="-84.0431540">
        <ele>1176.6</ele>
        <time>2020-01-26T12:49:18Z</time>
      </trkpt>
      <trkpt lat="9.8953930" lon="-84.0430430">
        <ele>1177.1</ele>
        <time>2020-01-26T12:49:22Z</time>
      </trkpt>
      <trkpt lat="9.8956010" lon="-84.0430010">
        <ele>1177.3</ele>
        <time>2020-01-26T12:49:25Z</time>
      </trkpt>
      <trkpt lat="9.8957570" lon="-84.0429920">
        <ele>1176.5</ele>
        <time>2020-01-26T12:49:27Z</time>
      </trkpt>
      <trkpt lat="9.8959950" lon="-84.0430100">
        <ele>1174.7</ele>
        <time>2020-01-26T12:49:30Z</time>
      </trkpt>
      <trkpt lat="9.8962290" lon="-84.0430830">
        <ele>1174.9</ele>
        <time>2020-01-26T12:49:33Z</time>
      </trkpt>
      <trkpt lat="9.8964590" lon="-84.0431690">
        <ele>1173.4</ele>
        <time>2020-01-26T12:49:36Z</time>
      </trkpt>
      <trkpt lat="9.8967030" lon="-84.0432780">
        <ele>1170.9</ele>
        <time>2020-01-26T12:49:39Z</time>
      </trkpt>
      <trkpt lat="9.8968810" lon="-84.0433570">
        <ele>1168.8</ele>
        <time>2020-01-26T12:49:41Z</time>
      </trkpt>
      <trkpt lat="9.8970690" lon="-84.0434400">
        <ele>1166.8</ele>
        <time>2020-01-26T12:49:43Z</time>
      </trkpt>
      <trkpt lat="9.8972590" lon="-84.0435280">
        <ele>1165.2</ele>
        <time>2020-01-26T12:49:45Z</time>
      </trkpt>
      <trkpt lat="9.8974550" lon="-84.0436230">
        <ele>1164.2</ele>
        <time>2020-01-26T12:49:47Z</time>
      </trkpt>
      <trkpt lat="9.8975390" lon="-84.0436860">
        <ele>1163.8</ele>
        <time>2020-01-26T12:49:48Z</time>
      </trkpt>
      <trkpt lat="9.8976630" lon="-84.0438490">
        <ele>1163.1</ele>
        <time>2020-01-26T12:49:50Z</time>
      </trkpt>
      <trkpt lat="9.8977290" lon="-84.0440400">
        <ele>1162.8</ele>
        <time>2020-01-26T12:49:52Z</time>
      </trkpt>
      <trkpt lat="9.8977710" lon="-84.0442290">
        <ele>1162.8</ele>
        <time>2020-01-26T12:49:54Z</time>
      </trkpt>
      <trkpt lat="9.8977890" lon="-84.0443210">
        <ele>1162.7</ele>
        <time>2020-01-26T12:49:55Z</time>
      </trkpt>
      <trkpt lat="9.8978060" lon="-84.0444100">
        <ele>1162.8</ele>
        <time>2020-01-26T12:49:56Z</time>
      </trkpt>
      <trkpt lat="9.8978220" lon="-84.0444940">
        <ele>1162.9</ele>
        <time>2020-01-26T12:49:57Z</time>
      </trkpt>
      <trkpt lat="9.8978570" lon="-84.0446610">
        <ele>1163.1</ele>
        <time>2020-01-26T12:49:59Z</time>
      </trkpt>
      <trkpt lat="9.8979050" lon="-84.0449110">
        <ele>1163.2</ele>
        <time>2020-01-26T12:50:02Z</time>
      </trkpt>
      <trkpt lat="9.8979530" lon="-84.0451610">
        <ele>1163.2</ele>
        <time>2020-01-26T12:50:05Z</time>
      </trkpt>
      <trkpt lat="9.8980000" lon="-84.0454080">
        <ele>1163.8</ele>
        <time>2020-01-26T12:50:08Z</time>
      </trkpt>
      <trkpt lat="9.8980440" lon="-84.0456500">
        <ele>1165.1</ele>
        <time>2020-01-26T12:50:11Z</time>
      </trkpt>
      <trkpt lat="9.8980820" lon="-84.0458760">
        <ele>1166.6</ele>
        <time>2020-01-26T12:50:14Z</time>
      </trkpt>
      <trkpt lat="9.8981240" lon="-84.0460070">
        <ele>1167.4</ele>
        <time>2020-01-26T12:50:16Z</time>
      </trkpt>
      <trkpt lat="9.8982110" lon="-84.0461760">
        <ele>1168.2</ele>
        <time>2020-01-26T12:50:19Z</time>
      </trkpt>
      <trkpt lat="9.8983280" lon="-84.0463590">
        <ele>1169.0</ele>
        <time>2020-01-26T12:50:23Z</time>
      </trkpt>
      <trkpt lat="9.8984310" lon="-84.0465180">
        <ele>1168.8</ele>
        <time>2020-01-26T12:50:27Z</time>
      </trkpt>
      <trkpt lat="9.8985410" lon="-84.0466780">
        <ele>1168.4</ele>
        <time>2020-01-26T12:50:31Z</time>
      </trkpt>
      <trkpt lat="9.8986560" lon="-84.0468320">
        <ele>1168.2</ele>
        <time>2020-01-26T12:50:35Z</time>
      </trkpt>
      <trkpt lat="9.8987450" lon="-84.0469420">
        <ele>1168.2</ele>
        <time>2020-01-26T12:50:38Z</time>
      </trkpt>
      <trkpt lat="9.8988240" lon="-84.0470020">
        <ele>1168.5</ele>
        <time>2020-01-26T12:50:40Z</time>
      </trkpt>
      <trkpt lat="9.8989570" lon="-84.0470930">
        <ele>1168.0</ele>
        <time>2020-01-26T12:50:43Z</time>
      </trkpt>
      <trkpt lat="9.8991750" lon="-84.0471810">
        <ele>1167.5</ele>
        <time>2020-01-26T12:50:47Z</time>
      </trkpt>
      <trkpt lat="9.8993900" lon="-84.0472570">
        <ele>1167.9</ele>
        <time>2020-01-26T12:50:51Z</time>
      </trkpt>
      <trkpt lat="9.8995400" lon="-84.0473050">
        <ele>1168.0</ele>
        <time>2020-01-26T12:50:54Z</time>
      </trkpt>
      <trkpt lat="9.8996870" lon="-84.0473310">
        <ele>1168.1</ele>
        <time>2020-01-26T12:50:57Z</time>
      </trkpt>
      <trkpt lat="9.8998620" lon="-84.0472550">
        <ele>1168.4</ele>
        <time>2020-01-26T12:51:02Z</time>
      </trkpt>
      <trkpt lat="9.8999250" lon="-84.0471830">
        <ele>1168.6</ele>
        <time>2020-01-26T12:51:04Z</time>
      </trkpt>
      <trkpt lat="9.8999850" lon="-84.0471050">
        <ele>1168.9</ele>
        <time>2020-01-26T12:51:06Z</time>
      </trkpt>
      <trkpt lat="9.9001200" lon="-84.0469420">
        <ele>1169.2</ele>
        <time>2020-01-26T12:51:10Z</time>
      </trkpt>
      <trkpt lat="9.9002660" lon="-84.0467690">
        <ele>1169.0</ele>
        <time>2020-01-26T12:51:14Z</time>
      </trkpt>
      <trkpt lat="9.9004240" lon="-84.0465990">
        <ele>1170.3</ele>
        <time>2020-01-26T12:51:18Z</time>
      </trkpt>
      <trkpt lat="9.9005450" lon="-84.0464710">
        <ele>1170.9</ele>
        <time>2020-01-26T12:51:21Z</time>
      </trkpt>
      <trkpt lat="9.9007190" lon="-84.0463110">
        <ele>1171.8</ele>
        <time>2020-01-26T12:51:25Z</time>
      </trkpt>
      <trkpt lat="9.9008540" lon="-84.0461970">
        <ele>1172.9</ele>
        <time>2020-01-26T12:51:28Z</time>
      </trkpt>
      <trkpt lat="9.9010350" lon="-84.0460390">
        <ele>1174.2</ele>
        <time>2020-01-26T12:51:32Z</time>
      </trkpt>
      <trkpt lat="9.9011740" lon="-84.0459190">
        <ele>1175.2</ele>
        <time>2020-01-26T12:51:35Z</time>
      </trkpt>
      <trkpt lat="9.9013520" lon="-84.0457640">
        <ele>1176.1</ele>
        <time>2020-01-26T12:51:39Z</time>
      </trkpt>
      <trkpt lat="9.9015360" lon="-84.0456160">
        <ele>1176.2</ele>
        <time>2020-01-26T12:51:43Z</time>
      </trkpt>
      <trkpt lat="9.9017270" lon="-84.0454740">
        <ele>1176.0</ele>
        <time>2020-01-26T12:51:47Z</time>
      </trkpt>
      <trkpt lat="9.9019290" lon="-84.0453550">
        <ele>1175.5</ele>
        <time>2020-01-26T12:51:51Z</time>
      </trkpt>
      <trkpt lat="9.9020710" lon="-84.0452710">
        <ele>1175.0</ele>
        <time>2020-01-26T12:51:54Z</time>
      </trkpt>
      <trkpt lat="9.9021670" lon="-84.0452280">
        <ele>1174.3</ele>
        <time>2020-01-26T12:51:56Z</time>
      </trkpt>
      <trkpt lat="9.9023780" lon="-84.0451770">
        <ele>1173.8</ele>
        <time>2020-01-26T12:52:00Z</time>
      </trkpt>
      <trkpt lat="9.9025980" lon="-84.0451460">
        <ele>1174.3</ele>
        <time>2020-01-26T12:52:04Z</time>
      </trkpt>
      <trkpt lat="9.9028330" lon="-84.0451240">
        <ele>1175.4</ele>
        <time>2020-01-26T12:52:08Z</time>
      </trkpt>
      <trkpt lat="9.9030660" lon="-84.0450940">
        <ele>1176.0</ele>
        <time>2020-01-26T12:52:12Z</time>
      </trkpt>
      <trkpt lat="9.9031860" lon="-84.0450820">
        <ele>1176.0</ele>
        <time>2020-01-26T12:52:14Z</time>
      </trkpt>
      <trkpt lat="9.9033680" lon="-84.0450600">
        <ele>1176.0</ele>
        <time>2020-01-26T12:52:17Z</time>
      </trkpt>
      <trkpt lat="9.9035570" lon="-84.0450340">
        <ele>1175.9</ele>
        <time>2020-01-26T12:52:20Z</time>
      </trkpt>
      <trkpt lat="9.9037700" lon="-84.0449970">
        <ele>1175.9</ele>
        <time>2020-01-26T12:52:24Z</time>
      </trkpt>
      <trkpt lat="9.9038730" lon="-84.0449630">
        <ele>1175.9</ele>
        <time>2020-01-26T12:52:26Z</time>
      </trkpt>
      <trkpt lat="9.9039760" lon="-84.0449160">
        <ele>1176.0</ele>
        <time>2020-01-26T12:52:28Z</time>
      </trkpt>
      <trkpt lat="9.9041610" lon="-84.0448040">
        <ele>1175.9</ele>
        <time>2020-01-26T12:52:32Z</time>
      </trkpt>
      <trkpt lat="9.9042390" lon="-84.0447350">
        <ele>1175.9</ele>
        <time>2020-01-26T12:52:34Z</time>
      </trkpt>
      <trkpt lat="9.9043840" lon="-84.0445810">
        <ele>1176.0</ele>
        <time>2020-01-26T12:52:38Z</time>
      </trkpt>
      <trkpt lat="9.9045080" lon="-84.0444070">
        <ele>1176.5</ele>
        <time>2020-01-26T12:52:42Z</time>
      </trkpt>
      <trkpt lat="9.9046020" lon="-84.0442720">
        <ele>1177.4</ele>
        <time>2020-01-26T12:52:45Z</time>
      </trkpt>
      <trkpt lat="9.9047110" lon="-84.0441510">
        <ele>1178.4</ele>
        <time>2020-01-26T12:52:48Z</time>
      </trkpt>
      <trkpt lat="9.9047900" lon="-84.0440740">
        <ele>1179.1</ele>
        <time>2020-01-26T12:52:50Z</time>
      </trkpt>
      <trkpt lat="9.9049160" lon="-84.0439550">
        <ele>1179.7</ele>
        <time>2020-01-26T12:52:53Z</time>
      </trkpt>
      <trkpt lat="9.9050980" lon="-84.0438080">
        <ele>1180.6</ele>
        <time>2020-01-26T12:52:57Z</time>
      </trkpt>
      <trkpt lat="9.9052750" lon="-84.0436520">
        <ele>1181.3</ele>
        <time>2020-01-26T12:53:01Z</time>
      </trkpt>
      <trkpt lat="9.9054480" lon="-84.0434920">
        <ele>1181.9</ele>
        <time>2020-01-26T12:53:05Z</time>
      </trkpt>
      <trkpt lat="9.9056130" lon="-84.0433330">
        <ele>1180.9</ele>
        <time>2020-01-26T12:53:09Z</time>
      </trkpt>
      <trkpt lat="9.9057820" lon="-84.0431690">
        <ele>1179.6</ele>
        <time>2020-01-26T12:53:13Z</time>
      </trkpt>
      <trkpt lat="9.9059150" lon="-84.0430430">
        <ele>1178.3</ele>
        <time>2020-01-26T12:53:16Z</time>
      </trkpt>
      <trkpt lat="9.9060520" lon="-84.0429130">
        <ele>1176.9</ele>
        <time>2020-01-26T12:53:19Z</time>
      </trkpt>
      <trkpt lat="9.9061920" lon="-84.0427710">
        <ele>1175.7</ele>
        <time>2020-01-26T12:53:22Z</time>
      </trkpt>
      <trkpt lat="9.9063270" lon="-84.0426210">
        <ele>1176.5</ele>
        <time>2020-01-26T12:53:25Z</time>
      </trkpt>
      <trkpt lat="9.9064690" lon="-84.0424720">
        <ele>1177.8</ele>
        <time>2020-01-26T12:53:28Z</time>
      </trkpt>
      <trkpt lat="9.9066010" lon="-84.0423280">
        <ele>1179.2</ele>
        <time>2020-01-26T12:53:31Z</time>
      </trkpt>
      <trkpt lat="9.9067570" lon="-84.0421500">
        <ele>1180.9</ele>
        <time>2020-01-26T12:53:35Z</time>
      </trkpt>
      <trkpt lat="9.9068670" lon="-84.0420270">
        <ele>1181.7</ele>
        <time>2020-01-26T12:53:38Z</time>
      </trkpt>
      <trkpt lat="9.9070130" lon="-84.0418670">
        <ele>1182.5</ele>
        <time>2020-01-26T12:53:42Z</time>
      </trkpt>
      <trkpt lat="9.9071680" lon="-84.0417050">
        <ele>1183.2</ele>
        <time>2020-01-26T12:53:46Z</time>
      </trkpt>
      <trkpt lat="9.9073340" lon="-84.0415560">
        <ele>1184.0</ele>
        <time>2020-01-26T12:53:50Z</time>
      </trkpt>
      <trkpt lat="9.9073730" lon="-84.0415190">
        <ele>1184.0</ele>
        <time>2020-01-26T12:53:51Z</time>
      </trkpt>
      <trkpt lat="9.9075280" lon="-84.0413790">
        <ele>1184.7</ele>
        <time>2020-01-26T12:53:55Z</time>
      </trkpt>
      <trkpt lat="9.9076730" lon="-84.0412240">
        <ele>1183.7</ele>
        <time>2020-01-26T12:54:00Z</time>
      </trkpt>
      <trkpt lat="9.9078030" lon="-84.0410650">
        <ele>1182.3</ele>
        <time>2020-01-26T12:54:06Z</time>
      </trkpt>
      <trkpt lat="9.9079360" lon="-84.0409230">
        <ele>1180.9</ele>
        <time>2020-01-26T12:54:13Z</time>
      </trkpt>
      <trkpt lat="9.9080180" lon="-84.0408770">
        <ele>1180.0</ele>
        <time>2020-01-26T12:54:15Z</time>
      </trkpt>
      <trkpt lat="9.9081980" lon="-84.0408300">
        <ele>1179.0</ele>
        <time>2020-01-26T12:54:18Z</time>
      </trkpt>
      <trkpt lat="9.9082630" lon="-84.0408050">
        <ele>1178.9</ele>
        <time>2020-01-26T12:54:19Z</time>
      </trkpt>
      <trkpt lat="9.9084180" lon="-84.0406590">
        <ele>1179.1</ele>
        <time>2020-01-26T12:54:22Z</time>
      </trkpt>
      <trkpt lat="9.9085470" lon="-84.0404830">
        <ele>1179.8</ele>
        <time>2020-01-26T12:54:25Z</time>
      </trkpt>
      <trkpt lat="9.9086630" lon="-84.0403010">
        <ele>1181.9</ele>
        <time>2020-01-26T12:54:28Z</time>
      </trkpt>
      <trkpt lat="9.9087690" lon="-84.0401360">
        <ele>1184.8</ele>
        <time>2020-01-26T12:54:31Z</time>
      </trkpt>
      <trkpt lat="9.9088930" lon="-84.0399580">
        <ele>1188.6</ele>
        <time>2020-01-26T12:54:35Z</time>
      </trkpt>
      <trkpt lat="9.9090030" lon="-84.0397610">
        <ele>1191.9</ele>
        <time>2020-01-26T12:54:40Z</time>
      </trkpt>
      <trkpt lat="9.9090670" lon="-84.0396450">
        <ele>1193.1</ele>
        <time>2020-01-26T12:54:43Z</time>
      </trkpt>
      <trkpt lat="9.9091100" lon="-84.0395690">
        <ele>1193.9</ele>
        <time>2020-01-26T12:54:45Z</time>
      </trkpt>
      <trkpt lat="9.9091280" lon="-84.0395320">
        <ele>1194.2</ele>
        <time>2020-01-26T12:54:46Z</time>
      </trkpt>
      <trkpt lat="9.9091460" lon="-84.0394930">
        <ele>1194.6</ele>
        <time>2020-01-26T12:54:47Z</time>
      </trkpt>
      <trkpt lat="9.9092240" lon="-84.0393060">
        <ele>1193.3</ele>
        <time>2020-01-26T12:54:52Z</time>
      </trkpt>
      <trkpt lat="9.9092530" lon="-84.0392300">
        <ele>1193.0</ele>
        <time>2020-01-26T12:54:54Z</time>
      </trkpt>
      <trkpt lat="9.9093240" lon="-84.0390520">
        <ele>1192.3</ele>
        <time>2020-01-26T12:55:00Z</time>
      </trkpt>
      <trkpt lat="9.9093640" lon="-84.0388630">
        <ele>1191.6</ele>
        <time>2020-01-26T12:55:06Z</time>
      </trkpt>
      <trkpt lat="9.9094030" lon="-84.0386620">
        <ele>1192.6</ele>
        <time>2020-01-26T12:55:12Z</time>
      </trkpt>
      <trkpt lat="9.9094130" lon="-84.0384800">
        <ele>1194.8</ele>
        <time>2020-01-26T12:55:17Z</time>
      </trkpt>
      <trkpt lat="9.9094210" lon="-84.0382960">
        <ele>1197.9</ele>
        <time>2020-01-26T12:55:22Z</time>
      </trkpt>
      <trkpt lat="9.9094390" lon="-84.0381090">
        <ele>1200.5</ele>
        <time>2020-01-26T12:55:27Z</time>
      </trkpt>
      <trkpt lat="9.9094460" lon="-84.0380710">
        <ele>1200.9</ele>
        <time>2020-01-26T12:55:28Z</time>
      </trkpt>
      <trkpt lat="9.9094760" lon="-84.0378930">
        <ele>1202.3</ele>
        <time>2020-01-26T12:55:33Z</time>
      </trkpt>
      <trkpt lat="9.9094880" lon="-84.0378590">
        <ele>1202.6</ele>
        <time>2020-01-26T12:55:34Z</time>
      </trkpt>
      <trkpt lat="9.9095160" lon="-84.0377900">
        <ele>1203.0</ele>
        <time>2020-01-26T12:55:36Z</time>
      </trkpt>
      <trkpt lat="9.9095750" lon="-84.0376150">
        <ele>1203.9</ele>
        <time>2020-01-26T12:55:41Z</time>
      </trkpt>
      <trkpt lat="9.9096660" lon="-84.0374540">
        <ele>1204.9</ele>
        <time>2020-01-26T12:55:46Z</time>
      </trkpt>
      <trkpt lat="9.9097840" lon="-84.0372770">
        <ele>1205.8</ele>
        <time>2020-01-26T12:55:51Z</time>
      </trkpt>
      <trkpt lat="9.9098840" lon="-84.0371230">
        <ele>1206.3</ele>
        <time>2020-01-26T12:55:55Z</time>
      </trkpt>
      <trkpt lat="9.9099790" lon="-84.0369640">
        <ele>1206.6</ele>
        <time>2020-01-26T12:55:59Z</time>
      </trkpt>
      <trkpt lat="9.9100950" lon="-84.0368070">
        <ele>1207.0</ele>
        <time>2020-01-26T12:56:03Z</time>
      </trkpt>
      <trkpt lat="9.9101800" lon="-84.0366950">
        <ele>1207.6</ele>
        <time>2020-01-26T12:56:06Z</time>
      </trkpt>
      <trkpt lat="9.9102780" lon="-84.0365950">
        <ele>1208.3</ele>
        <time>2020-01-26T12:56:09Z</time>
      </trkpt>
      <trkpt lat="9.9103960" lon="-84.0364760">
        <ele>1209.2</ele>
        <time>2020-01-26T12:56:13Z</time>
      </trkpt>
      <trkpt lat="9.9104590" lon="-84.0364180">
        <ele>1209.6</ele>
        <time>2020-01-26T12:56:15Z</time>
      </trkpt>
      <trkpt lat="9.9106070" lon="-84.0363100">
        <ele>1208.8</ele>
        <time>2020-01-26T12:56:19Z</time>
      </trkpt>
      <trkpt lat="9.9106850" lon="-84.0362630">
        <ele>1208.4</ele>
        <time>2020-01-26T12:56:21Z</time>
      </trkpt>
      <trkpt lat="9.9107740" lon="-84.0362270">
        <ele>1207.9</ele>
        <time>2020-01-26T12:56:23Z</time>
      </trkpt>
      <trkpt lat="9.9109450" lon="-84.0361570">
        <ele>1207.4</ele>
        <time>2020-01-26T12:56:27Z</time>
      </trkpt>
      <trkpt lat="9.9111520" lon="-84.0361170">
        <ele>1206.9</ele>
        <time>2020-01-26T12:56:32Z</time>
      </trkpt>
      <trkpt lat="9.9112070" lon="-84.0360990">
        <ele>1206.7</ele>
        <time>2020-01-26T12:56:34Z</time>
      </trkpt>
      <trkpt lat="9.9112310" lon="-84.0360910">
        <ele>1206.7</ele>
        <time>2020-01-26T12:56:35Z</time>
      </trkpt>
      <trkpt lat="9.9114400" lon="-84.0360850">
        <ele>1205.5</ele>
        <time>2020-01-26T12:56:42Z</time>
      </trkpt>
      <trkpt lat="9.9116900" lon="-84.0360450">
        <ele>1203.5</ele>
        <time>2020-01-26T12:56:46Z</time>
      </trkpt>
      <trkpt lat="9.9119370" lon="-84.0360230">
        <ele>1203.3</ele>
        <time>2020-01-26T12:56:49Z</time>
      </trkpt>
      <trkpt lat="9.9121790" lon="-84.0360020">
        <ele>1203.3</ele>
        <time>2020-01-26T12:56:52Z</time>
      </trkpt>
      <trkpt lat="9.9124160" lon="-84.0359840">
        <ele>1203.8</ele>
        <time>2020-01-26T12:56:55Z</time>
      </trkpt>
      <trkpt lat="9.9126320" lon="-84.0359660">
        <ele>1204.5</ele>
        <time>2020-01-26T12:56:58Z</time>
      </trkpt>
      <trkpt lat="9.9128110" lon="-84.0359520">
        <ele>1205.5</ele>
        <time>2020-01-26T12:57:01Z</time>
      </trkpt>
      <trkpt lat="9.9130050" lon="-84.0359600">
        <ele>1207.1</ele>
        <time>2020-01-26T12:57:05Z</time>
      </trkpt>
      <trkpt lat="9.9131530" lon="-84.0359480">
        <ele>1208.3</ele>
        <time>2020-01-26T12:57:08Z</time>
      </trkpt>
      <trkpt lat="9.9133280" lon="-84.0359310">
        <ele>1209.4</ele>
        <time>2020-01-26T12:57:12Z</time>
      </trkpt>
      <trkpt lat="9.9135290" lon="-84.0359140">
        <ele>1210.4</ele>
        <time>2020-01-26T12:57:17Z</time>
      </trkpt>
      <trkpt lat="9.9137370" lon="-84.0358990">
        <ele>1211.4</ele>
        <time>2020-01-26T12:57:22Z</time>
      </trkpt>
      <trkpt lat="9.9138620" lon="-84.0358870">
        <ele>1211.9</ele>
        <time>2020-01-26T12:57:25Z</time>
      </trkpt>
      <trkpt lat="9.9139050" lon="-84.0358860">
        <ele>1212.1</ele>
        <time>2020-01-26T12:57:26Z</time>
      </trkpt>
      <trkpt lat="9.9141260" lon="-84.0358670">
        <ele>1212.2</ele>
        <time>2020-01-26T12:57:31Z</time>
      </trkpt>
      <trkpt lat="9.9143470" lon="-84.0358530">
        <ele>1213.0</ele>
        <time>2020-01-26T12:57:36Z</time>
      </trkpt>
      <trkpt lat="9.9145310" lon="-84.0358320">
        <ele>1213.9</ele>
        <time>2020-01-26T12:57:40Z</time>
      </trkpt>
      <trkpt lat="9.9145760" lon="-84.0358280">
        <ele>1214.0</ele>
        <time>2020-01-26T12:57:41Z</time>
      </trkpt>
      <trkpt lat="9.9147920" lon="-84.0357980">
        <ele>1214.6</ele>
        <time>2020-01-26T12:57:46Z</time>
      </trkpt>
      <trkpt lat="9.9149940" lon="-84.0357760">
        <ele>1215.7</ele>
        <time>2020-01-26T12:57:51Z</time>
      </trkpt>
      <trkpt lat="9.9151820" lon="-84.0357660">
        <ele>1216.7</ele>
        <time>2020-01-26T12:57:56Z</time>
      </trkpt>
      <trkpt lat="9.9152860" lon="-84.0357620">
        <ele>1217.4</ele>
        <time>2020-01-26T12:57:59Z</time>
      </trkpt>
      <trkpt lat="9.9153220" lon="-84.0357600">
        <ele>1217.6</ele>
        <time>2020-01-26T12:58:00Z</time>
      </trkpt>
      <trkpt lat="9.9154160" lon="-84.0357520">
        <ele>1218.2</ele>
        <time>2020-01-26T12:58:03Z</time>
      </trkpt>
      <trkpt lat="9.9155080" lon="-84.0356880">
        <ele>1219.0</ele>
        <time>2020-01-26T12:58:07Z</time>
      </trkpt>
      <trkpt lat="9.9155040" lon="-84.0355340">
        <ele>1219.7</ele>
        <time>2020-01-26T12:58:11Z</time>
      </trkpt>
      <trkpt lat="9.9154880" lon="-84.0353500">
        <ele>1220.0</ele>
        <time>2020-01-26T12:58:15Z</time>
      </trkpt>
      <trkpt lat="9.9154750" lon="-84.0351470">
        <ele>1220.3</ele>
        <time>2020-01-26T12:58:19Z</time>
      </trkpt>
      <trkpt lat="9.9154580" lon="-84.0349330">
        <ele>1220.5</ele>
        <time>2020-01-26T12:58:23Z</time>
      </trkpt>
      <trkpt lat="9.9154430" lon="-84.0347020">
        <ele>1220.0</ele>
        <time>2020-01-26T12:58:27Z</time>
      </trkpt>
      <trkpt lat="9.9154380" lon="-84.0346430">
        <ele>1219.9</ele>
        <time>2020-01-26T12:58:28Z</time>
      </trkpt>
      <trkpt lat="9.9154120" lon="-84.0344050">
        <ele>1220.4</ele>
        <time>2020-01-26T12:58:32Z</time>
      </trkpt>
      <trkpt lat="9.9154070" lon="-84.0343550">
        <ele>1220.6</ele>
        <time>2020-01-26T12:58:33Z</time>
      </trkpt>
      <trkpt lat="9.9153650" lon="-84.0341650">
        <ele>1221.5</ele>
        <time>2020-01-26T12:58:40Z</time>
      </trkpt>
      <trkpt lat="9.9153560" lon="-84.0339520">
        <ele>1222.7</ele>
        <time>2020-01-26T12:58:46Z</time>
      </trkpt>
      <trkpt lat="9.9153500" lon="-84.0339150">
        <ele>1222.7</ele>
        <time>2020-01-26T12:58:47Z</time>
      </trkpt>
      <trkpt lat="9.9153330" lon="-84.0337350">
        <ele>1222.9</ele>
        <time>2020-01-26T12:58:51Z</time>
      </trkpt>
      <trkpt lat="9.9153250" lon="-84.0336360">
        <ele>1222.8</ele>
        <time>2020-01-26T12:58:53Z</time>
      </trkpt>
      <trkpt lat="9.9153110" lon="-84.0334740">
        <ele>1221.1</ele>
        <time>2020-01-26T12:58:56Z</time>
      </trkpt>
      <trkpt lat="9.9153080" lon="-84.0334170">
        <ele>1219.9</ele>
        <time>2020-01-26T12:58:57Z</time>
      </trkpt>
      <trkpt lat="9.9152850" lon="-84.0331840">
        <ele>1218.5</ele>
        <time>2020-01-26T12:59:01Z</time>
      </trkpt>
      <trkpt lat="9.9152680" lon="-84.0329980">
        <ele>1218.6</ele>
        <time>2020-01-26T12:59:04Z</time>
      </trkpt>
      <trkpt lat="9.9152630" lon="-84.0329340">
        <ele>1218.6</ele>
        <time>2020-01-26T12:59:05Z</time>
      </trkpt>
      <trkpt lat="9.9152560" lon="-84.0328670">
        <ele>1218.6</ele>
        <time>2020-01-26T12:59:06Z</time>
      </trkpt>
      <trkpt lat="9.9152470" lon="-84.0326700">
        <ele>1218.8</ele>
        <time>2020-01-26T12:59:09Z</time>
      </trkpt>
      <trkpt lat="9.9152370" lon="-84.0324700">
        <ele>1218.6</ele>
        <time>2020-01-26T12:59:12Z</time>
      </trkpt>
      <trkpt lat="9.9152170" lon="-84.0322640">
        <ele>1216.9</ele>
        <time>2020-01-26T12:59:15Z</time>
      </trkpt>
      <trkpt lat="9.9151970" lon="-84.0321260">
        <ele>1216.4</ele>
        <time>2020-01-26T12:59:17Z</time>
      </trkpt>
      <trkpt lat="9.9151540" lon="-84.0319270">
        <ele>1216.2</ele>
        <time>2020-01-26T12:59:20Z</time>
      </trkpt>
      <trkpt lat="9.9150850" lon="-84.0317340">
        <ele>1216.5</ele>
        <time>2020-01-26T12:59:23Z</time>
      </trkpt>
      <trkpt lat="9.9150020" lon="-84.0315320">
        <ele>1217.5</ele>
        <time>2020-01-26T12:59:26Z</time>
      </trkpt>
      <trkpt lat="9.9149160" lon="-84.0313470">
        <ele>1217.8</ele>
        <time>2020-01-26T12:59:29Z</time>
      </trkpt>
      <trkpt lat="9.9148330" lon="-84.0311710">
        <ele>1217.9</ele>
        <time>2020-01-26T12:59:32Z</time>
      </trkpt>
      <trkpt lat="9.9148060" lon="-84.0311190">
        <ele>1217.9</ele>
        <time>2020-01-26T12:59:33Z</time>
      </trkpt>
      <trkpt lat="9.9146650" lon="-84.0309280">
        <ele>1218.1</ele>
        <time>2020-01-26T12:59:37Z</time>
      </trkpt>
      <trkpt lat="9.9145690" lon="-84.0307880">
        <ele>1218.5</ele>
        <time>2020-01-26T12:59:40Z</time>
      </trkpt>
      <trkpt lat="9.9145370" lon="-84.0307450">
        <ele>1218.6</ele>
        <time>2020-01-26T12:59:41Z</time>
      </trkpt>
      <trkpt lat="9.9144990" lon="-84.0307040">
        <ele>1218.9</ele>
        <time>2020-01-26T12:59:42Z</time>
      </trkpt>
      <trkpt lat="9.9144580" lon="-84.0306660">
        <ele>1219.1</ele>
        <time>2020-01-26T12:59:43Z</time>
      </trkpt>
      <trkpt lat="9.9144120" lon="-84.0306310">
        <ele>1219.4</ele>
        <time>2020-01-26T12:59:44Z</time>
      </trkpt>
      <trkpt lat="9.9142550" lon="-84.0305300">
        <ele>1220.2</ele>
        <time>2020-01-26T12:59:47Z</time>
      </trkpt>
      <trkpt lat="9.9141980" lon="-84.0305020">
        <ele>1220.0</ele>
        <time>2020-01-26T12:59:48Z</time>
      </trkpt>
      <trkpt lat="9.9140290" lon="-84.0304180">
        <ele>1220.2</ele>
        <time>2020-01-26T12:59:51Z</time>
      </trkpt>
      <trkpt lat="9.9138710" lon="-84.0303140">
        <ele>1220.8</ele>
        <time>2020-01-26T12:59:54Z</time>
      </trkpt>
      <trkpt lat="9.9137410" lon="-84.0302030">
        <ele>1221.5</ele>
        <time>2020-01-26T12:59:57Z</time>
      </trkpt>
      <trkpt lat="9.9136360" lon="-84.0300210">
        <ele>1222.6</ele>
        <time>2020-01-26T13:00:01Z</time>
      </trkpt>
      <trkpt lat="9.9136220" lon="-84.0299720">
        <ele>1222.9</ele>
        <time>2020-01-26T13:00:02Z</time>
      </trkpt>
      <trkpt lat="9.9135960" lon="-84.0298720">
        <ele>1223.4</ele>
        <time>2020-01-26T13:00:04Z</time>
      </trkpt>
      <trkpt lat="9.9135870" lon="-84.0298240">
        <ele>1223.7</ele>
        <time>2020-01-26T13:00:05Z</time>
      </trkpt>
      <trkpt lat="9.9135640" lon="-84.0296340">
        <ele>1224.5</ele>
        <time>2020-01-26T13:00:10Z</time>
      </trkpt>
      <trkpt lat="9.9135810" lon="-84.0294180">
        <ele>1224.3</ele>
        <time>2020-01-26T13:00:16Z</time>
      </trkpt>
      <trkpt lat="9.9135820" lon="-84.0293160">
        <ele>1223.9</ele>
        <time>2020-01-26T13:00:19Z</time>
      </trkpt>
      <trkpt lat="9.9135520" lon="-84.0291420">
        <ele>1223.1</ele>
        <time>2020-01-26T13:00:37Z</time>
      </trkpt>
      <trkpt lat="9.9134690" lon="-84.0289710">
        <ele>1222.6</ele>
        <time>2020-01-26T13:00:42Z</time>
      </trkpt>
      <trkpt lat="9.9134160" lon="-84.0288600">
        <ele>1222.4</ele>
        <time>2020-01-26T13:00:45Z</time>
      </trkpt>
      <trkpt lat="9.9133850" lon="-84.0287800">
        <ele>1222.4</ele>
        <time>2020-01-26T13:00:47Z</time>
      </trkpt>
      <trkpt lat="9.9133690" lon="-84.0287380">
        <ele>1222.3</ele>
        <time>2020-01-26T13:00:48Z</time>
      </trkpt>
      <trkpt lat="9.9133560" lon="-84.0286960">
        <ele>1222.3</ele>
        <time>2020-01-26T13:00:49Z</time>
      </trkpt>
      <trkpt lat="9.9133450" lon="-84.0286550">
        <ele>1222.3</ele>
        <time>2020-01-26T13:00:50Z</time>
      </trkpt>
      <trkpt lat="9.9133360" lon="-84.0286120">
        <ele>1222.3</ele>
        <time>2020-01-26T13:00:51Z</time>
      </trkpt>
      <trkpt lat="9.9133290" lon="-84.0285700">
        <ele>1222.3</ele>
        <time>2020-01-26T13:00:52Z</time>
      </trkpt>
      <trkpt lat="9.9133170" lon="-84.0284150">
        <ele>1222.1</ele>
        <time>2020-01-26T13:00:56Z</time>
      </trkpt>
      <trkpt lat="9.9133080" lon="-84.0282050">
        <ele>1221.8</ele>
        <time>2020-01-26T13:01:02Z</time>
      </trkpt>
      <trkpt lat="9.9132850" lon="-84.0280220">
        <ele>1221.9</ele>
        <time>2020-01-26T13:01:08Z</time>
      </trkpt>
      <trkpt lat="9.9132760" lon="-84.0279620">
        <ele>1221.9</ele>
        <time>2020-01-26T13:01:10Z</time>
      </trkpt>
      <trkpt lat="9.9132380" lon="-84.0277530">
        <ele>1222.6</ele>
        <time>2020-01-26T13:01:16Z</time>
      </trkpt>
      <trkpt lat="9.9131770" lon="-84.0275610">
        <ele>1222.9</ele>
        <time>2020-01-26T13:01:21Z</time>
      </trkpt>
      <trkpt lat="9.9131250" lon="-84.0273460">
        <ele>1223.4</ele>
        <time>2020-01-26T13:01:26Z</time>
      </trkpt>
      <trkpt lat="9.9131040" lon="-84.0272580">
        <ele>1223.6</ele>
        <time>2020-01-26T13:01:28Z</time>
      </trkpt>
      <trkpt lat="9.9130750" lon="-84.0271230">
        <ele>1223.9</ele>
        <time>2020-01-26T13:01:31Z</time>
      </trkpt>
      <trkpt lat="9.9130410" lon="-84.0269040">
        <ele>1224.4</ele>
        <time>2020-01-26T13:01:36Z</time>
      </trkpt>
      <trkpt lat="9.9130160" lon="-84.0267210">
        <ele>1224.7</ele>
        <time>2020-01-26T13:01:40Z</time>
      </trkpt>
      <trkpt lat="9.9129900" lon="-84.0265030">
        <ele>1225.0</ele>
        <time>2020-01-26T13:01:45Z</time>
      </trkpt>
      <trkpt lat="9.9129760" lon="-84.0263760">
        <ele>1225.3</ele>
        <time>2020-01-26T13:01:48Z</time>
      </trkpt>
      <trkpt lat="9.9129600" lon="-84.0261620">
        <ele>1225.9</ele>
        <time>2020-01-26T13:01:53Z</time>
      </trkpt>
      <trkpt lat="9.9129600" lon="-84.0259370">
        <ele>1226.4</ele>
        <time>2020-01-26T13:01:58Z</time>
      </trkpt>
      <trkpt lat="9.9129440" lon="-84.0257550">
        <ele>1226.8</ele>
        <time>2020-01-26T13:02:02Z</time>
      </trkpt>
      <trkpt lat="9.9129240" lon="-84.0255730">
        <ele>1227.2</ele>
        <time>2020-01-26T13:02:06Z</time>
      </trkpt>
      <trkpt lat="9.9129190" lon="-84.0255280">
        <ele>1227.3</ele>
        <time>2020-01-26T13:02:07Z</time>
      </trkpt>
      <trkpt lat="9.9129110" lon="-84.0254410">
        <ele>1227.6</ele>
        <time>2020-01-26T13:02:09Z</time>
      </trkpt>
      <trkpt lat="9.9128960" lon="-84.0252620">
        <ele>1228.2</ele>
        <time>2020-01-26T13:02:13Z</time>
      </trkpt>
      <trkpt lat="9.9128890" lon="-84.0250410">
        <ele>1228.9</ele>
        <time>2020-01-26T13:02:18Z</time>
      </trkpt>
      <trkpt lat="9.9128830" lon="-84.0248240">
        <ele>1229.9</ele>
        <time>2020-01-26T13:02:23Z</time>
      </trkpt>
      <trkpt lat="9.9128790" lon="-84.0246040">
        <ele>1231.0</ele>
        <time>2020-01-26T13:02:28Z</time>
      </trkpt>
      <trkpt lat="9.9128450" lon="-84.0244190">
        <ele>1232.0</ele>
        <time>2020-01-26T13:02:32Z</time>
      </trkpt>
      <trkpt lat="9.9128220" lon="-84.0243270">
        <ele>1232.4</ele>
        <time>2020-01-26T13:02:34Z</time>
      </trkpt>
      <trkpt lat="9.9128030" lon="-84.0242330">
        <ele>1232.9</ele>
        <time>2020-01-26T13:02:36Z</time>
      </trkpt>
      <trkpt lat="9.9127520" lon="-84.0240380">
        <ele>1233.8</ele>
        <time>2020-01-26T13:02:40Z</time>
      </trkpt>
      <trkpt lat="9.9127020" lon="-84.0238930">
        <ele>1234.9</ele>
        <time>2020-01-26T13:02:43Z</time>
      </trkpt>
      <trkpt lat="9.9126360" lon="-84.0236920">
        <ele>1235.8</ele>
        <time>2020-01-26T13:02:47Z</time>
      </trkpt>
      <trkpt lat="9.9125790" lon="-84.0234820">
        <ele>1235.8</ele>
        <time>2020-01-26T13:02:51Z</time>
      </trkpt>
      <trkpt lat="9.9125330" lon="-84.0233220">
        <ele>1235.8</ele>
        <time>2020-01-26T13:02:54Z</time>
      </trkpt>
      <trkpt lat="9.9124570" lon="-84.0231080">
        <ele>1235.5</ele>
        <time>2020-01-26T13:02:58Z</time>
      </trkpt>
      <trkpt lat="9.9123960" lon="-84.0228920">
        <ele>1235.1</ele>
        <time>2020-01-26T13:03:02Z</time>
      </trkpt>
      <trkpt lat="9.9123320" lon="-84.0226700">
        <ele>1234.8</ele>
        <time>2020-01-26T13:03:06Z</time>
      </trkpt>
      <trkpt lat="9.9122590" lon="-84.0224610">
        <ele>1234.3</ele>
        <time>2020-01-26T13:03:10Z</time>
      </trkpt>
      <trkpt lat="9.9122080" lon="-84.0223020">
        <ele>1234.2</ele>
        <time>2020-01-26T13:03:13Z</time>
      </trkpt>
      <trkpt lat="9.9121360" lon="-84.0220820">
        <ele>1234.1</ele>
        <time>2020-01-26T13:03:17Z</time>
      </trkpt>
      <trkpt lat="9.9121000" lon="-84.0219670">
        <ele>1234.0</ele>
        <time>2020-01-26T13:03:19Z</time>
      </trkpt>
      <trkpt lat="9.9120400" lon="-84.0217850">
        <ele>1233.8</ele>
        <time>2020-01-26T13:03:22Z</time>
      </trkpt>
      <trkpt lat="9.9119800" lon="-84.0216050">
        <ele>1233.7</ele>
        <time>2020-01-26T13:03:25Z</time>
      </trkpt>
      <trkpt lat="9.9119220" lon="-84.0214380">
        <ele>1233.9</ele>
        <time>2020-01-26T13:03:28Z</time>
      </trkpt>
      <trkpt lat="9.9118890" lon="-84.0213290">
        <ele>1234.0</ele>
        <time>2020-01-26T13:03:30Z</time>
      </trkpt>
      <trkpt lat="9.9118230" lon="-84.0211070">
        <ele>1234.4</ele>
        <time>2020-01-26T13:03:34Z</time>
      </trkpt>
      <trkpt lat="9.9117640" lon="-84.0208770">
        <ele>1235.2</ele>
        <time>2020-01-26T13:03:38Z</time>
      </trkpt>
      <trkpt lat="9.9117080" lon="-84.0206530">
        <ele>1236.3</ele>
        <time>2020-01-26T13:03:42Z</time>
      </trkpt>
      <trkpt lat="9.9116830" lon="-84.0204500">
        <ele>1237.3</ele>
        <time>2020-01-26T13:03:46Z</time>
      </trkpt>
      <trkpt lat="9.9116860" lon="-84.0203620">
        <ele>1237.7</ele>
        <time>2020-01-26T13:03:48Z</time>
      </trkpt>
      <trkpt lat="9.9117110" lon="-84.0201730">
        <ele>1238.4</ele>
        <time>2020-01-26T13:03:53Z</time>
      </trkpt>
      <trkpt lat="9.9117460" lon="-84.0199510">
        <ele>1239.0</ele>
        <time>2020-01-26T13:03:58Z</time>
      </trkpt>
      <trkpt lat="9.9117670" lon="-84.0197570">
        <ele>1239.2</ele>
        <time>2020-01-26T13:04:02Z</time>
      </trkpt>
      <trkpt lat="9.9117880" lon="-84.0196090">
        <ele>1239.5</ele>
        <time>2020-01-26T13:04:05Z</time>
      </trkpt>
      <trkpt lat="9.9118270" lon="-84.0194120">
        <ele>1239.8</ele>
        <time>2020-01-26T13:04:09Z</time>
      </trkpt>
      <trkpt lat="9.9118680" lon="-84.0192160">
        <ele>1239.9</ele>
        <time>2020-01-26T13:04:13Z</time>
      </trkpt>
      <trkpt lat="9.9118790" lon="-84.0191690">
        <ele>1240.0</ele>
        <time>2020-01-26T13:04:14Z</time>
      </trkpt>
      <trkpt lat="9.9118890" lon="-84.0191200">
        <ele>1240.0</ele>
        <time>2020-01-26T13:04:15Z</time>
      </trkpt>
      <trkpt lat="9.9119160" lon="-84.0189150">
        <ele>1240.4</ele>
        <time>2020-01-26T13:04:19Z</time>
      </trkpt>
      <trkpt lat="9.9119340" lon="-84.0187100">
        <ele>1240.7</ele>
        <time>2020-01-26T13:04:23Z</time>
      </trkpt>
      <trkpt lat="9.9119490" lon="-84.0185090">
        <ele>1241.0</ele>
        <time>2020-01-26T13:04:27Z</time>
      </trkpt>
      <trkpt lat="9.9119620" lon="-84.0183180">
        <ele>1241.4</ele>
        <time>2020-01-26T13:04:31Z</time>
      </trkpt>
      <trkpt lat="9.9119650" lon="-84.0181260">
        <ele>1242.0</ele>
        <time>2020-01-26T13:04:35Z</time>
      </trkpt>
      <trkpt lat="9.9119750" lon="-84.0179400">
        <ele>1242.7</ele>
        <time>2020-01-26T13:04:39Z</time>
      </trkpt>
      <trkpt lat="9.9119800" lon="-84.0177720">
        <ele>1243.5</ele>
        <time>2020-01-26T13:04:43Z</time>
      </trkpt>
      <trkpt lat="9.9119700" lon="-84.0175670">
        <ele>1245.0</ele>
        <time>2020-01-26T13:04:48Z</time>
      </trkpt>
      <trkpt lat="9.9119350" lon="-84.0173550">
        <ele>1246.7</ele>
        <time>2020-01-26T13:04:53Z</time>
      </trkpt>
      <trkpt lat="9.9118960" lon="-84.0171610">
        <ele>1247.6</ele>
        <time>2020-01-26T13:04:58Z</time>
      </trkpt>
      <trkpt lat="9.9118710" lon="-84.0169680">
        <ele>1248.0</ele>
        <time>2020-01-26T13:05:03Z</time>
      </trkpt>
      <trkpt lat="9.9118690" lon="-84.0169290">
        <ele>1248.1</ele>
        <time>2020-01-26T13:05:04Z</time>
      </trkpt>
      <trkpt lat="9.9118640" lon="-84.0168920">
        <ele>1248.2</ele>
        <time>2020-01-26T13:05:05Z</time>
      </trkpt>
      <trkpt lat="9.9118560" lon="-84.0168250">
        <ele>1248.6</ele>
        <time>2020-01-26T13:05:07Z</time>
      </trkpt>
      <trkpt lat="9.9118370" lon="-84.0166760">
        <ele>1249.3</ele>
        <time>2020-01-26T13:05:17Z</time>
      </trkpt>
      <trkpt lat="9.9118210" lon="-84.0166610">
        <ele>1249.5</ele>
        <time>2020-01-26T13:05:24Z</time>
      </trkpt>
      <trkpt lat="9.9117780" lon="-84.0164720">
        <ele>1251.5</ele>
        <time>2020-01-26T13:05:32Z</time>
      </trkpt>
      <trkpt lat="9.9117310" lon="-84.0162740">
        <ele>1253.1</ele>
        <time>2020-01-26T13:05:38Z</time>
      </trkpt>
      <trkpt lat="9.9117090" lon="-84.0161640">
        <ele>1253.1</ele>
        <time>2020-01-26T13:05:41Z</time>
      </trkpt>
      <trkpt lat="9.9116940" lon="-84.0160860">
        <ele>1253.2</ele>
        <time>2020-01-26T13:05:43Z</time>
      </trkpt>
      <trkpt lat="9.9116620" lon="-84.0159260">
        <ele>1253.3</ele>
        <time>2020-01-26T13:05:47Z</time>
      </trkpt>
      <trkpt lat="9.9116210" lon="-84.0157290">
        <ele>1253.7</ele>
        <time>2020-01-26T13:05:52Z</time>
      </trkpt>
      <trkpt lat="9.9115760" lon="-84.0155280">
        <ele>1254.3</ele>
        <time>2020-01-26T13:05:57Z</time>
      </trkpt>
      <trkpt lat="9.9115220" lon="-84.0153250">
        <ele>1254.9</ele>
        <time>2020-01-26T13:06:02Z</time>
      </trkpt>
      <trkpt lat="9.9114540" lon="-84.0151230">
        <ele>1256.2</ele>
        <time>2020-01-26T13:06:07Z</time>
      </trkpt>
      <trkpt lat="9.9114290" lon="-84.0150540">
        <ele>1256.6</ele>
        <time>2020-01-26T13:06:09Z</time>
      </trkpt>
      <trkpt lat="9.9113770" lon="-84.0148860">
        <ele>1257.5</ele>
        <time>2020-01-26T13:06:14Z</time>
      </trkpt>
      <trkpt lat="9.9113430" lon="-84.0147850">
        <ele>1258.0</ele>
        <time>2020-01-26T13:06:17Z</time>
      </trkpt>
      <trkpt lat="9.9112820" lon="-84.0146120">
        <ele>1258.8</ele>
        <time>2020-01-26T13:06:22Z</time>
      </trkpt>
      <trkpt lat="9.9112110" lon="-84.0144120">
        <ele>1259.7</ele>
        <time>2020-01-26T13:06:28Z</time>
      </trkpt>
      <trkpt lat="9.9112000" lon="-84.0143770">
        <ele>1259.8</ele>
        <time>2020-01-26T13:06:29Z</time>
      </trkpt>
      <trkpt lat="9.9111890" lon="-84.0143420">
        <ele>1260.0</ele>
        <time>2020-01-26T13:06:30Z</time>
      </trkpt>
      <trkpt lat="9.9111340" lon="-84.0141350">
        <ele>1261.6</ele>
        <time>2020-01-26T13:06:36Z</time>
      </trkpt>
      <trkpt lat="9.9110560" lon="-84.0139500">
        <ele>1262.8</ele>
        <time>2020-01-26T13:06:42Z</time>
      </trkpt>
      <trkpt lat="9.9109730" lon="-84.0137850">
        <ele>1263.5</ele>
        <time>2020-01-26T13:06:47Z</time>
      </trkpt>
      <trkpt lat="9.9109160" lon="-84.0136910">
        <ele>1264.0</ele>
        <time>2020-01-26T13:06:50Z</time>
      </trkpt>
      <trkpt lat="9.9108100" lon="-84.0135340">
        <ele>1264.7</ele>
        <time>2020-01-26T13:06:55Z</time>
      </trkpt>
      <trkpt lat="9.9107000" lon="-84.0133680">
        <ele>1265.4</ele>
        <time>2020-01-26T13:07:00Z</time>
      </trkpt>
      <trkpt lat="9.9106050" lon="-84.0131980">
        <ele>1265.7</ele>
        <time>2020-01-26T13:07:05Z</time>
      </trkpt>
      <trkpt lat="9.9105120" lon="-84.0130300">
        <ele>1265.3</ele>
        <time>2020-01-26T13:07:10Z</time>
      </trkpt>
      <trkpt lat="9.9104320" lon="-84.0128560">
        <ele>1265.0</ele>
        <time>2020-01-26T13:07:15Z</time>
      </trkpt>
      <trkpt lat="9.9103410" lon="-84.0126800">
        <ele>1264.8</ele>
        <time>2020-01-26T13:07:20Z</time>
      </trkpt>
      <trkpt lat="9.9102540" lon="-84.0125070">
        <ele>1264.6</ele>
        <time>2020-01-26T13:07:25Z</time>
      </trkpt>
      <trkpt lat="9.9102380" lon="-84.0124710">
        <ele>1264.6</ele>
        <time>2020-01-26T13:07:26Z</time>
      </trkpt>
      <trkpt lat="9.9101470" lon="-84.0122930">
        <ele>1265.2</ele>
        <time>2020-01-26T13:07:31Z</time>
      </trkpt>
      <trkpt lat="9.9100420" lon="-84.0121030">
        <ele>1266.1</ele>
        <time>2020-01-26T13:07:36Z</time>
      </trkpt>
      <trkpt lat="9.9099350" lon="-84.0119080">
        <ele>1266.5</ele>
        <time>2020-01-26T13:07:41Z</time>
      </trkpt>
      <trkpt lat="9.9098440" lon="-84.0117620">
        <ele>1267.1</ele>
        <time>2020-01-26T13:07:45Z</time>
      </trkpt>
      <trkpt lat="9.9097500" lon="-84.0115880">
        <ele>1267.8</ele>
        <time>2020-01-26T13:07:50Z</time>
      </trkpt>
      <trkpt lat="9.9096530" lon="-84.0114020">
        <ele>1267.9</ele>
        <time>2020-01-26T13:07:55Z</time>
      </trkpt>
      <trkpt lat="9.9095530" lon="-84.0112080">
        <ele>1267.8</ele>
        <time>2020-01-26T13:08:00Z</time>
      </trkpt>
      <trkpt lat="9.9094480" lon="-84.0110260">
        <ele>1267.7</ele>
        <time>2020-01-26T13:08:05Z</time>
      </trkpt>
      <trkpt lat="9.9093510" lon="-84.0108430">
        <ele>1268.8</ele>
        <time>2020-01-26T13:08:10Z</time>
      </trkpt>
      <trkpt lat="9.9092560" lon="-84.0106650">
        <ele>1269.8</ele>
        <time>2020-01-26T13:08:15Z</time>
      </trkpt>
      <trkpt lat="9.9091780" lon="-84.0104880">
        <ele>1270.9</ele>
        <time>2020-01-26T13:08:20Z</time>
      </trkpt>
      <trkpt lat="9.9091080" lon="-84.0103070">
        <ele>1272.0</ele>
        <time>2020-01-26T13:08:25Z</time>
      </trkpt>
      <trkpt lat="9.9090470" lon="-84.0101270">
        <ele>1272.1</ele>
        <time>2020-01-26T13:08:30Z</time>
      </trkpt>
      <trkpt lat="9.9089770" lon="-84.0099430">
        <ele>1273.4</ele>
        <time>2020-01-26T13:08:35Z</time>
      </trkpt>
      <trkpt lat="9.9088960" lon="-84.0097730">
        <ele>1274.5</ele>
        <time>2020-01-26T13:08:40Z</time>
      </trkpt>
      <trkpt lat="9.9088180" lon="-84.0095920">
        <ele>1275.8</ele>
        <time>2020-01-26T13:08:45Z</time>
      </trkpt>
      <trkpt lat="9.9087270" lon="-84.0094070">
        <ele>1277.3</ele>
        <time>2020-01-26T13:08:50Z</time>
      </trkpt>
      <trkpt lat="9.9086480" lon="-84.0092400">
        <ele>1278.9</ele>
        <time>2020-01-26T13:08:55Z</time>
      </trkpt>
      <trkpt lat="9.9085470" lon="-84.0090650">
        <ele>1280.4</ele>
        <time>2020-01-26T13:09:01Z</time>
      </trkpt>
      <trkpt lat="9.9085090" lon="-84.0089690">
        <ele>1281.0</ele>
        <time>2020-01-26T13:09:04Z</time>
      </trkpt>
      <trkpt lat="9.9084490" lon="-84.0087910">
        <ele>1282.2</ele>
        <time>2020-01-26T13:09:10Z</time>
      </trkpt>
      <trkpt lat="9.9084130" lon="-84.0085880">
        <ele>1283.8</ele>
        <time>2020-01-26T13:09:17Z</time>
      </trkpt>
      <trkpt lat="9.9084070" lon="-84.0084000">
        <ele>1285.2</ele>
        <time>2020-01-26T13:09:23Z</time>
      </trkpt>
      <trkpt lat="9.9083990" lon="-84.0082420">
        <ele>1286.3</ele>
        <time>2020-01-26T13:09:28Z</time>
      </trkpt>
      <trkpt lat="9.9084140" lon="-84.0080460">
        <ele>1287.5</ele>
        <time>2020-01-26T13:09:34Z</time>
      </trkpt>
      <trkpt lat="9.9084140" lon="-84.0079420">
        <ele>1288.1</ele>
        <time>2020-01-26T13:09:37Z</time>
      </trkpt>
      <trkpt lat="9.9084280" lon="-84.0077360">
        <ele>1289.1</ele>
        <time>2020-01-26T13:09:43Z</time>
      </trkpt>
      <trkpt lat="9.9084640" lon="-84.0075270">
        <ele>1289.9</ele>
        <time>2020-01-26T13:09:49Z</time>
      </trkpt>
      <trkpt lat="9.9084870" lon="-84.0073900">
        <ele>1290.4</ele>
        <time>2020-01-26T13:09:53Z</time>
      </trkpt>
      <trkpt lat="9.9085170" lon="-84.0071740">
        <ele>1291.4</ele>
        <time>2020-01-26T13:09:59Z</time>
      </trkpt>
      <trkpt lat="9.9085540" lon="-84.0069670">
        <ele>1292.1</ele>
        <time>2020-01-26T13:10:05Z</time>
      </trkpt>
      <trkpt lat="9.9085710" lon="-84.0068570">
        <ele>1292.2</ele>
        <time>2020-01-26T13:10:08Z</time>
      </trkpt>
      <trkpt lat="9.9086000" lon="-84.0066430">
        <ele>1292.5</ele>
        <time>2020-01-26T13:10:14Z</time>
      </trkpt>
      <trkpt lat="9.9086350" lon="-84.0065030">
        <ele>1292.8</ele>
        <time>2020-01-26T13:10:18Z</time>
      </trkpt>
      <trkpt lat="9.9086590" lon="-84.0063620">
        <ele>1293.1</ele>
        <time>2020-01-26T13:10:22Z</time>
      </trkpt>
      <trkpt lat="9.9087070" lon="-84.0061790">
        <ele>1294.0</ele>
        <time>2020-01-26T13:10:27Z</time>
      </trkpt>
      <trkpt lat="9.9087510" lon="-84.0060010">
        <ele>1294.3</ele>
        <time>2020-01-26T13:10:32Z</time>
      </trkpt>
      <trkpt lat="9.9087740" lon="-84.0058170">
        <ele>1294.4</ele>
        <time>2020-01-26T13:10:37Z</time>
      </trkpt>
      <trkpt lat="9.9088160" lon="-84.0056010">
        <ele>1294.6</ele>
        <time>2020-01-26T13:10:43Z</time>
      </trkpt>
      <trkpt lat="9.9088580" lon="-84.0054170">
        <ele>1295.6</ele>
        <time>2020-01-26T13:10:48Z</time>
      </trkpt>
      <trkpt lat="9.9089090" lon="-84.0052400">
        <ele>1297.2</ele>
        <time>2020-01-26T13:10:53Z</time>
      </trkpt>
      <trkpt lat="9.9089590" lon="-84.0050430">
        <ele>1299.9</ele>
        <time>2020-01-26T13:10:59Z</time>
      </trkpt>
      <trkpt lat="9.9090120" lon="-84.0048490">
        <ele>1303.1</ele>
        <time>2020-01-26T13:11:05Z</time>
      </trkpt>
      <trkpt lat="9.9090240" lon="-84.0047840">
        <ele>1304.3</ele>
        <time>2020-01-26T13:11:07Z</time>
      </trkpt>
      <trkpt lat="9.9090570" lon="-84.0045890">
        <ele>1307.2</ele>
        <time>2020-01-26T13:11:13Z</time>
      </trkpt>
      <trkpt lat="9.9090740" lon="-84.0044560">
        <ele>1309.6</ele>
        <time>2020-01-26T13:11:17Z</time>
      </trkpt>
      <trkpt lat="9.9090800" lon="-84.0044250">
        <ele>1310.2</ele>
        <time>2020-01-26T13:11:18Z</time>
      </trkpt>
      <trkpt lat="9.9090960" lon="-84.0042420">
        <ele>1311.9</ele>
        <time>2020-01-26T13:11:24Z</time>
      </trkpt>
      <trkpt lat="9.9091120" lon="-84.0040280">
        <ele>1310.7</ele>
        <time>2020-01-26T13:11:30Z</time>
      </trkpt>
      <trkpt lat="9.9091530" lon="-84.0038260">
        <ele>1309.2</ele>
        <time>2020-01-26T13:11:36Z</time>
      </trkpt>
      <trkpt lat="9.9091880" lon="-84.0036220">
        <ele>1309.9</ele>
        <time>2020-01-26T13:11:42Z</time>
      </trkpt>
      <trkpt lat="9.9092100" lon="-84.0034110">
        <ele>1311.5</ele>
        <time>2020-01-26T13:11:48Z</time>
      </trkpt>
      <trkpt lat="9.9092310" lon="-84.0032680">
        <ele>1312.3</ele>
        <time>2020-01-26T13:11:52Z</time>
      </trkpt>
      <trkpt lat="9.9092600" lon="-84.0030810">
        <ele>1313.8</ele>
        <time>2020-01-26T13:11:57Z</time>
      </trkpt>
      <trkpt lat="9.9092860" lon="-84.0028980">
        <ele>1314.8</ele>
        <time>2020-01-26T13:12:02Z</time>
      </trkpt>
      <trkpt lat="9.9093150" lon="-84.0027140">
        <ele>1315.5</ele>
        <time>2020-01-26T13:12:07Z</time>
      </trkpt>
      <trkpt lat="9.9093580" lon="-84.0025270">
        <ele>1315.4</ele>
        <time>2020-01-26T13:12:12Z</time>
      </trkpt>
      <trkpt lat="9.9093680" lon="-84.0024930">
        <ele>1315.4</ele>
        <time>2020-01-26T13:12:13Z</time>
      </trkpt>
      <trkpt lat="9.9094030" lon="-84.0022930">
        <ele>1315.2</ele>
        <time>2020-01-26T13:12:18Z</time>
      </trkpt>
      <trkpt lat="9.9094440" lon="-84.0020970">
        <ele>1315.4</ele>
        <time>2020-01-26T13:12:23Z</time>
      </trkpt>
      <trkpt lat="9.9094580" lon="-84.0020250">
        <ele>1315.5</ele>
        <time>2020-01-26T13:12:25Z</time>
      </trkpt>
      <trkpt lat="9.9094840" lon="-84.0019260">
        <ele>1315.6</ele>
        <time>2020-01-26T13:12:28Z</time>
      </trkpt>
      <trkpt lat="9.9095330" lon="-84.0017190">
        <ele>1315.7</ele>
        <time>2020-01-26T13:12:34Z</time>
      </trkpt>
      <trkpt lat="9.9095440" lon="-84.0016450">
        <ele>1315.8</ele>
        <time>2020-01-26T13:12:36Z</time>
      </trkpt>
      <trkpt lat="9.9095760" lon="-84.0014490">
        <ele>1316.0</ele>
        <time>2020-01-26T13:12:41Z</time>
      </trkpt>
      <trkpt lat="9.9095970" lon="-84.0012330">
        <ele>1316.4</ele>
        <time>2020-01-26T13:12:46Z</time>
      </trkpt>
      <trkpt lat="9.9096110" lon="-84.0010930">
        <ele>1316.7</ele>
        <time>2020-01-26T13:12:49Z</time>
      </trkpt>
      <trkpt lat="9.9096250" lon="-84.0010030">
        <ele>1316.8</ele>
        <time>2020-01-26T13:12:51Z</time>
      </trkpt>
      <trkpt lat="9.9096460" lon="-84.0008680">
        <ele>1317.1</ele>
        <time>2020-01-26T13:12:54Z</time>
      </trkpt>
      <trkpt lat="9.9096680" lon="-84.0006410">
        <ele>1317.7</ele>
        <time>2020-01-26T13:12:59Z</time>
      </trkpt>
      <trkpt lat="9.9096710" lon="-84.0005450">
        <ele>1317.5</ele>
        <time>2020-01-26T13:13:01Z</time>
      </trkpt>
      <trkpt lat="9.9096890" lon="-84.0003600">
        <ele>1317.3</ele>
        <time>2020-01-26T13:13:05Z</time>
      </trkpt>
      <trkpt lat="9.9097080" lon="-84.0001770">
        <ele>1317.1</ele>
        <time>2020-01-26T13:13:09Z</time>
      </trkpt>
      <trkpt lat="9.9097140" lon="-84.0001320">
        <ele>1317.0</ele>
        <time>2020-01-26T13:13:10Z</time>
      </trkpt>
      <trkpt lat="9.9097210" lon="-84.0000880">
        <ele>1317.0</ele>
        <time>2020-01-26T13:13:11Z</time>
      </trkpt>
      <trkpt lat="9.9097270" lon="-83.9998980">
        <ele>1316.7</ele>
        <time>2020-01-26T13:13:15Z</time>
      </trkpt>
      <trkpt lat="9.9097260" lon="-83.9997570">
        <ele>1316.6</ele>
        <time>2020-01-26T13:13:18Z</time>
      </trkpt>
      <trkpt lat="9.9097140" lon="-83.9995620">
        <ele>1316.5</ele>
        <time>2020-01-26T13:13:22Z</time>
      </trkpt>
      <trkpt lat="9.9096940" lon="-83.9993660">
        <ele>1317.2</ele>
        <time>2020-01-26T13:13:26Z</time>
      </trkpt>
      <trkpt lat="9.9096650" lon="-83.9991840">
        <ele>1317.7</ele>
        <time>2020-01-26T13:13:30Z</time>
      </trkpt>
      <trkpt lat="9.9096420" lon="-83.9989960">
        <ele>1318.3</ele>
        <time>2020-01-26T13:13:34Z</time>
      </trkpt>
      <trkpt lat="9.9096180" lon="-83.9988030">
        <ele>1319.0</ele>
        <time>2020-01-26T13:13:38Z</time>
      </trkpt>
      <trkpt lat="9.9095950" lon="-83.9986130">
        <ele>1319.8</ele>
        <time>2020-01-26T13:13:42Z</time>
      </trkpt>
      <trkpt lat="9.9095890" lon="-83.9985140">
        <ele>1320.3</ele>
        <time>2020-01-26T13:13:44Z</time>
      </trkpt>
      <trkpt lat="9.9095750" lon="-83.9983190">
        <ele>1321.2</ele>
        <time>2020-01-26T13:13:48Z</time>
      </trkpt>
      <trkpt lat="9.9095550" lon="-83.9981290">
        <ele>1321.9</ele>
        <time>2020-01-26T13:13:52Z</time>
      </trkpt>
      <trkpt lat="9.9095500" lon="-83.9980790">
        <ele>1321.9</ele>
        <time>2020-01-26T13:13:53Z</time>
      </trkpt>
      <trkpt lat="9.9095450" lon="-83.9980300">
        <ele>1321.9</ele>
        <time>2020-01-26T13:13:54Z</time>
      </trkpt>
      <trkpt lat="9.9095310" lon="-83.9978400">
        <ele>1322.0</ele>
        <time>2020-01-26T13:13:58Z</time>
      </trkpt>
      <trkpt lat="9.9095130" lon="-83.9976510">
        <ele>1322.2</ele>
        <time>2020-01-26T13:14:02Z</time>
      </trkpt>
      <trkpt lat="9.9094930" lon="-83.9974540">
        <ele>1322.5</ele>
        <time>2020-01-26T13:14:06Z</time>
      </trkpt>
      <trkpt lat="9.9094790" lon="-83.9972510">
        <ele>1322.8</ele>
        <time>2020-01-26T13:14:10Z</time>
      </trkpt>
      <trkpt lat="9.9094580" lon="-83.9970430">
        <ele>1323.5</ele>
        <time>2020-01-26T13:14:14Z</time>
      </trkpt>
      <trkpt lat="9.9094330" lon="-83.9968350">
        <ele>1324.0</ele>
        <time>2020-01-26T13:14:18Z</time>
      </trkpt>
      <trkpt lat="9.9094030" lon="-83.9966190">
        <ele>1324.4</ele>
        <time>2020-01-26T13:14:22Z</time>
      </trkpt>
      <trkpt lat="9.9093740" lon="-83.9964070">
        <ele>1324.3</ele>
        <time>2020-01-26T13:14:26Z</time>
      </trkpt>
      <trkpt lat="9.9093400" lon="-83.9962020">
        <ele>1324.0</ele>
        <time>2020-01-26T13:14:30Z</time>
      </trkpt>
      <trkpt lat="9.9093080" lon="-83.9959960">
        <ele>1324.0</ele>
        <time>2020-01-26T13:14:34Z</time>
      </trkpt>
      <trkpt lat="9.9092730" lon="-83.9957960">
        <ele>1325.0</ele>
        <time>2020-01-26T13:14:38Z</time>
      </trkpt>
      <trkpt lat="9.9092540" lon="-83.9956000">
        <ele>1326.3</ele>
        <time>2020-01-26T13:14:42Z</time>
      </trkpt>
      <trkpt lat="9.9092200" lon="-83.9953800">
        <ele>1327.8</ele>
        <time>2020-01-26T13:14:47Z</time>
      </trkpt>
      <trkpt lat="9.9091920" lon="-83.9951690">
        <ele>1328.7</ele>
        <time>2020-01-26T13:14:52Z</time>
      </trkpt>
      <trkpt lat="9.9091580" lon="-83.9949570">
        <ele>1329.9</ele>
        <time>2020-01-26T13:14:57Z</time>
      </trkpt>
      <trkpt lat="9.9091450" lon="-83.9948700">
        <ele>1330.3</ele>
        <time>2020-01-26T13:14:59Z</time>
      </trkpt>
      <trkpt lat="9.9091220" lon="-83.9947430">
        <ele>1330.9</ele>
        <time>2020-01-26T13:15:02Z</time>
      </trkpt>
      <trkpt lat="9.9090950" lon="-83.9945240">
        <ele>1333.7</ele>
        <time>2020-01-26T13:15:07Z</time>
      </trkpt>
      <trkpt lat="9.9090710" lon="-83.9943000">
        <ele>1335.8</ele>
        <time>2020-01-26T13:15:12Z</time>
      </trkpt>
      <trkpt lat="9.9090390" lon="-83.9940800">
        <ele>1337.2</ele>
        <time>2020-01-26T13:15:17Z</time>
      </trkpt>
      <trkpt lat="9.9090120" lon="-83.9938560">
        <ele>1338.6</ele>
        <time>2020-01-26T13:15:22Z</time>
      </trkpt>
      <trkpt lat="9.9089900" lon="-83.9936290">
        <ele>1339.6</ele>
        <time>2020-01-26T13:15:27Z</time>
      </trkpt>
      <trkpt lat="9.9089860" lon="-83.9935820">
        <ele>1339.8</ele>
        <time>2020-01-26T13:15:28Z</time>
      </trkpt>
      <trkpt lat="9.9089760" lon="-83.9933930">
        <ele>1340.5</ele>
        <time>2020-01-26T13:15:32Z</time>
      </trkpt>
      <trkpt lat="9.9089640" lon="-83.9932030">
        <ele>1340.3</ele>
        <time>2020-01-26T13:15:36Z</time>
      </trkpt>
      <trkpt lat="9.9089580" lon="-83.9930140">
        <ele>1340.1</ele>
        <time>2020-01-26T13:15:40Z</time>
      </trkpt>
      <trkpt lat="9.9089620" lon="-83.9928790">
        <ele>1340.1</ele>
        <time>2020-01-26T13:15:43Z</time>
      </trkpt>
      <trkpt lat="9.9089560" lon="-83.9927410">
        <ele>1340.1</ele>
        <time>2020-01-26T13:15:46Z</time>
      </trkpt>
      <trkpt lat="9.9089500" lon="-83.9925830">
        <ele>1339.7</ele>
        <time>2020-01-26T13:15:49Z</time>
      </trkpt>
      <trkpt lat="9.9089520" lon="-83.9923540">
        <ele>1338.4</ele>
        <time>2020-01-26T13:15:53Z</time>
      </trkpt>
      <trkpt lat="9.9089470" lon="-83.9921680">
        <ele>1337.3</ele>
        <time>2020-01-26T13:15:56Z</time>
      </trkpt>
      <trkpt lat="9.9089390" lon="-83.9919730">
        <ele>1336.6</ele>
        <time>2020-01-26T13:15:59Z</time>
      </trkpt>
      <trkpt lat="9.9089430" lon="-83.9917720">
        <ele>1335.7</ele>
        <time>2020-01-26T13:16:02Z</time>
      </trkpt>
      <trkpt lat="9.9089490" lon="-83.9915650">
        <ele>1334.6</ele>
        <time>2020-01-26T13:16:05Z</time>
      </trkpt>
      <trkpt lat="9.9089570" lon="-83.9913490">
        <ele>1333.7</ele>
        <time>2020-01-26T13:16:08Z</time>
      </trkpt>
      <trkpt lat="9.9089630" lon="-83.9911320">
        <ele>1332.7</ele>
        <time>2020-01-26T13:16:11Z</time>
      </trkpt>
      <trkpt lat="9.9089660" lon="-83.9909150">
        <ele>1332.6</ele>
        <time>2020-01-26T13:16:14Z</time>
      </trkpt>
      <trkpt lat="9.9089600" lon="-83.9907080">
        <ele>1332.4</ele>
        <time>2020-01-26T13:16:17Z</time>
      </trkpt>
      <trkpt lat="9.9089520" lon="-83.9904950">
        <ele>1332.5</ele>
        <time>2020-01-26T13:16:20Z</time>
      </trkpt>
      <trkpt lat="9.9089530" lon="-83.9902770">
        <ele>1332.8</ele>
        <time>2020-01-26T13:16:23Z</time>
      </trkpt>
      <trkpt lat="9.9089530" lon="-83.9900680">
        <ele>1333.4</ele>
        <time>2020-01-26T13:16:26Z</time>
      </trkpt>
      <trkpt lat="9.9089410" lon="-83.9898600">
        <ele>1334.1</ele>
        <time>2020-01-26T13:16:29Z</time>
      </trkpt>
      <trkpt lat="9.9089240" lon="-83.9896530">
        <ele>1334.8</ele>
        <time>2020-01-26T13:16:32Z</time>
      </trkpt>
      <trkpt lat="9.9089080" lon="-83.9894510">
        <ele>1335.5</ele>
        <time>2020-01-26T13:16:35Z</time>
      </trkpt>
      <trkpt lat="9.9088820" lon="-83.9892630">
        <ele>1336.8</ele>
        <time>2020-01-26T13:16:38Z</time>
      </trkpt>
      <trkpt lat="9.9088520" lon="-83.9890300">
        <ele>1338.0</ele>
        <time>2020-01-26T13:16:42Z</time>
      </trkpt>
      <trkpt lat="9.9088170" lon="-83.9888000">
        <ele>1337.9</ele>
        <time>2020-01-26T13:16:46Z</time>
      </trkpt>
      <trkpt lat="9.9087830" lon="-83.9885780">
        <ele>1337.4</ele>
        <time>2020-01-26T13:16:50Z</time>
      </trkpt>
      <trkpt lat="9.9087500" lon="-83.9883800">
        <ele>1336.9</ele>
        <time>2020-01-26T13:16:54Z</time>
      </trkpt>
      <trkpt lat="9.9087220" lon="-83.9881990">
        <ele>1337.6</ele>
        <time>2020-01-26T13:16:58Z</time>
      </trkpt>
      <trkpt lat="9.9086770" lon="-83.9879960">
        <ele>1338.5</ele>
        <time>2020-01-26T13:17:02Z</time>
      </trkpt>
      <trkpt lat="9.9086300" lon="-83.9878070">
        <ele>1339.1</ele>
        <time>2020-01-26T13:17:06Z</time>
      </trkpt>
      <trkpt lat="9.9085830" lon="-83.9876030">
        <ele>1339.6</ele>
        <time>2020-01-26T13:17:11Z</time>
      </trkpt>
      <trkpt lat="9.9085350" lon="-83.9874050">
        <ele>1340.5</ele>
        <time>2020-01-26T13:17:15Z</time>
      </trkpt>
      <trkpt lat="9.9084950" lon="-83.9872000">
        <ele>1340.8</ele>
        <time>2020-01-26T13:17:19Z</time>
      </trkpt>
      <trkpt lat="9.9084450" lon="-83.9870020">
        <ele>1340.4</ele>
        <time>2020-01-26T13:17:23Z</time>
      </trkpt>
      <trkpt lat="9.9084040" lon="-83.9868030">
        <ele>1340.0</ele>
        <time>2020-01-26T13:17:27Z</time>
      </trkpt>
      <trkpt lat="9.9083680" lon="-83.9866100">
        <ele>1340.7</ele>
        <time>2020-01-26T13:17:31Z</time>
      </trkpt>
      <trkpt lat="9.9083570" lon="-83.9865640">
        <ele>1340.9</ele>
        <time>2020-01-26T13:17:32Z</time>
      </trkpt>
      <trkpt lat="9.9083180" lon="-83.9863840">
        <ele>1341.9</ele>
        <time>2020-01-26T13:17:36Z</time>
      </trkpt>
      <trkpt lat="9.9082690" lon="-83.9861670">
        <ele>1343.5</ele>
        <time>2020-01-26T13:17:41Z</time>
      </trkpt>
      <trkpt lat="9.9082270" lon="-83.9859670">
        <ele>1345.1</ele>
        <time>2020-01-26T13:17:46Z</time>
      </trkpt>
      <trkpt lat="9.9081740" lon="-83.9857730">
        <ele>1346.0</ele>
        <time>2020-01-26T13:17:52Z</time>
      </trkpt>
      <trkpt lat="9.9081440" lon="-83.9856250">
        <ele>1346.1</ele>
        <time>2020-01-26T13:17:56Z</time>
      </trkpt>
      <trkpt lat="9.9081330" lon="-83.9855420">
        <ele>1346.2</ele>
        <time>2020-01-26T13:17:58Z</time>
      </trkpt>
      <trkpt lat="9.9080870" lon="-83.9853420">
        <ele>1345.9</ele>
        <time>2020-01-26T13:18:03Z</time>
      </trkpt>
      <trkpt lat="9.9080530" lon="-83.9851530">
        <ele>1345.4</ele>
        <time>2020-01-26T13:18:08Z</time>
      </trkpt>
      <trkpt lat="9.9080140" lon="-83.9849420">
        <ele>1345.6</ele>
        <time>2020-01-26T13:18:15Z</time>
      </trkpt>
      <trkpt lat="9.9079770" lon="-83.9847340">
        <ele>1347.2</ele>
        <time>2020-01-26T13:18:20Z</time>
      </trkpt>
      <trkpt lat="9.9079250" lon="-83.9845500">
        <ele>1348.9</ele>
        <time>2020-01-26T13:18:24Z</time>
      </trkpt>
      <trkpt lat="9.9078670" lon="-83.9843780">
        <ele>1348.6</ele>
        <time>2020-01-26T13:18:28Z</time>
      </trkpt>
      <trkpt lat="9.9078390" lon="-83.9841940">
        <ele>1347.9</ele>
        <time>2020-01-26T13:18:32Z</time>
      </trkpt>
      <trkpt lat="9.9077980" lon="-83.9840040">
        <ele>1347.9</ele>
        <time>2020-01-26T13:18:36Z</time>
      </trkpt>
      <trkpt lat="9.9077590" lon="-83.9837970">
        <ele>1348.5</ele>
        <time>2020-01-26T13:18:40Z</time>
      </trkpt>
      <trkpt lat="9.9077110" lon="-83.9835770">
        <ele>1349.0</ele>
        <time>2020-01-26T13:18:44Z</time>
      </trkpt>
      <trkpt lat="9.9076610" lon="-83.9833580">
        <ele>1349.9</ele>
        <time>2020-01-26T13:18:48Z</time>
      </trkpt>
      <trkpt lat="9.9076150" lon="-83.9831430">
        <ele>1350.5</ele>
        <time>2020-01-26T13:18:52Z</time>
      </trkpt>
      <trkpt lat="9.9075680" lon="-83.9829200">
        <ele>1350.9</ele>
        <time>2020-01-26T13:18:56Z</time>
      </trkpt>
      <trkpt lat="9.9075160" lon="-83.9826880">
        <ele>1350.6</ele>
        <time>2020-01-26T13:19:00Z</time>
      </trkpt>
      <trkpt lat="9.9074820" lon="-83.9825080">
        <ele>1350.1</ele>
        <time>2020-01-26T13:19:03Z</time>
      </trkpt>
      <trkpt lat="9.9074560" lon="-83.9823230">
        <ele>1350.2</ele>
        <time>2020-01-26T13:19:06Z</time>
      </trkpt>
      <trkpt lat="9.9074360" lon="-83.9821310">
        <ele>1349.6</ele>
        <time>2020-01-26T13:19:09Z</time>
      </trkpt>
      <trkpt lat="9.9074190" lon="-83.9819440">
        <ele>1348.3</ele>
        <time>2020-01-26T13:19:12Z</time>
      </trkpt>
      <trkpt lat="9.9074290" lon="-83.9817580">
        <ele>1348.4</ele>
        <time>2020-01-26T13:19:15Z</time>
      </trkpt>
      <trkpt lat="9.9074510" lon="-83.9815260">
        <ele>1349.6</ele>
        <time>2020-01-26T13:19:19Z</time>
      </trkpt>
      <trkpt lat="9.9074850" lon="-83.9813140">
        <ele>1350.3</ele>
        <time>2020-01-26T13:19:23Z</time>
      </trkpt>
      <trkpt lat="9.9075130" lon="-83.9811250">
        <ele>1351.1</ele>
        <time>2020-01-26T13:19:27Z</time>
      </trkpt>
      <trkpt lat="9.9075340" lon="-83.9809930">
        <ele>1351.2</ele>
        <time>2020-01-26T13:19:30Z</time>
      </trkpt>
      <trkpt lat="9.9075560" lon="-83.9808600">
        <ele>1351.2</ele>
        <time>2020-01-26T13:19:33Z</time>
      </trkpt>
      <trkpt lat="9.9075870" lon="-83.9806440">
        <ele>1351.6</ele>
        <time>2020-01-26T13:19:38Z</time>
      </trkpt>
      <trkpt lat="9.9076170" lon="-83.9804310">
        <ele>1352.1</ele>
        <time>2020-01-26T13:19:43Z</time>
      </trkpt>
      <trkpt lat="9.9076480" lon="-83.9802450">
        <ele>1352.7</ele>
        <time>2020-01-26T13:19:48Z</time>
      </trkpt>
      <trkpt lat="9.9076910" lon="-83.9800520">
        <ele>1353.0</ele>
        <time>2020-01-26T13:19:54Z</time>
      </trkpt>
      <trkpt lat="9.9077290" lon="-83.9798690">
        <ele>1353.5</ele>
        <time>2020-01-26T13:20:00Z</time>
      </trkpt>
      <trkpt lat="9.9078400" lon="-83.9797420">
        <ele>1354.8</ele>
        <time>2020-01-26T13:20:05Z</time>
      </trkpt>
      <trkpt lat="9.9079980" lon="-83.9796240">
        <ele>1355.9</ele>
        <time>2020-01-26T13:20:10Z</time>
      </trkpt>
      <trkpt lat="9.9080310" lon="-83.9795980">
        <ele>1356.2</ele>
        <time>2020-01-26T13:20:11Z</time>
      </trkpt>
      <trkpt lat="9.9081750" lon="-83.9794650">
        <ele>1357.2</ele>
        <time>2020-01-26T13:20:16Z</time>
      </trkpt>
      <trkpt lat="9.9083340" lon="-83.9793640">
        <ele>1358.3</ele>
        <time>2020-01-26T13:20:21Z</time>
      </trkpt>
      <trkpt lat="9.9084270" lon="-83.9793230">
        <ele>1359.0</ele>
        <time>2020-01-26T13:20:24Z</time>
      </trkpt>
      <trkpt lat="9.9085160" lon="-83.9792910">
        <ele>1359.4</ele>
        <time>2020-01-26T13:20:27Z</time>
      </trkpt>
      <trkpt lat="9.9087030" lon="-83.9792520">
        <ele>1360.3</ele>
        <time>2020-01-26T13:20:33Z</time>
      </trkpt>
      <trkpt lat="9.9087670" lon="-83.9792410">
        <ele>1360.7</ele>
        <time>2020-01-26T13:20:35Z</time>
      </trkpt>
      <trkpt lat="9.9089660" lon="-83.9792220">
        <ele>1361.6</ele>
        <time>2020-01-26T13:20:41Z</time>
      </trkpt>
      <trkpt lat="9.9090340" lon="-83.9792170">
        <ele>1361.8</ele>
        <time>2020-01-26T13:20:43Z</time>
      </trkpt>
      <trkpt lat="9.9092040" lon="-83.9792090">
        <ele>1362.5</ele>
        <time>2020-01-26T13:20:48Z</time>
      </trkpt>
      <trkpt lat="9.9094120" lon="-83.9791930">
        <ele>1363.6</ele>
        <time>2020-01-26T13:20:54Z</time>
      </trkpt>
      <trkpt lat="9.9096250" lon="-83.9791850">
        <ele>1365.1</ele>
        <time>2020-01-26T13:21:00Z</time>
      </trkpt>
      <trkpt lat="9.9097610" lon="-83.9791640">
        <ele>1366.5</ele>
        <time>2020-01-26T13:21:04Z</time>
      </trkpt>
      <trkpt lat="9.9099570" lon="-83.9791400">
        <ele>1367.8</ele>
        <time>2020-01-26T13:21:10Z</time>
      </trkpt>
      <trkpt lat="9.9099890" lon="-83.9791400">
        <ele>1368.1</ele>
        <time>2020-01-26T13:21:11Z</time>
      </trkpt>
      <trkpt lat="9.9100510" lon="-83.9791510">
        <ele>1368.4</ele>
        <time>2020-01-26T13:21:13Z</time>
      </trkpt>
      <trkpt lat="9.9101460" lon="-83.9791820">
        <ele>1368.9</ele>
        <time>2020-01-26T13:21:16Z</time>
      </trkpt>
      <trkpt lat="9.9103310" lon="-83.9792500">
        <ele>1369.8</ele>
        <time>2020-01-26T13:21:22Z</time>
      </trkpt>
      <trkpt lat="9.9105170" lon="-83.9793190">
        <ele>1370.7</ele>
        <time>2020-01-26T13:21:28Z</time>
      </trkpt>
      <trkpt lat="9.9107140" lon="-83.9793930">
        <ele>1371.6</ele>
        <time>2020-01-26T13:21:34Z</time>
      </trkpt>
      <trkpt lat="9.9109120" lon="-83.9793930">
        <ele>1372.4</ele>
        <time>2020-01-26T13:21:40Z</time>
      </trkpt>
      <trkpt lat="9.9111090" lon="-83.9793480">
        <ele>1373.2</ele>
        <time>2020-01-26T13:21:46Z</time>
      </trkpt>
      <trkpt lat="9.9112970" lon="-83.9792800">
        <ele>1374.0</ele>
        <time>2020-01-26T13:21:52Z</time>
      </trkpt>
      <trkpt lat="9.9114140" lon="-83.9792360">
        <ele>1374.3</ele>
        <time>2020-01-26T13:21:56Z</time>
      </trkpt>
      <trkpt lat="9.9115210" lon="-83.9791770">
        <ele>1374.7</ele>
        <time>2020-01-26T13:22:00Z</time>
      </trkpt>
      <trkpt lat="9.9116620" lon="-83.9790950">
        <ele>1375.4</ele>
        <time>2020-01-26T13:22:05Z</time>
      </trkpt>
      <trkpt lat="9.9117680" lon="-83.9790280">
        <ele>1375.9</ele>
        <time>2020-01-26T13:22:09Z</time>
      </trkpt>
      <trkpt lat="9.9118190" lon="-83.9789890">
        <ele>1376.1</ele>
        <time>2020-01-26T13:22:11Z</time>
      </trkpt>
      <trkpt lat="9.9118440" lon="-83.9789680">
        <ele>1376.3</ele>
        <time>2020-01-26T13:22:12Z</time>
      </trkpt>
      <trkpt lat="9.9119210" lon="-83.9789080">
        <ele>1377.0</ele>
        <time>2020-01-26T13:22:15Z</time>
      </trkpt>
      <trkpt lat="9.9120640" lon="-83.9787800">
        <ele>1378.0</ele>
        <time>2020-01-26T13:22:21Z</time>
      </trkpt>
      <trkpt lat="9.9121320" lon="-83.9787170">
        <ele>1378.7</ele>
        <time>2020-01-26T13:22:24Z</time>
      </trkpt>
      <trkpt lat="9.9122730" lon="-83.9785750">
        <ele>1380.8</ele>
        <time>2020-01-26T13:22:30Z</time>
      </trkpt>
      <trkpt lat="9.9124140" lon="-83.9784490">
        <ele>1383.1</ele>
        <time>2020-01-26T13:22:36Z</time>
      </trkpt>
      <trkpt lat="9.9125900" lon="-83.9783780">
        <ele>1384.9</ele>
        <time>2020-01-26T13:22:42Z</time>
      </trkpt>
      <trkpt lat="9.9127780" lon="-83.9783160">
        <ele>1387.0</ele>
        <time>2020-01-26T13:22:48Z</time>
      </trkpt>
      <trkpt lat="9.9129630" lon="-83.9782430">
        <ele>1388.7</ele>
        <time>2020-01-26T13:22:54Z</time>
      </trkpt>
      <trkpt lat="9.9130250" lon="-83.9782090">
        <ele>1389.1</ele>
        <time>2020-01-26T13:22:56Z</time>
      </trkpt>
      <trkpt lat="9.9131880" lon="-83.9781150">
        <ele>1389.9</ele>
        <time>2020-01-26T13:23:02Z</time>
      </trkpt>
      <trkpt lat="9.9133330" lon="-83.9779930">
        <ele>1390.4</ele>
        <time>2020-01-26T13:23:09Z</time>
      </trkpt>
      <trkpt lat="9.9133710" lon="-83.9779540">
        <ele>1390.6</ele>
        <time>2020-01-26T13:23:11Z</time>
      </trkpt>
      <trkpt lat="9.9135040" lon="-83.9778050">
        <ele>1391.5</ele>
        <time>2020-01-26T13:23:19Z</time>
      </trkpt>
      <trkpt lat="9.9136440" lon="-83.9776610">
        <ele>1393.0</ele>
        <time>2020-01-26T13:23:26Z</time>
      </trkpt>
      <trkpt lat="9.9137790" lon="-83.9775350">
        <ele>1394.3</ele>
        <time>2020-01-26T13:23:32Z</time>
      </trkpt>
      <trkpt lat="9.9139260" lon="-83.9774040">
        <ele>1395.5</ele>
        <time>2020-01-26T13:23:39Z</time>
      </trkpt>
      <trkpt lat="9.9139830" lon="-83.9773540">
        <ele>1395.8</ele>
        <time>2020-01-26T13:23:42Z</time>
      </trkpt>
      <trkpt lat="9.9140430" lon="-83.9773020">
        <ele>1396.2</ele>
        <time>2020-01-26T13:23:45Z</time>
      </trkpt>
      <trkpt lat="9.9141620" lon="-83.9772150">
        <ele>1396.9</ele>
        <time>2020-01-26T13:23:50Z</time>
      </trkpt>
      <trkpt lat="9.9142130" lon="-83.9771830">
        <ele>1397.3</ele>
        <time>2020-01-26T13:23:52Z</time>
      </trkpt>
      <trkpt lat="9.9142610" lon="-83.9771510">
        <ele>1398.0</ele>
        <time>2020-01-26T13:23:54Z</time>
      </trkpt>
      <trkpt lat="9.9143530" lon="-83.9770760">
        <ele>1399.0</ele>
        <time>2020-01-26T13:23:58Z</time>
      </trkpt>
      <trkpt lat="9.9144990" lon="-83.9769360">
        <ele>1400.8</ele>
        <time>2020-01-26T13:24:05Z</time>
      </trkpt>
      <trkpt lat="9.9146590" lon="-83.9768610">
        <ele>1402.2</ele>
        <time>2020-01-26T13:24:14Z</time>
      </trkpt>
      <trkpt lat="9.9147410" lon="-83.9768960">
        <ele>1403.2</ele>
        <time>2020-01-26T13:24:19Z</time>
      </trkpt>
      <trkpt lat="9.9147540" lon="-83.9769120">
        <ele>1403.3</ele>
        <time>2020-01-26T13:24:20Z</time>
      </trkpt>
      <trkpt lat="9.9147810" lon="-83.9769350">
        <ele>1403.5</ele>
        <time>2020-01-26T13:24:22Z</time>
      </trkpt>
      <trkpt lat="9.9148290" lon="-83.9769480">
        <ele>1403.8</ele>
        <time>2020-01-26T13:24:25Z</time>
      </trkpt>
      <trkpt lat="9.9149340" lon="-83.9769370">
        <ele>1406.4</ele>
        <time>2020-01-26T13:24:31Z</time>
      </trkpt>
      <trkpt lat="9.9150170" lon="-83.9769310">
        <ele>1408.6</ele>
        <time>2020-01-26T13:24:36Z</time>
      </trkpt>
      <trkpt lat="9.9151140" lon="-83.9769970">
        <ele>1412.6</ele>
        <time>2020-01-26T13:24:43Z</time>
      </trkpt>
      <trkpt lat="9.9151900" lon="-83.9770930">
        <ele>1415.6</ele>
        <time>2020-01-26T13:24:51Z</time>
      </trkpt>
      <trkpt lat="9.9152640" lon="-83.9772510">
        <ele>1419.3</ele>
        <time>2020-01-26T13:25:04Z</time>
      </trkpt>
      <trkpt lat="9.9153490" lon="-83.9774210">
        <ele>1421.2</ele>
        <time>2020-01-26T13:25:17Z</time>
      </trkpt>
      <trkpt lat="9.9153900" lon="-83.9775200">
        <ele>1422.2</ele>
        <time>2020-01-26T13:25:25Z</time>
      </trkpt>
      <trkpt lat="9.9153970" lon="-83.9775300">
        <ele>1422.4</ele>
        <time>2020-01-26T13:25:26Z</time>
      </trkpt>
      <trkpt lat="9.9154340" lon="-83.9776140">
        <ele>1423.4</ele>
        <time>2020-01-26T13:25:32Z</time>
      </trkpt>
      <trkpt lat="9.9154520" lon="-83.9776840">
        <ele>1424.4</ele>
        <time>2020-01-26T13:25:37Z</time>
      </trkpt>
      <trkpt lat="9.9154780" lon="-83.9777180">
        <ele>1425.2</ele>
        <time>2020-01-26T13:25:40Z</time>
      </trkpt>
      <trkpt lat="9.9155240" lon="-83.9778220">
        <ele>1427.6</ele>
        <time>2020-01-26T13:25:48Z</time>
      </trkpt>
      <trkpt lat="9.9155540" lon="-83.9778980">
        <ele>1429.5</ele>
        <time>2020-01-26T13:25:54Z</time>
      </trkpt>
      <trkpt lat="9.9156380" lon="-83.9780750">
        <ele>1433.8</ele>
        <time>2020-01-26T13:26:08Z</time>
      </trkpt>
      <trkpt lat="9.9156810" lon="-83.9781560">
        <ele>1435.7</ele>
        <time>2020-01-26T13:26:14Z</time>
      </trkpt>
      <trkpt lat="9.9157170" lon="-83.9782300">
        <ele>1437.3</ele>
        <time>2020-01-26T13:26:19Z</time>
      </trkpt>
      <trkpt lat="9.9158310" lon="-83.9783810">
        <ele>1441.1</ele>
        <time>2020-01-26T13:26:32Z</time>
      </trkpt>
      <trkpt lat="9.9159630" lon="-83.9785170">
        <ele>1444.0</ele>
        <time>2020-01-26T13:26:45Z</time>
      </trkpt>
      <trkpt lat="9.9160020" lon="-83.9785620">
        <ele>1444.8</ele>
        <time>2020-01-26T13:26:50Z</time>
      </trkpt>
      <trkpt lat="9.9160200" lon="-83.9785780">
        <ele>1445.1</ele>
        <time>2020-01-26T13:26:52Z</time>
      </trkpt>
      <trkpt lat="9.9160520" lon="-83.9785770">
        <ele>1445.5</ele>
        <time>2020-01-26T13:26:54Z</time>
      </trkpt>
      <trkpt lat="9.9160760" lon="-83.9786140">
        <ele>1446.1</ele>
        <time>2020-01-26T13:26:58Z</time>
      </trkpt>
      <trkpt lat="9.9160950" lon="-83.9786370">
        <ele>1446.5</ele>
        <time>2020-01-26T13:27:00Z</time>
      </trkpt>
      <trkpt lat="9.9161550" lon="-83.9786840">
        <ele>1447.3</ele>
        <time>2020-01-26T13:27:06Z</time>
      </trkpt>
      <trkpt lat="9.9161670" lon="-83.9786920">
        <ele>1447.5</ele>
        <time>2020-01-26T13:27:07Z</time>
      </trkpt>
      <trkpt lat="9.9162000" lon="-83.9787080">
        <ele>1447.8</ele>
        <time>2020-01-26T13:27:10Z</time>
      </trkpt>
      <trkpt lat="9.9162620" lon="-83.9787870">
        <ele>1448.8</ele>
        <time>2020-01-26T13:27:17Z</time>
      </trkpt>
      <trkpt lat="9.9162960" lon="-83.9788080">
        <ele>1449.1</ele>
        <time>2020-01-26T13:27:20Z</time>
      </trkpt>
      <trkpt lat="9.9163300" lon="-83.9788320">
        <ele>1449.4</ele>
        <time>2020-01-26T13:27:23Z</time>
      </trkpt>
      <trkpt lat="9.9163640" lon="-83.9788410">
        <ele>1449.6</ele>
        <time>2020-01-26T13:27:25Z</time>
      </trkpt>
      <trkpt lat="9.9164120" lon="-83.9788550">
        <ele>1449.9</ele>
        <time>2020-01-26T13:27:28Z</time>
      </trkpt>
      <trkpt lat="9.9165920" lon="-83.9788840">
        <ele>1450.9</ele>
        <time>2020-01-26T13:27:38Z</time>
      </trkpt>
      <trkpt lat="9.9166680" lon="-83.9789060">
        <ele>1451.2</ele>
        <time>2020-01-26T13:27:42Z</time>
      </trkpt>
      <trkpt lat="9.9167070" lon="-83.9789190">
        <ele>1451.3</ele>
        <time>2020-01-26T13:27:44Z</time>
      </trkpt>
      <trkpt lat="9.9168860" lon="-83.9789480">
        <ele>1451.8</ele>
        <time>2020-01-26T13:27:52Z</time>
      </trkpt>
      <trkpt lat="9.9170670" lon="-83.9789230">
        <ele>1453.2</ele>
        <time>2020-01-26T13:27:59Z</time>
      </trkpt>
      <trkpt lat="9.9171920" lon="-83.9789040">
        <ele>1453.9</ele>
        <time>2020-01-26T13:28:03Z</time>
      </trkpt>
      <trkpt lat="9.9173920" lon="-83.9788500">
        <ele>1455.2</ele>
        <time>2020-01-26T13:28:09Z</time>
      </trkpt>
      <trkpt lat="9.9175400" lon="-83.9788240">
        <ele>1456.1</ele>
        <time>2020-01-26T13:28:13Z</time>
      </trkpt>
      <trkpt lat="9.9175770" lon="-83.9788190">
        <ele>1456.4</ele>
        <time>2020-01-26T13:28:14Z</time>
      </trkpt>
      <trkpt lat="9.9176520" lon="-83.9788070">
        <ele>1457.0</ele>
        <time>2020-01-26T13:28:16Z</time>
      </trkpt>
      <trkpt lat="9.9177280" lon="-83.9787940">
        <ele>1457.3</ele>
        <time>2020-01-26T13:28:18Z</time>
      </trkpt>
      <trkpt lat="9.9179040" lon="-83.9787480">
        <ele>1458.3</ele>
        <time>2020-01-26T13:28:23Z</time>
      </trkpt>
      <trkpt lat="9.9180890" lon="-83.9786800">
        <ele>1459.5</ele>
        <time>2020-01-26T13:28:28Z</time>
      </trkpt>
      <trkpt lat="9.9182640" lon="-83.9786300">
        <ele>1460.3</ele>
        <time>2020-01-26T13:28:33Z</time>
      </trkpt>
      <trkpt lat="9.9184420" lon="-83.9785710">
        <ele>1461.1</ele>
        <time>2020-01-26T13:28:40Z</time>
      </trkpt>
      <trkpt lat="9.9185590" lon="-83.9785300">
        <ele>1461.9</ele>
        <time>2020-01-26T13:28:45Z</time>
      </trkpt>
      <trkpt lat="9.9187320" lon="-83.9784620">
        <ele>1463.0</ele>
        <time>2020-01-26T13:28:53Z</time>
      </trkpt>
      <trkpt lat="9.9188660" lon="-83.9784170">
        <ele>1463.8</ele>
        <time>2020-01-26T13:28:59Z</time>
      </trkpt>
      <trkpt lat="9.9189670" lon="-83.9783910">
        <ele>1464.5</ele>
        <time>2020-01-26T13:29:03Z</time>
      </trkpt>
      <trkpt lat="9.9191470" lon="-83.9783300">
        <ele>1465.8</ele>
        <time>2020-01-26T13:29:10Z</time>
      </trkpt>
      <trkpt lat="9.9193290" lon="-83.9782510">
        <ele>1466.9</ele>
        <time>2020-01-26T13:29:18Z</time>
      </trkpt>
      <trkpt lat="9.9194390" lon="-83.9781990">
        <ele>1466.2</ele>
        <time>2020-01-26T13:29:22Z</time>
      </trkpt>
      <trkpt lat="9.9195760" lon="-83.9781250">
        <ele>1465.5</ele>
        <time>2020-01-26T13:29:26Z</time>
      </trkpt>
      <trkpt lat="9.9197770" lon="-83.9780240">
        <ele>1464.9</ele>
        <time>2020-01-26T13:29:31Z</time>
      </trkpt>
      <trkpt lat="9.9199040" lon="-83.9779410">
        <ele>1464.8</ele>
        <time>2020-01-26T13:29:34Z</time>
      </trkpt>
      <trkpt lat="9.9199410" lon="-83.9779040">
        <ele>1464.9</ele>
        <time>2020-01-26T13:29:35Z</time>
      </trkpt>
      <trkpt lat="9.9200020" lon="-83.9777200">
        <ele>1465.1</ele>
        <time>2020-01-26T13:29:39Z</time>
      </trkpt>
      <trkpt lat="9.9199820" lon="-83.9775250">
        <ele>1465.4</ele>
        <time>2020-01-26T13:29:45Z</time>
      </trkpt>
      <trkpt lat="9.9199770" lon="-83.9774960">
        <ele>1465.5</ele>
        <time>2020-01-26T13:29:46Z</time>
      </trkpt>
      <trkpt lat="9.9199680" lon="-83.9774360">
        <ele>1465.7</ele>
        <time>2020-01-26T13:29:48Z</time>
      </trkpt>
      <trkpt lat="9.9199650" lon="-83.9774050">
        <ele>1465.8</ele>
        <time>2020-01-26T13:29:49Z</time>
      </trkpt>
      <trkpt lat="9.9199570" lon="-83.9773380">
        <ele>1466.0</ele>
        <time>2020-01-26T13:29:51Z</time>
      </trkpt>
      <trkpt lat="9.9199480" lon="-83.9771700">
        <ele>1466.9</ele>
        <time>2020-01-26T13:29:56Z</time>
      </trkpt>
      <trkpt lat="9.9199270" lon="-83.9769670">
        <ele>1468.0</ele>
        <time>2020-01-26T13:30:02Z</time>
      </trkpt>
      <trkpt lat="9.9199290" lon="-83.9767730">
        <ele>1469.6</ele>
        <time>2020-01-26T13:30:08Z</time>
      </trkpt>
      <trkpt lat="9.9199390" lon="-83.9765890">
        <ele>1471.2</ele>
        <time>2020-01-26T13:30:14Z</time>
      </trkpt>
      <trkpt lat="9.9199380" lon="-83.9764990">
        <ele>1472.1</ele>
        <time>2020-01-26T13:30:17Z</time>
      </trkpt>
      <trkpt lat="9.9199440" lon="-83.9763840">
        <ele>1473.2</ele>
        <time>2020-01-26T13:30:21Z</time>
      </trkpt>
      <trkpt lat="9.9199370" lon="-83.9761850">
        <ele>1474.9</ele>
        <time>2020-01-26T13:30:29Z</time>
      </trkpt>
      <trkpt lat="9.9199520" lon="-83.9759950">
        <ele>1476.6</ele>
        <time>2020-01-26T13:30:36Z</time>
      </trkpt>
      <trkpt lat="9.9199600" lon="-83.9757870">
        <ele>1478.4</ele>
        <time>2020-01-26T13:30:44Z</time>
      </trkpt>
      <trkpt lat="9.9199650" lon="-83.9756830">
        <ele>1479.3</ele>
        <time>2020-01-26T13:30:48Z</time>
      </trkpt>
      <trkpt lat="9.9199750" lon="-83.9755800">
        <ele>1480.2</ele>
        <time>2020-01-26T13:30:52Z</time>
      </trkpt>
      <trkpt lat="9.9199910" lon="-83.9753880">
        <ele>1482.0</ele>
        <time>2020-01-26T13:31:00Z</time>
      </trkpt>
      <trkpt lat="9.9199960" lon="-83.9752900">
        <ele>1483.0</ele>
        <time>2020-01-26T13:31:04Z</time>
      </trkpt>
      <trkpt lat="9.9200120" lon="-83.9751590">
        <ele>1484.9</ele>
        <time>2020-01-26T13:31:09Z</time>
      </trkpt>
      <trkpt lat="9.9200160" lon="-83.9750810">
        <ele>1486.1</ele>
        <time>2020-01-26T13:31:12Z</time>
      </trkpt>
      <trkpt lat="9.9200520" lon="-83.9748840">
        <ele>1488.9</ele>
        <time>2020-01-26T13:31:20Z</time>
      </trkpt>
      <trkpt lat="9.9201140" lon="-83.9746900">
        <ele>1491.5</ele>
        <time>2020-01-26T13:31:29Z</time>
      </trkpt>
      <trkpt lat="9.9201770" lon="-83.9745400">
        <ele>1493.5</ele>
        <time>2020-01-26T13:31:36Z</time>
      </trkpt>
      <trkpt lat="9.9202250" lon="-83.9744370">
        <ele>1495.0</ele>
        <time>2020-01-26T13:31:41Z</time>
      </trkpt>
      <trkpt lat="9.9203220" lon="-83.9742630">
        <ele>1497.7</ele>
        <time>2020-01-26T13:31:50Z</time>
      </trkpt>
      <trkpt lat="9.9203800" lon="-83.9741100">
        <ele>1500.2</ele>
        <time>2020-01-26T13:31:57Z</time>
      </trkpt>
      <trkpt lat="9.9204090" lon="-83.9739840">
        <ele>1502.2</ele>
        <time>2020-01-26T13:32:03Z</time>
      </trkpt>
      <trkpt lat="9.9204360" lon="-83.9739080">
        <ele>1503.4</ele>
        <time>2020-01-26T13:32:07Z</time>
      </trkpt>
      <trkpt lat="9.9204520" lon="-83.9738540">
        <ele>1504.3</ele>
        <time>2020-01-26T13:32:10Z</time>
      </trkpt>
      <trkpt lat="9.9204610" lon="-83.9738180">
        <ele>1504.9</ele>
        <time>2020-01-26T13:32:12Z</time>
      </trkpt>
      <trkpt lat="9.9204890" lon="-83.9736710">
        <ele>1507.2</ele>
        <time>2020-01-26T13:32:20Z</time>
      </trkpt>
      <trkpt lat="9.9204930" lon="-83.9736170">
        <ele>1508.1</ele>
        <time>2020-01-26T13:32:23Z</time>
      </trkpt>
      <trkpt lat="9.9205410" lon="-83.9734270">
        <ele>1511.1</ele>
        <time>2020-01-26T13:32:35Z</time>
      </trkpt>
      <trkpt lat="9.9206110" lon="-83.9732590">
        <ele>1513.8</ele>
        <time>2020-01-26T13:32:46Z</time>
      </trkpt>
      <trkpt lat="9.9207050" lon="-83.9731240">
        <ele>1516.4</ele>
        <time>2020-01-26T13:32:56Z</time>
      </trkpt>
      <trkpt lat="9.9208070" lon="-83.9729590">
        <ele>1519.5</ele>
        <time>2020-01-26T13:33:08Z</time>
      </trkpt>
      <trkpt lat="9.9208520" lon="-83.9728820">
        <ele>1520.9</ele>
        <time>2020-01-26T13:33:13Z</time>
      </trkpt>
      <trkpt lat="9.9209580" lon="-83.9727220">
        <ele>1524.2</ele>
        <time>2020-01-26T13:33:24Z</time>
      </trkpt>
      <trkpt lat="9.9210790" lon="-83.9725740">
        <ele>1527.3</ele>
        <time>2020-01-26T13:33:35Z</time>
      </trkpt>
      <trkpt lat="9.9211150" lon="-83.9725140">
        <ele>1528.3</ele>
        <time>2020-01-26T13:33:39Z</time>
      </trkpt>
      <trkpt lat="9.9211800" lon="-83.9724080">
        <ele>1530.1</ele>
        <time>2020-01-26T13:33:46Z</time>
      </trkpt>
      <trkpt lat="9.9212730" lon="-83.9722390">
        <ele>1532.6</ele>
        <time>2020-01-26T13:33:57Z</time>
      </trkpt>
      <trkpt lat="9.9213370" lon="-83.9720850">
        <ele>1534.8</ele>
        <time>2020-01-26T13:34:07Z</time>
      </trkpt>
      <trkpt lat="9.9213920" lon="-83.9719020">
        <ele>1537.5</ele>
        <time>2020-01-26T13:34:20Z</time>
      </trkpt>
      <trkpt lat="9.9214310" lon="-83.9717200">
        <ele>1540.5</ele>
        <time>2020-01-26T13:34:31Z</time>
      </trkpt>
      <trkpt lat="9.9214810" lon="-83.9715450">
        <ele>1543.9</ele>
        <time>2020-01-26T13:34:42Z</time>
      </trkpt>
      <trkpt lat="9.9214850" lon="-83.9715280">
        <ele>1544.2</ele>
        <time>2020-01-26T13:34:43Z</time>
      </trkpt>
      <trkpt lat="9.9215340" lon="-83.9713710">
        <ele>1547.4</ele>
        <time>2020-01-26T13:34:54Z</time>
      </trkpt>
      <trkpt lat="9.9215580" lon="-83.9713160">
        <ele>1548.6</ele>
        <time>2020-01-26T13:34:58Z</time>
      </trkpt>
      <trkpt lat="9.9215680" lon="-83.9712740">
        <ele>1549.2</ele>
        <time>2020-01-26T13:35:01Z</time>
      </trkpt>
      <trkpt lat="9.9216380" lon="-83.9710990">
        <ele>1551.7</ele>
        <time>2020-01-26T13:35:13Z</time>
      </trkpt>
      <trkpt lat="9.9216450" lon="-83.9710610">
        <ele>1552.2</ele>
        <time>2020-01-26T13:35:15Z</time>
      </trkpt>
      <trkpt lat="9.9216800" lon="-83.9709250">
        <ele>1553.9</ele>
        <time>2020-01-26T13:35:24Z</time>
      </trkpt>
      <trkpt lat="9.9216910" lon="-83.9708920">
        <ele>1554.3</ele>
        <time>2020-01-26T13:35:26Z</time>
      </trkpt>
      <trkpt lat="9.9217040" lon="-83.9708640">
        <ele>1554.7</ele>
        <time>2020-01-26T13:35:28Z</time>
      </trkpt>
      <trkpt lat="9.9217190" lon="-83.9708250">
        <ele>1555.2</ele>
        <time>2020-01-26T13:35:31Z</time>
      </trkpt>
      <trkpt lat="9.9217300" lon="-83.9708000">
        <ele>1555.5</ele>
        <time>2020-01-26T13:35:33Z</time>
      </trkpt>
      <trkpt lat="9.9217510" lon="-83.9707840">
        <ele>1555.8</ele>
        <time>2020-01-26T13:35:35Z</time>
      </trkpt>
      <trkpt lat="9.9219300" lon="-83.9707060">
        <ele>1558.0</ele>
        <time>2020-01-26T13:35:46Z</time>
      </trkpt>
      <trkpt lat="9.9220550" lon="-83.9706570">
        <ele>1559.3</ele>
        <time>2020-01-26T13:35:53Z</time>
      </trkpt>
      <trkpt lat="9.9220870" lon="-83.9706380">
        <ele>1559.7</ele>
        <time>2020-01-26T13:35:55Z</time>
      </trkpt>
      <trkpt lat="9.9222580" lon="-83.9705780">
        <ele>1561.5</ele>
        <time>2020-01-26T13:36:05Z</time>
      </trkpt>
      <trkpt lat="9.9223980" lon="-83.9706800">
        <ele>1563.1</ele>
        <time>2020-01-26T13:36:16Z</time>
      </trkpt>
      <trkpt lat="9.9224950" lon="-83.9708430">
        <ele>1565.0</ele>
        <time>2020-01-26T13:36:25Z</time>
      </trkpt>
      <trkpt lat="9.9226210" lon="-83.9709620">
        <ele>1567.0</ele>
        <time>2020-01-26T13:36:33Z</time>
      </trkpt>
      <trkpt lat="9.9226650" lon="-83.9709730">
        <ele>1567.5</ele>
        <time>2020-01-26T13:36:35Z</time>
      </trkpt>
      <trkpt lat="9.9227680" lon="-83.9709750">
        <ele>1568.7</ele>
        <time>2020-01-26T13:36:40Z</time>
      </trkpt>
      <trkpt lat="9.9229300" lon="-83.9708880">
        <ele>1570.8</ele>
        <time>2020-01-26T13:36:50Z</time>
      </trkpt>
      <trkpt lat="9.9229440" lon="-83.9708770">
        <ele>1571.0</ele>
        <time>2020-01-26T13:36:51Z</time>
      </trkpt>
      <trkpt lat="9.9229880" lon="-83.9708390">
        <ele>1571.7</ele>
        <time>2020-01-26T13:36:54Z</time>
      </trkpt>
      <trkpt lat="9.9230150" lon="-83.9708130">
        <ele>1572.1</ele>
        <time>2020-01-26T13:36:56Z</time>
      </trkpt>
      <trkpt lat="9.9231590" lon="-83.9706790">
        <ele>1574.2</ele>
        <time>2020-01-26T13:37:07Z</time>
      </trkpt>
      <trkpt lat="9.9231670" lon="-83.9706630">
        <ele>1574.4</ele>
        <time>2020-01-26T13:37:08Z</time>
      </trkpt>
      <trkpt lat="9.9232830" lon="-83.9705020">
        <ele>1576.8</ele>
        <time>2020-01-26T13:37:20Z</time>
      </trkpt>
      <trkpt lat="9.9233560" lon="-83.9703610">
        <ele>1578.9</ele>
        <time>2020-01-26T13:37:29Z</time>
      </trkpt>
      <trkpt lat="9.9233630" lon="-83.9701720">
        <ele>1581.4</ele>
        <time>2020-01-26T13:37:39Z</time>
      </trkpt>
      <trkpt lat="9.9233370" lon="-83.9700830">
        <ele>1582.6</ele>
        <time>2020-01-26T13:37:44Z</time>
      </trkpt>
      <trkpt lat="9.9233260" lon="-83.9700120">
        <ele>1583.4</ele>
        <time>2020-01-26T13:37:48Z</time>
      </trkpt>
      <trkpt lat="9.9232730" lon="-83.9698770">
        <ele>1584.8</ele>
        <time>2020-01-26T13:37:56Z</time>
      </trkpt>
      <trkpt lat="9.9232190" lon="-83.9697760">
        <ele>1585.9</ele>
        <time>2020-01-26T13:38:02Z</time>
      </trkpt>
      <trkpt lat="9.9232110" lon="-83.9697580">
        <ele>1586.1</ele>
        <time>2020-01-26T13:38:03Z</time>
      </trkpt>
      <trkpt lat="9.9231800" lon="-83.9696780">
        <ele>1586.9</ele>
        <time>2020-01-26T13:38:08Z</time>
      </trkpt>
      <trkpt lat="9.9231490" lon="-83.9696150">
        <ele>1587.5</ele>
        <time>2020-01-26T13:38:12Z</time>
      </trkpt>
      <trkpt lat="9.9230890" lon="-83.9694280">
        <ele>1589.3</ele>
        <time>2020-01-26T13:38:22Z</time>
      </trkpt>
      <trkpt lat="9.9230630" lon="-83.9693470">
        <ele>1590.1</ele>
        <time>2020-01-26T13:38:26Z</time>
      </trkpt>
      <trkpt lat="9.9230430" lon="-83.9692950">
        <ele>1590.7</ele>
        <time>2020-01-26T13:38:29Z</time>
      </trkpt>
      <trkpt lat="9.9230350" lon="-83.9692380">
        <ele>1591.2</ele>
        <time>2020-01-26T13:38:32Z</time>
      </trkpt>
      <trkpt lat="9.9230150" lon="-83.9690540">
        <ele>1593.1</ele>
        <time>2020-01-26T13:38:41Z</time>
      </trkpt>
      <trkpt lat="9.9230190" lon="-83.9689710">
        <ele>1593.9</ele>
        <time>2020-01-26T13:38:45Z</time>
      </trkpt>
      <trkpt lat="9.9230160" lon="-83.9689490">
        <ele>1594.1</ele>
        <time>2020-01-26T13:38:46Z</time>
      </trkpt>
      <trkpt lat="9.9230150" lon="-83.9689280">
        <ele>1594.3</ele>
        <time>2020-01-26T13:38:47Z</time>
      </trkpt>
      <trkpt lat="9.9230160" lon="-83.9688890">
        <ele>1594.6</ele>
        <time>2020-01-26T13:38:49Z</time>
      </trkpt>
      <trkpt lat="9.9230180" lon="-83.9688050">
        <ele>1595.3</ele>
        <time>2020-01-26T13:38:53Z</time>
      </trkpt>
      <trkpt lat="9.9230630" lon="-83.9686260">
        <ele>1597.0</ele>
        <time>2020-01-26T13:39:02Z</time>
      </trkpt>
      <trkpt lat="9.9230680" lon="-83.9685160">
        <ele>1598.0</ele>
        <time>2020-01-26T13:39:08Z</time>
      </trkpt>
      <trkpt lat="9.9230700" lon="-83.9683690">
        <ele>1599.4</ele>
        <time>2020-01-26T13:39:16Z</time>
      </trkpt>
      <trkpt lat="9.9230660" lon="-83.9683070">
        <ele>1600.0</ele>
        <time>2020-01-26T13:39:19Z</time>
      </trkpt>
      <trkpt lat="9.9230620" lon="-83.9682850">
        <ele>1600.3</ele>
        <time>2020-01-26T13:39:20Z</time>
      </trkpt>
      <trkpt lat="9.9229870" lon="-83.9681170">
        <ele>1602.6</ele>
        <time>2020-01-26T13:39:29Z</time>
      </trkpt>
      <trkpt lat="9.9228740" lon="-83.9679800">
        <ele>1605.4</ele>
        <time>2020-01-26T13:39:38Z</time>
      </trkpt>
      <trkpt lat="9.9228540" lon="-83.9679490">
        <ele>1606.1</ele>
        <time>2020-01-26T13:39:40Z</time>
      </trkpt>
      <trkpt lat="9.9227790" lon="-83.9677690">
        <ele>1609.6</ele>
        <time>2020-01-26T13:39:50Z</time>
      </trkpt>
      <trkpt lat="9.9227630" lon="-83.9676470">
        <ele>1611.8</ele>
        <time>2020-01-26T13:39:56Z</time>
      </trkpt>
      <trkpt lat="9.9228440" lon="-83.9675680">
        <ele>1613.5</ele>
        <time>2020-01-26T13:40:02Z</time>
      </trkpt>
      <trkpt lat="9.9230240" lon="-83.9676160">
        <ele>1616.0</ele>
        <time>2020-01-26T13:40:11Z</time>
      </trkpt>
      <trkpt lat="9.9231690" lon="-83.9677280">
        <ele>1618.2</ele>
        <time>2020-01-26T13:40:19Z</time>
      </trkpt>
      <trkpt lat="9.9233110" lon="-83.9678540">
        <ele>1620.4</ele>
        <time>2020-01-26T13:40:27Z</time>
      </trkpt>
      <trkpt lat="9.9234780" lon="-83.9679650">
        <ele>1622.5</ele>
        <time>2020-01-26T13:40:36Z</time>
      </trkpt>
      <trkpt lat="9.9236610" lon="-83.9679610">
        <ele>1624.8</ele>
        <time>2020-01-26T13:40:46Z</time>
      </trkpt>
      <trkpt lat="9.9237280" lon="-83.9679240">
        <ele>1625.7</ele>
        <time>2020-01-26T13:40:50Z</time>
      </trkpt>
      <trkpt lat="9.9237790" lon="-83.9678960">
        <ele>1626.4</ele>
        <time>2020-01-26T13:40:53Z</time>
      </trkpt>
      <trkpt lat="9.9238430" lon="-83.9678520">
        <ele>1627.4</ele>
        <time>2020-01-26T13:40:57Z</time>
      </trkpt>
      <trkpt lat="9.9238580" lon="-83.9678410">
        <ele>1627.6</ele>
        <time>2020-01-26T13:40:58Z</time>
      </trkpt>
      <trkpt lat="9.9240100" lon="-83.9677150">
        <ele>1629.9</ele>
        <time>2020-01-26T13:41:08Z</time>
      </trkpt>
      <trkpt lat="9.9241590" lon="-83.9675910">
        <ele>1631.8</ele>
        <time>2020-01-26T13:41:19Z</time>
      </trkpt>
      <trkpt lat="9.9242210" lon="-83.9674050">
        <ele>1633.6</ele>
        <time>2020-01-26T13:41:31Z</time>
      </trkpt>
      <trkpt lat="9.9242050" lon="-83.9672220">
        <ele>1635.3</ele>
        <time>2020-01-26T13:41:40Z</time>
      </trkpt>
      <trkpt lat="9.9241920" lon="-83.9670370">
        <ele>1637.1</ele>
        <time>2020-01-26T13:41:49Z</time>
      </trkpt>
      <trkpt lat="9.9241920" lon="-83.9669990">
        <ele>1637.4</ele>
        <time>2020-01-26T13:41:51Z</time>
      </trkpt>
      <trkpt lat="9.9241890" lon="-83.9669640">
        <ele>1637.7</ele>
        <time>2020-01-26T13:41:53Z</time>
      </trkpt>
      <trkpt lat="9.9241840" lon="-83.9667930">
        <ele>1639.4</ele>
        <time>2020-01-26T13:42:02Z</time>
      </trkpt>
      <trkpt lat="9.9241600" lon="-83.9666030">
        <ele>1641.5</ele>
        <time>2020-01-26T13:42:12Z</time>
      </trkpt>
      <trkpt lat="9.9241400" lon="-83.9665330">
        <ele>1642.4</ele>
        <time>2020-01-26T13:42:16Z</time>
      </trkpt>
      <trkpt lat="9.9241280" lon="-83.9664580">
        <ele>1643.2</ele>
        <time>2020-01-26T13:42:20Z</time>
      </trkpt>
      <trkpt lat="9.9240760" lon="-83.9662700">
        <ele>1645.3</ele>
        <time>2020-01-26T13:42:30Z</time>
      </trkpt>
      <trkpt lat="9.9239870" lon="-83.9660990">
        <ele>1647.2</ele>
        <time>2020-01-26T13:42:40Z</time>
      </trkpt>
      <trkpt lat="9.9239230" lon="-83.9660120">
        <ele>1648.3</ele>
        <time>2020-01-26T13:42:45Z</time>
      </trkpt>
      <trkpt lat="9.9238470" lon="-83.9659260">
        <ele>1649.5</ele>
        <time>2020-01-26T13:42:51Z</time>
      </trkpt>
      <trkpt lat="9.9238170" lon="-83.9659020">
        <ele>1649.8</ele>
        <time>2020-01-26T13:42:53Z</time>
      </trkpt>
      <trkpt lat="9.9238040" lon="-83.9658900">
        <ele>1650.0</ele>
        <time>2020-01-26T13:42:54Z</time>
      </trkpt>
      <trkpt lat="9.9237660" lon="-83.9658550">
        <ele>1650.6</ele>
        <time>2020-01-26T13:42:57Z</time>
      </trkpt>
      <trkpt lat="9.9237550" lon="-83.9658350">
        <ele>1650.8</ele>
        <time>2020-01-26T13:42:58Z</time>
      </trkpt>
      <trkpt lat="9.9237420" lon="-83.9658180">
        <ele>1651.0</ele>
        <time>2020-01-26T13:42:59Z</time>
      </trkpt>
      <trkpt lat="9.9236000" lon="-83.9656990">
        <ele>1652.9</ele>
        <time>2020-01-26T13:43:08Z</time>
      </trkpt>
      <trkpt lat="9.9234590" lon="-83.9655690">
        <ele>1655.0</ele>
        <time>2020-01-26T13:43:18Z</time>
      </trkpt>
      <trkpt lat="9.9233330" lon="-83.9654270">
        <ele>1657.1</ele>
        <time>2020-01-26T13:43:28Z</time>
      </trkpt>
      <trkpt lat="9.9232220" lon="-83.9652670">
        <ele>1659.2</ele>
        <time>2020-01-26T13:43:38Z</time>
      </trkpt>
      <trkpt lat="9.9231330" lon="-83.9651370">
        <ele>1660.8</ele>
        <time>2020-01-26T13:43:46Z</time>
      </trkpt>
      <trkpt lat="9.9230730" lon="-83.9650650">
        <ele>1661.8</ele>
        <time>2020-01-26T13:43:51Z</time>
      </trkpt>
      <trkpt lat="9.9230520" lon="-83.9650120">
        <ele>1662.5</ele>
        <time>2020-01-26T13:43:54Z</time>
      </trkpt>
      <trkpt lat="9.9229880" lon="-83.9648300">
        <ele>1664.7</ele>
        <time>2020-01-26T13:44:02Z</time>
      </trkpt>
      <trkpt lat="9.9229860" lon="-83.9648100">
        <ele>1665.0</ele>
        <time>2020-01-26T13:44:03Z</time>
      </trkpt>
      <trkpt lat="9.9229780" lon="-83.9647730">
        <ele>1665.4</ele>
        <time>2020-01-26T13:44:05Z</time>
      </trkpt>
      <trkpt lat="9.9229810" lon="-83.9646920">
        <ele>1666.4</ele>
        <time>2020-01-26T13:44:10Z</time>
      </trkpt>
      <trkpt lat="9.9230320" lon="-83.9645140">
        <ele>1668.7</ele>
        <time>2020-01-26T13:44:19Z</time>
      </trkpt>
      <trkpt lat="9.9230410" lon="-83.9644960">
        <ele>1668.9</ele>
        <time>2020-01-26T13:44:20Z</time>
      </trkpt>
      <trkpt lat="9.9231700" lon="-83.9643430">
        <ele>1671.3</ele>
        <time>2020-01-26T13:44:30Z</time>
      </trkpt>
      <trkpt lat="9.9233280" lon="-83.9642290">
        <ele>1673.4</ele>
        <time>2020-01-26T13:44:40Z</time>
      </trkpt>
      <trkpt lat="9.9233570" lon="-83.9642070">
        <ele>1673.7</ele>
        <time>2020-01-26T13:44:42Z</time>
      </trkpt>
      <trkpt lat="9.9235030" lon="-83.9640820">
        <ele>1675.5</ele>
        <time>2020-01-26T13:44:52Z</time>
      </trkpt>
      <trkpt lat="9.9236600" lon="-83.9639610">
        <ele>1677.3</ele>
        <time>2020-01-26T13:45:02Z</time>
      </trkpt>
      <trkpt lat="9.9238190" lon="-83.9638530">
        <ele>1679.2</ele>
        <time>2020-01-26T13:45:12Z</time>
      </trkpt>
      <trkpt lat="9.9239730" lon="-83.9637260">
        <ele>1681.1</ele>
        <time>2020-01-26T13:45:22Z</time>
      </trkpt>
      <trkpt lat="9.9240990" lon="-83.9636300">
        <ele>1682.5</ele>
        <time>2020-01-26T13:45:30Z</time>
      </trkpt>
      <trkpt lat="9.9241340" lon="-83.9636050">
        <ele>1682.9</ele>
        <time>2020-01-26T13:45:32Z</time>
      </trkpt>
      <trkpt lat="9.9242050" lon="-83.9635450">
        <ele>1683.8</ele>
        <time>2020-01-26T13:45:36Z</time>
      </trkpt>
      <trkpt lat="9.9242410" lon="-83.9635150">
        <ele>1684.2</ele>
        <time>2020-01-26T13:45:38Z</time>
      </trkpt>
      <trkpt lat="9.9242900" lon="-83.9634640">
        <ele>1684.8</ele>
        <time>2020-01-26T13:45:41Z</time>
      </trkpt>
      <trkpt lat="9.9244270" lon="-83.9633360">
        <ele>1686.5</ele>
        <time>2020-01-26T13:45:49Z</time>
      </trkpt>
      <trkpt lat="9.9245270" lon="-83.9631670">
        <ele>1688.5</ele>
        <time>2020-01-26T13:45:57Z</time>
      </trkpt>
      <trkpt lat="9.9245820" lon="-83.9629880">
        <ele>1690.4</ele>
        <time>2020-01-26T13:46:05Z</time>
      </trkpt>
      <trkpt lat="9.9246270" lon="-83.9628070">
        <ele>1692.3</ele>
        <time>2020-01-26T13:46:14Z</time>
      </trkpt>
      <trkpt lat="9.9246200" lon="-83.9626770">
        <ele>1693.6</ele>
        <time>2020-01-26T13:46:20Z</time>
      </trkpt>
      <trkpt lat="9.9245650" lon="-83.9625010">
        <ele>1695.5</ele>
        <time>2020-01-26T13:46:29Z</time>
      </trkpt>
      <trkpt lat="9.9244720" lon="-83.9623440">
        <ele>1697.3</ele>
        <time>2020-01-26T13:46:38Z</time>
      </trkpt>
      <trkpt lat="9.9243430" lon="-83.9622020">
        <ele>1699.0</ele>
        <time>2020-01-26T13:46:47Z</time>
      </trkpt>
      <trkpt lat="9.9242060" lon="-83.9620680">
        <ele>1700.6</ele>
        <time>2020-01-26T13:46:56Z</time>
      </trkpt>
      <trkpt lat="9.9240630" lon="-83.9619490">
        <ele>1702.0</ele>
        <time>2020-01-26T13:47:05Z</time>
      </trkpt>
      <trkpt lat="9.9239420" lon="-83.9618730">
        <ele>1702.8</ele>
        <time>2020-01-26T13:47:12Z</time>
      </trkpt>
      <trkpt lat="9.9237970" lon="-83.9617260">
        <ele>1703.5</ele>
        <time>2020-01-26T13:47:21Z</time>
      </trkpt>
      <trkpt lat="9.9237360" lon="-83.9616710">
        <ele>1703.6</ele>
        <time>2020-01-26T13:47:24Z</time>
      </trkpt>
      <trkpt lat="9.9235890" lon="-83.9615350">
        <ele>1703.6</ele>
        <time>2020-01-26T13:47:30Z</time>
      </trkpt>
      <trkpt lat="9.9234400" lon="-83.9614030">
        <ele>1703.6</ele>
        <time>2020-01-26T13:47:34Z</time>
      </trkpt>
      <trkpt lat="9.9232970" lon="-83.9612760">
        <ele>1703.2</ele>
        <time>2020-01-26T13:47:37Z</time>
      </trkpt>
      <trkpt lat="9.9231440" lon="-83.9611500">
        <ele>1702.6</ele>
        <time>2020-01-26T13:47:40Z</time>
      </trkpt>
      <trkpt lat="9.9230000" lon="-83.9610250">
        <ele>1702.0</ele>
        <time>2020-01-26T13:47:43Z</time>
      </trkpt>
      <trkpt lat="9.9228500" lon="-83.9609140">
        <ele>1701.7</ele>
        <time>2020-01-26T13:47:46Z</time>
      </trkpt>
      <trkpt lat="9.9228070" lon="-83.9608790">
        <ele>1701.7</ele>
        <time>2020-01-26T13:47:47Z</time>
      </trkpt>
      <trkpt lat="9.9226510" lon="-83.9607390">
        <ele>1701.7</ele>
        <time>2020-01-26T13:47:51Z</time>
      </trkpt>
      <trkpt lat="9.9224850" lon="-83.9606020">
        <ele>1701.7</ele>
        <time>2020-01-26T13:47:56Z</time>
      </trkpt>
      <trkpt lat="9.9224090" lon="-83.9605400">
        <ele>1701.7</ele>
        <time>2020-01-26T13:47:58Z</time>
      </trkpt>
      <trkpt lat="9.9222820" lon="-83.9604430">
        <ele>1701.7</ele>
        <time>2020-01-26T13:48:01Z</time>
      </trkpt>
      <trkpt lat="9.9221050" lon="-83.9603080">
        <ele>1701.7</ele>
        <time>2020-01-26T13:48:05Z</time>
      </trkpt>
      <trkpt lat="9.9219210" lon="-83.9601610">
        <ele>1701.4</ele>
        <time>2020-01-26T13:48:09Z</time>
      </trkpt>
      <trkpt lat="9.9218550" lon="-83.9599800">
        <ele>1700.8</ele>
        <time>2020-01-26T13:48:13Z</time>
      </trkpt>
      <trkpt lat="9.9219870" lon="-83.9598560">
        <ele>1699.9</ele>
        <time>2020-01-26T13:48:16Z</time>
      </trkpt>
      <trkpt lat="9.9222220" lon="-83.9597480">
        <ele>1698.3</ele>
        <time>2020-01-26T13:48:19Z</time>
      </trkpt>
      <trkpt lat="9.9223990" lon="-83.9596910">
        <ele>1696.7</ele>
        <time>2020-01-26T13:48:21Z</time>
      </trkpt>
      <trkpt lat="9.9225720" lon="-83.9596360">
        <ele>1695.1</ele>
        <time>2020-01-26T13:48:23Z</time>
      </trkpt>
      <trkpt lat="9.9227810" lon="-83.9595580">
        <ele>1692.6</ele>
        <time>2020-01-26T13:48:26Z</time>
      </trkpt>
      <trkpt lat="9.9228770" lon="-83.9594690">
        <ele>1691.1</ele>
        <time>2020-01-26T13:48:29Z</time>
      </trkpt>
      <trkpt lat="9.9228570" lon="-83.9593700">
        <ele>1689.9</ele>
        <time>2020-01-26T13:48:31Z</time>
      </trkpt>
      <trkpt lat="9.9227160" lon="-83.9591490">
        <ele>1687.0</ele>
        <time>2020-01-26T13:48:34Z</time>
      </trkpt>
      <trkpt lat="9.9226680" lon="-83.9590740">
        <ele>1686.3</ele>
        <time>2020-01-26T13:48:35Z</time>
      </trkpt>
      <trkpt lat="9.9225190" lon="-83.9588960">
        <ele>1684.9</ele>
        <time>2020-01-26T13:48:38Z</time>
      </trkpt>
      <trkpt lat="9.9224040" lon="-83.9588090">
        <ele>1684.7</ele>
        <time>2020-01-26T13:48:40Z</time>
      </trkpt>
      <trkpt lat="9.9222310" lon="-83.9587300">
        <ele>1685.1</ele>
        <time>2020-01-26T13:48:43Z</time>
      </trkpt>
      <trkpt lat="9.9220610" lon="-83.9586490">
        <ele>1686.0</ele>
        <time>2020-01-26T13:48:47Z</time>
      </trkpt>
      <trkpt lat="9.9219890" lon="-83.9586250">
        <ele>1686.4</ele>
        <time>2020-01-26T13:48:49Z</time>
      </trkpt>
      <trkpt lat="9.9219080" lon="-83.9585880">
        <ele>1687.0</ele>
        <time>2020-01-26T13:48:52Z</time>
      </trkpt>
      <trkpt lat="9.9217550" lon="-83.9584890">
        <ele>1688.4</ele>
        <time>2020-01-26T13:49:00Z</time>
      </trkpt>
      <trkpt lat="9.9216970" lon="-83.9584460">
        <ele>1689.1</ele>
        <time>2020-01-26T13:49:03Z</time>
      </trkpt>
      <trkpt lat="9.9215850" lon="-83.9584020">
        <ele>1690.2</ele>
        <time>2020-01-26T13:49:09Z</time>
      </trkpt>
      <trkpt lat="9.9215180" lon="-83.9583810">
        <ele>1690.8</ele>
        <time>2020-01-26T13:49:12Z</time>
      </trkpt>
      <trkpt lat="9.9214310" lon="-83.9583290">
        <ele>1691.7</ele>
        <time>2020-01-26T13:49:16Z</time>
      </trkpt>
      <trkpt lat="9.9213280" lon="-83.9582970">
        <ele>1692.7</ele>
        <time>2020-01-26T13:49:21Z</time>
      </trkpt>
      <trkpt lat="9.9212660" lon="-83.9582500">
        <ele>1693.5</ele>
        <time>2020-01-26T13:49:24Z</time>
      </trkpt>
      <trkpt lat="9.9211950" lon="-83.9582130">
        <ele>1694.3</ele>
        <time>2020-01-26T13:49:28Z</time>
      </trkpt>
      <trkpt lat="9.9211080" lon="-83.9581860">
        <ele>1695.3</ele>
        <time>2020-01-26T13:49:33Z</time>
      </trkpt>
      <trkpt lat="9.9209990" lon="-83.9580920">
        <ele>1697.5</ele>
        <time>2020-01-26T13:49:42Z</time>
      </trkpt>
      <trkpt lat="9.9209040" lon="-83.9580690">
        <ele>1699.5</ele>
        <time>2020-01-26T13:49:48Z</time>
      </trkpt>
      <trkpt lat="9.9207200" lon="-83.9581200">
        <ele>1698.8</ele>
        <time>2020-01-26T13:49:58Z</time>
      </trkpt>
      <trkpt lat="9.9206320" lon="-83.9581580">
        <ele>1698.4</ele>
        <time>2020-01-26T13:50:02Z</time>
      </trkpt>
      <trkpt lat="9.9204320" lon="-83.9582070">
        <ele>1697.5</ele>
        <time>2020-01-26T13:50:10Z</time>
      </trkpt>
      <trkpt lat="9.9202830" lon="-83.9581900">
        <ele>1697.9</ele>
        <time>2020-01-26T13:50:15Z</time>
      </trkpt>
      <trkpt lat="9.9202600" lon="-83.9581840">
        <ele>1697.9</ele>
        <time>2020-01-26T13:50:16Z</time>
      </trkpt>
      <trkpt lat="9.9200960" lon="-83.9580980">
        <ele>1698.2</ele>
        <time>2020-01-26T13:50:23Z</time>
      </trkpt>
      <trkpt lat="9.9199250" lon="-83.9579920">
        <ele>1697.9</ele>
        <time>2020-01-26T13:50:30Z</time>
      </trkpt>
      <trkpt lat="9.9197970" lon="-83.9578950">
        <ele>1697.1</ele>
        <time>2020-01-26T13:50:36Z</time>
      </trkpt>
      <trkpt lat="9.9196680" lon="-83.9577680">
        <ele>1695.9</ele>
        <time>2020-01-26T13:50:42Z</time>
      </trkpt>
      <trkpt lat="9.9195290" lon="-83.9576140">
        <ele>1694.0</ele>
        <time>2020-01-26T13:50:47Z</time>
      </trkpt>
      <trkpt lat="9.9193930" lon="-83.9574590">
        <ele>1691.8</ele>
        <time>2020-01-26T13:50:51Z</time>
      </trkpt>
      <trkpt lat="9.9192430" lon="-83.9572780">
        <ele>1688.8</ele>
        <time>2020-01-26T13:50:55Z</time>
      </trkpt>
      <trkpt lat="9.9191210" lon="-83.9571070">
        <ele>1685.6</ele>
        <time>2020-01-26T13:50:58Z</time>
      </trkpt>
      <trkpt lat="9.9189760" lon="-83.9568800">
        <ele>1681.7</ele>
        <time>2020-01-26T13:51:01Z</time>
      </trkpt>
      <trkpt lat="9.9188600" lon="-83.9567150">
        <ele>1678.9</ele>
        <time>2020-01-26T13:51:03Z</time>
      </trkpt>
      <trkpt lat="9.9187250" lon="-83.9565200">
        <ele>1675.6</ele>
        <time>2020-01-26T13:51:05Z</time>
      </trkpt>
      <trkpt lat="9.9185790" lon="-83.9563180">
        <ele>1671.7</ele>
        <time>2020-01-26T13:51:07Z</time>
      </trkpt>
      <trkpt lat="9.9184410" lon="-83.9561170">
        <ele>1667.5</ele>
        <time>2020-01-26T13:51:09Z</time>
      </trkpt>
      <trkpt lat="9.9182640" lon="-83.9559070">
        <ele>1662.3</ele>
        <time>2020-01-26T13:51:11Z</time>
      </trkpt>
      <trkpt lat="9.9180820" lon="-83.9557010">
        <ele>1657.2</ele>
        <time>2020-01-26T13:51:13Z</time>
      </trkpt>
      <trkpt lat="9.9179130" lon="-83.9554840">
        <ele>1652.6</ele>
        <time>2020-01-26T13:51:15Z</time>
      </trkpt>
      <trkpt lat="9.9177590" lon="-83.9552560">
        <ele>1648.2</ele>
        <time>2020-01-26T13:51:17Z</time>
      </trkpt>
      <trkpt lat="9.9176040" lon="-83.9550330">
        <ele>1643.9</ele>
        <time>2020-01-26T13:51:19Z</time>
      </trkpt>
      <trkpt lat="9.9174440" lon="-83.9548220">
        <ele>1639.5</ele>
        <time>2020-01-26T13:51:21Z</time>
      </trkpt>
      <trkpt lat="9.9172560" lon="-83.9546470">
        <ele>1635.2</ele>
        <time>2020-01-26T13:51:23Z</time>
      </trkpt>
      <trkpt lat="9.9170430" lon="-83.9544700">
        <ele>1630.9</ele>
        <time>2020-01-26T13:51:25Z</time>
      </trkpt>
      <trkpt lat="9.9168470" lon="-83.9543020">
        <ele>1627.1</ele>
        <time>2020-01-26T13:51:27Z</time>
      </trkpt>
      <trkpt lat="9.9166880" lon="-83.9541790">
        <ele>1624.2</ele>
        <time>2020-01-26T13:51:29Z</time>
      </trkpt>
      <trkpt lat="9.9165180" lon="-83.9540860">
        <ele>1621.6</ele>
        <time>2020-01-26T13:51:31Z</time>
      </trkpt>
      <trkpt lat="9.9164280" lon="-83.9540480">
        <ele>1620.2</ele>
        <time>2020-01-26T13:51:32Z</time>
      </trkpt>
      <trkpt lat="9.9162720" lon="-83.9539540">
        <ele>1617.9</ele>
        <time>2020-01-26T13:51:34Z</time>
      </trkpt>
      <trkpt lat="9.9162080" lon="-83.9538990">
        <ele>1616.8</ele>
        <time>2020-01-26T13:51:35Z</time>
      </trkpt>
      <trkpt lat="9.9160760" lon="-83.9537330">
        <ele>1614.5</ele>
        <time>2020-01-26T13:51:38Z</time>
      </trkpt>
      <trkpt lat="9.9160350" lon="-83.9535560">
        <ele>1612.6</ele>
        <time>2020-01-26T13:51:41Z</time>
      </trkpt>
      <trkpt lat="9.9161440" lon="-83.9533550">
        <ele>1610.0</ele>
        <time>2020-01-26T13:51:45Z</time>
      </trkpt>
      <trkpt lat="9.9162300" lon="-83.9532510">
        <ele>1608.3</ele>
        <time>2020-01-26T13:51:47Z</time>
      </trkpt>
      <trkpt lat="9.9162600" lon="-83.9531980">
        <ele>1607.5</ele>
        <time>2020-01-26T13:51:48Z</time>
      </trkpt>
      <trkpt lat="9.9161950" lon="-83.9529950">
        <ele>1606.0</ele>
        <time>2020-01-26T13:51:52Z</time>
      </trkpt>
      <trkpt lat="9.9160190" lon="-83.9528830">
        <ele>1606.5</ele>
        <time>2020-01-26T13:51:55Z</time>
      </trkpt>
      <trkpt lat="9.9159640" lon="-83.9528600">
        <ele>1606.9</ele>
        <time>2020-01-26T13:51:56Z</time>
      </trkpt>
      <trkpt lat="9.9157750" lon="-83.9527990">
        <ele>1609.0</ele>
        <time>2020-01-26T13:52:00Z</time>
      </trkpt>
      <trkpt lat="9.9156830" lon="-83.9527570">
        <ele>1609.9</ele>
        <time>2020-01-26T13:52:03Z</time>
      </trkpt>
      <trkpt lat="9.9156580" lon="-83.9527440">
        <ele>1610.2</ele>
        <time>2020-01-26T13:52:04Z</time>
      </trkpt>
      <trkpt lat="9.9156340" lon="-83.9527350">
        <ele>1610.4</ele>
        <time>2020-01-26T13:52:05Z</time>
      </trkpt>
      <trkpt lat="9.9156110" lon="-83.9527270">
        <ele>1610.7</ele>
        <time>2020-01-26T13:52:06Z</time>
      </trkpt>
      <trkpt lat="9.9155660" lon="-83.9527090">
        <ele>1611.2</ele>
        <time>2020-01-26T13:52:08Z</time>
      </trkpt>
      <trkpt lat="9.9154980" lon="-83.9527100">
        <ele>1612.1</ele>
        <time>2020-01-26T13:52:11Z</time>
      </trkpt>
      <trkpt lat="9.9153170" lon="-83.9527700">
        <ele>1614.5</ele>
        <time>2020-01-26T13:52:21Z</time>
      </trkpt>
      <trkpt lat="9.9151340" lon="-83.9527450">
        <ele>1616.1</ele>
        <time>2020-01-26T13:52:29Z</time>
      </trkpt>
      <trkpt lat="9.9149560" lon="-83.9527070">
        <ele>1616.9</ele>
        <time>2020-01-26T13:52:37Z</time>
      </trkpt>
      <trkpt lat="9.9148730" lon="-83.9526880">
        <ele>1617.1</ele>
        <time>2020-01-26T13:52:41Z</time>
      </trkpt>
      <trkpt lat="9.9148290" lon="-83.9526690">
        <ele>1617.1</ele>
        <time>2020-01-26T13:52:43Z</time>
      </trkpt>
      <trkpt lat="9.9146710" lon="-83.9525660">
        <ele>1617.2</ele>
        <time>2020-01-26T13:52:51Z</time>
      </trkpt>
      <trkpt lat="9.9145580" lon="-83.9524930">
        <ele>1617.2</ele>
        <time>2020-01-26T13:52:56Z</time>
      </trkpt>
      <trkpt lat="9.9144750" lon="-83.9524320">
        <ele>1617.1</ele>
        <time>2020-01-26T13:52:59Z</time>
      </trkpt>
      <trkpt lat="9.9143040" lon="-83.9523060">
        <ele>1616.5</ele>
        <time>2020-01-26T13:53:03Z</time>
      </trkpt>
      <trkpt lat="9.9141440" lon="-83.9521710">
        <ele>1615.4</ele>
        <time>2020-01-26T13:53:06Z</time>
      </trkpt>
      <trkpt lat="9.9139750" lon="-83.9520240">
        <ele>1614.5</ele>
        <time>2020-01-26T13:53:09Z</time>
      </trkpt>
      <trkpt lat="9.9137960" lon="-83.9518530">
        <ele>1614.0</ele>
        <time>2020-01-26T13:53:12Z</time>
      </trkpt>
      <trkpt lat="9.9136070" lon="-83.9516530">
        <ele>1610.8</ele>
        <time>2020-01-26T13:53:15Z</time>
      </trkpt>
      <trkpt lat="9.9134600" lon="-83.9514730">
        <ele>1608.8</ele>
        <time>2020-01-26T13:53:18Z</time>
      </trkpt>
      <trkpt lat="9.9133370" lon="-83.9513050">
        <ele>1607.5</ele>
        <time>2020-01-26T13:53:21Z</time>
      </trkpt>
      <trkpt lat="9.9131900" lon="-83.9511440">
        <ele>1605.9</ele>
        <time>2020-01-26T13:53:24Z</time>
      </trkpt>
      <trkpt lat="9.9130280" lon="-83.9509950">
        <ele>1604.3</ele>
        <time>2020-01-26T13:53:27Z</time>
      </trkpt>
      <trkpt lat="9.9128740" lon="-83.9508290">
        <ele>1603.1</ele>
        <time>2020-01-26T13:53:30Z</time>
      </trkpt>
      <trkpt lat="9.9127170" lon="-83.9506640">
        <ele>1601.7</ele>
        <time>2020-01-26T13:53:33Z</time>
      </trkpt>
      <trkpt lat="9.9125610" lon="-83.9504930">
        <ele>1600.1</ele>
        <time>2020-01-26T13:53:36Z</time>
      </trkpt>
      <trkpt lat="9.9123840" lon="-83.9503110">
        <ele>1598.2</ele>
        <time>2020-01-26T13:53:39Z</time>
      </trkpt>
      <trkpt lat="9.9122040" lon="-83.9501430">
        <ele>1596.1</ele>
        <time>2020-01-26T13:53:42Z</time>
      </trkpt>
      <trkpt lat="9.9120440" lon="-83.9499710">
        <ele>1594.3</ele>
        <time>2020-01-26T13:53:45Z</time>
      </trkpt>
      <trkpt lat="9.9118570" lon="-83.9497980">
        <ele>1592.6</ele>
        <time>2020-01-26T13:53:48Z</time>
      </trkpt>
      <trkpt lat="9.9116680" lon="-83.9496340">
        <ele>1591.5</ele>
        <time>2020-01-26T13:53:51Z</time>
      </trkpt>
      <trkpt lat="9.9114720" lon="-83.9494790">
        <ele>1590.3</ele>
        <time>2020-01-26T13:53:54Z</time>
      </trkpt>
      <trkpt lat="9.9112810" lon="-83.9492920">
        <ele>1588.2</ele>
        <time>2020-01-26T13:53:57Z</time>
      </trkpt>
      <trkpt lat="9.9110960" lon="-83.9491300">
        <ele>1585.6</ele>
        <time>2020-01-26T13:54:00Z</time>
      </trkpt>
      <trkpt lat="9.9109040" lon="-83.9489680">
        <ele>1581.8</ele>
        <time>2020-01-26T13:54:03Z</time>
      </trkpt>
      <trkpt lat="9.9106950" lon="-83.9488290">
        <ele>1577.5</ele>
        <time>2020-01-26T13:54:06Z</time>
      </trkpt>
      <trkpt lat="9.9105610" lon="-83.9487520">
        <ele>1574.6</ele>
        <time>2020-01-26T13:54:08Z</time>
      </trkpt>
      <trkpt lat="9.9104180" lon="-83.9486030">
        <ele>1570.8</ele>
        <time>2020-01-26T13:54:11Z</time>
      </trkpt>
      <trkpt lat="9.9103660" lon="-83.9483570">
        <ele>1567.3</ele>
        <time>2020-01-26T13:54:14Z</time>
      </trkpt>
      <trkpt lat="9.9103580" lon="-83.9482750">
        <ele>1566.5</ele>
        <time>2020-01-26T13:54:15Z</time>
      </trkpt>
      <trkpt lat="9.9103350" lon="-83.9481970">
        <ele>1565.7</ele>
        <time>2020-01-26T13:54:16Z</time>
      </trkpt>
      <trkpt lat="9.9102990" lon="-83.9481150">
        <ele>1565.1</ele>
        <time>2020-01-26T13:54:17Z</time>
      </trkpt>
      <trkpt lat="9.9102390" lon="-83.9480430">
        <ele>1564.5</ele>
        <time>2020-01-26T13:54:18Z</time>
      </trkpt>
      <trkpt lat="9.9100850" lon="-83.9479340">
        <ele>1564.4</ele>
        <time>2020-01-26T13:54:20Z</time>
      </trkpt>
      <trkpt lat="9.9099410" lon="-83.9478300">
        <ele>1566.0</ele>
        <time>2020-01-26T13:54:22Z</time>
      </trkpt>
      <trkpt lat="9.9098870" lon="-83.9477740">
        <ele>1567.2</ele>
        <time>2020-01-26T13:54:23Z</time>
      </trkpt>
      <trkpt lat="9.9098260" lon="-83.9476050">
        <ele>1570.4</ele>
        <time>2020-01-26T13:54:26Z</time>
      </trkpt>
      <trkpt lat="9.9098320" lon="-83.9475160">
        <ele>1571.6</ele>
        <time>2020-01-26T13:54:28Z</time>
      </trkpt>
      <trkpt lat="9.9098460" lon="-83.9473740">
        <ele>1573.1</ele>
        <time>2020-01-26T13:54:33Z</time>
      </trkpt>
      <trkpt lat="9.9098490" lon="-83.9473500">
        <ele>1573.2</ele>
        <time>2020-01-26T13:54:34Z</time>
      </trkpt>
      <trkpt lat="9.9098520" lon="-83.9473050">
        <ele>1573.5</ele>
        <time>2020-01-26T13:54:36Z</time>
      </trkpt>
      <trkpt lat="9.9098560" lon="-83.9472840">
        <ele>1573.6</ele>
        <time>2020-01-26T13:54:37Z</time>
      </trkpt>
      <trkpt lat="9.9098580" lon="-83.9472610">
        <ele>1573.6</ele>
        <time>2020-01-26T13:54:38Z</time>
      </trkpt>
      <trkpt lat="9.9098580" lon="-83.9472370">
        <ele>1573.7</ele>
        <time>2020-01-26T13:54:39Z</time>
      </trkpt>
      <trkpt lat="9.9098180" lon="-83.9470420">
        <ele>1573.5</ele>
        <time>2020-01-26T13:54:47Z</time>
      </trkpt>
      <trkpt lat="9.9097600" lon="-83.9468540">
        <ele>1572.8</ele>
        <time>2020-01-26T13:54:53Z</time>
      </trkpt>
      <trkpt lat="9.9097160" lon="-83.9466450">
        <ele>1572.0</ele>
        <time>2020-01-26T13:54:58Z</time>
      </trkpt>
      <trkpt lat="9.9096750" lon="-83.9464920">
        <ele>1571.6</ele>
        <time>2020-01-26T13:55:01Z</time>
      </trkpt>
      <trkpt lat="9.9095360" lon="-83.9463070">
        <ele>1571.4</ele>
        <time>2020-01-26T13:55:05Z</time>
      </trkpt>
      <trkpt lat="9.9093550" lon="-83.9462580">
        <ele>1571.9</ele>
        <time>2020-01-26T13:55:08Z</time>
      </trkpt>
      <trkpt lat="9.9092960" lon="-83.9462520">
        <ele>1572.1</ele>
        <time>2020-01-26T13:55:09Z</time>
      </trkpt>
      <trkpt lat="9.9092400" lon="-83.9462400">
        <ele>1572.3</ele>
        <time>2020-01-26T13:55:10Z</time>
      </trkpt>
      <trkpt lat="9.9090430" lon="-83.9461860">
        <ele>1573.4</ele>
        <time>2020-01-26T13:55:14Z</time>
      </trkpt>
      <trkpt lat="9.9088490" lon="-83.9461180">
        <ele>1574.6</ele>
        <time>2020-01-26T13:55:19Z</time>
      </trkpt>
      <trkpt lat="9.9087080" lon="-83.9460700">
        <ele>1575.5</ele>
        <time>2020-01-26T13:55:23Z</time>
      </trkpt>
      <trkpt lat="9.9086040" lon="-83.9460430">
        <ele>1576.1</ele>
        <time>2020-01-26T13:55:26Z</time>
      </trkpt>
      <trkpt lat="9.9085670" lon="-83.9460320">
        <ele>1576.3</ele>
        <time>2020-01-26T13:55:27Z</time>
      </trkpt>
      <trkpt lat="9.9084250" lon="-83.9459850">
        <ele>1577.0</ele>
        <time>2020-01-26T13:55:31Z</time>
      </trkpt>
      <trkpt lat="9.9082430" lon="-83.9459530">
        <ele>1577.9</ele>
        <time>2020-01-26T13:55:36Z</time>
      </trkpt>
      <trkpt lat="9.9080350" lon="-83.9459120">
        <ele>1579.0</ele>
        <time>2020-01-26T13:55:42Z</time>
      </trkpt>
      <trkpt lat="9.9078630" lon="-83.9458040">
        <ele>1579.9</ele>
        <time>2020-01-26T13:55:48Z</time>
      </trkpt>
      <trkpt lat="9.9077070" lon="-83.9456820">
        <ele>1580.7</ele>
        <time>2020-01-26T13:55:53Z</time>
      </trkpt>
      <trkpt lat="9.9075750" lon="-83.9455790">
        <ele>1581.2</ele>
        <time>2020-01-26T13:55:57Z</time>
      </trkpt>
      <trkpt lat="9.9074650" lon="-83.9454990">
        <ele>1581.6</ele>
        <time>2020-01-26T13:56:00Z</time>
      </trkpt>
      <trkpt lat="9.9074250" lon="-83.9454790">
        <ele>1581.7</ele>
        <time>2020-01-26T13:56:01Z</time>
      </trkpt>
      <trkpt lat="9.9073400" lon="-83.9454440">
        <ele>1582.0</ele>
        <time>2020-01-26T13:56:03Z</time>
      </trkpt>
      <trkpt lat="9.9072530" lon="-83.9454070">
        <ele>1582.3</ele>
        <time>2020-01-26T13:56:05Z</time>
      </trkpt>
      <trkpt lat="9.9071220" lon="-83.9453520">
        <ele>1582.7</ele>
        <time>2020-01-26T13:56:08Z</time>
      </trkpt>
      <trkpt lat="9.9069570" lon="-83.9452540">
        <ele>1583.7</ele>
        <time>2020-01-26T13:56:12Z</time>
      </trkpt>
      <trkpt lat="9.9068030" lon="-83.9451180">
        <ele>1585.8</ele>
        <time>2020-01-26T13:56:17Z</time>
      </trkpt>
      <trkpt lat="9.9066770" lon="-83.9449940">
        <ele>1588.2</ele>
        <time>2020-01-26T13:56:24Z</time>
      </trkpt>
      <trkpt lat="9.9065160" lon="-83.9449060">
        <ele>1590.5</ele>
        <time>2020-01-26T13:56:32Z</time>
      </trkpt>
      <trkpt lat="9.9064160" lon="-83.9448520">
        <ele>1591.7</ele>
        <time>2020-01-26T13:56:37Z</time>
      </trkpt>
      <trkpt lat="9.9062430" lon="-83.9447540">
        <ele>1593.5</ele>
        <time>2020-01-26T13:56:46Z</time>
      </trkpt>
      <trkpt lat="9.9060630" lon="-83.9446700">
        <ele>1595.3</ele>
        <time>2020-01-26T13:56:57Z</time>
      </trkpt>
      <trkpt lat="9.9059030" lon="-83.9445740">
        <ele>1597.4</ele>
        <time>2020-01-26T13:57:07Z</time>
      </trkpt>
      <trkpt lat="9.9058080" lon="-83.9445110">
        <ele>1599.5</ele>
        <time>2020-01-26T13:57:14Z</time>
      </trkpt>
      <trkpt lat="9.9057010" lon="-83.9443610">
        <ele>1602.5</ele>
        <time>2020-01-26T13:57:26Z</time>
      </trkpt>
      <trkpt lat="9.9056740" lon="-83.9443270">
        <ele>1603.3</ele>
        <time>2020-01-26T13:57:29Z</time>
      </trkpt>
      <trkpt lat="9.9056120" lon="-83.9442470">
        <ele>1604.9</ele>
        <time>2020-01-26T13:57:36Z</time>
      </trkpt>
      <trkpt lat="9.9055920" lon="-83.9442260">
        <ele>1605.3</ele>
        <time>2020-01-26T13:57:38Z</time>
      </trkpt>
      <trkpt lat="9.9054930" lon="-83.9441000">
        <ele>1608.3</ele>
        <time>2020-01-26T13:57:48Z</time>
      </trkpt>
      <trkpt lat="9.9053910" lon="-83.9440510">
        <ele>1610.3</ele>
        <time>2020-01-26T13:57:55Z</time>
      </trkpt>
      <trkpt lat="9.9052020" lon="-83.9440200">
        <ele>1612.4</ele>
        <time>2020-01-26T13:58:07Z</time>
      </trkpt>
      <trkpt lat="9.9051590" lon="-83.9440020">
        <ele>1612.9</ele>
        <time>2020-01-26T13:58:10Z</time>
      </trkpt>
      <trkpt lat="9.9050850" lon="-83.9439670">
        <ele>1613.8</ele>
        <time>2020-01-26T13:58:15Z</time>
      </trkpt>
      <trkpt lat="9.9050100" lon="-83.9439040">
        <ele>1615.5</ele>
        <time>2020-01-26T13:58:21Z</time>
      </trkpt>
      <trkpt lat="9.9049370" lon="-83.9438170">
        <ele>1617.0</ele>
        <time>2020-01-26T13:58:28Z</time>
      </trkpt>
      <trkpt lat="9.9047880" lon="-83.9437000">
        <ele>1619.9</ele>
        <time>2020-01-26T13:58:40Z</time>
      </trkpt>
      <trkpt lat="9.9047620" lon="-83.9436850">
        <ele>1620.3</ele>
        <time>2020-01-26T13:58:42Z</time>
      </trkpt>
      <trkpt lat="9.9046470" lon="-83.9436500">
        <ele>1621.7</ele>
        <time>2020-01-26T13:58:49Z</time>
      </trkpt>
      <trkpt lat="9.9044590" lon="-83.9435880">
        <ele>1622.8</ele>
        <time>2020-01-26T13:59:00Z</time>
      </trkpt>
      <trkpt lat="9.9043520" lon="-83.9435470">
        <ele>1623.2</ele>
        <time>2020-01-26T13:59:06Z</time>
      </trkpt>
      <trkpt lat="9.9041750" lon="-83.9434670">
        <ele>1623.9</ele>
        <time>2020-01-26T13:59:16Z</time>
      </trkpt>
      <trkpt lat="9.9040890" lon="-83.9434150">
        <ele>1624.1</ele>
        <time>2020-01-26T13:59:20Z</time>
      </trkpt>
      <trkpt lat="9.9040210" lon="-83.9433670">
        <ele>1624.3</ele>
        <time>2020-01-26T13:59:23Z</time>
      </trkpt>
      <trkpt lat="9.9039840" lon="-83.9433270">
        <ele>1624.4</ele>
        <time>2020-01-26T13:59:25Z</time>
      </trkpt>
      <trkpt lat="9.9039730" lon="-83.9432840">
        <ele>1624.5</ele>
        <time>2020-01-26T13:59:27Z</time>
      </trkpt>
      <trkpt lat="9.9039840" lon="-83.9432520">
        <ele>1624.5</ele>
        <time>2020-01-26T13:59:31Z</time>
      </trkpt>
      <trkpt lat="9.9039910" lon="-83.9432360">
        <ele>1624.6</ele>
        <time>2020-01-26T13:59:33Z</time>
      </trkpt>
      <trkpt lat="9.9040040" lon="-83.9431760">
        <ele>1624.7</ele>
        <time>2020-01-26T13:59:43Z</time>
      </trkpt>
      <trkpt lat="9.9039940" lon="-83.9431560">
        <ele>1624.6</ele>
        <time>2020-01-26T13:59:50Z</time>
      </trkpt>
      <trkpt lat="9.9039780" lon="-83.9431510">
        <ele>1624.6</ele>
        <time>2020-01-26T14:00:00Z</time>
      </trkpt>
      <trkpt lat="9.9039920" lon="-83.9432010">
        <ele>1624.7</ele>
        <time>2020-01-26T14:00:14Z</time>
      </trkpt>
      <trkpt lat="9.9039960" lon="-83.9432030">
        <ele>1624.7</ele>
        <time>2020-01-26T14:00:21Z</time>
      </trkpt>
      <trkpt lat="9.9040000" lon="-83.9432140">
        <ele>1624.7</ele>
        <time>2020-01-26T14:00:35Z</time>
      </trkpt>
      <trkpt lat="9.9040120" lon="-83.9432090">
        <ele>1624.7</ele>
        <time>2020-01-26T14:00:44Z</time>
      </trkpt>
      <trkpt lat="9.9040000" lon="-83.9432090">
        <ele>1624.7</ele>
        <time>2020-01-26T14:00:47Z</time>
      </trkpt>
      <trkpt lat="9.9039660" lon="-83.9432190">
        <ele>1624.7</ele>
        <time>2020-01-26T14:00:50Z</time>
      </trkpt>
      <trkpt lat="9.9039100" lon="-83.9432470">
        <ele>1624.6</ele>
        <time>2020-01-26T14:00:56Z</time>
      </trkpt>
      <trkpt lat="9.9038480" lon="-83.9432890">
        <ele>1624.5</ele>
        <time>2020-01-26T14:01:03Z</time>
      </trkpt>
      <trkpt lat="9.9038090" lon="-83.9432930">
        <ele>1624.4</ele>
        <time>2020-01-26T14:01:08Z</time>
      </trkpt>
      <trkpt lat="9.9038140" lon="-83.9432970">
        <ele>1624.4</ele>
        <time>2020-01-26T14:01:15Z</time>
      </trkpt>
      <trkpt lat="9.9038110" lon="-83.9433040">
        <ele>1624.4</ele>
        <time>2020-01-26T14:01:23Z</time>
      </trkpt>
      <trkpt lat="9.9038230" lon="-83.9433020">
        <ele>1624.3</ele>
        <time>2020-01-26T14:01:31Z</time>
      </trkpt>
      <trkpt lat="9.9038240" lon="-83.9433010">
        <ele>1624.3</ele>
        <time>2020-01-26T14:01:32Z</time>
      </trkpt>
      <trkpt lat="9.9038270" lon="-83.9432980">
        <ele>1624.3</ele>
        <time>2020-01-26T14:01:36Z</time>
      </trkpt>
      <trkpt lat="9.9038130" lon="-83.9432980">
        <ele>1624.3</ele>
        <time>2020-01-26T14:01:45Z</time>
      </trkpt>
      <trkpt lat="9.9038250" lon="-83.9433010">
        <ele>1624.2</ele>
        <time>2020-01-26T14:02:00Z</time>
      </trkpt>
      <trkpt lat="9.9038290" lon="-83.9432920">
        <ele>1624.2</ele>
        <time>2020-01-26T14:02:06Z</time>
      </trkpt>
      <trkpt lat="9.9038160" lon="-83.9433010">
        <ele>1624.1</ele>
        <time>2020-01-26T14:02:17Z</time>
      </trkpt>
      <trkpt lat="9.9038140" lon="-83.9433140">
        <ele>1624.0</ele>
        <time>2020-01-26T14:02:25Z</time>
      </trkpt>
      <trkpt lat="9.9038120" lon="-83.9433150">
        <ele>1624.0</ele>
        <time>2020-01-26T14:02:27Z</time>
      </trkpt>
      <trkpt lat="9.9038080" lon="-83.9433200">
        <ele>1624.0</ele>
        <time>2020-01-26T14:02:30Z</time>
      </trkpt>
      <trkpt lat="9.9038010" lon="-83.9433160">
        <ele>1623.9</ele>
        <time>2020-01-26T14:02:37Z</time>
      </trkpt>
      <trkpt lat="9.9037740" lon="-83.9432950">
        <ele>1623.8</ele>
        <time>2020-01-26T14:02:40Z</time>
      </trkpt>
      <trkpt lat="9.9036190" lon="-83.9431490">
        <ele>1622.8</ele>
        <time>2020-01-26T14:02:47Z</time>
      </trkpt>
      <trkpt lat="9.9035550" lon="-83.9430870">
        <ele>1622.2</ele>
        <time>2020-01-26T14:02:49Z</time>
      </trkpt>
      <trkpt lat="9.9034220" lon="-83.9429400">
        <ele>1621.0</ele>
        <time>2020-01-26T14:02:53Z</time>
      </trkpt>
      <trkpt lat="9.9033550" lon="-83.9428500">
        <ele>1620.4</ele>
        <time>2020-01-26T14:02:55Z</time>
      </trkpt>
      <trkpt lat="9.9032180" lon="-83.9426590">
        <ele>1618.7</ele>
        <time>2020-01-26T14:02:59Z</time>
      </trkpt>
      <trkpt lat="9.9030710" lon="-83.9424970">
        <ele>1616.5</ele>
        <time>2020-01-26T14:03:02Z</time>
      </trkpt>
      <trkpt lat="9.9028790" lon="-83.9423360">
        <ele>1614.6</ele>
        <time>2020-01-26T14:03:05Z</time>
      </trkpt>
      <trkpt lat="9.9027350" lon="-83.9422150">
        <ele>1613.0</ele>
        <time>2020-01-26T14:03:07Z</time>
      </trkpt>
      <trkpt lat="9.9026640" lon="-83.9421500">
        <ele>1612.5</ele>
        <time>2020-01-26T14:03:08Z</time>
      </trkpt>
      <trkpt lat="9.9025940" lon="-83.9420840">
        <ele>1612.1</ele>
        <time>2020-01-26T14:03:09Z</time>
      </trkpt>
      <trkpt lat="9.9025250" lon="-83.9420170">
        <ele>1611.7</ele>
        <time>2020-01-26T14:03:10Z</time>
      </trkpt>
      <trkpt lat="9.9024580" lon="-83.9419480">
        <ele>1611.2</ele>
        <time>2020-01-26T14:03:11Z</time>
      </trkpt>
      <trkpt lat="9.9023320" lon="-83.9418010">
        <ele>1609.8</ele>
        <time>2020-01-26T14:03:13Z</time>
      </trkpt>
      <trkpt lat="9.9022030" lon="-83.9416530">
        <ele>1607.5</ele>
        <time>2020-01-26T14:03:15Z</time>
      </trkpt>
      <trkpt lat="9.9020410" lon="-83.9415250">
        <ele>1604.6</ele>
        <time>2020-01-26T14:03:17Z</time>
      </trkpt>
      <trkpt lat="9.9018620" lon="-83.9414030">
        <ele>1601.5</ele>
        <time>2020-01-26T14:03:19Z</time>
      </trkpt>
      <trkpt lat="9.9016620" lon="-83.9412580">
        <ele>1597.2</ele>
        <time>2020-01-26T14:03:21Z</time>
      </trkpt>
      <trkpt lat="9.9014410" lon="-83.9410980">
        <ele>1594.6</ele>
        <time>2020-01-26T14:03:23Z</time>
      </trkpt>
      <trkpt lat="9.9012260" lon="-83.9409400">
        <ele>1595.0</ele>
        <time>2020-01-26T14:03:25Z</time>
      </trkpt>
      <trkpt lat="9.9010220" lon="-83.9408110">
        <ele>1597.1</ele>
        <time>2020-01-26T14:03:27Z</time>
      </trkpt>
      <trkpt lat="9.9008150" lon="-83.9407270">
        <ele>1598.2</ele>
        <time>2020-01-26T14:03:29Z</time>
      </trkpt>
      <trkpt lat="9.9006070" lon="-83.9406860">
        <ele>1599.3</ele>
        <time>2020-01-26T14:03:31Z</time>
      </trkpt>
      <trkpt lat="9.9005070" lon="-83.9406750">
        <ele>1600.0</ele>
        <time>2020-01-26T14:03:32Z</time>
      </trkpt>
      <trkpt lat="9.9003200" lon="-83.9406760">
        <ele>1600.9</ele>
        <time>2020-01-26T14:03:34Z</time>
      </trkpt>
      <trkpt lat="9.9000750" lon="-83.9406830">
        <ele>1601.6</ele>
        <time>2020-01-26T14:03:37Z</time>
      </trkpt>
      <trkpt lat="9.8998430" lon="-83.9406800">
        <ele>1602.4</ele>
        <time>2020-01-26T14:03:40Z</time>
      </trkpt>
      <trkpt lat="9.8996250" lon="-83.9406830">
        <ele>1603.1</ele>
        <time>2020-01-26T14:03:44Z</time>
      </trkpt>
      <trkpt lat="9.8994970" lon="-83.9406930">
        <ele>1603.3</ele>
        <time>2020-01-26T14:03:48Z</time>
      </trkpt>
      <trkpt lat="9.8994410" lon="-83.9406960">
        <ele>1603.4</ele>
        <time>2020-01-26T14:03:50Z</time>
      </trkpt>
      <trkpt lat="9.8994130" lon="-83.9406970">
        <ele>1603.4</ele>
        <time>2020-01-26T14:03:51Z</time>
      </trkpt>
      <trkpt lat="9.8993590" lon="-83.9407020">
        <ele>1603.4</ele>
        <time>2020-01-26T14:03:53Z</time>
      </trkpt>
      <trkpt lat="9.8991840" lon="-83.9407090">
        <ele>1603.5</ele>
        <time>2020-01-26T14:04:04Z</time>
      </trkpt>
      <trkpt lat="9.8992340" lon="-83.9405910">
        <ele>1603.9</ele>
        <time>2020-01-26T14:04:10Z</time>
      </trkpt>
      <trkpt lat="9.8993520" lon="-83.9404410">
        <ele>1605.3</ele>
        <time>2020-01-26T14:04:16Z</time>
      </trkpt>
      <trkpt lat="9.8994120" lon="-83.9403460">
        <ele>1606.0</ele>
        <time>2020-01-26T14:04:20Z</time>
      </trkpt>
      <trkpt lat="9.8994280" lon="-83.9403250">
        <ele>1606.1</ele>
        <time>2020-01-26T14:04:21Z</time>
      </trkpt>
      <trkpt lat="9.8995000" lon="-83.9401560">
        <ele>1607.0</ele>
        <time>2020-01-26T14:04:29Z</time>
      </trkpt>
      <trkpt lat="9.8994920" lon="-83.9400770">
        <ele>1607.6</ele>
        <time>2020-01-26T14:04:33Z</time>
      </trkpt>
      <trkpt lat="9.8994160" lon="-83.9400320">
        <ele>1607.6</ele>
        <time>2020-01-26T14:04:38Z</time>
      </trkpt>
      <trkpt lat="9.8993610" lon="-83.9400140">
        <ele>1607.6</ele>
        <time>2020-01-26T14:04:42Z</time>
      </trkpt>
      <trkpt lat="9.8993480" lon="-83.9400090">
        <ele>1607.6</ele>
        <time>2020-01-26T14:04:43Z</time>
      </trkpt>
      <trkpt lat="9.8992630" lon="-83.9399820">
        <ele>1607.5</ele>
        <time>2020-01-26T14:04:48Z</time>
      </trkpt>
      <trkpt lat="9.8992430" lon="-83.9399770">
        <ele>1607.5</ele>
        <time>2020-01-26T14:04:49Z</time>
      </trkpt>
      <trkpt lat="9.8992220" lon="-83.9399690">
        <ele>1607.5</ele>
        <time>2020-01-26T14:04:50Z</time>
      </trkpt>
      <trkpt lat="9.8991980" lon="-83.9399610">
        <ele>1607.5</ele>
        <time>2020-01-26T14:04:51Z</time>
      </trkpt>
      <trkpt lat="9.8991740" lon="-83.9399540">
        <ele>1607.4</ele>
        <time>2020-01-26T14:04:52Z</time>
      </trkpt>
      <trkpt lat="9.8991520" lon="-83.9399480">
        <ele>1607.4</ele>
        <time>2020-01-26T14:04:53Z</time>
      </trkpt>
      <trkpt lat="9.8991290" lon="-83.9399420">
        <ele>1607.4</ele>
        <time>2020-01-26T14:04:54Z</time>
      </trkpt>
      <trkpt lat="9.8990850" lon="-83.9399180">
        <ele>1607.3</ele>
        <time>2020-01-26T14:04:56Z</time>
      </trkpt>
      <trkpt lat="9.8989910" lon="-83.9398430">
        <ele>1606.6</ele>
        <time>2020-01-26T14:05:00Z</time>
      </trkpt>
      <trkpt lat="9.8988720" lon="-83.9396870">
        <ele>1603.5</ele>
        <time>2020-01-26T14:05:06Z</time>
      </trkpt>
      <trkpt lat="9.8988320" lon="-83.9395480">
        <ele>1599.5</ele>
        <time>2020-01-26T14:05:10Z</time>
      </trkpt>
      <trkpt lat="9.8988320" lon="-83.9394080">
        <ele>1595.2</ele>
        <time>2020-01-26T14:05:13Z</time>
      </trkpt>
      <trkpt lat="9.8988390" lon="-83.9393590">
        <ele>1593.6</ele>
        <time>2020-01-26T14:05:14Z</time>
      </trkpt>
      <trkpt lat="9.8988490" lon="-83.9393100">
        <ele>1592.0</ele>
        <time>2020-01-26T14:05:15Z</time>
      </trkpt>
      <trkpt lat="9.8988670" lon="-83.9392690">
        <ele>1590.6</ele>
        <time>2020-01-26T14:05:16Z</time>
      </trkpt>
      <trkpt lat="9.8989800" lon="-83.9391250">
        <ele>1585.5</ele>
        <time>2020-01-26T14:05:20Z</time>
      </trkpt>
      <trkpt lat="9.8990320" lon="-83.9389520">
        <ele>1580.8</ele>
        <time>2020-01-26T14:05:25Z</time>
      </trkpt>
      <trkpt lat="9.8990150" lon="-83.9389140">
        <ele>1579.7</ele>
        <time>2020-01-26T14:05:26Z</time>
      </trkpt>
      <trkpt lat="9.8988600" lon="-83.9387560">
        <ele>1573.9</ele>
        <time>2020-01-26T14:05:30Z</time>
      </trkpt>
      <trkpt lat="9.8986720" lon="-83.9386500">
        <ele>1569.5</ele>
        <time>2020-01-26T14:05:32Z</time>
      </trkpt>
      <trkpt lat="9.8984410" lon="-83.9385370">
        <ele>1567.0</ele>
        <time>2020-01-26T14:05:34Z</time>
      </trkpt>
      <trkpt lat="9.8982040" lon="-83.9384110">
        <ele>1567.5</ele>
        <time>2020-01-26T14:05:36Z</time>
      </trkpt>
      <trkpt lat="9.8980270" lon="-83.9383050">
        <ele>1569.4</ele>
        <time>2020-01-26T14:05:38Z</time>
      </trkpt>
      <trkpt lat="9.8978280" lon="-83.9381840">
        <ele>1571.3</ele>
        <time>2020-01-26T14:05:41Z</time>
      </trkpt>
      <trkpt lat="9.8976650" lon="-83.9380910">
        <ele>1568.9</ele>
        <time>2020-01-26T14:05:45Z</time>
      </trkpt>
      <trkpt lat="9.8975760" lon="-83.9380380">
        <ele>1568.1</ele>
        <time>2020-01-26T14:05:48Z</time>
      </trkpt>
      <trkpt lat="9.8975520" lon="-83.9380210">
        <ele>1568.0</ele>
        <time>2020-01-26T14:05:49Z</time>
      </trkpt>
      <trkpt lat="9.8975300" lon="-83.9380040">
        <ele>1567.9</ele>
        <time>2020-01-26T14:05:50Z</time>
      </trkpt>
      <trkpt lat="9.8974100" lon="-83.9378950">
        <ele>1568.1</ele>
        <time>2020-01-26T14:05:58Z</time>
      </trkpt>
      <trkpt lat="9.8973920" lon="-83.9378800">
        <ele>1568.2</ele>
        <time>2020-01-26T14:05:59Z</time>
      </trkpt>
      <trkpt lat="9.8973400" lon="-83.9378450">
        <ele>1568.6</ele>
        <time>2020-01-26T14:06:02Z</time>
      </trkpt>
      <trkpt lat="9.8972680" lon="-83.9377580">
        <ele>1569.6</ele>
        <time>2020-01-26T14:06:07Z</time>
      </trkpt>
      <trkpt lat="9.8971530" lon="-83.9376100">
        <ele>1571.7</ele>
        <time>2020-01-26T14:06:17Z</time>
      </trkpt>
      <trkpt lat="9.8971020" lon="-83.9375460">
        <ele>1572.6</ele>
        <time>2020-01-26T14:06:21Z</time>
      </trkpt>
      <trkpt lat="9.8969540" lon="-83.9374420">
        <ele>1573.6</ele>
        <time>2020-01-26T14:06:31Z</time>
      </trkpt>
      <trkpt lat="9.8968540" lon="-83.9373370">
        <ele>1573.8</ele>
        <time>2020-01-26T14:06:37Z</time>
      </trkpt>
      <trkpt lat="9.8967490" lon="-83.9371680">
        <ele>1573.9</ele>
        <time>2020-01-26T14:06:43Z</time>
      </trkpt>
      <trkpt lat="9.8966610" lon="-83.9369870">
        <ele>1573.9</ele>
        <time>2020-01-26T14:06:48Z</time>
      </trkpt>
      <trkpt lat="9.8966390" lon="-83.9369400">
        <ele>1573.9</ele>
        <time>2020-01-26T14:06:49Z</time>
      </trkpt>
      <trkpt lat="9.8965650" lon="-83.9367720">
        <ele>1573.9</ele>
        <time>2020-01-26T14:06:52Z</time>
      </trkpt>
      <trkpt lat="9.8964630" lon="-83.9365940">
        <ele>1573.6</ele>
        <time>2020-01-26T14:06:55Z</time>
      </trkpt>
      <trkpt lat="9.8963010" lon="-83.9364040">
        <ele>1573.0</ele>
        <time>2020-01-26T14:06:58Z</time>
      </trkpt>
      <trkpt lat="9.8962480" lon="-83.9363340">
        <ele>1572.9</ele>
        <time>2020-01-26T14:06:59Z</time>
      </trkpt>
      <trkpt lat="9.8961460" lon="-83.9361820">
        <ele>1572.2</ele>
        <time>2020-01-26T14:07:01Z</time>
      </trkpt>
      <trkpt lat="9.8960390" lon="-83.9360270">
        <ele>1571.2</ele>
        <time>2020-01-26T14:07:03Z</time>
      </trkpt>
      <trkpt lat="9.8959240" lon="-83.9358750">
        <ele>1570.2</ele>
        <time>2020-01-26T14:07:05Z</time>
      </trkpt>
      <trkpt lat="9.8957970" lon="-83.9357260">
        <ele>1569.6</ele>
        <time>2020-01-26T14:07:07Z</time>
      </trkpt>
      <trkpt lat="9.8956760" lon="-83.9355820">
        <ele>1569.2</ele>
        <time>2020-01-26T14:07:09Z</time>
      </trkpt>
      <trkpt lat="9.8956180" lon="-83.9355150">
        <ele>1568.9</ele>
        <time>2020-01-26T14:07:10Z</time>
      </trkpt>
      <trkpt lat="9.8954770" lon="-83.9353800">
        <ele>1567.8</ele>
        <time>2020-01-26T14:07:13Z</time>
      </trkpt>
      <trkpt lat="9.8954080" lon="-83.9353040">
        <ele>1567.3</ele>
        <time>2020-01-26T14:07:16Z</time>
      </trkpt>
      <trkpt lat="9.8953820" lon="-83.9351630">
        <ele>1566.5</ele>
        <time>2020-01-26T14:07:19Z</time>
      </trkpt>
      <trkpt lat="9.8953540" lon="-83.9349820">
        <ele>1565.7</ele>
        <time>2020-01-26T14:07:22Z</time>
      </trkpt>
      <trkpt lat="9.8952990" lon="-83.9348540">
        <ele>1565.1</ele>
        <time>2020-01-26T14:07:24Z</time>
      </trkpt>
      <trkpt lat="9.8952010" lon="-83.9347180">
        <ele>1564.7</ele>
        <time>2020-01-26T14:07:26Z</time>
      </trkpt>
      <trkpt lat="9.8950960" lon="-83.9345560">
        <ele>1564.0</ele>
        <time>2020-01-26T14:07:28Z</time>
      </trkpt>
      <trkpt lat="9.8949970" lon="-83.9343910">
        <ele>1563.3</ele>
        <time>2020-01-26T14:07:30Z</time>
      </trkpt>
      <trkpt lat="9.8949110" lon="-83.9342280">
        <ele>1562.8</ele>
        <time>2020-01-26T14:07:32Z</time>
      </trkpt>
      <trkpt lat="9.8948550" lon="-83.9340680">
        <ele>1562.2</ele>
        <time>2020-01-26T14:07:34Z</time>
      </trkpt>
      <trkpt lat="9.8948550" lon="-83.9338090">
        <ele>1561.1</ele>
        <time>2020-01-26T14:07:37Z</time>
      </trkpt>
      <trkpt lat="9.8948480" lon="-83.9337190">
        <ele>1560.9</ele>
        <time>2020-01-26T14:07:38Z</time>
      </trkpt>
      <trkpt lat="9.8947380" lon="-83.9334690">
        <ele>1560.8</ele>
        <time>2020-01-26T14:07:41Z</time>
      </trkpt>
      <trkpt lat="9.8946910" lon="-83.9333900">
        <ele>1561.1</ele>
        <time>2020-01-26T14:07:42Z</time>
      </trkpt>
      <trkpt lat="9.8945990" lon="-83.9332300">
        <ele>1561.9</ele>
        <time>2020-01-26T14:07:44Z</time>
      </trkpt>
      <trkpt lat="9.8944980" lon="-83.9330430">
        <ele>1563.5</ele>
        <time>2020-01-26T14:07:47Z</time>
      </trkpt>
      <trkpt lat="9.8944430" lon="-83.9329330">
        <ele>1564.6</ele>
        <time>2020-01-26T14:07:50Z</time>
      </trkpt>
      <trkpt lat="9.8943500" lon="-83.9327760">
        <ele>1566.0</ele>
        <time>2020-01-26T14:07:56Z</time>
      </trkpt>
      <trkpt lat="9.8942710" lon="-83.9326690">
        <ele>1566.3</ele>
        <time>2020-01-26T14:08:00Z</time>
      </trkpt>
      <trkpt lat="9.8942360" lon="-83.9325970">
        <ele>1566.1</ele>
        <time>2020-01-26T14:08:02Z</time>
      </trkpt>
      <trkpt lat="9.8942020" lon="-83.9325040">
        <ele>1565.8</ele>
        <time>2020-01-26T14:08:04Z</time>
      </trkpt>
      <trkpt lat="9.8941200" lon="-83.9323330">
        <ele>1564.6</ele>
        <time>2020-01-26T14:08:07Z</time>
      </trkpt>
      <trkpt lat="9.8940170" lon="-83.9321180">
        <ele>1562.2</ele>
        <time>2020-01-26T14:08:10Z</time>
      </trkpt>
      <trkpt lat="9.8939160" lon="-83.9319230">
        <ele>1559.6</ele>
        <time>2020-01-26T14:08:13Z</time>
      </trkpt>
      <trkpt lat="9.8938330" lon="-83.9317420">
        <ele>1556.7</ele>
        <time>2020-01-26T14:08:19Z</time>
      </trkpt>
      <trkpt lat="9.8938390" lon="-83.9317270">
        <ele>1556.9</ele>
        <time>2020-01-26T14:08:20Z</time>
      </trkpt>
      <trkpt lat="9.8939350" lon="-83.9316950">
        <ele>1558.3</ele>
        <time>2020-01-26T14:08:25Z</time>
      </trkpt>
      <trkpt lat="9.8939540" lon="-83.9316910">
        <ele>1558.5</ele>
        <time>2020-01-26T14:08:26Z</time>
      </trkpt>
      <trkpt lat="9.8940110" lon="-83.9316670">
        <ele>1559.3</ele>
        <time>2020-01-26T14:08:29Z</time>
      </trkpt>
      <trkpt lat="9.8940700" lon="-83.9316520">
        <ele>1560.1</ele>
        <time>2020-01-26T14:08:32Z</time>
      </trkpt>
      <trkpt lat="9.8941580" lon="-83.9316340">
        <ele>1561.3</ele>
        <time>2020-01-26T14:08:37Z</time>
      </trkpt>
      <trkpt lat="9.8943470" lon="-83.9316020">
        <ele>1565.9</ele>
        <time>2020-01-26T14:08:47Z</time>
      </trkpt>
      <trkpt lat="9.8945320" lon="-83.9315670">
        <ele>1569.6</ele>
        <time>2020-01-26T14:08:58Z</time>
      </trkpt>
      <trkpt lat="9.8947160" lon="-83.9315400">
        <ele>1574.0</ele>
        <time>2020-01-26T14:09:10Z</time>
      </trkpt>
      <trkpt lat="9.8948430" lon="-83.9315030">
        <ele>1576.5</ele>
        <time>2020-01-26T14:09:20Z</time>
      </trkpt>
      <trkpt lat="9.8950220" lon="-83.9314330">
        <ele>1579.6</ele>
        <time>2020-01-26T14:09:34Z</time>
      </trkpt>
      <trkpt lat="9.8951010" lon="-83.9313910">
        <ele>1580.9</ele>
        <time>2020-01-26T14:09:40Z</time>
      </trkpt>
      <trkpt lat="9.8951930" lon="-83.9313350">
        <ele>1582.5</ele>
        <time>2020-01-26T14:09:47Z</time>
      </trkpt>
      <trkpt lat="9.8953550" lon="-83.9312440">
        <ele>1584.3</ele>
        <time>2020-01-26T14:09:59Z</time>
      </trkpt>
      <trkpt lat="9.8955140" lon="-83.9311480">
        <ele>1585.0</ele>
        <time>2020-01-26T14:10:10Z</time>
      </trkpt>
      <trkpt lat="9.8956220" lon="-83.9310920">
        <ele>1585.8</ele>
        <time>2020-01-26T14:10:17Z</time>
      </trkpt>
      <trkpt lat="9.8956860" lon="-83.9310750">
        <ele>1586.2</ele>
        <time>2020-01-26T14:10:21Z</time>
      </trkpt>
      <trkpt lat="9.8957610" lon="-83.9310490">
        <ele>1586.8</ele>
        <time>2020-01-26T14:10:26Z</time>
      </trkpt>
      <trkpt lat="9.8959490" lon="-83.9310650">
        <ele>1587.9</ele>
        <time>2020-01-26T14:10:37Z</time>
      </trkpt>
      <trkpt lat="9.8961320" lon="-83.9311020">
        <ele>1590.6</ele>
        <time>2020-01-26T14:10:47Z</time>
      </trkpt>
      <trkpt lat="9.8963270" lon="-83.9311220">
        <ele>1591.3</ele>
        <time>2020-01-26T14:10:57Z</time>
      </trkpt>
      <trkpt lat="9.8964240" lon="-83.9311330">
        <ele>1591.9</ele>
        <time>2020-01-26T14:11:02Z</time>
      </trkpt>
      <trkpt lat="9.8965680" lon="-83.9311490">
        <ele>1593.1</ele>
        <time>2020-01-26T14:11:09Z</time>
      </trkpt>
      <trkpt lat="9.8967580" lon="-83.9311340">
        <ele>1594.6</ele>
        <time>2020-01-26T14:11:19Z</time>
      </trkpt>
      <trkpt lat="9.8968270" lon="-83.9311230">
        <ele>1595.2</ele>
        <time>2020-01-26T14:11:23Z</time>
      </trkpt>
      <trkpt lat="9.8969080" lon="-83.9310970">
        <ele>1596.1</ele>
        <time>2020-01-26T14:11:28Z</time>
      </trkpt>
      <trkpt lat="9.8970270" lon="-83.9310710">
        <ele>1597.8</ele>
        <time>2020-01-26T14:11:35Z</time>
      </trkpt>
      <trkpt lat="9.8972130" lon="-83.9310470">
        <ele>1601.0</ele>
        <time>2020-01-26T14:11:46Z</time>
      </trkpt>
      <trkpt lat="9.8972820" lon="-83.9310400">
        <ele>1602.0</ele>
        <time>2020-01-26T14:11:50Z</time>
      </trkpt>
      <trkpt lat="9.8973150" lon="-83.9310350">
        <ele>1602.5</ele>
        <time>2020-01-26T14:11:52Z</time>
      </trkpt>
      <trkpt lat="9.8975060" lon="-83.9310040">
        <ele>1605.7</ele>
        <time>2020-01-26T14:12:04Z</time>
      </trkpt>
      <trkpt lat="9.8976990" lon="-83.9309800">
        <ele>1608.6</ele>
        <time>2020-01-26T14:12:17Z</time>
      </trkpt>
      <trkpt lat="9.8978850" lon="-83.9309760">
        <ele>1611.7</ele>
        <time>2020-01-26T14:12:30Z</time>
      </trkpt>
      <trkpt lat="9.8979460" lon="-83.9310020">
        <ele>1612.7</ele>
        <time>2020-01-26T14:12:35Z</time>
      </trkpt>
      <trkpt lat="9.8980800" lon="-83.9311160">
        <ele>1615.9</ele>
        <time>2020-01-26T14:12:47Z</time>
      </trkpt>
      <trkpt lat="9.8982200" lon="-83.9312460">
        <ele>1619.5</ele>
        <time>2020-01-26T14:13:02Z</time>
      </trkpt>
      <trkpt lat="9.8983780" lon="-83.9313380">
        <ele>1623.1</ele>
        <time>2020-01-26T14:13:17Z</time>
      </trkpt>
      <trkpt lat="9.8984440" lon="-83.9313560">
        <ele>1624.5</ele>
        <time>2020-01-26T14:13:23Z</time>
      </trkpt>
      <trkpt lat="9.8984900" lon="-83.9313540">
        <ele>1625.5</ele>
        <time>2020-01-26T14:13:27Z</time>
      </trkpt>
      <trkpt lat="9.8985490" lon="-83.9313590">
        <ele>1626.7</ele>
        <time>2020-01-26T14:13:32Z</time>
      </trkpt>
      <trkpt lat="9.8985840" lon="-83.9313620">
        <ele>1627.5</ele>
        <time>2020-01-26T14:13:35Z</time>
      </trkpt>
      <trkpt lat="9.8986310" lon="-83.9313640">
        <ele>1628.5</ele>
        <time>2020-01-26T14:13:39Z</time>
      </trkpt>
      <trkpt lat="9.8987300" lon="-83.9313720">
        <ele>1630.4</ele>
        <time>2020-01-26T14:13:47Z</time>
      </trkpt>
      <trkpt lat="9.8987940" lon="-83.9313840">
        <ele>1631.7</ele>
        <time>2020-01-26T14:13:52Z</time>
      </trkpt>
      <trkpt lat="9.8988800" lon="-83.9314190">
        <ele>1633.6</ele>
        <time>2020-01-26T14:13:59Z</time>
      </trkpt>
      <trkpt lat="9.8990320" lon="-83.9315250">
        <ele>1638.7</ele>
        <time>2020-01-26T14:14:15Z</time>
      </trkpt>
      <trkpt lat="9.8991000" lon="-83.9316180">
        <ele>1640.9</ele>
        <time>2020-01-26T14:14:25Z</time>
      </trkpt>
      <trkpt lat="9.8991240" lon="-83.9316690">
        <ele>1641.9</ele>
        <time>2020-01-26T14:14:30Z</time>
      </trkpt>
      <trkpt lat="9.8991500" lon="-83.9317280">
        <ele>1642.9</ele>
        <time>2020-01-26T14:14:35Z</time>
      </trkpt>
      <trkpt lat="9.8991750" lon="-83.9317720">
        <ele>1643.7</ele>
        <time>2020-01-26T14:14:39Z</time>
      </trkpt>
      <trkpt lat="9.8992570" lon="-83.9319410">
        <ele>1646.3</ele>
        <time>2020-01-26T14:14:53Z</time>
      </trkpt>
      <trkpt lat="9.8993100" lon="-83.9321030">
        <ele>1648.6</ele>
        <time>2020-01-26T14:15:05Z</time>
      </trkpt>
      <trkpt lat="9.8993370" lon="-83.9321810">
        <ele>1649.7</ele>
        <time>2020-01-26T14:15:11Z</time>
      </trkpt>
      <trkpt lat="9.8994290" lon="-83.9323460">
        <ele>1652.8</ele>
        <time>2020-01-26T14:15:25Z</time>
      </trkpt>
      <trkpt lat="9.8995610" lon="-83.9324740">
        <ele>1655.9</ele>
        <time>2020-01-26T14:15:40Z</time>
      </trkpt>
      <trkpt lat="9.8997320" lon="-83.9325550">
        <ele>1659.2</ele>
        <time>2020-01-26T14:15:55Z</time>
      </trkpt>
      <trkpt lat="9.8999160" lon="-83.9325470">
        <ele>1662.5</ele>
        <time>2020-01-26T14:16:08Z</time>
      </trkpt>
      <trkpt lat="9.8999400" lon="-83.9325410">
        <ele>1662.9</ele>
        <time>2020-01-26T14:16:10Z</time>
      </trkpt>
      <trkpt lat="9.9001090" lon="-83.9324850">
        <ele>1665.9</ele>
        <time>2020-01-26T14:16:24Z</time>
      </trkpt>
      <trkpt lat="9.9001520" lon="-83.9324500">
        <ele>1666.7</ele>
        <time>2020-01-26T14:16:28Z</time>
      </trkpt>
      <trkpt lat="9.9003050" lon="-83.9323680">
        <ele>1669.3</ele>
        <time>2020-01-26T14:16:40Z</time>
      </trkpt>
      <trkpt lat="9.9004380" lon="-83.9322900">
        <ele>1671.5</ele>
        <time>2020-01-26T14:16:52Z</time>
      </trkpt>
      <trkpt lat="9.9005190" lon="-83.9322510">
        <ele>1672.8</ele>
        <time>2020-01-26T14:16:59Z</time>
      </trkpt>
      <trkpt lat="9.9006720" lon="-83.9321440">
        <ele>1675.5</ele>
        <time>2020-01-26T14:17:14Z</time>
      </trkpt>
      <trkpt lat="9.9007240" lon="-83.9321040">
        <ele>1676.4</ele>
        <time>2020-01-26T14:17:19Z</time>
      </trkpt>
      <trkpt lat="9.9007840" lon="-83.9320550">
        <ele>1677.6</ele>
        <time>2020-01-26T14:17:25Z</time>
      </trkpt>
      <trkpt lat="9.9008030" lon="-83.9320440">
        <ele>1678.0</ele>
        <time>2020-01-26T14:17:27Z</time>
      </trkpt>
      <trkpt lat="9.9009320" lon="-83.9319950">
        <ele>1680.2</ele>
        <time>2020-01-26T14:17:37Z</time>
      </trkpt>
      <trkpt lat="9.9009820" lon="-83.9319740">
        <ele>1681.0</ele>
        <time>2020-01-26T14:17:41Z</time>
      </trkpt>
      <trkpt lat="9.9010590" lon="-83.9319140">
        <ele>1682.5</ele>
        <time>2020-01-26T14:17:49Z</time>
      </trkpt>
      <trkpt lat="9.9011130" lon="-83.9318740">
        <ele>1683.4</ele>
        <time>2020-01-26T14:17:54Z</time>
      </trkpt>
      <trkpt lat="9.9011660" lon="-83.9318410">
        <ele>1684.3</ele>
        <time>2020-01-26T14:17:59Z</time>
      </trkpt>
      <trkpt lat="9.9012110" lon="-83.9318220">
        <ele>1685.0</ele>
        <time>2020-01-26T14:18:03Z</time>
      </trkpt>
      <trkpt lat="9.9013710" lon="-83.9317380">
        <ele>1687.6</ele>
        <time>2020-01-26T14:18:16Z</time>
      </trkpt>
      <trkpt lat="9.9015290" lon="-83.9316420">
        <ele>1689.9</ele>
        <time>2020-01-26T14:18:30Z</time>
      </trkpt>
      <trkpt lat="9.9016990" lon="-83.9315680">
        <ele>1691.9</ele>
        <time>2020-01-26T14:18:44Z</time>
      </trkpt>
      <trkpt lat="9.9017880" lon="-83.9315250">
        <ele>1693.1</ele>
        <time>2020-01-26T14:18:50Z</time>
      </trkpt>
      <trkpt lat="9.9019520" lon="-83.9314310">
        <ele>1695.2</ele>
        <time>2020-01-26T14:19:01Z</time>
      </trkpt>
      <trkpt lat="9.9021100" lon="-83.9313320">
        <ele>1697.1</ele>
        <time>2020-01-26T14:19:12Z</time>
      </trkpt>
      <trkpt lat="9.9021210" lon="-83.9313200">
        <ele>1697.3</ele>
        <time>2020-01-26T14:19:13Z</time>
      </trkpt>
      <trkpt lat="9.9021590" lon="-83.9312810">
        <ele>1697.9</ele>
        <time>2020-01-26T14:19:16Z</time>
      </trkpt>
      <trkpt lat="9.9022020" lon="-83.9312420">
        <ele>1698.5</ele>
        <time>2020-01-26T14:19:19Z</time>
      </trkpt>
      <trkpt lat="9.9023440" lon="-83.9311190">
        <ele>1700.2</ele>
        <time>2020-01-26T14:19:29Z</time>
      </trkpt>
      <trkpt lat="9.9023850" lon="-83.9310830">
        <ele>1700.7</ele>
        <time>2020-01-26T14:19:32Z</time>
      </trkpt>
      <trkpt lat="9.9025250" lon="-83.9309510">
        <ele>1702.6</ele>
        <time>2020-01-26T14:19:43Z</time>
      </trkpt>
      <trkpt lat="9.9026720" lon="-83.9308310">
        <ele>1704.8</ele>
        <time>2020-01-26T14:19:54Z</time>
      </trkpt>
      <trkpt lat="9.9026990" lon="-83.9308120">
        <ele>1705.2</ele>
        <time>2020-01-26T14:19:56Z</time>
      </trkpt>
      <trkpt lat="9.9028640" lon="-83.9307160">
        <ele>1707.7</ele>
        <time>2020-01-26T14:20:07Z</time>
      </trkpt>
      <trkpt lat="9.9030240" lon="-83.9306200">
        <ele>1710.4</ele>
        <time>2020-01-26T14:20:19Z</time>
      </trkpt>
      <trkpt lat="9.9031510" lon="-83.9305620">
        <ele>1712.2</ele>
        <time>2020-01-26T14:20:28Z</time>
      </trkpt>
      <trkpt lat="9.9033240" lon="-83.9304800">
        <ele>1714.6</ele>
        <time>2020-01-26T14:20:40Z</time>
      </trkpt>
      <trkpt lat="9.9034240" lon="-83.9304240">
        <ele>1716.1</ele>
        <time>2020-01-26T14:20:48Z</time>
      </trkpt>
      <trkpt lat="9.9035470" lon="-83.9303470">
        <ele>1718.1</ele>
        <time>2020-01-26T14:20:58Z</time>
      </trkpt>
      <trkpt lat="9.9036300" lon="-83.9302640">
        <ele>1719.8</ele>
        <time>2020-01-26T14:21:06Z</time>
      </trkpt>
      <trkpt lat="9.9037420" lon="-83.9301770">
        <ele>1721.9</ele>
        <time>2020-01-26T14:21:15Z</time>
      </trkpt>
      <trkpt lat="9.9038640" lon="-83.9300420">
        <ele>1724.6</ele>
        <time>2020-01-26T14:21:28Z</time>
      </trkpt>
      <trkpt lat="9.9040090" lon="-83.9299240">
        <ele>1727.6</ele>
        <time>2020-01-26T14:21:42Z</time>
      </trkpt>
      <trkpt lat="9.9041540" lon="-83.9298040">
        <ele>1730.3</ele>
        <time>2020-01-26T14:21:56Z</time>
      </trkpt>
      <trkpt lat="9.9042880" lon="-83.9297270">
        <ele>1732.3</ele>
        <time>2020-01-26T14:22:06Z</time>
      </trkpt>
      <trkpt lat="9.9043520" lon="-83.9296940">
        <ele>1733.2</ele>
        <time>2020-01-26T14:22:11Z</time>
      </trkpt>
      <trkpt lat="9.9045260" lon="-83.9296090">
        <ele>1735.3</ele>
        <time>2020-01-26T14:22:23Z</time>
      </trkpt>
      <trkpt lat="9.9047060" lon="-83.9295500">
        <ele>1737.0</ele>
        <time>2020-01-26T14:22:34Z</time>
      </trkpt>
      <trkpt lat="9.9048920" lon="-83.9294920">
        <ele>1738.6</ele>
        <time>2020-01-26T14:22:44Z</time>
      </trkpt>
      <trkpt lat="9.9050700" lon="-83.9294320">
        <ele>1740.1</ele>
        <time>2020-01-26T14:22:53Z</time>
      </trkpt>
      <trkpt lat="9.9051010" lon="-83.9294000">
        <ele>1740.4</ele>
        <time>2020-01-26T14:22:55Z</time>
      </trkpt>
      <trkpt lat="9.9051320" lon="-83.9293640">
        <ele>1740.7</ele>
        <time>2020-01-26T14:22:57Z</time>
      </trkpt>
      <trkpt lat="9.9051770" lon="-83.9293150">
        <ele>1741.2</ele>
        <time>2020-01-26T14:23:00Z</time>
      </trkpt>
      <trkpt lat="9.9053130" lon="-83.9291890">
        <ele>1742.7</ele>
        <time>2020-01-26T14:23:09Z</time>
      </trkpt>
      <trkpt lat="9.9054290" lon="-83.9290350">
        <ele>1744.4</ele>
        <time>2020-01-26T14:23:18Z</time>
      </trkpt>
      <trkpt lat="9.9055190" lon="-83.9288730">
        <ele>1745.9</ele>
        <time>2020-01-26T14:23:27Z</time>
      </trkpt>
      <trkpt lat="9.9056140" lon="-83.9287170">
        <ele>1747.2</ele>
        <time>2020-01-26T14:23:36Z</time>
      </trkpt>
      <trkpt lat="9.9057000" lon="-83.9285560">
        <ele>1748.2</ele>
        <time>2020-01-26T14:23:45Z</time>
      </trkpt>
      <trkpt lat="9.9058000" lon="-83.9283920">
        <ele>1749.3</ele>
        <time>2020-01-26T14:23:54Z</time>
      </trkpt>
      <trkpt lat="9.9059040" lon="-83.9282480">
        <ele>1750.4</ele>
        <time>2020-01-26T14:24:02Z</time>
      </trkpt>
      <trkpt lat="9.9060110" lon="-83.9280890">
        <ele>1751.7</ele>
        <time>2020-01-26T14:24:11Z</time>
      </trkpt>
      <trkpt lat="9.9060900" lon="-83.9280010">
        <ele>1752.4</ele>
        <time>2020-01-26T14:24:17Z</time>
      </trkpt>
      <trkpt lat="9.9062440" lon="-83.9279030">
        <ele>1753.6</ele>
        <time>2020-01-26T14:24:26Z</time>
      </trkpt>
      <trkpt lat="9.9062800" lon="-83.9278880">
        <ele>1753.9</ele>
        <time>2020-01-26T14:24:28Z</time>
      </trkpt>
      <trkpt lat="9.9064440" lon="-83.9278090">
        <ele>1755.2</ele>
        <time>2020-01-26T14:24:37Z</time>
      </trkpt>
      <trkpt lat="9.9066130" lon="-83.9277120">
        <ele>1756.7</ele>
        <time>2020-01-26T14:24:47Z</time>
      </trkpt>
      <trkpt lat="9.9067540" lon="-83.9276010">
        <ele>1758.2</ele>
        <time>2020-01-26T14:24:56Z</time>
      </trkpt>
      <trkpt lat="9.9069040" lon="-83.9274710">
        <ele>1759.8</ele>
        <time>2020-01-26T14:25:06Z</time>
      </trkpt>
      <trkpt lat="9.9070550" lon="-83.9273580">
        <ele>1761.7</ele>
        <time>2020-01-26T14:25:17Z</time>
      </trkpt>
      <trkpt lat="9.9072180" lon="-83.9272540">
        <ele>1764.1</ele>
        <time>2020-01-26T14:25:29Z</time>
      </trkpt>
      <trkpt lat="9.9073330" lon="-83.9271780">
        <ele>1766.0</ele>
        <time>2020-01-26T14:25:39Z</time>
      </trkpt>
      <trkpt lat="9.9074370" lon="-83.9270680">
        <ele>1768.5</ele>
        <time>2020-01-26T14:25:50Z</time>
      </trkpt>
      <trkpt lat="9.9074920" lon="-83.9270420">
        <ele>1769.7</ele>
        <time>2020-01-26T14:25:54Z</time>
      </trkpt>
      <trkpt lat="9.9076190" lon="-83.9269140">
        <ele>1772.5</ele>
        <time>2020-01-26T14:26:08Z</time>
      </trkpt>
      <trkpt lat="9.9076440" lon="-83.9268910">
        <ele>1773.0</ele>
        <time>2020-01-26T14:26:11Z</time>
      </trkpt>
      <trkpt lat="9.9076780" lon="-83.9268630">
        <ele>1773.6</ele>
        <time>2020-01-26T14:26:15Z</time>
      </trkpt>
      <trkpt lat="9.9077490" lon="-83.9267720">
        <ele>1775.4</ele>
        <time>2020-01-26T14:26:25Z</time>
      </trkpt>
      <trkpt lat="9.9077730" lon="-83.9267360">
        <ele>1776.1</ele>
        <time>2020-01-26T14:26:29Z</time>
      </trkpt>
      <trkpt lat="9.9078150" lon="-83.9266890">
        <ele>1777.1</ele>
        <time>2020-01-26T14:26:34Z</time>
      </trkpt>
      <trkpt lat="9.9078970" lon="-83.9266200">
        <ele>1778.9</ele>
        <time>2020-01-26T14:26:43Z</time>
      </trkpt>
      <trkpt lat="9.9080160" lon="-83.9265070">
        <ele>1781.7</ele>
        <time>2020-01-26T14:26:56Z</time>
      </trkpt>
      <trkpt lat="9.9081110" lon="-83.9264320">
        <ele>1783.6</ele>
        <time>2020-01-26T14:27:05Z</time>
      </trkpt>
      <trkpt lat="9.9081650" lon="-83.9263880">
        <ele>1784.9</ele>
        <time>2020-01-26T14:27:11Z</time>
      </trkpt>
      <trkpt lat="9.9082640" lon="-83.9263150">
        <ele>1787.0</ele>
        <time>2020-01-26T14:27:21Z</time>
      </trkpt>
      <trkpt lat="9.9083200" lon="-83.9262650">
        <ele>1788.3</ele>
        <time>2020-01-26T14:27:27Z</time>
      </trkpt>
      <trkpt lat="9.9083300" lon="-83.9262580">
        <ele>1788.5</ele>
        <time>2020-01-26T14:27:28Z</time>
      </trkpt>
      <trkpt lat="9.9083790" lon="-83.9262180">
        <ele>1789.6</ele>
        <time>2020-01-26T14:27:34Z</time>
      </trkpt>
      <trkpt lat="9.9083990" lon="-83.9262010">
        <ele>1790.0</ele>
        <time>2020-01-26T14:27:35Z</time>
      </trkpt>
      <trkpt lat="9.9084080" lon="-83.9261940">
        <ele>1790.2</ele>
        <time>2020-01-26T14:27:36Z</time>
      </trkpt>
      <trkpt lat="9.9084290" lon="-83.9261780">
        <ele>1790.6</ele>
        <time>2020-01-26T14:27:38Z</time>
      </trkpt>
      <trkpt lat="9.9085510" lon="-83.9260700">
        <ele>1793.5</ele>
        <time>2020-01-26T14:27:51Z</time>
      </trkpt>
      <trkpt lat="9.9085700" lon="-83.9260510">
        <ele>1793.9</ele>
        <time>2020-01-26T14:27:53Z</time>
      </trkpt>
      <trkpt lat="9.9085900" lon="-83.9260330">
        <ele>1794.3</ele>
        <time>2020-01-26T14:27:55Z</time>
      </trkpt>
      <trkpt lat="9.9087250" lon="-83.9259020">
        <ele>1797.5</ele>
        <time>2020-01-26T14:28:11Z</time>
      </trkpt>
      <trkpt lat="9.9088430" lon="-83.9257490">
        <ele>1800.9</ele>
        <time>2020-01-26T14:28:27Z</time>
      </trkpt>
      <trkpt lat="9.9089460" lon="-83.9255940">
        <ele>1804.7</ele>
        <time>2020-01-26T14:28:43Z</time>
      </trkpt>
      <trkpt lat="9.9090520" lon="-83.9254410">
        <ele>1808.6</ele>
        <time>2020-01-26T14:28:59Z</time>
      </trkpt>
      <trkpt lat="9.9090740" lon="-83.9254150">
        <ele>1809.4</ele>
        <time>2020-01-26T14:29:02Z</time>
      </trkpt>
      <trkpt lat="9.9091620" lon="-83.9252880">
        <ele>1812.8</ele>
        <time>2020-01-26T14:29:15Z</time>
      </trkpt>
      <trkpt lat="9.9091940" lon="-83.9252490">
        <ele>1813.9</ele>
        <time>2020-01-26T14:29:19Z</time>
      </trkpt>
      <trkpt lat="9.9092920" lon="-83.9251370">
        <ele>1816.7</ele>
        <time>2020-01-26T14:29:32Z</time>
      </trkpt>
      <trkpt lat="9.9093310" lon="-83.9250670">
        <ele>1818.3</ele>
        <time>2020-01-26T14:29:39Z</time>
      </trkpt>
      <trkpt lat="9.9093380" lon="-83.9250590">
        <ele>1818.5</ele>
        <time>2020-01-26T14:29:40Z</time>
      </trkpt>
      <trkpt lat="9.9093560" lon="-83.9250410">
        <ele>1819.0</ele>
        <time>2020-01-26T14:29:42Z</time>
      </trkpt>
      <trkpt lat="9.9094060" lon="-83.9249760">
        <ele>1820.5</ele>
        <time>2020-01-26T14:29:49Z</time>
      </trkpt>
      <trkpt lat="9.9095810" lon="-83.9249150">
        <ele>1824.1</ele>
        <time>2020-01-26T14:30:03Z</time>
      </trkpt>
      <trkpt lat="9.9096310" lon="-83.9248930">
        <ele>1825.0</ele>
        <time>2020-01-26T14:30:07Z</time>
      </trkpt>
      <trkpt lat="9.9097480" lon="-83.9248380">
        <ele>1826.9</ele>
        <time>2020-01-26T14:30:16Z</time>
      </trkpt>
      <trkpt lat="9.9098180" lon="-83.9247860">
        <ele>1828.2</ele>
        <time>2020-01-26T14:30:22Z</time>
      </trkpt>
      <trkpt lat="9.9098300" lon="-83.9247760">
        <ele>1828.4</ele>
        <time>2020-01-26T14:30:23Z</time>
      </trkpt>
      <trkpt lat="9.9098440" lon="-83.9247680">
        <ele>1828.6</ele>
        <time>2020-01-26T14:30:24Z</time>
      </trkpt>
      <trkpt lat="9.9098550" lon="-83.9247580">
        <ele>1828.8</ele>
        <time>2020-01-26T14:30:25Z</time>
      </trkpt>
      <trkpt lat="9.9099680" lon="-83.9246660">
        <ele>1830.9</ele>
        <time>2020-01-26T14:30:37Z</time>
      </trkpt>
      <trkpt lat="9.9099860" lon="-83.9246550">
        <ele>1831.2</ele>
        <time>2020-01-26T14:30:39Z</time>
      </trkpt>
      <trkpt lat="9.9100560" lon="-83.9246320">
        <ele>1832.3</ele>
        <time>2020-01-26T14:30:45Z</time>
      </trkpt>
      <trkpt lat="9.9101680" lon="-83.9245400">
        <ele>1834.2</ele>
        <time>2020-01-26T14:30:57Z</time>
      </trkpt>
      <trkpt lat="9.9102290" lon="-83.9244780">
        <ele>1835.3</ele>
        <time>2020-01-26T14:31:04Z</time>
      </trkpt>
      <trkpt lat="9.9102350" lon="-83.9244680">
        <ele>1835.5</ele>
        <time>2020-01-26T14:31:05Z</time>
      </trkpt>
      <trkpt lat="9.9102410" lon="-83.9244590">
        <ele>1835.6</ele>
        <time>2020-01-26T14:31:06Z</time>
      </trkpt>
      <trkpt lat="9.9102940" lon="-83.9243870">
        <ele>1836.8</ele>
        <time>2020-01-26T14:31:13Z</time>
      </trkpt>
      <trkpt lat="9.9103280" lon="-83.9243440">
        <ele>1837.6</ele>
        <time>2020-01-26T14:31:17Z</time>
      </trkpt>
      <trkpt lat="9.9103580" lon="-83.9243000">
        <ele>1838.3</ele>
        <time>2020-01-26T14:31:21Z</time>
      </trkpt>
      <trkpt lat="9.9104230" lon="-83.9242030">
        <ele>1839.9</ele>
        <time>2020-01-26T14:31:30Z</time>
      </trkpt>
      <trkpt lat="9.9104300" lon="-83.9241940">
        <ele>1840.0</ele>
        <time>2020-01-26T14:31:31Z</time>
      </trkpt>
      <trkpt lat="9.9104810" lon="-83.9241000">
        <ele>1841.5</ele>
        <time>2020-01-26T14:31:39Z</time>
      </trkpt>
      <trkpt lat="9.9105880" lon="-83.9239400">
        <ele>1844.1</ele>
        <time>2020-01-26T14:31:53Z</time>
      </trkpt>
      <trkpt lat="9.9106050" lon="-83.9239260">
        <ele>1844.4</ele>
        <time>2020-01-26T14:31:55Z</time>
      </trkpt>
      <trkpt lat="9.9106790" lon="-83.9238190">
        <ele>1846.1</ele>
        <time>2020-01-26T14:32:05Z</time>
      </trkpt>
      <trkpt lat="9.9107510" lon="-83.9237090">
        <ele>1847.8</ele>
        <time>2020-01-26T14:32:15Z</time>
      </trkpt>
      <trkpt lat="9.9107780" lon="-83.9236800">
        <ele>1848.3</ele>
        <time>2020-01-26T14:32:19Z</time>
      </trkpt>
      <trkpt lat="9.9108020" lon="-83.9236500">
        <ele>1848.7</ele>
        <time>2020-01-26T14:32:23Z</time>
      </trkpt>
      <trkpt lat="9.9108410" lon="-83.9236040">
        <ele>1849.4</ele>
        <time>2020-01-26T14:32:28Z</time>
      </trkpt>
      <trkpt lat="9.9108690" lon="-83.9235650">
        <ele>1850.0</ele>
        <time>2020-01-26T14:32:32Z</time>
      </trkpt>
      <trkpt lat="9.9109340" lon="-83.9234570">
        <ele>1851.4</ele>
        <time>2020-01-26T14:32:42Z</time>
      </trkpt>
      <trkpt lat="9.9110290" lon="-83.9232940">
        <ele>1853.6</ele>
        <time>2020-01-26T14:32:56Z</time>
      </trkpt>
      <trkpt lat="9.9110340" lon="-83.9232810">
        <ele>1853.8</ele>
        <time>2020-01-26T14:32:57Z</time>
      </trkpt>
      <trkpt lat="9.9111270" lon="-83.9231220">
        <ele>1855.9</ele>
        <time>2020-01-26T14:33:12Z</time>
      </trkpt>
      <trkpt lat="9.9111620" lon="-83.9230560">
        <ele>1856.7</ele>
        <time>2020-01-26T14:33:18Z</time>
      </trkpt>
      <trkpt lat="9.9112610" lon="-83.9229240">
        <ele>1858.9</ele>
        <time>2020-01-26T14:33:30Z</time>
      </trkpt>
      <trkpt lat="9.9112940" lon="-83.9228830">
        <ele>1859.7</ele>
        <time>2020-01-26T14:33:35Z</time>
      </trkpt>
      <trkpt lat="9.9113170" lon="-83.9228610">
        <ele>1860.2</ele>
        <time>2020-01-26T14:33:38Z</time>
      </trkpt>
      <trkpt lat="9.9113490" lon="-83.9228220">
        <ele>1861.0</ele>
        <time>2020-01-26T14:33:43Z</time>
      </trkpt>
      <trkpt lat="9.9113780" lon="-83.9227900">
        <ele>1861.7</ele>
        <time>2020-01-26T14:33:48Z</time>
      </trkpt>
      <trkpt lat="9.9113610" lon="-83.9227930">
        <ele>1862.0</ele>
        <time>2020-01-26T14:33:57Z</time>
      </trkpt>
      <trkpt lat="9.9113600" lon="-83.9227930">
        <ele>1862.0</ele>
        <time>2020-01-26T14:33:58Z</time>
      </trkpt>
      <trkpt lat="9.9113610" lon="-83.9227920">
        <ele>1862.0</ele>
        <time>2020-01-26T14:33:59Z</time>
      </trkpt>
      <trkpt lat="9.9113610" lon="-83.9227920">
        <ele>1862.0</ele>
        <time>2020-01-26T14:34:00Z</time>
      </trkpt>
      <trkpt lat="9.9113600" lon="-83.9227920">
        <ele>1862.0</ele>
        <time>2020-01-26T14:34:01Z</time>
      </trkpt>
      <trkpt lat="9.9113600" lon="-83.9227920">
        <ele>1862.0</ele>
        <time>2020-01-26T14:34:02Z</time>
      </trkpt>
      <trkpt lat="9.9113610" lon="-83.9227960">
        <ele>1862.1</ele>
        <time>2020-01-26T14:34:09Z</time>
      </trkpt>
      <trkpt lat="9.9113600" lon="-83.9227990">
        <ele>1862.1</ele>
        <time>2020-01-26T14:34:12Z</time>
      </trkpt>
      <trkpt lat="9.9113660" lon="-83.9227990">
        <ele>1862.2</ele>
        <time>2020-01-26T14:34:17Z</time>
      </trkpt>
      <trkpt lat="9.9113690" lon="-83.9227980">
        <ele>1862.3</ele>
        <time>2020-01-26T14:34:22Z</time>
      </trkpt>
      <trkpt lat="9.9113650" lon="-83.9228030">
        <ele>1862.4</ele>
        <time>2020-01-26T14:34:27Z</time>
      </trkpt>
      <trkpt lat="9.9113780" lon="-83.9228010">
        <ele>1862.6</ele>
        <time>2020-01-26T14:34:32Z</time>
      </trkpt>
      <trkpt lat="9.9113870" lon="-83.9227850">
        <ele>1862.9</ele>
        <time>2020-01-26T14:34:35Z</time>
      </trkpt>
      <trkpt lat="9.9114430" lon="-83.9226960">
        <ele>1864.7</ele>
        <time>2020-01-26T14:34:43Z</time>
      </trkpt>
      <trkpt lat="9.9114660" lon="-83.9226640">
        <ele>1865.3</ele>
        <time>2020-01-26T14:34:46Z</time>
      </trkpt>
      <trkpt lat="9.9114790" lon="-83.9226430">
        <ele>1865.7</ele>
        <time>2020-01-26T14:34:48Z</time>
      </trkpt>
      <trkpt lat="9.9114970" lon="-83.9226130">
        <ele>1866.2</ele>
        <time>2020-01-26T14:34:51Z</time>
      </trkpt>
      <trkpt lat="9.9115170" lon="-83.9225850">
        <ele>1866.7</ele>
        <time>2020-01-26T14:34:54Z</time>
      </trkpt>
      <trkpt lat="9.9116260" lon="-83.9224310">
        <ele>1869.4</ele>
        <time>2020-01-26T14:35:10Z</time>
      </trkpt>
      <trkpt lat="9.9116890" lon="-83.9223410">
        <ele>1871.0</ele>
        <time>2020-01-26T14:35:19Z</time>
      </trkpt>
      <trkpt lat="9.9117120" lon="-83.9222860">
        <ele>1872.0</ele>
        <time>2020-01-26T14:35:25Z</time>
      </trkpt>
      <trkpt lat="9.9117540" lon="-83.9222300">
        <ele>1873.3</ele>
        <time>2020-01-26T14:35:31Z</time>
      </trkpt>
      <trkpt lat="9.9117610" lon="-83.9222170">
        <ele>1873.5</ele>
        <time>2020-01-26T14:35:33Z</time>
      </trkpt>
      <trkpt lat="9.9118070" lon="-83.9221640">
        <ele>1874.9</ele>
        <time>2020-01-26T14:35:40Z</time>
      </trkpt>
      <trkpt lat="9.9118480" lon="-83.9221110">
        <ele>1876.2</ele>
        <time>2020-01-26T14:35:46Z</time>
      </trkpt>
      <trkpt lat="9.9119000" lon="-83.9220320">
        <ele>1878.0</ele>
        <time>2020-01-26T14:35:54Z</time>
      </trkpt>
      <trkpt lat="9.9119540" lon="-83.9219770">
        <ele>1879.5</ele>
        <time>2020-01-26T14:36:01Z</time>
      </trkpt>
      <trkpt lat="9.9119900" lon="-83.9219140">
        <ele>1880.9</ele>
        <time>2020-01-26T14:36:05Z</time>
      </trkpt>
      <trkpt lat="9.9120150" lon="-83.9218520">
        <ele>1882.3</ele>
        <time>2020-01-26T14:36:11Z</time>
      </trkpt>
      <trkpt lat="9.9120200" lon="-83.9218270">
        <ele>1882.8</ele>
        <time>2020-01-26T14:36:13Z</time>
      </trkpt>
      <trkpt lat="9.9120610" lon="-83.9217710">
        <ele>1884.2</ele>
        <time>2020-01-26T14:36:19Z</time>
      </trkpt>
      <trkpt lat="9.9120850" lon="-83.9217280">
        <ele>1885.1</ele>
        <time>2020-01-26T14:36:23Z</time>
      </trkpt>
      <trkpt lat="9.9121730" lon="-83.9215570">
        <ele>1888.6</ele>
        <time>2020-01-26T14:36:37Z</time>
      </trkpt>
      <trkpt lat="9.9122710" lon="-83.9214010">
        <ele>1891.6</ele>
        <time>2020-01-26T14:36:51Z</time>
      </trkpt>
      <trkpt lat="9.9122830" lon="-83.9213610">
        <ele>1892.2</ele>
        <time>2020-01-26T14:37:03Z</time>
      </trkpt>
      <trkpt lat="9.9122620" lon="-83.9213750">
        <ele>1892.6</ele>
        <time>2020-01-26T14:37:08Z</time>
      </trkpt>
      <trkpt lat="9.9122670" lon="-83.9213820">
        <ele>1892.7</ele>
        <time>2020-01-26T14:37:18Z</time>
      </trkpt>
      <trkpt lat="9.9122580" lon="-83.9213780">
        <ele>1892.8</ele>
        <time>2020-01-26T14:37:24Z</time>
      </trkpt>
      <trkpt lat="9.9122310" lon="-83.9213680">
        <ele>1893.2</ele>
        <time>2020-01-26T14:37:30Z</time>
      </trkpt>
      <trkpt lat="9.9122270" lon="-83.9213670">
        <ele>1893.2</ele>
        <time>2020-01-26T14:37:38Z</time>
      </trkpt>
      <trkpt lat="9.9122340" lon="-83.9213660">
        <ele>1893.3</ele>
        <time>2020-01-26T14:37:41Z</time>
      </trkpt>
      <trkpt lat="9.9122360" lon="-83.9213630">
        <ele>1893.4</ele>
        <time>2020-01-26T14:37:42Z</time>
      </trkpt>
      <trkpt lat="9.9122370" lon="-83.9213610">
        <ele>1893.4</ele>
        <time>2020-01-26T14:37:44Z</time>
      </trkpt>
      <trkpt lat="9.9122260" lon="-83.9213680">
        <ele>1893.6</ele>
        <time>2020-01-26T14:37:47Z</time>
      </trkpt>
      <trkpt lat="9.9122380" lon="-83.9213690">
        <ele>1893.8</ele>
        <time>2020-01-26T14:37:58Z</time>
      </trkpt>
      <trkpt lat="9.9122400" lon="-83.9213730">
        <ele>1893.8</ele>
        <time>2020-01-26T14:38:03Z</time>
      </trkpt>
      <trkpt lat="9.9122400" lon="-83.9213750">
        <ele>1893.8</ele>
        <time>2020-01-26T14:38:10Z</time>
      </trkpt>
      <trkpt lat="9.9122250" lon="-83.9213770">
        <ele>1894.0</ele>
        <time>2020-01-26T14:38:18Z</time>
      </trkpt>
      <trkpt lat="9.9122250" lon="-83.9213800">
        <ele>1894.1</ele>
        <time>2020-01-26T14:38:20Z</time>
      </trkpt>
      <trkpt lat="9.9122330" lon="-83.9213790">
        <ele>1894.2</ele>
        <time>2020-01-26T14:38:27Z</time>
      </trkpt>
      <trkpt lat="9.9122380" lon="-83.9213730">
        <ele>1894.3</ele>
        <time>2020-01-26T14:38:34Z</time>
      </trkpt>
      <trkpt lat="9.9122410" lon="-83.9213690">
        <ele>1894.4</ele>
        <time>2020-01-26T14:38:36Z</time>
      </trkpt>
      <trkpt lat="9.9122350" lon="-83.9213820">
        <ele>1894.5</ele>
        <time>2020-01-26T14:38:43Z</time>
      </trkpt>
      <trkpt lat="9.9122430" lon="-83.9214020">
        <ele>1894.8</ele>
        <time>2020-01-26T14:38:47Z</time>
      </trkpt>
      <trkpt lat="9.9122390" lon="-83.9213900">
        <ele>1895.0</ele>
        <time>2020-01-26T14:39:03Z</time>
      </trkpt>
      <trkpt lat="9.9122440" lon="-83.9213820">
        <ele>1895.1</ele>
        <time>2020-01-26T14:39:08Z</time>
      </trkpt>
      <trkpt lat="9.9122490" lon="-83.9213810">
        <ele>1895.1</ele>
        <time>2020-01-26T14:39:09Z</time>
      </trkpt>
      <trkpt lat="9.9122550" lon="-83.9213810">
        <ele>1895.2</ele>
        <time>2020-01-26T14:39:32Z</time>
      </trkpt>
      <trkpt lat="9.9122190" lon="-83.9213940">
        <ele>1895.7</ele>
        <time>2020-01-26T14:39:48Z</time>
      </trkpt>
      <trkpt lat="9.9122050" lon="-83.9213970">
        <ele>1895.8</ele>
        <time>2020-01-26T14:40:05Z</time>
      </trkpt>
      <trkpt lat="9.9122050" lon="-83.9213990">
        <ele>1895.9</ele>
        <time>2020-01-26T14:40:06Z</time>
      </trkpt>
      <trkpt lat="9.9122030" lon="-83.9214010">
        <ele>1895.9</ele>
        <time>2020-01-26T14:40:07Z</time>
      </trkpt>
      <trkpt lat="9.9122030" lon="-83.9214020">
        <ele>1895.9</ele>
        <time>2020-01-26T14:40:08Z</time>
      </trkpt>
      <trkpt lat="9.9122030" lon="-83.9214050">
        <ele>1895.9</ele>
        <time>2020-01-26T14:40:09Z</time>
      </trkpt>
      <trkpt lat="9.9122050" lon="-83.9214060">
        <ele>1896.0</ele>
        <time>2020-01-26T14:40:10Z</time>
      </trkpt>
      <trkpt lat="9.9122090" lon="-83.9214060">
        <ele>1896.0</ele>
        <time>2020-01-26T14:40:11Z</time>
      </trkpt>
      <trkpt lat="9.9122280" lon="-83.9214000">
        <ele>1896.2</ele>
        <time>2020-01-26T14:40:18Z</time>
      </trkpt>
      <trkpt lat="9.9122290" lon="-83.9214000">
        <ele>1896.2</ele>
        <time>2020-01-26T14:40:19Z</time>
      </trkpt>
      <trkpt lat="9.9122300" lon="-83.9213980">
        <ele>1896.3</ele>
        <time>2020-01-26T14:40:20Z</time>
      </trkpt>
      <trkpt lat="9.9122320" lon="-83.9213980">
        <ele>1896.3</ele>
        <time>2020-01-26T14:40:21Z</time>
      </trkpt>
      <trkpt lat="9.9122310" lon="-83.9213960">
        <ele>1896.3</ele>
        <time>2020-01-26T14:40:22Z</time>
      </trkpt>
      <trkpt lat="9.9122300" lon="-83.9213970">
        <ele>1896.3</ele>
        <time>2020-01-26T14:40:23Z</time>
      </trkpt>
      <trkpt lat="9.9122300" lon="-83.9213980">
        <ele>1896.3</ele>
        <time>2020-01-26T14:40:24Z</time>
      </trkpt>
      <trkpt lat="9.9122300" lon="-83.9213980">
        <ele>1896.3</ele>
        <time>2020-01-26T14:40:25Z</time>
      </trkpt>
      <trkpt lat="9.9122310" lon="-83.9213970">
        <ele>1896.3</ele>
        <time>2020-01-26T14:40:26Z</time>
      </trkpt>
      <trkpt lat="9.9122310" lon="-83.9213940">
        <ele>1896.4</ele>
        <time>2020-01-26T14:40:27Z</time>
      </trkpt>
      <trkpt lat="9.9122110" lon="-83.9213850">
        <ele>1896.6</ele>
        <time>2020-01-26T14:40:30Z</time>
      </trkpt>
      <trkpt lat="9.9122220" lon="-83.9213950">
        <ele>1896.8</ele>
        <time>2020-01-26T14:40:32Z</time>
      </trkpt>
      <trkpt lat="9.9122580" lon="-83.9214420">
        <ele>1897.3</ele>
        <time>2020-01-26T14:40:42Z</time>
      </trkpt>
      <trkpt lat="9.9122610" lon="-83.9214440">
        <ele>1897.4</ele>
        <time>2020-01-26T14:40:43Z</time>
      </trkpt>
      <trkpt lat="9.9122850" lon="-83.9214220">
        <ele>1897.7</ele>
        <time>2020-01-26T14:40:45Z</time>
      </trkpt>
      <trkpt lat="9.9123190" lon="-83.9213890">
        <ele>1898.0</ele>
        <time>2020-01-26T14:40:49Z</time>
      </trkpt>
      <trkpt lat="9.9123310" lon="-83.9213730">
        <ele>1898.1</ele>
        <time>2020-01-26T14:40:51Z</time>
      </trkpt>
      <trkpt lat="9.9123400" lon="-83.9213630">
        <ele>1898.2</ele>
        <time>2020-01-26T14:40:52Z</time>
      </trkpt>
      <trkpt lat="9.9123620" lon="-83.9213330">
        <ele>1898.5</ele>
        <time>2020-01-26T14:40:55Z</time>
      </trkpt>
      <trkpt lat="9.9124550" lon="-83.9212310">
        <ele>1899.1</ele>
        <time>2020-01-26T14:41:04Z</time>
      </trkpt>
      <trkpt lat="9.9125090" lon="-83.9211870">
        <ele>1899.3</ele>
        <time>2020-01-26T14:41:08Z</time>
      </trkpt>
      <trkpt lat="9.9125360" lon="-83.9211540">
        <ele>1899.4</ele>
        <time>2020-01-26T14:41:11Z</time>
      </trkpt>
      <trkpt lat="9.9125530" lon="-83.9211330">
        <ele>1899.4</ele>
        <time>2020-01-26T14:41:13Z</time>
      </trkpt>
      <trkpt lat="9.9125580" lon="-83.9211200">
        <ele>1899.4</ele>
        <time>2020-01-26T14:41:14Z</time>
      </trkpt>
      <trkpt lat="9.9125710" lon="-83.9211120">
        <ele>1899.4</ele>
        <time>2020-01-26T14:41:15Z</time>
      </trkpt>
      <trkpt lat="9.9127560" lon="-83.9211090">
        <ele>1899.3</ele>
        <time>2020-01-26T14:41:25Z</time>
      </trkpt>
      <trkpt lat="9.9128750" lon="-83.9211110">
        <ele>1899.1</ele>
        <time>2020-01-26T14:41:30Z</time>
      </trkpt>
      <trkpt lat="9.9130790" lon="-83.9211220">
        <ele>1898.4</ele>
        <time>2020-01-26T14:41:37Z</time>
      </trkpt>
      <trkpt lat="9.9132830" lon="-83.9211360">
        <ele>1897.3</ele>
        <time>2020-01-26T14:41:43Z</time>
      </trkpt>
      <trkpt lat="9.9134200" lon="-83.9209880">
        <ele>1896.2</ele>
        <time>2020-01-26T14:41:49Z</time>
      </trkpt>
      <trkpt lat="9.9134980" lon="-83.9207880">
        <ele>1895.2</ele>
        <time>2020-01-26T14:41:55Z</time>
      </trkpt>
      <trkpt lat="9.9135780" lon="-83.9205900">
        <ele>1894.6</ele>
        <time>2020-01-26T14:42:00Z</time>
      </trkpt>
      <trkpt lat="9.9136330" lon="-83.9204770">
        <ele>1894.6</ele>
        <time>2020-01-26T14:42:03Z</time>
      </trkpt>
      <trkpt lat="9.9137850" lon="-83.9203790">
        <ele>1895.1</ele>
        <time>2020-01-26T14:42:08Z</time>
      </trkpt>
      <trkpt lat="9.9138510" lon="-83.9203550">
        <ele>1895.4</ele>
        <time>2020-01-26T14:42:10Z</time>
      </trkpt>
      <trkpt lat="9.9139770" lon="-83.9203040">
        <ele>1896.5</ele>
        <time>2020-01-26T14:42:14Z</time>
      </trkpt>
      <trkpt lat="9.9141130" lon="-83.9202580">
        <ele>1897.8</ele>
        <time>2020-01-26T14:42:20Z</time>
      </trkpt>
      <trkpt lat="9.9142880" lon="-83.9201690">
        <ele>1899.8</ele>
        <time>2020-01-26T14:42:29Z</time>
      </trkpt>
      <trkpt lat="9.9143570" lon="-83.9201330">
        <ele>1900.7</ele>
        <time>2020-01-26T14:42:33Z</time>
      </trkpt>
      <trkpt lat="9.9144080" lon="-83.9201260">
        <ele>1901.2</ele>
        <time>2020-01-26T14:42:36Z</time>
      </trkpt>
      <trkpt lat="9.9145650" lon="-83.9200250">
        <ele>1903.2</ele>
        <time>2020-01-26T14:42:47Z</time>
      </trkpt>
      <trkpt lat="9.9147100" lon="-83.9199600">
        <ele>1904.9</ele>
        <time>2020-01-26T14:42:56Z</time>
      </trkpt>
      <trkpt lat="9.9148300" lon="-83.9199250">
        <ele>1906.3</ele>
        <time>2020-01-26T14:43:04Z</time>
      </trkpt>
      <trkpt lat="9.9148600" lon="-83.9199190">
        <ele>1906.6</ele>
        <time>2020-01-26T14:43:06Z</time>
      </trkpt>
      <trkpt lat="9.9150490" lon="-83.9198710">
        <ele>1908.9</ele>
        <time>2020-01-26T14:43:20Z</time>
      </trkpt>
      <trkpt lat="9.9151690" lon="-83.9198630">
        <ele>1910.2</ele>
        <time>2020-01-26T14:43:28Z</time>
      </trkpt>
      <trkpt lat="9.9152120" lon="-83.9198600">
        <ele>1910.7</ele>
        <time>2020-01-26T14:43:31Z</time>
      </trkpt>
      <trkpt lat="9.9152610" lon="-83.9198500">
        <ele>1911.2</ele>
        <time>2020-01-26T14:43:34Z</time>
      </trkpt>
      <trkpt lat="9.9154460" lon="-83.9198110">
        <ele>1913.6</ele>
        <time>2020-01-26T14:43:48Z</time>
      </trkpt>
      <trkpt lat="9.9154890" lon="-83.9197950">
        <ele>1914.2</ele>
        <time>2020-01-26T14:43:52Z</time>
      </trkpt>
      <trkpt lat="9.9154990" lon="-83.9197930">
        <ele>1914.3</ele>
        <time>2020-01-26T14:43:53Z</time>
      </trkpt>
      <trkpt lat="9.9155250" lon="-83.9197910">
        <ele>1914.7</ele>
        <time>2020-01-26T14:43:55Z</time>
      </trkpt>
      <trkpt lat="9.9156450" lon="-83.9197790">
        <ele>1916.5</ele>
        <time>2020-01-26T14:44:06Z</time>
      </trkpt>
      <trkpt lat="9.9156790" lon="-83.9197820">
        <ele>1917.0</ele>
        <time>2020-01-26T14:44:09Z</time>
      </trkpt>
      <trkpt lat="9.9157320" lon="-83.9197760">
        <ele>1917.8</ele>
        <time>2020-01-26T14:44:13Z</time>
      </trkpt>
      <trkpt lat="9.9157910" lon="-83.9197810">
        <ele>1918.7</ele>
        <time>2020-01-26T14:44:18Z</time>
      </trkpt>
      <trkpt lat="9.9159370" lon="-83.9198280">
        <ele>1920.9</ele>
        <time>2020-01-26T14:44:31Z</time>
      </trkpt>
      <trkpt lat="9.9159990" lon="-83.9198710">
        <ele>1921.9</ele>
        <time>2020-01-26T14:44:37Z</time>
      </trkpt>
      <trkpt lat="9.9160430" lon="-83.9198950">
        <ele>1922.7</ele>
        <time>2020-01-26T14:44:41Z</time>
      </trkpt>
      <trkpt lat="9.9160720" lon="-83.9199110">
        <ele>1923.1</ele>
        <time>2020-01-26T14:44:44Z</time>
      </trkpt>
      <trkpt lat="9.9162170" lon="-83.9200140">
        <ele>1925.3</ele>
        <time>2020-01-26T14:44:57Z</time>
      </trkpt>
      <trkpt lat="9.9162260" lon="-83.9200260">
        <ele>1925.5</ele>
        <time>2020-01-26T14:44:58Z</time>
      </trkpt>
      <trkpt lat="9.9163070" lon="-83.9200920">
        <ele>1926.8</ele>
        <time>2020-01-26T14:45:05Z</time>
      </trkpt>
      <trkpt lat="9.9164180" lon="-83.9202460">
        <ele>1929.6</ele>
        <time>2020-01-26T14:45:19Z</time>
      </trkpt>
      <trkpt lat="9.9165010" lon="-83.9204120">
        <ele>1932.6</ele>
        <time>2020-01-26T14:45:32Z</time>
      </trkpt>
      <trkpt lat="9.9165670" lon="-83.9205860">
        <ele>1935.4</ele>
        <time>2020-01-26T14:45:46Z</time>
      </trkpt>
      <trkpt lat="9.9166270" lon="-83.9207520">
        <ele>1937.4</ele>
        <time>2020-01-26T14:45:59Z</time>
      </trkpt>
      <trkpt lat="9.9166830" lon="-83.9209360">
        <ele>1939.2</ele>
        <time>2020-01-26T14:46:09Z</time>
      </trkpt>
      <trkpt lat="9.9167110" lon="-83.9210400">
        <ele>1940.1</ele>
        <time>2020-01-26T14:46:15Z</time>
      </trkpt>
      <trkpt lat="9.9167430" lon="-83.9211040">
        <ele>1940.7</ele>
        <time>2020-01-26T14:46:19Z</time>
      </trkpt>
      <trkpt lat="9.9168020" lon="-83.9212280">
        <ele>1942.0</ele>
        <time>2020-01-26T14:46:26Z</time>
      </trkpt>
      <trkpt lat="9.9168720" lon="-83.9213880">
        <ele>1943.8</ele>
        <time>2020-01-26T14:46:34Z</time>
      </trkpt>
      <trkpt lat="9.9169660" lon="-83.9214910">
        <ele>1945.4</ele>
        <time>2020-01-26T14:46:41Z</time>
      </trkpt>
      <trkpt lat="9.9170370" lon="-83.9215010">
        <ele>1946.3</ele>
        <time>2020-01-26T14:46:45Z</time>
      </trkpt>
      <trkpt lat="9.9171550" lon="-83.9213780">
        <ele>1948.4</ele>
        <time>2020-01-26T14:46:55Z</time>
      </trkpt>
      <trkpt lat="9.9171640" lon="-83.9211810">
        <ele>1950.7</ele>
        <time>2020-01-26T14:47:05Z</time>
      </trkpt>
      <trkpt lat="9.9171710" lon="-83.9209860">
        <ele>1953.3</ele>
        <time>2020-01-26T14:47:18Z</time>
      </trkpt>
      <trkpt lat="9.9171680" lon="-83.9209370">
        <ele>1954.1</ele>
        <time>2020-01-26T14:47:22Z</time>
      </trkpt>
      <trkpt lat="9.9171700" lon="-83.9209130">
        <ele>1954.4</ele>
        <time>2020-01-26T14:47:24Z</time>
      </trkpt>
      <trkpt lat="9.9171980" lon="-83.9208160">
        <ele>1955.9</ele>
        <time>2020-01-26T14:47:32Z</time>
      </trkpt>
      <trkpt lat="9.9172690" lon="-83.9207480">
        <ele>1957.3</ele>
        <time>2020-01-26T14:47:40Z</time>
      </trkpt>
      <trkpt lat="9.9173850" lon="-83.9206820">
        <ele>1959.5</ele>
        <time>2020-01-26T14:47:51Z</time>
      </trkpt>
      <trkpt lat="9.9174320" lon="-83.9206600">
        <ele>1960.3</ele>
        <time>2020-01-26T14:47:55Z</time>
      </trkpt>
      <trkpt lat="9.9174470" lon="-83.9206550">
        <ele>1960.6</ele>
        <time>2020-01-26T14:47:56Z</time>
      </trkpt>
      <trkpt lat="9.9176120" lon="-83.9205810">
        <ele>1963.5</ele>
        <time>2020-01-26T14:48:09Z</time>
      </trkpt>
      <trkpt lat="9.9176880" lon="-83.9205480">
        <ele>1964.7</ele>
        <time>2020-01-26T14:48:15Z</time>
      </trkpt>
      <trkpt lat="9.9177680" lon="-83.9205090">
        <ele>1965.9</ele>
        <time>2020-01-26T14:48:22Z</time>
      </trkpt>
      <trkpt lat="9.9178850" lon="-83.9204360">
        <ele>1967.6</ele>
        <time>2020-01-26T14:48:32Z</time>
      </trkpt>
      <trkpt lat="9.9180130" lon="-83.9202930">
        <ele>1970.3</ele>
        <time>2020-01-26T14:48:46Z</time>
      </trkpt>
      <trkpt lat="9.9181360" lon="-83.9201870">
        <ele>1972.9</ele>
        <time>2020-01-26T14:48:59Z</time>
      </trkpt>
      <trkpt lat="9.9181860" lon="-83.9201430">
        <ele>1974.0</ele>
        <time>2020-01-26T14:49:04Z</time>
      </trkpt>
      <trkpt lat="9.9182750" lon="-83.9200690">
        <ele>1975.9</ele>
        <time>2020-01-26T14:49:13Z</time>
      </trkpt>
      <trkpt lat="9.9183960" lon="-83.9199280">
        <ele>1979.0</ele>
        <time>2020-01-26T14:49:28Z</time>
      </trkpt>
      <trkpt lat="9.9184970" lon="-83.9198330">
        <ele>1981.3</ele>
        <time>2020-01-26T14:49:39Z</time>
      </trkpt>
      <trkpt lat="9.9185380" lon="-83.9198070">
        <ele>1982.1</ele>
        <time>2020-01-26T14:49:43Z</time>
      </trkpt>
      <trkpt lat="9.9185570" lon="-83.9197980">
        <ele>1982.5</ele>
        <time>2020-01-26T14:49:45Z</time>
      </trkpt>
      <trkpt lat="9.9185920" lon="-83.9197720">
        <ele>1983.2</ele>
        <time>2020-01-26T14:49:48Z</time>
      </trkpt>
      <trkpt lat="9.9186590" lon="-83.9197090">
        <ele>1984.5</ele>
        <time>2020-01-26T14:49:55Z</time>
      </trkpt>
      <trkpt lat="9.9187110" lon="-83.9196730">
        <ele>1985.4</ele>
        <time>2020-01-26T14:50:00Z</time>
      </trkpt>
      <trkpt lat="9.9187530" lon="-83.9196500">
        <ele>1986.0</ele>
        <time>2020-01-26T14:50:04Z</time>
      </trkpt>
      <trkpt lat="9.9188500" lon="-83.9195900">
        <ele>1987.5</ele>
        <time>2020-01-26T14:50:13Z</time>
      </trkpt>
      <trkpt lat="9.9188700" lon="-83.9195800">
        <ele>1987.8</ele>
        <time>2020-01-26T14:50:15Z</time>
      </trkpt>
      <trkpt lat="9.9190270" lon="-83.9194730">
        <ele>1990.5</ele>
        <time>2020-01-26T14:50:29Z</time>
      </trkpt>
      <trkpt lat="9.9191960" lon="-83.9193920">
        <ele>1993.1</ele>
        <time>2020-01-26T14:50:42Z</time>
      </trkpt>
      <trkpt lat="9.9192560" lon="-83.9193430">
        <ele>1994.2</ele>
        <time>2020-01-26T14:50:48Z</time>
      </trkpt>
      <trkpt lat="9.9193630" lon="-83.9192410">
        <ele>1996.1</ele>
        <time>2020-01-26T14:50:59Z</time>
      </trkpt>
      <trkpt lat="9.9195210" lon="-83.9191410">
        <ele>1998.7</ele>
        <time>2020-01-26T14:51:13Z</time>
      </trkpt>
      <trkpt lat="9.9196970" lon="-83.9190560">
        <ele>2001.7</ele>
        <time>2020-01-26T14:51:28Z</time>
      </trkpt>
      <trkpt lat="9.9198180" lon="-83.9190190">
        <ele>2003.8</ele>
        <time>2020-01-26T14:51:37Z</time>
      </trkpt>
      <trkpt lat="9.9199950" lon="-83.9189680">
        <ele>2006.9</ele>
        <time>2020-01-26T14:51:52Z</time>
      </trkpt>
      <trkpt lat="9.9201290" lon="-83.9189500">
        <ele>2009.3</ele>
        <time>2020-01-26T14:52:02Z</time>
      </trkpt>
      <trkpt lat="9.9201410" lon="-83.9189480">
        <ele>2009.5</ele>
        <time>2020-01-26T14:52:03Z</time>
      </trkpt>
      <trkpt lat="9.9202630" lon="-83.9189360">
        <ele>2011.0</ele>
        <time>2020-01-26T14:52:13Z</time>
      </trkpt>
      <trkpt lat="9.9204470" lon="-83.9189390">
        <ele>2013.2</ele>
        <time>2020-01-26T14:52:27Z</time>
      </trkpt>
      <trkpt lat="9.9205730" lon="-83.9189140">
        <ele>2014.2</ele>
        <time>2020-01-26T14:52:35Z</time>
      </trkpt>
      <trkpt lat="9.9207700" lon="-83.9189100">
        <ele>2016.2</ele>
        <time>2020-01-26T14:52:46Z</time>
      </trkpt>
      <trkpt lat="9.9209360" lon="-83.9188810">
        <ele>2017.0</ele>
        <time>2020-01-26T14:52:56Z</time>
      </trkpt>
      <trkpt lat="9.9210780" lon="-83.9188480">
        <ele>2017.5</ele>
        <time>2020-01-26T14:53:05Z</time>
      </trkpt>
      <trkpt lat="9.9211190" lon="-83.9188320">
        <ele>2017.8</ele>
        <time>2020-01-26T14:53:08Z</time>
      </trkpt>
      <trkpt lat="9.9212030" lon="-83.9187880">
        <ele>2018.3</ele>
        <time>2020-01-26T14:53:13Z</time>
      </trkpt>
      <trkpt lat="9.9213640" lon="-83.9187130">
        <ele>2019.2</ele>
        <time>2020-01-26T14:53:22Z</time>
      </trkpt>
      <trkpt lat="9.9215080" lon="-83.9186020">
        <ele>2020.0</ele>
        <time>2020-01-26T14:53:31Z</time>
      </trkpt>
      <trkpt lat="9.9216100" lon="-83.9184950">
        <ele>2021.2</ele>
        <time>2020-01-26T14:53:39Z</time>
      </trkpt>
      <trkpt lat="9.9216780" lon="-83.9184410">
        <ele>2022.0</ele>
        <time>2020-01-26T14:53:44Z</time>
      </trkpt>
      <trkpt lat="9.9218150" lon="-83.9183230">
        <ele>2023.5</ele>
        <time>2020-01-26T14:53:54Z</time>
      </trkpt>
      <trkpt lat="9.9219390" lon="-83.9181860">
        <ele>2025.7</ele>
        <time>2020-01-26T14:54:04Z</time>
      </trkpt>
      <trkpt lat="9.9219880" lon="-83.9181000">
        <ele>2026.7</ele>
        <time>2020-01-26T14:54:10Z</time>
      </trkpt>
      <trkpt lat="9.9219970" lon="-83.9180840">
        <ele>2027.0</ele>
        <time>2020-01-26T14:54:11Z</time>
      </trkpt>
      <trkpt lat="9.9220190" lon="-83.9180440">
        <ele>2027.6</ele>
        <time>2020-01-26T14:54:14Z</time>
      </trkpt>
      <trkpt lat="9.9220280" lon="-83.9180300">
        <ele>2027.8</ele>
        <time>2020-01-26T14:54:15Z</time>
      </trkpt>
      <trkpt lat="9.9220450" lon="-83.9179980">
        <ele>2028.3</ele>
        <time>2020-01-26T14:54:17Z</time>
      </trkpt>
      <trkpt lat="9.9220530" lon="-83.9179830">
        <ele>2028.5</ele>
        <time>2020-01-26T14:54:18Z</time>
      </trkpt>
      <trkpt lat="9.9220800" lon="-83.9179360">
        <ele>2029.1</ele>
        <time>2020-01-26T14:54:21Z</time>
      </trkpt>
      <trkpt lat="9.9221010" lon="-83.9178890">
        <ele>2030.0</ele>
        <time>2020-01-26T14:54:24Z</time>
      </trkpt>
      <trkpt lat="9.9221830" lon="-83.9177230">
        <ele>2032.1</ele>
        <time>2020-01-26T14:54:36Z</time>
      </trkpt>
      <trkpt lat="9.9222200" lon="-83.9176520">
        <ele>2033.1</ele>
        <time>2020-01-26T14:54:41Z</time>
      </trkpt>
      <trkpt lat="9.9222700" lon="-83.9175510">
        <ele>2034.3</ele>
        <time>2020-01-26T14:54:48Z</time>
      </trkpt>
      <trkpt lat="9.9222960" lon="-83.9175050">
        <ele>2034.8</ele>
        <time>2020-01-26T14:54:51Z</time>
      </trkpt>
      <trkpt lat="9.9223290" lon="-83.9174550">
        <ele>2035.1</ele>
        <time>2020-01-26T14:54:54Z</time>
      </trkpt>
      <trkpt lat="9.9223590" lon="-83.9174040">
        <ele>2035.4</ele>
        <time>2020-01-26T14:54:57Z</time>
      </trkpt>
      <trkpt lat="9.9224590" lon="-83.9172440">
        <ele>2036.7</ele>
        <time>2020-01-26T14:55:07Z</time>
      </trkpt>
      <trkpt lat="9.9225310" lon="-83.9171250">
        <ele>2037.6</ele>
        <time>2020-01-26T14:55:14Z</time>
      </trkpt>
      <trkpt lat="9.9225990" lon="-83.9170370">
        <ele>2038.2</ele>
        <time>2020-01-26T14:55:19Z</time>
      </trkpt>
      <trkpt lat="9.9226210" lon="-83.9170000">
        <ele>2038.5</ele>
        <time>2020-01-26T14:55:21Z</time>
      </trkpt>
      <trkpt lat="9.9227130" lon="-83.9168650">
        <ele>2039.2</ele>
        <time>2020-01-26T14:55:28Z</time>
      </trkpt>
      <trkpt lat="9.9228180" lon="-83.9167040">
        <ele>2039.8</ele>
        <time>2020-01-26T14:55:36Z</time>
      </trkpt>
      <trkpt lat="9.9229040" lon="-83.9165220">
        <ele>2040.7</ele>
        <time>2020-01-26T14:55:45Z</time>
      </trkpt>
      <trkpt lat="9.9229180" lon="-83.9163570">
        <ele>2041.7</ele>
        <time>2020-01-26T14:55:53Z</time>
      </trkpt>
      <trkpt lat="9.9229120" lon="-83.9163390">
        <ele>2041.8</ele>
        <time>2020-01-26T14:55:54Z</time>
      </trkpt>
      <trkpt lat="9.9229060" lon="-83.9163210">
        <ele>2042.0</ele>
        <time>2020-01-26T14:55:55Z</time>
      </trkpt>
      <trkpt lat="9.9228910" lon="-83.9162860">
        <ele>2041.3</ele>
        <time>2020-01-26T14:55:57Z</time>
      </trkpt>
      <trkpt lat="9.9228270" lon="-83.9162110">
        <ele>2040.3</ele>
        <time>2020-01-26T14:56:02Z</time>
      </trkpt>
      <trkpt lat="9.9226300" lon="-83.9161680">
        <ele>2038.9</ele>
        <time>2020-01-26T14:56:09Z</time>
      </trkpt>
      <trkpt lat="9.9225840" lon="-83.9161600">
        <ele>2038.5</ele>
        <time>2020-01-26T14:56:10Z</time>
      </trkpt>
      <trkpt lat="9.9223690" lon="-83.9161190">
        <ele>2037.0</ele>
        <time>2020-01-26T14:56:14Z</time>
      </trkpt>
      <trkpt lat="9.9222400" lon="-83.9161040">
        <ele>2036.1</ele>
        <time>2020-01-26T14:56:16Z</time>
      </trkpt>
      <trkpt lat="9.9220060" lon="-83.9160860">
        <ele>2034.2</ele>
        <time>2020-01-26T14:56:19Z</time>
      </trkpt>
      <trkpt lat="9.9218250" lon="-83.9160750">
        <ele>2032.8</ele>
        <time>2020-01-26T14:56:21Z</time>
      </trkpt>
      <trkpt lat="9.9216260" lon="-83.9160640">
        <ele>2030.9</ele>
        <time>2020-01-26T14:56:23Z</time>
      </trkpt>
      <trkpt lat="9.9214340" lon="-83.9160370">
        <ele>2029.1</ele>
        <time>2020-01-26T14:56:25Z</time>
      </trkpt>
      <trkpt lat="9.9213360" lon="-83.9160150">
        <ele>2028.2</ele>
        <time>2020-01-26T14:56:26Z</time>
      </trkpt>
      <trkpt lat="9.9211570" lon="-83.9159260">
        <ele>2026.5</ele>
        <time>2020-01-26T14:56:28Z</time>
      </trkpt>
      <trkpt lat="9.9209980" lon="-83.9157730">
        <ele>2025.1</ele>
        <time>2020-01-26T14:56:30Z</time>
      </trkpt>
      <trkpt lat="9.9209230" lon="-83.9156860">
        <ele>2024.3</ele>
        <time>2020-01-26T14:56:31Z</time>
      </trkpt>
      <trkpt lat="9.9207750" lon="-83.9155230">
        <ele>2022.6</ele>
        <time>2020-01-26T14:56:33Z</time>
      </trkpt>
      <trkpt lat="9.9206220" lon="-83.9153830">
        <ele>2020.9</ele>
        <time>2020-01-26T14:56:35Z</time>
      </trkpt>
      <trkpt lat="9.9204550" lon="-83.9152530">
        <ele>2019.1</ele>
        <time>2020-01-26T14:56:37Z</time>
      </trkpt>
      <trkpt lat="9.9202790" lon="-83.9151400">
        <ele>2017.6</ele>
        <time>2020-01-26T14:56:39Z</time>
      </trkpt>
      <trkpt lat="9.9201020" lon="-83.9150190">
        <ele>2016.4</ele>
        <time>2020-01-26T14:56:41Z</time>
      </trkpt>
      <trkpt lat="9.9199250" lon="-83.9149070">
        <ele>2015.4</ele>
        <time>2020-01-26T14:56:43Z</time>
      </trkpt>
      <trkpt lat="9.9197490" lon="-83.9147870">
        <ele>2013.5</ele>
        <time>2020-01-26T14:56:45Z</time>
      </trkpt>
      <trkpt lat="9.9195810" lon="-83.9146840">
        <ele>2011.2</ele>
        <time>2020-01-26T14:56:47Z</time>
      </trkpt>
      <trkpt lat="9.9194910" lon="-83.9146460">
        <ele>2010.3</ele>
        <time>2020-01-26T14:56:48Z</time>
      </trkpt>
      <trkpt lat="9.9192940" lon="-83.9146020">
        <ele>2008.2</ele>
        <time>2020-01-26T14:56:50Z</time>
      </trkpt>
      <trkpt lat="9.9190870" lon="-83.9145920">
        <ele>2006.0</ele>
        <time>2020-01-26T14:56:52Z</time>
      </trkpt>
      <trkpt lat="9.9188320" lon="-83.9146070">
        <ele>2003.3</ele>
        <time>2020-01-26T14:56:55Z</time>
      </trkpt>
      <trkpt lat="9.9186200" lon="-83.9146160">
        <ele>2001.0</ele>
        <time>2020-01-26T14:56:59Z</time>
      </trkpt>
      <trkpt lat="9.9184650" lon="-83.9146240">
        <ele>1999.5</ele>
        <time>2020-01-26T14:57:04Z</time>
      </trkpt>
      <trkpt lat="9.9183620" lon="-83.9146220">
        <ele>1998.5</ele>
        <time>2020-01-26T14:57:07Z</time>
      </trkpt>
      <trkpt lat="9.9181120" lon="-83.9146540">
        <ele>1995.9</ele>
        <time>2020-01-26T14:57:11Z</time>
      </trkpt>
      <trkpt lat="9.9178600" lon="-83.9146860">
        <ele>1993.0</ele>
        <time>2020-01-26T14:57:14Z</time>
      </trkpt>
      <trkpt lat="9.9175910" lon="-83.9147220">
        <ele>1989.6</ele>
        <time>2020-01-26T14:57:17Z</time>
      </trkpt>
      <trkpt lat="9.9174150" lon="-83.9147450">
        <ele>1987.4</ele>
        <time>2020-01-26T14:57:19Z</time>
      </trkpt>
      <trkpt lat="9.9171930" lon="-83.9147810">
        <ele>1984.8</ele>
        <time>2020-01-26T14:57:22Z</time>
      </trkpt>
      <trkpt lat="9.9169740" lon="-83.9148130">
        <ele>1982.1</ele>
        <time>2020-01-26T14:57:25Z</time>
      </trkpt>
      <trkpt lat="9.9167120" lon="-83.9148410">
        <ele>1978.7</ele>
        <time>2020-01-26T14:57:28Z</time>
      </trkpt>
      <trkpt lat="9.9165080" lon="-83.9148680">
        <ele>1975.8</ele>
        <time>2020-01-26T14:57:30Z</time>
      </trkpt>
      <trkpt lat="9.9162980" lon="-83.9149040">
        <ele>1972.8</ele>
        <time>2020-01-26T14:57:32Z</time>
      </trkpt>
      <trkpt lat="9.9160890" lon="-83.9149340">
        <ele>1969.8</ele>
        <time>2020-01-26T14:57:34Z</time>
      </trkpt>
      <trkpt lat="9.9158640" lon="-83.9149360">
        <ele>1966.8</ele>
        <time>2020-01-26T14:57:36Z</time>
      </trkpt>
      <trkpt lat="9.9156380" lon="-83.9149050">
        <ele>1964.1</ele>
        <time>2020-01-26T14:57:38Z</time>
      </trkpt>
      <trkpt lat="9.9153990" lon="-83.9148630">
        <ele>1962.1</ele>
        <time>2020-01-26T14:57:40Z</time>
      </trkpt>
      <trkpt lat="9.9151680" lon="-83.9148200">
        <ele>1959.3</ele>
        <time>2020-01-26T14:57:42Z</time>
      </trkpt>
      <trkpt lat="9.9150690" lon="-83.9148110">
        <ele>1958.2</ele>
        <time>2020-01-26T14:57:43Z</time>
      </trkpt>
      <trkpt lat="9.9148800" lon="-83.9148340">
        <ele>1955.7</ele>
        <time>2020-01-26T14:57:45Z</time>
      </trkpt>
      <trkpt lat="9.9146920" lon="-83.9148970">
        <ele>1953.1</ele>
        <time>2020-01-26T14:57:47Z</time>
      </trkpt>
      <trkpt lat="9.9145960" lon="-83.9149360">
        <ele>1951.7</ele>
        <time>2020-01-26T14:57:48Z</time>
      </trkpt>
      <trkpt lat="9.9143930" lon="-83.9150230">
        <ele>1948.3</ele>
        <time>2020-01-26T14:57:50Z</time>
      </trkpt>
      <trkpt lat="9.9141800" lon="-83.9150920">
        <ele>1945.3</ele>
        <time>2020-01-26T14:57:52Z</time>
      </trkpt>
      <trkpt lat="9.9139650" lon="-83.9151120">
        <ele>1942.4</ele>
        <time>2020-01-26T14:57:54Z</time>
      </trkpt>
      <trkpt lat="9.9137530" lon="-83.9150870">
        <ele>1939.3</ele>
        <time>2020-01-26T14:57:56Z</time>
      </trkpt>
      <trkpt lat="9.9136440" lon="-83.9150690">
        <ele>1937.7</ele>
        <time>2020-01-26T14:57:57Z</time>
      </trkpt>
      <trkpt lat="9.9135360" lon="-83.9150530">
        <ele>1936.0</ele>
        <time>2020-01-26T14:57:58Z</time>
      </trkpt>
      <trkpt lat="9.9133070" lon="-83.9150120">
        <ele>1932.5</ele>
        <time>2020-01-26T14:58:00Z</time>
      </trkpt>
      <trkpt lat="9.9131850" lon="-83.9149910">
        <ele>1931.1</ele>
        <time>2020-01-26T14:58:01Z</time>
      </trkpt>
      <trkpt lat="9.9129330" lon="-83.9149500">
        <ele>1928.5</ele>
        <time>2020-01-26T14:58:03Z</time>
      </trkpt>
      <trkpt lat="9.9126750" lon="-83.9149090">
        <ele>1926.1</ele>
        <time>2020-01-26T14:58:05Z</time>
      </trkpt>
      <trkpt lat="9.9124240" lon="-83.9148650">
        <ele>1923.6</ele>
        <time>2020-01-26T14:58:07Z</time>
      </trkpt>
      <trkpt lat="9.9121910" lon="-83.9148290">
        <ele>1920.5</ele>
        <time>2020-01-26T14:58:09Z</time>
      </trkpt>
      <trkpt lat="9.9119580" lon="-83.9147600">
        <ele>1917.0</ele>
        <time>2020-01-26T14:58:11Z</time>
      </trkpt>
      <trkpt lat="9.9117390" lon="-83.9146480">
        <ele>1913.6</ele>
        <time>2020-01-26T14:58:13Z</time>
      </trkpt>
      <trkpt lat="9.9115580" lon="-83.9145000">
        <ele>1911.1</ele>
        <time>2020-01-26T14:58:15Z</time>
      </trkpt>
      <trkpt lat="9.9113860" lon="-83.9143170">
        <ele>1908.0</ele>
        <time>2020-01-26T14:58:17Z</time>
      </trkpt>
      <trkpt lat="9.9111960" lon="-83.9141160">
        <ele>1904.2</ele>
        <time>2020-01-26T14:58:19Z</time>
      </trkpt>
      <trkpt lat="9.9110900" lon="-83.9140240">
        <ele>1902.3</ele>
        <time>2020-01-26T14:58:20Z</time>
      </trkpt>
      <trkpt lat="9.9108650" lon="-83.9139120">
        <ele>1899.9</ele>
        <time>2020-01-26T14:58:22Z</time>
      </trkpt>
      <trkpt lat="9.9106530" lon="-83.9138810">
        <ele>1899.2</ele>
        <time>2020-01-26T14:58:24Z</time>
      </trkpt>
      <trkpt lat="9.9104590" lon="-83.9138840">
        <ele>1898.9</ele>
        <time>2020-01-26T14:58:26Z</time>
      </trkpt>
      <trkpt lat="9.9102030" lon="-83.9138650">
        <ele>1898.7</ele>
        <time>2020-01-26T14:58:29Z</time>
      </trkpt>
      <trkpt lat="9.9101250" lon="-83.9138510">
        <ele>1898.7</ele>
        <time>2020-01-26T14:58:30Z</time>
      </trkpt>
      <trkpt lat="9.9099780" lon="-83.9138150">
        <ele>1898.9</ele>
        <time>2020-01-26T14:58:32Z</time>
      </trkpt>
      <trkpt lat="9.9097710" lon="-83.9137760">
        <ele>1899.2</ele>
        <time>2020-01-26T14:58:35Z</time>
      </trkpt>
      <trkpt lat="9.9095500" lon="-83.9137290">
        <ele>1899.4</ele>
        <time>2020-01-26T14:58:39Z</time>
      </trkpt>
      <trkpt lat="9.9095060" lon="-83.9137190">
        <ele>1899.4</ele>
        <time>2020-01-26T14:58:40Z</time>
      </trkpt>
      <trkpt lat="9.9094690" lon="-83.9137100">
        <ele>1899.5</ele>
        <time>2020-01-26T14:58:41Z</time>
      </trkpt>
      <trkpt lat="9.9093890" lon="-83.9136870">
        <ele>1899.5</ele>
        <time>2020-01-26T14:58:43Z</time>
      </trkpt>
      <trkpt lat="9.9092970" lon="-83.9136650">
        <ele>1899.5</ele>
        <time>2020-01-26T14:58:45Z</time>
      </trkpt>
      <trkpt lat="9.9091970" lon="-83.9136420">
        <ele>1899.5</ele>
        <time>2020-01-26T14:58:47Z</time>
      </trkpt>
      <trkpt lat="9.9090850" lon="-83.9136180">
        <ele>1899.5</ele>
        <time>2020-01-26T14:58:49Z</time>
      </trkpt>
      <trkpt lat="9.9089110" lon="-83.9135720">
        <ele>1899.4</ele>
        <time>2020-01-26T14:58:52Z</time>
      </trkpt>
      <trkpt lat="9.9087350" lon="-83.9135320">
        <ele>1899.4</ele>
        <time>2020-01-26T14:58:55Z</time>
      </trkpt>
      <trkpt lat="9.9085580" lon="-83.9134860">
        <ele>1899.3</ele>
        <time>2020-01-26T14:58:58Z</time>
      </trkpt>
      <trkpt lat="9.9083800" lon="-83.9134380">
        <ele>1898.9</ele>
        <time>2020-01-26T14:59:01Z</time>
      </trkpt>
      <trkpt lat="9.9081590" lon="-83.9133680">
        <ele>1898.1</ele>
        <time>2020-01-26T14:59:05Z</time>
      </trkpt>
      <trkpt lat="9.9081060" lon="-83.9133410">
        <ele>1897.8</ele>
        <time>2020-01-26T14:59:06Z</time>
      </trkpt>
      <trkpt lat="9.9079430" lon="-83.9132360">
        <ele>1896.7</ele>
        <time>2020-01-26T14:59:09Z</time>
      </trkpt>
      <trkpt lat="9.9077700" lon="-83.9131130">
        <ele>1895.8</ele>
        <time>2020-01-26T14:59:12Z</time>
      </trkpt>
      <trkpt lat="9.9077240" lon="-83.9130710">
        <ele>1895.6</ele>
        <time>2020-01-26T14:59:13Z</time>
      </trkpt>
      <trkpt lat="9.9075790" lon="-83.9129390">
        <ele>1894.9</ele>
        <time>2020-01-26T14:59:17Z</time>
      </trkpt>
      <trkpt lat="9.9075650" lon="-83.9128360">
        <ele>1895.7</ele>
        <time>2020-01-26T14:59:21Z</time>
      </trkpt>
      <trkpt lat="9.9075790" lon="-83.9128230">
        <ele>1896.0</ele>
        <time>2020-01-26T14:59:22Z</time>
      </trkpt>
      <trkpt lat="9.9077080" lon="-83.9128180">
        <ele>1897.7</ele>
        <time>2020-01-26T14:59:27Z</time>
      </trkpt>
      <trkpt lat="9.9077350" lon="-83.9128200">
        <ele>1898.0</ele>
        <time>2020-01-26T14:59:28Z</time>
      </trkpt>
      <trkpt lat="9.9077620" lon="-83.9128230">
        <ele>1898.3</ele>
        <time>2020-01-26T14:59:29Z</time>
      </trkpt>
      <trkpt lat="9.9078870" lon="-83.9128380">
        <ele>1899.5</ele>
        <time>2020-01-26T14:59:34Z</time>
      </trkpt>
      <trkpt lat="9.9079100" lon="-83.9128390">
        <ele>1899.7</ele>
        <time>2020-01-26T14:59:35Z</time>
      </trkpt>
      <trkpt lat="9.9079570" lon="-83.9128420">
        <ele>1900.2</ele>
        <time>2020-01-26T14:59:37Z</time>
      </trkpt>
      <trkpt lat="9.9080020" lon="-83.9128370">
        <ele>1900.6</ele>
        <time>2020-01-26T14:59:39Z</time>
      </trkpt>
      <trkpt lat="9.9080450" lon="-83.9128340">
        <ele>1901.0</ele>
        <time>2020-01-26T14:59:41Z</time>
      </trkpt>
      <trkpt lat="9.9081040" lon="-83.9128350">
        <ele>1901.5</ele>
        <time>2020-01-26T14:59:44Z</time>
      </trkpt>
      <trkpt lat="9.9082110" lon="-83.9128300">
        <ele>1902.5</ele>
        <time>2020-01-26T14:59:50Z</time>
      </trkpt>
      <trkpt lat="9.9083970" lon="-83.9128080">
        <ele>1904.5</ele>
        <time>2020-01-26T15:00:01Z</time>
      </trkpt>
      <trkpt lat="9.9084410" lon="-83.9128010">
        <ele>1905.0</ele>
        <time>2020-01-26T15:00:04Z</time>
      </trkpt>
      <trkpt lat="9.9085010" lon="-83.9127870">
        <ele>1905.7</ele>
        <time>2020-01-26T15:00:08Z</time>
      </trkpt>
      <trkpt lat="9.9086860" lon="-83.9127560">
        <ele>1907.9</ele>
        <time>2020-01-26T15:00:20Z</time>
      </trkpt>
      <trkpt lat="9.9088700" lon="-83.9127020">
        <ele>1910.8</ele>
        <time>2020-01-26T15:00:32Z</time>
      </trkpt>
      <trkpt lat="9.9089010" lon="-83.9126870">
        <ele>1911.2</ele>
        <time>2020-01-26T15:00:34Z</time>
      </trkpt>
      <trkpt lat="9.9090760" lon="-83.9126310">
        <ele>1913.8</ele>
        <time>2020-01-26T15:00:45Z</time>
      </trkpt>
      <trkpt lat="9.9092670" lon="-83.9125880">
        <ele>1916.3</ele>
        <time>2020-01-26T15:00:56Z</time>
      </trkpt>
      <trkpt lat="9.9094230" lon="-83.9125510">
        <ele>1917.5</ele>
        <time>2020-01-26T15:01:06Z</time>
      </trkpt>
      <trkpt lat="9.9094890" lon="-83.9125370">
        <ele>1917.8</ele>
        <time>2020-01-26T15:01:11Z</time>
      </trkpt>
      <trkpt lat="9.9096620" lon="-83.9124670">
        <ele>1918.6</ele>
        <time>2020-01-26T15:01:24Z</time>
      </trkpt>
      <trkpt lat="9.9096920" lon="-83.9124510">
        <ele>1918.9</ele>
        <time>2020-01-26T15:01:26Z</time>
      </trkpt>
      <trkpt lat="9.9098400" lon="-83.9123250">
        <ele>1920.5</ele>
        <time>2020-01-26T15:01:38Z</time>
      </trkpt>
      <trkpt lat="9.9099470" lon="-83.9121670">
        <ele>1922.3</ele>
        <time>2020-01-26T15:01:48Z</time>
      </trkpt>
      <trkpt lat="9.9099750" lon="-83.9119690">
        <ele>1924.2</ele>
        <time>2020-01-26T15:01:59Z</time>
      </trkpt>
      <trkpt lat="9.9099160" lon="-83.9117800">
        <ele>1926.4</ele>
        <time>2020-01-26T15:02:08Z</time>
      </trkpt>
      <trkpt lat="9.9098660" lon="-83.9116310">
        <ele>1928.5</ele>
        <time>2020-01-26T15:02:17Z</time>
      </trkpt>
      <trkpt lat="9.9098560" lon="-83.9114930">
        <ele>1930.0</ele>
        <time>2020-01-26T15:02:25Z</time>
      </trkpt>
      <trkpt lat="9.9098480" lon="-83.9113890">
        <ele>1931.1</ele>
        <time>2020-01-26T15:02:31Z</time>
      </trkpt>
      <trkpt lat="9.9098470" lon="-83.9113720">
        <ele>1931.2</ele>
        <time>2020-01-26T15:02:32Z</time>
      </trkpt>
      <trkpt lat="9.9098360" lon="-83.9112100">
        <ele>1932.7</ele>
        <time>2020-01-26T15:02:41Z</time>
      </trkpt>
      <trkpt lat="9.9098430" lon="-83.9110320">
        <ele>1934.7</ele>
        <time>2020-01-26T15:02:50Z</time>
      </trkpt>
      <trkpt lat="9.9098810" lon="-83.9108600">
        <ele>1936.5</ele>
        <time>2020-01-26T15:02:58Z</time>
      </trkpt>
      <trkpt lat="9.9098880" lon="-83.9108410">
        <ele>1936.7</ele>
        <time>2020-01-26T15:02:59Z</time>
      </trkpt>
      <trkpt lat="9.9100220" lon="-83.9107020">
        <ele>1937.9</ele>
        <time>2020-01-26T15:03:09Z</time>
      </trkpt>
      <trkpt lat="9.9102080" lon="-83.9106210">
        <ele>1938.9</ele>
        <time>2020-01-26T15:03:19Z</time>
      </trkpt>
      <trkpt lat="9.9103890" lon="-83.9105810">
        <ele>1939.7</ele>
        <time>2020-01-26T15:03:27Z</time>
      </trkpt>
      <trkpt lat="9.9105100" lon="-83.9105670">
        <ele>1940.4</ele>
        <time>2020-01-26T15:03:33Z</time>
      </trkpt>
      <trkpt lat="9.9106230" lon="-83.9105500">
        <ele>1941.3</ele>
        <time>2020-01-26T15:03:39Z</time>
      </trkpt>
      <trkpt lat="9.9108090" lon="-83.9105110">
        <ele>1942.9</ele>
        <time>2020-01-26T15:03:49Z</time>
      </trkpt>
      <trkpt lat="9.9109820" lon="-83.9104550">
        <ele>1944.7</ele>
        <time>2020-01-26T15:03:59Z</time>
      </trkpt>
      <trkpt lat="9.9111640" lon="-83.9103980">
        <ele>1946.0</ele>
        <time>2020-01-26T15:04:10Z</time>
      </trkpt>
      <trkpt lat="9.9113360" lon="-83.9103260">
        <ele>1947.1</ele>
        <time>2020-01-26T15:04:19Z</time>
      </trkpt>
      <trkpt lat="9.9114970" lon="-83.9102260">
        <ele>1947.9</ele>
        <time>2020-01-26T15:04:28Z</time>
      </trkpt>
      <trkpt lat="9.9116590" lon="-83.9101180">
        <ele>1948.8</ele>
        <time>2020-01-26T15:04:37Z</time>
      </trkpt>
      <trkpt lat="9.9118050" lon="-83.9100010">
        <ele>1950.4</ele>
        <time>2020-01-26T15:04:46Z</time>
      </trkpt>
      <trkpt lat="9.9119530" lon="-83.9098950">
        <ele>1951.5</ele>
        <time>2020-01-26T15:04:56Z</time>
      </trkpt>
      <trkpt lat="9.9119790" lon="-83.9098700">
        <ele>1951.5</ele>
        <time>2020-01-26T15:04:58Z</time>
      </trkpt>
      <trkpt lat="9.9119990" lon="-83.9098430">
        <ele>1951.6</ele>
        <time>2020-01-26T15:05:00Z</time>
      </trkpt>
      <trkpt lat="9.9120210" lon="-83.9098180">
        <ele>1951.6</ele>
        <time>2020-01-26T15:05:02Z</time>
      </trkpt>
      <trkpt lat="9.9121390" lon="-83.9096830">
        <ele>1951.8</ele>
        <time>2020-01-26T15:05:14Z</time>
      </trkpt>
      <trkpt lat="9.9121470" lon="-83.9096760">
        <ele>1951.9</ele>
        <time>2020-01-26T15:05:15Z</time>
      </trkpt>
      <trkpt lat="9.9121760" lon="-83.9096380">
        <ele>1951.9</ele>
        <time>2020-01-26T15:05:18Z</time>
      </trkpt>
      <trkpt lat="9.9121880" lon="-83.9096080">
        <ele>1952.0</ele>
        <time>2020-01-26T15:05:20Z</time>
      </trkpt>
      <trkpt lat="9.9122080" lon="-83.9095740">
        <ele>1951.8</ele>
        <time>2020-01-26T15:05:22Z</time>
      </trkpt>
      <trkpt lat="9.9122270" lon="-83.9095370">
        <ele>1951.5</ele>
        <time>2020-01-26T15:05:24Z</time>
      </trkpt>
      <trkpt lat="9.9122520" lon="-83.9095000">
        <ele>1951.2</ele>
        <time>2020-01-26T15:05:26Z</time>
      </trkpt>
      <trkpt lat="9.9123220" lon="-83.9094390">
        <ele>1950.8</ele>
        <time>2020-01-26T15:05:30Z</time>
      </trkpt>
      <trkpt lat="9.9124520" lon="-83.9092880">
        <ele>1950.2</ele>
        <time>2020-01-26T15:05:38Z</time>
      </trkpt>
      <trkpt lat="9.9125850" lon="-83.9091170">
        <ele>1949.2</ele>
        <time>2020-01-26T15:05:45Z</time>
      </trkpt>
      <trkpt lat="9.9126790" lon="-83.9089460">
        <ele>1948.4</ele>
        <time>2020-01-26T15:05:51Z</time>
      </trkpt>
      <trkpt lat="9.9127570" lon="-83.9087700">
        <ele>1947.8</ele>
        <time>2020-01-26T15:05:56Z</time>
      </trkpt>
      <trkpt lat="9.9128170" lon="-83.9085690">
        <ele>1947.3</ele>
        <time>2020-01-26T15:06:01Z</time>
      </trkpt>
      <trkpt lat="9.9128990" lon="-83.9083660">
        <ele>1947.1</ele>
        <time>2020-01-26T15:06:07Z</time>
      </trkpt>
      <trkpt lat="9.9129470" lon="-83.9082630">
        <ele>1947.1</ele>
        <time>2020-01-26T15:06:10Z</time>
      </trkpt>
      <trkpt lat="9.9130070" lon="-83.9080840">
        <ele>1947.5</ele>
        <time>2020-01-26T15:06:15Z</time>
      </trkpt>
      <trkpt lat="9.9129020" lon="-83.9079450">
        <ele>1948.0</ele>
        <time>2020-01-26T15:06:21Z</time>
      </trkpt>
      <trkpt lat="9.9128480" lon="-83.9079080">
        <ele>1948.4</ele>
        <time>2020-01-26T15:06:24Z</time>
      </trkpt>
      <trkpt lat="9.9128740" lon="-83.9077400">
        <ele>1950.1</ele>
        <time>2020-01-26T15:06:41Z</time>
      </trkpt>
      <trkpt lat="9.9129010" lon="-83.9077110">
        <ele>1950.8</ele>
        <time>2020-01-26T15:06:45Z</time>
      </trkpt>
      <trkpt lat="9.9129280" lon="-83.9076740">
        <ele>1951.7</ele>
        <time>2020-01-26T15:06:49Z</time>
      </trkpt>
      <trkpt lat="9.9129550" lon="-83.9076120">
        <ele>1953.1</ele>
        <time>2020-01-26T15:06:55Z</time>
      </trkpt>
      <trkpt lat="9.9129780" lon="-83.9075280">
        <ele>1955.0</ele>
        <time>2020-01-26T15:07:04Z</time>
      </trkpt>
      <trkpt lat="9.9129840" lon="-83.9074830">
        <ele>1956.1</ele>
        <time>2020-01-26T15:07:08Z</time>
      </trkpt>
      <trkpt lat="9.9129940" lon="-83.9074400">
        <ele>1957.1</ele>
        <time>2020-01-26T15:07:12Z</time>
      </trkpt>
      <trkpt lat="9.9130120" lon="-83.9073590">
        <ele>1959.0</ele>
        <time>2020-01-26T15:07:19Z</time>
      </trkpt>
      <trkpt lat="9.9130500" lon="-83.9072960">
        <ele>1960.5</ele>
        <time>2020-01-26T15:07:25Z</time>
      </trkpt>
      <trkpt lat="9.9130880" lon="-83.9072580">
        <ele>1961.5</ele>
        <time>2020-01-26T15:07:30Z</time>
      </trkpt>
      <trkpt lat="9.9131050" lon="-83.9072420">
        <ele>1962.0</ele>
        <time>2020-01-26T15:07:32Z</time>
      </trkpt>
      <trkpt lat="9.9131280" lon="-83.9072120">
        <ele>1962.6</ele>
        <time>2020-01-26T15:07:35Z</time>
      </trkpt>
      <trkpt lat="9.9131380" lon="-83.9072070">
        <ele>1962.8</ele>
        <time>2020-01-26T15:07:36Z</time>
      </trkpt>
      <trkpt lat="9.9131810" lon="-83.9071870">
        <ele>1963.7</ele>
        <time>2020-01-26T15:07:40Z</time>
      </trkpt>
      <trkpt lat="9.9133040" lon="-83.9071410">
        <ele>1966.0</ele>
        <time>2020-01-26T15:07:50Z</time>
      </trkpt>
      <trkpt lat="9.9133570" lon="-83.9071350">
        <ele>1966.9</ele>
        <time>2020-01-26T15:07:55Z</time>
      </trkpt>
      <trkpt lat="9.9133800" lon="-83.9071250">
        <ele>1967.3</ele>
        <time>2020-01-26T15:07:57Z</time>
      </trkpt>
      <trkpt lat="9.9134240" lon="-83.9071120">
        <ele>1968.1</ele>
        <time>2020-01-26T15:08:01Z</time>
      </trkpt>
      <trkpt lat="9.9134490" lon="-83.9071140">
        <ele>1968.5</ele>
        <time>2020-01-26T15:08:03Z</time>
      </trkpt>
      <trkpt lat="9.9136350" lon="-83.9070770">
        <ele>1972.0</ele>
        <time>2020-01-26T15:08:17Z</time>
      </trkpt>
      <trkpt lat="9.9136670" lon="-83.9070690">
        <ele>1972.6</ele>
        <time>2020-01-26T15:08:20Z</time>
      </trkpt>
      <trkpt lat="9.9136790" lon="-83.9070670">
        <ele>1972.8</ele>
        <time>2020-01-26T15:08:21Z</time>
      </trkpt>
      <trkpt lat="9.9137060" lon="-83.9070590">
        <ele>1973.3</ele>
        <time>2020-01-26T15:08:23Z</time>
      </trkpt>
      <trkpt lat="9.9138830" lon="-83.9069740">
        <ele>1975.7</ele>
        <time>2020-01-26T15:08:35Z</time>
      </trkpt>
      <trkpt lat="9.9140080" lon="-83.9069320">
        <ele>1977.3</ele>
        <time>2020-01-26T15:08:45Z</time>
      </trkpt>
      <trkpt lat="9.9141340" lon="-83.9069010">
        <ele>1979.5</ele>
        <time>2020-01-26T15:08:55Z</time>
      </trkpt>
      <trkpt lat="9.9141450" lon="-83.9068960">
        <ele>1979.7</ele>
        <time>2020-01-26T15:08:56Z</time>
      </trkpt>
      <trkpt lat="9.9141900" lon="-83.9068720">
        <ele>1980.7</ele>
        <time>2020-01-26T15:09:00Z</time>
      </trkpt>
      <trkpt lat="9.9142750" lon="-83.9068670">
        <ele>1982.3</ele>
        <time>2020-01-26T15:09:07Z</time>
      </trkpt>
      <trkpt lat="9.9144460" lon="-83.9067860">
        <ele>1985.4</ele>
        <time>2020-01-26T15:09:23Z</time>
      </trkpt>
      <trkpt lat="9.9145320" lon="-83.9067350">
        <ele>1986.6</ele>
        <time>2020-01-26T15:09:30Z</time>
      </trkpt>
      <trkpt lat="9.9145430" lon="-83.9067250">
        <ele>1986.7</ele>
        <time>2020-01-26T15:09:31Z</time>
      </trkpt>
      <trkpt lat="9.9146450" lon="-83.9066890">
        <ele>1987.9</ele>
        <time>2020-01-26T15:09:37Z</time>
      </trkpt>
      <trkpt lat="9.9146770" lon="-83.9066740">
        <ele>1988.2</ele>
        <time>2020-01-26T15:09:39Z</time>
      </trkpt>
      <trkpt lat="9.9147540" lon="-83.9066450">
        <ele>1988.9</ele>
        <time>2020-01-26T15:09:45Z</time>
      </trkpt>
      <trkpt lat="9.9148300" lon="-83.9066130">
        <ele>1989.5</ele>
        <time>2020-01-26T15:09:51Z</time>
      </trkpt>
      <trkpt lat="9.9149960" lon="-83.9065400">
        <ele>1990.3</ele>
        <time>2020-01-26T15:10:02Z</time>
      </trkpt>
      <trkpt lat="9.9150930" lon="-83.9065040">
        <ele>1990.4</ele>
        <time>2020-01-26T15:10:05Z</time>
      </trkpt>
      <trkpt lat="9.9151220" lon="-83.9064980">
        <ele>1990.3</ele>
        <time>2020-01-26T15:10:06Z</time>
      </trkpt>
      <trkpt lat="9.9152100" lon="-83.9064760">
        <ele>1990.2</ele>
        <time>2020-01-26T15:10:09Z</time>
      </trkpt>
      <trkpt lat="9.9153860" lon="-83.9064340">
        <ele>1989.9</ele>
        <time>2020-01-26T15:10:16Z</time>
      </trkpt>
      <trkpt lat="9.9155000" lon="-83.9063820">
        <ele>1989.9</ele>
        <time>2020-01-26T15:10:22Z</time>
      </trkpt>
      <trkpt lat="9.9156010" lon="-83.9063600">
        <ele>1990.0</ele>
        <time>2020-01-26T15:10:26Z</time>
      </trkpt>
      <trkpt lat="9.9156230" lon="-83.9063530">
        <ele>1990.1</ele>
        <time>2020-01-26T15:10:27Z</time>
      </trkpt>
      <trkpt lat="9.9156870" lon="-83.9063280">
        <ele>1990.4</ele>
        <time>2020-01-26T15:10:30Z</time>
      </trkpt>
      <trkpt lat="9.9158390" lon="-83.9062670">
        <ele>1991.7</ele>
        <time>2020-01-26T15:10:38Z</time>
      </trkpt>
      <trkpt lat="9.9158950" lon="-83.9062460">
        <ele>1992.3</ele>
        <time>2020-01-26T15:10:41Z</time>
      </trkpt>
      <trkpt lat="9.9159950" lon="-83.9061970">
        <ele>1993.4</ele>
        <time>2020-01-26T15:10:47Z</time>
      </trkpt>
      <trkpt lat="9.9160870" lon="-83.9061460">
        <ele>1994.4</ele>
        <time>2020-01-26T15:10:52Z</time>
      </trkpt>
      <trkpt lat="9.9161490" lon="-83.9061220">
        <ele>1995.1</ele>
        <time>2020-01-26T15:10:55Z</time>
      </trkpt>
      <trkpt lat="9.9163290" lon="-83.9060530">
        <ele>1996.5</ele>
        <time>2020-01-26T15:11:03Z</time>
      </trkpt>
      <trkpt lat="9.9165250" lon="-83.9060030">
        <ele>1997.2</ele>
        <time>2020-01-26T15:11:12Z</time>
      </trkpt>
      <trkpt lat="9.9166310" lon="-83.9059510">
        <ele>1997.3</ele>
        <time>2020-01-26T15:11:34Z</time>
      </trkpt>
      <trkpt lat="9.9166260" lon="-83.9059500">
        <ele>1997.3</ele>
        <time>2020-01-26T15:11:38Z</time>
      </trkpt>
      <trkpt lat="9.9166180" lon="-83.9059480">
        <ele>1997.3</ele>
        <time>2020-01-26T15:11:44Z</time>
      </trkpt>
      <trkpt lat="9.9166170" lon="-83.9059470">
        <ele>1997.3</ele>
        <time>2020-01-26T15:12:04Z</time>
      </trkpt>
      <trkpt lat="9.9166110" lon="-83.9059500">
        <ele>1997.3</ele>
        <time>2020-01-26T15:12:20Z</time>
      </trkpt>
      <trkpt lat="9.9166070" lon="-83.9059510">
        <ele>1997.3</ele>
        <time>2020-01-26T15:12:28Z</time>
      </trkpt>
      <trkpt lat="9.9166100" lon="-83.9059450">
        <ele>1997.3</ele>
        <time>2020-01-26T15:12:33Z</time>
      </trkpt>
      <trkpt lat="9.9166150" lon="-83.9059540">
        <ele>1997.3</ele>
        <time>2020-01-26T15:12:37Z</time>
      </trkpt>
      <trkpt lat="9.9165950" lon="-83.9059740">
        <ele>1997.4</ele>
        <time>2020-01-26T15:12:46Z</time>
      </trkpt>
      <trkpt lat="9.9165930" lon="-83.9059820">
        <ele>1997.4</ele>
        <time>2020-01-26T15:12:53Z</time>
      </trkpt>
      <trkpt lat="9.9165600" lon="-83.9059620">
        <ele>1997.5</ele>
        <time>2020-01-26T15:13:07Z</time>
      </trkpt>
      <trkpt lat="9.9165550" lon="-83.9059770">
        <ele>1997.6</ele>
        <time>2020-01-26T15:13:18Z</time>
      </trkpt>
      <trkpt lat="9.9165610" lon="-83.9059850">
        <ele>1997.7</ele>
        <time>2020-01-26T15:13:29Z</time>
      </trkpt>
      <trkpt lat="9.9165640" lon="-83.9059890">
        <ele>1997.7</ele>
        <time>2020-01-26T15:13:33Z</time>
      </trkpt>
      <trkpt lat="9.9165760" lon="-83.9059870">
        <ele>1997.8</ele>
        <time>2020-01-26T15:13:38Z</time>
      </trkpt>
      <trkpt lat="9.9165990" lon="-83.9059780">
        <ele>1998.0</ele>
        <time>2020-01-26T15:13:40Z</time>
      </trkpt>
      <trkpt lat="9.9167210" lon="-83.9059050">
        <ele>1999.6</ele>
        <time>2020-01-26T15:13:49Z</time>
      </trkpt>
      <trkpt lat="9.9167530" lon="-83.9058910">
        <ele>2000.2</ele>
        <time>2020-01-26T15:13:51Z</time>
      </trkpt>
      <trkpt lat="9.9167690" lon="-83.9058830">
        <ele>2000.4</ele>
        <time>2020-01-26T15:13:52Z</time>
      </trkpt>
      <trkpt lat="9.9167960" lon="-83.9058680">
        <ele>2001.0</ele>
        <time>2020-01-26T15:13:54Z</time>
      </trkpt>
      <trkpt lat="9.9168250" lon="-83.9058440">
        <ele>2001.6</ele>
        <time>2020-01-26T15:13:56Z</time>
      </trkpt>
      <trkpt lat="9.9168450" lon="-83.9058160">
        <ele>2002.2</ele>
        <time>2020-01-26T15:13:58Z</time>
      </trkpt>
      <trkpt lat="9.9168890" lon="-83.9057800">
        <ele>2003.2</ele>
        <time>2020-01-26T15:14:02Z</time>
      </trkpt>
      <trkpt lat="9.9170360" lon="-83.9056530">
        <ele>2006.9</ele>
        <time>2020-01-26T15:14:15Z</time>
      </trkpt>
      <trkpt lat="9.9170710" lon="-83.9056270">
        <ele>2007.9</ele>
        <time>2020-01-26T15:14:18Z</time>
      </trkpt>
      <trkpt lat="9.9171270" lon="-83.9055790">
        <ele>2009.7</ele>
        <time>2020-01-26T15:14:24Z</time>
      </trkpt>
      <trkpt lat="9.9171390" lon="-83.9055750">
        <ele>2010.0</ele>
        <time>2020-01-26T15:14:25Z</time>
      </trkpt>
      <trkpt lat="9.9171790" lon="-83.9055520">
        <ele>2011.0</ele>
        <time>2020-01-26T15:14:29Z</time>
      </trkpt>
      <trkpt lat="9.9172350" lon="-83.9055160">
        <ele>2012.4</ele>
        <time>2020-01-26T15:14:35Z</time>
      </trkpt>
      <trkpt lat="9.9172980" lon="-83.9054930">
        <ele>2013.7</ele>
        <time>2020-01-26T15:14:42Z</time>
      </trkpt>
      <trkpt lat="9.9173760" lon="-83.9054760">
        <ele>2015.2</ele>
        <time>2020-01-26T15:14:48Z</time>
      </trkpt>
      <trkpt lat="9.9174360" lon="-83.9054580">
        <ele>2016.2</ele>
        <time>2020-01-26T15:14:53Z</time>
      </trkpt>
      <trkpt lat="9.9174740" lon="-83.9054490">
        <ele>2016.8</ele>
        <time>2020-01-26T15:14:57Z</time>
      </trkpt>
      <trkpt lat="9.9175070" lon="-83.9054430">
        <ele>2017.4</ele>
        <time>2020-01-26T15:15:00Z</time>
      </trkpt>
      <trkpt lat="9.9175290" lon="-83.9054380">
        <ele>2017.8</ele>
        <time>2020-01-26T15:15:02Z</time>
      </trkpt>
      <trkpt lat="9.9175510" lon="-83.9054310">
        <ele>2018.2</ele>
        <time>2020-01-26T15:15:04Z</time>
      </trkpt>
      <trkpt lat="9.9175700" lon="-83.9054230">
        <ele>2018.6</ele>
        <time>2020-01-26T15:15:06Z</time>
      </trkpt>
      <trkpt lat="9.9175790" lon="-83.9054170">
        <ele>2018.8</ele>
        <time>2020-01-26T15:15:07Z</time>
      </trkpt>
      <trkpt lat="9.9176100" lon="-83.9054030">
        <ele>2019.4</ele>
        <time>2020-01-26T15:15:10Z</time>
      </trkpt>
      <trkpt lat="9.9177340" lon="-83.9053530">
        <ele>2021.4</ele>
        <time>2020-01-26T15:15:22Z</time>
      </trkpt>
      <trkpt lat="9.9177770" lon="-83.9053310">
        <ele>2022.0</ele>
        <time>2020-01-26T15:15:26Z</time>
      </trkpt>
      <trkpt lat="9.9178310" lon="-83.9052900">
        <ele>2023.0</ele>
        <time>2020-01-26T15:15:31Z</time>
      </trkpt>
      <trkpt lat="9.9178520" lon="-83.9052810">
        <ele>2023.4</ele>
        <time>2020-01-26T15:15:33Z</time>
      </trkpt>
      <trkpt lat="9.9179870" lon="-83.9051910">
        <ele>2026.3</ele>
        <time>2020-01-26T15:15:46Z</time>
      </trkpt>
      <trkpt lat="9.9180000" lon="-83.9051850">
        <ele>2026.6</ele>
        <time>2020-01-26T15:15:47Z</time>
      </trkpt>
      <trkpt lat="9.9180350" lon="-83.9051720">
        <ele>2027.3</ele>
        <time>2020-01-26T15:15:50Z</time>
      </trkpt>
      <trkpt lat="9.9182000" lon="-83.9050950">
        <ele>2030.9</ele>
        <time>2020-01-26T15:16:04Z</time>
      </trkpt>
      <trkpt lat="9.9183760" lon="-83.9050300">
        <ele>2035.0</ele>
        <time>2020-01-26T15:16:19Z</time>
      </trkpt>
      <trkpt lat="9.9184210" lon="-83.9050190">
        <ele>2036.0</ele>
        <time>2020-01-26T15:16:23Z</time>
      </trkpt>
      <trkpt lat="9.9184810" lon="-83.9050160">
        <ele>2037.0</ele>
        <time>2020-01-26T15:16:29Z</time>
      </trkpt>
      <trkpt lat="9.9185160" lon="-83.9050090">
        <ele>2037.6</ele>
        <time>2020-01-26T15:16:32Z</time>
      </trkpt>
      <trkpt lat="9.9185810" lon="-83.9049920">
        <ele>2038.8</ele>
        <time>2020-01-26T15:16:37Z</time>
      </trkpt>
      <trkpt lat="9.9187520" lon="-83.9049330">
        <ele>2041.2</ele>
        <time>2020-01-26T15:16:50Z</time>
      </trkpt>
      <trkpt lat="9.9187870" lon="-83.9049230">
        <ele>2041.6</ele>
        <time>2020-01-26T15:16:53Z</time>
      </trkpt>
      <trkpt lat="9.9188510" lon="-83.9048970">
        <ele>2042.4</ele>
        <time>2020-01-26T15:16:58Z</time>
      </trkpt>
      <trkpt lat="9.9189070" lon="-83.9048600">
        <ele>2043.1</ele>
        <time>2020-01-26T15:17:03Z</time>
      </trkpt>
      <trkpt lat="9.9189870" lon="-83.9048110">
        <ele>2044.1</ele>
        <time>2020-01-26T15:17:10Z</time>
      </trkpt>
      <trkpt lat="9.9191340" lon="-83.9047020">
        <ele>2046.1</ele>
        <time>2020-01-26T15:17:21Z</time>
      </trkpt>
      <trkpt lat="9.9192600" lon="-83.9045790">
        <ele>2048.0</ele>
        <time>2020-01-26T15:17:33Z</time>
      </trkpt>
      <trkpt lat="9.9192950" lon="-83.9045250">
        <ele>2048.6</ele>
        <time>2020-01-26T15:17:37Z</time>
      </trkpt>
      <trkpt lat="9.9193390" lon="-83.9044590">
        <ele>2049.2</ele>
        <time>2020-01-26T15:17:43Z</time>
      </trkpt>
      <trkpt lat="9.9194270" lon="-83.9043570">
        <ele>2050.4</ele>
        <time>2020-01-26T15:17:53Z</time>
      </trkpt>
      <trkpt lat="9.9195430" lon="-83.9042020">
        <ele>2052.7</ele>
        <time>2020-01-26T15:18:08Z</time>
      </trkpt>
      <trkpt lat="9.9196040" lon="-83.9041330">
        <ele>2053.9</ele>
        <time>2020-01-26T15:18:15Z</time>
      </trkpt>
      <trkpt lat="9.9196850" lon="-83.9039890">
        <ele>2056.7</ele>
        <time>2020-01-26T15:18:27Z</time>
      </trkpt>
      <trkpt lat="9.9197100" lon="-83.9039390">
        <ele>2057.6</ele>
        <time>2020-01-26T15:18:31Z</time>
      </trkpt>
      <trkpt lat="9.9198040" lon="-83.9037760">
        <ele>2060.6</ele>
        <time>2020-01-26T15:18:46Z</time>
      </trkpt>
      <trkpt lat="9.9199210" lon="-83.9036240">
        <ele>2063.7</ele>
        <time>2020-01-26T15:19:02Z</time>
      </trkpt>
      <trkpt lat="9.9200220" lon="-83.9034620">
        <ele>2067.0</ele>
        <time>2020-01-26T15:19:19Z</time>
      </trkpt>
      <trkpt lat="9.9200480" lon="-83.9033980">
        <ele>2068.1</ele>
        <time>2020-01-26T15:19:25Z</time>
      </trkpt>
      <trkpt lat="9.9201820" lon="-83.9032860">
        <ele>2071.4</ele>
        <time>2020-01-26T15:19:41Z</time>
      </trkpt>
      <trkpt lat="9.9202450" lon="-83.9032620">
        <ele>2072.4</ele>
        <time>2020-01-26T15:19:46Z</time>
      </trkpt>
      <trkpt lat="9.9204310" lon="-83.9032430">
        <ele>2074.8</ele>
        <time>2020-01-26T15:19:59Z</time>
      </trkpt>
      <trkpt lat="9.9205700" lon="-83.9032380">
        <ele>2076.1</ele>
        <time>2020-01-26T15:20:07Z</time>
      </trkpt>
      <trkpt lat="9.9206310" lon="-83.9032370">
        <ele>2076.7</ele>
        <time>2020-01-26T15:20:11Z</time>
      </trkpt>
      <trkpt lat="9.9206880" lon="-83.9032180">
        <ele>2077.4</ele>
        <time>2020-01-26T15:20:15Z</time>
      </trkpt>
      <trkpt lat="9.9207520" lon="-83.9032100">
        <ele>2078.3</ele>
        <time>2020-01-26T15:20:20Z</time>
      </trkpt>
      <trkpt lat="9.9207950" lon="-83.9032100">
        <ele>2078.9</ele>
        <time>2020-01-26T15:20:23Z</time>
      </trkpt>
      <trkpt lat="9.9209100" lon="-83.9032040">
        <ele>2080.3</ele>
        <time>2020-01-26T15:20:31Z</time>
      </trkpt>
      <trkpt lat="9.9210910" lon="-83.9032030">
        <ele>2082.6</ele>
        <time>2020-01-26T15:20:44Z</time>
      </trkpt>
      <trkpt lat="9.9212160" lon="-83.9031910">
        <ele>2083.9</ele>
        <time>2020-01-26T15:20:52Z</time>
      </trkpt>
      <trkpt lat="9.9214060" lon="-83.9031530">
        <ele>2084.8</ele>
        <time>2020-01-26T15:21:03Z</time>
      </trkpt>
      <trkpt lat="9.9215930" lon="-83.9031470">
        <ele>2085.2</ele>
        <time>2020-01-26T15:21:13Z</time>
      </trkpt>
      <trkpt lat="9.9217880" lon="-83.9031350">
        <ele>2085.2</ele>
        <time>2020-01-26T15:21:24Z</time>
      </trkpt>
      <trkpt lat="9.9219780" lon="-83.9031410">
        <ele>2086.0</ele>
        <time>2020-01-26T15:21:35Z</time>
      </trkpt>
      <trkpt lat="9.9220590" lon="-83.9031490">
        <ele>2086.7</ele>
        <time>2020-01-26T15:21:40Z</time>
      </trkpt>
      <trkpt lat="9.9222540" lon="-83.9031700">
        <ele>2088.1</ele>
        <time>2020-01-26T15:21:52Z</time>
      </trkpt>
      <trkpt lat="9.9223270" lon="-83.9031680">
        <ele>2088.5</ele>
        <time>2020-01-26T15:21:57Z</time>
      </trkpt>
      <trkpt lat="9.9223580" lon="-83.9031680">
        <ele>2088.7</ele>
        <time>2020-01-26T15:21:59Z</time>
      </trkpt>
      <trkpt lat="9.9223910" lon="-83.9031650">
        <ele>2089.0</ele>
        <time>2020-01-26T15:22:01Z</time>
      </trkpt>
      <trkpt lat="9.9224620" lon="-83.9031650">
        <ele>2089.6</ele>
        <time>2020-01-26T15:22:07Z</time>
      </trkpt>
      <trkpt lat="9.9224750" lon="-83.9031630">
        <ele>2089.7</ele>
        <time>2020-01-26T15:22:08Z</time>
      </trkpt>
      <trkpt lat="9.9226430" lon="-83.9032100">
        <ele>2091.7</ele>
        <time>2020-01-26T15:22:22Z</time>
      </trkpt>
      <trkpt lat="9.9226890" lon="-83.9032160">
        <ele>2092.5</ele>
        <time>2020-01-26T15:22:26Z</time>
      </trkpt>
      <trkpt lat="9.9228460" lon="-83.9032240">
        <ele>2095.2</ele>
        <time>2020-01-26T15:22:41Z</time>
      </trkpt>
      <trkpt lat="9.9229180" lon="-83.9032290">
        <ele>2096.6</ele>
        <time>2020-01-26T15:22:47Z</time>
      </trkpt>
      <trkpt lat="9.9230700" lon="-83.9032690">
        <ele>2099.2</ele>
        <time>2020-01-26T15:23:03Z</time>
      </trkpt>
      <trkpt lat="9.9232620" lon="-83.9033030">
        <ele>2102.4</ele>
        <time>2020-01-26T15:23:18Z</time>
      </trkpt>
      <trkpt lat="9.9233090" lon="-83.9033040">
        <ele>2103.1</ele>
        <time>2020-01-26T15:23:21Z</time>
      </trkpt>
      <trkpt lat="9.9233560" lon="-83.9033000">
        <ele>2103.8</ele>
        <time>2020-01-26T15:23:24Z</time>
      </trkpt>
      <trkpt lat="9.9234910" lon="-83.9032490">
        <ele>2106.4</ele>
        <time>2020-01-26T15:23:34Z</time>
      </trkpt>
      <trkpt lat="9.9235890" lon="-83.9032140">
        <ele>2108.1</ele>
        <time>2020-01-26T15:23:42Z</time>
      </trkpt>
      <trkpt lat="9.9237060" lon="-83.9031850">
        <ele>2109.5</ele>
        <time>2020-01-26T15:23:51Z</time>
      </trkpt>
      <trkpt lat="9.9238800" lon="-83.9031130">
        <ele>2111.0</ele>
        <time>2020-01-26T15:24:07Z</time>
      </trkpt>
      <trkpt lat="9.9240640" lon="-83.9030490">
        <ele>2112.5</ele>
        <time>2020-01-26T15:24:18Z</time>
      </trkpt>
      <trkpt lat="9.9241110" lon="-83.9030510">
        <ele>2112.9</ele>
        <time>2020-01-26T15:24:21Z</time>
      </trkpt>
      <trkpt lat="9.9241870" lon="-83.9030620">
        <ele>2113.7</ele>
        <time>2020-01-26T15:24:27Z</time>
      </trkpt>
      <trkpt lat="9.9243810" lon="-83.9030690">
        <ele>2116.1</ele>
        <time>2020-01-26T15:24:35Z</time>
      </trkpt>
      <trkpt lat="9.9244510" lon="-83.9030460">
        <ele>2117.0</ele>
        <time>2020-01-26T15:24:41Z</time>
      </trkpt>
      <trkpt lat="9.9244590" lon="-83.9030440">
        <ele>2117.2</ele>
        <time>2020-01-26T15:24:42Z</time>
      </trkpt>
      <trkpt lat="9.9246030" lon="-83.9030120">
        <ele>2119.1</ele>
        <time>2020-01-26T15:24:53Z</time>
      </trkpt>
      <trkpt lat="9.9246900" lon="-83.9029770">
        <ele>2120.3</ele>
        <time>2020-01-26T15:24:59Z</time>
      </trkpt>
      <trkpt lat="9.9247380" lon="-83.9029680">
        <ele>2121.0</ele>
        <time>2020-01-26T15:25:03Z</time>
      </trkpt>
      <trkpt lat="9.9248240" lon="-83.9028970">
        <ele>2122.3</ele>
        <time>2020-01-26T15:25:13Z</time>
      </trkpt>
      <trkpt lat="9.9248510" lon="-83.9028720">
        <ele>2122.8</ele>
        <time>2020-01-26T15:25:16Z</time>
      </trkpt>
      <trkpt lat="9.9249070" lon="-83.9028430">
        <ele>2123.7</ele>
        <time>2020-01-26T15:25:21Z</time>
      </trkpt>
      <trkpt lat="9.9249950" lon="-83.9027820">
        <ele>2125.2</ele>
        <time>2020-01-26T15:25:29Z</time>
      </trkpt>
      <trkpt lat="9.9251500" lon="-83.9026770">
        <ele>2127.8</ele>
        <time>2020-01-26T15:25:44Z</time>
      </trkpt>
      <trkpt lat="9.9253160" lon="-83.9025860">
        <ele>2130.7</ele>
        <time>2020-01-26T15:25:59Z</time>
      </trkpt>
      <trkpt lat="9.9254370" lon="-83.9025190">
        <ele>2132.6</ele>
        <time>2020-01-26T15:26:07Z</time>
      </trkpt>
      <trkpt lat="9.9255650" lon="-83.9024360">
        <ele>2134.3</ele>
        <time>2020-01-26T15:26:24Z</time>
      </trkpt>
      <trkpt lat="9.9255240" lon="-83.9024190">
        <ele>2134.8</ele>
        <time>2020-01-26T15:26:36Z</time>
      </trkpt>
      <trkpt lat="9.9255260" lon="-83.9024150">
        <ele>2134.8</ele>
        <time>2020-01-26T15:26:42Z</time>
      </trkpt>
      <trkpt lat="9.9255190" lon="-83.9024050">
        <ele>2135.0</ele>
        <time>2020-01-26T15:26:49Z</time>
      </trkpt>
      <trkpt lat="9.9254920" lon="-83.9024170">
        <ele>2135.3</ele>
        <time>2020-01-26T15:26:56Z</time>
      </trkpt>
      <trkpt lat="9.9255000" lon="-83.9024130">
        <ele>2135.4</ele>
        <time>2020-01-26T15:27:00Z</time>
      </trkpt>
      <trkpt lat="9.9255850" lon="-83.9024240">
        <ele>2136.4</ele>
        <time>2020-01-26T15:27:08Z</time>
      </trkpt>
      <trkpt lat="9.9255830" lon="-83.9024240">
        <ele>2136.4</ele>
        <time>2020-01-26T15:27:11Z</time>
      </trkpt>
      <trkpt lat="9.9255890" lon="-83.9024110">
        <ele>2136.6</ele>
        <time>2020-01-26T15:27:18Z</time>
      </trkpt>
      <trkpt lat="9.9256000" lon="-83.9024070">
        <ele>2136.7</ele>
        <time>2020-01-26T15:27:20Z</time>
      </trkpt>
      <trkpt lat="9.9256240" lon="-83.9023880">
        <ele>2137.2</ele>
        <time>2020-01-26T15:27:26Z</time>
      </trkpt>
      <trkpt lat="9.9256130" lon="-83.9023800">
        <ele>2137.2</ele>
        <time>2020-01-26T15:27:33Z</time>
      </trkpt>
      <trkpt lat="9.9256130" lon="-83.9023800">
        <ele>2137.2</ele>
        <time>2020-01-26T15:27:34Z</time>
      </trkpt>
      <trkpt lat="9.9256110" lon="-83.9023800">
        <ele>2137.2</ele>
        <time>2020-01-26T15:27:36Z</time>
      </trkpt>
      <trkpt lat="9.9256100" lon="-83.9023820">
        <ele>2137.2</ele>
        <time>2020-01-26T15:27:38Z</time>
      </trkpt>
      <trkpt lat="9.9255980" lon="-83.9023990">
        <ele>2137.2</ele>
        <time>2020-01-26T15:27:49Z</time>
      </trkpt>
      <trkpt lat="9.9255950" lon="-83.9023980">
        <ele>2137.2</ele>
        <time>2020-01-26T15:27:50Z</time>
      </trkpt>
      <trkpt lat="9.9255920" lon="-83.9024030">
        <ele>2136.6</ele>
        <time>2020-01-26T15:27:51Z</time>
      </trkpt>
      <trkpt lat="9.9255860" lon="-83.9024090">
        <ele>2136.6</ele>
        <time>2020-01-26T15:27:52Z</time>
      </trkpt>
      <trkpt lat="9.9255840" lon="-83.9024110">
        <ele>2136.6</ele>
        <time>2020-01-26T15:27:53Z</time>
      </trkpt>
      <trkpt lat="9.9255810" lon="-83.9024120">
        <ele>2136.6</ele>
        <time>2020-01-26T15:27:55Z</time>
      </trkpt>
      <trkpt lat="9.9255870" lon="-83.9024160">
        <ele>2136.6</ele>
        <time>2020-01-26T15:27:58Z</time>
      </trkpt>
      <trkpt lat="9.9255680" lon="-83.9024190">
        <ele>2136.5</ele>
        <time>2020-01-26T15:28:01Z</time>
      </trkpt>
      <trkpt lat="9.9255800" lon="-83.9024080">
        <ele>2136.5</ele>
        <time>2020-01-26T15:28:10Z</time>
      </trkpt>
      <trkpt lat="9.9255930" lon="-83.9023850">
        <ele>2137.2</ele>
        <time>2020-01-26T15:28:16Z</time>
      </trkpt>
      <trkpt lat="9.9255930" lon="-83.9023840">
        <ele>2137.2</ele>
        <time>2020-01-26T15:28:17Z</time>
      </trkpt>
      <trkpt lat="9.9255920" lon="-83.9023830">
        <ele>2137.2</ele>
        <time>2020-01-26T15:28:19Z</time>
      </trkpt>
      <trkpt lat="9.9256040" lon="-83.9023600">
        <ele>2137.1</ele>
        <time>2020-01-26T15:28:30Z</time>
      </trkpt>
      <trkpt lat="9.9256110" lon="-83.9023540">
        <ele>2137.0</ele>
        <time>2020-01-26T15:28:40Z</time>
      </trkpt>
      <trkpt lat="9.9256200" lon="-83.9023570">
        <ele>2137.0</ele>
        <time>2020-01-26T15:28:51Z</time>
      </trkpt>
      <trkpt lat="9.9256190" lon="-83.9023670">
        <ele>2136.9</ele>
        <time>2020-01-26T15:28:57Z</time>
      </trkpt>
      <trkpt lat="9.9255700" lon="-83.9023550">
        <ele>2136.6</ele>
        <time>2020-01-26T15:29:11Z</time>
      </trkpt>
      <trkpt lat="9.9255130" lon="-83.9022690">
        <ele>2135.8</ele>
        <time>2020-01-26T15:29:19Z</time>
      </trkpt>
      <trkpt lat="9.9255080" lon="-83.9022520">
        <ele>2135.6</ele>
        <time>2020-01-26T15:29:20Z</time>
      </trkpt>
      <trkpt lat="9.9254960" lon="-83.9021550">
        <ele>2134.0</ele>
        <time>2020-01-26T15:29:25Z</time>
      </trkpt>
      <trkpt lat="9.9255000" lon="-83.9021310">
        <ele>2133.6</ele>
        <time>2020-01-26T15:29:26Z</time>
      </trkpt>
      <trkpt lat="9.9255070" lon="-83.9020990">
        <ele>2133.0</ele>
        <time>2020-01-26T15:29:27Z</time>
      </trkpt>
      <trkpt lat="9.9255220" lon="-83.9020580">
        <ele>2132.1</ele>
        <time>2020-01-26T15:29:28Z</time>
      </trkpt>
      <trkpt lat="9.9255760" lon="-83.9019500">
        <ele>2129.7</ele>
        <time>2020-01-26T15:29:30Z</time>
      </trkpt>
      <trkpt lat="9.9256620" lon="-83.9018190">
        <ele>2126.7</ele>
        <time>2020-01-26T15:29:32Z</time>
      </trkpt>
      <trkpt lat="9.9257140" lon="-83.9017510">
        <ele>2125.0</ele>
        <time>2020-01-26T15:29:33Z</time>
      </trkpt>
      <trkpt lat="9.9257600" lon="-83.9016830">
        <ele>2123.5</ele>
        <time>2020-01-26T15:29:34Z</time>
      </trkpt>
      <trkpt lat="9.9258380" lon="-83.9014240">
        <ele>2119.1</ele>
        <time>2020-01-26T15:29:37Z</time>
      </trkpt>
      <trkpt lat="9.9258570" lon="-83.9013230">
        <ele>2117.6</ele>
        <time>2020-01-26T15:29:38Z</time>
      </trkpt>
      <trkpt lat="9.9258770" lon="-83.9012130">
        <ele>2116.1</ele>
        <time>2020-01-26T15:29:39Z</time>
      </trkpt>
      <trkpt lat="9.9259020" lon="-83.9010950">
        <ele>2114.6</ele>
        <time>2020-01-26T15:29:40Z</time>
      </trkpt>
      <trkpt lat="9.9259490" lon="-83.9008640">
        <ele>2112.3</ele>
        <time>2020-01-26T15:29:42Z</time>
      </trkpt>
      <trkpt lat="9.9259720" lon="-83.9007510">
        <ele>2111.4</ele>
        <time>2020-01-26T15:29:43Z</time>
      </trkpt>
      <trkpt lat="9.9260090" lon="-83.9005450">
        <ele>2109.5</ele>
        <time>2020-01-26T15:29:45Z</time>
      </trkpt>
      <trkpt lat="9.9260470" lon="-83.9003640">
        <ele>2106.9</ele>
        <time>2020-01-26T15:29:47Z</time>
      </trkpt>
      <trkpt lat="9.9260930" lon="-83.9001310">
        <ele>2103.5</ele>
        <time>2020-01-26T15:29:50Z</time>
      </trkpt>
      <trkpt lat="9.9261120" lon="-83.8999550">
        <ele>2100.9</ele>
        <time>2020-01-26T15:29:53Z</time>
      </trkpt>
      <trkpt lat="9.9260000" lon="-83.8998250">
        <ele>2097.9</ele>
        <time>2020-01-26T15:29:57Z</time>
      </trkpt>
      <trkpt lat="9.9257880" lon="-83.8998080">
        <ele>2093.7</ele>
        <time>2020-01-26T15:30:00Z</time>
      </trkpt>
      <trkpt lat="9.9257100" lon="-83.8998100">
        <ele>2092.3</ele>
        <time>2020-01-26T15:30:01Z</time>
      </trkpt>
      <trkpt lat="9.9256410" lon="-83.8998110">
        <ele>2091.2</ele>
        <time>2020-01-26T15:30:02Z</time>
      </trkpt>
      <trkpt lat="9.9255350" lon="-83.8998240">
        <ele>2089.2</ele>
        <time>2020-01-26T15:30:04Z</time>
      </trkpt>
      <trkpt lat="9.9253780" lon="-83.8998800">
        <ele>2085.7</ele>
        <time>2020-01-26T15:30:07Z</time>
      </trkpt>
      <trkpt lat="9.9251560" lon="-83.8999610">
        <ele>2080.9</ele>
        <time>2020-01-26T15:30:10Z</time>
      </trkpt>
      <trkpt lat="9.9250060" lon="-83.9000290">
        <ele>2077.1</ele>
        <time>2020-01-26T15:30:12Z</time>
      </trkpt>
      <trkpt lat="9.9247820" lon="-83.9001150">
        <ele>2071.3</ele>
        <time>2020-01-26T15:30:15Z</time>
      </trkpt>
      <trkpt lat="9.9247090" lon="-83.9001440">
        <ele>2069.2</ele>
        <time>2020-01-26T15:30:16Z</time>
      </trkpt>
      <trkpt lat="9.9246390" lon="-83.9001830">
        <ele>2067.3</ele>
        <time>2020-01-26T15:30:17Z</time>
      </trkpt>
      <trkpt lat="9.9245000" lon="-83.9003030">
        <ele>2063.7</ele>
        <time>2020-01-26T15:30:19Z</time>
      </trkpt>
      <trkpt lat="9.9243650" lon="-83.9004800">
        <ele>2060.6</ele>
        <time>2020-01-26T15:30:21Z</time>
      </trkpt>
      <trkpt lat="9.9242220" lon="-83.9006620">
        <ele>2057.5</ele>
        <time>2020-01-26T15:30:23Z</time>
      </trkpt>
      <trkpt lat="9.9240970" lon="-83.9008090">
        <ele>2054.9</ele>
        <time>2020-01-26T15:30:25Z</time>
      </trkpt>
      <trkpt lat="9.9239370" lon="-83.9009760">
        <ele>2051.2</ele>
        <time>2020-01-26T15:30:28Z</time>
      </trkpt>
      <trkpt lat="9.9238930" lon="-83.9010150">
        <ele>2050.2</ele>
        <time>2020-01-26T15:30:29Z</time>
      </trkpt>
      <trkpt lat="9.9237520" lon="-83.9009950">
        <ele>2047.7</ele>
        <time>2020-01-26T15:30:33Z</time>
      </trkpt>
      <trkpt lat="9.9237120" lon="-83.9008020">
        <ele>2044.3</ele>
        <time>2020-01-26T15:30:36Z</time>
      </trkpt>
      <trkpt lat="9.9237080" lon="-83.9007310">
        <ele>2043.0</ele>
        <time>2020-01-26T15:30:37Z</time>
      </trkpt>
      <trkpt lat="9.9237060" lon="-83.9006730">
        <ele>2042.1</ele>
        <time>2020-01-26T15:30:38Z</time>
      </trkpt>
      <trkpt lat="9.9237040" lon="-83.9006290">
        <ele>2041.3</ele>
        <time>2020-01-26T15:30:39Z</time>
      </trkpt>
      <trkpt lat="9.9236850" lon="-83.9006100">
        <ele>2040.9</ele>
        <time>2020-01-26T15:30:40Z</time>
      </trkpt>
      <trkpt lat="9.9235420" lon="-83.9006940">
        <ele>2037.9</ele>
        <time>2020-01-26T15:30:44Z</time>
      </trkpt>
      <trkpt lat="9.9234980" lon="-83.9007600">
        <ele>2036.5</ele>
        <time>2020-01-26T15:30:45Z</time>
      </trkpt>
      <trkpt lat="9.9233960" lon="-83.9009020">
        <ele>2033.0</ele>
        <time>2020-01-26T15:30:47Z</time>
      </trkpt>
      <trkpt lat="9.9232520" lon="-83.9010120">
        <ele>2029.4</ele>
        <time>2020-01-26T15:30:49Z</time>
      </trkpt>
      <trkpt lat="9.9230850" lon="-83.9011020">
        <ele>2026.6</ele>
        <time>2020-01-26T15:30:51Z</time>
      </trkpt>
      <trkpt lat="9.9229990" lon="-83.9011420">
        <ele>2025.9</ele>
        <time>2020-01-26T15:30:52Z</time>
      </trkpt>
      <trkpt lat="9.9227750" lon="-83.9012450">
        <ele>2026.7</ele>
        <time>2020-01-26T15:30:55Z</time>
      </trkpt>
      <trkpt lat="9.9227260" lon="-83.9012620">
        <ele>2027.2</ele>
        <time>2020-01-26T15:30:56Z</time>
      </trkpt>
      <trkpt lat="9.9226060" lon="-83.9012410">
        <ele>2028.5</ele>
        <time>2020-01-26T15:31:01Z</time>
      </trkpt>
      <trkpt lat="9.9225880" lon="-83.9012320">
        <ele>2028.8</ele>
        <time>2020-01-26T15:31:02Z</time>
      </trkpt>
      <trkpt lat="9.9225570" lon="-83.9012160">
        <ele>2029.4</ele>
        <time>2020-01-26T15:31:04Z</time>
      </trkpt>
      <trkpt lat="9.9225050" lon="-83.9011930">
        <ele>2030.3</ele>
        <time>2020-01-26T15:31:07Z</time>
      </trkpt>
      <trkpt lat="9.9224770" lon="-83.9011720">
        <ele>2030.9</ele>
        <time>2020-01-26T15:31:09Z</time>
      </trkpt>
      <trkpt lat="9.9224320" lon="-83.9011490">
        <ele>2031.8</ele>
        <time>2020-01-26T15:31:12Z</time>
      </trkpt>
      <trkpt lat="9.9223430" lon="-83.9011000">
        <ele>2033.5</ele>
        <time>2020-01-26T15:31:18Z</time>
      </trkpt>
      <trkpt lat="9.9222640" lon="-83.9010500">
        <ele>2035.0</ele>
        <time>2020-01-26T15:31:24Z</time>
      </trkpt>
      <trkpt lat="9.9222310" lon="-83.9009850">
        <ele>2036.4</ele>
        <time>2020-01-26T15:31:29Z</time>
      </trkpt>
      <trkpt lat="9.9221610" lon="-83.9008140">
        <ele>2039.5</ele>
        <time>2020-01-26T15:31:44Z</time>
      </trkpt>
      <trkpt lat="9.9221190" lon="-83.9007410">
        <ele>2040.6</ele>
        <time>2020-01-26T15:31:50Z</time>
      </trkpt>
      <trkpt lat="9.9219570" lon="-83.9006800">
        <ele>2043.6</ele>
        <time>2020-01-26T15:32:04Z</time>
      </trkpt>
      <trkpt lat="9.9217820" lon="-83.9007310">
        <ele>2046.1</ele>
        <time>2020-01-26T15:32:19Z</time>
      </trkpt>
      <trkpt lat="9.9217440" lon="-83.9007460">
        <ele>2046.8</ele>
        <time>2020-01-26T15:32:22Z</time>
      </trkpt>
      <trkpt lat="9.9217320" lon="-83.9007560">
        <ele>2047.0</ele>
        <time>2020-01-26T15:32:23Z</time>
      </trkpt>
      <trkpt lat="9.9216450" lon="-83.9007860">
        <ele>2048.6</ele>
        <time>2020-01-26T15:32:32Z</time>
      </trkpt>
      <trkpt lat="9.9214960" lon="-83.9007540">
        <ele>2050.3</ele>
        <time>2020-01-26T15:32:44Z</time>
      </trkpt>
      <trkpt lat="9.9214710" lon="-83.9007230">
        <ele>2050.8</ele>
        <time>2020-01-26T15:32:47Z</time>
      </trkpt>
      <trkpt lat="9.9214170" lon="-83.9005430">
        <ele>2052.8</ele>
        <time>2020-01-26T15:33:01Z</time>
      </trkpt>
      <trkpt lat="9.9214050" lon="-83.9004520">
        <ele>2053.8</ele>
        <time>2020-01-26T15:33:06Z</time>
      </trkpt>
      <trkpt lat="9.9213820" lon="-83.9003590">
        <ele>2054.7</ele>
        <time>2020-01-26T15:33:11Z</time>
      </trkpt>
      <trkpt lat="9.9213610" lon="-83.9003020">
        <ele>2055.4</ele>
        <time>2020-01-26T15:33:14Z</time>
      </trkpt>
      <trkpt lat="9.9213150" lon="-83.9001100">
        <ele>2058.3</ele>
        <time>2020-01-26T15:33:25Z</time>
      </trkpt>
      <trkpt lat="9.9213010" lon="-83.9000250">
        <ele>2059.5</ele>
        <time>2020-01-26T15:33:31Z</time>
      </trkpt>
      <trkpt lat="9.9212840" lon="-83.9000060">
        <ele>2059.8</ele>
        <time>2020-01-26T15:33:33Z</time>
      </trkpt>
      <trkpt lat="9.9212730" lon="-83.8999840">
        <ele>2060.2</ele>
        <time>2020-01-26T15:33:35Z</time>
      </trkpt>
      <trkpt lat="9.9212720" lon="-83.8999720">
        <ele>2060.3</ele>
        <time>2020-01-26T15:33:36Z</time>
      </trkpt>
      <trkpt lat="9.9212560" lon="-83.8999270">
        <ele>2061.0</ele>
        <time>2020-01-26T15:33:40Z</time>
      </trkpt>
      <trkpt lat="9.9212390" lon="-83.8998230">
        <ele>2062.7</ele>
        <time>2020-01-26T15:33:48Z</time>
      </trkpt>
      <trkpt lat="9.9212100" lon="-83.8996520">
        <ele>2065.5</ele>
        <time>2020-01-26T15:34:03Z</time>
      </trkpt>
      <trkpt lat="9.9212030" lon="-83.8995880">
        <ele>2066.4</ele>
        <time>2020-01-26T15:34:08Z</time>
      </trkpt>
      <trkpt lat="9.9211720" lon="-83.8994530">
        <ele>2068.5</ele>
        <time>2020-01-26T15:34:18Z</time>
      </trkpt>
      <trkpt lat="9.9211530" lon="-83.8993990">
        <ele>2069.2</ele>
        <time>2020-01-26T15:34:22Z</time>
      </trkpt>
      <trkpt lat="9.9211490" lon="-83.8993870">
        <ele>2069.4</ele>
        <time>2020-01-26T15:34:23Z</time>
      </trkpt>
      <trkpt lat="9.9211450" lon="-83.8993740">
        <ele>2069.6</ele>
        <time>2020-01-26T15:34:24Z</time>
      </trkpt>
      <trkpt lat="9.9211420" lon="-83.8993600">
        <ele>2069.7</ele>
        <time>2020-01-26T15:34:25Z</time>
      </trkpt>
      <trkpt lat="9.9211250" lon="-83.8992630">
        <ele>2071.0</ele>
        <time>2020-01-26T15:34:32Z</time>
      </trkpt>
      <trkpt lat="9.9210810" lon="-83.8990860">
        <ele>2073.3</ele>
        <time>2020-01-26T15:34:46Z</time>
      </trkpt>
      <trkpt lat="9.9210600" lon="-83.8990290">
        <ele>2073.8</ele>
        <time>2020-01-26T15:34:51Z</time>
      </trkpt>
      <trkpt lat="9.9210550" lon="-83.8990030">
        <ele>2074.0</ele>
        <time>2020-01-26T15:34:53Z</time>
      </trkpt>
      <trkpt lat="9.9210420" lon="-83.8989580">
        <ele>2074.2</ele>
        <time>2020-01-26T15:34:57Z</time>
      </trkpt>
      <trkpt lat="9.9210400" lon="-83.8989460">
        <ele>2074.3</ele>
        <time>2020-01-26T15:34:58Z</time>
      </trkpt>
      <trkpt lat="9.9210290" lon="-83.8987600">
        <ele>2075.1</ele>
        <time>2020-01-26T15:35:12Z</time>
      </trkpt>
      <trkpt lat="9.9210920" lon="-83.8987050">
        <ele>2075.6</ele>
        <time>2020-01-26T15:35:33Z</time>
      </trkpt>
      <trkpt lat="9.9210540" lon="-83.8987190">
        <ele>2075.7</ele>
        <time>2020-01-26T15:35:45Z</time>
      </trkpt>
      <trkpt lat="9.9210620" lon="-83.8987080">
        <ele>2075.7</ele>
        <time>2020-01-26T15:35:53Z</time>
      </trkpt>
      <trkpt lat="9.9210650" lon="-83.8986840">
        <ele>2075.8</ele>
        <time>2020-01-26T15:35:58Z</time>
      </trkpt>
      <trkpt lat="9.9210530" lon="-83.8986890">
        <ele>2075.8</ele>
        <time>2020-01-26T15:36:01Z</time>
      </trkpt>
      <trkpt lat="9.9210480" lon="-83.8987040">
        <ele>2075.8</ele>
        <time>2020-01-26T15:36:08Z</time>
      </trkpt>
      <trkpt lat="9.9210570" lon="-83.8987020">
        <ele>2075.8</ele>
        <time>2020-01-26T15:36:10Z</time>
      </trkpt>
      <trkpt lat="9.9210530" lon="-83.8986850">
        <ele>2075.8</ele>
        <time>2020-01-26T15:36:17Z</time>
      </trkpt>
      <trkpt lat="9.9210430" lon="-83.8986770">
        <ele>2075.9</ele>
        <time>2020-01-26T15:36:21Z</time>
      </trkpt>
      <trkpt lat="9.9210480" lon="-83.8986740">
        <ele>2075.9</ele>
        <time>2020-01-26T15:36:22Z</time>
      </trkpt>
      <trkpt lat="9.9210770" lon="-83.8987050">
        <ele>2075.9</ele>
        <time>2020-01-26T15:36:30Z</time>
      </trkpt>
      <trkpt lat="9.9210810" lon="-83.8987070">
        <ele>2075.9</ele>
        <time>2020-01-26T15:36:34Z</time>
      </trkpt>
      <trkpt lat="9.9210810" lon="-83.8987070">
        <ele>2075.9</ele>
        <time>2020-01-26T15:36:36Z</time>
      </trkpt>
      <trkpt lat="9.9210780" lon="-83.8987080">
        <ele>2075.9</ele>
        <time>2020-01-26T15:36:37Z</time>
      </trkpt>
      <trkpt lat="9.9210790" lon="-83.8987000">
        <ele>2075.9</ele>
        <time>2020-01-26T15:36:40Z</time>
      </trkpt>
      <trkpt lat="9.9210820" lon="-83.8986910">
        <ele>2075.9</ele>
        <time>2020-01-26T15:36:47Z</time>
      </trkpt>
      <trkpt lat="9.9210770" lon="-83.8986660">
        <ele>2075.9</ele>
        <time>2020-01-26T15:36:58Z</time>
      </trkpt>
      <trkpt lat="9.9210750" lon="-83.8986840">
        <ele>2075.9</ele>
        <time>2020-01-26T15:37:06Z</time>
      </trkpt>
      <trkpt lat="9.9210350" lon="-83.8986840">
        <ele>2075.9</ele>
        <time>2020-01-26T15:37:24Z</time>
      </trkpt>
      <trkpt lat="9.9210290" lon="-83.8986850">
        <ele>2075.9</ele>
        <time>2020-01-26T15:37:35Z</time>
      </trkpt>
      <trkpt lat="9.9210290" lon="-83.8986890">
        <ele>2075.9</ele>
        <time>2020-01-26T15:37:37Z</time>
      </trkpt>
      <trkpt lat="9.9210320" lon="-83.8986890">
        <ele>2075.9</ele>
        <time>2020-01-26T15:37:38Z</time>
      </trkpt>
      <trkpt lat="9.9210370" lon="-83.8986890">
        <ele>2075.9</ele>
        <time>2020-01-26T15:37:39Z</time>
      </trkpt>
      <trkpt lat="9.9210360" lon="-83.8986930">
        <ele>2075.9</ele>
        <time>2020-01-26T15:37:43Z</time>
      </trkpt>
      <trkpt lat="9.9210940" lon="-83.8987120">
        <ele>2075.9</ele>
        <time>2020-01-26T15:37:51Z</time>
      </trkpt>
      <trkpt lat="9.9211250" lon="-83.8986990">
        <ele>2075.9</ele>
        <time>2020-01-26T15:37:53Z</time>
      </trkpt>
      <trkpt lat="9.9212760" lon="-83.8986590">
        <ele>2075.6</ele>
        <time>2020-01-26T15:38:00Z</time>
      </trkpt>
      <trkpt lat="9.9213140" lon="-83.8986460">
        <ele>2075.5</ele>
        <time>2020-01-26T15:38:02Z</time>
      </trkpt>
      <trkpt lat="9.9213340" lon="-83.8986440">
        <ele>2075.4</ele>
        <time>2020-01-26T15:38:03Z</time>
      </trkpt>
      <trkpt lat="9.9213540" lon="-83.8986410">
        <ele>2075.4</ele>
        <time>2020-01-26T15:38:04Z</time>
      </trkpt>
      <trkpt lat="9.9213740" lon="-83.8986360">
        <ele>2075.3</ele>
        <time>2020-01-26T15:38:05Z</time>
      </trkpt>
      <trkpt lat="9.9213920" lon="-83.8986280">
        <ele>2075.3</ele>
        <time>2020-01-26T15:38:06Z</time>
      </trkpt>
      <trkpt lat="9.9214250" lon="-83.8986090">
        <ele>2075.2</ele>
        <time>2020-01-26T15:38:08Z</time>
      </trkpt>
      <trkpt lat="9.9214660" lon="-83.8985960">
        <ele>2075.1</ele>
        <time>2020-01-26T15:38:10Z</time>
      </trkpt>
      <trkpt lat="9.9214880" lon="-83.8985870">
        <ele>2075.0</ele>
        <time>2020-01-26T15:38:11Z</time>
      </trkpt>
      <trkpt lat="9.9215320" lon="-83.8985710">
        <ele>2074.9</ele>
        <time>2020-01-26T15:38:13Z</time>
      </trkpt>
      <trkpt lat="9.9216140" lon="-83.8985380">
        <ele>2074.7</ele>
        <time>2020-01-26T15:38:16Z</time>
      </trkpt>
      <trkpt lat="9.9217200" lon="-83.8984890">
        <ele>2074.6</ele>
        <time>2020-01-26T15:38:19Z</time>
      </trkpt>
      <trkpt lat="9.9219000" lon="-83.8984090">
        <ele>2074.6</ele>
        <time>2020-01-26T15:38:23Z</time>
      </trkpt>
      <trkpt lat="9.9219520" lon="-83.8983910">
        <ele>2074.7</ele>
        <time>2020-01-26T15:38:24Z</time>
      </trkpt>
      <trkpt lat="9.9220660" lon="-83.8983670">
        <ele>2075.0</ele>
        <time>2020-01-26T15:38:26Z</time>
      </trkpt>
      <trkpt lat="9.9221230" lon="-83.8983600">
        <ele>2075.2</ele>
        <time>2020-01-26T15:38:27Z</time>
      </trkpt>
      <trkpt lat="9.9223220" lon="-83.8983420">
        <ele>2076.0</ele>
        <time>2020-01-26T15:38:31Z</time>
      </trkpt>
      <trkpt lat="9.9224850" lon="-83.8983190">
        <ele>2076.9</ele>
        <time>2020-01-26T15:38:35Z</time>
      </trkpt>
      <trkpt lat="9.9225250" lon="-83.8983120">
        <ele>2077.2</ele>
        <time>2020-01-26T15:38:36Z</time>
      </trkpt>
      <trkpt lat="9.9225610" lon="-83.8983060">
        <ele>2077.6</ele>
        <time>2020-01-26T15:38:37Z</time>
      </trkpt>
      <trkpt lat="9.9226200" lon="-83.8983000">
        <ele>2078.2</ele>
        <time>2020-01-26T15:38:39Z</time>
      </trkpt>
      <trkpt lat="9.9227010" lon="-83.8982850">
        <ele>2079.0</ele>
        <time>2020-01-26T15:38:43Z</time>
      </trkpt>
      <trkpt lat="9.9228060" lon="-83.8982740">
        <ele>2080.1</ele>
        <time>2020-01-26T15:38:49Z</time>
      </trkpt>
      <trkpt lat="9.9229880" lon="-83.8982450">
        <ele>2082.0</ele>
        <time>2020-01-26T15:39:00Z</time>
      </trkpt>
      <trkpt lat="9.9230170" lon="-83.8982350">
        <ele>2082.4</ele>
        <time>2020-01-26T15:39:02Z</time>
      </trkpt>
      <trkpt lat="9.9230460" lon="-83.8982280">
        <ele>2082.8</ele>
        <time>2020-01-26T15:39:04Z</time>
      </trkpt>
      <trkpt lat="9.9231280" lon="-83.8982100">
        <ele>2084.1</ele>
        <time>2020-01-26T15:39:10Z</time>
      </trkpt>
      <trkpt lat="9.9231410" lon="-83.8982110">
        <ele>2084.3</ele>
        <time>2020-01-26T15:39:11Z</time>
      </trkpt>
      <trkpt lat="9.9231550" lon="-83.8982110">
        <ele>2084.6</ele>
        <time>2020-01-26T15:39:12Z</time>
      </trkpt>
      <trkpt lat="9.9231690" lon="-83.8982130">
        <ele>2084.8</ele>
        <time>2020-01-26T15:39:13Z</time>
      </trkpt>
      <trkpt lat="9.9233200" lon="-83.8982000">
        <ele>2087.5</ele>
        <time>2020-01-26T15:39:25Z</time>
      </trkpt>
      <trkpt lat="9.9233320" lon="-83.8982000">
        <ele>2087.7</ele>
        <time>2020-01-26T15:39:26Z</time>
      </trkpt>
      <trkpt lat="9.9233770" lon="-83.8981970">
        <ele>2088.5</ele>
        <time>2020-01-26T15:39:30Z</time>
      </trkpt>
      <trkpt lat="9.9235330" lon="-83.8981720">
        <ele>2091.4</ele>
        <time>2020-01-26T15:39:42Z</time>
      </trkpt>
      <trkpt lat="9.9235690" lon="-83.8981620">
        <ele>2092.0</ele>
        <time>2020-01-26T15:39:45Z</time>
      </trkpt>
      <trkpt lat="9.9235920" lon="-83.8981550">
        <ele>2092.5</ele>
        <time>2020-01-26T15:39:47Z</time>
      </trkpt>
      <trkpt lat="9.9236300" lon="-83.8981460">
        <ele>2093.4</ele>
        <time>2020-01-26T15:39:50Z</time>
      </trkpt>
      <trkpt lat="9.9236850" lon="-83.8981350">
        <ele>2094.7</ele>
        <time>2020-01-26T15:39:54Z</time>
      </trkpt>
      <trkpt lat="9.9237200" lon="-83.8981080">
        <ele>2099.6</ele>
        <time>2020-01-26T15:39:57Z</time>
      </trkpt>
      <trkpt lat="9.9237290" lon="-83.8980500">
        <ele>2100.1</ele>
        <time>2020-01-26T15:40:01Z</time>
      </trkpt>
      <trkpt lat="9.9237140" lon="-83.8980180">
        <ele>2100.3</ele>
        <time>2020-01-26T15:40:04Z</time>
      </trkpt>
      <trkpt lat="9.9236730" lon="-83.8979730">
        <ele>2100.7</ele>
        <time>2020-01-26T15:40:09Z</time>
      </trkpt>
      <trkpt lat="9.9236490" lon="-83.8979480">
        <ele>2100.9</ele>
        <time>2020-01-26T15:40:12Z</time>
      </trkpt>
      <trkpt lat="9.9236320" lon="-83.8979360">
        <ele>2101.1</ele>
        <time>2020-01-26T15:40:14Z</time>
      </trkpt>
      <trkpt lat="9.9235360" lon="-83.8978500">
        <ele>2102.0</ele>
        <time>2020-01-26T15:40:25Z</time>
      </trkpt>
      <trkpt lat="9.9234050" lon="-83.8977100">
        <ele>2102.9</ele>
        <time>2020-01-26T15:40:40Z</time>
      </trkpt>
      <trkpt lat="9.9233760" lon="-83.8976750">
        <ele>2103.1</ele>
        <time>2020-01-26T15:40:43Z</time>
      </trkpt>
      <trkpt lat="9.9232230" lon="-83.8975440">
        <ele>2104.0</ele>
        <time>2020-01-26T15:40:54Z</time>
      </trkpt>
      <trkpt lat="9.9231950" lon="-83.8975190">
        <ele>2104.2</ele>
        <time>2020-01-26T15:40:56Z</time>
      </trkpt>
      <trkpt lat="9.9231680" lon="-83.8974850">
        <ele>2104.5</ele>
        <time>2020-01-26T15:40:58Z</time>
      </trkpt>
      <trkpt lat="9.9230540" lon="-83.8973890">
        <ele>2105.5</ele>
        <time>2020-01-26T15:41:05Z</time>
      </trkpt>
      <trkpt lat="9.9228970" lon="-83.8972750">
        <ele>2107.7</ele>
        <time>2020-01-26T15:41:15Z</time>
      </trkpt>
      <trkpt lat="9.9227980" lon="-83.8971870">
        <ele>2109.7</ele>
        <time>2020-01-26T15:41:23Z</time>
      </trkpt>
      <trkpt lat="9.9227750" lon="-83.8971680">
        <ele>2110.1</ele>
        <time>2020-01-26T15:41:25Z</time>
      </trkpt>
      <trkpt lat="9.9227010" lon="-83.8971090">
        <ele>2111.2</ele>
        <time>2020-01-26T15:41:32Z</time>
      </trkpt>
      <trkpt lat="9.9225640" lon="-83.8969860">
        <ele>2112.5</ele>
        <time>2020-01-26T15:41:44Z</time>
      </trkpt>
      <trkpt lat="9.9225160" lon="-83.8969430">
        <ele>2112.7</ele>
        <time>2020-01-26T15:41:48Z</time>
      </trkpt>
      <trkpt lat="9.9224110" lon="-83.8968300">
        <ele>2113.1</ele>
        <time>2020-01-26T15:41:56Z</time>
      </trkpt>
      <trkpt lat="9.9223540" lon="-83.8967800">
        <ele>2113.2</ele>
        <time>2020-01-26T15:42:00Z</time>
      </trkpt>
      <trkpt lat="9.9222160" lon="-83.8966400">
        <ele>2113.4</ele>
        <time>2020-01-26T15:42:08Z</time>
      </trkpt>
      <trkpt lat="9.9221500" lon="-83.8965720">
        <ele>2113.4</ele>
        <time>2020-01-26T15:42:11Z</time>
      </trkpt>
      <trkpt lat="9.9221070" lon="-83.8965280">
        <ele>2113.3</ele>
        <time>2020-01-26T15:42:13Z</time>
      </trkpt>
      <trkpt lat="9.9220030" lon="-83.8963720">
        <ele>2113.0</ele>
        <time>2020-01-26T15:42:19Z</time>
      </trkpt>
      <trkpt lat="9.9219320" lon="-83.8961850">
        <ele>2112.5</ele>
        <time>2020-01-26T15:42:23Z</time>
      </trkpt>
      <trkpt lat="9.9218350" lon="-83.8959710">
        <ele>2111.9</ele>
        <time>2020-01-26T15:42:27Z</time>
      </trkpt>
      <trkpt lat="9.9217450" lon="-83.8957620">
        <ele>2111.4</ele>
        <time>2020-01-26T15:42:31Z</time>
      </trkpt>
      <trkpt lat="9.9217280" lon="-83.8957080">
        <ele>2111.3</ele>
        <time>2020-01-26T15:42:32Z</time>
      </trkpt>
      <trkpt lat="9.9216880" lon="-83.8955520">
        <ele>2111.1</ele>
        <time>2020-01-26T15:42:35Z</time>
      </trkpt>
      <trkpt lat="9.9216590" lon="-83.8955110">
        <ele>2111.2</ele>
        <time>2020-01-26T15:42:36Z</time>
      </trkpt>
      <trkpt lat="9.9215820" lon="-83.8954660">
        <ele>2111.2</ele>
        <time>2020-01-26T15:42:38Z</time>
      </trkpt>
      <trkpt lat="9.9214980" lon="-83.8954700">
        <ele>2111.3</ele>
        <time>2020-01-26T15:42:41Z</time>
      </trkpt>
      <trkpt lat="9.9213080" lon="-83.8954660">
        <ele>2111.9</ele>
        <time>2020-01-26T15:42:48Z</time>
      </trkpt>
      <trkpt lat="9.9211240" lon="-83.8954860">
        <ele>2113.1</ele>
        <time>2020-01-26T15:42:56Z</time>
      </trkpt>
      <trkpt lat="9.9210220" lon="-83.8955300">
        <ele>2113.9</ele>
        <time>2020-01-26T15:43:03Z</time>
      </trkpt>
      <trkpt lat="9.9209850" lon="-83.8955480">
        <ele>2114.3</ele>
        <time>2020-01-26T15:43:06Z</time>
      </trkpt>
      <trkpt lat="9.9209380" lon="-83.8955830">
        <ele>2114.8</ele>
        <time>2020-01-26T15:43:10Z</time>
      </trkpt>
      <trkpt lat="9.9208860" lon="-83.8956120">
        <ele>2115.4</ele>
        <time>2020-01-26T15:43:14Z</time>
      </trkpt>
      <trkpt lat="9.9208300" lon="-83.8956490">
        <ele>2116.2</ele>
        <time>2020-01-26T15:43:19Z</time>
      </trkpt>
      <trkpt lat="9.9208110" lon="-83.8956670">
        <ele>2116.5</ele>
        <time>2020-01-26T15:43:21Z</time>
      </trkpt>
      <trkpt lat="9.9207910" lon="-83.8956850">
        <ele>2116.8</ele>
        <time>2020-01-26T15:43:23Z</time>
      </trkpt>
      <trkpt lat="9.9207630" lon="-83.8957170">
        <ele>2117.4</ele>
        <time>2020-01-26T15:43:26Z</time>
      </trkpt>
      <trkpt lat="9.9207180" lon="-83.8957610">
        <ele>2118.2</ele>
        <time>2020-01-26T15:43:31Z</time>
      </trkpt>
      <trkpt lat="9.9205950" lon="-83.8958910">
        <ele>2120.4</ele>
        <time>2020-01-26T15:43:46Z</time>
      </trkpt>
      <trkpt lat="9.9204780" lon="-83.8960300">
        <ele>2123.2</ele>
        <time>2020-01-26T15:44:00Z</time>
      </trkpt>
      <trkpt lat="9.9204450" lon="-83.8960620">
        <ele>2123.9</ele>
        <time>2020-01-26T15:44:04Z</time>
      </trkpt>
      <trkpt lat="9.9203080" lon="-83.8961870">
        <ele>2126.9</ele>
        <time>2020-01-26T15:44:20Z</time>
      </trkpt>
      <trkpt lat="9.9201390" lon="-83.8962570">
        <ele>2130.0</ele>
        <time>2020-01-26T15:44:34Z</time>
      </trkpt>
      <trkpt lat="9.9200730" lon="-83.8962520">
        <ele>2131.1</ele>
        <time>2020-01-26T15:44:39Z</time>
      </trkpt>
      <trkpt lat="9.9198920" lon="-83.8962330">
        <ele>2134.4</ele>
        <time>2020-01-26T15:44:51Z</time>
      </trkpt>
      <trkpt lat="9.9197010" lon="-83.8962140">
        <ele>2137.3</ele>
        <time>2020-01-26T15:45:01Z</time>
      </trkpt>
      <trkpt lat="9.9195510" lon="-83.8962110">
        <ele>2138.2</ele>
        <time>2020-01-26T15:45:08Z</time>
      </trkpt>
      <trkpt lat="9.9194840" lon="-83.8962180">
        <ele>2138.4</ele>
        <time>2020-01-26T15:45:15Z</time>
      </trkpt>
      <trkpt lat="9.9194870" lon="-83.8962180">
        <ele>2138.4</ele>
        <time>2020-01-26T15:45:22Z</time>
      </trkpt>
      <trkpt lat="9.9194910" lon="-83.8962170">
        <ele>2138.4</ele>
        <time>2020-01-26T15:45:25Z</time>
      </trkpt>
      <trkpt lat="9.9194950" lon="-83.8962120">
        <ele>2138.4</ele>
        <time>2020-01-26T15:45:31Z</time>
      </trkpt>
      <trkpt lat="9.9194950" lon="-83.8962110">
        <ele>2138.4</ele>
        <time>2020-01-26T15:45:32Z</time>
      </trkpt>
      <trkpt lat="9.9195020" lon="-83.8961990">
        <ele>2138.5</ele>
        <time>2020-01-26T15:45:39Z</time>
      </trkpt>
      <trkpt lat="9.9195040" lon="-83.8962000">
        <ele>2138.5</ele>
        <time>2020-01-26T15:45:44Z</time>
      </trkpt>
      <trkpt lat="9.9195060" lon="-83.8962060">
        <ele>2138.5</ele>
        <time>2020-01-26T15:45:46Z</time>
      </trkpt>
      <trkpt lat="9.9195040" lon="-83.8962030">
        <ele>2138.5</ele>
        <time>2020-01-26T15:45:47Z</time>
      </trkpt>
      <trkpt lat="9.9195040" lon="-83.8962010">
        <ele>2138.5</ele>
        <time>2020-01-26T15:45:49Z</time>
      </trkpt>
      <trkpt lat="9.9195110" lon="-83.8961910">
        <ele>2138.6</ele>
        <time>2020-01-26T15:45:56Z</time>
      </trkpt>
      <trkpt lat="9.9195160" lon="-83.8961920">
        <ele>2138.6</ele>
        <time>2020-01-26T15:45:59Z</time>
      </trkpt>
      <trkpt lat="9.9195190" lon="-83.8961940">
        <ele>2138.6</ele>
        <time>2020-01-26T15:46:01Z</time>
      </trkpt>
      <trkpt lat="9.9195210" lon="-83.8961960">
        <ele>2138.6</ele>
        <time>2020-01-26T15:46:04Z</time>
      </trkpt>
      <trkpt lat="9.9195210" lon="-83.8961960">
        <ele>2138.6</ele>
        <time>2020-01-26T15:46:07Z</time>
      </trkpt>
      <trkpt lat="9.9195220" lon="-83.8962160">
        <ele>2138.7</ele>
        <time>2020-01-26T15:46:10Z</time>
      </trkpt>
      <trkpt lat="9.9195130" lon="-83.8962160">
        <ele>2138.7</ele>
        <time>2020-01-26T15:46:15Z</time>
      </trkpt>
      <trkpt lat="9.9195040" lon="-83.8962010">
        <ele>2138.7</ele>
        <time>2020-01-26T15:46:19Z</time>
      </trkpt>
      <trkpt lat="9.9194980" lon="-83.8961880">
        <ele>2138.7</ele>
        <time>2020-01-26T15:46:25Z</time>
      </trkpt>
      <trkpt lat="9.9194990" lon="-83.8961850">
        <ele>2138.7</ele>
        <time>2020-01-26T15:46:30Z</time>
      </trkpt>
      <trkpt lat="9.9195030" lon="-83.8961880">
        <ele>2138.7</ele>
        <time>2020-01-26T15:46:34Z</time>
      </trkpt>
      <trkpt lat="9.9195040" lon="-83.8961890">
        <ele>2138.7</ele>
        <time>2020-01-26T15:46:35Z</time>
      </trkpt>
      <trkpt lat="9.9195030" lon="-83.8961860">
        <ele>2138.7</ele>
        <time>2020-01-26T15:46:36Z</time>
      </trkpt>
      <trkpt lat="9.9194980" lon="-83.8961830">
        <ele>2138.7</ele>
        <time>2020-01-26T15:46:37Z</time>
      </trkpt>
      <trkpt lat="9.9194970" lon="-83.8961840">
        <ele>2138.7</ele>
        <time>2020-01-26T15:46:38Z</time>
      </trkpt>
      <trkpt lat="9.9194970" lon="-83.8961860">
        <ele>2138.7</ele>
        <time>2020-01-26T15:46:39Z</time>
      </trkpt>
      <trkpt lat="9.9194970" lon="-83.8961870">
        <ele>2138.7</ele>
        <time>2020-01-26T15:46:40Z</time>
      </trkpt>
      <trkpt lat="9.9194980" lon="-83.8961880">
        <ele>2138.7</ele>
        <time>2020-01-26T15:46:41Z</time>
      </trkpt>
      <trkpt lat="9.9194980" lon="-83.8961870">
        <ele>2138.7</ele>
        <time>2020-01-26T15:46:42Z</time>
      </trkpt>
      <trkpt lat="9.9194970" lon="-83.8961890">
        <ele>2138.7</ele>
        <time>2020-01-26T15:46:45Z</time>
      </trkpt>
      <trkpt lat="9.9194980" lon="-83.8961930">
        <ele>2138.8</ele>
        <time>2020-01-26T15:46:47Z</time>
      </trkpt>
      <trkpt lat="9.9194970" lon="-83.8962000">
        <ele>2138.8</ele>
        <time>2020-01-26T15:46:50Z</time>
      </trkpt>
      <trkpt lat="9.9194960" lon="-83.8961970">
        <ele>2138.8</ele>
        <time>2020-01-26T15:47:00Z</time>
      </trkpt>
      <trkpt lat="9.9195030" lon="-83.8962050">
        <ele>2138.8</ele>
        <time>2020-01-26T15:47:05Z</time>
      </trkpt>
      <trkpt lat="9.9195020" lon="-83.8962030">
        <ele>2138.8</ele>
        <time>2020-01-26T15:47:11Z</time>
      </trkpt>
      <trkpt lat="9.9194980" lon="-83.8962140">
        <ele>2138.8</ele>
        <time>2020-01-26T15:47:18Z</time>
      </trkpt>
      <trkpt lat="9.9195030" lon="-83.8962210">
        <ele>2138.8</ele>
        <time>2020-01-26T15:47:20Z</time>
      </trkpt>
      <trkpt lat="9.9195090" lon="-83.8962270">
        <ele>2138.8</ele>
        <time>2020-01-26T15:47:22Z</time>
      </trkpt>
      <trkpt lat="9.9195150" lon="-83.8962340">
        <ele>2138.8</ele>
        <time>2020-01-26T15:47:24Z</time>
      </trkpt>
      <trkpt lat="9.9195160" lon="-83.8962300">
        <ele>2138.8</ele>
        <time>2020-01-26T15:47:25Z</time>
      </trkpt>
      <trkpt lat="9.9195110" lon="-83.8962210">
        <ele>2138.8</ele>
        <time>2020-01-26T15:47:27Z</time>
      </trkpt>
      <trkpt lat="9.9195100" lon="-83.8962250">
        <ele>2138.8</ele>
        <time>2020-01-26T15:47:31Z</time>
      </trkpt>
      <trkpt lat="9.9194860" lon="-83.8962160">
        <ele>2138.9</ele>
        <time>2020-01-26T15:47:36Z</time>
      </trkpt>
      <trkpt lat="9.9194800" lon="-83.8962130">
        <ele>2138.9</ele>
        <time>2020-01-26T15:47:40Z</time>
      </trkpt>
      <trkpt lat="9.9194870" lon="-83.8962190">
        <ele>2138.9</ele>
        <time>2020-01-26T15:47:50Z</time>
      </trkpt>
      <trkpt lat="9.9194880" lon="-83.8962170">
        <ele>2138.9</ele>
        <time>2020-01-26T15:47:56Z</time>
      </trkpt>
      <trkpt lat="9.9194860" lon="-83.8962200">
        <ele>2138.9</ele>
        <time>2020-01-26T15:48:00Z</time>
      </trkpt>
      <trkpt lat="9.9194860" lon="-83.8962190">
        <ele>2138.9</ele>
        <time>2020-01-26T15:48:01Z</time>
      </trkpt>
      <trkpt lat="9.9194870" lon="-83.8962130">
        <ele>2138.9</ele>
        <time>2020-01-26T15:48:03Z</time>
      </trkpt>
      <trkpt lat="9.9194840" lon="-83.8962180">
        <ele>2138.9</ele>
        <time>2020-01-26T15:48:06Z</time>
      </trkpt>
      <trkpt lat="9.9194830" lon="-83.8962170">
        <ele>2138.9</ele>
        <time>2020-01-26T15:48:07Z</time>
      </trkpt>
      <trkpt lat="9.9194820" lon="-83.8962180">
        <ele>2138.9</ele>
        <time>2020-01-26T15:48:10Z</time>
      </trkpt>
      <trkpt lat="9.9194790" lon="-83.8962190">
        <ele>2138.9</ele>
        <time>2020-01-26T15:48:12Z</time>
      </trkpt>
      <trkpt lat="9.9194810" lon="-83.8962160">
        <ele>2138.9</ele>
        <time>2020-01-26T15:48:23Z</time>
      </trkpt>
      <trkpt lat="9.9194780" lon="-83.8962180">
        <ele>2138.9</ele>
        <time>2020-01-26T15:48:26Z</time>
      </trkpt>
      <trkpt lat="9.9194770" lon="-83.8962270">
        <ele>2138.8</ele>
        <time>2020-01-26T15:48:31Z</time>
      </trkpt>
      <trkpt lat="9.9194760" lon="-83.8962260">
        <ele>2138.8</ele>
        <time>2020-01-26T15:48:32Z</time>
      </trkpt>
      <trkpt lat="9.9194760" lon="-83.8962250">
        <ele>2138.8</ele>
        <time>2020-01-26T15:48:33Z</time>
      </trkpt>
      <trkpt lat="9.9194790" lon="-83.8962280">
        <ele>2138.8</ele>
        <time>2020-01-26T15:48:34Z</time>
      </trkpt>
      <trkpt lat="9.9194840" lon="-83.8962300">
        <ele>2138.8</ele>
        <time>2020-01-26T15:48:35Z</time>
      </trkpt>
      <trkpt lat="9.9194860" lon="-83.8962320">
        <ele>2138.8</ele>
        <time>2020-01-26T15:48:36Z</time>
      </trkpt>
      <trkpt lat="9.9194850" lon="-83.8962340">
        <ele>2138.8</ele>
        <time>2020-01-26T15:48:37Z</time>
      </trkpt>
      <trkpt lat="9.9194860" lon="-83.8962350">
        <ele>2138.8</ele>
        <time>2020-01-26T15:48:38Z</time>
      </trkpt>
      <trkpt lat="9.9194890" lon="-83.8962310">
        <ele>2138.8</ele>
        <time>2020-01-26T15:48:44Z</time>
      </trkpt>
      <trkpt lat="9.9194680" lon="-83.8962340">
        <ele>2138.8</ele>
        <time>2020-01-26T15:48:51Z</time>
      </trkpt>
      <trkpt lat="9.9194670" lon="-83.8962380">
        <ele>2138.8</ele>
        <time>2020-01-26T15:48:53Z</time>
      </trkpt>
      <trkpt lat="9.9194650" lon="-83.8962330">
        <ele>2138.8</ele>
        <time>2020-01-26T15:48:58Z</time>
      </trkpt>
      <trkpt lat="9.9194280" lon="-83.8961940">
        <ele>2138.8</ele>
        <time>2020-01-26T15:49:05Z</time>
      </trkpt>
      <trkpt lat="9.9193210" lon="-83.8960620">
        <ele>2139.6</ele>
        <time>2020-01-26T15:49:10Z</time>
      </trkpt>
      <trkpt lat="9.9192310" lon="-83.8958860">
        <ele>2141.1</ele>
        <time>2020-01-26T15:49:14Z</time>
      </trkpt>
      <trkpt lat="9.9191690" lon="-83.8957010">
        <ele>2142.9</ele>
        <time>2020-01-26T15:49:18Z</time>
      </trkpt>
      <trkpt lat="9.9191520" lon="-83.8956580">
        <ele>2143.4</ele>
        <time>2020-01-26T15:49:19Z</time>
      </trkpt>
      <trkpt lat="9.9191330" lon="-83.8956160">
        <ele>2143.8</ele>
        <time>2020-01-26T15:49:20Z</time>
      </trkpt>
      <trkpt lat="9.9191060" lon="-83.8955760">
        <ele>2144.1</ele>
        <time>2020-01-26T15:49:21Z</time>
      </trkpt>
      <trkpt lat="9.9190110" lon="-83.8954670">
        <ele>2144.8</ele>
        <time>2020-01-26T15:49:24Z</time>
      </trkpt>
      <trkpt lat="9.9189170" lon="-83.8953770">
        <ele>2145.6</ele>
        <time>2020-01-26T15:49:27Z</time>
      </trkpt>
      <trkpt lat="9.9188900" lon="-83.8953460">
        <ele>2146.1</ele>
        <time>2020-01-26T15:49:28Z</time>
      </trkpt>
      <trkpt lat="9.9187680" lon="-83.8951930">
        <ele>2147.2</ele>
        <time>2020-01-26T15:49:33Z</time>
      </trkpt>
      <trkpt lat="9.9187210" lon="-83.8951280">
        <ele>2147.6</ele>
        <time>2020-01-26T15:49:35Z</time>
      </trkpt>
      <trkpt lat="9.9186680" lon="-83.8950660">
        <ele>2148.0</ele>
        <time>2020-01-26T15:49:37Z</time>
      </trkpt>
      <trkpt lat="9.9186010" lon="-83.8949800">
        <ele>2148.7</ele>
        <time>2020-01-26T15:49:40Z</time>
      </trkpt>
      <trkpt lat="9.9184940" lon="-83.8948420">
        <ele>2149.2</ele>
        <time>2020-01-26T15:49:45Z</time>
      </trkpt>
      <trkpt lat="9.9184520" lon="-83.8947890">
        <ele>2149.5</ele>
        <time>2020-01-26T15:49:47Z</time>
      </trkpt>
      <trkpt lat="9.9183400" lon="-83.8946270">
        <ele>2149.9</ele>
        <time>2020-01-26T15:49:53Z</time>
      </trkpt>
      <trkpt lat="9.9182380" lon="-83.8944560">
        <ele>2150.4</ele>
        <time>2020-01-26T15:49:59Z</time>
      </trkpt>
      <trkpt lat="9.9181930" lon="-83.8943750">
        <ele>2150.7</ele>
        <time>2020-01-26T15:50:02Z</time>
      </trkpt>
      <trkpt lat="9.9181770" lon="-83.8943510">
        <ele>2150.8</ele>
        <time>2020-01-26T15:50:03Z</time>
      </trkpt>
      <trkpt lat="9.9180990" lon="-83.8941580">
        <ele>2151.8</ele>
        <time>2020-01-26T15:50:10Z</time>
      </trkpt>
      <trkpt lat="9.9180720" lon="-83.8939880">
        <ele>2152.8</ele>
        <time>2020-01-26T15:50:17Z</time>
      </trkpt>
      <trkpt lat="9.9180340" lon="-83.8938010">
        <ele>2154.5</ele>
        <time>2020-01-26T15:50:26Z</time>
      </trkpt>
      <trkpt lat="9.9180260" lon="-83.8937640">
        <ele>2154.7</ele>
        <time>2020-01-26T15:50:28Z</time>
      </trkpt>
      <trkpt lat="9.9180150" lon="-83.8937200">
        <ele>2154.9</ele>
        <time>2020-01-26T15:50:30Z</time>
      </trkpt>
      <trkpt lat="9.9180090" lon="-83.8936730">
        <ele>2155.2</ele>
        <time>2020-01-26T15:50:32Z</time>
      </trkpt>
      <trkpt lat="9.9180020" lon="-83.8936160">
        <ele>2155.3</ele>
        <time>2020-01-26T15:50:34Z</time>
      </trkpt>
      <trkpt lat="9.9179590" lon="-83.8935050">
        <ele>2155.6</ele>
        <time>2020-01-26T15:50:38Z</time>
      </trkpt>
      <trkpt lat="9.9178910" lon="-83.8933600">
        <ele>2155.9</ele>
        <time>2020-01-26T15:50:43Z</time>
      </trkpt>
      <trkpt lat="9.9178290" lon="-83.8932280">
        <ele>2156.2</ele>
        <time>2020-01-26T15:50:47Z</time>
      </trkpt>
      <trkpt lat="9.9178120" lon="-83.8931970">
        <ele>2156.3</ele>
        <time>2020-01-26T15:50:48Z</time>
      </trkpt>
      <trkpt lat="9.9177710" lon="-83.8931010">
        <ele>2156.6</ele>
        <time>2020-01-26T15:50:51Z</time>
      </trkpt>
      <trkpt lat="9.9176810" lon="-83.8929080">
        <ele>2157.0</ele>
        <time>2020-01-26T15:50:57Z</time>
      </trkpt>
      <trkpt lat="9.9176290" lon="-83.8927140">
        <ele>2156.9</ele>
        <time>2020-01-26T15:51:02Z</time>
      </trkpt>
      <trkpt lat="9.9175760" lon="-83.8925010">
        <ele>2156.0</ele>
        <time>2020-01-26T15:51:07Z</time>
      </trkpt>
      <trkpt lat="9.9175740" lon="-83.8924630">
        <ele>2155.7</ele>
        <time>2020-01-26T15:51:08Z</time>
      </trkpt>
      <trkpt lat="9.9175940" lon="-83.8923720">
        <ele>2154.8</ele>
        <time>2020-01-26T15:51:11Z</time>
      </trkpt>
      <trkpt lat="9.9176580" lon="-83.8922060">
        <ele>2152.9</ele>
        <time>2020-01-26T15:51:16Z</time>
      </trkpt>
      <trkpt lat="9.9176700" lon="-83.8921630">
        <ele>2152.5</ele>
        <time>2020-01-26T15:51:17Z</time>
      </trkpt>
      <trkpt lat="9.9176910" lon="-83.8920460">
        <ele>2151.7</ele>
        <time>2020-01-26T15:51:20Z</time>
      </trkpt>
      <trkpt lat="9.9177070" lon="-83.8919090">
        <ele>2151.2</ele>
        <time>2020-01-26T15:51:25Z</time>
      </trkpt>
      <trkpt lat="9.9177720" lon="-83.8918630">
        <ele>2152.0</ele>
        <time>2020-01-26T15:51:29Z</time>
      </trkpt>
      <trkpt lat="9.9178230" lon="-83.8918860">
        <ele>2152.6</ele>
        <time>2020-01-26T15:51:32Z</time>
      </trkpt>
      <trkpt lat="9.9178520" lon="-83.8919110">
        <ele>2153.0</ele>
        <time>2020-01-26T15:51:34Z</time>
      </trkpt>
      <trkpt lat="9.9178650" lon="-83.8919220">
        <ele>2153.2</ele>
        <time>2020-01-26T15:51:35Z</time>
      </trkpt>
      <trkpt lat="9.9178970" lon="-83.8919370">
        <ele>2153.6</ele>
        <time>2020-01-26T15:51:37Z</time>
      </trkpt>
      <trkpt lat="9.9179100" lon="-83.8919480">
        <ele>2153.8</ele>
        <time>2020-01-26T15:51:38Z</time>
      </trkpt>
      <trkpt lat="9.9179400" lon="-83.8919740">
        <ele>2154.3</ele>
        <time>2020-01-26T15:51:40Z</time>
      </trkpt>
      <trkpt lat="9.9179990" lon="-83.8920160">
        <ele>2155.2</ele>
        <time>2020-01-26T15:51:44Z</time>
      </trkpt>
      <trkpt lat="9.9180450" lon="-83.8920500">
        <ele>2155.9</ele>
        <time>2020-01-26T15:51:47Z</time>
      </trkpt>
      <trkpt lat="9.9180990" lon="-83.8921020">
        <ele>2156.8</ele>
        <time>2020-01-26T15:51:51Z</time>
      </trkpt>
      <trkpt lat="9.9181450" lon="-83.8921430">
        <ele>2157.5</ele>
        <time>2020-01-26T15:51:54Z</time>
      </trkpt>
      <trkpt lat="9.9181990" lon="-83.8921940">
        <ele>2158.5</ele>
        <time>2020-01-26T15:51:58Z</time>
      </trkpt>
      <trkpt lat="9.9182440" lon="-83.8922450">
        <ele>2159.5</ele>
        <time>2020-01-26T15:52:02Z</time>
      </trkpt>
      <trkpt lat="9.9183520" lon="-83.8923850">
        <ele>2162.5</ele>
        <time>2020-01-26T15:52:13Z</time>
      </trkpt>
      <trkpt lat="9.9184340" lon="-83.8924770">
        <ele>2164.8</ele>
        <time>2020-01-26T15:52:22Z</time>
      </trkpt>
      <trkpt lat="9.9185330" lon="-83.8925890">
        <ele>2167.8</ele>
        <time>2020-01-26T15:52:35Z</time>
      </trkpt>
      <trkpt lat="9.9185630" lon="-83.8926220">
        <ele>2168.7</ele>
        <time>2020-01-26T15:52:39Z</time>
      </trkpt>
      <trkpt lat="9.9186950" lon="-83.8927020">
        <ele>2171.1</ele>
        <time>2020-01-26T15:52:52Z</time>
      </trkpt>
      <trkpt lat="9.9187450" lon="-83.8926990">
        <ele>2171.9</ele>
        <time>2020-01-26T15:52:56Z</time>
      </trkpt>
      <trkpt lat="9.9187760" lon="-83.8926590">
        <ele>2172.4</ele>
        <time>2020-01-26T15:53:00Z</time>
      </trkpt>
      <trkpt lat="9.9187810" lon="-83.8926250">
        <ele>2172.8</ele>
        <time>2020-01-26T15:53:02Z</time>
      </trkpt>
      <trkpt lat="9.9187890" lon="-83.8925790">
        <ele>2173.7</ele>
        <time>2020-01-26T15:53:05Z</time>
      </trkpt>
      <trkpt lat="9.9188260" lon="-83.8924560">
        <ele>2174.3</ele>
        <time>2020-01-26T15:53:14Z</time>
      </trkpt>
      <trkpt lat="9.9188380" lon="-83.8924260">
        <ele>2174.4</ele>
        <time>2020-01-26T15:53:17Z</time>
      </trkpt>
      <trkpt lat="9.9188410" lon="-83.8924210">
        <ele>2174.5</ele>
        <time>2020-01-26T15:53:18Z</time>
      </trkpt>
      <trkpt lat="9.9188450" lon="-83.8924170">
        <ele>2174.5</ele>
        <time>2020-01-26T15:53:19Z</time>
      </trkpt>
      <trkpt lat="9.9188510" lon="-83.8924140">
        <ele>2174.5</ele>
        <time>2020-01-26T15:53:20Z</time>
      </trkpt>
      <trkpt lat="9.9188600" lon="-83.8924110">
        <ele>2174.6</ele>
        <time>2020-01-26T15:53:21Z</time>
      </trkpt>
      <trkpt lat="9.9188770" lon="-83.8924180">
        <ele>2174.7</ele>
        <time>2020-01-26T15:53:23Z</time>
      </trkpt>
      <trkpt lat="9.9188790" lon="-83.8924620">
        <ele>2174.9</ele>
        <time>2020-01-26T15:53:26Z</time>
      </trkpt>
      <trkpt lat="9.9188860" lon="-83.8925100">
        <ele>2175.1</ele>
        <time>2020-01-26T15:53:29Z</time>
      </trkpt>
      <trkpt lat="9.9188760" lon="-83.8926370">
        <ele>2175.6</ele>
        <time>2020-01-26T15:53:36Z</time>
      </trkpt>
      <trkpt lat="9.9188710" lon="-83.8926890">
        <ele>2175.9</ele>
        <time>2020-01-26T15:53:38Z</time>
      </trkpt>
      <trkpt lat="9.9188730" lon="-83.8927410">
        <ele>2176.1</ele>
        <time>2020-01-26T15:53:40Z</time>
      </trkpt>
      <trkpt lat="9.9188930" lon="-83.8929160">
        <ele>2176.9</ele>
        <time>2020-01-26T15:53:47Z</time>
      </trkpt>
      <trkpt lat="9.9189140" lon="-83.8929640">
        <ele>2177.1</ele>
        <time>2020-01-26T15:53:49Z</time>
      </trkpt>
      <trkpt lat="9.9190050" lon="-83.8931270">
        <ele>2180.5</ele>
        <time>2020-01-26T15:53:56Z</time>
      </trkpt>
      <trkpt lat="9.9191190" lon="-83.8932410">
        <ele>2181.6</ele>
        <time>2020-01-26T15:54:02Z</time>
      </trkpt>
      <trkpt lat="9.9191560" lon="-83.8932820">
        <ele>2182.0</ele>
        <time>2020-01-26T15:54:04Z</time>
      </trkpt>
      <trkpt lat="9.9192360" lon="-83.8933540">
        <ele>2182.7</ele>
        <time>2020-01-26T15:54:08Z</time>
      </trkpt>
      <trkpt lat="9.9193880" lon="-83.8934570">
        <ele>2184.1</ele>
        <time>2020-01-26T15:54:15Z</time>
      </trkpt>
      <trkpt lat="9.9195520" lon="-83.8935050">
        <ele>2185.6</ele>
        <time>2020-01-26T15:54:22Z</time>
      </trkpt>
      <trkpt lat="9.9195750" lon="-83.8935060">
        <ele>2185.8</ele>
        <time>2020-01-26T15:54:23Z</time>
      </trkpt>
      <trkpt lat="9.9196220" lon="-83.8935060">
        <ele>2186.1</ele>
        <time>2020-01-26T15:54:25Z</time>
      </trkpt>
      <trkpt lat="9.9196940" lon="-83.8935030">
        <ele>2186.6</ele>
        <time>2020-01-26T15:54:28Z</time>
      </trkpt>
      <trkpt lat="9.9198490" lon="-83.8935030">
        <ele>2187.5</ele>
        <time>2020-01-26T15:54:35Z</time>
      </trkpt>
      <trkpt lat="9.9199090" lon="-83.8934990">
        <ele>2187.9</ele>
        <time>2020-01-26T15:54:38Z</time>
      </trkpt>
      <trkpt lat="9.9200890" lon="-83.8934980">
        <ele>2189.0</ele>
        <time>2020-01-26T15:54:46Z</time>
      </trkpt>
      <trkpt lat="9.9201860" lon="-83.8935000">
        <ele>2189.7</ele>
        <time>2020-01-26T15:54:50Z</time>
      </trkpt>
      <trkpt lat="9.9203820" lon="-83.8934930">
        <ele>2192.2</ele>
        <time>2020-01-26T15:54:58Z</time>
      </trkpt>
      <trkpt lat="9.9205200" lon="-83.8934480">
        <ele>2193.7</ele>
        <time>2020-01-26T15:55:04Z</time>
      </trkpt>
      <trkpt lat="9.9206750" lon="-83.8933330">
        <ele>2196.2</ele>
        <time>2020-01-26T15:55:12Z</time>
      </trkpt>
      <trkpt lat="9.9208170" lon="-83.8932180">
        <ele>2198.3</ele>
        <time>2020-01-26T15:55:20Z</time>
      </trkpt>
      <trkpt lat="9.9209010" lon="-83.8931710">
        <ele>2199.1</ele>
        <time>2020-01-26T15:55:24Z</time>
      </trkpt>
      <trkpt lat="9.9210370" lon="-83.8931190">
        <ele>2200.0</ele>
        <time>2020-01-26T15:55:30Z</time>
      </trkpt>
      <trkpt lat="9.9212180" lon="-83.8930450">
        <ele>2201.2</ele>
        <time>2020-01-26T15:55:39Z</time>
      </trkpt>
      <trkpt lat="9.9213760" lon="-83.8929510">
        <ele>2201.9</ele>
        <time>2020-01-26T15:55:48Z</time>
      </trkpt>
      <trkpt lat="9.9215370" lon="-83.8928440">
        <ele>2202.1</ele>
        <time>2020-01-26T15:55:58Z</time>
      </trkpt>
      <trkpt lat="9.9216540" lon="-83.8927920">
        <ele>2202.0</ele>
        <time>2020-01-26T15:56:05Z</time>
      </trkpt>
      <trkpt lat="9.9218440" lon="-83.8927540">
        <ele>2202.1</ele>
        <time>2020-01-26T15:56:16Z</time>
      </trkpt>
      <trkpt lat="9.9220270" lon="-83.8927370">
        <ele>2203.4</ele>
        <time>2020-01-26T15:56:26Z</time>
      </trkpt>
      <trkpt lat="9.9222030" lon="-83.8926730">
        <ele>2205.2</ele>
        <time>2020-01-26T15:56:36Z</time>
      </trkpt>
      <trkpt lat="9.9223880" lon="-83.8926150">
        <ele>2207.1</ele>
        <time>2020-01-26T15:56:46Z</time>
      </trkpt>
      <trkpt lat="9.9225170" lon="-83.8925980">
        <ele>2208.3</ele>
        <time>2020-01-26T15:56:54Z</time>
      </trkpt>
      <trkpt lat="9.9227080" lon="-83.8926100">
        <ele>2210.1</ele>
        <time>2020-01-26T15:57:05Z</time>
      </trkpt>
      <trkpt lat="9.9228890" lon="-83.8925810">
        <ele>2211.9</ele>
        <time>2020-01-26T15:57:15Z</time>
      </trkpt>
      <trkpt lat="9.9230770" lon="-83.8925430">
        <ele>2214.4</ele>
        <time>2020-01-26T15:57:26Z</time>
      </trkpt>
      <trkpt lat="9.9232510" lon="-83.8924900">
        <ele>2216.8</ele>
        <time>2020-01-26T15:57:38Z</time>
      </trkpt>
      <trkpt lat="9.9233440" lon="-83.8924380">
        <ele>2218.2</ele>
        <time>2020-01-26T15:57:46Z</time>
      </trkpt>
      <trkpt lat="9.9235050" lon="-83.8923240">
        <ele>2220.1</ele>
        <time>2020-01-26T15:57:58Z</time>
      </trkpt>
      <trkpt lat="9.9235480" lon="-83.8922990">
        <ele>2220.6</ele>
        <time>2020-01-26T15:58:01Z</time>
      </trkpt>
      <trkpt lat="9.9235760" lon="-83.8922860">
        <ele>2221.0</ele>
        <time>2020-01-26T15:58:03Z</time>
      </trkpt>
      <trkpt lat="9.9235930" lon="-83.8922790">
        <ele>2221.2</ele>
        <time>2020-01-26T15:58:04Z</time>
      </trkpt>
      <trkpt lat="9.9236260" lon="-83.8922660">
        <ele>2221.6</ele>
        <time>2020-01-26T15:58:06Z</time>
      </trkpt>
      <trkpt lat="9.9237890" lon="-83.8921820">
        <ele>2224.0</ele>
        <time>2020-01-26T15:58:16Z</time>
      </trkpt>
      <trkpt lat="9.9239710" lon="-83.8921180">
        <ele>2226.1</ele>
        <time>2020-01-26T15:58:26Z</time>
      </trkpt>
      <trkpt lat="9.9240830" lon="-83.8920830">
        <ele>2227.2</ele>
        <time>2020-01-26T15:58:31Z</time>
      </trkpt>
      <trkpt lat="9.9242750" lon="-83.8920210">
        <ele>2228.8</ele>
        <time>2020-01-26T15:58:40Z</time>
      </trkpt>
      <trkpt lat="9.9244440" lon="-83.8919530">
        <ele>2230.2</ele>
        <time>2020-01-26T15:58:49Z</time>
      </trkpt>
      <trkpt lat="9.9245600" lon="-83.8919190">
        <ele>2231.5</ele>
        <time>2020-01-26T15:58:55Z</time>
      </trkpt>
      <trkpt lat="9.9246860" lon="-83.8918730">
        <ele>2232.9</ele>
        <time>2020-01-26T15:59:02Z</time>
      </trkpt>
      <trkpt lat="9.9248600" lon="-83.8917760">
        <ele>2235.4</ele>
        <time>2020-01-26T15:59:12Z</time>
      </trkpt>
      <trkpt lat="9.9249240" lon="-83.8917000">
        <ele>2236.6</ele>
        <time>2020-01-26T15:59:17Z</time>
      </trkpt>
      <trkpt lat="9.9249670" lon="-83.8916580">
        <ele>2237.3</ele>
        <time>2020-01-26T15:59:20Z</time>
      </trkpt>
      <trkpt lat="9.9250890" lon="-83.8915210">
        <ele>2238.8</ele>
        <time>2020-01-26T15:59:30Z</time>
      </trkpt>
      <trkpt lat="9.9252100" lon="-83.8913730">
        <ele>2240.6</ele>
        <time>2020-01-26T15:59:40Z</time>
      </trkpt>
      <trkpt lat="9.9253350" lon="-83.8912300">
        <ele>2243.2</ele>
        <time>2020-01-26T15:59:51Z</time>
      </trkpt>
      <trkpt lat="9.9253930" lon="-83.8911780">
        <ele>2244.4</ele>
        <time>2020-01-26T15:59:56Z</time>
      </trkpt>
      <trkpt lat="9.9254140" lon="-83.8911590">
        <ele>2244.9</ele>
        <time>2020-01-26T15:59:58Z</time>
      </trkpt>
      <trkpt lat="9.9254340" lon="-83.8911400">
        <ele>2245.2</ele>
        <time>2020-01-26T16:00:00Z</time>
      </trkpt>
      <trkpt lat="9.9255250" lon="-83.8910700">
        <ele>2247.0</ele>
        <time>2020-01-26T16:00:10Z</time>
      </trkpt>
      <trkpt lat="9.9255740" lon="-83.8910270">
        <ele>2248.1</ele>
        <time>2020-01-26T16:00:16Z</time>
      </trkpt>
      <trkpt lat="9.9256300" lon="-83.8909700">
        <ele>2249.4</ele>
        <time>2020-01-26T16:00:23Z</time>
      </trkpt>
      <trkpt lat="9.9256410" lon="-83.8909560">
        <ele>2249.7</ele>
        <time>2020-01-26T16:00:25Z</time>
      </trkpt>
      <trkpt lat="9.9256610" lon="-83.8908890">
        <ele>2250.1</ele>
        <time>2020-01-26T16:00:30Z</time>
      </trkpt>
      <trkpt lat="9.9256570" lon="-83.8908760">
        <ele>2250.2</ele>
        <time>2020-01-26T16:00:31Z</time>
      </trkpt>
      <trkpt lat="9.9255940" lon="-83.8907120">
        <ele>2251.8</ele>
        <time>2020-01-26T16:00:42Z</time>
      </trkpt>
      <trkpt lat="9.9254800" lon="-83.8906190">
        <ele>2252.9</ele>
        <time>2020-01-26T16:00:51Z</time>
      </trkpt>
      <trkpt lat="9.9253210" lon="-83.8905080">
        <ele>2254.7</ele>
        <time>2020-01-26T16:01:02Z</time>
      </trkpt>
      <trkpt lat="9.9251480" lon="-83.8904470">
        <ele>2256.9</ele>
        <time>2020-01-26T16:01:12Z</time>
      </trkpt>
      <trkpt lat="9.9249590" lon="-83.8904420">
        <ele>2258.8</ele>
        <time>2020-01-26T16:01:21Z</time>
      </trkpt>
      <trkpt lat="9.9247630" lon="-83.8904490">
        <ele>2260.8</ele>
        <time>2020-01-26T16:01:31Z</time>
      </trkpt>
      <trkpt lat="9.9247240" lon="-83.8904500">
        <ele>2261.2</ele>
        <time>2020-01-26T16:01:33Z</time>
      </trkpt>
      <trkpt lat="9.9246360" lon="-83.8904460">
        <ele>2262.2</ele>
        <time>2020-01-26T16:01:38Z</time>
      </trkpt>
      <trkpt lat="9.9245270" lon="-83.8904230">
        <ele>2263.1</ele>
        <time>2020-01-26T16:01:44Z</time>
      </trkpt>
      <trkpt lat="9.9244630" lon="-83.8904040">
        <ele>2263.6</ele>
        <time>2020-01-26T16:01:48Z</time>
      </trkpt>
      <trkpt lat="9.9244330" lon="-83.8903880">
        <ele>2263.9</ele>
        <time>2020-01-26T16:01:50Z</time>
      </trkpt>
      <trkpt lat="9.9243940" lon="-83.8903590">
        <ele>2264.2</ele>
        <time>2020-01-26T16:01:53Z</time>
      </trkpt>
      <trkpt lat="9.9242760" lon="-83.8902180">
        <ele>2265.4</ele>
        <time>2020-01-26T16:02:04Z</time>
      </trkpt>
      <trkpt lat="9.9241960" lon="-83.8900690">
        <ele>2266.5</ele>
        <time>2020-01-26T16:02:14Z</time>
      </trkpt>
      <trkpt lat="9.9241800" lon="-83.8900250">
        <ele>2266.9</ele>
        <time>2020-01-26T16:02:17Z</time>
      </trkpt>
      <trkpt lat="9.9241690" lon="-83.8899770">
        <ele>2267.4</ele>
        <time>2020-01-26T16:02:20Z</time>
      </trkpt>
      <trkpt lat="9.9241590" lon="-83.8899320">
        <ele>2267.9</ele>
        <time>2020-01-26T16:02:23Z</time>
      </trkpt>
      <trkpt lat="9.9241670" lon="-83.8898600">
        <ele>2268.9</ele>
        <time>2020-01-26T16:02:28Z</time>
      </trkpt>
      <trkpt lat="9.9242610" lon="-83.8896920">
        <ele>2271.1</ele>
        <time>2020-01-26T16:02:40Z</time>
      </trkpt>
      <trkpt lat="9.9243300" lon="-83.8895910">
        <ele>2271.9</ele>
        <time>2020-01-26T16:02:47Z</time>
      </trkpt>
      <trkpt lat="9.9243930" lon="-83.8895050">
        <ele>2272.4</ele>
        <time>2020-01-26T16:02:53Z</time>
      </trkpt>
      <trkpt lat="9.9244530" lon="-83.8894070">
        <ele>2273.0</ele>
        <time>2020-01-26T16:02:59Z</time>
      </trkpt>
      <trkpt lat="9.9244920" lon="-83.8893330">
        <ele>2273.4</ele>
        <time>2020-01-26T16:03:04Z</time>
      </trkpt>
      <trkpt lat="9.9245310" lon="-83.8892770">
        <ele>2273.8</ele>
        <time>2020-01-26T16:03:08Z</time>
      </trkpt>
      <trkpt lat="9.9245530" lon="-83.8892320">
        <ele>2274.2</ele>
        <time>2020-01-26T16:03:11Z</time>
      </trkpt>
      <trkpt lat="9.9246040" lon="-83.8891380">
        <ele>2275.1</ele>
        <time>2020-01-26T16:03:18Z</time>
      </trkpt>
      <trkpt lat="9.9246310" lon="-83.8890780">
        <ele>2275.6</ele>
        <time>2020-01-26T16:03:22Z</time>
      </trkpt>
      <trkpt lat="9.9247440" lon="-83.8889300">
        <ele>2277.2</ele>
        <time>2020-01-26T16:03:34Z</time>
      </trkpt>
      <trkpt lat="9.9248400" lon="-83.8888160">
        <ele>2278.9</ele>
        <time>2020-01-26T16:03:43Z</time>
      </trkpt>
      <trkpt lat="9.9249580" lon="-83.8886590">
        <ele>2281.6</ele>
        <time>2020-01-26T16:03:55Z</time>
      </trkpt>
      <trkpt lat="9.9250380" lon="-83.8885450">
        <ele>2283.3</ele>
        <time>2020-01-26T16:04:03Z</time>
      </trkpt>
      <trkpt lat="9.9250630" lon="-83.8885010">
        <ele>2284.0</ele>
        <time>2020-01-26T16:04:06Z</time>
      </trkpt>
      <trkpt lat="9.9250830" lon="-83.8884690">
        <ele>2284.6</ele>
        <time>2020-01-26T16:04:08Z</time>
      </trkpt>
      <trkpt lat="9.9251290" lon="-83.8884030">
        <ele>2285.5</ele>
        <time>2020-01-26T16:04:13Z</time>
      </trkpt>
      <trkpt lat="9.9251930" lon="-83.8883050">
        <ele>2287.2</ele>
        <time>2020-01-26T16:04:20Z</time>
      </trkpt>
      <trkpt lat="9.9253130" lon="-83.8881500">
        <ele>2289.1</ele>
        <time>2020-01-26T16:04:31Z</time>
      </trkpt>
      <trkpt lat="9.9254320" lon="-83.8880110">
        <ele>2290.6</ele>
        <time>2020-01-26T16:04:40Z</time>
      </trkpt>
      <trkpt lat="9.9255300" lon="-83.8879240">
        <ele>2291.6</ele>
        <time>2020-01-26T16:04:46Z</time>
      </trkpt>
      <trkpt lat="9.9256590" lon="-83.8877930">
        <ele>2293.6</ele>
        <time>2020-01-26T16:04:55Z</time>
      </trkpt>
      <trkpt lat="9.9257260" lon="-83.8877250">
        <ele>2294.6</ele>
        <time>2020-01-26T16:05:00Z</time>
      </trkpt>
      <trkpt lat="9.9258530" lon="-83.8875730">
        <ele>2296.6</ele>
        <time>2020-01-26T16:05:11Z</time>
      </trkpt>
      <trkpt lat="9.9259690" lon="-83.8874110">
        <ele>2298.7</ele>
        <time>2020-01-26T16:05:21Z</time>
      </trkpt>
      <trkpt lat="9.9260760" lon="-83.8872580">
        <ele>2301.1</ele>
        <time>2020-01-26T16:05:31Z</time>
      </trkpt>
      <trkpt lat="9.9261950" lon="-83.8871130">
        <ele>2302.9</ele>
        <time>2020-01-26T16:05:41Z</time>
      </trkpt>
      <trkpt lat="9.9262780" lon="-83.8869920">
        <ele>2304.4</ele>
        <time>2020-01-26T16:05:49Z</time>
      </trkpt>
      <trkpt lat="9.9264070" lon="-83.8868550">
        <ele>2306.0</ele>
        <time>2020-01-26T16:05:58Z</time>
      </trkpt>
      <trkpt lat="9.9265550" lon="-83.8867170">
        <ele>2307.4</ele>
        <time>2020-01-26T16:06:07Z</time>
      </trkpt>
      <trkpt lat="9.9267090" lon="-83.8866110">
        <ele>2308.7</ele>
        <time>2020-01-26T16:06:15Z</time>
      </trkpt>
      <trkpt lat="9.9268770" lon="-83.8864920">
        <ele>2310.3</ele>
        <time>2020-01-26T16:06:23Z</time>
      </trkpt>
      <trkpt lat="9.9270450" lon="-83.8864050">
        <ele>2311.6</ele>
        <time>2020-01-26T16:06:31Z</time>
      </trkpt>
      <trkpt lat="9.9272350" lon="-83.8863420">
        <ele>2312.9</ele>
        <time>2020-01-26T16:06:40Z</time>
      </trkpt>
      <trkpt lat="9.9274220" lon="-83.8862910">
        <ele>2314.1</ele>
        <time>2020-01-26T16:06:49Z</time>
      </trkpt>
      <trkpt lat="9.9276150" lon="-83.8862330">
        <ele>2315.8</ele>
        <time>2020-01-26T16:06:58Z</time>
      </trkpt>
      <trkpt lat="9.9278020" lon="-83.8861870">
        <ele>2317.3</ele>
        <time>2020-01-26T16:07:07Z</time>
      </trkpt>
      <trkpt lat="9.9279780" lon="-83.8861070">
        <ele>2319.1</ele>
        <time>2020-01-26T16:07:16Z</time>
      </trkpt>
      <trkpt lat="9.9281600" lon="-83.8860460">
        <ele>2320.6</ele>
        <time>2020-01-26T16:07:25Z</time>
      </trkpt>
      <trkpt lat="9.9283250" lon="-83.8859630">
        <ele>2321.6</ele>
        <time>2020-01-26T16:07:33Z</time>
      </trkpt>
      <trkpt lat="9.9284650" lon="-83.8858890">
        <ele>2322.3</ele>
        <time>2020-01-26T16:07:41Z</time>
      </trkpt>
      <trkpt lat="9.9284600" lon="-83.8858850">
        <ele>2322.3</ele>
        <time>2020-01-26T16:07:53Z</time>
      </trkpt>
      <trkpt lat="9.9284500" lon="-83.8858900">
        <ele>2322.4</ele>
        <time>2020-01-26T16:07:56Z</time>
      </trkpt>
      <trkpt lat="9.9284450" lon="-83.8858910">
        <ele>2322.4</ele>
        <time>2020-01-26T16:08:00Z</time>
      </trkpt>
      <trkpt lat="9.9284420" lon="-83.8858930">
        <ele>2322.4</ele>
        <time>2020-01-26T16:08:03Z</time>
      </trkpt>
      <trkpt lat="9.9284790" lon="-83.8858750">
        <ele>2322.6</ele>
        <time>2020-01-26T16:08:26Z</time>
      </trkpt>
      <trkpt lat="9.9285980" lon="-83.8858580">
        <ele>2323.1</ele>
        <time>2020-01-26T16:08:37Z</time>
      </trkpt>
      <trkpt lat="9.9286350" lon="-83.8858420">
        <ele>2323.3</ele>
        <time>2020-01-26T16:08:39Z</time>
      </trkpt>
      <trkpt lat="9.9286520" lon="-83.8858340">
        <ele>2323.3</ele>
        <time>2020-01-26T16:08:40Z</time>
      </trkpt>
      <trkpt lat="9.9286680" lon="-83.8858270">
        <ele>2323.4</ele>
        <time>2020-01-26T16:08:41Z</time>
      </trkpt>
      <trkpt lat="9.9287050" lon="-83.8858120">
        <ele>2323.6</ele>
        <time>2020-01-26T16:08:43Z</time>
      </trkpt>
      <trkpt lat="9.9288190" lon="-83.8857440">
        <ele>2324.1</ele>
        <time>2020-01-26T16:08:49Z</time>
      </trkpt>
      <trkpt lat="9.9288820" lon="-83.8857140">
        <ele>2324.4</ele>
        <time>2020-01-26T16:08:52Z</time>
      </trkpt>
      <trkpt lat="9.9289430" lon="-83.8856760">
        <ele>2324.8</ele>
        <time>2020-01-26T16:08:55Z</time>
      </trkpt>
      <trkpt lat="9.9290060" lon="-83.8856480">
        <ele>2325.3</ele>
        <time>2020-01-26T16:08:58Z</time>
      </trkpt>
      <trkpt lat="9.9290460" lon="-83.8856300">
        <ele>2325.7</ele>
        <time>2020-01-26T16:09:00Z</time>
      </trkpt>
      <trkpt lat="9.9292230" lon="-83.8855610">
        <ele>2327.0</ele>
        <time>2020-01-26T16:09:08Z</time>
      </trkpt>
      <trkpt lat="9.9292990" lon="-83.8855250">
        <ele>2327.8</ele>
        <time>2020-01-26T16:09:12Z</time>
      </trkpt>
      <trkpt lat="9.9293140" lon="-83.8855160">
        <ele>2327.9</ele>
        <time>2020-01-26T16:09:13Z</time>
      </trkpt>
      <trkpt lat="9.9293290" lon="-83.8855090">
        <ele>2328.1</ele>
        <time>2020-01-26T16:09:14Z</time>
      </trkpt>
      <trkpt lat="9.9293450" lon="-83.8855010">
        <ele>2328.3</ele>
        <time>2020-01-26T16:09:15Z</time>
      </trkpt>
      <trkpt lat="9.9295170" lon="-83.8854150">
        <ele>2330.2</ele>
        <time>2020-01-26T16:09:25Z</time>
      </trkpt>
      <trkpt lat="9.9296830" lon="-83.8853180">
        <ele>2332.2</ele>
        <time>2020-01-26T16:09:35Z</time>
      </trkpt>
      <trkpt lat="9.9298540" lon="-83.8852180">
        <ele>2334.2</ele>
        <time>2020-01-26T16:09:45Z</time>
      </trkpt>
      <trkpt lat="9.9299540" lon="-83.8852150">
        <ele>2335.1</ele>
        <time>2020-01-26T16:09:50Z</time>
      </trkpt>
      <trkpt lat="9.9300030" lon="-83.8851990">
        <ele>2335.7</ele>
        <time>2020-01-26T16:09:54Z</time>
      </trkpt>
      <trkpt lat="9.9300150" lon="-83.8851970">
        <ele>2335.8</ele>
        <time>2020-01-26T16:09:55Z</time>
      </trkpt>
      <trkpt lat="9.9300580" lon="-83.8851690">
        <ele>2336.3</ele>
        <time>2020-01-26T16:09:59Z</time>
      </trkpt>
      <trkpt lat="9.9300960" lon="-83.8851440">
        <ele>2336.8</ele>
        <time>2020-01-26T16:10:03Z</time>
      </trkpt>
      <trkpt lat="9.9301350" lon="-83.8851380">
        <ele>2337.2</ele>
        <time>2020-01-26T16:10:08Z</time>
      </trkpt>
      <trkpt lat="9.9301430" lon="-83.8851310">
        <ele>2337.3</ele>
        <time>2020-01-26T16:10:09Z</time>
      </trkpt>
      <trkpt lat="9.9302080" lon="-83.8850970">
        <ele>2338.1</ele>
        <time>2020-01-26T16:10:16Z</time>
      </trkpt>
      <trkpt lat="9.9302720" lon="-83.8850600">
        <ele>2338.9</ele>
        <time>2020-01-26T16:10:21Z</time>
      </trkpt>
      <trkpt lat="9.9304550" lon="-83.8850000">
        <ele>2340.4</ele>
        <time>2020-01-26T16:10:34Z</time>
      </trkpt>
      <trkpt lat="9.9306290" lon="-83.8849760">
        <ele>2341.7</ele>
        <time>2020-01-26T16:10:47Z</time>
      </trkpt>
      <trkpt lat="9.9306400" lon="-83.8849800">
        <ele>2341.8</ele>
        <time>2020-01-26T16:10:52Z</time>
      </trkpt>
      <trkpt lat="9.9306250" lon="-83.8849880">
        <ele>2341.9</ele>
        <time>2020-01-26T16:11:08Z</time>
      </trkpt>
      <trkpt lat="9.9306360" lon="-83.8849760">
        <ele>2342.0</ele>
        <time>2020-01-26T16:11:12Z</time>
      </trkpt>
      <trkpt lat="9.9306470" lon="-83.8849630">
        <ele>2342.0</ele>
        <time>2020-01-26T16:11:20Z</time>
      </trkpt>
      <trkpt lat="9.9306640" lon="-83.8849550">
        <ele>2342.1</ele>
        <time>2020-01-26T16:11:25Z</time>
      </trkpt>
      <trkpt lat="9.9307820" lon="-83.8849050">
        <ele>2342.7</ele>
        <time>2020-01-26T16:11:32Z</time>
      </trkpt>
      <trkpt lat="9.9309650" lon="-83.8848520">
        <ele>2343.3</ele>
        <time>2020-01-26T16:11:41Z</time>
      </trkpt>
      <trkpt lat="9.9311220" lon="-83.8847870">
        <ele>2343.7</ele>
        <time>2020-01-26T16:11:49Z</time>
      </trkpt>
      <trkpt lat="9.9312310" lon="-83.8847420">
        <ele>2343.9</ele>
        <time>2020-01-26T16:11:53Z</time>
      </trkpt>
      <trkpt lat="9.9313650" lon="-83.8847110">
        <ele>2344.0</ele>
        <time>2020-01-26T16:11:57Z</time>
      </trkpt>
      <trkpt lat="9.9315220" lon="-83.8846720">
        <ele>2344.0</ele>
        <time>2020-01-26T16:12:02Z</time>
      </trkpt>
      <trkpt lat="9.9317140" lon="-83.8845980">
        <ele>2344.0</ele>
        <time>2020-01-26T16:12:09Z</time>
      </trkpt>
      <trkpt lat="9.9317970" lon="-83.8845590">
        <ele>2343.9</ele>
        <time>2020-01-26T16:12:12Z</time>
      </trkpt>
      <trkpt lat="9.9319160" lon="-83.8845210">
        <ele>2343.8</ele>
        <time>2020-01-26T16:12:16Z</time>
      </trkpt>
      <trkpt lat="9.9320790" lon="-83.8844580">
        <ele>2343.5</ele>
        <time>2020-01-26T16:12:22Z</time>
      </trkpt>
      <trkpt lat="9.9321310" lon="-83.8844360">
        <ele>2343.3</ele>
        <time>2020-01-26T16:12:24Z</time>
      </trkpt>
      <trkpt lat="9.9322040" lon="-83.8843640">
        <ele>2342.0</ele>
        <time>2020-01-26T16:12:28Z</time>
      </trkpt>
      <trkpt lat="9.9321980" lon="-83.8842450">
        <ele>2341.7</ele>
        <time>2020-01-26T16:12:32Z</time>
      </trkpt>
      <trkpt lat="9.9321810" lon="-83.8841360">
        <ele>2341.6</ele>
        <time>2020-01-26T16:12:35Z</time>
      </trkpt>
      <trkpt lat="9.9321530" lon="-83.8839620">
        <ele>2341.3</ele>
        <time>2020-01-26T16:12:47Z</time>
      </trkpt>
      <trkpt lat="9.9321460" lon="-83.8839500">
        <ele>2341.3</ele>
        <time>2020-01-26T16:12:48Z</time>
      </trkpt>
      <trkpt lat="9.9321180" lon="-83.8838610">
        <ele>2340.9</ele>
        <time>2020-01-26T16:12:54Z</time>
      </trkpt>
      <trkpt lat="9.9321280" lon="-83.8838500">
        <ele>2340.9</ele>
        <time>2020-01-26T16:12:58Z</time>
      </trkpt>
      <trkpt lat="9.9321330" lon="-83.8838410">
        <ele>2340.8</ele>
        <time>2020-01-26T16:13:03Z</time>
      </trkpt>
      <trkpt lat="9.9321300" lon="-83.8838510">
        <ele>2340.8</ele>
        <time>2020-01-26T16:13:06Z</time>
      </trkpt>
      <trkpt lat="9.9321320" lon="-83.8838610">
        <ele>2340.8</ele>
        <time>2020-01-26T16:13:10Z</time>
      </trkpt>
      <trkpt lat="9.9321260" lon="-83.8838620">
        <ele>2340.8</ele>
        <time>2020-01-26T16:13:18Z</time>
      </trkpt>
      <trkpt lat="9.9321280" lon="-83.8838640">
        <ele>2340.7</ele>
        <time>2020-01-26T16:13:19Z</time>
      </trkpt>
      <trkpt lat="9.9321280" lon="-83.8838680">
        <ele>2340.7</ele>
        <time>2020-01-26T16:13:20Z</time>
      </trkpt>
      <trkpt lat="9.9321280" lon="-83.8838720">
        <ele>2340.7</ele>
        <time>2020-01-26T16:13:21Z</time>
      </trkpt>
      <trkpt lat="9.9321280" lon="-83.8838720">
        <ele>2340.7</ele>
        <time>2020-01-26T16:13:22Z</time>
      </trkpt>
      <trkpt lat="9.9321290" lon="-83.8838730">
        <ele>2340.7</ele>
        <time>2020-01-26T16:13:23Z</time>
      </trkpt>
      <trkpt lat="9.9321270" lon="-83.8838750">
        <ele>2340.7</ele>
        <time>2020-01-26T16:13:24Z</time>
      </trkpt>
      <trkpt lat="9.9321250" lon="-83.8838770">
        <ele>2340.7</ele>
        <time>2020-01-26T16:13:25Z</time>
      </trkpt>
      <trkpt lat="9.9321190" lon="-83.8838830">
        <ele>2340.7</ele>
        <time>2020-01-26T16:13:39Z</time>
      </trkpt>
      <trkpt lat="9.9321160" lon="-83.8838820">
        <ele>2340.7</ele>
        <time>2020-01-26T16:13:43Z</time>
      </trkpt>
      <trkpt lat="9.9321050" lon="-83.8839040">
        <ele>2340.6</ele>
        <time>2020-01-26T16:14:04Z</time>
      </trkpt>
      <trkpt lat="9.9321110" lon="-83.8839030">
        <ele>2340.6</ele>
        <time>2020-01-26T16:14:10Z</time>
      </trkpt>
      <trkpt lat="9.9321120" lon="-83.8839030">
        <ele>2340.6</ele>
        <time>2020-01-26T16:14:12Z</time>
      </trkpt>
      <trkpt lat="9.9321110" lon="-83.8839000">
        <ele>2340.6</ele>
        <time>2020-01-26T16:14:13Z</time>
      </trkpt>
      <trkpt lat="9.9321070" lon="-83.8839000">
        <ele>2340.6</ele>
        <time>2020-01-26T16:14:14Z</time>
      </trkpt>
      <trkpt lat="9.9321000" lon="-83.8838990">
        <ele>2340.6</ele>
        <time>2020-01-26T16:14:16Z</time>
      </trkpt>
      <trkpt lat="9.9320990" lon="-83.8838980">
        <ele>2340.5</ele>
        <time>2020-01-26T16:14:21Z</time>
      </trkpt>
      <trkpt lat="9.9321210" lon="-83.8838850">
        <ele>2340.5</ele>
        <time>2020-01-26T16:14:37Z</time>
      </trkpt>
      <trkpt lat="9.9321100" lon="-83.8838750">
        <ele>2340.4</ele>
        <time>2020-01-26T16:14:43Z</time>
      </trkpt>
      <trkpt lat="9.9321030" lon="-83.8838620">
        <ele>2340.4</ele>
        <time>2020-01-26T16:14:47Z</time>
      </trkpt>
      <trkpt lat="9.9321020" lon="-83.8838570">
        <ele>2340.4</ele>
        <time>2020-01-26T16:14:48Z</time>
      </trkpt>
      <trkpt lat="9.9321020" lon="-83.8838530">
        <ele>2340.4</ele>
        <time>2020-01-26T16:14:49Z</time>
      </trkpt>
      <trkpt lat="9.9321020" lon="-83.8838500">
        <ele>2340.4</ele>
        <time>2020-01-26T16:14:50Z</time>
      </trkpt>
      <trkpt lat="9.9321080" lon="-83.8838770">
        <ele>2340.3</ele>
        <time>2020-01-26T16:14:56Z</time>
      </trkpt>
      <trkpt lat="9.9321090" lon="-83.8838680">
        <ele>2340.3</ele>
        <time>2020-01-26T16:15:02Z</time>
      </trkpt>
      <trkpt lat="9.9321110" lon="-83.8838780">
        <ele>2340.3</ele>
        <time>2020-01-26T16:15:19Z</time>
      </trkpt>
      <trkpt lat="9.9321110" lon="-83.8838790">
        <ele>2340.3</ele>
        <time>2020-01-26T16:15:20Z</time>
      </trkpt>
      <trkpt lat="9.9321120" lon="-83.8838760">
        <ele>2340.3</ele>
        <time>2020-01-26T16:15:22Z</time>
      </trkpt>
      <trkpt lat="9.9321240" lon="-83.8838660">
        <ele>2340.2</ele>
        <time>2020-01-26T16:15:33Z</time>
      </trkpt>
      <trkpt lat="9.9321230" lon="-83.8838580">
        <ele>2340.2</ele>
        <time>2020-01-26T16:15:44Z</time>
      </trkpt>
      <trkpt lat="9.9321310" lon="-83.8838490">
        <ele>2340.2</ele>
        <time>2020-01-26T16:16:06Z</time>
      </trkpt>
      <trkpt lat="9.9321210" lon="-83.8838530">
        <ele>2340.2</ele>
        <time>2020-01-26T16:16:10Z</time>
      </trkpt>
      <trkpt lat="9.9321170" lon="-83.8838620">
        <ele>2340.2</ele>
        <time>2020-01-26T16:16:12Z</time>
      </trkpt>
      <trkpt lat="9.9321160" lon="-83.8838730">
        <ele>2340.2</ele>
        <time>2020-01-26T16:16:16Z</time>
      </trkpt>
      <trkpt lat="9.9321150" lon="-83.8838730">
        <ele>2340.2</ele>
        <time>2020-01-26T16:16:18Z</time>
      </trkpt>
      <trkpt lat="9.9321190" lon="-83.8838730">
        <ele>2340.2</ele>
        <time>2020-01-26T16:16:20Z</time>
      </trkpt>
      <trkpt lat="9.9321180" lon="-83.8838760">
        <ele>2340.2</ele>
        <time>2020-01-26T16:16:22Z</time>
      </trkpt>
      <trkpt lat="9.9321190" lon="-83.8838770">
        <ele>2340.2</ele>
        <time>2020-01-26T16:16:23Z</time>
      </trkpt>
      <trkpt lat="9.9321190" lon="-83.8838760">
        <ele>2340.2</ele>
        <time>2020-01-26T16:16:24Z</time>
      </trkpt>
      <trkpt lat="9.9321210" lon="-83.8838740">
        <ele>2340.2</ele>
        <time>2020-01-26T16:16:29Z</time>
      </trkpt>
      <trkpt lat="9.9321240" lon="-83.8838740">
        <ele>2340.2</ele>
        <time>2020-01-26T16:16:32Z</time>
      </trkpt>
      <trkpt lat="9.9321240" lon="-83.8838750">
        <ele>2340.2</ele>
        <time>2020-01-26T16:16:33Z</time>
      </trkpt>
      <trkpt lat="9.9321250" lon="-83.8838770">
        <ele>2340.2</ele>
        <time>2020-01-26T16:16:34Z</time>
      </trkpt>
      <trkpt lat="9.9321270" lon="-83.8838790">
        <ele>2340.2</ele>
        <time>2020-01-26T16:16:36Z</time>
      </trkpt>
      <trkpt lat="9.9321250" lon="-83.8838770">
        <ele>2340.2</ele>
        <time>2020-01-26T16:16:41Z</time>
      </trkpt>
      <trkpt lat="9.9321230" lon="-83.8838750">
        <ele>2340.2</ele>
        <time>2020-01-26T16:16:48Z</time>
      </trkpt>
      <trkpt lat="9.9321160" lon="-83.8838730">
        <ele>2340.2</ele>
        <time>2020-01-26T16:16:56Z</time>
      </trkpt>
      <trkpt lat="9.9321160" lon="-83.8838590">
        <ele>2340.1</ele>
        <time>2020-01-26T16:17:03Z</time>
      </trkpt>
      <trkpt lat="9.9321230" lon="-83.8838680">
        <ele>2340.1</ele>
        <time>2020-01-26T16:17:11Z</time>
      </trkpt>
      <trkpt lat="9.9321230" lon="-83.8838670">
        <ele>2340.1</ele>
        <time>2020-01-26T16:17:12Z</time>
      </trkpt>
      <trkpt lat="9.9321290" lon="-83.8838580">
        <ele>2340.1</ele>
        <time>2020-01-26T16:17:18Z</time>
      </trkpt>
      <trkpt lat="9.9321300" lon="-83.8838600">
        <ele>2340.1</ele>
        <time>2020-01-26T16:17:27Z</time>
      </trkpt>
      <trkpt lat="9.9321320" lon="-83.8838600">
        <ele>2340.1</ele>
        <time>2020-01-26T16:17:28Z</time>
      </trkpt>
      <trkpt lat="9.9321350" lon="-83.8838620">
        <ele>2340.1</ele>
        <time>2020-01-26T16:17:29Z</time>
      </trkpt>
      <trkpt lat="9.9321340" lon="-83.8838570">
        <ele>2340.1</ele>
        <time>2020-01-26T16:17:31Z</time>
      </trkpt>
      <trkpt lat="9.9321350" lon="-83.8838540">
        <ele>2340.1</ele>
        <time>2020-01-26T16:17:33Z</time>
      </trkpt>
      <trkpt lat="9.9321390" lon="-83.8838560">
        <ele>2340.1</ele>
        <time>2020-01-26T16:17:35Z</time>
      </trkpt>
      <trkpt lat="9.9321420" lon="-83.8838660">
        <ele>2340.1</ele>
        <time>2020-01-26T16:17:42Z</time>
      </trkpt>
      <trkpt lat="9.9321320" lon="-83.8838740">
        <ele>2340.1</ele>
        <time>2020-01-26T16:17:45Z</time>
      </trkpt>
      <trkpt lat="9.9321310" lon="-83.8838710">
        <ele>2340.0</ele>
        <time>2020-01-26T16:17:50Z</time>
      </trkpt>
      <trkpt lat="9.9321310" lon="-83.8838770">
        <ele>2340.0</ele>
        <time>2020-01-26T16:17:52Z</time>
      </trkpt>
      <trkpt lat="9.9321260" lon="-83.8838860">
        <ele>2339.9</ele>
        <time>2020-01-26T16:18:01Z</time>
      </trkpt>
      <trkpt lat="9.9321020" lon="-83.8839360">
        <ele>2339.6</ele>
        <time>2020-01-26T16:18:07Z</time>
      </trkpt>
      <trkpt lat="9.9320850" lon="-83.8840320">
        <ele>2340.2</ele>
        <time>2020-01-26T16:18:12Z</time>
      </trkpt>
      <trkpt lat="9.9321110" lon="-83.8840950">
        <ele>2340.5</ele>
        <time>2020-01-26T16:18:15Z</time>
      </trkpt>
      <trkpt lat="9.9321590" lon="-83.8842480">
        <ele>2341.6</ele>
        <time>2020-01-26T16:18:22Z</time>
      </trkpt>
      <trkpt lat="9.9321730" lon="-83.8842900">
        <ele>2341.6</ele>
        <time>2020-01-26T16:18:24Z</time>
      </trkpt>
      <trkpt lat="9.9321800" lon="-83.8843260">
        <ele>2341.7</ele>
        <time>2020-01-26T16:18:26Z</time>
      </trkpt>
      <trkpt lat="9.9321850" lon="-83.8843540">
        <ele>2341.8</ele>
        <time>2020-01-26T16:18:28Z</time>
      </trkpt>
      <trkpt lat="9.9321830" lon="-83.8843940">
        <ele>2342.1</ele>
        <time>2020-01-26T16:18:31Z</time>
      </trkpt>
      <trkpt lat="9.9321540" lon="-83.8844230">
        <ele>2343.3</ele>
        <time>2020-01-26T16:18:33Z</time>
      </trkpt>
      <trkpt lat="9.9319990" lon="-83.8844960">
        <ele>2343.8</ele>
        <time>2020-01-26T16:18:39Z</time>
      </trkpt>
      <trkpt lat="9.9318140" lon="-83.8845680">
        <ele>2343.9</ele>
        <time>2020-01-26T16:18:44Z</time>
      </trkpt>
      <trkpt lat="9.9317310" lon="-83.8845990">
        <ele>2343.9</ele>
        <time>2020-01-26T16:18:46Z</time>
      </trkpt>
      <trkpt lat="9.9315500" lon="-83.8846640">
        <ele>2344.0</ele>
        <time>2020-01-26T16:18:50Z</time>
      </trkpt>
      <trkpt lat="9.9313400" lon="-83.8847240">
        <ele>2344.0</ele>
        <time>2020-01-26T16:18:54Z</time>
      </trkpt>
      <trkpt lat="9.9311780" lon="-83.8846830">
        <ele>2343.7</ele>
        <time>2020-01-26T16:18:57Z</time>
      </trkpt>
      <trkpt lat="9.9310550" lon="-83.8845090">
        <ele>2342.8</ele>
        <time>2020-01-26T16:19:00Z</time>
      </trkpt>
      <trkpt lat="9.9310160" lon="-83.8843280">
        <ele>2342.0</ele>
        <time>2020-01-26T16:19:02Z</time>
      </trkpt>
      <trkpt lat="9.9309980" lon="-83.8842310">
        <ele>2341.5</ele>
        <time>2020-01-26T16:19:03Z</time>
      </trkpt>
      <trkpt lat="9.9309590" lon="-83.8840190">
        <ele>2340.4</ele>
        <time>2020-01-26T16:19:05Z</time>
      </trkpt>
      <trkpt lat="9.9309380" lon="-83.8839060">
        <ele>2339.6</ele>
        <time>2020-01-26T16:19:06Z</time>
      </trkpt>
      <trkpt lat="9.9308990" lon="-83.8836770">
        <ele>2337.1</ele>
        <time>2020-01-26T16:19:08Z</time>
      </trkpt>
      <trkpt lat="9.9308610" lon="-83.8834480">
        <ele>2335.3</ele>
        <time>2020-01-26T16:19:10Z</time>
      </trkpt>
      <trkpt lat="9.9308280" lon="-83.8832350">
        <ele>2335.0</ele>
        <time>2020-01-26T16:19:12Z</time>
      </trkpt>
      <trkpt lat="9.9308060" lon="-83.8830420">
        <ele>2335.0</ele>
        <time>2020-01-26T16:19:14Z</time>
      </trkpt>
      <trkpt lat="9.9307870" lon="-83.8828800">
        <ele>2335.0</ele>
        <time>2020-01-26T16:19:16Z</time>
      </trkpt>
      <trkpt lat="9.9307670" lon="-83.8826870">
        <ele>2335.5</ele>
        <time>2020-01-26T16:19:19Z</time>
      </trkpt>
      <trkpt lat="9.9307300" lon="-83.8824870">
        <ele>2335.9</ele>
        <time>2020-01-26T16:19:23Z</time>
      </trkpt>
      <trkpt lat="9.9307120" lon="-83.8824420">
        <ele>2336.0</ele>
        <time>2020-01-26T16:19:24Z</time>
      </trkpt>
      <trkpt lat="9.9305830" lon="-83.8823160">
        <ele>2336.1</ele>
        <time>2020-01-26T16:19:28Z</time>
      </trkpt>
      <trkpt lat="9.9305440" lon="-83.8822970">
        <ele>2336.1</ele>
        <time>2020-01-26T16:19:29Z</time>
      </trkpt>
      <trkpt lat="9.9304370" lon="-83.8822910">
        <ele>2336.1</ele>
        <time>2020-01-26T16:19:31Z</time>
      </trkpt>
      <trkpt lat="9.9303360" lon="-83.8823120">
        <ele>2336.2</ele>
        <time>2020-01-26T16:19:33Z</time>
      </trkpt>
      <trkpt lat="9.9302460" lon="-83.8823610">
        <ele>2336.2</ele>
        <time>2020-01-26T16:19:35Z</time>
      </trkpt>
      <trkpt lat="9.9300720" lon="-83.8824690">
        <ele>2336.1</ele>
        <time>2020-01-26T16:19:39Z</time>
      </trkpt>
      <trkpt lat="9.9298810" lon="-83.8825940">
        <ele>2335.6</ele>
        <time>2020-01-26T16:19:43Z</time>
      </trkpt>
      <trkpt lat="9.9297210" lon="-83.8826950">
        <ele>2335.1</ele>
        <time>2020-01-26T16:19:46Z</time>
      </trkpt>
      <trkpt lat="9.9296660" lon="-83.8827300">
        <ele>2334.9</ele>
        <time>2020-01-26T16:19:47Z</time>
      </trkpt>
      <trkpt lat="9.9295000" lon="-83.8828370">
        <ele>2334.5</ele>
        <time>2020-01-26T16:19:50Z</time>
      </trkpt>
      <trkpt lat="9.9293340" lon="-83.8829370">
        <ele>2334.4</ele>
        <time>2020-01-26T16:19:53Z</time>
      </trkpt>
      <trkpt lat="9.9291730" lon="-83.8830320">
        <ele>2334.4</ele>
        <time>2020-01-26T16:19:56Z</time>
      </trkpt>
      <trkpt lat="9.9289760" lon="-83.8831510">
        <ele>2334.4</ele>
        <time>2020-01-26T16:20:00Z</time>
      </trkpt>
      <trkpt lat="9.9289290" lon="-83.8831800">
        <ele>2334.4</ele>
        <time>2020-01-26T16:20:01Z</time>
      </trkpt>
      <trkpt lat="9.9287480" lon="-83.8832860">
        <ele>2334.4</ele>
        <time>2020-01-26T16:20:05Z</time>
      </trkpt>
      <trkpt lat="9.9287050" lon="-83.8833110">
        <ele>2334.4</ele>
        <time>2020-01-26T16:20:06Z</time>
      </trkpt>
      <trkpt lat="9.9286220" lon="-83.8833560">
        <ele>2334.4</ele>
        <time>2020-01-26T16:20:08Z</time>
      </trkpt>
      <trkpt lat="9.9284300" lon="-83.8834300">
        <ele>2334.0</ele>
        <time>2020-01-26T16:20:13Z</time>
      </trkpt>
      <trkpt lat="9.9283670" lon="-83.8834290">
        <ele>2333.7</ele>
        <time>2020-01-26T16:20:15Z</time>
      </trkpt>
      <trkpt lat="9.9283220" lon="-83.8833740">
        <ele>2334.0</ele>
        <time>2020-01-26T16:20:18Z</time>
      </trkpt>
      <trkpt lat="9.9283840" lon="-83.8832790">
        <ele>2335.0</ele>
        <time>2020-01-26T16:20:22Z</time>
      </trkpt>
      <trkpt lat="9.9284030" lon="-83.8832620">
        <ele>2335.2</ele>
        <time>2020-01-26T16:20:23Z</time>
      </trkpt>
      <trkpt lat="9.9284200" lon="-83.8832420">
        <ele>2335.5</ele>
        <time>2020-01-26T16:20:24Z</time>
      </trkpt>
      <trkpt lat="9.9285090" lon="-83.8831610">
        <ele>2336.6</ele>
        <time>2020-01-26T16:20:29Z</time>
      </trkpt>
      <trkpt lat="9.9285420" lon="-83.8831200">
        <ele>2337.0</ele>
        <time>2020-01-26T16:20:31Z</time>
      </trkpt>
      <trkpt lat="9.9285920" lon="-83.8830640">
        <ele>2337.7</ele>
        <time>2020-01-26T16:20:34Z</time>
      </trkpt>
      <trkpt lat="9.9286290" lon="-83.8830160">
        <ele>2338.3</ele>
        <time>2020-01-26T16:20:36Z</time>
      </trkpt>
      <trkpt lat="9.9286470" lon="-83.8829900">
        <ele>2338.6</ele>
        <time>2020-01-26T16:20:37Z</time>
      </trkpt>
      <trkpt lat="9.9286810" lon="-83.8829420">
        <ele>2339.1</ele>
        <time>2020-01-26T16:20:39Z</time>
      </trkpt>
      <trkpt lat="9.9287210" lon="-83.8828960">
        <ele>2339.6</ele>
        <time>2020-01-26T16:20:41Z</time>
      </trkpt>
      <trkpt lat="9.9287420" lon="-83.8828740">
        <ele>2339.8</ele>
        <time>2020-01-26T16:20:42Z</time>
      </trkpt>
      <trkpt lat="9.9288680" lon="-83.8827360">
        <ele>2341.5</ele>
        <time>2020-01-26T16:20:49Z</time>
      </trkpt>
      <trkpt lat="9.9289970" lon="-83.8825960">
        <ele>2343.2</ele>
        <time>2020-01-26T16:20:57Z</time>
      </trkpt>
      <trkpt lat="9.9291050" lon="-83.8824740">
        <ele>2344.7</ele>
        <time>2020-01-26T16:21:04Z</time>
      </trkpt>
      <trkpt lat="9.9292330" lon="-83.8823430">
        <ele>2346.5</ele>
        <time>2020-01-26T16:21:12Z</time>
      </trkpt>
      <trkpt lat="9.9292830" lon="-83.8823020">
        <ele>2347.0</ele>
        <time>2020-01-26T16:21:15Z</time>
      </trkpt>
      <trkpt lat="9.9293020" lon="-83.8822880">
        <ele>2347.1</ele>
        <time>2020-01-26T16:21:16Z</time>
      </trkpt>
      <trkpt lat="9.9293390" lon="-83.8822590">
        <ele>2347.5</ele>
        <time>2020-01-26T16:21:18Z</time>
      </trkpt>
      <trkpt lat="9.9293560" lon="-83.8822440">
        <ele>2347.6</ele>
        <time>2020-01-26T16:21:19Z</time>
      </trkpt>
      <trkpt lat="9.9293740" lon="-83.8822300">
        <ele>2347.8</ele>
        <time>2020-01-26T16:21:20Z</time>
      </trkpt>
      <trkpt lat="9.9293900" lon="-83.8822130">
        <ele>2348.0</ele>
        <time>2020-01-26T16:21:21Z</time>
      </trkpt>
      <trkpt lat="9.9294070" lon="-83.8821980">
        <ele>2348.1</ele>
        <time>2020-01-26T16:21:22Z</time>
      </trkpt>
      <trkpt lat="9.9294250" lon="-83.8821830">
        <ele>2348.4</ele>
        <time>2020-01-26T16:21:23Z</time>
      </trkpt>
      <trkpt lat="9.9294420" lon="-83.8821680">
        <ele>2348.6</ele>
        <time>2020-01-26T16:21:24Z</time>
      </trkpt>
      <trkpt lat="9.9294590" lon="-83.8821540">
        <ele>2348.7</ele>
        <time>2020-01-26T16:21:25Z</time>
      </trkpt>
      <trkpt lat="9.9294950" lon="-83.8821290">
        <ele>2349.1</ele>
        <time>2020-01-26T16:21:27Z</time>
      </trkpt>
      <trkpt lat="9.9295360" lon="-83.8821040">
        <ele>2349.3</ele>
        <time>2020-01-26T16:21:29Z</time>
      </trkpt>
      <trkpt lat="9.9296020" lon="-83.8820600">
        <ele>2349.7</ele>
        <time>2020-01-26T16:21:33Z</time>
      </trkpt>
      <trkpt lat="9.9297660" lon="-83.8819620">
        <ele>2350.9</ele>
        <time>2020-01-26T16:21:42Z</time>
      </trkpt>
      <trkpt lat="9.9299240" lon="-83.8818700">
        <ele>2352.4</ele>
        <time>2020-01-26T16:21:51Z</time>
      </trkpt>
      <trkpt lat="9.9300820" lon="-83.8817620">
        <ele>2354.3</ele>
        <time>2020-01-26T16:22:00Z</time>
      </trkpt>
      <trkpt lat="9.9302440" lon="-83.8816530">
        <ele>2355.8</ele>
        <time>2020-01-26T16:22:09Z</time>
      </trkpt>
      <trkpt lat="9.9303680" lon="-83.8815170">
        <ele>2357.4</ele>
        <time>2020-01-26T16:22:18Z</time>
      </trkpt>
      <trkpt lat="9.9304720" lon="-83.8813580">
        <ele>2359.3</ele>
        <time>2020-01-26T16:22:27Z</time>
      </trkpt>
      <trkpt lat="9.9305780" lon="-83.8812040">
        <ele>2361.1</ele>
        <time>2020-01-26T16:22:36Z</time>
      </trkpt>
      <trkpt lat="9.9306790" lon="-83.8810430">
        <ele>2363.3</ele>
        <time>2020-01-26T16:22:45Z</time>
      </trkpt>
      <trkpt lat="9.9307810" lon="-83.8808820">
        <ele>2365.1</ele>
        <time>2020-01-26T16:22:54Z</time>
      </trkpt>
      <trkpt lat="9.9308910" lon="-83.8807140">
        <ele>2367.1</ele>
        <time>2020-01-26T16:23:03Z</time>
      </trkpt>
      <trkpt lat="9.9310110" lon="-83.8805530">
        <ele>2369.2</ele>
        <time>2020-01-26T16:23:13Z</time>
      </trkpt>
      <trkpt lat="9.9310930" lon="-83.8803710">
        <ele>2371.0</ele>
        <time>2020-01-26T16:23:23Z</time>
      </trkpt>
      <trkpt lat="9.9311000" lon="-83.8801740">
        <ele>2372.8</ele>
        <time>2020-01-26T16:23:34Z</time>
      </trkpt>
      <trkpt lat="9.9310240" lon="-83.8800080">
        <ele>2374.6</ele>
        <time>2020-01-26T16:23:44Z</time>
      </trkpt>
      <trkpt lat="9.9308990" lon="-83.8798600">
        <ele>2376.7</ele>
        <time>2020-01-26T16:23:53Z</time>
      </trkpt>
      <trkpt lat="9.9307570" lon="-83.8797160">
        <ele>2378.6</ele>
        <time>2020-01-26T16:24:02Z</time>
      </trkpt>
      <trkpt lat="9.9306090" lon="-83.8795880">
        <ele>2380.2</ele>
        <time>2020-01-26T16:24:10Z</time>
      </trkpt>
      <trkpt lat="9.9304330" lon="-83.8795310">
        <ele>2381.4</ele>
        <time>2020-01-26T16:24:17Z</time>
      </trkpt>
      <trkpt lat="9.9303190" lon="-83.8795210">
        <ele>2382.2</ele>
        <time>2020-01-26T16:24:21Z</time>
      </trkpt>
      <trkpt lat="9.9302460" lon="-83.8795400">
        <ele>2382.5</ele>
        <time>2020-01-26T16:24:23Z</time>
      </trkpt>
      <trkpt lat="9.9300750" lon="-83.8796110">
        <ele>2383.1</ele>
        <time>2020-01-26T16:24:28Z</time>
      </trkpt>
      <trkpt lat="9.9299060" lon="-83.8797190">
        <ele>2384.0</ele>
        <time>2020-01-26T16:24:33Z</time>
      </trkpt>
      <trkpt lat="9.9297980" lon="-83.8797850">
        <ele>2384.5</ele>
        <time>2020-01-26T16:24:36Z</time>
      </trkpt>
      <trkpt lat="9.9296060" lon="-83.8798610">
        <ele>2384.9</ele>
        <time>2020-01-26T16:24:41Z</time>
      </trkpt>
      <trkpt lat="9.9295630" lon="-83.8798660">
        <ele>2384.9</ele>
        <time>2020-01-26T16:24:42Z</time>
      </trkpt>
      <trkpt lat="9.9294810" lon="-83.8798570">
        <ele>2385.1</ele>
        <time>2020-01-26T16:24:44Z</time>
      </trkpt>
      <trkpt lat="9.9294420" lon="-83.8798420">
        <ele>2385.2</ele>
        <time>2020-01-26T16:24:45Z</time>
      </trkpt>
      <trkpt lat="9.9292960" lon="-83.8797360">
        <ele>2385.5</ele>
        <time>2020-01-26T16:24:49Z</time>
      </trkpt>
      <trkpt lat="9.9292280" lon="-83.8795300">
        <ele>2385.5</ele>
        <time>2020-01-26T16:24:54Z</time>
      </trkpt>
      <trkpt lat="9.9292720" lon="-83.8793710">
        <ele>2385.2</ele>
        <time>2020-01-26T16:24:58Z</time>
      </trkpt>
      <trkpt lat="9.9294130" lon="-83.8792310">
        <ele>2385.1</ele>
        <time>2020-01-26T16:25:03Z</time>
      </trkpt>
      <trkpt lat="9.9295410" lon="-83.8791840">
        <ele>2385.4</ele>
        <time>2020-01-26T16:25:07Z</time>
      </trkpt>
      <trkpt lat="9.9297300" lon="-83.8791640">
        <ele>2385.9</ele>
        <time>2020-01-26T16:25:13Z</time>
      </trkpt>
      <trkpt lat="9.9299330" lon="-83.8791600">
        <ele>2386.9</ele>
        <time>2020-01-26T16:25:20Z</time>
      </trkpt>
      <trkpt lat="9.9300680" lon="-83.8791590">
        <ele>2387.6</ele>
        <time>2020-01-26T16:25:26Z</time>
      </trkpt>
      <trkpt lat="9.9301120" lon="-83.8791610">
        <ele>2387.9</ele>
        <time>2020-01-26T16:25:28Z</time>
      </trkpt>
      <trkpt lat="9.9301360" lon="-83.8791590">
        <ele>2388.1</ele>
        <time>2020-01-26T16:25:29Z</time>
      </trkpt>
      <trkpt lat="9.9302040" lon="-83.8791510">
        <ele>2388.7</ele>
        <time>2020-01-26T16:25:32Z</time>
      </trkpt>
      <trkpt lat="9.9303580" lon="-83.8791470">
        <ele>2390.0</ele>
        <time>2020-01-26T16:25:39Z</time>
      </trkpt>
      <trkpt lat="9.9305010" lon="-83.8791370">
        <ele>2391.0</ele>
        <time>2020-01-26T16:25:46Z</time>
      </trkpt>
      <trkpt lat="9.9306290" lon="-83.8791320">
        <ele>2392.1</ele>
        <time>2020-01-26T16:25:52Z</time>
      </trkpt>
      <trkpt lat="9.9306500" lon="-83.8791330">
        <ele>2392.3</ele>
        <time>2020-01-26T16:25:53Z</time>
      </trkpt>
      <trkpt lat="9.9307130" lon="-83.8791320">
        <ele>2392.8</ele>
        <time>2020-01-26T16:25:56Z</time>
      </trkpt>
      <trkpt lat="9.9308200" lon="-83.8791290">
        <ele>2393.6</ele>
        <time>2020-01-26T16:26:01Z</time>
      </trkpt>
      <trkpt lat="9.9310110" lon="-83.8791150">
        <ele>2395.7</ele>
        <time>2020-01-26T16:26:10Z</time>
      </trkpt>
      <trkpt lat="9.9311950" lon="-83.8791180">
        <ele>2397.5</ele>
        <time>2020-01-26T16:26:19Z</time>
      </trkpt>
      <trkpt lat="9.9313760" lon="-83.8791190">
        <ele>2399.4</ele>
        <time>2020-01-26T16:26:28Z</time>
      </trkpt>
      <trkpt lat="9.9315710" lon="-83.8791170">
        <ele>2401.3</ele>
        <time>2020-01-26T16:26:38Z</time>
      </trkpt>
      <trkpt lat="9.9317480" lon="-83.8791870">
        <ele>2403.2</ele>
        <time>2020-01-26T16:26:45Z</time>
      </trkpt>
      <trkpt lat="9.9318270" lon="-83.8792010">
        <ele>2404.0</ele>
        <time>2020-01-26T16:26:49Z</time>
      </trkpt>
      <trkpt lat="9.9318540" lon="-83.8792310">
        <ele>2404.5</ele>
        <time>2020-01-26T16:26:53Z</time>
      </trkpt>
      <trkpt lat="9.9318670" lon="-83.8792460">
        <ele>2404.7</ele>
        <time>2020-01-26T16:26:56Z</time>
      </trkpt>
      <trkpt lat="9.9318670" lon="-83.8792870">
        <ele>2405.1</ele>
        <time>2020-01-26T16:27:00Z</time>
      </trkpt>
      <trkpt lat="9.9318580" lon="-83.8793180">
        <ele>2405.5</ele>
        <time>2020-01-26T16:27:03Z</time>
      </trkpt>
      <trkpt lat="9.9318560" lon="-83.8793530">
        <ele>2405.8</ele>
        <time>2020-01-26T16:27:07Z</time>
      </trkpt>
      <trkpt lat="9.9318580" lon="-83.8793700">
        <ele>2406.0</ele>
        <time>2020-01-26T16:27:11Z</time>
      </trkpt>
      <trkpt lat="9.9318560" lon="-83.8793680">
        <ele>2406.0</ele>
        <time>2020-01-26T16:27:19Z</time>
      </trkpt>
      <trkpt lat="9.9318440" lon="-83.8793710">
        <ele>2406.1</ele>
        <time>2020-01-26T16:27:25Z</time>
      </trkpt>
      <trkpt lat="9.9318320" lon="-83.8793700">
        <ele>2406.2</ele>
        <time>2020-01-26T16:27:29Z</time>
      </trkpt>
      <trkpt lat="9.9318110" lon="-83.8793630">
        <ele>2406.4</ele>
        <time>2020-01-26T16:27:33Z</time>
      </trkpt>
      <trkpt lat="9.9318140" lon="-83.8793450">
        <ele>2406.6</ele>
        <time>2020-01-26T16:27:44Z</time>
      </trkpt>
      <trkpt lat="9.9318160" lon="-83.8793380">
        <ele>2406.6</ele>
        <time>2020-01-26T16:27:47Z</time>
      </trkpt>
      <trkpt lat="9.9318100" lon="-83.8793380">
        <ele>2406.7</ele>
        <time>2020-01-26T16:27:54Z</time>
      </trkpt>
      <trkpt lat="9.9318120" lon="-83.8793400">
        <ele>2406.7</ele>
        <time>2020-01-26T16:27:58Z</time>
      </trkpt>
      <trkpt lat="9.9318130" lon="-83.8793390">
        <ele>2406.7</ele>
        <time>2020-01-26T16:28:00Z</time>
      </trkpt>
      <trkpt lat="9.9318200" lon="-83.8793320">
        <ele>2406.8</ele>
        <time>2020-01-26T16:28:09Z</time>
      </trkpt>
      <trkpt lat="9.9318140" lon="-83.8793330">
        <ele>2406.9</ele>
        <time>2020-01-26T16:28:17Z</time>
      </trkpt>
      <trkpt lat="9.9318080" lon="-83.8793410">
        <ele>2406.9</ele>
        <time>2020-01-26T16:28:23Z</time>
      </trkpt>
      <trkpt lat="9.9318070" lon="-83.8793390">
        <ele>2407.0</ele>
        <time>2020-01-26T16:28:24Z</time>
      </trkpt>
      <trkpt lat="9.9318050" lon="-83.8793390">
        <ele>2407.0</ele>
        <time>2020-01-26T16:28:25Z</time>
      </trkpt>
      <trkpt lat="9.9318030" lon="-83.8793390">
        <ele>2407.0</ele>
        <time>2020-01-26T16:28:26Z</time>
      </trkpt>
      <trkpt lat="9.9318020" lon="-83.8793420">
        <ele>2407.0</ele>
        <time>2020-01-26T16:28:27Z</time>
      </trkpt>
      <trkpt lat="9.9318030" lon="-83.8793420">
        <ele>2407.0</ele>
        <time>2020-01-26T16:28:29Z</time>
      </trkpt>
      <trkpt lat="9.9318080" lon="-83.8793460">
        <ele>2407.1</ele>
        <time>2020-01-26T16:28:31Z</time>
      </trkpt>
      <trkpt lat="9.9318170" lon="-83.8793460">
        <ele>2407.2</ele>
        <time>2020-01-26T16:28:33Z</time>
      </trkpt>
      <trkpt lat="9.9318360" lon="-83.8793450">
        <ele>2407.4</ele>
        <time>2020-01-26T16:28:37Z</time>
      </trkpt>
      <trkpt lat="9.9318380" lon="-83.8793440">
        <ele>2407.4</ele>
        <time>2020-01-26T16:28:38Z</time>
      </trkpt>
      <trkpt lat="9.9318390" lon="-83.8793430">
        <ele>2407.4</ele>
        <time>2020-01-26T16:28:40Z</time>
      </trkpt>
      <trkpt lat="9.9318370" lon="-83.8793410">
        <ele>2407.4</ele>
        <time>2020-01-26T16:28:42Z</time>
      </trkpt>
      <trkpt lat="9.9318390" lon="-83.8793430">
        <ele>2407.5</ele>
        <time>2020-01-26T16:28:46Z</time>
      </trkpt>
      <trkpt lat="9.9318460" lon="-83.8793440">
        <ele>2407.5</ele>
        <time>2020-01-26T16:28:50Z</time>
      </trkpt>
      <trkpt lat="9.9318300" lon="-83.8793670">
        <ele>2407.8</ele>
        <time>2020-01-26T16:29:02Z</time>
      </trkpt>
      <trkpt lat="9.9317980" lon="-83.8793910">
        <ele>2408.3</ele>
        <time>2020-01-26T16:29:08Z</time>
      </trkpt>
      <trkpt lat="9.9318000" lon="-83.8793970">
        <ele>2408.3</ele>
        <time>2020-01-26T16:29:15Z</time>
      </trkpt>
      <trkpt lat="9.9318010" lon="-83.8793720">
        <ele>2408.6</ele>
        <time>2020-01-26T16:29:22Z</time>
      </trkpt>
      <trkpt lat="9.9317950" lon="-83.8793810">
        <ele>2408.8</ele>
        <time>2020-01-26T16:29:40Z</time>
      </trkpt>
      <trkpt lat="9.9318100" lon="-83.8793880">
        <ele>2409.0</ele>
        <time>2020-01-26T16:29:43Z</time>
      </trkpt>
      <trkpt lat="9.9318160" lon="-83.8793820">
        <ele>2409.1</ele>
        <time>2020-01-26T16:29:45Z</time>
      </trkpt>
      <trkpt lat="9.9318170" lon="-83.8793790">
        <ele>2409.1</ele>
        <time>2020-01-26T16:29:46Z</time>
      </trkpt>
      <trkpt lat="9.9318180" lon="-83.8793770">
        <ele>2409.1</ele>
        <time>2020-01-26T16:29:47Z</time>
      </trkpt>
      <trkpt lat="9.9318230" lon="-83.8793650">
        <ele>2409.3</ele>
        <time>2020-01-26T16:30:01Z</time>
      </trkpt>
      <trkpt lat="9.9318270" lon="-83.8793620">
        <ele>2409.3</ele>
        <time>2020-01-26T16:30:10Z</time>
      </trkpt>
      <trkpt lat="9.9318420" lon="-83.8793800">
        <ele>2409.6</ele>
        <time>2020-01-26T16:30:15Z</time>
      </trkpt>
      <trkpt lat="9.9318540" lon="-83.8793740">
        <ele>2409.8</ele>
        <time>2020-01-26T16:30:20Z</time>
      </trkpt>
      <trkpt lat="9.9318630" lon="-83.8793720">
        <ele>2409.9</ele>
        <time>2020-01-26T16:30:22Z</time>
      </trkpt>
      <trkpt lat="9.9318640" lon="-83.8793690">
        <ele>2409.9</ele>
        <time>2020-01-26T16:30:23Z</time>
      </trkpt>
      <trkpt lat="9.9318680" lon="-83.8793650">
        <ele>2410.0</ele>
        <time>2020-01-26T16:30:25Z</time>
      </trkpt>
      <trkpt lat="9.9318660" lon="-83.8793590">
        <ele>2410.0</ele>
        <time>2020-01-26T16:30:36Z</time>
      </trkpt>
      <trkpt lat="9.9318470" lon="-83.8793640">
        <ele>2410.3</ele>
        <time>2020-01-26T16:30:46Z</time>
      </trkpt>
      <trkpt lat="9.9318500" lon="-83.8793690">
        <ele>2410.3</ele>
        <time>2020-01-26T16:30:57Z</time>
      </trkpt>
      <trkpt lat="9.9318580" lon="-83.8793660">
        <ele>2410.4</ele>
        <time>2020-01-26T16:30:59Z</time>
      </trkpt>
      <trkpt lat="9.9318610" lon="-83.8793670">
        <ele>2410.5</ele>
        <time>2020-01-26T16:31:00Z</time>
      </trkpt>
      <trkpt lat="9.9318630" lon="-83.8793670">
        <ele>2410.5</ele>
        <time>2020-01-26T16:31:01Z</time>
      </trkpt>
      <trkpt lat="9.9318640" lon="-83.8793680">
        <ele>2410.5</ele>
        <time>2020-01-26T16:31:02Z</time>
      </trkpt>
      <trkpt lat="9.9318650" lon="-83.8793690">
        <ele>2410.5</ele>
        <time>2020-01-26T16:31:03Z</time>
      </trkpt>
      <trkpt lat="9.9318610" lon="-83.8793690">
        <ele>2410.6</ele>
        <time>2020-01-26T16:31:05Z</time>
      </trkpt>
      <trkpt lat="9.9318600" lon="-83.8793680">
        <ele>2410.6</ele>
        <time>2020-01-26T16:31:06Z</time>
      </trkpt>
      <trkpt lat="9.9318590" lon="-83.8793680">
        <ele>2410.6</ele>
        <time>2020-01-26T16:31:07Z</time>
      </trkpt>
      <trkpt lat="9.9318500" lon="-83.8793660">
        <ele>2410.7</ele>
        <time>2020-01-26T16:31:10Z</time>
      </trkpt>
      <trkpt lat="9.9318480" lon="-83.8793650">
        <ele>2410.7</ele>
        <time>2020-01-26T16:31:11Z</time>
      </trkpt>
      <trkpt lat="9.9318450" lon="-83.8793640">
        <ele>2410.8</ele>
        <time>2020-01-26T16:31:12Z</time>
      </trkpt>
      <trkpt lat="9.9318360" lon="-83.8793670">
        <ele>2410.9</ele>
        <time>2020-01-26T16:31:15Z</time>
      </trkpt>
      <trkpt lat="9.9318460" lon="-83.8793380">
        <ele>2411.2</ele>
        <time>2020-01-26T16:31:24Z</time>
      </trkpt>
      <trkpt lat="9.9318210" lon="-83.8793550">
        <ele>2411.5</ele>
        <time>2020-01-26T16:31:43Z</time>
      </trkpt>
      <trkpt lat="9.9318210" lon="-83.8793360">
        <ele>2411.7</ele>
        <time>2020-01-26T16:31:45Z</time>
      </trkpt>
      <trkpt lat="9.9318380" lon="-83.8793080">
        <ele>2412.0</ele>
        <time>2020-01-26T16:31:48Z</time>
      </trkpt>
      <trkpt lat="9.9318650" lon="-83.8792650">
        <ele>2412.6</ele>
        <time>2020-01-26T16:31:52Z</time>
      </trkpt>
      <trkpt lat="9.9318720" lon="-83.8792370">
        <ele>2412.9</ele>
        <time>2020-01-26T16:32:01Z</time>
      </trkpt>
      <trkpt lat="9.9318810" lon="-83.8791680">
        <ele>2413.6</ele>
        <time>2020-01-26T16:32:09Z</time>
      </trkpt>
      <trkpt lat="9.9318820" lon="-83.8791470">
        <ele>2413.8</ele>
        <time>2020-01-26T16:32:14Z</time>
      </trkpt>
      <trkpt lat="9.9318800" lon="-83.8791480">
        <ele>2413.8</ele>
        <time>2020-01-26T16:32:15Z</time>
      </trkpt>
      <trkpt lat="9.9318740" lon="-83.8791480">
        <ele>2413.8</ele>
        <time>2020-01-26T16:32:19Z</time>
      </trkpt>
      <trkpt lat="9.9318730" lon="-83.8791470">
        <ele>2413.8</ele>
        <time>2020-01-26T16:32:20Z</time>
      </trkpt>
      <trkpt lat="9.9318720" lon="-83.8791460">
        <ele>2413.9</ele>
        <time>2020-01-26T16:32:22Z</time>
      </trkpt>
      <trkpt lat="9.9318720" lon="-83.8791470">
        <ele>2413.9</ele>
        <time>2020-01-26T16:32:23Z</time>
      </trkpt>
      <trkpt lat="9.9318710" lon="-83.8791450">
        <ele>2413.9</ele>
        <time>2020-01-26T16:32:24Z</time>
      </trkpt>
      <trkpt lat="9.9318690" lon="-83.8791360">
        <ele>2414.0</ele>
        <time>2020-01-26T16:32:25Z</time>
      </trkpt>
      <trkpt lat="9.9318670" lon="-83.8791240">
        <ele>2414.1</ele>
        <time>2020-01-26T16:32:26Z</time>
      </trkpt>
      <trkpt lat="9.9318680" lon="-83.8791100">
        <ele>2414.2</ele>
        <time>2020-01-26T16:32:27Z</time>
      </trkpt>
      <trkpt lat="9.9319430" lon="-83.8790780">
        <ele>2414.9</ele>
        <time>2020-01-26T16:32:32Z</time>
      </trkpt>
      <trkpt lat="9.9321110" lon="-83.8790430">
        <ele>2416.6</ele>
        <time>2020-01-26T16:32:40Z</time>
      </trkpt>
      <trkpt lat="9.9321730" lon="-83.8790320">
        <ele>2417.2</ele>
        <time>2020-01-26T16:32:43Z</time>
      </trkpt>
      <trkpt lat="9.9322130" lon="-83.8790250">
        <ele>2417.6</ele>
        <time>2020-01-26T16:32:45Z</time>
      </trkpt>
      <trkpt lat="9.9322940" lon="-83.8790110">
        <ele>2418.4</ele>
        <time>2020-01-26T16:32:49Z</time>
      </trkpt>
      <trkpt lat="9.9323150" lon="-83.8790050">
        <ele>2418.6</ele>
        <time>2020-01-26T16:32:50Z</time>
      </trkpt>
      <trkpt lat="9.9324610" lon="-83.8789690">
        <ele>2420.0</ele>
        <time>2020-01-26T16:32:57Z</time>
      </trkpt>
      <trkpt lat="9.9325190" lon="-83.8789460">
        <ele>2420.7</ele>
        <time>2020-01-26T16:33:00Z</time>
      </trkpt>
      <trkpt lat="9.9325390" lon="-83.8789400">
        <ele>2421.0</ele>
        <time>2020-01-26T16:33:01Z</time>
      </trkpt>
      <trkpt lat="9.9325590" lon="-83.8789330">
        <ele>2421.2</ele>
        <time>2020-01-26T16:33:02Z</time>
      </trkpt>
      <trkpt lat="9.9325970" lon="-83.8789190">
        <ele>2421.7</ele>
        <time>2020-01-26T16:33:04Z</time>
      </trkpt>
      <trkpt lat="9.9327060" lon="-83.8788740">
        <ele>2423.0</ele>
        <time>2020-01-26T16:33:10Z</time>
      </trkpt>
      <trkpt lat="9.9328840" lon="-83.8788160">
        <ele>2425.1</ele>
        <time>2020-01-26T16:33:20Z</time>
      </trkpt>
      <trkpt lat="9.9330600" lon="-83.8787730">
        <ele>2426.8</ele>
        <time>2020-01-26T16:33:30Z</time>
      </trkpt>
      <trkpt lat="9.9330960" lon="-83.8787580">
        <ele>2427.1</ele>
        <time>2020-01-26T16:33:32Z</time>
      </trkpt>
      <trkpt lat="9.9331700" lon="-83.8787340">
        <ele>2427.8</ele>
        <time>2020-01-26T16:33:36Z</time>
      </trkpt>
      <trkpt lat="9.9333150" lon="-83.8786800">
        <ele>2429.1</ele>
        <time>2020-01-26T16:33:44Z</time>
      </trkpt>
      <trkpt lat="9.9333330" lon="-83.8786710">
        <ele>2429.2</ele>
        <time>2020-01-26T16:33:45Z</time>
      </trkpt>
      <trkpt lat="9.9333870" lon="-83.8786490">
        <ele>2429.8</ele>
        <time>2020-01-26T16:33:48Z</time>
      </trkpt>
      <trkpt lat="9.9335260" lon="-83.8785890">
        <ele>2431.2</ele>
        <time>2020-01-26T16:33:56Z</time>
      </trkpt>
      <trkpt lat="9.9337130" lon="-83.8785330">
        <ele>2432.9</ele>
        <time>2020-01-26T16:34:07Z</time>
      </trkpt>
      <trkpt lat="9.9338560" lon="-83.8784720">
        <ele>2434.1</ele>
        <time>2020-01-26T16:34:16Z</time>
      </trkpt>
      <trkpt lat="9.9340160" lon="-83.8783770">
        <ele>2435.6</ele>
        <time>2020-01-26T16:34:27Z</time>
      </trkpt>
      <trkpt lat="9.9340860" lon="-83.8782970">
        <ele>2436.2</ele>
        <time>2020-01-26T16:34:32Z</time>
      </trkpt>
      <trkpt lat="9.9341550" lon="-83.8781270">
        <ele>2437.0</ele>
        <time>2020-01-26T16:34:40Z</time>
      </trkpt>
      <trkpt lat="9.9341530" lon="-83.8780410">
        <ele>2437.2</ele>
        <time>2020-01-26T16:34:43Z</time>
      </trkpt>
      <trkpt lat="9.9341440" lon="-83.8778510">
        <ele>2437.6</ele>
        <time>2020-01-26T16:34:50Z</time>
      </trkpt>
      <trkpt lat="9.9341360" lon="-83.8776660">
        <ele>2438.0</ele>
        <time>2020-01-26T16:34:57Z</time>
      </trkpt>
      <trkpt lat="9.9341400" lon="-83.8774660">
        <ele>2438.5</ele>
        <time>2020-01-26T16:35:04Z</time>
      </trkpt>
      <trkpt lat="9.9341410" lon="-83.8774110">
        <ele>2438.7</ele>
        <time>2020-01-26T16:35:06Z</time>
      </trkpt>
      <trkpt lat="9.9341390" lon="-83.8773500">
        <ele>2438.9</ele>
        <time>2020-01-26T16:35:08Z</time>
      </trkpt>
      <trkpt lat="9.9340510" lon="-83.8771780">
        <ele>2439.8</ele>
        <time>2020-01-26T16:35:14Z</time>
      </trkpt>
      <trkpt lat="9.9338810" lon="-83.8771020">
        <ele>2440.9</ele>
        <time>2020-01-26T16:35:21Z</time>
      </trkpt>
      <trkpt lat="9.9337500" lon="-83.8770620">
        <ele>2441.7</ele>
        <time>2020-01-26T16:35:29Z</time>
      </trkpt>
      <trkpt lat="9.9335670" lon="-83.8770210">
        <ele>2443.1</ele>
        <time>2020-01-26T16:35:41Z</time>
      </trkpt>
      <trkpt lat="9.9334910" lon="-83.8770010">
        <ele>2443.8</ele>
        <time>2020-01-26T16:35:45Z</time>
      </trkpt>
      <trkpt lat="9.9334730" lon="-83.8769940">
        <ele>2444.0</ele>
        <time>2020-01-26T16:35:46Z</time>
      </trkpt>
      <trkpt lat="9.9334360" lon="-83.8769810">
        <ele>2444.4</ele>
        <time>2020-01-26T16:35:48Z</time>
      </trkpt>
      <trkpt lat="9.9332530" lon="-83.8769200">
        <ele>2446.3</ele>
        <time>2020-01-26T16:35:59Z</time>
      </trkpt>
      <trkpt lat="9.9331690" lon="-83.8768820">
        <ele>2447.3</ele>
        <time>2020-01-26T16:36:04Z</time>
      </trkpt>
      <trkpt lat="9.9330180" lon="-83.8767710">
        <ele>2449.1</ele>
        <time>2020-01-26T16:36:14Z</time>
      </trkpt>
      <trkpt lat="9.9328700" lon="-83.8766410">
        <ele>2451.0</ele>
        <time>2020-01-26T16:36:24Z</time>
      </trkpt>
      <trkpt lat="9.9327430" lon="-83.8764970">
        <ele>2452.7</ele>
        <time>2020-01-26T16:36:33Z</time>
      </trkpt>
      <trkpt lat="9.9326690" lon="-83.8763930">
        <ele>2453.9</ele>
        <time>2020-01-26T16:36:39Z</time>
      </trkpt>
      <trkpt lat="9.9325650" lon="-83.8762190">
        <ele>2455.4</ele>
        <time>2020-01-26T16:36:47Z</time>
      </trkpt>
      <trkpt lat="9.9324860" lon="-83.8760340">
        <ele>2456.8</ele>
        <time>2020-01-26T16:36:55Z</time>
      </trkpt>
      <trkpt lat="9.9324200" lon="-83.8758620">
        <ele>2458.0</ele>
        <time>2020-01-26T16:37:03Z</time>
      </trkpt>
      <trkpt lat="9.9323640" lon="-83.8756830">
        <ele>2459.1</ele>
        <time>2020-01-26T16:37:11Z</time>
      </trkpt>
      <trkpt lat="9.9323080" lon="-83.8755070">
        <ele>2460.4</ele>
        <time>2020-01-26T16:37:19Z</time>
      </trkpt>
      <trkpt lat="9.9322600" lon="-83.8753130">
        <ele>2461.9</ele>
        <time>2020-01-26T16:37:27Z</time>
      </trkpt>
      <trkpt lat="9.9322550" lon="-83.8751140">
        <ele>2463.2</ele>
        <time>2020-01-26T16:37:35Z</time>
      </trkpt>
      <trkpt lat="9.9322960" lon="-83.8749170">
        <ele>2464.7</ele>
        <time>2020-01-26T16:37:43Z</time>
      </trkpt>
      <trkpt lat="9.9323530" lon="-83.8747480">
        <ele>2466.0</ele>
        <time>2020-01-26T16:37:51Z</time>
      </trkpt>
      <trkpt lat="9.9324350" lon="-83.8745710">
        <ele>2467.5</ele>
        <time>2020-01-26T16:38:00Z</time>
      </trkpt>
      <trkpt lat="9.9325030" lon="-83.8743900">
        <ele>2469.1</ele>
        <time>2020-01-26T16:38:10Z</time>
      </trkpt>
      <trkpt lat="9.9325760" lon="-83.8741940">
        <ele>2470.8</ele>
        <time>2020-01-26T16:38:19Z</time>
      </trkpt>
      <trkpt lat="9.9326220" lon="-83.8740760">
        <ele>2471.8</ele>
        <time>2020-01-26T16:38:24Z</time>
      </trkpt>
      <trkpt lat="9.9326840" lon="-83.8738930">
        <ele>2473.4</ele>
        <time>2020-01-26T16:38:33Z</time>
      </trkpt>
      <trkpt lat="9.9327490" lon="-83.8737180">
        <ele>2474.7</ele>
        <time>2020-01-26T16:38:41Z</time>
      </trkpt>
      <trkpt lat="9.9327830" lon="-83.8735220">
        <ele>2475.9</ele>
        <time>2020-01-26T16:38:50Z</time>
      </trkpt>
      <trkpt lat="9.9327560" lon="-83.8733360">
        <ele>2477.2</ele>
        <time>2020-01-26T16:38:59Z</time>
      </trkpt>
      <trkpt lat="9.9326920" lon="-83.8731580">
        <ele>2478.9</ele>
        <time>2020-01-26T16:39:08Z</time>
      </trkpt>
      <trkpt lat="9.9325980" lon="-83.8729880">
        <ele>2480.3</ele>
        <time>2020-01-26T16:39:17Z</time>
      </trkpt>
      <trkpt lat="9.9324900" lon="-83.8728310">
        <ele>2481.9</ele>
        <time>2020-01-26T16:39:26Z</time>
      </trkpt>
      <trkpt lat="9.9323770" lon="-83.8726830">
        <ele>2483.8</ele>
        <time>2020-01-26T16:39:35Z</time>
      </trkpt>
      <trkpt lat="9.9322810" lon="-83.8725260">
        <ele>2485.3</ele>
        <time>2020-01-26T16:39:43Z</time>
      </trkpt>
      <trkpt lat="9.9322140" lon="-83.8723790">
        <ele>2486.9</ele>
        <time>2020-01-26T16:39:50Z</time>
      </trkpt>
      <trkpt lat="9.9321590" lon="-83.8722000">
        <ele>2488.5</ele>
        <time>2020-01-26T16:39:58Z</time>
      </trkpt>
      <trkpt lat="9.9321320" lon="-83.8719980">
        <ele>2490.2</ele>
        <time>2020-01-26T16:40:07Z</time>
      </trkpt>
      <trkpt lat="9.9321370" lon="-83.8718160">
        <ele>2491.6</ele>
        <time>2020-01-26T16:40:15Z</time>
      </trkpt>
      <trkpt lat="9.9321910" lon="-83.8716280">
        <ele>2493.1</ele>
        <time>2020-01-26T16:40:24Z</time>
      </trkpt>
      <trkpt lat="9.9322670" lon="-83.8714440">
        <ele>2494.4</ele>
        <time>2020-01-26T16:40:33Z</time>
      </trkpt>
      <trkpt lat="9.9323480" lon="-83.8712600">
        <ele>2495.6</ele>
        <time>2020-01-26T16:40:42Z</time>
      </trkpt>
      <trkpt lat="9.9324260" lon="-83.8710950">
        <ele>2496.7</ele>
        <time>2020-01-26T16:40:50Z</time>
      </trkpt>
      <trkpt lat="9.9325130" lon="-83.8709180">
        <ele>2497.9</ele>
        <time>2020-01-26T16:40:59Z</time>
      </trkpt>
      <trkpt lat="9.9325910" lon="-83.8707300">
        <ele>2499.1</ele>
        <time>2020-01-26T16:41:08Z</time>
      </trkpt>
      <trkpt lat="9.9326650" lon="-83.8705540">
        <ele>2500.4</ele>
        <time>2020-01-26T16:41:17Z</time>
      </trkpt>
      <trkpt lat="9.9327410" lon="-83.8703700">
        <ele>2501.8</ele>
        <time>2020-01-26T16:41:25Z</time>
      </trkpt>
      <trkpt lat="9.9328430" lon="-83.8702110">
        <ele>2503.2</ele>
        <time>2020-01-26T16:41:34Z</time>
      </trkpt>
      <trkpt lat="9.9329540" lon="-83.8700490">
        <ele>2504.8</ele>
        <time>2020-01-26T16:41:43Z</time>
      </trkpt>
      <trkpt lat="9.9330590" lon="-83.8698960">
        <ele>2506.3</ele>
        <time>2020-01-26T16:41:52Z</time>
      </trkpt>
      <trkpt lat="9.9331770" lon="-83.8697550">
        <ele>2507.9</ele>
        <time>2020-01-26T16:42:01Z</time>
      </trkpt>
      <trkpt lat="9.9332580" lon="-83.8696500">
        <ele>2508.9</ele>
        <time>2020-01-26T16:42:07Z</time>
      </trkpt>
      <trkpt lat="9.9332940" lon="-83.8695980">
        <ele>2509.4</ele>
        <time>2020-01-26T16:42:10Z</time>
      </trkpt>
      <trkpt lat="9.9333410" lon="-83.8695370">
        <ele>2510.1</ele>
        <time>2020-01-26T16:42:14Z</time>
      </trkpt>
      <trkpt lat="9.9334570" lon="-83.8693850">
        <ele>2511.8</ele>
        <time>2020-01-26T16:42:25Z</time>
      </trkpt>
      <trkpt lat="9.9335780" lon="-83.8692460">
        <ele>2513.6</ele>
        <time>2020-01-26T16:42:35Z</time>
      </trkpt>
      <trkpt lat="9.9336950" lon="-83.8691020">
        <ele>2515.7</ele>
        <time>2020-01-26T16:42:46Z</time>
      </trkpt>
      <trkpt lat="9.9338150" lon="-83.8689520">
        <ele>2517.8</ele>
        <time>2020-01-26T16:42:58Z</time>
      </trkpt>
      <trkpt lat="9.9339330" lon="-83.8688110">
        <ele>2519.9</ele>
        <time>2020-01-26T16:43:08Z</time>
      </trkpt>
      <trkpt lat="9.9340620" lon="-83.8686720">
        <ele>2522.0</ele>
        <time>2020-01-26T16:43:18Z</time>
      </trkpt>
      <trkpt lat="9.9341970" lon="-83.8685400">
        <ele>2524.2</ele>
        <time>2020-01-26T16:43:29Z</time>
      </trkpt>
      <trkpt lat="9.9343300" lon="-83.8684070">
        <ele>2526.4</ele>
        <time>2020-01-26T16:43:39Z</time>
      </trkpt>
      <trkpt lat="9.9344750" lon="-83.8682830">
        <ele>2528.5</ele>
        <time>2020-01-26T16:43:50Z</time>
      </trkpt>
      <trkpt lat="9.9346080" lon="-83.8681540">
        <ele>2530.4</ele>
        <time>2020-01-26T16:44:01Z</time>
      </trkpt>
      <trkpt lat="9.9347440" lon="-83.8680310">
        <ele>2532.2</ele>
        <time>2020-01-26T16:44:11Z</time>
      </trkpt>
      <trkpt lat="9.9348850" lon="-83.8679100">
        <ele>2534.1</ele>
        <time>2020-01-26T16:44:22Z</time>
      </trkpt>
      <trkpt lat="9.9350250" lon="-83.8677690">
        <ele>2536.0</ele>
        <time>2020-01-26T16:44:35Z</time>
      </trkpt>
      <trkpt lat="9.9351650" lon="-83.8676430">
        <ele>2538.0</ele>
        <time>2020-01-26T16:44:46Z</time>
      </trkpt>
      <trkpt lat="9.9353080" lon="-83.8675080">
        <ele>2540.1</ele>
        <time>2020-01-26T16:44:58Z</time>
      </trkpt>
      <trkpt lat="9.9354140" lon="-83.8674180">
        <ele>2541.6</ele>
        <time>2020-01-26T16:45:06Z</time>
      </trkpt>
      <trkpt lat="9.9355830" lon="-83.8673340">
        <ele>2543.6</ele>
        <time>2020-01-26T16:45:17Z</time>
      </trkpt>
      <trkpt lat="9.9357640" lon="-83.8673050">
        <ele>2545.6</ele>
        <time>2020-01-26T16:45:28Z</time>
      </trkpt>
      <trkpt lat="9.9359450" lon="-83.8673640">
        <ele>2548.1</ele>
        <time>2020-01-26T16:45:39Z</time>
      </trkpt>
      <trkpt lat="9.9360870" lon="-83.8674810">
        <ele>2550.7</ele>
        <time>2020-01-26T16:45:50Z</time>
      </trkpt>
      <trkpt lat="9.9361850" lon="-83.8676510">
        <ele>2553.3</ele>
        <time>2020-01-26T16:46:01Z</time>
      </trkpt>
      <trkpt lat="9.9362050" lon="-83.8678380">
        <ele>2555.4</ele>
        <time>2020-01-26T16:46:12Z</time>
      </trkpt>
      <trkpt lat="9.9362410" lon="-83.8680300">
        <ele>2557.5</ele>
        <time>2020-01-26T16:46:22Z</time>
      </trkpt>
      <trkpt lat="9.9362690" lon="-83.8682220">
        <ele>2559.4</ele>
        <time>2020-01-26T16:46:32Z</time>
      </trkpt>
      <trkpt lat="9.9362950" lon="-83.8684070">
        <ele>2561.4</ele>
        <time>2020-01-26T16:46:42Z</time>
      </trkpt>
      <trkpt lat="9.9363220" lon="-83.8685970">
        <ele>2563.4</ele>
        <time>2020-01-26T16:46:53Z</time>
      </trkpt>
      <trkpt lat="9.9363470" lon="-83.8687890">
        <ele>2565.3</ele>
        <time>2020-01-26T16:47:03Z</time>
      </trkpt>
      <trkpt lat="9.9363830" lon="-83.8689830">
        <ele>2567.1</ele>
        <time>2020-01-26T16:47:14Z</time>
      </trkpt>
      <trkpt lat="9.9364180" lon="-83.8691710">
        <ele>2568.8</ele>
        <time>2020-01-26T16:47:24Z</time>
      </trkpt>
      <trkpt lat="9.9364250" lon="-83.8693060">
        <ele>2569.9</ele>
        <time>2020-01-26T16:47:31Z</time>
      </trkpt>
      <trkpt lat="9.9364500" lon="-83.8694580">
        <ele>2571.3</ele>
        <time>2020-01-26T16:47:39Z</time>
      </trkpt>
      <trkpt lat="9.9364890" lon="-83.8696390">
        <ele>2572.8</ele>
        <time>2020-01-26T16:47:49Z</time>
      </trkpt>
      <trkpt lat="9.9365390" lon="-83.8698260">
        <ele>2574.5</ele>
        <time>2020-01-26T16:47:59Z</time>
      </trkpt>
      <trkpt lat="9.9366300" lon="-83.8700040">
        <ele>2576.0</ele>
        <time>2020-01-26T16:48:09Z</time>
      </trkpt>
      <trkpt lat="9.9367560" lon="-83.8701570">
        <ele>2577.7</ele>
        <time>2020-01-26T16:48:20Z</time>
      </trkpt>
      <trkpt lat="9.9369020" lon="-83.8702710">
        <ele>2579.6</ele>
        <time>2020-01-26T16:48:30Z</time>
      </trkpt>
      <trkpt lat="9.9370590" lon="-83.8703820">
        <ele>2581.9</ele>
        <time>2020-01-26T16:48:40Z</time>
      </trkpt>
      <trkpt lat="9.9372250" lon="-83.8704750">
        <ele>2584.4</ele>
        <time>2020-01-26T16:48:50Z</time>
      </trkpt>
      <trkpt lat="9.9373880" lon="-83.8705760">
        <ele>2586.7</ele>
        <time>2020-01-26T16:49:00Z</time>
      </trkpt>
      <trkpt lat="9.9375500" lon="-83.8706850">
        <ele>2588.7</ele>
        <time>2020-01-26T16:49:10Z</time>
      </trkpt>
      <trkpt lat="9.9377120" lon="-83.8707920">
        <ele>2590.3</ele>
        <time>2020-01-26T16:49:19Z</time>
      </trkpt>
      <trkpt lat="9.9378800" lon="-83.8709020">
        <ele>2592.1</ele>
        <time>2020-01-26T16:49:29Z</time>
      </trkpt>
      <trkpt lat="9.9380360" lon="-83.8709950">
        <ele>2593.9</ele>
        <time>2020-01-26T16:49:38Z</time>
      </trkpt>
      <trkpt lat="9.9381950" lon="-83.8710910">
        <ele>2595.6</ele>
        <time>2020-01-26T16:49:48Z</time>
      </trkpt>
      <trkpt lat="9.9383470" lon="-83.8711890">
        <ele>2597.3</ele>
        <time>2020-01-26T16:49:58Z</time>
      </trkpt>
      <trkpt lat="9.9384550" lon="-83.8712460">
        <ele>2598.4</ele>
        <time>2020-01-26T16:50:05Z</time>
      </trkpt>
      <trkpt lat="9.9386200" lon="-83.8713490">
        <ele>2600.1</ele>
        <time>2020-01-26T16:50:15Z</time>
      </trkpt>
      <trkpt lat="9.9387060" lon="-83.8714010">
        <ele>2600.9</ele>
        <time>2020-01-26T16:50:20Z</time>
      </trkpt>
      <trkpt lat="9.9387220" lon="-83.8714120">
        <ele>2601.1</ele>
        <time>2020-01-26T16:50:21Z</time>
      </trkpt>
      <trkpt lat="9.9389070" lon="-83.8714320">
        <ele>2602.4</ele>
        <time>2020-01-26T16:50:31Z</time>
      </trkpt>
      <trkpt lat="9.9390640" lon="-83.8713160">
        <ele>2603.9</ele>
        <time>2020-01-26T16:50:41Z</time>
      </trkpt>
      <trkpt lat="9.9391110" lon="-83.8711340">
        <ele>2605.7</ele>
        <time>2020-01-26T16:50:50Z</time>
      </trkpt>
      <trkpt lat="9.9390420" lon="-83.8709550">
        <ele>2607.5</ele>
        <time>2020-01-26T16:50:59Z</time>
      </trkpt>
      <trkpt lat="9.9389300" lon="-83.8708480">
        <ele>2608.9</ele>
        <time>2020-01-26T16:51:07Z</time>
      </trkpt>
      <trkpt lat="9.9387810" lon="-83.8707320">
        <ele>2610.6</ele>
        <time>2020-01-26T16:51:17Z</time>
      </trkpt>
      <trkpt lat="9.9387120" lon="-83.8706710">
        <ele>2611.1</ele>
        <time>2020-01-26T16:51:22Z</time>
      </trkpt>
      <trkpt lat="9.9386330" lon="-83.8706150">
        <ele>2611.7</ele>
        <time>2020-01-26T16:51:27Z</time>
      </trkpt>
      <trkpt lat="9.9385550" lon="-83.8705550">
        <ele>2612.2</ele>
        <time>2020-01-26T16:51:32Z</time>
      </trkpt>
      <trkpt lat="9.9384110" lon="-83.8704280">
        <ele>2613.4</ele>
        <time>2020-01-26T16:51:41Z</time>
      </trkpt>
      <trkpt lat="9.9383200" lon="-83.8703680">
        <ele>2614.1</ele>
        <time>2020-01-26T16:52:05Z</time>
      </trkpt>
      <trkpt lat="9.9383190" lon="-83.8703670">
        <ele>2614.1</ele>
        <time>2020-01-26T16:52:08Z</time>
      </trkpt>
      <trkpt lat="9.9383200" lon="-83.8703680">
        <ele>2614.1</ele>
        <time>2020-01-26T16:52:14Z</time>
      </trkpt>
      <trkpt lat="9.9383270" lon="-83.8703530">
        <ele>2614.2</ele>
        <time>2020-01-26T16:52:28Z</time>
      </trkpt>
      <trkpt lat="9.9383320" lon="-83.8703530">
        <ele>2614.3</ele>
        <time>2020-01-26T16:52:34Z</time>
      </trkpt>
      <trkpt lat="9.9383400" lon="-83.8703510">
        <ele>2614.3</ele>
        <time>2020-01-26T16:52:38Z</time>
      </trkpt>
      <trkpt lat="9.9383240" lon="-83.8703320">
        <ele>2614.5</ele>
        <time>2020-01-26T16:53:02Z</time>
      </trkpt>
      <trkpt lat="9.9383360" lon="-83.8702960">
        <ele>2614.8</ele>
        <time>2020-01-26T16:53:07Z</time>
      </trkpt>
      <trkpt lat="9.9383350" lon="-83.8702880">
        <ele>2614.8</ele>
        <time>2020-01-26T16:53:08Z</time>
      </trkpt>
      <trkpt lat="9.9383350" lon="-83.8702820">
        <ele>2614.9</ele>
        <time>2020-01-26T16:53:09Z</time>
      </trkpt>
      <trkpt lat="9.9383360" lon="-83.8702860">
        <ele>2614.9</ele>
        <time>2020-01-26T16:53:10Z</time>
      </trkpt>
      <trkpt lat="9.9383360" lon="-83.8702880">
        <ele>2614.9</ele>
        <time>2020-01-26T16:53:11Z</time>
      </trkpt>
      <trkpt lat="9.9383350" lon="-83.8702860">
        <ele>2614.9</ele>
        <time>2020-01-26T16:53:12Z</time>
      </trkpt>
      <trkpt lat="9.9383270" lon="-83.8702820">
        <ele>2615.0</ele>
        <time>2020-01-26T16:53:13Z</time>
      </trkpt>
      <trkpt lat="9.9383180" lon="-83.8702720">
        <ele>2615.1</ele>
        <time>2020-01-26T16:53:14Z</time>
      </trkpt>
      <trkpt lat="9.9382610" lon="-83.8702080">
        <ele>2615.7</ele>
        <time>2020-01-26T16:53:19Z</time>
      </trkpt>
      <trkpt lat="9.9381800" lon="-83.8700290">
        <ele>2617.0</ele>
        <time>2020-01-26T16:53:29Z</time>
      </trkpt>
      <trkpt lat="9.9381510" lon="-83.8699510">
        <ele>2617.6</ele>
        <time>2020-01-26T16:53:34Z</time>
      </trkpt>
      <trkpt lat="9.9381380" lon="-83.8699150">
        <ele>2617.9</ele>
        <time>2020-01-26T16:53:40Z</time>
      </trkpt>
      <trkpt lat="9.9381160" lon="-83.8699020">
        <ele>2618.1</ele>
        <time>2020-01-26T16:53:49Z</time>
      </trkpt>
      <trkpt lat="9.9381170" lon="-83.8699010">
        <ele>2618.1</ele>
        <time>2020-01-26T16:53:53Z</time>
      </trkpt>
      <trkpt lat="9.9381190" lon="-83.8699020">
        <ele>2618.1</ele>
        <time>2020-01-26T16:53:56Z</time>
      </trkpt>
      <trkpt lat="9.9381220" lon="-83.8699070">
        <ele>2618.1</ele>
        <time>2020-01-26T16:54:00Z</time>
      </trkpt>
      <trkpt lat="9.9381220" lon="-83.8699240">
        <ele>2618.3</ele>
        <time>2020-01-26T16:54:11Z</time>
      </trkpt>
      <trkpt lat="9.9381460" lon="-83.8699450">
        <ele>2618.5</ele>
        <time>2020-01-26T16:54:17Z</time>
      </trkpt>
      <trkpt lat="9.9381460" lon="-83.8699240">
        <ele>2618.7</ele>
        <time>2020-01-26T16:54:22Z</time>
      </trkpt>
      <trkpt lat="9.9381490" lon="-83.8699210">
        <ele>2618.7</ele>
        <time>2020-01-26T16:54:34Z</time>
      </trkpt>
      <trkpt lat="9.9381490" lon="-83.8699210">
        <ele>2618.7</ele>
        <time>2020-01-26T16:54:36Z</time>
      </trkpt>
      <trkpt lat="9.9381430" lon="-83.8699190">
        <ele>2618.7</ele>
        <time>2020-01-26T16:54:38Z</time>
      </trkpt>
      <trkpt lat="9.9381490" lon="-83.8699220">
        <ele>2618.8</ele>
        <time>2020-01-26T16:54:45Z</time>
      </trkpt>
      <trkpt lat="9.9381550" lon="-83.8699260">
        <ele>2618.8</ele>
        <time>2020-01-26T16:54:47Z</time>
      </trkpt>
      <trkpt lat="9.9381560" lon="-83.8699340">
        <ele>2618.9</ele>
        <time>2020-01-26T16:54:50Z</time>
      </trkpt>
      <trkpt lat="9.9381580" lon="-83.8699390">
        <ele>2619.0</ele>
        <time>2020-01-26T16:54:52Z</time>
      </trkpt>
      <trkpt lat="9.9381600" lon="-83.8699420">
        <ele>2619.0</ele>
        <time>2020-01-26T16:54:55Z</time>
      </trkpt>
      <trkpt lat="9.9381650" lon="-83.8699480">
        <ele>2619.0</ele>
        <time>2020-01-26T16:54:58Z</time>
      </trkpt>
      <trkpt lat="9.9381430" lon="-83.8699370">
        <ele>2619.2</ele>
        <time>2020-01-26T16:55:04Z</time>
      </trkpt>
      <trkpt lat="9.9381580" lon="-83.8699210">
        <ele>2619.4</ele>
        <time>2020-01-26T16:55:08Z</time>
      </trkpt>
      <trkpt lat="9.9381600" lon="-83.8699150">
        <ele>2619.5</ele>
        <time>2020-01-26T16:55:09Z</time>
      </trkpt>
      <trkpt lat="9.9381630" lon="-83.8699030">
        <ele>2619.5</ele>
        <time>2020-01-26T16:55:15Z</time>
      </trkpt>
      <trkpt lat="9.9381700" lon="-83.8698940">
        <ele>2619.6</ele>
        <time>2020-01-26T16:55:16Z</time>
      </trkpt>
      <trkpt lat="9.9381720" lon="-83.8698790">
        <ele>2619.8</ele>
        <time>2020-01-26T16:55:17Z</time>
      </trkpt>
      <trkpt lat="9.9381790" lon="-83.8697970">
        <ele>2620.4</ele>
        <time>2020-01-26T16:55:21Z</time>
      </trkpt>
      <trkpt lat="9.9382060" lon="-83.8696790">
        <ele>2621.4</ele>
        <time>2020-01-26T16:55:26Z</time>
      </trkpt>
      <trkpt lat="9.9382390" lon="-83.8695580">
        <ele>2622.5</ele>
        <time>2020-01-26T16:55:32Z</time>
      </trkpt>
      <trkpt lat="9.9383300" lon="-83.8694430">
        <ele>2623.9</ele>
        <time>2020-01-26T16:55:40Z</time>
      </trkpt>
      <trkpt lat="9.9384720" lon="-83.8693310">
        <ele>2625.5</ele>
        <time>2020-01-26T16:55:51Z</time>
      </trkpt>
      <trkpt lat="9.9385060" lon="-83.8692990">
        <ele>2625.9</ele>
        <time>2020-01-26T16:55:54Z</time>
      </trkpt>
      <trkpt lat="9.9385170" lon="-83.8692860">
        <ele>2626.0</ele>
        <time>2020-01-26T16:55:55Z</time>
      </trkpt>
      <trkpt lat="9.9386100" lon="-83.8691980">
        <ele>2627.2</ele>
        <time>2020-01-26T16:56:03Z</time>
      </trkpt>
      <trkpt lat="9.9386520" lon="-83.8691640">
        <ele>2627.7</ele>
        <time>2020-01-26T16:56:06Z</time>
      </trkpt>
      <trkpt lat="9.9386780" lon="-83.8691420">
        <ele>2628.0</ele>
        <time>2020-01-26T16:56:08Z</time>
      </trkpt>
      <trkpt lat="9.9387600" lon="-83.8690620">
        <ele>2629.0</ele>
        <time>2020-01-26T16:56:15Z</time>
      </trkpt>
      <trkpt lat="9.9388690" lon="-83.8689140">
        <ele>2630.4</ele>
        <time>2020-01-26T16:56:25Z</time>
      </trkpt>
      <trkpt lat="9.9389510" lon="-83.8687510">
        <ele>2632.0</ele>
        <time>2020-01-26T16:56:34Z</time>
      </trkpt>
      <trkpt lat="9.9390160" lon="-83.8685730">
        <ele>2633.7</ele>
        <time>2020-01-26T16:56:43Z</time>
      </trkpt>
      <trkpt lat="9.9390820" lon="-83.8684010">
        <ele>2635.4</ele>
        <time>2020-01-26T16:56:51Z</time>
      </trkpt>
      <trkpt lat="9.9391690" lon="-83.8682330">
        <ele>2636.8</ele>
        <time>2020-01-26T16:57:00Z</time>
      </trkpt>
      <trkpt lat="9.9393250" lon="-83.8681320">
        <ele>2638.1</ele>
        <time>2020-01-26T16:57:10Z</time>
      </trkpt>
      <trkpt lat="9.9395150" lon="-83.8681500">
        <ele>2639.5</ele>
        <time>2020-01-26T16:57:19Z</time>
      </trkpt>
      <trkpt lat="9.9396910" lon="-83.8682320">
        <ele>2641.3</ele>
        <time>2020-01-26T16:57:28Z</time>
      </trkpt>
      <trkpt lat="9.9398540" lon="-83.8683290">
        <ele>2643.4</ele>
        <time>2020-01-26T16:57:37Z</time>
      </trkpt>
      <trkpt lat="9.9400070" lon="-83.8684390">
        <ele>2645.6</ele>
        <time>2020-01-26T16:57:46Z</time>
      </trkpt>
      <trkpt lat="9.9401430" lon="-83.8685210">
        <ele>2647.6</ele>
        <time>2020-01-26T16:57:54Z</time>
      </trkpt>
      <trkpt lat="9.9403050" lon="-83.8686210">
        <ele>2649.7</ele>
        <time>2020-01-26T16:58:02Z</time>
      </trkpt>
      <trkpt lat="9.9404620" lon="-83.8687170">
        <ele>2651.4</ele>
        <time>2020-01-26T16:58:10Z</time>
      </trkpt>
      <trkpt lat="9.9406170" lon="-83.8687830">
        <ele>2652.8</ele>
        <time>2020-01-26T16:58:17Z</time>
      </trkpt>
      <trkpt lat="9.9408120" lon="-83.8688290">
        <ele>2654.4</ele>
        <time>2020-01-26T16:58:25Z</time>
      </trkpt>
      <trkpt lat="9.9410040" lon="-83.8687960">
        <ele>2655.9</ele>
        <time>2020-01-26T16:58:33Z</time>
      </trkpt>
      <trkpt lat="9.9411180" lon="-83.8687160">
        <ele>2656.9</ele>
        <time>2020-01-26T16:58:39Z</time>
      </trkpt>
      <trkpt lat="9.9412540" lon="-83.8685810">
        <ele>2658.2</ele>
        <time>2020-01-26T16:58:47Z</time>
      </trkpt>
      <trkpt lat="9.9413430" lon="-83.8684860">
        <ele>2659.0</ele>
        <time>2020-01-26T16:58:53Z</time>
      </trkpt>
      <trkpt lat="9.9414070" lon="-83.8683890">
        <ele>2659.7</ele>
        <time>2020-01-26T16:58:58Z</time>
      </trkpt>
      <trkpt lat="9.9414510" lon="-83.8683390">
        <ele>2660.0</ele>
        <time>2020-01-26T16:59:01Z</time>
      </trkpt>
      <trkpt lat="9.9415810" lon="-83.8681880">
        <ele>2661.0</ele>
        <time>2020-01-26T16:59:10Z</time>
      </trkpt>
      <trkpt lat="9.9417250" lon="-83.8680460">
        <ele>2662.0</ele>
        <time>2020-01-26T16:59:19Z</time>
      </trkpt>
      <trkpt lat="9.9418830" lon="-83.8679390">
        <ele>2662.9</ele>
        <time>2020-01-26T16:59:28Z</time>
      </trkpt>
      <trkpt lat="9.9420500" lon="-83.8678320">
        <ele>2664.1</ele>
        <time>2020-01-26T16:59:37Z</time>
      </trkpt>
      <trkpt lat="9.9421070" lon="-83.8677920">
        <ele>2664.7</ele>
        <time>2020-01-26T16:59:40Z</time>
      </trkpt>
      <trkpt lat="9.9421420" lon="-83.8677630">
        <ele>2665.0</ele>
        <time>2020-01-26T16:59:42Z</time>
      </trkpt>
      <trkpt lat="9.9421610" lon="-83.8677500">
        <ele>2665.2</ele>
        <time>2020-01-26T16:59:43Z</time>
      </trkpt>
      <trkpt lat="9.9422470" lon="-83.8676980">
        <ele>2666.0</ele>
        <time>2020-01-26T16:59:47Z</time>
      </trkpt>
      <trkpt lat="9.9423930" lon="-83.8675810">
        <ele>2667.6</ele>
        <time>2020-01-26T16:59:55Z</time>
      </trkpt>
      <trkpt lat="9.9424250" lon="-83.8675490">
        <ele>2668.1</ele>
        <time>2020-01-26T16:59:57Z</time>
      </trkpt>
      <trkpt lat="9.9424840" lon="-83.8674950">
        <ele>2668.8</ele>
        <time>2020-01-26T17:00:01Z</time>
      </trkpt>
      <trkpt lat="9.9426060" lon="-83.8673940">
        <ele>2670.2</ele>
        <time>2020-01-26T17:00:09Z</time>
      </trkpt>
      <trkpt lat="9.9427400" lon="-83.8672400">
        <ele>2672.0</ele>
        <time>2020-01-26T17:00:18Z</time>
      </trkpt>
      <trkpt lat="9.9428670" lon="-83.8671010">
        <ele>2673.4</ele>
        <time>2020-01-26T17:00:27Z</time>
      </trkpt>
      <trkpt lat="9.9429860" lon="-83.8669530">
        <ele>2674.7</ele>
        <time>2020-01-26T17:00:36Z</time>
      </trkpt>
      <trkpt lat="9.9430600" lon="-83.8668630">
        <ele>2675.4</ele>
        <time>2020-01-26T17:00:42Z</time>
      </trkpt>
      <trkpt lat="9.9431280" lon="-83.8667630">
        <ele>2676.1</ele>
        <time>2020-01-26T17:00:48Z</time>
      </trkpt>
      <trkpt lat="9.9432260" lon="-83.8666060">
        <ele>2677.1</ele>
        <time>2020-01-26T17:00:58Z</time>
      </trkpt>
      <trkpt lat="9.9432700" lon="-83.8665320">
        <ele>2677.5</ele>
        <time>2020-01-26T17:01:03Z</time>
      </trkpt>
      <trkpt lat="9.9432790" lon="-83.8665180">
        <ele>2677.6</ele>
        <time>2020-01-26T17:01:04Z</time>
      </trkpt>
      <trkpt lat="9.9433690" lon="-83.8663530">
        <ele>2678.9</ele>
        <time>2020-01-26T17:01:15Z</time>
      </trkpt>
      <trkpt lat="9.9434540" lon="-83.8661860">
        <ele>2680.3</ele>
        <time>2020-01-26T17:01:25Z</time>
      </trkpt>
      <trkpt lat="9.9435450" lon="-83.8660150">
        <ele>2682.0</ele>
        <time>2020-01-26T17:01:36Z</time>
      </trkpt>
      <trkpt lat="9.9436360" lon="-83.8658460">
        <ele>2684.0</ele>
        <time>2020-01-26T17:01:47Z</time>
      </trkpt>
      <trkpt lat="9.9437660" lon="-83.8657020">
        <ele>2686.0</ele>
        <time>2020-01-26T17:01:59Z</time>
      </trkpt>
      <trkpt lat="9.9439190" lon="-83.8655900">
        <ele>2687.9</ele>
        <time>2020-01-26T17:02:11Z</time>
      </trkpt>
      <trkpt lat="9.9440860" lon="-83.8654920">
        <ele>2690.1</ele>
        <time>2020-01-26T17:02:23Z</time>
      </trkpt>
      <trkpt lat="9.9441360" lon="-83.8654560">
        <ele>2690.9</ele>
        <time>2020-01-26T17:02:27Z</time>
      </trkpt>
      <trkpt lat="9.9443050" lon="-83.8653710">
        <ele>2693.2</ele>
        <time>2020-01-26T17:02:38Z</time>
      </trkpt>
      <trkpt lat="9.9443880" lon="-83.8653250">
        <ele>2694.4</ele>
        <time>2020-01-26T17:02:43Z</time>
      </trkpt>
      <trkpt lat="9.9445720" lon="-83.8652680">
        <ele>2696.9</ele>
        <time>2020-01-26T17:02:55Z</time>
      </trkpt>
      <trkpt lat="9.9447420" lon="-83.8653030">
        <ele>2699.1</ele>
        <time>2020-01-26T17:03:07Z</time>
      </trkpt>
      <trkpt lat="9.9448000" lon="-83.8653560">
        <ele>2700.1</ele>
        <time>2020-01-26T17:03:13Z</time>
      </trkpt>
      <trkpt lat="9.9448880" lon="-83.8654940">
        <ele>2702.0</ele>
        <time>2020-01-26T17:03:25Z</time>
      </trkpt>
      <trkpt lat="9.9449030" lon="-83.8656870">
        <ele>2704.0</ele>
        <time>2020-01-26T17:03:36Z</time>
      </trkpt>
      <trkpt lat="9.9448940" lon="-83.8658700">
        <ele>2706.0</ele>
        <time>2020-01-26T17:03:46Z</time>
      </trkpt>
      <trkpt lat="9.9448810" lon="-83.8660600">
        <ele>2708.0</ele>
        <time>2020-01-26T17:03:57Z</time>
      </trkpt>
      <trkpt lat="9.9449050" lon="-83.8662450">
        <ele>2709.9</ele>
        <time>2020-01-26T17:04:08Z</time>
      </trkpt>
      <trkpt lat="9.9450190" lon="-83.8664030">
        <ele>2712.0</ele>
        <time>2020-01-26T17:04:19Z</time>
      </trkpt>
      <trkpt lat="9.9451910" lon="-83.8664880">
        <ele>2714.2</ele>
        <time>2020-01-26T17:04:30Z</time>
      </trkpt>
      <trkpt lat="9.9453700" lon="-83.8665130">
        <ele>2716.4</ele>
        <time>2020-01-26T17:04:41Z</time>
      </trkpt>
      <trkpt lat="9.9455530" lon="-83.8665060">
        <ele>2718.5</ele>
        <time>2020-01-26T17:04:53Z</time>
      </trkpt>
      <trkpt lat="9.9457440" lon="-83.8664870">
        <ele>2720.5</ele>
        <time>2020-01-26T17:05:05Z</time>
      </trkpt>
      <trkpt lat="9.9458520" lon="-83.8664980">
        <ele>2721.7</ele>
        <time>2020-01-26T17:05:12Z</time>
      </trkpt>
      <trkpt lat="9.9459760" lon="-83.8665520">
        <ele>2723.1</ele>
        <time>2020-01-26T17:05:21Z</time>
      </trkpt>
      <trkpt lat="9.9461300" lon="-83.8666580">
        <ele>2725.0</ele>
        <time>2020-01-26T17:05:32Z</time>
      </trkpt>
      <trkpt lat="9.9462880" lon="-83.8667680">
        <ele>2726.8</ele>
        <time>2020-01-26T17:05:44Z</time>
      </trkpt>
      <trkpt lat="9.9464370" lon="-83.8668760">
        <ele>2728.6</ele>
        <time>2020-01-26T17:05:55Z</time>
      </trkpt>
      <trkpt lat="9.9465670" lon="-83.8669360">
        <ele>2730.1</ele>
        <time>2020-01-26T17:06:04Z</time>
      </trkpt>
      <trkpt lat="9.9466730" lon="-83.8669240">
        <ele>2731.3</ele>
        <time>2020-01-26T17:06:11Z</time>
      </trkpt>
      <trkpt lat="9.9467040" lon="-83.8669110">
        <ele>2731.7</ele>
        <time>2020-01-26T17:06:13Z</time>
      </trkpt>
      <trkpt lat="9.9468230" lon="-83.8668280">
        <ele>2733.2</ele>
        <time>2020-01-26T17:06:21Z</time>
      </trkpt>
      <trkpt lat="9.9468620" lon="-83.8667930">
        <ele>2733.8</ele>
        <time>2020-01-26T17:06:24Z</time>
      </trkpt>
      <trkpt lat="9.9468990" lon="-83.8667510">
        <ele>2734.5</ele>
        <time>2020-01-26T17:06:27Z</time>
      </trkpt>
      <trkpt lat="9.9469600" lon="-83.8666730">
        <ele>2735.6</ele>
        <time>2020-01-26T17:06:34Z</time>
      </trkpt>
      <trkpt lat="9.9469660" lon="-83.8666540">
        <ele>2735.8</ele>
        <time>2020-01-26T17:06:36Z</time>
      </trkpt>
      <trkpt lat="9.9469670" lon="-83.8666220">
        <ele>2736.2</ele>
        <time>2020-01-26T17:06:38Z</time>
      </trkpt>
      <trkpt lat="9.9469670" lon="-83.8665810">
        <ele>2736.6</ele>
        <time>2020-01-26T17:06:41Z</time>
      </trkpt>
      <trkpt lat="9.9469580" lon="-83.8664360">
        <ele>2738.2</ele>
        <time>2020-01-26T17:06:50Z</time>
      </trkpt>
      <trkpt lat="9.9469340" lon="-83.8662380">
        <ele>2740.3</ele>
        <time>2020-01-26T17:07:02Z</time>
      </trkpt>
      <trkpt lat="9.9469240" lon="-83.8661830">
        <ele>2740.9</ele>
        <time>2020-01-26T17:07:05Z</time>
      </trkpt>
      <trkpt lat="9.9468840" lon="-83.8660270">
        <ele>2742.4</ele>
        <time>2020-01-26T17:07:14Z</time>
      </trkpt>
      <trkpt lat="9.9468720" lon="-83.8659530">
        <ele>2743.1</ele>
        <time>2020-01-26T17:07:18Z</time>
      </trkpt>
      <trkpt lat="9.9468640" lon="-83.8659010">
        <ele>2743.5</ele>
        <time>2020-01-26T17:07:21Z</time>
      </trkpt>
      <trkpt lat="9.9468350" lon="-83.8657130">
        <ele>2745.3</ele>
        <time>2020-01-26T17:07:33Z</time>
      </trkpt>
      <trkpt lat="9.9468160" lon="-83.8655190">
        <ele>2747.0</ele>
        <time>2020-01-26T17:07:43Z</time>
      </trkpt>
      <trkpt lat="9.9468230" lon="-83.8653460">
        <ele>2748.4</ele>
        <time>2020-01-26T17:07:51Z</time>
      </trkpt>
      <trkpt lat="9.9468720" lon="-83.8651550">
        <ele>2750.0</ele>
        <time>2020-01-26T17:08:01Z</time>
      </trkpt>
      <trkpt lat="9.9469330" lon="-83.8650000">
        <ele>2751.4</ele>
        <time>2020-01-26T17:08:10Z</time>
      </trkpt>
      <trkpt lat="9.9469450" lon="-83.8649500">
        <ele>2751.9</ele>
        <time>2020-01-26T17:08:13Z</time>
      </trkpt>
      <trkpt lat="9.9469530" lon="-83.8649420">
        <ele>2752.0</ele>
        <time>2020-01-26T17:08:17Z</time>
      </trkpt>
      <trkpt lat="9.9469540" lon="-83.8649440">
        <ele>2752.0</ele>
        <time>2020-01-26T17:08:19Z</time>
      </trkpt>
      <trkpt lat="9.9469560" lon="-83.8649500">
        <ele>2752.1</ele>
        <time>2020-01-26T17:08:25Z</time>
      </trkpt>
      <trkpt lat="9.9469570" lon="-83.8649500">
        <ele>2752.1</ele>
        <time>2020-01-26T17:08:30Z</time>
      </trkpt>
      <trkpt lat="9.9470020" lon="-83.8649540">
        <ele>2752.5</ele>
        <time>2020-01-26T17:08:34Z</time>
      </trkpt>
      <trkpt lat="9.9470540" lon="-83.8649710">
        <ele>2753.1</ele>
        <time>2020-01-26T17:08:42Z</time>
      </trkpt>
      <trkpt lat="9.9470630" lon="-83.8649660">
        <ele>2753.2</ele>
        <time>2020-01-26T17:08:52Z</time>
      </trkpt>
      <trkpt lat="9.9470530" lon="-83.8649700">
        <ele>2753.3</ele>
        <time>2020-01-26T17:08:56Z</time>
      </trkpt>
      <trkpt lat="9.9470430" lon="-83.8649600">
        <ele>2753.5</ele>
        <time>2020-01-26T17:09:03Z</time>
      </trkpt>
      <trkpt lat="9.9470360" lon="-83.8649510">
        <ele>2753.6</ele>
        <time>2020-01-26T17:09:11Z</time>
      </trkpt>
      <trkpt lat="9.9470240" lon="-83.8649490">
        <ele>2753.7</ele>
        <time>2020-01-26T17:09:16Z</time>
      </trkpt>
      <trkpt lat="9.9470100" lon="-83.8649650">
        <ele>2753.9</ele>
        <time>2020-01-26T17:09:26Z</time>
      </trkpt>
      <trkpt lat="9.9470140" lon="-83.8649600">
        <ele>2754.0</ele>
        <time>2020-01-26T17:09:39Z</time>
      </trkpt>
      <trkpt lat="9.9470000" lon="-83.8649680">
        <ele>2754.2</ele>
        <time>2020-01-26T17:09:47Z</time>
      </trkpt>
      <trkpt lat="9.9469950" lon="-83.8649700">
        <ele>2754.2</ele>
        <time>2020-01-26T17:09:49Z</time>
      </trkpt>
      <trkpt lat="9.9469810" lon="-83.8649730">
        <ele>2754.4</ele>
        <time>2020-01-26T17:09:53Z</time>
      </trkpt>
      <trkpt lat="9.9469860" lon="-83.8649690">
        <ele>2754.4</ele>
        <time>2020-01-26T17:09:59Z</time>
      </trkpt>
      <trkpt lat="9.9469880" lon="-83.8649610">
        <ele>2754.5</ele>
        <time>2020-01-26T17:10:01Z</time>
      </trkpt>
      <trkpt lat="9.9469870" lon="-83.8649650">
        <ele>2754.6</ele>
        <time>2020-01-26T17:10:21Z</time>
      </trkpt>
      <trkpt lat="9.9469930" lon="-83.8649650">
        <ele>2754.6</ele>
        <time>2020-01-26T17:10:23Z</time>
      </trkpt>
      <trkpt lat="9.9470050" lon="-83.8649640">
        <ele>2754.8</ele>
        <time>2020-01-26T17:10:27Z</time>
      </trkpt>
      <trkpt lat="9.9470240" lon="-83.8649660">
        <ele>2755.0</ele>
        <time>2020-01-26T17:10:33Z</time>
      </trkpt>
      <trkpt lat="9.9470780" lon="-83.8650080">
        <ele>2755.7</ele>
        <time>2020-01-26T17:10:45Z</time>
      </trkpt>
      <trkpt lat="9.9470810" lon="-83.8650170">
        <ele>2755.8</ele>
        <time>2020-01-26T17:10:47Z</time>
      </trkpt>
      <trkpt lat="9.9470920" lon="-83.8649950">
        <ele>2756.0</ele>
        <time>2020-01-26T17:10:57Z</time>
      </trkpt>
      <trkpt lat="9.9471240" lon="-83.8649710">
        <ele>2756.4</ele>
        <time>2020-01-26T17:11:07Z</time>
      </trkpt>
      <trkpt lat="9.9471140" lon="-83.8649940">
        <ele>2756.7</ele>
        <time>2020-01-26T17:11:14Z</time>
      </trkpt>
      <trkpt lat="9.9471140" lon="-83.8649990">
        <ele>2756.8</ele>
        <time>2020-01-26T17:11:15Z</time>
      </trkpt>
      <trkpt lat="9.9471140" lon="-83.8650060">
        <ele>2756.8</ele>
        <time>2020-01-26T17:11:17Z</time>
      </trkpt>
      <trkpt lat="9.9471170" lon="-83.8650190">
        <ele>2757.0</ele>
        <time>2020-01-26T17:11:18Z</time>
      </trkpt>
      <trkpt lat="9.9471190" lon="-83.8650280">
        <ele>2757.1</ele>
        <time>2020-01-26T17:11:19Z</time>
      </trkpt>
      <trkpt lat="9.9471160" lon="-83.8650390">
        <ele>2757.2</ele>
        <time>2020-01-26T17:11:20Z</time>
      </trkpt>
      <trkpt lat="9.9471210" lon="-83.8650590">
        <ele>2757.4</ele>
        <time>2020-01-26T17:11:22Z</time>
      </trkpt>
      <trkpt lat="9.9471310" lon="-83.8650780">
        <ele>2757.6</ele>
        <time>2020-01-26T17:11:24Z</time>
      </trkpt>
      <trkpt lat="9.9471200" lon="-83.8650890">
        <ele>2757.8</ele>
        <time>2020-01-26T17:11:31Z</time>
      </trkpt>
      <trkpt lat="9.9470870" lon="-83.8650080">
        <ele>2758.7</ele>
        <time>2020-01-26T17:11:39Z</time>
      </trkpt>
      <trkpt lat="9.9470750" lon="-83.8649980">
        <ele>2758.8</ele>
        <time>2020-01-26T17:11:43Z</time>
      </trkpt>
      <trkpt lat="9.9470750" lon="-83.8649470">
        <ele>2759.3</ele>
        <time>2020-01-26T17:11:57Z</time>
      </trkpt>
      <trkpt lat="9.9470740" lon="-83.8649470">
        <ele>2759.3</ele>
        <time>2020-01-26T17:11:58Z</time>
      </trkpt>
      <trkpt lat="9.9470820" lon="-83.8649460">
        <ele>2759.4</ele>
        <time>2020-01-26T17:11:59Z</time>
      </trkpt>
      <trkpt lat="9.9471090" lon="-83.8649350">
        <ele>2759.7</ele>
        <time>2020-01-26T17:12:09Z</time>
      </trkpt>
      <trkpt lat="9.9470790" lon="-83.8649280">
        <ele>2760.0</ele>
        <time>2020-01-26T17:12:30Z</time>
      </trkpt>
      <trkpt lat="9.9470780" lon="-83.8649540">
        <ele>2760.2</ele>
        <time>2020-01-26T17:12:43Z</time>
      </trkpt>
      <trkpt lat="9.9470800" lon="-83.8649640">
        <ele>2760.3</ele>
        <time>2020-01-26T17:12:46Z</time>
      </trkpt>
      <trkpt lat="9.9470540" lon="-83.8649940">
        <ele>2760.7</ele>
        <time>2020-01-26T17:12:55Z</time>
      </trkpt>
      <trkpt lat="9.9470870" lon="-83.8649890">
        <ele>2761.0</ele>
        <time>2020-01-26T17:13:05Z</time>
      </trkpt>
      <trkpt lat="9.9471050" lon="-83.8649830">
        <ele>2761.1</ele>
        <time>2020-01-26T17:13:12Z</time>
      </trkpt>
      <trkpt lat="9.9471050" lon="-83.8649840">
        <ele>2761.2</ele>
        <time>2020-01-26T17:13:17Z</time>
      </trkpt>
      <trkpt lat="9.9471050" lon="-83.8649990">
        <ele>2761.3</ele>
        <time>2020-01-26T17:13:21Z</time>
      </trkpt>
      <trkpt lat="9.9470940" lon="-83.8649670">
        <ele>2761.6</ele>
        <time>2020-01-26T17:13:36Z</time>
      </trkpt>
      <trkpt lat="9.9470990" lon="-83.8649680">
        <ele>2761.6</ele>
        <time>2020-01-26T17:13:41Z</time>
      </trkpt>
      <trkpt lat="9.9471060" lon="-83.8649790">
        <ele>2761.7</ele>
        <time>2020-01-26T17:13:46Z</time>
      </trkpt>
      <trkpt lat="9.9471080" lon="-83.8649810">
        <ele>2761.7</ele>
        <time>2020-01-26T17:13:48Z</time>
      </trkpt>
      <trkpt lat="9.9471180" lon="-83.8649750">
        <ele>2761.8</ele>
        <time>2020-01-26T17:14:01Z</time>
      </trkpt>
      <trkpt lat="9.9471290" lon="-83.8649860">
        <ele>2762.0</ele>
        <time>2020-01-26T17:14:09Z</time>
      </trkpt>
      <trkpt lat="9.9471220" lon="-83.8650000">
        <ele>2762.1</ele>
        <time>2020-01-26T17:14:14Z</time>
      </trkpt>
      <trkpt lat="9.9471210" lon="-83.8650010">
        <ele>2762.1</ele>
        <time>2020-01-26T17:14:15Z</time>
      </trkpt>
      <trkpt lat="9.9471170" lon="-83.8650010">
        <ele>2762.2</ele>
        <time>2020-01-26T17:14:17Z</time>
      </trkpt>
      <trkpt lat="9.9471150" lon="-83.8649870">
        <ele>2762.3</ele>
        <time>2020-01-26T17:14:23Z</time>
      </trkpt>
      <trkpt lat="9.9471250" lon="-83.8650060">
        <ele>2762.5</ele>
        <time>2020-01-26T17:14:30Z</time>
      </trkpt>
      <trkpt lat="9.9471270" lon="-83.8650090">
        <ele>2762.5</ele>
        <time>2020-01-26T17:14:33Z</time>
      </trkpt>
      <trkpt lat="9.9471280" lon="-83.8650200">
        <ele>2762.6</ele>
        <time>2020-01-26T17:14:39Z</time>
      </trkpt>
      <trkpt lat="9.9471160" lon="-83.8650130">
        <ele>2762.7</ele>
        <time>2020-01-26T17:14:52Z</time>
      </trkpt>
      <trkpt lat="9.9471140" lon="-83.8650100">
        <ele>2762.8</ele>
        <time>2020-01-26T17:14:53Z</time>
      </trkpt>
      <trkpt lat="9.9471110" lon="-83.8650080">
        <ele>2762.8</ele>
        <time>2020-01-26T17:14:54Z</time>
      </trkpt>
      <trkpt lat="9.9471080" lon="-83.8650090">
        <ele>2762.8</ele>
        <time>2020-01-26T17:14:57Z</time>
      </trkpt>
      <trkpt lat="9.9471020" lon="-83.8650080">
        <ele>2762.9</ele>
        <time>2020-01-26T17:15:01Z</time>
      </trkpt>
      <trkpt lat="9.9470990" lon="-83.8649970">
        <ele>2763.0</ele>
        <time>2020-01-26T17:15:03Z</time>
      </trkpt>
      <trkpt lat="9.9470870" lon="-83.8649650">
        <ele>2763.3</ele>
        <time>2020-01-26T17:15:12Z</time>
      </trkpt>
      <trkpt lat="9.9470850" lon="-83.8649800">
        <ele>2763.5</ele>
        <time>2020-01-26T17:15:28Z</time>
      </trkpt>
      <trkpt lat="9.9470660" lon="-83.8649880">
        <ele>2763.6</ele>
        <time>2020-01-26T17:15:33Z</time>
      </trkpt>
      <trkpt lat="9.9470530" lon="-83.8649670">
        <ele>2763.9</ele>
        <time>2020-01-26T17:15:38Z</time>
      </trkpt>
      <trkpt lat="9.9470660" lon="-83.8649140">
        <ele>2764.3</ele>
        <time>2020-01-26T17:15:40Z</time>
      </trkpt>
      <trkpt lat="9.9470680" lon="-83.8649000">
        <ele>2764.4</ele>
        <time>2020-01-26T17:15:41Z</time>
      </trkpt>
      <trkpt lat="9.9470240" lon="-83.8649140">
        <ele>2764.8</ele>
        <time>2020-01-26T17:16:07Z</time>
      </trkpt>
      <trkpt lat="9.9470470" lon="-83.8649730">
        <ele>2765.2</ele>
        <time>2020-01-26T17:16:21Z</time>
      </trkpt>
      <trkpt lat="9.9470570" lon="-83.8649710">
        <ele>2765.3</ele>
        <time>2020-01-26T17:16:23Z</time>
      </trkpt>
      <trkpt lat="9.9470680" lon="-83.8649790">
        <ele>2765.4</ele>
        <time>2020-01-26T17:16:28Z</time>
      </trkpt>
      <trkpt lat="9.9470710" lon="-83.8649840">
        <ele>2765.4</ele>
        <time>2020-01-26T17:16:31Z</time>
      </trkpt>
      <trkpt lat="9.9470620" lon="-83.8649860">
        <ele>2765.5</ele>
        <time>2020-01-26T17:16:33Z</time>
      </trkpt>
      <trkpt lat="9.9470460" lon="-83.8649610">
        <ele>2765.7</ele>
        <time>2020-01-26T17:16:45Z</time>
      </trkpt>
      <trkpt lat="9.9470460" lon="-83.8649590">
        <ele>2765.7</ele>
        <time>2020-01-26T17:16:47Z</time>
      </trkpt>
      <trkpt lat="9.9470460" lon="-83.8649560">
        <ele>2765.7</ele>
        <time>2020-01-26T17:16:49Z</time>
      </trkpt>
      <trkpt lat="9.9470610" lon="-83.8649620">
        <ele>2765.8</ele>
        <time>2020-01-26T17:16:57Z</time>
      </trkpt>
      <trkpt lat="9.9470670" lon="-83.8649850">
        <ele>2766.0</ele>
        <time>2020-01-26T17:17:07Z</time>
      </trkpt>
      <trkpt lat="9.9470680" lon="-83.8649880">
        <ele>2766.0</ele>
        <time>2020-01-26T17:17:14Z</time>
      </trkpt>
      <trkpt lat="9.9470570" lon="-83.8649640">
        <ele>2766.1</ele>
        <time>2020-01-26T17:17:24Z</time>
      </trkpt>
      <trkpt lat="9.9470570" lon="-83.8649610">
        <ele>2766.1</ele>
        <time>2020-01-26T17:17:25Z</time>
      </trkpt>
      <trkpt lat="9.9470580" lon="-83.8649590">
        <ele>2766.2</ele>
        <time>2020-01-26T17:17:26Z</time>
      </trkpt>
      <trkpt lat="9.9470540" lon="-83.8649550">
        <ele>2766.2</ele>
        <time>2020-01-26T17:17:27Z</time>
      </trkpt>
      <trkpt lat="9.9470550" lon="-83.8649530">
        <ele>2766.2</ele>
        <time>2020-01-26T17:17:28Z</time>
      </trkpt>
      <trkpt lat="9.9470510" lon="-83.8649300">
        <ele>2766.3</ele>
        <time>2020-01-26T17:17:34Z</time>
      </trkpt>
      <trkpt lat="9.9470530" lon="-83.8649260">
        <ele>2766.4</ele>
        <time>2020-01-26T17:17:36Z</time>
      </trkpt>
      <trkpt lat="9.9470700" lon="-83.8649320">
        <ele>2766.4</ele>
        <time>2020-01-26T17:17:49Z</time>
      </trkpt>
      <trkpt lat="9.9470630" lon="-83.8649490">
        <ele>2766.5</ele>
        <time>2020-01-26T17:17:58Z</time>
      </trkpt>
      <trkpt lat="9.9470550" lon="-83.8649460">
        <ele>2766.6</ele>
        <time>2020-01-26T17:18:19Z</time>
      </trkpt>
      <trkpt lat="9.9470530" lon="-83.8649490">
        <ele>2766.6</ele>
        <time>2020-01-26T17:18:20Z</time>
      </trkpt>
      <trkpt lat="9.9470470" lon="-83.8649490">
        <ele>2766.6</ele>
        <time>2020-01-26T17:18:21Z</time>
      </trkpt>
      <trkpt lat="9.9470350" lon="-83.8649500">
        <ele>2766.7</ele>
        <time>2020-01-26T17:18:22Z</time>
      </trkpt>
      <trkpt lat="9.9470230" lon="-83.8649350">
        <ele>2766.8</ele>
        <time>2020-01-26T17:18:23Z</time>
      </trkpt>
      <trkpt lat="9.9470120" lon="-83.8649170">
        <ele>2766.9</ele>
        <time>2020-01-26T17:18:24Z</time>
      </trkpt>
      <trkpt lat="9.9469960" lon="-83.8648710">
        <ele>2767.1</ele>
        <time>2020-01-26T17:18:26Z</time>
      </trkpt>
      <trkpt lat="9.9470090" lon="-83.8647880">
        <ele>2767.5</ele>
        <time>2020-01-26T17:18:29Z</time>
      </trkpt>
      <trkpt lat="9.9470400" lon="-83.8646040">
        <ele>2768.3</ele>
        <time>2020-01-26T17:18:35Z</time>
      </trkpt>
      <trkpt lat="9.9470360" lon="-83.8644000">
        <ele>2769.2</ele>
        <time>2020-01-26T17:18:41Z</time>
      </trkpt>
      <trkpt lat="9.9470310" lon="-83.8643640">
        <ele>2769.3</ele>
        <time>2020-01-26T17:18:42Z</time>
      </trkpt>
      <trkpt lat="9.9470250" lon="-83.8643290">
        <ele>2769.4</ele>
        <time>2020-01-26T17:18:43Z</time>
      </trkpt>
      <trkpt lat="9.9470190" lon="-83.8642930">
        <ele>2769.6</ele>
        <time>2020-01-26T17:18:44Z</time>
      </trkpt>
      <trkpt lat="9.9470140" lon="-83.8642560">
        <ele>2769.7</ele>
        <time>2020-01-26T17:18:45Z</time>
      </trkpt>
      <trkpt lat="9.9470000" lon="-83.8641840">
        <ele>2769.9</ele>
        <time>2020-01-26T17:18:47Z</time>
      </trkpt>
      <trkpt lat="9.9469870" lon="-83.8641090">
        <ele>2770.1</ele>
        <time>2020-01-26T17:18:49Z</time>
      </trkpt>
      <trkpt lat="9.9469590" lon="-83.8640010">
        <ele>2770.4</ele>
        <time>2020-01-26T17:18:52Z</time>
      </trkpt>
      <trkpt lat="9.9469240" lon="-83.8638370">
        <ele>2770.9</ele>
        <time>2020-01-26T17:18:57Z</time>
      </trkpt>
      <trkpt lat="9.9469290" lon="-83.8636500">
        <ele>2771.3</ele>
        <time>2020-01-26T17:19:03Z</time>
      </trkpt>
      <trkpt lat="9.9469960" lon="-83.8634610">
        <ele>2771.9</ele>
        <time>2020-01-26T17:19:09Z</time>
      </trkpt>
      <trkpt lat="9.9470930" lon="-83.8632990">
        <ele>2772.6</ele>
        <time>2020-01-26T17:19:15Z</time>
      </trkpt>
      <trkpt lat="9.9471300" lon="-83.8632470">
        <ele>2772.9</ele>
        <time>2020-01-26T17:19:17Z</time>
      </trkpt>
      <trkpt lat="9.9472440" lon="-83.8630880">
        <ele>2773.9</ele>
        <time>2020-01-26T17:19:23Z</time>
      </trkpt>
      <trkpt lat="9.9473480" lon="-83.8629260">
        <ele>2775.2</ele>
        <time>2020-01-26T17:19:29Z</time>
      </trkpt>
      <trkpt lat="9.9474610" lon="-83.8627560">
        <ele>2776.3</ele>
        <time>2020-01-26T17:19:35Z</time>
      </trkpt>
      <trkpt lat="9.9475810" lon="-83.8625810">
        <ele>2777.3</ele>
        <time>2020-01-26T17:19:41Z</time>
      </trkpt>
      <trkpt lat="9.9476780" lon="-83.8623810">
        <ele>2778.6</ele>
        <time>2020-01-26T17:19:47Z</time>
      </trkpt>
      <trkpt lat="9.9476840" lon="-83.8622920">
        <ele>2779.2</ele>
        <time>2020-01-26T17:19:49Z</time>
      </trkpt>
      <trkpt lat="9.9476780" lon="-83.8622490">
        <ele>2779.6</ele>
        <time>2020-01-26T17:19:50Z</time>
      </trkpt>
      <trkpt lat="9.9476660" lon="-83.8622060">
        <ele>2780.1</ele>
        <time>2020-01-26T17:19:51Z</time>
      </trkpt>
      <trkpt lat="9.9476220" lon="-83.8621320">
        <ele>2781.2</ele>
        <time>2020-01-26T17:19:53Z</time>
      </trkpt>
      <trkpt lat="9.9475900" lon="-83.8621020">
        <ele>2781.8</ele>
        <time>2020-01-26T17:19:54Z</time>
      </trkpt>
      <trkpt lat="9.9475130" lon="-83.8620580">
        <ele>2783.0</ele>
        <time>2020-01-26T17:19:56Z</time>
      </trkpt>
      <trkpt lat="9.9474730" lon="-83.8620400">
        <ele>2783.5</ele>
        <time>2020-01-26T17:19:57Z</time>
      </trkpt>
      <trkpt lat="9.9472630" lon="-83.8619760">
        <ele>2786.0</ele>
        <time>2020-01-26T17:20:02Z</time>
      </trkpt>
      <trkpt lat="9.9471360" lon="-83.8619410">
        <ele>2787.2</ele>
        <time>2020-01-26T17:20:05Z</time>
      </trkpt>
      <trkpt lat="9.9470970" lon="-83.8619280">
        <ele>2787.5</ele>
        <time>2020-01-26T17:20:06Z</time>
      </trkpt>
      <trkpt lat="9.9470580" lon="-83.8619140">
        <ele>2787.8</ele>
        <time>2020-01-26T17:20:07Z</time>
      </trkpt>
      <trkpt lat="9.9470190" lon="-83.8619030">
        <ele>2788.0</ele>
        <time>2020-01-26T17:20:08Z</time>
      </trkpt>
      <trkpt lat="9.9468990" lon="-83.8618870">
        <ele>2788.6</ele>
        <time>2020-01-26T17:20:11Z</time>
      </trkpt>
      <trkpt lat="9.9467800" lon="-83.8618790">
        <ele>2789.3</ele>
        <time>2020-01-26T17:20:14Z</time>
      </trkpt>
      <trkpt lat="9.9466320" lon="-83.8618970">
        <ele>2790.3</ele>
        <time>2020-01-26T17:20:18Z</time>
      </trkpt>
      <trkpt lat="9.9464670" lon="-83.8619720">
        <ele>2791.4</ele>
        <time>2020-01-26T17:20:23Z</time>
      </trkpt>
      <trkpt lat="9.9462970" lon="-83.8620710">
        <ele>2792.6</ele>
        <time>2020-01-26T17:20:30Z</time>
      </trkpt>
      <trkpt lat="9.9461360" lon="-83.8621810">
        <ele>2794.4</ele>
        <time>2020-01-26T17:20:38Z</time>
      </trkpt>
      <trkpt lat="9.9459810" lon="-83.8622850">
        <ele>2796.2</ele>
        <time>2020-01-26T17:20:46Z</time>
      </trkpt>
      <trkpt lat="9.9458760" lon="-83.8623300">
        <ele>2797.2</ele>
        <time>2020-01-26T17:20:51Z</time>
      </trkpt>
      <trkpt lat="9.9457840" lon="-83.8623690">
        <ele>2797.9</ele>
        <time>2020-01-26T17:20:55Z</time>
      </trkpt>
      <trkpt lat="9.9456840" lon="-83.8623880">
        <ele>2799.4</ele>
        <time>2020-01-26T17:20:59Z</time>
      </trkpt>
      <trkpt lat="9.9455840" lon="-83.8623990">
        <ele>2800.7</ele>
        <time>2020-01-26T17:21:03Z</time>
      </trkpt>
      <trkpt lat="9.9454850" lon="-83.8623790">
        <ele>2801.9</ele>
        <time>2020-01-26T17:21:07Z</time>
      </trkpt>
      <trkpt lat="9.9454360" lon="-83.8623630">
        <ele>2802.5</ele>
        <time>2020-01-26T17:21:09Z</time>
      </trkpt>
      <trkpt lat="9.9452680" lon="-83.8623010">
        <ele>2803.9</ele>
        <time>2020-01-26T17:21:16Z</time>
      </trkpt>
      <trkpt lat="9.9451820" lon="-83.8622440">
        <ele>2804.6</ele>
        <time>2020-01-26T17:21:20Z</time>
      </trkpt>
      <trkpt lat="9.9450790" lon="-83.8620870">
        <ele>2805.4</ele>
        <time>2020-01-26T17:21:27Z</time>
      </trkpt>
      <trkpt lat="9.9450610" lon="-83.8618900">
        <ele>2806.4</ele>
        <time>2020-01-26T17:21:34Z</time>
      </trkpt>
      <trkpt lat="9.9451040" lon="-83.8616940">
        <ele>2807.3</ele>
        <time>2020-01-26T17:21:42Z</time>
      </trkpt>
      <trkpt lat="9.9451920" lon="-83.8615250">
        <ele>2808.2</ele>
        <time>2020-01-26T17:21:51Z</time>
      </trkpt>
      <trkpt lat="9.9452360" lon="-83.8614790">
        <ele>2808.5</ele>
        <time>2020-01-26T17:21:54Z</time>
      </trkpt>
      <trkpt lat="9.9453820" lon="-83.8613610">
        <ele>2809.4</ele>
        <time>2020-01-26T17:22:03Z</time>
      </trkpt>
      <trkpt lat="9.9455450" lon="-83.8612750">
        <ele>2810.2</ele>
        <time>2020-01-26T17:22:12Z</time>
      </trkpt>
      <trkpt lat="9.9457280" lon="-83.8611810">
        <ele>2811.0</ele>
        <time>2020-01-26T17:22:21Z</time>
      </trkpt>
      <trkpt lat="9.9459050" lon="-83.8611280">
        <ele>2811.6</ele>
        <time>2020-01-26T17:22:29Z</time>
      </trkpt>
      <trkpt lat="9.9460890" lon="-83.8610850">
        <ele>2812.2</ele>
        <time>2020-01-26T17:22:36Z</time>
      </trkpt>
      <trkpt lat="9.9462440" lon="-83.8610320">
        <ele>2812.8</ele>
        <time>2020-01-26T17:22:42Z</time>
      </trkpt>
      <trkpt lat="9.9464290" lon="-83.8609780">
        <ele>2813.7</ele>
        <time>2020-01-26T17:22:49Z</time>
      </trkpt>
      <trkpt lat="9.9465330" lon="-83.8609510">
        <ele>2814.4</ele>
        <time>2020-01-26T17:22:53Z</time>
      </trkpt>
      <trkpt lat="9.9467220" lon="-83.8608980">
        <ele>2815.6</ele>
        <time>2020-01-26T17:23:00Z</time>
      </trkpt>
      <trkpt lat="9.9469130" lon="-83.8608800">
        <ele>2816.9</ele>
        <time>2020-01-26T17:23:07Z</time>
      </trkpt>
      <trkpt lat="9.9470260" lon="-83.8608650">
        <ele>2817.9</ele>
        <time>2020-01-26T17:23:11Z</time>
      </trkpt>
      <trkpt lat="9.9472160" lon="-83.8608370">
        <ele>2819.4</ele>
        <time>2020-01-26T17:23:18Z</time>
      </trkpt>
      <trkpt lat="9.9472960" lon="-83.8608220">
        <ele>2820.0</ele>
        <time>2020-01-26T17:23:21Z</time>
      </trkpt>
      <trkpt lat="9.9474750" lon="-83.8607810">
        <ele>2821.3</ele>
        <time>2020-01-26T17:23:28Z</time>
      </trkpt>
      <trkpt lat="9.9476550" lon="-83.8607020">
        <ele>2822.9</ele>
        <time>2020-01-26T17:23:36Z</time>
      </trkpt>
      <trkpt lat="9.9477770" lon="-83.8606260">
        <ele>2824.4</ele>
        <time>2020-01-26T17:23:42Z</time>
      </trkpt>
      <trkpt lat="9.9478390" lon="-83.8605760">
        <ele>2825.4</ele>
        <time>2020-01-26T17:23:45Z</time>
      </trkpt>
      <trkpt lat="9.9479890" lon="-83.8604520">
        <ele>2827.5</ele>
        <time>2020-01-26T17:23:52Z</time>
      </trkpt>
      <trkpt lat="9.9481420" lon="-83.8603290">
        <ele>2829.6</ele>
        <time>2020-01-26T17:23:59Z</time>
      </trkpt>
      <trkpt lat="9.9482300" lon="-83.8601530">
        <ele>2830.7</ele>
        <time>2020-01-26T17:24:06Z</time>
      </trkpt>
      <trkpt lat="9.9482340" lon="-83.8600760">
        <ele>2831.0</ele>
        <time>2020-01-26T17:24:09Z</time>
      </trkpt>
      <trkpt lat="9.9481770" lon="-83.8599020">
        <ele>2832.1</ele>
        <time>2020-01-26T17:24:16Z</time>
      </trkpt>
      <trkpt lat="9.9480560" lon="-83.8597510">
        <ele>2834.3</ele>
        <time>2020-01-26T17:24:25Z</time>
      </trkpt>
      <trkpt lat="9.9479900" lon="-83.8596530">
        <ele>2836.1</ele>
        <time>2020-01-26T17:24:31Z</time>
      </trkpt>
      <trkpt lat="9.9478720" lon="-83.8594920">
        <ele>2838.6</ele>
        <time>2020-01-26T17:24:41Z</time>
      </trkpt>
      <trkpt lat="9.9478030" lon="-83.8593970">
        <ele>2839.9</ele>
        <time>2020-01-26T17:24:47Z</time>
      </trkpt>
      <trkpt lat="9.9477550" lon="-83.8593340">
        <ele>2840.6</ele>
        <time>2020-01-26T17:24:51Z</time>
      </trkpt>
      <trkpt lat="9.9476530" lon="-83.8591790">
        <ele>2842.0</ele>
        <time>2020-01-26T17:25:00Z</time>
      </trkpt>
      <trkpt lat="9.9476360" lon="-83.8590230">
        <ele>2843.3</ele>
        <time>2020-01-26T17:25:09Z</time>
      </trkpt>
      <trkpt lat="9.9476970" lon="-83.8588470">
        <ele>2844.8</ele>
        <time>2020-01-26T17:25:20Z</time>
      </trkpt>
      <trkpt lat="9.9477060" lon="-83.8588370">
        <ele>2844.9</ele>
        <time>2020-01-26T17:25:21Z</time>
      </trkpt>
      <trkpt lat="9.9478580" lon="-83.8587320">
        <ele>2846.4</ele>
        <time>2020-01-26T17:25:32Z</time>
      </trkpt>
      <trkpt lat="9.9480350" lon="-83.8587030">
        <ele>2848.1</ele>
        <time>2020-01-26T17:25:42Z</time>
      </trkpt>
      <trkpt lat="9.9482050" lon="-83.8587890">
        <ele>2849.2</ele>
        <time>2020-01-26T17:25:52Z</time>
      </trkpt>
      <trkpt lat="9.9483450" lon="-83.8589190">
        <ele>2850.4</ele>
        <time>2020-01-26T17:26:02Z</time>
      </trkpt>
      <trkpt lat="9.9484760" lon="-83.8590570">
        <ele>2851.7</ele>
        <time>2020-01-26T17:26:12Z</time>
      </trkpt>
      <trkpt lat="9.9485670" lon="-83.8591470">
        <ele>2852.5</ele>
        <time>2020-01-26T17:26:19Z</time>
      </trkpt>
      <trkpt lat="9.9486600" lon="-83.8592380">
        <ele>2853.5</ele>
        <time>2020-01-26T17:26:30Z</time>
      </trkpt>
      <trkpt lat="9.9486660" lon="-83.8592420">
        <ele>2853.5</ele>
        <time>2020-01-26T17:26:34Z</time>
      </trkpt>
      <trkpt lat="9.9486910" lon="-83.8592540">
        <ele>2853.8</ele>
        <time>2020-01-26T17:26:37Z</time>
      </trkpt>
      <trkpt lat="9.9487250" lon="-83.8592780">
        <ele>2854.1</ele>
        <time>2020-01-26T17:26:40Z</time>
      </trkpt>
      <trkpt lat="9.9487630" lon="-83.8593080">
        <ele>2854.5</ele>
        <time>2020-01-26T17:26:43Z</time>
      </trkpt>
      <trkpt lat="9.9488470" lon="-83.8593700">
        <ele>2855.7</ele>
        <time>2020-01-26T17:26:50Z</time>
      </trkpt>
      <trkpt lat="9.9488690" lon="-83.8593860">
        <ele>2856.0</ele>
        <time>2020-01-26T17:26:52Z</time>
      </trkpt>
      <trkpt lat="9.9490310" lon="-83.8594780">
        <ele>2858.8</ele>
        <time>2020-01-26T17:27:02Z</time>
      </trkpt>
      <trkpt lat="9.9491960" lon="-83.8595650">
        <ele>2862.0</ele>
        <time>2020-01-26T17:27:13Z</time>
      </trkpt>
      <trkpt lat="9.9493440" lon="-83.8596370">
        <ele>2865.0</ele>
        <time>2020-01-26T17:27:22Z</time>
      </trkpt>
      <trkpt lat="9.9494900" lon="-83.8597120">
        <ele>2867.6</ele>
        <time>2020-01-26T17:27:31Z</time>
      </trkpt>
      <trkpt lat="9.9495430" lon="-83.8597380">
        <ele>2868.4</ele>
        <time>2020-01-26T17:27:34Z</time>
      </trkpt>
      <trkpt lat="9.9497120" lon="-83.8598430">
        <ele>2870.5</ele>
        <time>2020-01-26T17:27:44Z</time>
      </trkpt>
      <trkpt lat="9.9498740" lon="-83.8599280">
        <ele>2871.7</ele>
        <time>2020-01-26T17:27:53Z</time>
      </trkpt>
      <trkpt lat="9.9500470" lon="-83.8600180">
        <ele>2872.8</ele>
        <time>2020-01-26T17:28:03Z</time>
      </trkpt>
      <trkpt lat="9.9502100" lon="-83.8601090">
        <ele>2873.7</ele>
        <time>2020-01-26T17:28:12Z</time>
      </trkpt>
      <trkpt lat="9.9503550" lon="-83.8602200">
        <ele>2874.7</ele>
        <time>2020-01-26T17:28:21Z</time>
      </trkpt>
      <trkpt lat="9.9504530" lon="-83.8603760">
        <ele>2875.8</ele>
        <time>2020-01-26T17:28:30Z</time>
      </trkpt>
      <trkpt lat="9.9505400" lon="-83.8605380">
        <ele>2877.2</ele>
        <time>2020-01-26T17:28:39Z</time>
      </trkpt>
      <trkpt lat="9.9506260" lon="-83.8607050">
        <ele>2878.8</ele>
        <time>2020-01-26T17:28:48Z</time>
      </trkpt>
      <trkpt lat="9.9506900" lon="-83.8607840">
        <ele>2879.7</ele>
        <time>2020-01-26T17:28:53Z</time>
      </trkpt>
      <trkpt lat="9.9508020" lon="-83.8608660">
        <ele>2881.0</ele>
        <time>2020-01-26T17:29:00Z</time>
      </trkpt>
      <trkpt lat="9.9509080" lon="-83.8609140">
        <ele>2882.1</ele>
        <time>2020-01-26T17:29:06Z</time>
      </trkpt>
      <trkpt lat="9.9509930" lon="-83.8609200">
        <ele>2882.9</ele>
        <time>2020-01-26T17:29:11Z</time>
      </trkpt>
      <trkpt lat="9.9511360" lon="-83.8608590">
        <ele>2884.7</ele>
        <time>2020-01-26T17:29:20Z</time>
      </trkpt>
      <trkpt lat="9.9512490" lon="-83.8607120">
        <ele>2887.0</ele>
        <time>2020-01-26T17:29:30Z</time>
      </trkpt>
      <trkpt lat="9.9512570" lon="-83.8605700">
        <ele>2888.7</ele>
        <time>2020-01-26T17:29:39Z</time>
      </trkpt>
      <trkpt lat="9.9512140" lon="-83.8604670">
        <ele>2890.0</ele>
        <time>2020-01-26T17:29:46Z</time>
      </trkpt>
      <trkpt lat="9.9510980" lon="-83.8603150">
        <ele>2891.9</ele>
        <time>2020-01-26T17:29:57Z</time>
      </trkpt>
      <trkpt lat="9.9510080" lon="-83.8602070">
        <ele>2893.2</ele>
        <time>2020-01-26T17:30:06Z</time>
      </trkpt>
      <trkpt lat="9.9508820" lon="-83.8600580">
        <ele>2895.1</ele>
        <time>2020-01-26T17:30:19Z</time>
      </trkpt>
      <trkpt lat="9.9507920" lon="-83.8599540">
        <ele>2896.4</ele>
        <time>2020-01-26T17:30:26Z</time>
      </trkpt>
      <trkpt lat="9.9507570" lon="-83.8599130">
        <ele>2896.9</ele>
        <time>2020-01-26T17:30:29Z</time>
      </trkpt>
      <trkpt lat="9.9507250" lon="-83.8598690">
        <ele>2897.4</ele>
        <time>2020-01-26T17:30:32Z</time>
      </trkpt>
      <trkpt lat="9.9506040" lon="-83.8597110">
        <ele>2898.9</ele>
        <time>2020-01-26T17:30:42Z</time>
      </trkpt>
      <trkpt lat="9.9504940" lon="-83.8595710">
        <ele>2900.4</ele>
        <time>2020-01-26T17:30:51Z</time>
      </trkpt>
      <trkpt lat="9.9504200" lon="-83.8594320">
        <ele>2901.9</ele>
        <time>2020-01-26T17:30:59Z</time>
      </trkpt>
      <trkpt lat="9.9503770" lon="-83.8593540">
        <ele>2902.7</ele>
        <time>2020-01-26T17:31:04Z</time>
      </trkpt>
      <trkpt lat="9.9503270" lon="-83.8592300">
        <ele>2904.0</ele>
        <time>2020-01-26T17:31:12Z</time>
      </trkpt>
      <trkpt lat="9.9503230" lon="-83.8590390">
        <ele>2905.8</ele>
        <time>2020-01-26T17:31:22Z</time>
      </trkpt>
      <trkpt lat="9.9503420" lon="-83.8588550">
        <ele>2907.6</ele>
        <time>2020-01-26T17:31:32Z</time>
      </trkpt>
      <trkpt lat="9.9503870" lon="-83.8586620">
        <ele>2909.0</ele>
        <time>2020-01-26T17:31:42Z</time>
      </trkpt>
      <trkpt lat="9.9504430" lon="-83.8584670">
        <ele>2910.1</ele>
        <time>2020-01-26T17:31:52Z</time>
      </trkpt>
      <trkpt lat="9.9505060" lon="-83.8582850">
        <ele>2911.3</ele>
        <time>2020-01-26T17:32:01Z</time>
      </trkpt>
      <trkpt lat="9.9505390" lon="-83.8582040">
        <ele>2911.8</ele>
        <time>2020-01-26T17:32:05Z</time>
      </trkpt>
      <trkpt lat="9.9506130" lon="-83.8580360">
        <ele>2912.7</ele>
        <time>2020-01-26T17:32:13Z</time>
      </trkpt>
      <trkpt lat="9.9506680" lon="-83.8579390">
        <ele>2913.3</ele>
        <time>2020-01-26T17:32:18Z</time>
      </trkpt>
      <trkpt lat="9.9506910" lon="-83.8578990">
        <ele>2913.6</ele>
        <time>2020-01-26T17:32:20Z</time>
      </trkpt>
      <trkpt lat="9.9507120" lon="-83.8578660">
        <ele>2913.8</ele>
        <time>2020-01-26T17:32:22Z</time>
      </trkpt>
      <trkpt lat="9.9507480" lon="-83.8577930">
        <ele>2914.3</ele>
        <time>2020-01-26T17:32:26Z</time>
      </trkpt>
      <trkpt lat="9.9508670" lon="-83.8576520">
        <ele>2915.7</ele>
        <time>2020-01-26T17:32:35Z</time>
      </trkpt>
      <trkpt lat="9.9509810" lon="-83.8575010">
        <ele>2917.5</ele>
        <time>2020-01-26T17:32:45Z</time>
      </trkpt>
      <trkpt lat="9.9511130" lon="-83.8573620">
        <ele>2919.3</ele>
        <time>2020-01-26T17:32:55Z</time>
      </trkpt>
      <trkpt lat="9.9512540" lon="-83.8572260">
        <ele>2921.0</ele>
        <time>2020-01-26T17:33:05Z</time>
      </trkpt>
      <trkpt lat="9.9513820" lon="-83.8570960">
        <ele>2922.8</ele>
        <time>2020-01-26T17:33:15Z</time>
      </trkpt>
      <trkpt lat="9.9514670" lon="-83.8570070">
        <ele>2924.1</ele>
        <time>2020-01-26T17:33:22Z</time>
      </trkpt>
      <trkpt lat="9.9515940" lon="-83.8568490">
        <ele>2925.9</ele>
        <time>2020-01-26T17:33:33Z</time>
      </trkpt>
      <trkpt lat="9.9517000" lon="-83.8566910">
        <ele>2927.3</ele>
        <time>2020-01-26T17:33:42Z</time>
      </trkpt>
      <trkpt lat="9.9517940" lon="-83.8565340">
        <ele>2928.8</ele>
        <time>2020-01-26T17:33:51Z</time>
      </trkpt>
      <trkpt lat="9.9518370" lon="-83.8564730">
        <ele>2929.3</ele>
        <time>2020-01-26T17:33:55Z</time>
      </trkpt>
      <trkpt lat="9.9518450" lon="-83.8564560">
        <ele>2929.4</ele>
        <time>2020-01-26T17:33:56Z</time>
      </trkpt>
      <trkpt lat="9.9518530" lon="-83.8564400">
        <ele>2929.6</ele>
        <time>2020-01-26T17:33:57Z</time>
      </trkpt>
      <trkpt lat="9.9518610" lon="-83.8564230">
        <ele>2929.7</ele>
        <time>2020-01-26T17:33:58Z</time>
      </trkpt>
      <trkpt lat="9.9518700" lon="-83.8564070">
        <ele>2929.8</ele>
        <time>2020-01-26T17:33:59Z</time>
      </trkpt>
      <trkpt lat="9.9518820" lon="-83.8563920">
        <ele>2929.9</ele>
        <time>2020-01-26T17:34:00Z</time>
      </trkpt>
      <trkpt lat="9.9518910" lon="-83.8563770">
        <ele>2929.9</ele>
        <time>2020-01-26T17:34:01Z</time>
      </trkpt>
      <trkpt lat="9.9518990" lon="-83.8563610">
        <ele>2930.0</ele>
        <time>2020-01-26T17:34:02Z</time>
      </trkpt>
      <trkpt lat="9.9519290" lon="-83.8563060">
        <ele>2930.3</ele>
        <time>2020-01-26T17:34:05Z</time>
      </trkpt>
      <trkpt lat="9.9519390" lon="-83.8562900">
        <ele>2930.3</ele>
        <time>2020-01-26T17:34:06Z</time>
      </trkpt>
      <trkpt lat="9.9519500" lon="-83.8562740">
        <ele>2930.4</ele>
        <time>2020-01-26T17:34:07Z</time>
      </trkpt>
      <trkpt lat="9.9519590" lon="-83.8562570">
        <ele>2930.5</ele>
        <time>2020-01-26T17:34:08Z</time>
      </trkpt>
      <trkpt lat="9.9519690" lon="-83.8562390">
        <ele>2930.6</ele>
        <time>2020-01-26T17:34:09Z</time>
      </trkpt>
      <trkpt lat="9.9519780" lon="-83.8562190">
        <ele>2930.7</ele>
        <time>2020-01-26T17:34:10Z</time>
      </trkpt>
      <trkpt lat="9.9519990" lon="-83.8561820">
        <ele>2930.9</ele>
        <time>2020-01-26T17:34:12Z</time>
      </trkpt>
      <trkpt lat="9.9520510" lon="-83.8560950">
        <ele>2931.4</ele>
        <time>2020-01-26T17:34:16Z</time>
      </trkpt>
      <trkpt lat="9.9521170" lon="-83.8559930">
        <ele>2932.0</ele>
        <time>2020-01-26T17:34:21Z</time>
      </trkpt>
      <trkpt lat="9.9522120" lon="-83.8558290">
        <ele>2933.0</ele>
        <time>2020-01-26T17:34:29Z</time>
      </trkpt>
      <trkpt lat="9.9522930" lon="-83.8556910">
        <ele>2933.8</ele>
        <time>2020-01-26T17:34:35Z</time>
      </trkpt>
      <trkpt lat="9.9523510" lon="-83.8556000">
        <ele>2934.3</ele>
        <time>2020-01-26T17:34:39Z</time>
      </trkpt>
      <trkpt lat="9.9524270" lon="-83.8554900">
        <ele>2934.9</ele>
        <time>2020-01-26T17:34:44Z</time>
      </trkpt>
      <trkpt lat="9.9525300" lon="-83.8553130">
        <ele>2936.1</ele>
        <time>2020-01-26T17:34:51Z</time>
      </trkpt>
      <trkpt lat="9.9525550" lon="-83.8552730">
        <ele>2936.4</ele>
        <time>2020-01-26T17:34:53Z</time>
      </trkpt>
      <trkpt lat="9.9525990" lon="-83.8552080">
        <ele>2937.0</ele>
        <time>2020-01-26T17:34:56Z</time>
      </trkpt>
      <trkpt lat="9.9526290" lon="-83.8551630">
        <ele>2937.5</ele>
        <time>2020-01-26T17:34:58Z</time>
      </trkpt>
      <trkpt lat="9.9526930" lon="-83.8550620">
        <ele>2938.6</ele>
        <time>2020-01-26T17:35:02Z</time>
      </trkpt>
      <trkpt lat="9.9528000" lon="-83.8549000">
        <ele>2940.2</ele>
        <time>2020-01-26T17:35:08Z</time>
      </trkpt>
      <trkpt lat="9.9529090" lon="-83.8547350">
        <ele>2941.1</ele>
        <time>2020-01-26T17:35:14Z</time>
      </trkpt>
      <trkpt lat="9.9530240" lon="-83.8545600">
        <ele>2941.3</ele>
        <time>2020-01-26T17:35:21Z</time>
      </trkpt>
      <trkpt lat="9.9531070" lon="-83.8543940">
        <ele>2941.4</ele>
        <time>2020-01-26T17:35:26Z</time>
      </trkpt>
      <trkpt lat="9.9531800" lon="-83.8541890">
        <ele>2941.4</ele>
        <time>2020-01-26T17:35:30Z</time>
      </trkpt>
      <trkpt lat="9.9531960" lon="-83.8541260">
        <ele>2941.3</ele>
        <time>2020-01-26T17:35:31Z</time>
      </trkpt>
      <trkpt lat="9.9532190" lon="-83.8539210">
        <ele>2941.1</ele>
        <time>2020-01-26T17:35:34Z</time>
      </trkpt>
      <trkpt lat="9.9532210" lon="-83.8537160">
        <ele>2940.3</ele>
        <time>2020-01-26T17:35:37Z</time>
      </trkpt>
      <trkpt lat="9.9532090" lon="-83.8535290">
        <ele>2939.3</ele>
        <time>2020-01-26T17:35:40Z</time>
      </trkpt>
      <trkpt lat="9.9531970" lon="-83.8533080">
        <ele>2938.7</ele>
        <time>2020-01-26T17:35:44Z</time>
      </trkpt>
      <trkpt lat="9.9531760" lon="-83.8531090">
        <ele>2939.0</ele>
        <time>2020-01-26T17:35:48Z</time>
      </trkpt>
      <trkpt lat="9.9531510" lon="-83.8529260">
        <ele>2939.9</ele>
        <time>2020-01-26T17:35:52Z</time>
      </trkpt>
      <trkpt lat="9.9531240" lon="-83.8527910">
        <ele>2940.9</ele>
        <time>2020-01-26T17:35:55Z</time>
      </trkpt>
      <trkpt lat="9.9530210" lon="-83.8526430">
        <ele>2943.1</ele>
        <time>2020-01-26T17:35:59Z</time>
      </trkpt>
      <trkpt lat="9.9528570" lon="-83.8525490">
        <ele>2944.7</ele>
        <time>2020-01-26T17:36:04Z</time>
      </trkpt>
      <trkpt lat="9.9528020" lon="-83.8525230">
        <ele>2945.1</ele>
        <time>2020-01-26T17:36:06Z</time>
      </trkpt>
      <trkpt lat="9.9526800" lon="-83.8524860">
        <ele>2946.2</ele>
        <time>2020-01-26T17:36:11Z</time>
      </trkpt>
      <trkpt lat="9.9524960" lon="-83.8524390">
        <ele>2947.7</ele>
        <time>2020-01-26T17:36:19Z</time>
      </trkpt>
      <trkpt lat="9.9523100" lon="-83.8524410">
        <ele>2949.3</ele>
        <time>2020-01-26T17:36:28Z</time>
      </trkpt>
      <trkpt lat="9.9522160" lon="-83.8524500">
        <ele>2950.3</ele>
        <time>2020-01-26T17:36:32Z</time>
      </trkpt>
      <trkpt lat="9.9521150" lon="-83.8524540">
        <ele>2951.0</ele>
        <time>2020-01-26T17:36:37Z</time>
      </trkpt>
      <trkpt lat="9.9519210" lon="-83.8524380">
        <ele>2952.6</ele>
        <time>2020-01-26T17:36:46Z</time>
      </trkpt>
      <trkpt lat="9.9517320" lon="-83.8524660">
        <ele>2953.9</ele>
        <time>2020-01-26T17:36:54Z</time>
      </trkpt>
      <trkpt lat="9.9515420" lon="-83.8524830">
        <ele>2954.9</ele>
        <time>2020-01-26T17:37:02Z</time>
      </trkpt>
      <trkpt lat="9.9513370" lon="-83.8525180">
        <ele>2955.4</ele>
        <time>2020-01-26T17:37:10Z</time>
      </trkpt>
      <trkpt lat="9.9511440" lon="-83.8525820">
        <ele>2955.7</ele>
        <time>2020-01-26T17:37:17Z</time>
      </trkpt>
      <trkpt lat="9.9509640" lon="-83.8526420">
        <ele>2956.1</ele>
        <time>2020-01-26T17:37:23Z</time>
      </trkpt>
      <trkpt lat="9.9507740" lon="-83.8527240">
        <ele>2956.5</ele>
        <time>2020-01-26T17:37:30Z</time>
      </trkpt>
      <trkpt lat="9.9506040" lon="-83.8528340">
        <ele>2956.7</ele>
        <time>2020-01-26T17:37:37Z</time>
      </trkpt>
      <trkpt lat="9.9504110" lon="-83.8529400">
        <ele>2956.9</ele>
        <time>2020-01-26T17:37:43Z</time>
      </trkpt>
      <trkpt lat="9.9502470" lon="-83.8530290">
        <ele>2957.0</ele>
        <time>2020-01-26T17:37:48Z</time>
      </trkpt>
      <trkpt lat="9.9500700" lon="-83.8531170">
        <ele>2957.0</ele>
        <time>2020-01-26T17:37:53Z</time>
      </trkpt>
      <trkpt lat="9.9498940" lon="-83.8532290">
        <ele>2956.8</ele>
        <time>2020-01-26T17:37:58Z</time>
      </trkpt>
      <trkpt lat="9.9498580" lon="-83.8532410">
        <ele>2956.8</ele>
        <time>2020-01-26T17:37:59Z</time>
      </trkpt>
      <trkpt lat="9.9498200" lon="-83.8532500">
        <ele>2956.8</ele>
        <time>2020-01-26T17:38:00Z</time>
      </trkpt>
      <trkpt lat="9.9497790" lon="-83.8532590">
        <ele>2956.9</ele>
        <time>2020-01-26T17:38:01Z</time>
      </trkpt>
      <trkpt lat="9.9496980" lon="-83.8532590">
        <ele>2957.0</ele>
        <time>2020-01-26T17:38:03Z</time>
      </trkpt>
      <trkpt lat="9.9495110" lon="-83.8531790">
        <ele>2957.0</ele>
        <time>2020-01-26T17:38:08Z</time>
      </trkpt>
      <trkpt lat="9.9494540" lon="-83.8531130">
        <ele>2956.8</ele>
        <time>2020-01-26T17:38:10Z</time>
      </trkpt>
      <trkpt lat="9.9493340" lon="-83.8529250">
        <ele>2956.2</ele>
        <time>2020-01-26T17:38:15Z</time>
      </trkpt>
      <trkpt lat="9.9492880" lon="-83.8527930">
        <ele>2955.5</ele>
        <time>2020-01-26T17:38:18Z</time>
      </trkpt>
      <trkpt lat="9.9492750" lon="-83.8526910">
        <ele>2954.9</ele>
        <time>2020-01-26T17:38:20Z</time>
      </trkpt>
      <trkpt lat="9.9493480" lon="-83.8524900">
        <ele>2953.5</ele>
        <time>2020-01-26T17:38:24Z</time>
      </trkpt>
      <trkpt lat="9.9494810" lon="-83.8523650">
        <ele>2951.9</ele>
        <time>2020-01-26T17:38:27Z</time>
      </trkpt>
      <trkpt lat="9.9495330" lon="-83.8523240">
        <ele>2951.2</ele>
        <time>2020-01-26T17:38:28Z</time>
      </trkpt>
      <trkpt lat="9.9496470" lon="-83.8522390">
        <ele>2949.9</ele>
        <time>2020-01-26T17:38:30Z</time>
      </trkpt>
      <trkpt lat="9.9497880" lon="-83.8521080">
        <ele>2948.0</ele>
        <time>2020-01-26T17:38:33Z</time>
      </trkpt>
      <trkpt lat="9.9498540" lon="-83.8520110">
        <ele>2947.0</ele>
        <time>2020-01-26T17:38:35Z</time>
      </trkpt>
      <trkpt lat="9.9498860" lon="-83.8518280">
        <ele>2945.6</ele>
        <time>2020-01-26T17:38:38Z</time>
      </trkpt>
      <trkpt lat="9.9498760" lon="-83.8516030">
        <ele>2943.1</ele>
        <time>2020-01-26T17:38:41Z</time>
      </trkpt>
      <trkpt lat="9.9498520" lon="-83.8513510">
        <ele>2939.8</ele>
        <time>2020-01-26T17:38:44Z</time>
      </trkpt>
      <trkpt lat="9.9498430" lon="-83.8511040">
        <ele>2937.6</ele>
        <time>2020-01-26T17:38:47Z</time>
      </trkpt>
      <trkpt lat="9.9498810" lon="-83.8508440">
        <ele>2935.0</ele>
        <time>2020-01-26T17:38:50Z</time>
      </trkpt>
      <trkpt lat="9.9499400" lon="-83.8506550">
        <ele>2933.5</ele>
        <time>2020-01-26T17:38:52Z</time>
      </trkpt>
      <trkpt lat="9.9500160" lon="-83.8504520">
        <ele>2932.1</ele>
        <time>2020-01-26T17:38:54Z</time>
      </trkpt>
      <trkpt lat="9.9501060" lon="-83.8502470">
        <ele>2930.8</ele>
        <time>2020-01-26T17:38:56Z</time>
      </trkpt>
      <trkpt lat="9.9502120" lon="-83.8500390">
        <ele>2929.5</ele>
        <time>2020-01-26T17:38:58Z</time>
      </trkpt>
      <trkpt lat="9.9502650" lon="-83.8499330">
        <ele>2928.7</ele>
        <time>2020-01-26T17:38:59Z</time>
      </trkpt>
      <trkpt lat="9.9503220" lon="-83.8498220">
        <ele>2927.7</ele>
        <time>2020-01-26T17:39:00Z</time>
      </trkpt>
      <trkpt lat="9.9503930" lon="-83.8497180">
        <ele>2927.0</ele>
        <time>2020-01-26T17:39:01Z</time>
      </trkpt>
      <trkpt lat="9.9505450" lon="-83.8495220">
        <ele>2926.4</ele>
        <time>2020-01-26T17:39:03Z</time>
      </trkpt>
      <trkpt lat="9.9507010" lon="-83.8493390">
        <ele>2926.1</ele>
        <time>2020-01-26T17:39:05Z</time>
      </trkpt>
      <trkpt lat="9.9508530" lon="-83.8491730">
        <ele>2925.9</ele>
        <time>2020-01-26T17:39:07Z</time>
      </trkpt>
      <trkpt lat="9.9510000" lon="-83.8490190">
        <ele>2925.7</ele>
        <time>2020-01-26T17:39:09Z</time>
      </trkpt>
      <trkpt lat="9.9511420" lon="-83.8488740">
        <ele>2925.5</ele>
        <time>2020-01-26T17:39:11Z</time>
      </trkpt>
      <trkpt lat="9.9512780" lon="-83.8487410">
        <ele>2925.2</ele>
        <time>2020-01-26T17:39:13Z</time>
      </trkpt>
      <trkpt lat="9.9514050" lon="-83.8486010">
        <ele>2925.2</ele>
        <time>2020-01-26T17:39:15Z</time>
      </trkpt>
      <trkpt lat="9.9515270" lon="-83.8484640">
        <ele>2925.0</ele>
        <time>2020-01-26T17:39:17Z</time>
      </trkpt>
      <trkpt lat="9.9516460" lon="-83.8483490">
        <ele>2924.6</ele>
        <time>2020-01-26T17:39:19Z</time>
      </trkpt>
      <trkpt lat="9.9517080" lon="-83.8483050">
        <ele>2924.3</ele>
        <time>2020-01-26T17:39:20Z</time>
      </trkpt>
      <trkpt lat="9.9519140" lon="-83.8482180">
        <ele>2923.6</ele>
        <time>2020-01-26T17:39:23Z</time>
      </trkpt>
      <trkpt lat="9.9520650" lon="-83.8481990">
        <ele>2923.4</ele>
        <time>2020-01-26T17:39:25Z</time>
      </trkpt>
      <trkpt lat="9.9522220" lon="-83.8481940">
        <ele>2923.2</ele>
        <time>2020-01-26T17:39:27Z</time>
      </trkpt>
      <trkpt lat="9.9524580" lon="-83.8481780">
        <ele>2922.2</ele>
        <time>2020-01-26T17:39:30Z</time>
      </trkpt>
      <trkpt lat="9.9526110" lon="-83.8481380">
        <ele>2921.4</ele>
        <time>2020-01-26T17:39:32Z</time>
      </trkpt>
      <trkpt lat="9.9528170" lon="-83.8479910">
        <ele>2919.9</ele>
        <time>2020-01-26T17:39:35Z</time>
      </trkpt>
      <trkpt lat="9.9529420" lon="-83.8478680">
        <ele>2918.8</ele>
        <time>2020-01-26T17:39:37Z</time>
      </trkpt>
      <trkpt lat="9.9530790" lon="-83.8477440">
        <ele>2917.6</ele>
        <time>2020-01-26T17:39:39Z</time>
      </trkpt>
      <trkpt lat="9.9532560" lon="-83.8476470">
        <ele>2916.1</ele>
        <time>2020-01-26T17:39:41Z</time>
      </trkpt>
      <trkpt lat="9.9534450" lon="-83.8475600">
        <ele>2914.3</ele>
        <time>2020-01-26T17:39:43Z</time>
      </trkpt>
      <trkpt lat="9.9536490" lon="-83.8474640">
        <ele>2912.5</ele>
        <time>2020-01-26T17:39:45Z</time>
      </trkpt>
      <trkpt lat="9.9538580" lon="-83.8473570">
        <ele>2910.6</ele>
        <time>2020-01-26T17:39:47Z</time>
      </trkpt>
      <trkpt lat="9.9540510" lon="-83.8472540">
        <ele>2909.1</ele>
        <time>2020-01-26T17:39:49Z</time>
      </trkpt>
      <trkpt lat="9.9542520" lon="-83.8471550">
        <ele>2907.5</ele>
        <time>2020-01-26T17:39:51Z</time>
      </trkpt>
      <trkpt lat="9.9544650" lon="-83.8470460">
        <ele>2905.8</ele>
        <time>2020-01-26T17:39:53Z</time>
      </trkpt>
      <trkpt lat="9.9546830" lon="-83.8469360">
        <ele>2904.4</ele>
        <time>2020-01-26T17:39:55Z</time>
      </trkpt>
      <trkpt lat="9.9547860" lon="-83.8468870">
        <ele>2903.8</ele>
        <time>2020-01-26T17:39:56Z</time>
      </trkpt>
      <trkpt lat="9.9549720" lon="-83.8468040">
        <ele>2902.7</ele>
        <time>2020-01-26T17:39:58Z</time>
      </trkpt>
      <trkpt lat="9.9551560" lon="-83.8467420">
        <ele>2901.9</ele>
        <time>2020-01-26T17:40:00Z</time>
      </trkpt>
      <trkpt lat="9.9553560" lon="-83.8467170">
        <ele>2900.9</ele>
        <time>2020-01-26T17:40:02Z</time>
      </trkpt>
      <trkpt lat="9.9555670" lon="-83.8467150">
        <ele>2899.6</ele>
        <time>2020-01-26T17:40:04Z</time>
      </trkpt>
      <trkpt lat="9.9557930" lon="-83.8467260">
        <ele>2898.5</ele>
        <time>2020-01-26T17:40:06Z</time>
      </trkpt>
      <trkpt lat="9.9559030" lon="-83.8467330">
        <ele>2897.9</ele>
        <time>2020-01-26T17:40:07Z</time>
      </trkpt>
      <trkpt lat="9.9561070" lon="-83.8467290">
        <ele>2896.7</ele>
        <time>2020-01-26T17:40:09Z</time>
      </trkpt>
      <trkpt lat="9.9562050" lon="-83.8467130">
        <ele>2895.9</ele>
        <time>2020-01-26T17:40:10Z</time>
      </trkpt>
      <trkpt lat="9.9563890" lon="-83.8466500">
        <ele>2894.3</ele>
        <time>2020-01-26T17:40:12Z</time>
      </trkpt>
      <trkpt lat="9.9565600" lon="-83.8465490">
        <ele>2892.4</ele>
        <time>2020-01-26T17:40:14Z</time>
      </trkpt>
      <trkpt lat="9.9566460" lon="-83.8464990">
        <ele>2891.6</ele>
        <time>2020-01-26T17:40:15Z</time>
      </trkpt>
      <trkpt lat="9.9568350" lon="-83.8464030">
        <ele>2889.7</ele>
        <time>2020-01-26T17:40:17Z</time>
      </trkpt>
      <trkpt lat="9.9570370" lon="-83.8463350">
        <ele>2887.8</ele>
        <time>2020-01-26T17:40:19Z</time>
      </trkpt>
      <trkpt lat="9.9572480" lon="-83.8463010">
        <ele>2885.8</ele>
        <time>2020-01-26T17:40:21Z</time>
      </trkpt>
      <trkpt lat="9.9574460" lon="-83.8462810">
        <ele>2884.1</ele>
        <time>2020-01-26T17:40:23Z</time>
      </trkpt>
      <trkpt lat="9.9576270" lon="-83.8462460">
        <ele>2882.6</ele>
        <time>2020-01-26T17:40:25Z</time>
      </trkpt>
      <trkpt lat="9.9577940" lon="-83.8461860">
        <ele>2882.0</ele>
        <time>2020-01-26T17:40:27Z</time>
      </trkpt>
      <trkpt lat="9.9579470" lon="-83.8460890">
        <ele>2881.6</ele>
        <time>2020-01-26T17:40:29Z</time>
      </trkpt>
      <trkpt lat="9.9580820" lon="-83.8459610">
        <ele>2881.2</ele>
        <time>2020-01-26T17:40:31Z</time>
      </trkpt>
      <trkpt lat="9.9581460" lon="-83.8458850">
        <ele>2881.0</ele>
        <time>2020-01-26T17:40:32Z</time>
      </trkpt>
      <trkpt lat="9.9582700" lon="-83.8457280">
        <ele>2880.2</ele>
        <time>2020-01-26T17:40:34Z</time>
      </trkpt>
      <trkpt lat="9.9583820" lon="-83.8455610">
        <ele>2880.3</ele>
        <time>2020-01-26T17:40:36Z</time>
      </trkpt>
      <trkpt lat="9.9584980" lon="-83.8453940">
        <ele>2880.6</ele>
        <time>2020-01-26T17:40:38Z</time>
      </trkpt>
      <trkpt lat="9.9586090" lon="-83.8452260">
        <ele>2881.1</ele>
        <time>2020-01-26T17:40:40Z</time>
      </trkpt>
      <trkpt lat="9.9586980" lon="-83.8450440">
        <ele>2881.3</ele>
        <time>2020-01-26T17:40:42Z</time>
      </trkpt>
      <trkpt lat="9.9587410" lon="-83.8448610">
        <ele>2881.1</ele>
        <time>2020-01-26T17:40:44Z</time>
      </trkpt>
      <trkpt lat="9.9587460" lon="-83.8446790">
        <ele>2880.1</ele>
        <time>2020-01-26T17:40:46Z</time>
      </trkpt>
      <trkpt lat="9.9587300" lon="-83.8444220">
        <ele>2880.9</ele>
        <time>2020-01-26T17:40:49Z</time>
      </trkpt>
      <trkpt lat="9.9587180" lon="-83.8441760">
        <ele>2880.8</ele>
        <time>2020-01-26T17:40:52Z</time>
      </trkpt>
      <trkpt lat="9.9587190" lon="-83.8440950">
        <ele>2880.7</ele>
        <time>2020-01-26T17:40:53Z</time>
      </trkpt>
      <trkpt lat="9.9587360" lon="-83.8439450">
        <ele>2880.1</ele>
        <time>2020-01-26T17:40:55Z</time>
      </trkpt>
      <trkpt lat="9.9587820" lon="-83.8437470">
        <ele>2878.8</ele>
        <time>2020-01-26T17:40:58Z</time>
      </trkpt>
      <trkpt lat="9.9587990" lon="-83.8436860">
        <ele>2878.4</ele>
        <time>2020-01-26T17:40:59Z</time>
      </trkpt>
      <trkpt lat="9.9588470" lon="-83.8434890">
        <ele>2877.3</ele>
        <time>2020-01-26T17:41:02Z</time>
      </trkpt>
      <trkpt lat="9.9589080" lon="-83.8432710">
        <ele>2876.9</ele>
        <time>2020-01-26T17:41:05Z</time>
      </trkpt>
      <trkpt lat="9.9589600" lon="-83.8431110">
        <ele>2876.8</ele>
        <time>2020-01-26T17:41:07Z</time>
      </trkpt>
      <trkpt lat="9.9590500" lon="-83.8428560">
        <ele>2876.9</ele>
        <time>2020-01-26T17:41:10Z</time>
      </trkpt>
      <trkpt lat="9.9591450" lon="-83.8426000">
        <ele>2877.4</ele>
        <time>2020-01-26T17:41:13Z</time>
      </trkpt>
      <trkpt lat="9.9592370" lon="-83.8423470">
        <ele>2878.6</ele>
        <time>2020-01-26T17:41:16Z</time>
      </trkpt>
      <trkpt lat="9.9593170" lon="-83.8421010">
        <ele>2880.1</ele>
        <time>2020-01-26T17:41:19Z</time>
      </trkpt>
      <trkpt lat="9.9593930" lon="-83.8418760">
        <ele>2882.0</ele>
        <time>2020-01-26T17:41:22Z</time>
      </trkpt>
      <trkpt lat="9.9594620" lon="-83.8416870">
        <ele>2883.8</ele>
        <time>2020-01-26T17:41:25Z</time>
      </trkpt>
      <trkpt lat="9.9595280" lon="-83.8414790">
        <ele>2885.9</ele>
        <time>2020-01-26T17:41:29Z</time>
      </trkpt>
      <trkpt lat="9.9595960" lon="-83.8412770">
        <ele>2887.7</ele>
        <time>2020-01-26T17:41:35Z</time>
      </trkpt>
      <trkpt lat="9.9596520" lon="-83.8410750">
        <ele>2889.1</ele>
        <time>2020-01-26T17:41:42Z</time>
      </trkpt>
      <trkpt lat="9.9597110" lon="-83.8408940">
        <ele>2890.1</ele>
        <time>2020-01-26T17:41:49Z</time>
      </trkpt>
      <trkpt lat="9.9597730" lon="-83.8407160">
        <ele>2891.2</ele>
        <time>2020-01-26T17:41:58Z</time>
      </trkpt>
      <trkpt lat="9.9598270" lon="-83.8405380">
        <ele>2892.4</ele>
        <time>2020-01-26T17:42:08Z</time>
      </trkpt>
      <trkpt lat="9.9598560" lon="-83.8404580">
        <ele>2893.0</ele>
        <time>2020-01-26T17:42:12Z</time>
      </trkpt>
      <trkpt lat="9.9598720" lon="-83.8404170">
        <ele>2893.3</ele>
        <time>2020-01-26T17:42:14Z</time>
      </trkpt>
      <trkpt lat="9.9598840" lon="-83.8403780">
        <ele>2893.6</ele>
        <time>2020-01-26T17:42:16Z</time>
      </trkpt>
      <trkpt lat="9.9598930" lon="-83.8403590">
        <ele>2893.8</ele>
        <time>2020-01-26T17:42:17Z</time>
      </trkpt>
      <trkpt lat="9.9599190" lon="-83.8402640">
        <ele>2894.5</ele>
        <time>2020-01-26T17:42:22Z</time>
      </trkpt>
      <trkpt lat="9.9599740" lon="-83.8400750">
        <ele>2896.1</ele>
        <time>2020-01-26T17:42:32Z</time>
      </trkpt>
      <trkpt lat="9.9600480" lon="-83.8399220">
        <ele>2897.6</ele>
        <time>2020-01-26T17:42:40Z</time>
      </trkpt>
      <trkpt lat="9.9601400" lon="-83.8397550">
        <ele>2899.4</ele>
        <time>2020-01-26T17:42:49Z</time>
      </trkpt>
      <trkpt lat="9.9601660" lon="-83.8397010">
        <ele>2899.9</ele>
        <time>2020-01-26T17:42:52Z</time>
      </trkpt>
      <trkpt lat="9.9602510" lon="-83.8395220">
        <ele>2901.3</ele>
        <time>2020-01-26T17:43:02Z</time>
      </trkpt>
      <trkpt lat="9.9603570" lon="-83.8393640">
        <ele>2902.8</ele>
        <time>2020-01-26T17:43:12Z</time>
      </trkpt>
      <trkpt lat="9.9603810" lon="-83.8393280">
        <ele>2903.1</ele>
        <time>2020-01-26T17:43:14Z</time>
      </trkpt>
      <trkpt lat="9.9604210" lon="-83.8392750">
        <ele>2903.6</ele>
        <time>2020-01-26T17:43:17Z</time>
      </trkpt>
      <trkpt lat="9.9604490" lon="-83.8392430">
        <ele>2903.9</ele>
        <time>2020-01-26T17:43:19Z</time>
      </trkpt>
      <trkpt lat="9.9605640" lon="-83.8390990">
        <ele>2905.5</ele>
        <time>2020-01-26T17:43:27Z</time>
      </trkpt>
      <trkpt lat="9.9606770" lon="-83.8389550">
        <ele>2907.3</ele>
        <time>2020-01-26T17:43:35Z</time>
      </trkpt>
      <trkpt lat="9.9608080" lon="-83.8388100">
        <ele>2909.0</ele>
        <time>2020-01-26T17:43:43Z</time>
      </trkpt>
      <trkpt lat="9.9609430" lon="-83.8386700">
        <ele>2910.5</ele>
        <time>2020-01-26T17:43:51Z</time>
      </trkpt>
      <trkpt lat="9.9610590" lon="-83.8385220">
        <ele>2911.9</ele>
        <time>2020-01-26T17:43:59Z</time>
      </trkpt>
      <trkpt lat="9.9611650" lon="-83.8383710">
        <ele>2913.5</ele>
        <time>2020-01-26T17:44:07Z</time>
      </trkpt>
      <trkpt lat="9.9612550" lon="-83.8382020">
        <ele>2914.8</ele>
        <time>2020-01-26T17:44:16Z</time>
      </trkpt>
      <trkpt lat="9.9613090" lon="-83.8380960">
        <ele>2915.5</ele>
        <time>2020-01-26T17:44:23Z</time>
      </trkpt>
      <trkpt lat="9.9613630" lon="-83.8379320">
        <ele>2917.2</ele>
        <time>2020-01-26T17:44:33Z</time>
      </trkpt>
      <trkpt lat="9.9613950" lon="-83.8378290">
        <ele>2918.3</ele>
        <time>2020-01-26T17:44:39Z</time>
      </trkpt>
      <trkpt lat="9.9614540" lon="-83.8376500">
        <ele>2920.3</ele>
        <time>2020-01-26T17:44:48Z</time>
      </trkpt>
      <trkpt lat="9.9615020" lon="-83.8375260">
        <ele>2921.5</ele>
        <time>2020-01-26T17:44:54Z</time>
      </trkpt>
      <trkpt lat="9.9615120" lon="-83.8375070">
        <ele>2921.7</ele>
        <time>2020-01-26T17:44:55Z</time>
      </trkpt>
      <trkpt lat="9.9615800" lon="-83.8373150">
        <ele>2923.6</ele>
        <time>2020-01-26T17:45:04Z</time>
      </trkpt>
      <trkpt lat="9.9616010" lon="-83.8372330">
        <ele>2924.4</ele>
        <time>2020-01-26T17:45:08Z</time>
      </trkpt>
      <trkpt lat="9.9616080" lon="-83.8372110">
        <ele>2924.6</ele>
        <time>2020-01-26T17:45:09Z</time>
      </trkpt>
      <trkpt lat="9.9616350" lon="-83.8371320">
        <ele>2925.3</ele>
        <time>2020-01-26T17:45:13Z</time>
      </trkpt>
      <trkpt lat="9.9616720" lon="-83.8370350">
        <ele>2926.3</ele>
        <time>2020-01-26T17:45:18Z</time>
      </trkpt>
      <trkpt lat="9.9616920" lon="-83.8369760">
        <ele>2926.8</ele>
        <time>2020-01-26T17:45:21Z</time>
      </trkpt>
      <trkpt lat="9.9617160" lon="-83.8369200">
        <ele>2927.4</ele>
        <time>2020-01-26T17:45:24Z</time>
      </trkpt>
      <trkpt lat="9.9617830" lon="-83.8367480">
        <ele>2928.9</ele>
        <time>2020-01-26T17:45:33Z</time>
      </trkpt>
      <trkpt lat="9.9618220" lon="-83.8365570">
        <ele>2930.0</ele>
        <time>2020-01-26T17:45:42Z</time>
      </trkpt>
      <trkpt lat="9.9618030" lon="-83.8363610">
        <ele>2931.1</ele>
        <time>2020-01-26T17:45:51Z</time>
      </trkpt>
      <trkpt lat="9.9617560" lon="-83.8362430">
        <ele>2931.9</ele>
        <time>2020-01-26T17:45:57Z</time>
      </trkpt>
      <trkpt lat="9.9616740" lon="-83.8360910">
        <ele>2932.9</ele>
        <time>2020-01-26T17:46:04Z</time>
      </trkpt>
      <trkpt lat="9.9615970" lon="-83.8359030">
        <ele>2934.1</ele>
        <time>2020-01-26T17:46:12Z</time>
      </trkpt>
      <trkpt lat="9.9615640" lon="-83.8358080">
        <ele>2934.7</ele>
        <time>2020-01-26T17:46:16Z</time>
      </trkpt>
      <trkpt lat="9.9615580" lon="-83.8356140">
        <ele>2936.0</ele>
        <time>2020-01-26T17:46:24Z</time>
      </trkpt>
      <trkpt lat="9.9615950" lon="-83.8354290">
        <ele>2937.3</ele>
        <time>2020-01-26T17:46:32Z</time>
      </trkpt>
      <trkpt lat="9.9616560" lon="-83.8352530">
        <ele>2938.6</ele>
        <time>2020-01-26T17:46:40Z</time>
      </trkpt>
      <trkpt lat="9.9617270" lon="-83.8350620">
        <ele>2940.1</ele>
        <time>2020-01-26T17:46:48Z</time>
      </trkpt>
      <trkpt lat="9.9618020" lon="-83.8348710">
        <ele>2941.5</ele>
        <time>2020-01-26T17:46:56Z</time>
      </trkpt>
      <trkpt lat="9.9618350" lon="-83.8347820">
        <ele>2942.1</ele>
        <time>2020-01-26T17:47:00Z</time>
      </trkpt>
      <trkpt lat="9.9618970" lon="-83.8346030">
        <ele>2943.5</ele>
        <time>2020-01-26T17:47:09Z</time>
      </trkpt>
      <trkpt lat="9.9619610" lon="-83.8344300">
        <ele>2944.8</ele>
        <time>2020-01-26T17:47:18Z</time>
      </trkpt>
      <trkpt lat="9.9620230" lon="-83.8342600">
        <ele>2946.1</ele>
        <time>2020-01-26T17:47:27Z</time>
      </trkpt>
      <trkpt lat="9.9620550" lon="-83.8341590">
        <ele>2946.8</ele>
        <time>2020-01-26T17:47:32Z</time>
      </trkpt>
      <trkpt lat="9.9621180" lon="-83.8339780">
        <ele>2947.8</ele>
        <time>2020-01-26T17:47:41Z</time>
      </trkpt>
      <trkpt lat="9.9621670" lon="-83.8337880">
        <ele>2948.6</ele>
        <time>2020-01-26T17:47:50Z</time>
      </trkpt>
      <trkpt lat="9.9622260" lon="-83.8336120">
        <ele>2949.2</ele>
        <time>2020-01-26T17:47:58Z</time>
      </trkpt>
      <trkpt lat="9.9622490" lon="-83.8335430">
        <ele>2949.4</ele>
        <time>2020-01-26T17:48:01Z</time>
      </trkpt>
      <trkpt lat="9.9622750" lon="-83.8334790">
        <ele>2949.6</ele>
        <time>2020-01-26T17:48:04Z</time>
      </trkpt>
      <trkpt lat="9.9623100" lon="-83.8334130">
        <ele>2949.7</ele>
        <time>2020-01-26T17:48:07Z</time>
      </trkpt>
      <trkpt lat="9.9623560" lon="-83.8333050">
        <ele>2949.9</ele>
        <time>2020-01-26T17:48:11Z</time>
      </trkpt>
      <trkpt lat="9.9623990" lon="-83.8331730">
        <ele>2950.1</ele>
        <time>2020-01-26T17:48:16Z</time>
      </trkpt>
      <trkpt lat="9.9624480" lon="-83.8330300">
        <ele>2950.1</ele>
        <time>2020-01-26T17:48:22Z</time>
      </trkpt>
      <trkpt lat="9.9625110" lon="-83.8328320">
        <ele>2950.1</ele>
        <time>2020-01-26T17:48:29Z</time>
      </trkpt>
      <trkpt lat="9.9625370" lon="-83.8327450">
        <ele>2950.2</ele>
        <time>2020-01-26T17:48:32Z</time>
      </trkpt>
      <trkpt lat="9.9625740" lon="-83.8325940">
        <ele>2951.0</ele>
        <time>2020-01-26T17:48:37Z</time>
      </trkpt>
      <trkpt lat="9.9626020" lon="-83.8325050">
        <ele>2951.3</ele>
        <time>2020-01-26T17:48:40Z</time>
      </trkpt>
      <trkpt lat="9.9626360" lon="-83.8324090">
        <ele>2951.7</ele>
        <time>2020-01-26T17:48:43Z</time>
      </trkpt>
      <trkpt lat="9.9626680" lon="-83.8323160">
        <ele>2952.1</ele>
        <time>2020-01-26T17:48:46Z</time>
      </trkpt>
      <trkpt lat="9.9627200" lon="-83.8321950">
        <ele>2952.9</ele>
        <time>2020-01-26T17:48:50Z</time>
      </trkpt>
      <trkpt lat="9.9627920" lon="-83.8320000">
        <ele>2954.6</ele>
        <time>2020-01-26T17:48:57Z</time>
      </trkpt>
      <trkpt lat="9.9628570" lon="-83.8318290">
        <ele>2956.2</ele>
        <time>2020-01-26T17:49:04Z</time>
      </trkpt>
      <trkpt lat="9.9629350" lon="-83.8316430">
        <ele>2957.7</ele>
        <time>2020-01-26T17:49:13Z</time>
      </trkpt>
      <trkpt lat="9.9630270" lon="-83.8314800">
        <ele>2959.0</ele>
        <time>2020-01-26T17:49:22Z</time>
      </trkpt>
      <trkpt lat="9.9630550" lon="-83.8314300">
        <ele>2959.5</ele>
        <time>2020-01-26T17:49:25Z</time>
      </trkpt>
      <trkpt lat="9.9631660" lon="-83.8312750">
        <ele>2961.0</ele>
        <time>2020-01-26T17:49:35Z</time>
      </trkpt>
      <trkpt lat="9.9632030" lon="-83.8312220">
        <ele>2961.5</ele>
        <time>2020-01-26T17:49:38Z</time>
      </trkpt>
      <trkpt lat="9.9632160" lon="-83.8312060">
        <ele>2961.6</ele>
        <time>2020-01-26T17:49:39Z</time>
      </trkpt>
      <trkpt lat="9.9632420" lon="-83.8311770">
        <ele>2961.9</ele>
        <time>2020-01-26T17:49:41Z</time>
      </trkpt>
      <trkpt lat="9.9632670" lon="-83.8311430">
        <ele>2962.1</ele>
        <time>2020-01-26T17:49:43Z</time>
      </trkpt>
      <trkpt lat="9.9633510" lon="-83.8309650">
        <ele>2963.5</ele>
        <time>2020-01-26T17:49:52Z</time>
      </trkpt>
      <trkpt lat="9.9634500" lon="-83.8307960">
        <ele>2965.1</ele>
        <time>2020-01-26T17:50:00Z</time>
      </trkpt>
      <trkpt lat="9.9635140" lon="-83.8306880">
        <ele>2966.3</ele>
        <time>2020-01-26T17:50:06Z</time>
      </trkpt>
      <trkpt lat="9.9636130" lon="-83.8305140">
        <ele>2968.0</ele>
        <time>2020-01-26T17:50:15Z</time>
      </trkpt>
      <trkpt lat="9.9637150" lon="-83.8303580">
        <ele>2969.7</ele>
        <time>2020-01-26T17:50:25Z</time>
      </trkpt>
      <trkpt lat="9.9638280" lon="-83.8302040">
        <ele>2971.3</ele>
        <time>2020-01-26T17:50:35Z</time>
      </trkpt>
      <trkpt lat="9.9639760" lon="-83.8300900">
        <ele>2972.9</ele>
        <time>2020-01-26T17:50:46Z</time>
      </trkpt>
      <trkpt lat="9.9641480" lon="-83.8300010">
        <ele>2974.6</ele>
        <time>2020-01-26T17:50:57Z</time>
      </trkpt>
      <trkpt lat="9.9643290" lon="-83.8299310">
        <ele>2976.2</ele>
        <time>2020-01-26T17:51:08Z</time>
      </trkpt>
      <trkpt lat="9.9644600" lon="-83.8298880">
        <ele>2977.5</ele>
        <time>2020-01-26T17:51:16Z</time>
      </trkpt>
      <trkpt lat="9.9646390" lon="-83.8298330">
        <ele>2979.7</ele>
        <time>2020-01-26T17:51:27Z</time>
      </trkpt>
      <trkpt lat="9.9648250" lon="-83.8297620">
        <ele>2982.4</ele>
        <time>2020-01-26T17:51:39Z</time>
      </trkpt>
      <trkpt lat="9.9650040" lon="-83.8297020">
        <ele>2985.0</ele>
        <time>2020-01-26T17:51:49Z</time>
      </trkpt>
      <trkpt lat="9.9650390" lon="-83.8296920">
        <ele>2985.4</ele>
        <time>2020-01-26T17:51:51Z</time>
      </trkpt>
      <trkpt lat="9.9651090" lon="-83.8296700">
        <ele>2986.3</ele>
        <time>2020-01-26T17:51:56Z</time>
      </trkpt>
      <trkpt lat="9.9652150" lon="-83.8296390">
        <ele>2987.6</ele>
        <time>2020-01-26T17:52:03Z</time>
      </trkpt>
      <trkpt lat="9.9653360" lon="-83.8295910">
        <ele>2989.1</ele>
        <time>2020-01-26T17:52:12Z</time>
      </trkpt>
      <trkpt lat="9.9653790" lon="-83.8295800">
        <ele>2989.6</ele>
        <time>2020-01-26T17:52:15Z</time>
      </trkpt>
      <trkpt lat="9.9654500" lon="-83.8295380">
        <ele>2990.6</ele>
        <time>2020-01-26T17:52:20Z</time>
      </trkpt>
      <trkpt lat="9.9656270" lon="-83.8294640">
        <ele>2992.7</ele>
        <time>2020-01-26T17:52:33Z</time>
      </trkpt>
      <trkpt lat="9.9657870" lon="-83.8293600">
        <ele>2994.5</ele>
        <time>2020-01-26T17:52:47Z</time>
      </trkpt>
      <trkpt lat="9.9659080" lon="-83.8292130">
        <ele>2996.8</ele>
        <time>2020-01-26T17:52:58Z</time>
      </trkpt>
      <trkpt lat="9.9659960" lon="-83.8290500">
        <ele>2998.8</ele>
        <time>2020-01-26T17:53:08Z</time>
      </trkpt>
      <trkpt lat="9.9660770" lon="-83.8288870">
        <ele>3000.5</ele>
        <time>2020-01-26T17:53:19Z</time>
      </trkpt>
      <trkpt lat="9.9661680" lon="-83.8287140">
        <ele>3002.3</ele>
        <time>2020-01-26T17:53:28Z</time>
      </trkpt>
      <trkpt lat="9.9662510" lon="-83.8285460">
        <ele>3003.7</ele>
        <time>2020-01-26T17:53:36Z</time>
      </trkpt>
      <trkpt lat="9.9663070" lon="-83.8284400">
        <ele>3004.6</ele>
        <time>2020-01-26T17:53:41Z</time>
      </trkpt>
      <trkpt lat="9.9664100" lon="-83.8282840">
        <ele>3006.0</ele>
        <time>2020-01-26T17:53:49Z</time>
      </trkpt>
      <trkpt lat="9.9665270" lon="-83.8281400">
        <ele>3007.5</ele>
        <time>2020-01-26T17:53:58Z</time>
      </trkpt>
      <trkpt lat="9.9666240" lon="-83.8280430">
        <ele>3008.5</ele>
        <time>2020-01-26T17:54:05Z</time>
      </trkpt>
      <trkpt lat="9.9667820" lon="-83.8279310">
        <ele>3010.2</ele>
        <time>2020-01-26T17:54:14Z</time>
      </trkpt>
      <trkpt lat="9.9669550" lon="-83.8278650">
        <ele>3011.9</ele>
        <time>2020-01-26T17:54:23Z</time>
      </trkpt>
      <trkpt lat="9.9671290" lon="-83.8278030">
        <ele>3013.6</ele>
        <time>2020-01-26T17:54:33Z</time>
      </trkpt>
      <trkpt lat="9.9673090" lon="-83.8277470">
        <ele>3015.3</ele>
        <time>2020-01-26T17:54:43Z</time>
      </trkpt>
      <trkpt lat="9.9674930" lon="-83.8276850">
        <ele>3017.5</ele>
        <time>2020-01-26T17:54:53Z</time>
      </trkpt>
      <trkpt lat="9.9676580" lon="-83.8276050">
        <ele>3018.7</ele>
        <time>2020-01-26T17:55:03Z</time>
      </trkpt>
      <trkpt lat="9.9677990" lon="-83.8275250">
        <ele>3019.8</ele>
        <time>2020-01-26T17:55:11Z</time>
      </trkpt>
      <trkpt lat="9.9678920" lon="-83.8274680">
        <ele>3020.3</ele>
        <time>2020-01-26T17:55:16Z</time>
      </trkpt>
      <trkpt lat="9.9679860" lon="-83.8274220">
        <ele>3020.7</ele>
        <time>2020-01-26T17:55:20Z</time>
      </trkpt>
      <trkpt lat="9.9681530" lon="-83.8273240">
        <ele>3021.5</ele>
        <time>2020-01-26T17:55:27Z</time>
      </trkpt>
      <trkpt lat="9.9682730" lon="-83.8272330">
        <ele>3022.2</ele>
        <time>2020-01-26T17:55:33Z</time>
      </trkpt>
      <trkpt lat="9.9683080" lon="-83.8272010">
        <ele>3022.6</ele>
        <time>2020-01-26T17:55:35Z</time>
      </trkpt>
      <trkpt lat="9.9683450" lon="-83.8271640">
        <ele>3023.1</ele>
        <time>2020-01-26T17:55:37Z</time>
      </trkpt>
      <trkpt lat="9.9683610" lon="-83.8271470">
        <ele>3023.3</ele>
        <time>2020-01-26T17:55:38Z</time>
      </trkpt>
      <trkpt lat="9.9684960" lon="-83.8270180">
        <ele>3025.4</ele>
        <time>2020-01-26T17:55:46Z</time>
      </trkpt>
      <trkpt lat="9.9685660" lon="-83.8269440">
        <ele>3026.7</ele>
        <time>2020-01-26T17:55:51Z</time>
      </trkpt>
      <trkpt lat="9.9686140" lon="-83.8268660">
        <ele>3027.6</ele>
        <time>2020-01-26T17:55:57Z</time>
      </trkpt>
      <trkpt lat="9.9686350" lon="-83.8268390">
        <ele>3027.9</ele>
        <time>2020-01-26T17:55:59Z</time>
      </trkpt>
      <trkpt lat="9.9686870" lon="-83.8267670">
        <ele>3028.9</ele>
        <time>2020-01-26T17:56:04Z</time>
      </trkpt>
      <trkpt lat="9.9687080" lon="-83.8267250">
        <ele>3029.4</ele>
        <time>2020-01-26T17:56:07Z</time>
      </trkpt>
      <trkpt lat="9.9687870" lon="-83.8265840">
        <ele>3030.9</ele>
        <time>2020-01-26T17:56:18Z</time>
      </trkpt>
      <trkpt lat="9.9687840" lon="-83.8265800">
        <ele>3030.9</ele>
        <time>2020-01-26T17:56:27Z</time>
      </trkpt>
      <trkpt lat="9.9687890" lon="-83.8265590">
        <ele>3031.1</ele>
        <time>2020-01-26T17:56:35Z</time>
      </trkpt>
      <trkpt lat="9.9687830" lon="-83.8265570">
        <ele>3031.1</ele>
        <time>2020-01-26T17:56:39Z</time>
      </trkpt>
      <trkpt lat="9.9687790" lon="-83.8265600">
        <ele>3031.2</ele>
        <time>2020-01-26T17:56:43Z</time>
      </trkpt>
      <trkpt lat="9.9687800" lon="-83.8265860">
        <ele>3031.4</ele>
        <time>2020-01-26T17:56:49Z</time>
      </trkpt>
      <trkpt lat="9.9687840" lon="-83.8265900">
        <ele>3031.4</ele>
        <time>2020-01-26T17:56:54Z</time>
      </trkpt>
      <trkpt lat="9.9687870" lon="-83.8265880">
        <ele>3031.4</ele>
        <time>2020-01-26T17:56:55Z</time>
      </trkpt>
      <trkpt lat="9.9687900" lon="-83.8265850">
        <ele>3031.5</ele>
        <time>2020-01-26T17:56:57Z</time>
      </trkpt>
      <trkpt lat="9.9687830" lon="-83.8265760">
        <ele>3031.6</ele>
        <time>2020-01-26T17:57:03Z</time>
      </trkpt>
      <trkpt lat="9.9687890" lon="-83.8265750">
        <ele>3031.6</ele>
        <time>2020-01-26T17:57:17Z</time>
      </trkpt>
      <trkpt lat="9.9687850" lon="-83.8265840">
        <ele>3031.7</ele>
        <time>2020-01-26T17:57:19Z</time>
      </trkpt>
      <trkpt lat="9.9687920" lon="-83.8265880">
        <ele>3031.7</ele>
        <time>2020-01-26T17:57:21Z</time>
      </trkpt>
      <trkpt lat="9.9687910" lon="-83.8265870">
        <ele>3031.7</ele>
        <time>2020-01-26T17:57:23Z</time>
      </trkpt>
      <trkpt lat="9.9687870" lon="-83.8265890">
        <ele>3031.8</ele>
        <time>2020-01-26T17:57:29Z</time>
      </trkpt>
      <trkpt lat="9.9687910" lon="-83.8265880">
        <ele>3031.8</ele>
        <time>2020-01-26T17:57:32Z</time>
      </trkpt>
      <trkpt lat="9.9687910" lon="-83.8265930">
        <ele>3031.8</ele>
        <time>2020-01-26T17:57:33Z</time>
      </trkpt>
      <trkpt lat="9.9687860" lon="-83.8265940">
        <ele>3031.9</ele>
        <time>2020-01-26T17:57:36Z</time>
      </trkpt>
      <trkpt lat="9.9687870" lon="-83.8265960">
        <ele>3031.9</ele>
        <time>2020-01-26T17:57:39Z</time>
      </trkpt>
      <trkpt lat="9.9687830" lon="-83.8265810">
        <ele>3032.0</ele>
        <time>2020-01-26T17:57:43Z</time>
      </trkpt>
      <trkpt lat="9.9687790" lon="-83.8265720">
        <ele>3032.1</ele>
        <time>2020-01-26T17:57:50Z</time>
      </trkpt>
      <trkpt lat="9.9687940" lon="-83.8265710">
        <ele>3032.2</ele>
        <time>2020-01-26T17:57:59Z</time>
      </trkpt>
      <trkpt lat="9.9687890" lon="-83.8265630">
        <ele>3032.2</ele>
        <time>2020-01-26T17:58:02Z</time>
      </trkpt>
      <trkpt lat="9.9687970" lon="-83.8265700">
        <ele>3032.3</ele>
        <time>2020-01-26T17:58:06Z</time>
      </trkpt>
      <trkpt lat="9.9687940" lon="-83.8265690">
        <ele>3032.3</ele>
        <time>2020-01-26T17:58:07Z</time>
      </trkpt>
      <trkpt lat="9.9687920" lon="-83.8265660">
        <ele>3032.4</ele>
        <time>2020-01-26T17:58:11Z</time>
      </trkpt>
      <trkpt lat="9.9687870" lon="-83.8265570">
        <ele>3032.4</ele>
        <time>2020-01-26T17:58:16Z</time>
      </trkpt>
      <trkpt lat="9.9687880" lon="-83.8265520">
        <ele>3032.5</ele>
        <time>2020-01-26T17:58:18Z</time>
      </trkpt>
      <trkpt lat="9.9687870" lon="-83.8265550">
        <ele>3032.5</ele>
        <time>2020-01-26T17:58:24Z</time>
      </trkpt>
      <trkpt lat="9.9687870" lon="-83.8265580">
        <ele>3032.5</ele>
        <time>2020-01-26T17:58:27Z</time>
      </trkpt>
      <trkpt lat="9.9687880" lon="-83.8265590">
        <ele>3032.5</ele>
        <time>2020-01-26T17:58:31Z</time>
      </trkpt>
      <trkpt lat="9.9687940" lon="-83.8265570">
        <ele>3032.6</ele>
        <time>2020-01-26T17:58:35Z</time>
      </trkpt>
      <trkpt lat="9.9687990" lon="-83.8265560">
        <ele>3032.6</ele>
        <time>2020-01-26T17:58:38Z</time>
      </trkpt>
      <trkpt lat="9.9688000" lon="-83.8265540">
        <ele>3032.6</ele>
        <time>2020-01-26T17:58:40Z</time>
      </trkpt>
      <trkpt lat="9.9687940" lon="-83.8265510">
        <ele>3032.7</ele>
        <time>2020-01-26T17:58:42Z</time>
      </trkpt>
      <trkpt lat="9.9687820" lon="-83.8265520">
        <ele>3032.7</ele>
        <time>2020-01-26T17:58:47Z</time>
      </trkpt>
      <trkpt lat="9.9687690" lon="-83.8265540">
        <ele>3032.8</ele>
        <time>2020-01-26T17:58:51Z</time>
      </trkpt>
      <trkpt lat="9.9687760" lon="-83.8265540">
        <ele>3032.9</ele>
        <time>2020-01-26T17:58:59Z</time>
      </trkpt>
      <trkpt lat="9.9687950" lon="-83.8265520">
        <ele>3033.0</ele>
        <time>2020-01-26T17:59:03Z</time>
      </trkpt>
      <trkpt lat="9.9687790" lon="-83.8265670">
        <ele>3033.2</ele>
        <time>2020-01-26T17:59:12Z</time>
      </trkpt>
      <trkpt lat="9.9687990" lon="-83.8265920">
        <ele>3033.4</ele>
        <time>2020-01-26T17:59:19Z</time>
      </trkpt>
      <trkpt lat="9.9688250" lon="-83.8265850">
        <ele>3033.7</ele>
        <time>2020-01-26T17:59:21Z</time>
      </trkpt>
      <trkpt lat="9.9688390" lon="-83.8265720">
        <ele>3033.8</ele>
        <time>2020-01-26T17:59:22Z</time>
      </trkpt>
      <trkpt lat="9.9688800" lon="-83.8265260">
        <ele>3034.4</ele>
        <time>2020-01-26T17:59:25Z</time>
      </trkpt>
      <trkpt lat="9.9689390" lon="-83.8264590">
        <ele>3035.0</ele>
        <time>2020-01-26T17:59:29Z</time>
      </trkpt>
      <trkpt lat="9.9689960" lon="-83.8263940">
        <ele>3035.5</ele>
        <time>2020-01-26T17:59:33Z</time>
      </trkpt>
      <trkpt lat="9.9690940" lon="-83.8262860">
        <ele>3036.7</ele>
        <time>2020-01-26T17:59:39Z</time>
      </trkpt>
      <trkpt lat="9.9691380" lon="-83.8262320">
        <ele>3037.2</ele>
        <time>2020-01-26T17:59:42Z</time>
      </trkpt>
      <trkpt lat="9.9691840" lon="-83.8261780">
        <ele>3037.7</ele>
        <time>2020-01-26T17:59:45Z</time>
      </trkpt>
      <trkpt lat="9.9692980" lon="-83.8260230">
        <ele>3039.3</ele>
        <time>2020-01-26T17:59:54Z</time>
      </trkpt>
      <trkpt lat="9.9693490" lon="-83.8259640">
        <ele>3039.8</ele>
        <time>2020-01-26T17:59:58Z</time>
      </trkpt>
      <trkpt lat="9.9694750" lon="-83.8258310">
        <ele>3041.2</ele>
        <time>2020-01-26T18:00:08Z</time>
      </trkpt>
      <trkpt lat="9.9695120" lon="-83.8257950">
        <ele>3041.6</ele>
        <time>2020-01-26T18:00:11Z</time>
      </trkpt>
      <trkpt lat="9.9695400" lon="-83.8257700">
        <ele>3042.0</ele>
        <time>2020-01-26T18:00:13Z</time>
      </trkpt>
      <trkpt lat="9.9696410" lon="-83.8256890">
        <ele>3043.2</ele>
        <time>2020-01-26T18:00:20Z</time>
      </trkpt>
      <trkpt lat="9.9697950" lon="-83.8255880">
        <ele>3044.7</ele>
        <time>2020-01-26T18:00:29Z</time>
      </trkpt>
      <trkpt lat="9.9699710" lon="-83.8255110">
        <ele>3046.5</ele>
        <time>2020-01-26T18:00:38Z</time>
      </trkpt>
      <trkpt lat="9.9701550" lon="-83.8254400">
        <ele>3048.2</ele>
        <time>2020-01-26T18:00:47Z</time>
      </trkpt>
      <trkpt lat="9.9703410" lon="-83.8253880">
        <ele>3049.9</ele>
        <time>2020-01-26T18:00:57Z</time>
      </trkpt>
      <trkpt lat="9.9705260" lon="-83.8253300">
        <ele>3052.0</ele>
        <time>2020-01-26T18:01:07Z</time>
      </trkpt>
      <trkpt lat="9.9707090" lon="-83.8252650">
        <ele>3053.6</ele>
        <time>2020-01-26T18:01:18Z</time>
      </trkpt>
      <trkpt lat="9.9708970" lon="-83.8252440">
        <ele>3055.0</ele>
        <time>2020-01-26T18:01:29Z</time>
      </trkpt>
      <trkpt lat="9.9710880" lon="-83.8252320">
        <ele>3056.7</ele>
        <time>2020-01-26T18:01:39Z</time>
      </trkpt>
      <trkpt lat="9.9712680" lon="-83.8252480">
        <ele>3058.5</ele>
        <time>2020-01-26T18:01:49Z</time>
      </trkpt>
      <trkpt lat="9.9714630" lon="-83.8252690">
        <ele>3060.4</ele>
        <time>2020-01-26T18:01:59Z</time>
      </trkpt>
      <trkpt lat="9.9716590" lon="-83.8252670">
        <ele>3062.4</ele>
        <time>2020-01-26T18:02:09Z</time>
      </trkpt>
      <trkpt lat="9.9718400" lon="-83.8252440">
        <ele>3063.9</ele>
        <time>2020-01-26T18:02:19Z</time>
      </trkpt>
      <trkpt lat="9.9720170" lon="-83.8251730">
        <ele>3065.5</ele>
        <time>2020-01-26T18:02:29Z</time>
      </trkpt>
      <trkpt lat="9.9721780" lon="-83.8250630">
        <ele>3067.4</ele>
        <time>2020-01-26T18:02:40Z</time>
      </trkpt>
      <trkpt lat="9.9723260" lon="-83.8249550">
        <ele>3069.0</ele>
        <time>2020-01-26T18:02:50Z</time>
      </trkpt>
      <trkpt lat="9.9724860" lon="-83.8248360">
        <ele>3070.6</ele>
        <time>2020-01-26T18:03:00Z</time>
      </trkpt>
      <trkpt lat="9.9726380" lon="-83.8247210">
        <ele>3072.1</ele>
        <time>2020-01-26T18:03:09Z</time>
      </trkpt>
      <trkpt lat="9.9728010" lon="-83.8246350">
        <ele>3073.2</ele>
        <time>2020-01-26T18:03:18Z</time>
      </trkpt>
      <trkpt lat="9.9729700" lon="-83.8245580">
        <ele>3074.5</ele>
        <time>2020-01-26T18:03:27Z</time>
      </trkpt>
      <trkpt lat="9.9731500" lon="-83.8244990">
        <ele>3076.5</ele>
        <time>2020-01-26T18:03:36Z</time>
      </trkpt>
      <trkpt lat="9.9733360" lon="-83.8244360">
        <ele>3078.5</ele>
        <time>2020-01-26T18:03:46Z</time>
      </trkpt>
      <trkpt lat="9.9735270" lon="-83.8243800">
        <ele>3080.0</ele>
        <time>2020-01-26T18:03:56Z</time>
      </trkpt>
      <trkpt lat="9.9737050" lon="-83.8243310">
        <ele>3081.3</ele>
        <time>2020-01-26T18:04:06Z</time>
      </trkpt>
      <trkpt lat="9.9738880" lon="-83.8242950">
        <ele>3082.6</ele>
        <time>2020-01-26T18:04:17Z</time>
      </trkpt>
      <trkpt lat="9.9740680" lon="-83.8242690">
        <ele>3084.0</ele>
        <time>2020-01-26T18:04:27Z</time>
      </trkpt>
      <trkpt lat="9.9742600" lon="-83.8242490">
        <ele>3085.3</ele>
        <time>2020-01-26T18:04:37Z</time>
      </trkpt>
      <trkpt lat="9.9744470" lon="-83.8242320">
        <ele>3087.0</ele>
        <time>2020-01-26T18:04:47Z</time>
      </trkpt>
      <trkpt lat="9.9746240" lon="-83.8242240">
        <ele>3088.7</ele>
        <time>2020-01-26T18:04:58Z</time>
      </trkpt>
      <trkpt lat="9.9748110" lon="-83.8242140">
        <ele>3090.5</ele>
        <time>2020-01-26T18:05:08Z</time>
      </trkpt>
      <trkpt lat="9.9749970" lon="-83.8241970">
        <ele>3092.4</ele>
        <time>2020-01-26T18:05:19Z</time>
      </trkpt>
      <trkpt lat="9.9751290" lon="-83.8241760">
        <ele>3093.6</ele>
        <time>2020-01-26T18:05:27Z</time>
      </trkpt>
      <trkpt lat="9.9753160" lon="-83.8241560">
        <ele>3095.9</ele>
        <time>2020-01-26T18:05:38Z</time>
      </trkpt>
      <trkpt lat="9.9755060" lon="-83.8241180">
        <ele>3098.3</ele>
        <time>2020-01-26T18:05:51Z</time>
      </trkpt>
      <trkpt lat="9.9756400" lon="-83.8241360">
        <ele>3099.9</ele>
        <time>2020-01-26T18:06:01Z</time>
      </trkpt>
      <trkpt lat="9.9758220" lon="-83.8241490">
        <ele>3101.8</ele>
        <time>2020-01-26T18:06:13Z</time>
      </trkpt>
      <trkpt lat="9.9760020" lon="-83.8242160">
        <ele>3103.6</ele>
        <time>2020-01-26T18:06:25Z</time>
      </trkpt>
      <trkpt lat="9.9761070" lon="-83.8243700">
        <ele>3105.3</ele>
        <time>2020-01-26T18:06:37Z</time>
      </trkpt>
      <trkpt lat="9.9761130" lon="-83.8245580">
        <ele>3107.3</ele>
        <time>2020-01-26T18:06:49Z</time>
      </trkpt>
      <trkpt lat="9.9760130" lon="-83.8247110">
        <ele>3109.2</ele>
        <time>2020-01-26T18:07:00Z</time>
      </trkpt>
      <trkpt lat="9.9758780" lon="-83.8248300">
        <ele>3111.3</ele>
        <time>2020-01-26T18:07:12Z</time>
      </trkpt>
      <trkpt lat="9.9757250" lon="-83.8249390">
        <ele>3113.6</ele>
        <time>2020-01-26T18:07:25Z</time>
      </trkpt>
      <trkpt lat="9.9755610" lon="-83.8250280">
        <ele>3116.0</ele>
        <time>2020-01-26T18:07:36Z</time>
      </trkpt>
      <trkpt lat="9.9754000" lon="-83.8251450">
        <ele>3118.1</ele>
        <time>2020-01-26T18:07:47Z</time>
      </trkpt>
      <trkpt lat="9.9752650" lon="-83.8252810">
        <ele>3120.0</ele>
        <time>2020-01-26T18:07:58Z</time>
      </trkpt>
      <trkpt lat="9.9751200" lon="-83.8254050">
        <ele>3122.1</ele>
        <time>2020-01-26T18:08:09Z</time>
      </trkpt>
      <trkpt lat="9.9749620" lon="-83.8255230">
        <ele>3124.0</ele>
        <time>2020-01-26T18:08:19Z</time>
      </trkpt>
      <trkpt lat="9.9748290" lon="-83.8256620">
        <ele>3125.3</ele>
        <time>2020-01-26T18:08:29Z</time>
      </trkpt>
      <trkpt lat="9.9747030" lon="-83.8257780">
        <ele>3126.3</ele>
        <time>2020-01-26T18:08:38Z</time>
      </trkpt>
      <trkpt lat="9.9746140" lon="-83.8258630">
        <ele>3126.9</ele>
        <time>2020-01-26T18:08:44Z</time>
      </trkpt>
      <trkpt lat="9.9745190" lon="-83.8259150">
        <ele>3127.6</ele>
        <time>2020-01-26T18:08:49Z</time>
      </trkpt>
      <trkpt lat="9.9744310" lon="-83.8259870">
        <ele>3128.5</ele>
        <time>2020-01-26T18:08:55Z</time>
      </trkpt>
      <trkpt lat="9.9743440" lon="-83.8260700">
        <ele>3129.4</ele>
        <time>2020-01-26T18:09:01Z</time>
      </trkpt>
      <trkpt lat="9.9742170" lon="-83.8262040">
        <ele>3130.8</ele>
        <time>2020-01-26T18:09:10Z</time>
      </trkpt>
      <trkpt lat="9.9740900" lon="-83.8263510">
        <ele>3132.2</ele>
        <time>2020-01-26T18:09:19Z</time>
      </trkpt>
      <trkpt lat="9.9739840" lon="-83.8265050">
        <ele>3133.7</ele>
        <time>2020-01-26T18:09:27Z</time>
      </trkpt>
      <trkpt lat="9.9738990" lon="-83.8266810">
        <ele>3135.8</ele>
        <time>2020-01-26T18:09:36Z</time>
      </trkpt>
      <trkpt lat="9.9738030" lon="-83.8268400">
        <ele>3137.6</ele>
        <time>2020-01-26T18:09:45Z</time>
      </trkpt>
      <trkpt lat="9.9737000" lon="-83.8269980">
        <ele>3139.0</ele>
        <time>2020-01-26T18:09:54Z</time>
      </trkpt>
      <trkpt lat="9.9735830" lon="-83.8271570">
        <ele>3140.1</ele>
        <time>2020-01-26T18:10:03Z</time>
      </trkpt>
      <trkpt lat="9.9734770" lon="-83.8273250">
        <ele>3141.3</ele>
        <time>2020-01-26T18:10:14Z</time>
      </trkpt>
      <trkpt lat="9.9733650" lon="-83.8274780">
        <ele>3142.8</ele>
        <time>2020-01-26T18:10:23Z</time>
      </trkpt>
      <trkpt lat="9.9732640" lon="-83.8276340">
        <ele>3144.4</ele>
        <time>2020-01-26T18:10:32Z</time>
      </trkpt>
      <trkpt lat="9.9732100" lon="-83.8278150">
        <ele>3146.1</ele>
        <time>2020-01-26T18:10:42Z</time>
      </trkpt>
      <trkpt lat="9.9732300" lon="-83.8280090">
        <ele>3148.0</ele>
        <time>2020-01-26T18:10:54Z</time>
      </trkpt>
      <trkpt lat="9.9732430" lon="-83.8281370">
        <ele>3149.5</ele>
        <time>2020-01-26T18:11:02Z</time>
      </trkpt>
      <trkpt lat="9.9732730" lon="-83.8283290">
        <ele>3151.8</ele>
        <time>2020-01-26T18:11:14Z</time>
      </trkpt>
      <trkpt lat="9.9732840" lon="-83.8285160">
        <ele>3153.8</ele>
        <time>2020-01-26T18:11:26Z</time>
      </trkpt>
      <trkpt lat="9.9732930" lon="-83.8287080">
        <ele>3156.0</ele>
        <time>2020-01-26T18:11:37Z</time>
      </trkpt>
      <trkpt lat="9.9732960" lon="-83.8287420">
        <ele>3156.4</ele>
        <time>2020-01-26T18:11:39Z</time>
      </trkpt>
      <trkpt lat="9.9733210" lon="-83.8289310">
        <ele>3158.2</ele>
        <time>2020-01-26T18:11:51Z</time>
      </trkpt>
      <trkpt lat="9.9733490" lon="-83.8291230">
        <ele>3160.3</ele>
        <time>2020-01-26T18:12:02Z</time>
      </trkpt>
      <trkpt lat="9.9733900" lon="-83.8292970">
        <ele>3162.5</ele>
        <time>2020-01-26T18:12:13Z</time>
      </trkpt>
      <trkpt lat="9.9733950" lon="-83.8293140">
        <ele>3162.7</ele>
        <time>2020-01-26T18:12:14Z</time>
      </trkpt>
      <trkpt lat="9.9734550" lon="-83.8294310">
        <ele>3164.1</ele>
        <time>2020-01-26T18:12:21Z</time>
      </trkpt>
      <trkpt lat="9.9735730" lon="-83.8295620">
        <ele>3165.8</ele>
        <time>2020-01-26T18:12:31Z</time>
      </trkpt>
      <trkpt lat="9.9737640" lon="-83.8295650">
        <ele>3168.9</ele>
        <time>2020-01-26T18:12:42Z</time>
      </trkpt>
      <trkpt lat="9.9739170" lon="-83.8294580">
        <ele>3171.7</ele>
        <time>2020-01-26T18:12:52Z</time>
      </trkpt>
      <trkpt lat="9.9739860" lon="-83.8293340">
        <ele>3173.5</ele>
        <time>2020-01-26T18:13:01Z</time>
      </trkpt>
      <trkpt lat="9.9740780" lon="-83.8291610">
        <ele>3175.6</ele>
        <time>2020-01-26T18:13:13Z</time>
      </trkpt>
      <trkpt lat="9.9741520" lon="-83.8289840">
        <ele>3177.4</ele>
        <time>2020-01-26T18:13:26Z</time>
      </trkpt>
      <trkpt lat="9.9742570" lon="-83.8288310">
        <ele>3179.2</ele>
        <time>2020-01-26T18:13:38Z</time>
      </trkpt>
      <trkpt lat="9.9744160" lon="-83.8287200">
        <ele>3180.9</ele>
        <time>2020-01-26T18:13:49Z</time>
      </trkpt>
      <trkpt lat="9.9745200" lon="-83.8286310">
        <ele>3181.9</ele>
        <time>2020-01-26T18:13:58Z</time>
      </trkpt>
      <trkpt lat="9.9745990" lon="-83.8285820">
        <ele>3182.6</ele>
        <time>2020-01-26T18:14:04Z</time>
      </trkpt>
      <trkpt lat="9.9747290" lon="-83.8284830">
        <ele>3183.7</ele>
        <time>2020-01-26T18:14:14Z</time>
      </trkpt>
      <trkpt lat="9.9748960" lon="-83.8283860">
        <ele>3185.0</ele>
        <time>2020-01-26T18:14:26Z</time>
      </trkpt>
      <trkpt lat="9.9750590" lon="-83.8283060">
        <ele>3186.2</ele>
        <time>2020-01-26T18:14:37Z</time>
      </trkpt>
      <trkpt lat="9.9750700" lon="-83.8282950">
        <ele>3186.3</ele>
        <time>2020-01-26T18:14:38Z</time>
      </trkpt>
      <trkpt lat="9.9751370" lon="-83.8282550">
        <ele>3186.8</ele>
        <time>2020-01-26T18:14:43Z</time>
      </trkpt>
      <trkpt lat="9.9752770" lon="-83.8281490">
        <ele>3187.9</ele>
        <time>2020-01-26T18:14:55Z</time>
      </trkpt>
      <trkpt lat="9.9754140" lon="-83.8280220">
        <ele>3189.5</ele>
        <time>2020-01-26T18:15:07Z</time>
      </trkpt>
      <trkpt lat="9.9755830" lon="-83.8279310">
        <ele>3190.8</ele>
        <time>2020-01-26T18:15:19Z</time>
      </trkpt>
      <trkpt lat="9.9757640" lon="-83.8278990">
        <ele>3192.7</ele>
        <time>2020-01-26T18:15:32Z</time>
      </trkpt>
      <trkpt lat="9.9759410" lon="-83.8279860">
        <ele>3195.3</ele>
        <time>2020-01-26T18:15:44Z</time>
      </trkpt>
      <trkpt lat="9.9760480" lon="-83.8281350">
        <ele>3197.6</ele>
        <time>2020-01-26T18:15:56Z</time>
      </trkpt>
      <trkpt lat="9.9760900" lon="-83.8283210">
        <ele>3199.6</ele>
        <time>2020-01-26T18:16:08Z</time>
      </trkpt>
      <trkpt lat="9.9760660" lon="-83.8285060">
        <ele>3201.5</ele>
        <time>2020-01-26T18:16:22Z</time>
      </trkpt>
      <trkpt lat="9.9759990" lon="-83.8286790">
        <ele>3202.9</ele>
        <time>2020-01-26T18:16:35Z</time>
      </trkpt>
      <trkpt lat="9.9759190" lon="-83.8288390">
        <ele>3204.6</ele>
        <time>2020-01-26T18:16:46Z</time>
      </trkpt>
      <trkpt lat="9.9758550" lon="-83.8289710">
        <ele>3206.5</ele>
        <time>2020-01-26T18:16:55Z</time>
      </trkpt>
      <trkpt lat="9.9757840" lon="-83.8291460">
        <ele>3209.5</ele>
        <time>2020-01-26T18:17:07Z</time>
      </trkpt>
      <trkpt lat="9.9757760" lon="-83.8292050">
        <ele>3210.4</ele>
        <time>2020-01-26T18:17:11Z</time>
      </trkpt>
      <trkpt lat="9.9757870" lon="-83.8292930">
        <ele>3211.7</ele>
        <time>2020-01-26T18:17:17Z</time>
      </trkpt>
      <trkpt lat="9.9758710" lon="-83.8294700">
        <ele>3214.3</ele>
        <time>2020-01-26T18:17:30Z</time>
      </trkpt>
      <trkpt lat="9.9759760" lon="-83.8296270">
        <ele>3216.6</ele>
        <time>2020-01-26T18:17:43Z</time>
      </trkpt>
      <trkpt lat="9.9760880" lon="-83.8297810">
        <ele>3218.7</ele>
        <time>2020-01-26T18:17:56Z</time>
      </trkpt>
      <trkpt lat="9.9762030" lon="-83.8299390">
        <ele>3220.7</ele>
        <time>2020-01-26T18:18:07Z</time>
      </trkpt>
      <trkpt lat="9.9762410" lon="-83.8299940">
        <ele>3221.3</ele>
        <time>2020-01-26T18:18:11Z</time>
      </trkpt>
      <trkpt lat="9.9762650" lon="-83.8300370">
        <ele>3221.7</ele>
        <time>2020-01-26T18:18:20Z</time>
      </trkpt>
      <trkpt lat="9.9762480" lon="-83.8300430">
        <ele>3221.9</ele>
        <time>2020-01-26T18:18:29Z</time>
      </trkpt>
      <trkpt lat="9.9762450" lon="-83.8300450">
        <ele>3221.9</ele>
        <time>2020-01-26T18:18:34Z</time>
      </trkpt>
      <trkpt lat="9.9762510" lon="-83.8300380">
        <ele>3222.0</ele>
        <time>2020-01-26T18:18:40Z</time>
      </trkpt>
      <trkpt lat="9.9762540" lon="-83.8300320">
        <ele>3222.1</ele>
        <time>2020-01-26T18:18:47Z</time>
      </trkpt>
      <trkpt lat="9.9762530" lon="-83.8300270">
        <ele>3222.1</ele>
        <time>2020-01-26T18:18:51Z</time>
      </trkpt>
      <trkpt lat="9.9762580" lon="-83.8300210">
        <ele>3222.2</ele>
        <time>2020-01-26T18:19:00Z</time>
      </trkpt>
      <trkpt lat="9.9762600" lon="-83.8300130">
        <ele>3222.3</ele>
        <time>2020-01-26T18:19:02Z</time>
      </trkpt>
      <trkpt lat="9.9762600" lon="-83.8300130">
        <ele>3222.3</ele>
        <time>2020-01-26T18:19:03Z</time>
      </trkpt>
      <trkpt lat="9.9762600" lon="-83.8300110">
        <ele>3222.3</ele>
        <time>2020-01-26T18:19:05Z</time>
      </trkpt>
      <trkpt lat="9.9762580" lon="-83.8300060">
        <ele>3222.3</ele>
        <time>2020-01-26T18:19:06Z</time>
      </trkpt>
      <trkpt lat="9.9762500" lon="-83.8300100">
        <ele>3222.4</ele>
        <time>2020-01-26T18:19:08Z</time>
      </trkpt>
      <trkpt lat="9.9762420" lon="-83.8300220">
        <ele>3222.5</ele>
        <time>2020-01-26T18:19:11Z</time>
      </trkpt>
      <trkpt lat="9.9762920" lon="-83.8301680">
        <ele>3223.8</ele>
        <time>2020-01-26T18:19:27Z</time>
      </trkpt>
      <trkpt lat="9.9763350" lon="-83.8302430">
        <ele>3224.5</ele>
        <time>2020-01-26T18:19:32Z</time>
      </trkpt>
      <trkpt lat="9.9763430" lon="-83.8302590">
        <ele>3224.6</ele>
        <time>2020-01-26T18:19:33Z</time>
      </trkpt>
      <trkpt lat="9.9763530" lon="-83.8302740">
        <ele>3224.8</ele>
        <time>2020-01-26T18:19:34Z</time>
      </trkpt>
      <trkpt lat="9.9763630" lon="-83.8302920">
        <ele>3224.9</ele>
        <time>2020-01-26T18:19:35Z</time>
      </trkpt>
      <trkpt lat="9.9763720" lon="-83.8303100">
        <ele>3225.1</ele>
        <time>2020-01-26T18:19:36Z</time>
      </trkpt>
      <trkpt lat="9.9763870" lon="-83.8303460">
        <ele>3225.4</ele>
        <time>2020-01-26T18:19:38Z</time>
      </trkpt>
      <trkpt lat="9.9763970" lon="-83.8303660">
        <ele>3225.6</ele>
        <time>2020-01-26T18:19:39Z</time>
      </trkpt>
      <trkpt lat="9.9764130" lon="-83.8304070">
        <ele>3226.0</ele>
        <time>2020-01-26T18:19:41Z</time>
      </trkpt>
      <trkpt lat="9.9764370" lon="-83.8304790">
        <ele>3226.6</ele>
        <time>2020-01-26T18:19:45Z</time>
      </trkpt>
      <trkpt lat="9.9764770" lon="-83.8306710">
        <ele>3228.4</ele>
        <time>2020-01-26T18:19:57Z</time>
      </trkpt>
      <trkpt lat="9.9765060" lon="-83.8307610">
        <ele>3229.5</ele>
        <time>2020-01-26T18:20:03Z</time>
      </trkpt>
      <trkpt lat="9.9765220" lon="-83.8308050">
        <ele>3230.1</ele>
        <time>2020-01-26T18:20:06Z</time>
      </trkpt>
      <trkpt lat="9.9765340" lon="-83.8308340">
        <ele>3230.5</ele>
        <time>2020-01-26T18:20:08Z</time>
      </trkpt>
      <trkpt lat="9.9765520" lon="-83.8308810">
        <ele>3231.2</ele>
        <time>2020-01-26T18:20:11Z</time>
      </trkpt>
      <trkpt lat="9.9766120" lon="-83.8310640">
        <ele>3234.1</ele>
        <time>2020-01-26T18:20:24Z</time>
      </trkpt>
      <trkpt lat="9.9766360" lon="-83.8312480">
        <ele>3236.6</ele>
        <time>2020-01-26T18:20:35Z</time>
      </trkpt>
      <trkpt lat="9.9766480" lon="-83.8313030">
        <ele>3237.1</ele>
        <time>2020-01-26T18:20:38Z</time>
      </trkpt>
      <trkpt lat="9.9766770" lon="-83.8314090">
        <ele>3237.8</ele>
        <time>2020-01-26T18:20:45Z</time>
      </trkpt>
      <trkpt lat="9.9766790" lon="-83.8314080">
        <ele>3237.8</ele>
        <time>2020-01-26T18:20:46Z</time>
      </trkpt>
      <trkpt lat="9.9767340" lon="-83.8315060">
        <ele>3238.6</ele>
        <time>2020-01-26T18:21:03Z</time>
      </trkpt>
      <trkpt lat="9.9767580" lon="-83.8315480">
        <ele>3239.0</ele>
        <time>2020-01-26T18:21:05Z</time>
      </trkpt>
      <trkpt lat="9.9768250" lon="-83.8316860">
        <ele>3240.2</ele>
        <time>2020-01-26T18:21:11Z</time>
      </trkpt>
      <trkpt lat="9.9768850" lon="-83.8318660">
        <ele>3241.8</ele>
        <time>2020-01-26T18:21:18Z</time>
      </trkpt>
      <trkpt lat="9.9769770" lon="-83.8320320">
        <ele>3243.3</ele>
        <time>2020-01-26T18:21:26Z</time>
      </trkpt>
      <trkpt lat="9.9770690" lon="-83.8321570">
        <ele>3244.1</ele>
        <time>2020-01-26T18:21:33Z</time>
      </trkpt>
      <trkpt lat="9.9771100" lon="-83.8322070">
        <ele>3244.4</ele>
        <time>2020-01-26T18:21:36Z</time>
      </trkpt>
      <trkpt lat="9.9772430" lon="-83.8323360">
        <ele>3245.6</ele>
        <time>2020-01-26T18:21:45Z</time>
      </trkpt>
      <trkpt lat="9.9772950" lon="-83.8323930">
        <ele>3246.2</ele>
        <time>2020-01-26T18:21:49Z</time>
      </trkpt>
      <trkpt lat="9.9773160" lon="-83.8324290">
        <ele>3246.5</ele>
        <time>2020-01-26T18:21:52Z</time>
      </trkpt>
      <trkpt lat="9.9773280" lon="-83.8324520">
        <ele>3246.7</ele>
        <time>2020-01-26T18:21:54Z</time>
      </trkpt>
      <trkpt lat="9.9773660" lon="-83.8324950">
        <ele>3247.0</ele>
        <time>2020-01-26T18:21:57Z</time>
      </trkpt>
      <trkpt lat="9.9774870" lon="-83.8326340">
        <ele>3248.0</ele>
        <time>2020-01-26T18:22:05Z</time>
      </trkpt>
      <trkpt lat="9.9775480" lon="-83.8327120">
        <ele>3248.5</ele>
        <time>2020-01-26T18:22:09Z</time>
      </trkpt>
      <trkpt lat="9.9776090" lon="-83.8327890">
        <ele>3248.9</ele>
        <time>2020-01-26T18:22:13Z</time>
      </trkpt>
      <trkpt lat="9.9777290" lon="-83.8329340">
        <ele>3249.0</ele>
        <time>2020-01-26T18:22:21Z</time>
      </trkpt>
      <trkpt lat="9.9778550" lon="-83.8330970">
        <ele>3249.1</ele>
        <time>2020-01-26T18:22:29Z</time>
      </trkpt>
      <trkpt lat="9.9779580" lon="-83.8332570">
        <ele>3249.4</ele>
        <time>2020-01-26T18:22:36Z</time>
      </trkpt>
      <trkpt lat="9.9780610" lon="-83.8334340">
        <ele>3250.0</ele>
        <time>2020-01-26T18:22:45Z</time>
      </trkpt>
      <trkpt lat="9.9781760" lon="-83.8335930">
        <ele>3250.7</ele>
        <time>2020-01-26T18:22:53Z</time>
      </trkpt>
      <trkpt lat="9.9782730" lon="-83.8337470">
        <ele>3251.3</ele>
        <time>2020-01-26T18:23:00Z</time>
      </trkpt>
      <trkpt lat="9.9783830" lon="-83.8339150">
        <ele>3252.1</ele>
        <time>2020-01-26T18:23:07Z</time>
      </trkpt>
      <trkpt lat="9.9784740" lon="-83.8340820">
        <ele>3252.8</ele>
        <time>2020-01-26T18:23:14Z</time>
      </trkpt>
      <trkpt lat="9.9785610" lon="-83.8342210">
        <ele>3253.1</ele>
        <time>2020-01-26T18:23:20Z</time>
      </trkpt>
      <trkpt lat="9.9786700" lon="-83.8343890">
        <ele>3253.3</ele>
        <time>2020-01-26T18:23:27Z</time>
      </trkpt>
      <trkpt lat="9.9787380" lon="-83.8344480">
        <ele>3253.7</ele>
        <time>2020-01-26T18:23:31Z</time>
      </trkpt>
      <trkpt lat="9.9787970" lon="-83.8345720">
        <ele>3254.5</ele>
        <time>2020-01-26T18:23:42Z</time>
      </trkpt>
      <trkpt lat="9.9787910" lon="-83.8346500">
        <ele>3255.0</ele>
        <time>2020-01-26T18:23:46Z</time>
      </trkpt>
      <trkpt lat="9.9788150" lon="-83.8347550">
        <ele>3255.9</ele>
        <time>2020-01-26T18:23:50Z</time>
      </trkpt>
      <trkpt lat="9.9788250" lon="-83.8347720">
        <ele>3256.0</ele>
        <time>2020-01-26T18:23:51Z</time>
      </trkpt>
      <trkpt lat="9.9788680" lon="-83.8348500">
        <ele>3256.5</ele>
        <time>2020-01-26T18:23:57Z</time>
      </trkpt>
      <trkpt lat="9.9788650" lon="-83.8349270">
        <ele>3257.1</ele>
        <time>2020-01-26T18:24:01Z</time>
      </trkpt>
      <trkpt lat="9.9788590" lon="-83.8350750">
        <ele>3256.6</ele>
        <time>2020-01-26T18:24:08Z</time>
      </trkpt>
      <trkpt lat="9.9788600" lon="-83.8350950">
        <ele>3256.6</ele>
        <time>2020-01-26T18:24:13Z</time>
      </trkpt>
      <trkpt lat="9.9788620" lon="-83.8351050">
        <ele>3256.6</ele>
        <time>2020-01-26T18:24:15Z</time>
      </trkpt>
      <trkpt lat="9.9788730" lon="-83.8351230">
        <ele>3256.6</ele>
        <time>2020-01-26T18:24:30Z</time>
      </trkpt>
      <trkpt lat="9.9788770" lon="-83.8351190">
        <ele>3256.6</ele>
        <time>2020-01-26T18:24:35Z</time>
      </trkpt>
      <trkpt lat="9.9788820" lon="-83.8351180">
        <ele>3256.6</ele>
        <time>2020-01-26T18:24:41Z</time>
      </trkpt>
      <trkpt lat="9.9788860" lon="-83.8350920">
        <ele>3256.6</ele>
        <time>2020-01-26T18:24:48Z</time>
      </trkpt>
      <trkpt lat="9.9788850" lon="-83.8350900">
        <ele>3256.6</ele>
        <time>2020-01-26T18:24:50Z</time>
      </trkpt>
      <trkpt lat="9.9788690" lon="-83.8351210">
        <ele>3256.7</ele>
        <time>2020-01-26T18:25:02Z</time>
      </trkpt>
      <trkpt lat="9.9788720" lon="-83.8351220">
        <ele>3256.7</ele>
        <time>2020-01-26T18:25:05Z</time>
      </trkpt>
      <trkpt lat="9.9788680" lon="-83.8351190">
        <ele>3256.7</ele>
        <time>2020-01-26T18:25:13Z</time>
      </trkpt>
      <trkpt lat="9.9788700" lon="-83.8351080">
        <ele>3256.7</ele>
        <time>2020-01-26T18:25:35Z</time>
      </trkpt>
      <trkpt lat="9.9788630" lon="-83.8351060">
        <ele>3256.7</ele>
        <time>2020-01-26T18:25:42Z</time>
      </trkpt>
      <trkpt lat="9.9788630" lon="-83.8351050">
        <ele>3256.7</ele>
        <time>2020-01-26T18:25:43Z</time>
      </trkpt>
      <trkpt lat="9.9788640" lon="-83.8351040">
        <ele>3256.7</ele>
        <time>2020-01-26T18:25:45Z</time>
      </trkpt>
      <trkpt lat="9.9788600" lon="-83.8351080">
        <ele>3256.7</ele>
        <time>2020-01-26T18:25:46Z</time>
      </trkpt>
      <trkpt lat="9.9788550" lon="-83.8351000">
        <ele>3256.7</ele>
        <time>2020-01-26T18:25:57Z</time>
      </trkpt>
      <trkpt lat="9.9788530" lon="-83.8350940">
        <ele>3256.7</ele>
        <time>2020-01-26T18:25:59Z</time>
      </trkpt>
      <trkpt lat="9.9788690" lon="-83.8351100">
        <ele>3256.7</ele>
        <time>2020-01-26T18:26:08Z</time>
      </trkpt>
      <trkpt lat="9.9788710" lon="-83.8351100">
        <ele>3256.7</ele>
        <time>2020-01-26T18:26:09Z</time>
      </trkpt>
      <trkpt lat="9.9788760" lon="-83.8351100">
        <ele>3256.7</ele>
        <time>2020-01-26T18:26:11Z</time>
      </trkpt>
      <trkpt lat="9.9788750" lon="-83.8351120">
        <ele>3256.7</ele>
        <time>2020-01-26T18:26:13Z</time>
      </trkpt>
      <trkpt lat="9.9788790" lon="-83.8351080">
        <ele>3256.7</ele>
        <time>2020-01-26T18:26:16Z</time>
      </trkpt>
      <trkpt lat="9.9788820" lon="-83.8351000">
        <ele>3256.7</ele>
        <time>2020-01-26T18:26:27Z</time>
      </trkpt>
      <trkpt lat="9.9788770" lon="-83.8350960">
        <ele>3256.7</ele>
        <time>2020-01-26T18:26:32Z</time>
      </trkpt>
      <trkpt lat="9.9788710" lon="-83.8350910">
        <ele>3256.7</ele>
        <time>2020-01-26T18:26:43Z</time>
      </trkpt>
      <trkpt lat="9.9788660" lon="-83.8350950">
        <ele>3256.7</ele>
        <time>2020-01-26T18:26:47Z</time>
      </trkpt>
      <trkpt lat="9.9788680" lon="-83.8350960">
        <ele>3256.7</ele>
        <time>2020-01-26T18:26:51Z</time>
      </trkpt>
      <trkpt lat="9.9788780" lon="-83.8350950">
        <ele>3256.7</ele>
        <time>2020-01-26T18:26:57Z</time>
      </trkpt>
      <trkpt lat="9.9788800" lon="-83.8351080">
        <ele>3256.7</ele>
        <time>2020-01-26T18:27:07Z</time>
      </trkpt>
      <trkpt lat="9.9788690" lon="-83.8351140">
        <ele>3256.7</ele>
        <time>2020-01-26T18:27:11Z</time>
      </trkpt>
      <trkpt lat="9.9788560" lon="-83.8351220">
        <ele>3256.7</ele>
        <time>2020-01-26T18:27:17Z</time>
      </trkpt>
      <trkpt lat="9.9788520" lon="-83.8351270">
        <ele>3256.7</ele>
        <time>2020-01-26T18:27:23Z</time>
      </trkpt>
      <trkpt lat="9.9788490" lon="-83.8351320">
        <ele>3256.7</ele>
        <time>2020-01-26T18:27:29Z</time>
      </trkpt>
      <trkpt lat="9.9788680" lon="-83.8351310">
        <ele>3256.7</ele>
        <time>2020-01-26T18:27:37Z</time>
      </trkpt>
      <trkpt lat="9.9788830" lon="-83.8351250">
        <ele>3256.7</ele>
        <time>2020-01-26T18:27:43Z</time>
      </trkpt>
      <trkpt lat="9.9788850" lon="-83.8351220">
        <ele>3256.7</ele>
        <time>2020-01-26T18:27:46Z</time>
      </trkpt>
      <trkpt lat="9.9788880" lon="-83.8351200">
        <ele>3256.7</ele>
        <time>2020-01-26T18:27:47Z</time>
      </trkpt>
      <trkpt lat="9.9788860" lon="-83.8351210">
        <ele>3256.7</ele>
        <time>2020-01-26T18:27:48Z</time>
      </trkpt>
      <trkpt lat="9.9788840" lon="-83.8351190">
        <ele>3256.7</ele>
        <time>2020-01-26T18:27:49Z</time>
      </trkpt>
      <trkpt lat="9.9788870" lon="-83.8351170">
        <ele>3256.7</ele>
        <time>2020-01-26T18:27:50Z</time>
      </trkpt>
      <trkpt lat="9.9788880" lon="-83.8351130">
        <ele>3256.7</ele>
        <time>2020-01-26T18:27:51Z</time>
      </trkpt>
      <trkpt lat="9.9788830" lon="-83.8351070">
        <ele>3256.7</ele>
        <time>2020-01-26T18:27:53Z</time>
      </trkpt>
      <trkpt lat="9.9788780" lon="-83.8351020">
        <ele>3256.7</ele>
        <time>2020-01-26T18:27:56Z</time>
      </trkpt>
      <trkpt lat="9.9788750" lon="-83.8351040">
        <ele>3256.7</ele>
        <time>2020-01-26T18:27:59Z</time>
      </trkpt>
      <trkpt lat="9.9788700" lon="-83.8351050">
        <ele>3256.7</ele>
        <time>2020-01-26T18:28:13Z</time>
      </trkpt>
      <trkpt lat="9.9788710" lon="-83.8351040">
        <ele>3256.7</ele>
        <time>2020-01-26T18:28:14Z</time>
      </trkpt>
      <trkpt lat="9.9788700" lon="-83.8351060">
        <ele>3256.7</ele>
        <time>2020-01-26T18:28:15Z</time>
      </trkpt>
      <trkpt lat="9.9788720" lon="-83.8351090">
        <ele>3256.7</ele>
        <time>2020-01-26T18:28:16Z</time>
      </trkpt>
      <trkpt lat="9.9788750" lon="-83.8351130">
        <ele>3256.7</ele>
        <time>2020-01-26T18:28:17Z</time>
      </trkpt>
      <trkpt lat="9.9788720" lon="-83.8351060">
        <ele>3256.7</ele>
        <time>2020-01-26T18:28:20Z</time>
      </trkpt>
      <trkpt lat="9.9788720" lon="-83.8350570">
        <ele>3256.8</ele>
        <time>2020-01-26T18:28:26Z</time>
      </trkpt>
      <trkpt lat="9.9788860" lon="-83.8349680">
        <ele>3257.3</ele>
        <time>2020-01-26T18:28:33Z</time>
      </trkpt>
      <trkpt lat="9.9788840" lon="-83.8349390">
        <ele>3257.4</ele>
        <time>2020-01-26T18:28:36Z</time>
      </trkpt>
      <trkpt lat="9.9788780" lon="-83.8349230">
        <ele>3257.4</ele>
        <time>2020-01-26T18:28:39Z</time>
      </trkpt>
      <trkpt lat="9.9788890" lon="-83.8349050">
        <ele>3257.4</ele>
        <time>2020-01-26T18:28:51Z</time>
      </trkpt>
      <trkpt lat="9.9788870" lon="-83.8349090">
        <ele>3257.4</ele>
        <time>2020-01-26T18:28:54Z</time>
      </trkpt>
      <trkpt lat="9.9788630" lon="-83.8349770">
        <ele>3257.2</ele>
        <time>2020-01-26T18:29:23Z</time>
      </trkpt>
      <trkpt lat="9.9788610" lon="-83.8349770">
        <ele>3257.2</ele>
        <time>2020-01-26T18:29:24Z</time>
      </trkpt>
      <trkpt lat="9.9788640" lon="-83.8349770">
        <ele>3257.2</ele>
        <time>2020-01-26T18:29:25Z</time>
      </trkpt>
      <trkpt lat="9.9788650" lon="-83.8349750">
        <ele>3257.2</ele>
        <time>2020-01-26T18:29:27Z</time>
      </trkpt>
      <trkpt lat="9.9788680" lon="-83.8349590">
        <ele>3257.5</ele>
        <time>2020-01-26T18:29:29Z</time>
      </trkpt>
      <trkpt lat="9.9788660" lon="-83.8349540">
        <ele>3257.4</ele>
        <time>2020-01-26T18:29:30Z</time>
      </trkpt>
      <trkpt lat="9.9788660" lon="-83.8349500">
        <ele>3257.4</ele>
        <time>2020-01-26T18:29:32Z</time>
      </trkpt>
      <trkpt lat="9.9788650" lon="-83.8349490">
        <ele>3257.4</ele>
        <time>2020-01-26T18:29:34Z</time>
      </trkpt>
      <trkpt lat="9.9788580" lon="-83.8349580">
        <ele>3257.3</ele>
        <time>2020-01-26T18:29:38Z</time>
      </trkpt>
      <trkpt lat="9.9788530" lon="-83.8349610">
        <ele>3257.3</ele>
        <time>2020-01-26T18:29:42Z</time>
      </trkpt>
      <trkpt lat="9.9788670" lon="-83.8349480">
        <ele>3257.4</ele>
        <time>2020-01-26T18:29:54Z</time>
      </trkpt>
      <trkpt lat="9.9788740" lon="-83.8349440">
        <ele>3257.4</ele>
        <time>2020-01-26T18:29:56Z</time>
      </trkpt>
      <trkpt lat="9.9788810" lon="-83.8349400">
        <ele>3257.4</ele>
        <time>2020-01-26T18:29:59Z</time>
      </trkpt>
      <trkpt lat="9.9788830" lon="-83.8349310">
        <ele>3257.4</ele>
        <time>2020-01-26T18:30:13Z</time>
      </trkpt>
      <trkpt lat="9.9788960" lon="-83.8349490">
        <ele>3257.5</ele>
        <time>2020-01-26T18:30:21Z</time>
      </trkpt>
      <trkpt lat="9.9789090" lon="-83.8349410">
        <ele>3257.5</ele>
        <time>2020-01-26T18:30:27Z</time>
      </trkpt>
      <trkpt lat="9.9789070" lon="-83.8349400">
        <ele>3257.5</ele>
        <time>2020-01-26T18:30:37Z</time>
      </trkpt>
      <trkpt lat="9.9789060" lon="-83.8349460">
        <ele>3257.6</ele>
        <time>2020-01-26T18:30:39Z</time>
      </trkpt>
      <trkpt lat="9.9789080" lon="-83.8349490">
        <ele>3257.6</ele>
        <time>2020-01-26T18:30:41Z</time>
      </trkpt>
      <trkpt lat="9.9789100" lon="-83.8349470">
        <ele>3257.6</ele>
        <time>2020-01-26T18:30:44Z</time>
      </trkpt>
      <trkpt lat="9.9789080" lon="-83.8349420">
        <ele>3257.6</ele>
        <time>2020-01-26T18:30:48Z</time>
      </trkpt>
      <trkpt lat="9.9788850" lon="-83.8349340">
        <ele>3257.6</ele>
        <time>2020-01-26T18:30:54Z</time>
      </trkpt>
      <trkpt lat="9.9788780" lon="-83.8349250">
        <ele>3257.7</ele>
        <time>2020-01-26T18:30:58Z</time>
      </trkpt>
      <trkpt lat="9.9788780" lon="-83.8349030">
        <ele>3257.7</ele>
        <time>2020-01-26T18:31:06Z</time>
      </trkpt>
      <trkpt lat="9.9788800" lon="-83.8348990">
        <ele>3257.7</ele>
        <time>2020-01-26T18:31:07Z</time>
      </trkpt>
      <trkpt lat="9.9788770" lon="-83.8348940">
        <ele>3257.7</ele>
        <time>2020-01-26T18:31:10Z</time>
      </trkpt>
      <trkpt lat="9.9788830" lon="-83.8348920">
        <ele>3257.7</ele>
        <time>2020-01-26T18:31:14Z</time>
      </trkpt>
      <trkpt lat="9.9789250" lon="-83.8348800">
        <ele>3257.9</ele>
        <time>2020-01-26T18:31:26Z</time>
      </trkpt>
      <trkpt lat="9.9789250" lon="-83.8348670">
        <ele>3257.9</ele>
        <time>2020-01-26T18:31:31Z</time>
      </trkpt>
      <trkpt lat="9.9789270" lon="-83.8348740">
        <ele>3257.9</ele>
        <time>2020-01-26T18:31:34Z</time>
      </trkpt>
      <trkpt lat="9.9789340" lon="-83.8348750">
        <ele>3257.9</ele>
        <time>2020-01-26T18:31:36Z</time>
      </trkpt>
      <trkpt lat="9.9789240" lon="-83.8348860">
        <ele>3257.9</ele>
        <time>2020-01-26T18:31:38Z</time>
      </trkpt>
      <trkpt lat="9.9789110" lon="-83.8348920">
        <ele>3257.9</ele>
        <time>2020-01-26T18:31:40Z</time>
      </trkpt>
      <trkpt lat="9.9788900" lon="-83.8349050">
        <ele>3258.0</ele>
        <time>2020-01-26T18:31:47Z</time>
      </trkpt>
      <trkpt lat="9.9788920" lon="-83.8349140">
        <ele>3258.0</ele>
        <time>2020-01-26T18:31:50Z</time>
      </trkpt>
      <trkpt lat="9.9788970" lon="-83.8349090">
        <ele>3258.0</ele>
        <time>2020-01-26T18:31:53Z</time>
      </trkpt>
      <trkpt lat="9.9788990" lon="-83.8349100">
        <ele>3258.0</ele>
        <time>2020-01-26T18:31:57Z</time>
      </trkpt>
      <trkpt lat="9.9789050" lon="-83.8349060">
        <ele>3258.0</ele>
        <time>2020-01-26T18:31:59Z</time>
      </trkpt>
      <trkpt lat="9.9789100" lon="-83.8349080">
        <ele>3258.0</ele>
        <time>2020-01-26T18:32:01Z</time>
      </trkpt>
      <trkpt lat="9.9789430" lon="-83.8348890">
        <ele>3258.1</ele>
        <time>2020-01-26T18:32:16Z</time>
      </trkpt>
      <trkpt lat="9.9789260" lon="-83.8348850">
        <ele>3258.1</ele>
        <time>2020-01-26T18:32:32Z</time>
      </trkpt>
      <trkpt lat="9.9789330" lon="-83.8348860">
        <ele>3258.1</ele>
        <time>2020-01-26T18:32:36Z</time>
      </trkpt>
      <trkpt lat="9.9789330" lon="-83.8348780">
        <ele>3258.1</ele>
        <time>2020-01-26T18:32:38Z</time>
      </trkpt>
      <trkpt lat="9.9789200" lon="-83.8348790">
        <ele>3258.1</ele>
        <time>2020-01-26T18:32:43Z</time>
      </trkpt>
      <trkpt lat="9.9789190" lon="-83.8348960">
        <ele>3258.1</ele>
        <time>2020-01-26T18:32:52Z</time>
      </trkpt>
      <trkpt lat="9.9789150" lon="-83.8349100">
        <ele>3258.2</ele>
        <time>2020-01-26T18:32:56Z</time>
      </trkpt>
      <trkpt lat="9.9789270" lon="-83.8349230">
        <ele>3258.2</ele>
        <time>2020-01-26T18:33:00Z</time>
      </trkpt>
      <trkpt lat="9.9789320" lon="-83.8349130">
        <ele>3258.2</ele>
        <time>2020-01-26T18:33:10Z</time>
      </trkpt>
      <trkpt lat="9.9789140" lon="-83.8349050">
        <ele>3258.2</ele>
        <time>2020-01-26T18:33:36Z</time>
      </trkpt>
      <trkpt lat="9.9789150" lon="-83.8349030">
        <ele>3258.2</ele>
        <time>2020-01-26T18:33:37Z</time>
      </trkpt>
      <trkpt lat="9.9789110" lon="-83.8349050">
        <ele>3258.2</ele>
        <time>2020-01-26T18:33:38Z</time>
      </trkpt>
      <trkpt lat="9.9789140" lon="-83.8349030">
        <ele>3258.3</ele>
        <time>2020-01-26T18:33:39Z</time>
      </trkpt>
      <trkpt lat="9.9789140" lon="-83.8349020">
        <ele>3258.3</ele>
        <time>2020-01-26T18:33:40Z</time>
      </trkpt>
      <trkpt lat="9.9789150" lon="-83.8349030">
        <ele>3258.3</ele>
        <time>2020-01-26T18:33:41Z</time>
      </trkpt>
      <trkpt lat="9.9789160" lon="-83.8349030">
        <ele>3258.3</ele>
        <time>2020-01-26T18:33:43Z</time>
      </trkpt>
      <trkpt lat="9.9789210" lon="-83.8349040">
        <ele>3258.3</ele>
        <time>2020-01-26T18:33:45Z</time>
      </trkpt>
      <trkpt lat="9.9789260" lon="-83.8348950">
        <ele>3258.3</ele>
        <time>2020-01-26T18:33:47Z</time>
      </trkpt>
      <trkpt lat="9.9789220" lon="-83.8348970">
        <ele>3258.3</ele>
        <time>2020-01-26T18:33:49Z</time>
      </trkpt>
      <trkpt lat="9.9789330" lon="-83.8348850">
        <ele>3258.3</ele>
        <time>2020-01-26T18:33:54Z</time>
      </trkpt>
      <trkpt lat="9.9789770" lon="-83.8348620">
        <ele>3258.4</ele>
        <time>2020-01-26T18:34:06Z</time>
      </trkpt>
      <trkpt lat="9.9788920" lon="-83.8349200">
        <ele>3258.5</ele>
        <time>2020-01-26T18:34:28Z</time>
      </trkpt>
      <trkpt lat="9.9788850" lon="-83.8349230">
        <ele>3258.5</ele>
        <time>2020-01-26T18:34:29Z</time>
      </trkpt>
      <trkpt lat="9.9788800" lon="-83.8349280">
        <ele>3258.5</ele>
        <time>2020-01-26T18:34:31Z</time>
      </trkpt>
      <trkpt lat="9.9788710" lon="-83.8349350">
        <ele>3258.6</ele>
        <time>2020-01-26T18:34:35Z</time>
      </trkpt>
      <trkpt lat="9.9788760" lon="-83.8349530">
        <ele>3258.6</ele>
        <time>2020-01-26T18:34:38Z</time>
      </trkpt>
      <trkpt lat="9.9788930" lon="-83.8349710">
        <ele>3258.6</ele>
        <time>2020-01-26T18:34:40Z</time>
      </trkpt>
      <trkpt lat="9.9789020" lon="-83.8349880">
        <ele>3258.6</ele>
        <time>2020-01-26T18:34:41Z</time>
      </trkpt>
      <trkpt lat="9.9789240" lon="-83.8350310">
        <ele>3258.7</ele>
        <time>2020-01-26T18:34:43Z</time>
      </trkpt>
      <trkpt lat="9.9789860" lon="-83.8351660">
        <ele>3259.0</ele>
        <time>2020-01-26T18:34:47Z</time>
      </trkpt>
      <trkpt lat="9.9790720" lon="-83.8352900">
        <ele>3259.2</ele>
        <time>2020-01-26T18:34:50Z</time>
      </trkpt>
      <trkpt lat="9.9792760" lon="-83.8353500">
        <ele>3258.6</ele>
        <time>2020-01-26T18:34:54Z</time>
      </trkpt>
      <trkpt lat="9.9794370" lon="-83.8352960">
        <ele>3257.0</ele>
        <time>2020-01-26T18:34:57Z</time>
      </trkpt>
      <trkpt lat="9.9794850" lon="-83.8352740">
        <ele>3256.6</ele>
        <time>2020-01-26T18:34:58Z</time>
      </trkpt>
      <trkpt lat="9.9796700" lon="-83.8351730">
        <ele>3254.5</ele>
        <time>2020-01-26T18:35:03Z</time>
      </trkpt>
      <trkpt lat="9.9797780" lon="-83.8351350">
        <ele>3253.4</ele>
        <time>2020-01-26T18:35:06Z</time>
      </trkpt>
      <trkpt lat="9.9799580" lon="-83.8351020">
        <ele>3251.8</ele>
        <time>2020-01-26T18:35:10Z</time>
      </trkpt>
      <trkpt lat="9.9799990" lon="-83.8351010">
        <ele>3251.5</ele>
        <time>2020-01-26T18:35:11Z</time>
      </trkpt>
      <trkpt lat="9.9800420" lon="-83.8351030">
        <ele>3251.2</ele>
        <time>2020-01-26T18:35:12Z</time>
      </trkpt>
      <trkpt lat="9.9800850" lon="-83.8351010">
        <ele>3250.8</ele>
        <time>2020-01-26T18:35:13Z</time>
      </trkpt>
      <trkpt lat="9.9802200" lon="-83.8350870">
        <ele>3249.7</ele>
        <time>2020-01-26T18:35:17Z</time>
      </trkpt>
      <trkpt lat="9.9804000" lon="-83.8350640">
        <ele>3248.3</ele>
        <time>2020-01-26T18:35:21Z</time>
      </trkpt>
      <trkpt lat="9.9805620" lon="-83.8350240">
        <ele>3246.7</ele>
        <time>2020-01-26T18:35:24Z</time>
      </trkpt>
      <trkpt lat="9.9807640" lon="-83.8349380">
        <ele>3244.0</ele>
        <time>2020-01-26T18:35:28Z</time>
      </trkpt>
      <trkpt lat="9.9808170" lon="-83.8349220">
        <ele>3243.2</ele>
        <time>2020-01-26T18:35:29Z</time>
      </trkpt>
      <trkpt lat="9.9810410" lon="-83.8348950">
        <ele>3239.6</ele>
        <time>2020-01-26T18:35:33Z</time>
      </trkpt>
      <trkpt lat="9.9811640" lon="-83.8348600">
        <ele>3237.3</ele>
        <time>2020-01-26T18:35:35Z</time>
      </trkpt>
      <trkpt lat="9.9813600" lon="-83.8347620">
        <ele>3233.5</ele>
        <time>2020-01-26T18:35:39Z</time>
      </trkpt>
      <trkpt lat="9.9814520" lon="-83.8347340">
        <ele>3232.0</ele>
        <time>2020-01-26T18:35:41Z</time>
      </trkpt>
      <trkpt lat="9.9816200" lon="-83.8346350">
        <ele>3229.9</ele>
        <time>2020-01-26T18:35:47Z</time>
      </trkpt>
      <trkpt lat="9.9816400" lon="-83.8345540">
        <ele>3231.3</ele>
        <time>2020-01-26T18:35:51Z</time>
      </trkpt>
      <trkpt lat="9.9815980" lon="-83.8345070">
        <ele>3232.0</ele>
        <time>2020-01-26T18:35:54Z</time>
      </trkpt>
      <trkpt lat="9.9814850" lon="-83.8345220">
        <ele>3233.5</ele>
        <time>2020-01-26T18:35:58Z</time>
      </trkpt>
      <trkpt lat="9.9814490" lon="-83.8345380">
        <ele>3234.2</ele>
        <time>2020-01-26T18:35:59Z</time>
      </trkpt>
      <trkpt lat="9.9813750" lon="-83.8345680">
        <ele>3235.3</ele>
        <time>2020-01-26T18:36:01Z</time>
      </trkpt>
      <trkpt lat="9.9811800" lon="-83.8346220">
        <ele>3238.3</ele>
        <time>2020-01-26T18:36:07Z</time>
      </trkpt>
      <trkpt lat="9.9809930" lon="-83.8346550">
        <ele>3241.2</ele>
        <time>2020-01-26T18:36:13Z</time>
      </trkpt>
      <trkpt lat="9.9808680" lon="-83.8346800">
        <ele>3242.9</ele>
        <time>2020-01-26T18:36:18Z</time>
      </trkpt>
      <trkpt lat="9.9806650" lon="-83.8347330">
        <ele>3245.3</ele>
        <time>2020-01-26T18:36:26Z</time>
      </trkpt>
      <trkpt lat="9.9804820" lon="-83.8347540">
        <ele>3247.1</ele>
        <time>2020-01-26T18:36:31Z</time>
      </trkpt>
      <trkpt lat="9.9804110" lon="-83.8347360">
        <ele>3245.0</ele>
        <time>2020-01-26T18:36:33Z</time>
      </trkpt>
      <trkpt lat="9.9802490" lon="-83.8346020">
        <ele>3242.9</ele>
        <time>2020-01-26T18:36:40Z</time>
      </trkpt>
      <trkpt lat="9.9801560" lon="-83.8344230">
        <ele>3243.7</ele>
        <time>2020-01-26T18:36:47Z</time>
      </trkpt>
      <trkpt lat="9.9801670" lon="-83.8343300">
        <ele>3244.6</ele>
        <time>2020-01-26T18:36:50Z</time>
      </trkpt>
      <trkpt lat="9.9802150" lon="-83.8341300">
        <ele>3248.2</ele>
        <time>2020-01-26T18:36:57Z</time>
      </trkpt>
      <trkpt lat="9.9803160" lon="-83.8339720">
        <ele>3249.2</ele>
        <time>2020-01-26T18:37:03Z</time>
      </trkpt>
      <trkpt lat="9.9804120" lon="-83.8339250">
        <ele>3249.7</ele>
        <time>2020-01-26T18:37:07Z</time>
      </trkpt>
      <trkpt lat="9.9804660" lon="-83.8339390">
        <ele>3249.3</ele>
        <time>2020-01-26T18:37:10Z</time>
      </trkpt>
      <trkpt lat="9.9805000" lon="-83.8339600">
        <ele>3249.0</ele>
        <time>2020-01-26T18:37:12Z</time>
      </trkpt>
      <trkpt lat="9.9805330" lon="-83.8339870">
        <ele>3247.5</ele>
        <time>2020-01-26T18:37:20Z</time>
      </trkpt>
      <trkpt lat="9.9805360" lon="-83.8339920">
        <ele>3247.0</ele>
        <time>2020-01-26T18:37:26Z</time>
      </trkpt>
      <trkpt lat="9.9805350" lon="-83.8339900">
        <ele>3246.6</ele>
        <time>2020-01-26T18:37:27Z</time>
      </trkpt>
      <trkpt lat="9.9805360" lon="-83.8339890">
        <ele>3246.2</ele>
        <time>2020-01-26T18:37:28Z</time>
      </trkpt>
      <trkpt lat="9.9805370" lon="-83.8339870">
        <ele>3245.7</ele>
        <time>2020-01-26T18:37:29Z</time>
      </trkpt>
      <trkpt lat="9.9805390" lon="-83.8339820">
        <ele>3245.3</ele>
        <time>2020-01-26T18:37:30Z</time>
      </trkpt>
      <trkpt lat="9.9805500" lon="-83.8339610">
        <ele>3246.0</ele>
        <time>2020-01-26T18:37:34Z</time>
      </trkpt>
      <trkpt lat="9.9805510" lon="-83.8339580">
        <ele>3245.6</ele>
        <time>2020-01-26T18:37:38Z</time>
      </trkpt>
      <trkpt lat="9.9805340" lon="-83.8339630">
        <ele>3245.2</ele>
        <time>2020-01-26T18:37:44Z</time>
      </trkpt>
      <trkpt lat="9.9805140" lon="-83.8339510">
        <ele>3244.6</ele>
        <time>2020-01-26T18:38:00Z</time>
      </trkpt>
      <trkpt lat="9.9805440" lon="-83.8339760">
        <ele>3243.1</ele>
        <time>2020-01-26T18:38:10Z</time>
      </trkpt>
      <trkpt lat="9.9805470" lon="-83.8340140">
        <ele>3241.7</ele>
        <time>2020-01-26T18:38:22Z</time>
      </trkpt>
      <trkpt lat="9.9805560" lon="-83.8340150">
        <ele>3241.2</ele>
        <time>2020-01-26T18:38:24Z</time>
      </trkpt>
      <trkpt lat="9.9805960" lon="-83.8340210">
        <ele>3240.8</ele>
        <time>2020-01-26T18:38:30Z</time>
      </trkpt>
      <trkpt lat="9.9808000" lon="-83.8340120">
        <ele>3241.3</ele>
        <time>2020-01-26T18:38:36Z</time>
      </trkpt>
      <trkpt lat="9.9809770" lon="-83.8340390">
        <ele>3240.9</ele>
        <time>2020-01-26T18:38:41Z</time>
      </trkpt>
      <trkpt lat="9.9810150" lon="-83.8340520">
        <ele>3240.5</ele>
        <time>2020-01-26T18:38:42Z</time>
      </trkpt>
      <trkpt lat="9.9810570" lon="-83.8340650">
        <ele>3239.5</ele>
        <time>2020-01-26T18:38:43Z</time>
      </trkpt>
      <trkpt lat="9.9810940" lon="-83.8340780">
        <ele>3239.2</ele>
        <time>2020-01-26T18:38:44Z</time>
      </trkpt>
      <trkpt lat="9.9811300" lon="-83.8340900">
        <ele>3238.9</ele>
        <time>2020-01-26T18:38:45Z</time>
      </trkpt>
      <trkpt lat="9.9811650" lon="-83.8341020">
        <ele>3238.0</ele>
        <time>2020-01-26T18:38:46Z</time>
      </trkpt>
      <trkpt lat="9.9811990" lon="-83.8341120">
        <ele>3237.7</ele>
        <time>2020-01-26T18:38:47Z</time>
      </trkpt>
      <trkpt lat="9.9813590" lon="-83.8342100">
        <ele>3236.4</ele>
        <time>2020-01-26T18:38:52Z</time>
      </trkpt>
      <trkpt lat="9.9813640" lon="-83.8344030">
        <ele>3233.3</ele>
        <time>2020-01-26T18:38:58Z</time>
      </trkpt>
      <trkpt lat="9.9813630" lon="-83.8345570">
        <ele>3232.1</ele>
        <time>2020-01-26T18:39:03Z</time>
      </trkpt>
      <trkpt lat="9.9814890" lon="-83.8345460">
        <ele>3230.6</ele>
        <time>2020-01-26T18:39:08Z</time>
      </trkpt>
      <trkpt lat="9.9815480" lon="-83.8345250">
        <ele>3229.7</ele>
        <time>2020-01-26T18:39:10Z</time>
      </trkpt>
      <trkpt lat="9.9815790" lon="-83.8345310">
        <ele>3229.3</ele>
        <time>2020-01-26T18:39:11Z</time>
      </trkpt>
      <trkpt lat="9.9816220" lon="-83.8345530">
        <ele>3229.7</ele>
        <time>2020-01-26T18:39:13Z</time>
      </trkpt>
      <trkpt lat="9.9816510" lon="-83.8345980">
        <ele>3230.6</ele>
        <time>2020-01-26T18:39:16Z</time>
      </trkpt>
      <trkpt lat="9.9816530" lon="-83.8346870">
        <ele>3231.9</ele>
        <time>2020-01-26T18:39:21Z</time>
      </trkpt>
      <trkpt lat="9.9816410" lon="-83.8347000">
        <ele>3232.2</ele>
        <time>2020-01-26T18:39:22Z</time>
      </trkpt>
      <trkpt lat="9.9815260" lon="-83.8347290">
        <ele>3234.0</ele>
        <time>2020-01-26T18:39:27Z</time>
      </trkpt>
      <trkpt lat="9.9813750" lon="-83.8347610">
        <ele>3236.4</ele>
        <time>2020-01-26T18:39:33Z</time>
      </trkpt>
      <trkpt lat="9.9812940" lon="-83.8347920">
        <ele>3237.9</ele>
        <time>2020-01-26T18:39:37Z</time>
      </trkpt>
      <trkpt lat="9.9811760" lon="-83.8348590">
        <ele>3240.2</ele>
        <time>2020-01-26T18:39:43Z</time>
      </trkpt>
      <trkpt lat="9.9810790" lon="-83.8348960">
        <ele>3241.8</ele>
        <time>2020-01-26T18:39:47Z</time>
      </trkpt>
      <trkpt lat="9.9809770" lon="-83.8349070">
        <ele>3243.2</ele>
        <time>2020-01-26T18:39:51Z</time>
      </trkpt>
      <trkpt lat="9.9808020" lon="-83.8349300">
        <ele>3245.4</ele>
        <time>2020-01-26T18:39:59Z</time>
      </trkpt>
      <trkpt lat="9.9806240" lon="-83.8350040">
        <ele>3247.6</ele>
        <time>2020-01-26T18:40:07Z</time>
      </trkpt>
      <trkpt lat="9.9805040" lon="-83.8350470">
        <ele>3248.5</ele>
        <time>2020-01-26T18:40:12Z</time>
      </trkpt>
      <trkpt lat="9.9803850" lon="-83.8350790">
        <ele>3249.4</ele>
        <time>2020-01-26T18:40:17Z</time>
      </trkpt>
      <trkpt lat="9.9803120" lon="-83.8350950">
        <ele>3250.0</ele>
        <time>2020-01-26T18:40:20Z</time>
      </trkpt>
      <trkpt lat="9.9801680" lon="-83.8351110">
        <ele>3251.1</ele>
        <time>2020-01-26T18:40:26Z</time>
      </trkpt>
      <trkpt lat="9.9799730" lon="-83.8351230">
        <ele>3252.5</ele>
        <time>2020-01-26T18:40:35Z</time>
      </trkpt>
      <trkpt lat="9.9798900" lon="-83.8351340">
        <ele>3253.2</ele>
        <time>2020-01-26T18:40:39Z</time>
      </trkpt>
      <trkpt lat="9.9797590" lon="-83.8351570">
        <ele>3254.4</ele>
        <time>2020-01-26T18:40:45Z</time>
      </trkpt>
      <trkpt lat="9.9795790" lon="-83.8352270">
        <ele>3256.3</ele>
        <time>2020-01-26T18:40:56Z</time>
      </trkpt>
      <trkpt lat="9.9795020" lon="-83.8352720">
        <ele>3256.9</ele>
        <time>2020-01-26T18:41:01Z</time>
      </trkpt>
      <trkpt lat="9.9793230" lon="-83.8353330">
        <ele>3258.6</ele>
        <time>2020-01-26T18:41:10Z</time>
      </trkpt>
      <trkpt lat="9.9791450" lon="-83.8353580">
        <ele>3259.8</ele>
        <time>2020-01-26T18:41:18Z</time>
      </trkpt>
      <trkpt lat="9.9789860" lon="-83.8352610">
        <ele>3258.9</ele>
        <time>2020-01-26T18:41:28Z</time>
      </trkpt>
      <trkpt lat="9.9789460" lon="-83.8351120">
        <ele>3258.3</ele>
        <time>2020-01-26T18:41:36Z</time>
      </trkpt>
      <trkpt lat="9.9789030" lon="-83.8350530">
        <ele>3258.0</ele>
        <time>2020-01-26T18:41:41Z</time>
      </trkpt>
      <trkpt lat="9.9788850" lon="-83.8350310">
        <ele>3257.9</ele>
        <time>2020-01-26T18:41:44Z</time>
      </trkpt>
      <trkpt lat="9.9788660" lon="-83.8349760">
        <ele>3257.5</ele>
        <time>2020-01-26T18:41:49Z</time>
      </trkpt>
      <trkpt lat="9.9788640" lon="-83.8349520">
        <ele>3257.4</ele>
        <time>2020-01-26T18:41:51Z</time>
      </trkpt>
      <trkpt lat="9.9788570" lon="-83.8349190">
        <ele>3257.0</ele>
        <time>2020-01-26T18:41:56Z</time>
      </trkpt>
      <trkpt lat="9.9787940" lon="-83.8347430">
        <ele>3255.8</ele>
        <time>2020-01-26T18:42:04Z</time>
      </trkpt>
      <trkpt lat="9.9787620" lon="-83.8346050">
        <ele>3254.7</ele>
        <time>2020-01-26T18:42:08Z</time>
      </trkpt>
      <trkpt lat="9.9786910" lon="-83.8344350">
        <ele>3253.6</ele>
        <time>2020-01-26T18:42:13Z</time>
      </trkpt>
      <trkpt lat="9.9785760" lon="-83.8342510">
        <ele>3253.1</ele>
        <time>2020-01-26T18:42:18Z</time>
      </trkpt>
      <trkpt lat="9.9784710" lon="-83.8340830">
        <ele>3252.9</ele>
        <time>2020-01-26T18:42:22Z</time>
      </trkpt>
      <trkpt lat="9.9783460" lon="-83.8338840">
        <ele>3251.9</ele>
        <time>2020-01-26T18:42:26Z</time>
      </trkpt>
      <trkpt lat="9.9782490" lon="-83.8337300">
        <ele>3251.2</ele>
        <time>2020-01-26T18:42:29Z</time>
      </trkpt>
      <trkpt lat="9.9781310" lon="-83.8335500">
        <ele>3250.5</ele>
        <time>2020-01-26T18:42:33Z</time>
      </trkpt>
      <trkpt lat="9.9780070" lon="-83.8333560">
        <ele>3249.7</ele>
        <time>2020-01-26T18:42:37Z</time>
      </trkpt>
      <trkpt lat="9.9778870" lon="-83.8331690">
        <ele>3249.1</ele>
        <time>2020-01-26T18:42:40Z</time>
      </trkpt>
      <trkpt lat="9.9777560" lon="-83.8329610">
        <ele>3249.0</ele>
        <time>2020-01-26T18:42:43Z</time>
      </trkpt>
      <trkpt lat="9.9776460" lon="-83.8328120">
        <ele>3248.9</ele>
        <time>2020-01-26T18:42:45Z</time>
      </trkpt>
      <trkpt lat="9.9775180" lon="-83.8326590">
        <ele>3248.2</ele>
        <time>2020-01-26T18:42:47Z</time>
      </trkpt>
      <trkpt lat="9.9773810" lon="-83.8325090">
        <ele>3247.1</ele>
        <time>2020-01-26T18:42:49Z</time>
      </trkpt>
      <trkpt lat="9.9772490" lon="-83.8323740">
        <ele>3245.9</ele>
        <time>2020-01-26T18:42:51Z</time>
      </trkpt>
      <trkpt lat="9.9771190" lon="-83.8322370">
        <ele>3244.6</ele>
        <time>2020-01-26T18:42:53Z</time>
      </trkpt>
      <trkpt lat="9.9769390" lon="-83.8320420">
        <ele>3243.2</ele>
        <time>2020-01-26T18:42:56Z</time>
      </trkpt>
      <trkpt lat="9.9767910" lon="-83.8318170">
        <ele>3241.0</ele>
        <time>2020-01-26T18:42:59Z</time>
      </trkpt>
      <trkpt lat="9.9767190" lon="-83.8316370">
        <ele>3239.5</ele>
        <time>2020-01-26T18:43:01Z</time>
      </trkpt>
      <trkpt lat="9.9766580" lon="-83.8314420">
        <ele>3238.0</ele>
        <time>2020-01-26T18:43:03Z</time>
      </trkpt>
      <trkpt lat="9.9765940" lon="-83.8312380">
        <ele>3236.4</ele>
        <time>2020-01-26T18:43:05Z</time>
      </trkpt>
      <trkpt lat="9.9765320" lon="-83.8310360">
        <ele>3233.2</ele>
        <time>2020-01-26T18:43:07Z</time>
      </trkpt>
      <trkpt lat="9.9764660" lon="-83.8308300">
        <ele>3229.8</ele>
        <time>2020-01-26T18:43:09Z</time>
      </trkpt>
      <trkpt lat="9.9763970" lon="-83.8306130">
        <ele>3227.2</ele>
        <time>2020-01-26T18:43:11Z</time>
      </trkpt>
      <trkpt lat="9.9763290" lon="-83.8303930">
        <ele>3225.1</ele>
        <time>2020-01-26T18:43:13Z</time>
      </trkpt>
      <trkpt lat="9.9762610" lon="-83.8301720">
        <ele>3223.0</ele>
        <time>2020-01-26T18:43:15Z</time>
      </trkpt>
      <trkpt lat="9.9761700" lon="-83.8299610">
        <ele>3220.8</ele>
        <time>2020-01-26T18:43:17Z</time>
      </trkpt>
      <trkpt lat="9.9760610" lon="-83.8297710">
        <ele>3218.5</ele>
        <time>2020-01-26T18:43:19Z</time>
      </trkpt>
      <trkpt lat="9.9760020" lon="-83.8296810">
        <ele>3217.3</ele>
        <time>2020-01-26T18:43:20Z</time>
      </trkpt>
      <trkpt lat="9.9758850" lon="-83.8295060">
        <ele>3214.6</ele>
        <time>2020-01-26T18:43:22Z</time>
      </trkpt>
      <trkpt lat="9.9757860" lon="-83.8293440">
        <ele>3212.2</ele>
        <time>2020-01-26T18:43:24Z</time>
      </trkpt>
      <trkpt lat="9.9757250" lon="-83.8290990">
        <ele>3208.4</ele>
        <time>2020-01-26T18:43:27Z</time>
      </trkpt>
      <trkpt lat="9.9758060" lon="-83.8288280">
        <ele>3204.5</ele>
        <time>2020-01-26T18:43:30Z</time>
      </trkpt>
      <trkpt lat="9.9759010" lon="-83.8286420">
        <ele>3202.7</ele>
        <time>2020-01-26T18:43:32Z</time>
      </trkpt>
      <trkpt lat="9.9759800" lon="-83.8284620">
        <ele>3201.0</ele>
        <time>2020-01-26T18:43:34Z</time>
      </trkpt>
      <trkpt lat="9.9760040" lon="-83.8283730">
        <ele>3200.1</ele>
        <time>2020-01-26T18:43:35Z</time>
      </trkpt>
      <trkpt lat="9.9759820" lon="-83.8281070">
        <ele>3197.4</ele>
        <time>2020-01-26T18:43:38Z</time>
      </trkpt>
      <trkpt lat="9.9758380" lon="-83.8279220">
        <ele>3194.4</ele>
        <time>2020-01-26T18:43:41Z</time>
      </trkpt>
      <trkpt lat="9.9757710" lon="-83.8278890">
        <ele>3193.4</ele>
        <time>2020-01-26T18:43:42Z</time>
      </trkpt>
      <trkpt lat="9.9756920" lon="-83.8278710">
        <ele>3192.3</ele>
        <time>2020-01-26T18:43:43Z</time>
      </trkpt>
      <trkpt lat="9.9755120" lon="-83.8279070">
        <ele>3190.6</ele>
        <time>2020-01-26T18:43:45Z</time>
      </trkpt>
      <trkpt lat="9.9753410" lon="-83.8280020">
        <ele>3189.3</ele>
        <time>2020-01-26T18:43:47Z</time>
      </trkpt>
      <trkpt lat="9.9751510" lon="-83.8281420">
        <ele>3187.4</ele>
        <time>2020-01-26T18:43:49Z</time>
      </trkpt>
      <trkpt lat="9.9749670" lon="-83.8282750">
        <ele>3186.0</ele>
        <time>2020-01-26T18:43:51Z</time>
      </trkpt>
      <trkpt lat="9.9747890" lon="-83.8284110">
        <ele>3184.6</ele>
        <time>2020-01-26T18:43:53Z</time>
      </trkpt>
      <trkpt lat="9.9746170" lon="-83.8285370">
        <ele>3183.1</ele>
        <time>2020-01-26T18:43:55Z</time>
      </trkpt>
      <trkpt lat="9.9744580" lon="-83.8286600">
        <ele>3181.7</ele>
        <time>2020-01-26T18:43:57Z</time>
      </trkpt>
      <trkpt lat="9.9743160" lon="-83.8287720">
        <ele>3180.3</ele>
        <time>2020-01-26T18:43:59Z</time>
      </trkpt>
      <trkpt lat="9.9742010" lon="-83.8288930">
        <ele>3178.8</ele>
        <time>2020-01-26T18:44:01Z</time>
      </trkpt>
      <trkpt lat="9.9741120" lon="-83.8290440">
        <ele>3177.2</ele>
        <time>2020-01-26T18:44:03Z</time>
      </trkpt>
      <trkpt lat="9.9740370" lon="-83.8292270">
        <ele>3175.2</ele>
        <time>2020-01-26T18:44:05Z</time>
      </trkpt>
      <trkpt lat="9.9739610" lon="-83.8293990">
        <ele>3173.2</ele>
        <time>2020-01-26T18:44:07Z</time>
      </trkpt>
      <trkpt lat="9.9739180" lon="-83.8294690">
        <ele>3172.2</ele>
        <time>2020-01-26T18:44:08Z</time>
      </trkpt>
      <trkpt lat="9.9738080" lon="-83.8295700">
        <ele>3170.2</ele>
        <time>2020-01-26T18:44:10Z</time>
      </trkpt>
      <trkpt lat="9.9737390" lon="-83.8296030">
        <ele>3169.0</ele>
        <time>2020-01-26T18:44:11Z</time>
      </trkpt>
      <trkpt lat="9.9735890" lon="-83.8296180">
        <ele>3166.4</ele>
        <time>2020-01-26T18:44:13Z</time>
      </trkpt>
      <trkpt lat="9.9734050" lon="-83.8295040">
        <ele>3164.4</ele>
        <time>2020-01-26T18:44:16Z</time>
      </trkpt>
      <trkpt lat="9.9733360" lon="-83.8293150">
        <ele>3162.3</ele>
        <time>2020-01-26T18:44:18Z</time>
      </trkpt>
      <trkpt lat="9.9733090" lon="-83.8291050">
        <ele>3159.7</ele>
        <time>2020-01-26T18:44:20Z</time>
      </trkpt>
      <trkpt lat="9.9732880" lon="-83.8288770">
        <ele>3157.4</ele>
        <time>2020-01-26T18:44:22Z</time>
      </trkpt>
      <trkpt lat="9.9732600" lon="-83.8286360">
        <ele>3154.9</ele>
        <time>2020-01-26T18:44:24Z</time>
      </trkpt>
      <trkpt lat="9.9732300" lon="-83.8284200">
        <ele>3152.5</ele>
        <time>2020-01-26T18:44:26Z</time>
      </trkpt>
      <trkpt lat="9.9732030" lon="-83.8282190">
        <ele>3150.2</ele>
        <time>2020-01-26T18:44:28Z</time>
      </trkpt>
      <trkpt lat="9.9731870" lon="-83.8280320">
        <ele>3147.9</ele>
        <time>2020-01-26T18:44:30Z</time>
      </trkpt>
      <trkpt lat="9.9731760" lon="-83.8278500">
        <ele>3146.2</ele>
        <time>2020-01-26T18:44:32Z</time>
      </trkpt>
      <trkpt lat="9.9731830" lon="-83.8277620">
        <ele>3145.4</ele>
        <time>2020-01-26T18:44:33Z</time>
      </trkpt>
      <trkpt lat="9.9732020" lon="-83.8276730">
        <ele>3144.6</ele>
        <time>2020-01-26T18:44:34Z</time>
      </trkpt>
      <trkpt lat="9.9732750" lon="-83.8274980">
        <ele>3143.0</ele>
        <time>2020-01-26T18:44:36Z</time>
      </trkpt>
      <trkpt lat="9.9733730" lon="-83.8273220">
        <ele>3141.4</ele>
        <time>2020-01-26T18:44:38Z</time>
      </trkpt>
      <trkpt lat="9.9734780" lon="-83.8271490">
        <ele>3140.2</ele>
        <time>2020-01-26T18:44:40Z</time>
      </trkpt>
      <trkpt lat="9.9735310" lon="-83.8270680">
        <ele>3139.6</ele>
        <time>2020-01-26T18:44:41Z</time>
      </trkpt>
      <trkpt lat="9.9736830" lon="-83.8268480">
        <ele>3137.9</ele>
        <time>2020-01-26T18:44:44Z</time>
      </trkpt>
      <trkpt lat="9.9737320" lon="-83.8267780">
        <ele>3137.2</ele>
        <time>2020-01-26T18:44:45Z</time>
      </trkpt>
      <trkpt lat="9.9738780" lon="-83.8265660">
        <ele>3134.4</ele>
        <time>2020-01-26T18:44:48Z</time>
      </trkpt>
      <trkpt lat="9.9740170" lon="-83.8263460">
        <ele>3132.2</ele>
        <time>2020-01-26T18:44:51Z</time>
      </trkpt>
      <trkpt lat="9.9741670" lon="-83.8261420">
        <ele>3130.3</ele>
        <time>2020-01-26T18:44:54Z</time>
      </trkpt>
      <trkpt lat="9.9742160" lon="-83.8260880">
        <ele>3129.8</ele>
        <time>2020-01-26T18:44:55Z</time>
      </trkpt>
      <trkpt lat="9.9742900" lon="-83.8260110">
        <ele>3129.0</ele>
        <time>2020-01-26T18:44:57Z</time>
      </trkpt>
      <trkpt lat="9.9743130" lon="-83.8259890">
        <ele>3128.8</ele>
        <time>2020-01-26T18:45:07Z</time>
      </trkpt>
      <trkpt lat="9.9743140" lon="-83.8259890">
        <ele>3128.7</ele>
        <time>2020-01-26T18:45:09Z</time>
      </trkpt>
      <trkpt lat="9.9743110" lon="-83.8259870">
        <ele>3128.7</ele>
        <time>2020-01-26T18:45:11Z</time>
      </trkpt>
      <trkpt lat="9.9743020" lon="-83.8259920">
        <ele>3128.6</ele>
        <time>2020-01-26T18:45:32Z</time>
      </trkpt>
      <trkpt lat="9.9742870" lon="-83.8259970">
        <ele>3128.5</ele>
        <time>2020-01-26T18:45:41Z</time>
      </trkpt>
      <trkpt lat="9.9743020" lon="-83.8260060">
        <ele>3128.4</ele>
        <time>2020-01-26T18:45:52Z</time>
      </trkpt>
      <trkpt lat="9.9743040" lon="-83.8260040">
        <ele>3128.4</ele>
        <time>2020-01-26T18:46:05Z</time>
      </trkpt>
      <trkpt lat="9.9743090" lon="-83.8260040">
        <ele>3128.3</ele>
        <time>2020-01-26T18:46:13Z</time>
      </trkpt>
      <trkpt lat="9.9743080" lon="-83.8259980">
        <ele>3128.3</ele>
        <time>2020-01-26T18:46:17Z</time>
      </trkpt>
      <trkpt lat="9.9743080" lon="-83.8259980">
        <ele>3128.3</ele>
        <time>2020-01-26T18:46:19Z</time>
      </trkpt>
      <trkpt lat="9.9743850" lon="-83.8259220">
        <ele>3127.5</ele>
        <time>2020-01-26T18:46:25Z</time>
      </trkpt>
      <trkpt lat="9.9744720" lon="-83.8258540">
        <ele>3126.8</ele>
        <time>2020-01-26T18:46:27Z</time>
      </trkpt>
      <trkpt lat="9.9745250" lon="-83.8258150">
        <ele>3126.5</ele>
        <time>2020-01-26T18:46:28Z</time>
      </trkpt>
      <trkpt lat="9.9746990" lon="-83.8256820">
        <ele>3125.3</ele>
        <time>2020-01-26T18:46:31Z</time>
      </trkpt>
      <trkpt lat="9.9748970" lon="-83.8255260">
        <ele>3123.4</ele>
        <time>2020-01-26T18:46:34Z</time>
      </trkpt>
      <trkpt lat="9.9750410" lon="-83.8254080">
        <ele>3121.5</ele>
        <time>2020-01-26T18:46:36Z</time>
      </trkpt>
      <trkpt lat="9.9751970" lon="-83.8252820">
        <ele>3119.4</ele>
        <time>2020-01-26T18:46:38Z</time>
      </trkpt>
      <trkpt lat="9.9752810" lon="-83.8252160">
        <ele>3118.3</ele>
        <time>2020-01-26T18:46:39Z</time>
      </trkpt>
      <trkpt lat="9.9754540" lon="-83.8250790">
        <ele>3116.0</ele>
        <time>2020-01-26T18:46:41Z</time>
      </trkpt>
      <trkpt lat="9.9756200" lon="-83.8249460">
        <ele>3113.3</ele>
        <time>2020-01-26T18:46:43Z</time>
      </trkpt>
      <trkpt lat="9.9757000" lon="-83.8248810">
        <ele>3112.1</ele>
        <time>2020-01-26T18:46:44Z</time>
      </trkpt>
      <trkpt lat="9.9758490" lon="-83.8247580">
        <ele>3109.8</ele>
        <time>2020-01-26T18:46:46Z</time>
      </trkpt>
      <trkpt lat="9.9760200" lon="-83.8245730">
        <ele>3107.1</ele>
        <time>2020-01-26T18:46:49Z</time>
      </trkpt>
      <trkpt lat="9.9760660" lon="-83.8243500">
        <ele>3104.8</ele>
        <time>2020-01-26T18:46:52Z</time>
      </trkpt>
      <trkpt lat="9.9759090" lon="-83.8241780">
        <ele>3102.7</ele>
        <time>2020-01-26T18:46:55Z</time>
      </trkpt>
      <trkpt lat="9.9757440" lon="-83.8241220">
        <ele>3101.0</ele>
        <time>2020-01-26T18:46:57Z</time>
      </trkpt>
      <trkpt lat="9.9755460" lon="-83.8241190">
        <ele>3098.8</ele>
        <time>2020-01-26T18:46:59Z</time>
      </trkpt>
      <trkpt lat="9.9754350" lon="-83.8241260">
        <ele>3097.3</ele>
        <time>2020-01-26T18:47:00Z</time>
      </trkpt>
      <trkpt lat="9.9752070" lon="-83.8241460">
        <ele>3094.5</ele>
        <time>2020-01-26T18:47:02Z</time>
      </trkpt>
      <trkpt lat="9.9749680" lon="-83.8241700">
        <ele>3092.0</ele>
        <time>2020-01-26T18:47:04Z</time>
      </trkpt>
      <trkpt lat="9.9747310" lon="-83.8241990">
        <ele>3089.5</ele>
        <time>2020-01-26T18:47:06Z</time>
      </trkpt>
      <trkpt lat="9.9744930" lon="-83.8242280">
        <ele>3087.1</ele>
        <time>2020-01-26T18:47:08Z</time>
      </trkpt>
      <trkpt lat="9.9743710" lon="-83.8242430">
        <ele>3085.9</ele>
        <time>2020-01-26T18:47:09Z</time>
      </trkpt>
      <trkpt lat="9.9741490" lon="-83.8242690">
        <ele>3084.2</ele>
        <time>2020-01-26T18:47:11Z</time>
      </trkpt>
      <trkpt lat="9.9739470" lon="-83.8242910">
        <ele>3082.6</ele>
        <time>2020-01-26T18:47:13Z</time>
      </trkpt>
      <trkpt lat="9.9737420" lon="-83.8243210">
        <ele>3081.1</ele>
        <time>2020-01-26T18:47:15Z</time>
      </trkpt>
      <trkpt lat="9.9735330" lon="-83.8243710">
        <ele>3079.4</ele>
        <time>2020-01-26T18:47:17Z</time>
      </trkpt>
      <trkpt lat="9.9733360" lon="-83.8244380">
        <ele>3077.5</ele>
        <time>2020-01-26T18:47:19Z</time>
      </trkpt>
      <trkpt lat="9.9731490" lon="-83.8245050">
        <ele>3075.3</ele>
        <time>2020-01-26T18:47:21Z</time>
      </trkpt>
      <trkpt lat="9.9729590" lon="-83.8245710">
        <ele>3073.5</ele>
        <time>2020-01-26T18:47:23Z</time>
      </trkpt>
      <trkpt lat="9.9727790" lon="-83.8246460">
        <ele>3072.2</ele>
        <time>2020-01-26T18:47:25Z</time>
      </trkpt>
      <trkpt lat="9.9726090" lon="-83.8247450">
        <ele>3070.7</ele>
        <time>2020-01-26T18:47:27Z</time>
      </trkpt>
      <trkpt lat="9.9724390" lon="-83.8248590">
        <ele>3069.0</ele>
        <time>2020-01-26T18:47:29Z</time>
      </trkpt>
      <trkpt lat="9.9722690" lon="-83.8249720">
        <ele>3067.1</ele>
        <time>2020-01-26T18:47:31Z</time>
      </trkpt>
      <trkpt lat="9.9721160" lon="-83.8250800">
        <ele>3065.2</ele>
        <time>2020-01-26T18:47:33Z</time>
      </trkpt>
      <trkpt lat="9.9719610" lon="-83.8251840">
        <ele>3063.6</ele>
        <time>2020-01-26T18:47:35Z</time>
      </trkpt>
      <trkpt lat="9.9718770" lon="-83.8252260">
        <ele>3062.8</ele>
        <time>2020-01-26T18:47:36Z</time>
      </trkpt>
      <trkpt lat="9.9717910" lon="-83.8252600">
        <ele>3061.9</ele>
        <time>2020-01-26T18:47:37Z</time>
      </trkpt>
      <trkpt lat="9.9717030" lon="-83.8252860">
        <ele>3060.8</ele>
        <time>2020-01-26T18:47:38Z</time>
      </trkpt>
      <trkpt lat="9.9715180" lon="-83.8253050">
        <ele>3059.0</ele>
        <time>2020-01-26T18:47:40Z</time>
      </trkpt>
      <trkpt lat="9.9713180" lon="-83.8252970">
        <ele>3056.9</ele>
        <time>2020-01-26T18:47:42Z</time>
      </trkpt>
      <trkpt lat="9.9711090" lon="-83.8252780">
        <ele>3054.9</ele>
        <time>2020-01-26T18:47:44Z</time>
      </trkpt>
      <trkpt lat="9.9709110" lon="-83.8252700">
        <ele>3053.4</ele>
        <time>2020-01-26T18:47:46Z</time>
      </trkpt>
      <trkpt lat="9.9707170" lon="-83.8252870">
        <ele>3051.5</ele>
        <time>2020-01-26T18:47:48Z</time>
      </trkpt>
      <trkpt lat="9.9705240" lon="-83.8253380">
        <ele>3049.4</ele>
        <time>2020-01-26T18:47:50Z</time>
      </trkpt>
      <trkpt lat="9.9703300" lon="-83.8254050">
        <ele>3047.5</ele>
        <time>2020-01-26T18:47:52Z</time>
      </trkpt>
      <trkpt lat="9.9701360" lon="-83.8254670">
        <ele>3045.8</ele>
        <time>2020-01-26T18:47:54Z</time>
      </trkpt>
      <trkpt lat="9.9699540" lon="-83.8255310">
        <ele>3043.8</ele>
        <time>2020-01-26T18:47:56Z</time>
      </trkpt>
      <trkpt lat="9.9697150" lon="-83.8256540">
        <ele>3041.3</ele>
        <time>2020-01-26T18:47:59Z</time>
      </trkpt>
      <trkpt lat="9.9695620" lon="-83.8257600">
        <ele>3039.8</ele>
        <time>2020-01-26T18:48:01Z</time>
      </trkpt>
      <trkpt lat="9.9694140" lon="-83.8259010">
        <ele>3038.1</ele>
        <time>2020-01-26T18:48:03Z</time>
      </trkpt>
      <trkpt lat="9.9692750" lon="-83.8260600">
        <ele>3036.5</ele>
        <time>2020-01-26T18:48:05Z</time>
      </trkpt>
      <trkpt lat="9.9691370" lon="-83.8262260">
        <ele>3034.8</ele>
        <time>2020-01-26T18:48:07Z</time>
      </trkpt>
      <trkpt lat="9.9690010" lon="-83.8263940">
        <ele>3033.0</ele>
        <time>2020-01-26T18:48:09Z</time>
      </trkpt>
      <trkpt lat="9.9688670" lon="-83.8265560">
        <ele>3031.5</ele>
        <time>2020-01-26T18:48:11Z</time>
      </trkpt>
      <trkpt lat="9.9687430" lon="-83.8267070">
        <ele>3029.7</ele>
        <time>2020-01-26T18:48:13Z</time>
      </trkpt>
      <trkpt lat="9.9686190" lon="-83.8268570">
        <ele>3027.6</ele>
        <time>2020-01-26T18:48:15Z</time>
      </trkpt>
      <trkpt lat="9.9684910" lon="-83.8270120">
        <ele>3025.5</ele>
        <time>2020-01-26T18:48:17Z</time>
      </trkpt>
      <trkpt lat="9.9683560" lon="-83.8271680">
        <ele>3023.2</ele>
        <time>2020-01-26T18:48:19Z</time>
      </trkpt>
      <trkpt lat="9.9681580" lon="-83.8273480">
        <ele>3021.5</ele>
        <time>2020-01-26T18:48:22Z</time>
      </trkpt>
      <trkpt lat="9.9679460" lon="-83.8274830">
        <ele>3020.4</ele>
        <time>2020-01-26T18:48:25Z</time>
      </trkpt>
      <trkpt lat="9.9677460" lon="-83.8276010">
        <ele>3019.4</ele>
        <time>2020-01-26T18:48:28Z</time>
      </trkpt>
      <trkpt lat="9.9675470" lon="-83.8277110">
        <ele>3017.8</ele>
        <time>2020-01-26T18:48:31Z</time>
      </trkpt>
      <trkpt lat="9.9674770" lon="-83.8277400">
        <ele>3017.2</ele>
        <time>2020-01-26T18:48:32Z</time>
      </trkpt>
      <trkpt lat="9.9672390" lon="-83.8278130">
        <ele>3014.4</ele>
        <time>2020-01-26T18:48:35Z</time>
      </trkpt>
      <trkpt lat="9.9670590" lon="-83.8278570">
        <ele>3013.0</ele>
        <time>2020-01-26T18:48:37Z</time>
      </trkpt>
      <trkpt lat="9.9668860" lon="-83.8279100">
        <ele>3011.2</ele>
        <time>2020-01-26T18:48:39Z</time>
      </trkpt>
      <trkpt lat="9.9667240" lon="-83.8279910">
        <ele>3009.5</ele>
        <time>2020-01-26T18:48:41Z</time>
      </trkpt>
      <trkpt lat="9.9665720" lon="-83.8281010">
        <ele>3007.9</ele>
        <time>2020-01-26T18:48:43Z</time>
      </trkpt>
      <trkpt lat="9.9664330" lon="-83.8282370">
        <ele>3006.5</ele>
        <time>2020-01-26T18:48:45Z</time>
      </trkpt>
      <trkpt lat="9.9663100" lon="-83.8284000">
        <ele>3004.9</ele>
        <time>2020-01-26T18:48:47Z</time>
      </trkpt>
      <trkpt lat="9.9661960" lon="-83.8285890">
        <ele>3003.2</ele>
        <time>2020-01-26T18:48:49Z</time>
      </trkpt>
      <trkpt lat="9.9660950" lon="-83.8287860">
        <ele>3001.3</ele>
        <time>2020-01-26T18:48:51Z</time>
      </trkpt>
      <trkpt lat="9.9660080" lon="-83.8289720">
        <ele>2999.5</ele>
        <time>2020-01-26T18:48:53Z</time>
      </trkpt>
      <trkpt lat="9.9659290" lon="-83.8291370">
        <ele>2997.7</ele>
        <time>2020-01-26T18:48:55Z</time>
      </trkpt>
      <trkpt lat="9.9658490" lon="-83.8292780">
        <ele>2995.7</ele>
        <time>2020-01-26T18:48:57Z</time>
      </trkpt>
      <trkpt lat="9.9656650" lon="-83.8294530">
        <ele>2993.1</ele>
        <time>2020-01-26T18:49:00Z</time>
      </trkpt>
      <trkpt lat="9.9654810" lon="-83.8295460">
        <ele>2990.9</ele>
        <time>2020-01-26T18:49:02Z</time>
      </trkpt>
      <trkpt lat="9.9653840" lon="-83.8295880">
        <ele>2989.6</ele>
        <time>2020-01-26T18:49:03Z</time>
      </trkpt>
      <trkpt lat="9.9651960" lon="-83.8296650">
        <ele>2987.3</ele>
        <time>2020-01-26T18:49:05Z</time>
      </trkpt>
      <trkpt lat="9.9651040" lon="-83.8297040">
        <ele>2986.0</ele>
        <time>2020-01-26T18:49:06Z</time>
      </trkpt>
      <trkpt lat="9.9649000" lon="-83.8297740">
        <ele>2983.3</ele>
        <time>2020-01-26T18:49:08Z</time>
      </trkpt>
      <trkpt lat="9.9646780" lon="-83.8298510">
        <ele>2980.0</ele>
        <time>2020-01-26T18:49:10Z</time>
      </trkpt>
      <trkpt lat="9.9644690" lon="-83.8299260">
        <ele>2977.4</ele>
        <time>2020-01-26T18:49:12Z</time>
      </trkpt>
      <trkpt lat="9.9642770" lon="-83.8299990">
        <ele>2975.6</ele>
        <time>2020-01-26T18:49:14Z</time>
      </trkpt>
      <trkpt lat="9.9641860" lon="-83.8300360">
        <ele>2974.7</ele>
        <time>2020-01-26T18:49:15Z</time>
      </trkpt>
      <trkpt lat="9.9640150" lon="-83.8301020">
        <ele>2973.1</ele>
        <time>2020-01-26T18:49:17Z</time>
      </trkpt>
      <trkpt lat="9.9638660" lon="-83.8301930">
        <ele>2971.6</ele>
        <time>2020-01-26T18:49:19Z</time>
      </trkpt>
      <trkpt lat="9.9636840" lon="-83.8303960">
        <ele>2969.3</ele>
        <time>2020-01-26T18:49:22Z</time>
      </trkpt>
      <trkpt lat="9.9635690" lon="-83.8305800">
        <ele>2967.3</ele>
        <time>2020-01-26T18:49:24Z</time>
      </trkpt>
      <trkpt lat="9.9634500" lon="-83.8307820">
        <ele>2965.3</ele>
        <time>2020-01-26T18:49:26Z</time>
      </trkpt>
      <trkpt lat="9.9633300" lon="-83.8309880">
        <ele>2963.2</ele>
        <time>2020-01-26T18:49:28Z</time>
      </trkpt>
      <trkpt lat="9.9632050" lon="-83.8311900">
        <ele>2961.7</ele>
        <time>2020-01-26T18:49:30Z</time>
      </trkpt>
      <trkpt lat="9.9630880" lon="-83.8313890">
        <ele>2960.0</ele>
        <time>2020-01-26T18:49:32Z</time>
      </trkpt>
      <trkpt lat="9.9629770" lon="-83.8315900">
        <ele>2958.1</ele>
        <time>2020-01-26T18:49:34Z</time>
      </trkpt>
      <trkpt lat="9.9628730" lon="-83.8317900">
        <ele>2956.6</ele>
        <time>2020-01-26T18:49:36Z</time>
      </trkpt>
      <trkpt lat="9.9627880" lon="-83.8320110">
        <ele>2954.5</ele>
        <time>2020-01-26T18:49:38Z</time>
      </trkpt>
      <trkpt lat="9.9627100" lon="-83.8322430">
        <ele>2952.6</ele>
        <time>2020-01-26T18:49:40Z</time>
      </trkpt>
      <trkpt lat="9.9626300" lon="-83.8324790">
        <ele>2951.5</ele>
        <time>2020-01-26T18:49:42Z</time>
      </trkpt>
      <trkpt lat="9.9625510" lon="-83.8327050">
        <ele>2950.4</ele>
        <time>2020-01-26T18:49:44Z</time>
      </trkpt>
      <trkpt lat="9.9624850" lon="-83.8329010">
        <ele>2950.1</ele>
        <time>2020-01-26T18:49:46Z</time>
      </trkpt>
      <trkpt lat="9.9624160" lon="-83.8330930">
        <ele>2950.1</ele>
        <time>2020-01-26T18:49:48Z</time>
      </trkpt>
      <trkpt lat="9.9623500" lon="-83.8332760">
        <ele>2950.0</ele>
        <time>2020-01-26T18:49:50Z</time>
      </trkpt>
      <trkpt lat="9.9622840" lon="-83.8334570">
        <ele>2949.6</ele>
        <time>2020-01-26T18:49:52Z</time>
      </trkpt>
      <trkpt lat="9.9622170" lon="-83.8336330">
        <ele>2949.1</ele>
        <time>2020-01-26T18:49:54Z</time>
      </trkpt>
      <trkpt lat="9.9621590" lon="-83.8338060">
        <ele>2948.5</ele>
        <time>2020-01-26T18:49:56Z</time>
      </trkpt>
      <trkpt lat="9.9620890" lon="-83.8339810">
        <ele>2947.8</ele>
        <time>2020-01-26T18:49:58Z</time>
      </trkpt>
      <trkpt lat="9.9620200" lon="-83.8341610">
        <ele>2946.7</ele>
        <time>2020-01-26T18:50:00Z</time>
      </trkpt>
      <trkpt lat="9.9619550" lon="-83.8343540">
        <ele>2945.3</ele>
        <time>2020-01-26T18:50:02Z</time>
      </trkpt>
      <trkpt lat="9.9618820" lon="-83.8345580">
        <ele>2943.7</ele>
        <time>2020-01-26T18:50:04Z</time>
      </trkpt>
      <trkpt lat="9.9618120" lon="-83.8347680">
        <ele>2942.1</ele>
        <time>2020-01-26T18:50:06Z</time>
      </trkpt>
      <trkpt lat="9.9617480" lon="-83.8349610">
        <ele>2940.7</ele>
        <time>2020-01-26T18:50:08Z</time>
      </trkpt>
      <trkpt lat="9.9616830" lon="-83.8351480">
        <ele>2939.3</ele>
        <time>2020-01-26T18:50:10Z</time>
      </trkpt>
      <trkpt lat="9.9616210" lon="-83.8353350">
        <ele>2937.9</ele>
        <time>2020-01-26T18:50:12Z</time>
      </trkpt>
      <trkpt lat="9.9615460" lon="-83.8355940">
        <ele>2936.0</ele>
        <time>2020-01-26T18:50:15Z</time>
      </trkpt>
      <trkpt lat="9.9615330" lon="-83.8356830">
        <ele>2935.4</ele>
        <time>2020-01-26T18:50:16Z</time>
      </trkpt>
      <trkpt lat="9.9615370" lon="-83.8358680">
        <ele>2934.3</ele>
        <time>2020-01-26T18:50:18Z</time>
      </trkpt>
      <trkpt lat="9.9615820" lon="-83.8360560">
        <ele>2933.1</ele>
        <time>2020-01-26T18:50:20Z</time>
      </trkpt>
      <trkpt lat="9.9616470" lon="-83.8362400">
        <ele>2931.9</ele>
        <time>2020-01-26T18:50:22Z</time>
      </trkpt>
      <trkpt lat="9.9617100" lon="-83.8364260">
        <ele>2930.7</ele>
        <time>2020-01-26T18:50:24Z</time>
      </trkpt>
      <trkpt lat="9.9617340" lon="-83.8366230">
        <ele>2929.6</ele>
        <time>2020-01-26T18:50:26Z</time>
      </trkpt>
      <trkpt lat="9.9617190" lon="-83.8368220">
        <ele>2928.3</ele>
        <time>2020-01-26T18:50:28Z</time>
      </trkpt>
      <trkpt lat="9.9616630" lon="-83.8370250">
        <ele>2926.4</ele>
        <time>2020-01-26T18:50:30Z</time>
      </trkpt>
      <trkpt lat="9.9616300" lon="-83.8371280">
        <ele>2925.4</ele>
        <time>2020-01-26T18:50:31Z</time>
      </trkpt>
      <trkpt lat="9.9615620" lon="-83.8373410">
        <ele>2923.4</ele>
        <time>2020-01-26T18:50:33Z</time>
      </trkpt>
      <trkpt lat="9.9614860" lon="-83.8375450">
        <ele>2921.3</ele>
        <time>2020-01-26T18:50:35Z</time>
      </trkpt>
      <trkpt lat="9.9614080" lon="-83.8377480">
        <ele>2919.2</ele>
        <time>2020-01-26T18:50:37Z</time>
      </trkpt>
      <trkpt lat="9.9613360" lon="-83.8379310">
        <ele>2917.2</ele>
        <time>2020-01-26T18:50:39Z</time>
      </trkpt>
      <trkpt lat="9.9612710" lon="-83.8381000">
        <ele>2915.4</ele>
        <time>2020-01-26T18:50:41Z</time>
      </trkpt>
      <trkpt lat="9.9611720" lon="-83.8383320">
        <ele>2913.8</ele>
        <time>2020-01-26T18:50:44Z</time>
      </trkpt>
      <trkpt lat="9.9610780" lon="-83.8384890">
        <ele>2912.2</ele>
        <time>2020-01-26T18:50:46Z</time>
      </trkpt>
      <trkpt lat="9.9609620" lon="-83.8386590">
        <ele>2910.7</ele>
        <time>2020-01-26T18:50:48Z</time>
      </trkpt>
      <trkpt lat="9.9608200" lon="-83.8388380">
        <ele>2908.9</ele>
        <time>2020-01-26T18:50:50Z</time>
      </trkpt>
      <trkpt lat="9.9606520" lon="-83.8390300">
        <ele>2906.5</ele>
        <time>2020-01-26T18:50:52Z</time>
      </trkpt>
      <trkpt lat="9.9604970" lon="-83.8392080">
        <ele>2904.4</ele>
        <time>2020-01-26T18:50:54Z</time>
      </trkpt>
      <trkpt lat="9.9603630" lon="-83.8393860">
        <ele>2902.7</ele>
        <time>2020-01-26T18:50:56Z</time>
      </trkpt>
      <trkpt lat="9.9602420" lon="-83.8395690">
        <ele>2901.0</ele>
        <time>2020-01-26T18:50:58Z</time>
      </trkpt>
      <trkpt lat="9.9601290" lon="-83.8397650">
        <ele>2899.2</ele>
        <time>2020-01-26T18:51:00Z</time>
      </trkpt>
      <trkpt lat="9.9600260" lon="-83.8399660">
        <ele>2897.2</ele>
        <time>2020-01-26T18:51:02Z</time>
      </trkpt>
      <trkpt lat="9.9599430" lon="-83.8401520">
        <ele>2895.4</ele>
        <time>2020-01-26T18:51:04Z</time>
      </trkpt>
      <trkpt lat="9.9598760" lon="-83.8403240">
        <ele>2894.0</ele>
        <time>2020-01-26T18:51:06Z</time>
      </trkpt>
      <trkpt lat="9.9598140" lon="-83.8405000">
        <ele>2892.6</ele>
        <time>2020-01-26T18:51:08Z</time>
      </trkpt>
      <trkpt lat="9.9597490" lon="-83.8406740">
        <ele>2891.4</ele>
        <time>2020-01-26T18:51:10Z</time>
      </trkpt>
      <trkpt lat="9.9596570" lon="-83.8409120">
        <ele>2889.9</ele>
        <time>2020-01-26T18:51:13Z</time>
      </trkpt>
      <trkpt lat="9.9595840" lon="-83.8411470">
        <ele>2888.5</ele>
        <time>2020-01-26T18:51:16Z</time>
      </trkpt>
      <trkpt lat="9.9595280" lon="-83.8413300">
        <ele>2887.2</ele>
        <time>2020-01-26T18:51:18Z</time>
      </trkpt>
      <trkpt lat="9.9594650" lon="-83.8415290">
        <ele>2885.3</ele>
        <time>2020-01-26T18:51:20Z</time>
      </trkpt>
      <trkpt lat="9.9593940" lon="-83.8417410">
        <ele>2883.1</ele>
        <time>2020-01-26T18:51:22Z</time>
      </trkpt>
      <trkpt lat="9.9593230" lon="-83.8419590">
        <ele>2881.1</ele>
        <time>2020-01-26T18:51:24Z</time>
      </trkpt>
      <trkpt lat="9.9592510" lon="-83.8421750">
        <ele>2879.5</ele>
        <time>2020-01-26T18:51:26Z</time>
      </trkpt>
      <trkpt lat="9.9591870" lon="-83.8423780">
        <ele>2878.3</ele>
        <time>2020-01-26T18:51:28Z</time>
      </trkpt>
      <trkpt lat="9.9591300" lon="-83.8425720">
        <ele>2877.5</ele>
        <time>2020-01-26T18:51:30Z</time>
      </trkpt>
      <trkpt lat="9.9590700" lon="-83.8427620">
        <ele>2877.0</ele>
        <time>2020-01-26T18:51:32Z</time>
      </trkpt>
      <trkpt lat="9.9590230" lon="-83.8429470">
        <ele>2876.9</ele>
        <time>2020-01-26T18:51:34Z</time>
      </trkpt>
      <trkpt lat="9.9589660" lon="-83.8431320">
        <ele>2876.8</ele>
        <time>2020-01-26T18:51:36Z</time>
      </trkpt>
      <trkpt lat="9.9589050" lon="-83.8433800">
        <ele>2877.0</ele>
        <time>2020-01-26T18:51:39Z</time>
      </trkpt>
      <trkpt lat="9.9588210" lon="-83.8436060">
        <ele>2877.9</ele>
        <time>2020-01-26T18:51:42Z</time>
      </trkpt>
      <trkpt lat="9.9587610" lon="-83.8438130">
        <ele>2879.3</ele>
        <time>2020-01-26T18:51:45Z</time>
      </trkpt>
      <trkpt lat="9.9587250" lon="-83.8440200">
        <ele>2880.5</ele>
        <time>2020-01-26T18:51:48Z</time>
      </trkpt>
      <trkpt lat="9.9587130" lon="-83.8440870">
        <ele>2880.6</ele>
        <time>2020-01-26T18:51:49Z</time>
      </trkpt>
      <trkpt lat="9.9586930" lon="-83.8443020">
        <ele>2880.9</ele>
        <time>2020-01-26T18:51:52Z</time>
      </trkpt>
      <trkpt lat="9.9586900" lon="-83.8445330">
        <ele>2880.9</ele>
        <time>2020-01-26T18:51:55Z</time>
      </trkpt>
      <trkpt lat="9.9587020" lon="-83.8447640">
        <ele>2880.4</ele>
        <time>2020-01-26T18:51:58Z</time>
      </trkpt>
      <trkpt lat="9.9586910" lon="-83.8449130">
        <ele>2880.8</ele>
        <time>2020-01-26T18:52:00Z</time>
      </trkpt>
      <trkpt lat="9.9586400" lon="-83.8451160">
        <ele>2881.2</ele>
        <time>2020-01-26T18:52:03Z</time>
      </trkpt>
      <trkpt lat="9.9585600" lon="-83.8452890">
        <ele>2880.9</ele>
        <time>2020-01-26T18:52:06Z</time>
      </trkpt>
      <trkpt lat="9.9585260" lon="-83.8453440">
        <ele>2880.7</ele>
        <time>2020-01-26T18:52:07Z</time>
      </trkpt>
      <trkpt lat="9.9584490" lon="-83.8454510">
        <ele>2880.5</ele>
        <time>2020-01-26T18:52:09Z</time>
      </trkpt>
      <trkpt lat="9.9584120" lon="-83.8455020">
        <ele>2880.4</ele>
        <time>2020-01-26T18:52:10Z</time>
      </trkpt>
      <trkpt lat="9.9583740" lon="-83.8455540">
        <ele>2880.3</ele>
        <time>2020-01-26T18:52:11Z</time>
      </trkpt>
      <trkpt lat="9.9583390" lon="-83.8456070">
        <ele>2880.3</ele>
        <time>2020-01-26T18:52:12Z</time>
      </trkpt>
      <trkpt lat="9.9583030" lon="-83.8456600">
        <ele>2880.3</ele>
        <time>2020-01-26T18:52:13Z</time>
      </trkpt>
      <trkpt lat="9.9582660" lon="-83.8457110">
        <ele>2880.2</ele>
        <time>2020-01-26T18:52:14Z</time>
      </trkpt>
      <trkpt lat="9.9582300" lon="-83.8457640">
        <ele>2880.5</ele>
        <time>2020-01-26T18:52:15Z</time>
      </trkpt>
      <trkpt lat="9.9581940" lon="-83.8458160">
        <ele>2880.7</ele>
        <time>2020-01-26T18:52:16Z</time>
      </trkpt>
      <trkpt lat="9.9581590" lon="-83.8458660">
        <ele>2881.0</ele>
        <time>2020-01-26T18:52:17Z</time>
      </trkpt>
      <trkpt lat="9.9581230" lon="-83.8459140">
        <ele>2881.1</ele>
        <time>2020-01-26T18:52:18Z</time>
      </trkpt>
      <trkpt lat="9.9580480" lon="-83.8460030">
        <ele>2881.4</ele>
        <time>2020-01-26T18:52:20Z</time>
      </trkpt>
      <trkpt lat="9.9580060" lon="-83.8460430">
        <ele>2881.5</ele>
        <time>2020-01-26T18:52:21Z</time>
      </trkpt>
      <trkpt lat="9.9578780" lon="-83.8461440">
        <ele>2881.9</ele>
        <time>2020-01-26T18:52:24Z</time>
      </trkpt>
      <trkpt lat="9.9577450" lon="-83.8462250">
        <ele>2882.3</ele>
        <time>2020-01-26T18:52:28Z</time>
      </trkpt>
      <trkpt lat="9.9577110" lon="-83.8462390">
        <ele>2882.4</ele>
        <time>2020-01-26T18:52:29Z</time>
      </trkpt>
      <trkpt lat="9.9576260" lon="-83.8462720">
        <ele>2882.9</ele>
        <time>2020-01-26T18:52:32Z</time>
      </trkpt>
      <trkpt lat="9.9574980" lon="-83.8462980">
        <ele>2884.0</ele>
        <time>2020-01-26T18:52:37Z</time>
      </trkpt>
      <trkpt lat="9.9574390" lon="-83.8463090">
        <ele>2884.4</ele>
        <time>2020-01-26T18:52:39Z</time>
      </trkpt>
      <trkpt lat="9.9573060" lon="-83.8463100">
        <ele>2885.6</ele>
        <time>2020-01-26T18:52:43Z</time>
      </trkpt>
      <trkpt lat="9.9572730" lon="-83.8463120">
        <ele>2885.9</ele>
        <time>2020-01-26T18:52:44Z</time>
      </trkpt>
      <trkpt lat="9.9572030" lon="-83.8463060">
        <ele>2886.5</ele>
        <time>2020-01-26T18:52:46Z</time>
      </trkpt>
      <trkpt lat="9.9570000" lon="-83.8463200">
        <ele>2888.6</ele>
        <time>2020-01-26T18:52:52Z</time>
      </trkpt>
      <trkpt lat="9.9568200" lon="-83.8463790">
        <ele>2890.1</ele>
        <time>2020-01-26T18:52:58Z</time>
      </trkpt>
      <trkpt lat="9.9566520" lon="-83.8464650">
        <ele>2891.8</ele>
        <time>2020-01-26T18:53:06Z</time>
      </trkpt>
      <trkpt lat="9.9565530" lon="-83.8465170">
        <ele>2892.8</ele>
        <time>2020-01-26T18:53:12Z</time>
      </trkpt>
      <trkpt lat="9.9565360" lon="-83.8465270">
        <ele>2893.1</ele>
        <time>2020-01-26T18:53:13Z</time>
      </trkpt>
      <trkpt lat="9.9564890" lon="-83.8465500">
        <ele>2893.5</ele>
        <time>2020-01-26T18:53:16Z</time>
      </trkpt>
      <trkpt lat="9.9563170" lon="-83.8466410">
        <ele>2895.3</ele>
        <time>2020-01-26T18:53:26Z</time>
      </trkpt>
      <trkpt lat="9.9562590" lon="-83.8466550">
        <ele>2895.7</ele>
        <time>2020-01-26T18:53:29Z</time>
      </trkpt>
      <trkpt lat="9.9560890" lon="-83.8467340">
        <ele>2897.1</ele>
        <time>2020-01-26T18:53:38Z</time>
      </trkpt>
      <trkpt lat="9.9558850" lon="-83.8467660">
        <ele>2898.3</ele>
        <time>2020-01-26T18:53:46Z</time>
      </trkpt>
      <trkpt lat="9.9557280" lon="-83.8467320">
        <ele>2899.1</ele>
        <time>2020-01-26T18:53:52Z</time>
      </trkpt>
      <trkpt lat="9.9555470" lon="-83.8467130">
        <ele>2900.1</ele>
        <time>2020-01-26T18:53:59Z</time>
      </trkpt>
      <trkpt lat="9.9553620" lon="-83.8466920">
        <ele>2901.2</ele>
        <time>2020-01-26T18:54:06Z</time>
      </trkpt>
      <trkpt lat="9.9553140" lon="-83.8466920">
        <ele>2901.4</ele>
        <time>2020-01-26T18:54:08Z</time>
      </trkpt>
      <trkpt lat="9.9551890" lon="-83.8467090">
        <ele>2902.0</ele>
        <time>2020-01-26T18:54:13Z</time>
      </trkpt>
      <trkpt lat="9.9550090" lon="-83.8467680">
        <ele>2902.8</ele>
        <time>2020-01-26T18:54:21Z</time>
      </trkpt>
      <trkpt lat="9.9548950" lon="-83.8468300">
        <ele>2903.5</ele>
        <time>2020-01-26T18:54:26Z</time>
      </trkpt>
      <trkpt lat="9.9547230" lon="-83.8469120">
        <ele>2904.6</ele>
        <time>2020-01-26T18:54:33Z</time>
      </trkpt>
      <trkpt lat="9.9545400" lon="-83.8469980">
        <ele>2905.7</ele>
        <time>2020-01-26T18:54:41Z</time>
      </trkpt>
      <trkpt lat="9.9543810" lon="-83.8470650">
        <ele>2906.9</ele>
        <time>2020-01-26T18:54:48Z</time>
      </trkpt>
      <trkpt lat="9.9543400" lon="-83.8470950">
        <ele>2907.3</ele>
        <time>2020-01-26T18:54:50Z</time>
      </trkpt>
      <trkpt lat="9.9541600" lon="-83.8471810">
        <ele>2908.6</ele>
        <time>2020-01-26T18:54:58Z</time>
      </trkpt>
      <trkpt lat="9.9540380" lon="-83.8472310">
        <ele>2909.7</ele>
        <time>2020-01-26T18:55:03Z</time>
      </trkpt>
      <trkpt lat="9.9538620" lon="-83.8473090">
        <ele>2910.9</ele>
        <time>2020-01-26T18:55:11Z</time>
      </trkpt>
      <trkpt lat="9.9537520" lon="-83.8473800">
        <ele>2911.9</ele>
        <time>2020-01-26T18:55:16Z</time>
      </trkpt>
      <trkpt lat="9.9535800" lon="-83.8474780">
        <ele>2913.7</ele>
        <time>2020-01-26T18:55:25Z</time>
      </trkpt>
      <trkpt lat="9.9534430" lon="-83.8475620">
        <ele>2915.1</ele>
        <time>2020-01-26T18:55:32Z</time>
      </trkpt>
      <trkpt lat="9.9533990" lon="-83.8475880">
        <ele>2915.5</ele>
        <time>2020-01-26T18:55:34Z</time>
      </trkpt>
      <trkpt lat="9.9532920" lon="-83.8476410">
        <ele>2916.4</ele>
        <time>2020-01-26T18:55:39Z</time>
      </trkpt>
      <trkpt lat="9.9531350" lon="-83.8477410">
        <ele>2917.9</ele>
        <time>2020-01-26T18:55:47Z</time>
      </trkpt>
      <trkpt lat="9.9530480" lon="-83.8477910">
        <ele>2918.6</ele>
        <time>2020-01-26T18:55:52Z</time>
      </trkpt>
      <trkpt lat="9.9529970" lon="-83.8478230">
        <ele>2918.9</ele>
        <time>2020-01-26T18:55:55Z</time>
      </trkpt>
      <trkpt lat="9.9529020" lon="-83.8479110">
        <ele>2919.7</ele>
        <time>2020-01-26T18:56:02Z</time>
      </trkpt>
      <trkpt lat="9.9528720" lon="-83.8479360">
        <ele>2919.9</ele>
        <time>2020-01-26T18:56:04Z</time>
      </trkpt>
      <trkpt lat="9.9528580" lon="-83.8479500">
        <ele>2920.0</ele>
        <time>2020-01-26T18:56:05Z</time>
      </trkpt>
      <trkpt lat="9.9527290" lon="-83.8480940">
        <ele>2921.2</ele>
        <time>2020-01-26T18:56:16Z</time>
      </trkpt>
      <trkpt lat="9.9525540" lon="-83.8481640">
        <ele>2922.1</ele>
        <time>2020-01-26T18:56:26Z</time>
      </trkpt>
      <trkpt lat="9.9525330" lon="-83.8481720">
        <ele>2922.3</ele>
        <time>2020-01-26T18:56:27Z</time>
      </trkpt>
      <trkpt lat="9.9524760" lon="-83.8481950">
        <ele>2922.6</ele>
        <time>2020-01-26T18:56:30Z</time>
      </trkpt>
      <trkpt lat="9.9524220" lon="-83.8481980">
        <ele>2922.9</ele>
        <time>2020-01-26T18:56:32Z</time>
      </trkpt>
      <trkpt lat="9.9522320" lon="-83.8482170">
        <ele>2923.3</ele>
        <time>2020-01-26T18:56:39Z</time>
      </trkpt>
      <trkpt lat="9.9520980" lon="-83.8482250">
        <ele>2923.5</ele>
        <time>2020-01-26T18:56:44Z</time>
      </trkpt>
      <trkpt lat="9.9519000" lon="-83.8482410">
        <ele>2923.9</ele>
        <time>2020-01-26T18:56:50Z</time>
      </trkpt>
      <trkpt lat="9.9517040" lon="-83.8483150">
        <ele>2924.7</ele>
        <time>2020-01-26T18:56:56Z</time>
      </trkpt>
      <trkpt lat="9.9516720" lon="-83.8483370">
        <ele>2924.8</ele>
        <time>2020-01-26T18:56:57Z</time>
      </trkpt>
      <trkpt lat="9.9516080" lon="-83.8483870">
        <ele>2925.0</ele>
        <time>2020-01-26T18:56:59Z</time>
      </trkpt>
      <trkpt lat="9.9514880" lon="-83.8485150">
        <ele>2925.2</ele>
        <time>2020-01-26T18:57:03Z</time>
      </trkpt>
      <trkpt lat="9.9513410" lon="-83.8486840">
        <ele>2925.3</ele>
        <time>2020-01-26T18:57:08Z</time>
      </trkpt>
      <trkpt lat="9.9512630" lon="-83.8487720">
        <ele>2925.4</ele>
        <time>2020-01-26T18:57:11Z</time>
      </trkpt>
      <trkpt lat="9.9511650" lon="-83.8488820">
        <ele>2925.6</ele>
        <time>2020-01-26T18:57:15Z</time>
      </trkpt>
      <trkpt lat="9.9510350" lon="-83.8490430">
        <ele>2925.8</ele>
        <time>2020-01-26T18:57:20Z</time>
      </trkpt>
      <trkpt lat="9.9509870" lon="-83.8491050">
        <ele>2925.9</ele>
        <time>2020-01-26T18:57:22Z</time>
      </trkpt>
      <trkpt lat="9.9508610" lon="-83.8492600">
        <ele>2926.0</ele>
        <time>2020-01-26T18:57:29Z</time>
      </trkpt>
      <trkpt lat="9.9508100" lon="-83.8493120">
        <ele>2926.1</ele>
        <time>2020-01-26T18:57:32Z</time>
      </trkpt>
      <trkpt lat="9.9507930" lon="-83.8493330">
        <ele>2926.1</ele>
        <time>2020-01-26T18:57:33Z</time>
      </trkpt>
      <trkpt lat="9.9507770" lon="-83.8493570">
        <ele>2926.1</ele>
        <time>2020-01-26T18:57:34Z</time>
      </trkpt>
      <trkpt lat="9.9506390" lon="-83.8495140">
        <ele>2926.5</ele>
        <time>2020-01-26T18:57:40Z</time>
      </trkpt>
      <trkpt lat="9.9505740" lon="-83.8496030">
        <ele>2926.7</ele>
        <time>2020-01-26T18:57:43Z</time>
      </trkpt>
      <trkpt lat="9.9504560" lon="-83.8497810">
        <ele>2927.7</ele>
        <time>2020-01-26T18:57:49Z</time>
      </trkpt>
      <trkpt lat="9.9503460" lon="-83.8499320">
        <ele>2929.1</ele>
        <time>2020-01-26T18:57:54Z</time>
      </trkpt>
      <trkpt lat="9.9502770" lon="-83.8501030">
        <ele>2930.2</ele>
        <time>2020-01-26T18:57:59Z</time>
      </trkpt>
      <trkpt lat="9.9501940" lon="-83.8502830">
        <ele>2931.2</ele>
        <time>2020-01-26T18:58:05Z</time>
      </trkpt>
      <trkpt lat="9.9501190" lon="-83.8504520">
        <ele>2932.3</ele>
        <time>2020-01-26T18:58:11Z</time>
      </trkpt>
      <trkpt lat="9.9500260" lon="-83.8506120">
        <ele>2933.6</ele>
        <time>2020-01-26T18:58:19Z</time>
      </trkpt>
      <trkpt lat="9.9499510" lon="-83.8507860">
        <ele>2935.0</ele>
        <time>2020-01-26T18:58:28Z</time>
      </trkpt>
      <trkpt lat="9.9498990" lon="-83.8509680">
        <ele>2936.9</ele>
        <time>2020-01-26T18:58:38Z</time>
      </trkpt>
      <trkpt lat="9.9498820" lon="-83.8511550">
        <ele>2938.7</ele>
        <time>2020-01-26T18:58:48Z</time>
      </trkpt>
      <trkpt lat="9.9498750" lon="-83.8512090">
        <ele>2939.1</ele>
        <time>2020-01-26T18:58:51Z</time>
      </trkpt>
      <trkpt lat="9.9498670" lon="-83.8512760">
        <ele>2939.8</ele>
        <time>2020-01-26T18:58:55Z</time>
      </trkpt>
      <trkpt lat="9.9498600" lon="-83.8513610">
        <ele>2940.9</ele>
        <time>2020-01-26T18:59:00Z</time>
      </trkpt>
      <trkpt lat="9.9498720" lon="-83.8515410">
        <ele>2943.3</ele>
        <time>2020-01-26T18:59:11Z</time>
      </trkpt>
      <trkpt lat="9.9498760" lon="-83.8515900">
        <ele>2943.9</ele>
        <time>2020-01-26T18:59:14Z</time>
      </trkpt>
      <trkpt lat="9.9498960" lon="-83.8517400">
        <ele>2945.6</ele>
        <time>2020-01-26T18:59:23Z</time>
      </trkpt>
      <trkpt lat="9.9498970" lon="-83.8517760">
        <ele>2945.8</ele>
        <time>2020-01-26T18:59:25Z</time>
      </trkpt>
      <trkpt lat="9.9498950" lon="-83.8518090">
        <ele>2946.1</ele>
        <time>2020-01-26T18:59:27Z</time>
      </trkpt>
      <trkpt lat="9.9498930" lon="-83.8519270">
        <ele>2946.9</ele>
        <time>2020-01-26T18:59:33Z</time>
      </trkpt>
      <trkpt lat="9.9498480" lon="-83.8520710">
        <ele>2948.2</ele>
        <time>2020-01-26T18:59:41Z</time>
      </trkpt>
      <trkpt lat="9.9498220" lon="-83.8521140">
        <ele>2948.6</ele>
        <time>2020-01-26T18:59:44Z</time>
      </trkpt>
      <trkpt lat="9.9497390" lon="-83.8522020">
        <ele>2950.0</ele>
        <time>2020-01-26T18:59:50Z</time>
      </trkpt>
      <trkpt lat="9.9497250" lon="-83.8522130">
        <ele>2950.2</ele>
        <time>2020-01-26T18:59:51Z</time>
      </trkpt>
      <trkpt lat="9.9496350" lon="-83.8522690">
        <ele>2951.1</ele>
        <time>2020-01-26T18:59:56Z</time>
      </trkpt>
      <trkpt lat="9.9494840" lon="-83.8523970">
        <ele>2953.0</ele>
        <time>2020-01-26T19:00:05Z</time>
      </trkpt>
      <trkpt lat="9.9493680" lon="-83.8525630">
        <ele>2954.5</ele>
        <time>2020-01-26T19:00:14Z</time>
      </trkpt>
      <trkpt lat="9.9493430" lon="-83.8527460">
        <ele>2955.5</ele>
        <time>2020-01-26T19:00:22Z</time>
      </trkpt>
      <trkpt lat="9.9493990" lon="-83.8529300">
        <ele>2956.4</ele>
        <time>2020-01-26T19:00:31Z</time>
      </trkpt>
      <trkpt lat="9.9495170" lon="-83.8530960">
        <ele>2956.9</ele>
        <time>2020-01-26T19:00:40Z</time>
      </trkpt>
      <trkpt lat="9.9496260" lon="-83.8531890">
        <ele>2957.0</ele>
        <time>2020-01-26T19:00:45Z</time>
      </trkpt>
      <trkpt lat="9.9497360" lon="-83.8532270">
        <ele>2957.0</ele>
        <time>2020-01-26T19:00:49Z</time>
      </trkpt>
      <trkpt lat="9.9499070" lon="-83.8531790">
        <ele>2956.8</ele>
        <time>2020-01-26T19:00:54Z</time>
      </trkpt>
      <trkpt lat="9.9501000" lon="-83.8530700">
        <ele>2957.0</ele>
        <time>2020-01-26T19:00:59Z</time>
      </trkpt>
      <trkpt lat="9.9502420" lon="-83.8529890">
        <ele>2957.0</ele>
        <time>2020-01-26T19:01:02Z</time>
      </trkpt>
      <trkpt lat="9.9502920" lon="-83.8529610">
        <ele>2957.0</ele>
        <time>2020-01-26T19:01:03Z</time>
      </trkpt>
      <trkpt lat="9.9504930" lon="-83.8528540">
        <ele>2956.9</ele>
        <time>2020-01-26T19:01:07Z</time>
      </trkpt>
      <trkpt lat="9.9506990" lon="-83.8527390">
        <ele>2956.7</ele>
        <time>2020-01-26T19:01:11Z</time>
      </trkpt>
      <trkpt lat="9.9508630" lon="-83.8526450">
        <ele>2956.4</ele>
        <time>2020-01-26T19:01:14Z</time>
      </trkpt>
      <trkpt lat="9.9509230" lon="-83.8526160">
        <ele>2956.2</ele>
        <time>2020-01-26T19:01:15Z</time>
      </trkpt>
      <trkpt lat="9.9509850" lon="-83.8525870">
        <ele>2956.1</ele>
        <time>2020-01-26T19:01:16Z</time>
      </trkpt>
      <trkpt lat="9.9511780" lon="-83.8524990">
        <ele>2955.6</ele>
        <time>2020-01-26T19:01:19Z</time>
      </trkpt>
      <trkpt lat="9.9513930" lon="-83.8524240">
        <ele>2955.3</ele>
        <time>2020-01-26T19:01:22Z</time>
      </trkpt>
      <trkpt lat="9.9516500" lon="-83.8523910">
        <ele>2954.4</ele>
        <time>2020-01-26T19:01:25Z</time>
      </trkpt>
      <trkpt lat="9.9519070" lon="-83.8523890">
        <ele>2952.6</ele>
        <time>2020-01-26T19:01:28Z</time>
      </trkpt>
      <trkpt lat="9.9520880" lon="-83.8523970">
        <ele>2951.1</ele>
        <time>2020-01-26T19:01:30Z</time>
      </trkpt>
      <trkpt lat="9.9522720" lon="-83.8523990">
        <ele>2949.7</ele>
        <time>2020-01-26T19:01:32Z</time>
      </trkpt>
      <trkpt lat="9.9524650" lon="-83.8524160">
        <ele>2947.9</ele>
        <time>2020-01-26T19:01:34Z</time>
      </trkpt>
      <trkpt lat="9.9525630" lon="-83.8524340">
        <ele>2947.2</ele>
        <time>2020-01-26T19:01:35Z</time>
      </trkpt>
      <trkpt lat="9.9527640" lon="-83.8524890">
        <ele>2945.4</ele>
        <time>2020-01-26T19:01:37Z</time>
      </trkpt>
      <trkpt lat="9.9529470" lon="-83.8525880">
        <ele>2943.7</ele>
        <time>2020-01-26T19:01:39Z</time>
      </trkpt>
      <trkpt lat="9.9530780" lon="-83.8527170">
        <ele>2941.9</ele>
        <time>2020-01-26T19:01:41Z</time>
      </trkpt>
      <trkpt lat="9.9531680" lon="-83.8529600">
        <ele>2939.7</ele>
        <time>2020-01-26T19:01:44Z</time>
      </trkpt>
      <trkpt lat="9.9531850" lon="-83.8531420">
        <ele>2938.9</ele>
        <time>2020-01-26T19:01:46Z</time>
      </trkpt>
      <trkpt lat="9.9531890" lon="-83.8533350">
        <ele>2938.7</ele>
        <time>2020-01-26T19:01:48Z</time>
      </trkpt>
      <trkpt lat="9.9531930" lon="-83.8535340">
        <ele>2939.3</ele>
        <time>2020-01-26T19:01:50Z</time>
      </trkpt>
      <trkpt lat="9.9531980" lon="-83.8537390">
        <ele>2940.3</ele>
        <time>2020-01-26T19:01:52Z</time>
      </trkpt>
      <trkpt lat="9.9532050" lon="-83.8539440">
        <ele>2941.1</ele>
        <time>2020-01-26T19:01:54Z</time>
      </trkpt>
      <trkpt lat="9.9531980" lon="-83.8541380">
        <ele>2941.3</ele>
        <time>2020-01-26T19:01:56Z</time>
      </trkpt>
      <trkpt lat="9.9531260" lon="-83.8543800">
        <ele>2941.4</ele>
        <time>2020-01-26T19:01:59Z</time>
      </trkpt>
      <trkpt lat="9.9530360" lon="-83.8545730">
        <ele>2941.3</ele>
        <time>2020-01-26T19:02:02Z</time>
      </trkpt>
      <trkpt lat="9.9529700" lon="-83.8546870">
        <ele>2941.3</ele>
        <time>2020-01-26T19:02:04Z</time>
      </trkpt>
      <trkpt lat="9.9528650" lon="-83.8548670">
        <ele>2940.6</ele>
        <time>2020-01-26T19:02:07Z</time>
      </trkpt>
      <trkpt lat="9.9527950" lon="-83.8549800">
        <ele>2939.7</ele>
        <time>2020-01-26T19:02:09Z</time>
      </trkpt>
      <trkpt lat="9.9526800" lon="-83.8551590">
        <ele>2937.8</ele>
        <time>2020-01-26T19:02:12Z</time>
      </trkpt>
      <trkpt lat="9.9525510" lon="-83.8553630">
        <ele>2935.9</ele>
        <time>2020-01-26T19:02:15Z</time>
      </trkpt>
      <trkpt lat="9.9524510" lon="-83.8555220">
        <ele>2934.9</ele>
        <time>2020-01-26T19:02:17Z</time>
      </trkpt>
      <trkpt lat="9.9523410" lon="-83.8556860">
        <ele>2934.0</ele>
        <time>2020-01-26T19:02:19Z</time>
      </trkpt>
      <trkpt lat="9.9522260" lon="-83.8558650">
        <ele>2932.8</ele>
        <time>2020-01-26T19:02:21Z</time>
      </trkpt>
      <trkpt lat="9.9521040" lon="-83.8560410">
        <ele>2931.8</ele>
        <time>2020-01-26T19:02:23Z</time>
      </trkpt>
      <trkpt lat="9.9519890" lon="-83.8562220">
        <ele>2930.7</ele>
        <time>2020-01-26T19:02:25Z</time>
      </trkpt>
      <trkpt lat="9.9518770" lon="-83.8564020">
        <ele>2929.8</ele>
        <time>2020-01-26T19:02:27Z</time>
      </trkpt>
      <trkpt lat="9.9517640" lon="-83.8565810">
        <ele>2928.3</ele>
        <time>2020-01-26T19:02:29Z</time>
      </trkpt>
      <trkpt lat="9.9516470" lon="-83.8567650">
        <ele>2926.6</ele>
        <time>2020-01-26T19:02:31Z</time>
      </trkpt>
      <trkpt lat="9.9515220" lon="-83.8569430">
        <ele>2924.9</ele>
        <time>2020-01-26T19:02:33Z</time>
      </trkpt>
      <trkpt lat="9.9513810" lon="-83.8571180">
        <ele>2922.7</ele>
        <time>2020-01-26T19:02:35Z</time>
      </trkpt>
      <trkpt lat="9.9512140" lon="-83.8572950">
        <ele>2920.3</ele>
        <time>2020-01-26T19:02:37Z</time>
      </trkpt>
      <trkpt lat="9.9510420" lon="-83.8574770">
        <ele>2918.1</ele>
        <time>2020-01-26T19:02:39Z</time>
      </trkpt>
      <trkpt lat="9.9508810" lon="-83.8576690">
        <ele>2915.7</ele>
        <time>2020-01-26T19:02:41Z</time>
      </trkpt>
      <trkpt lat="9.9507380" lon="-83.8578710">
        <ele>2913.9</ele>
        <time>2020-01-26T19:02:43Z</time>
      </trkpt>
      <trkpt lat="9.9506220" lon="-83.8580770">
        <ele>2912.6</ele>
        <time>2020-01-26T19:02:45Z</time>
      </trkpt>
      <trkpt lat="9.9505300" lon="-83.8582750">
        <ele>2911.5</ele>
        <time>2020-01-26T19:02:47Z</time>
      </trkpt>
      <trkpt lat="9.9504590" lon="-83.8584750">
        <ele>2910.1</ele>
        <time>2020-01-26T19:02:49Z</time>
      </trkpt>
      <trkpt lat="9.9504060" lon="-83.8586750">
        <ele>2909.0</ele>
        <time>2020-01-26T19:02:51Z</time>
      </trkpt>
      <trkpt lat="9.9503620" lon="-83.8588660">
        <ele>2907.7</ele>
        <time>2020-01-26T19:02:53Z</time>
      </trkpt>
      <trkpt lat="9.9503180" lon="-83.8591210">
        <ele>2905.2</ele>
        <time>2020-01-26T19:02:56Z</time>
      </trkpt>
      <trkpt lat="9.9503130" lon="-83.8592020">
        <ele>2904.4</ele>
        <time>2020-01-26T19:02:57Z</time>
      </trkpt>
      <trkpt lat="9.9503620" lon="-83.8594660">
        <ele>2901.8</ele>
        <time>2020-01-26T19:03:00Z</time>
      </trkpt>
      <trkpt lat="9.9504710" lon="-83.8596380">
        <ele>2900.0</ele>
        <time>2020-01-26T19:03:02Z</time>
      </trkpt>
      <trkpt lat="9.9505360" lon="-83.8597240">
        <ele>2899.0</ele>
        <time>2020-01-26T19:03:03Z</time>
      </trkpt>
      <trkpt lat="9.9506730" lon="-83.8598940">
        <ele>2897.4</ele>
        <time>2020-01-26T19:03:05Z</time>
      </trkpt>
      <trkpt lat="9.9508240" lon="-83.8600630">
        <ele>2895.2</ele>
        <time>2020-01-26T19:03:07Z</time>
      </trkpt>
      <trkpt lat="9.9509700" lon="-83.8602130">
        <ele>2893.2</ele>
        <time>2020-01-26T19:03:09Z</time>
      </trkpt>
      <trkpt lat="9.9510930" lon="-83.8603540">
        <ele>2891.5</ele>
        <time>2020-01-26T19:03:11Z</time>
      </trkpt>
      <trkpt lat="9.9511900" lon="-83.8604950">
        <ele>2889.7</ele>
        <time>2020-01-26T19:03:13Z</time>
      </trkpt>
      <trkpt lat="9.9512460" lon="-83.8607230">
        <ele>2886.9</ele>
        <time>2020-01-26T19:03:16Z</time>
      </trkpt>
      <trkpt lat="9.9511150" lon="-83.8609280">
        <ele>2884.1</ele>
        <time>2020-01-26T19:03:19Z</time>
      </trkpt>
      <trkpt lat="9.9508740" lon="-83.8609990">
        <ele>2881.5</ele>
        <time>2020-01-26T19:03:22Z</time>
      </trkpt>
      <trkpt lat="9.9506500" lon="-83.8609080">
        <ele>2879.3</ele>
        <time>2020-01-26T19:03:25Z</time>
      </trkpt>
      <trkpt lat="9.9504910" lon="-83.8606960">
        <ele>2877.1</ele>
        <time>2020-01-26T19:03:28Z</time>
      </trkpt>
      <trkpt lat="9.9504100" lon="-83.8605390">
        <ele>2875.8</ele>
        <time>2020-01-26T19:03:30Z</time>
      </trkpt>
      <trkpt lat="9.9503410" lon="-83.8603940">
        <ele>2874.8</ele>
        <time>2020-01-26T19:03:32Z</time>
      </trkpt>
      <trkpt lat="9.9503000" lon="-83.8603270">
        <ele>2874.4</ele>
        <time>2020-01-26T19:03:33Z</time>
      </trkpt>
      <trkpt lat="9.9502480" lon="-83.8602630">
        <ele>2874.0</ele>
        <time>2020-01-26T19:03:34Z</time>
      </trkpt>
      <trkpt lat="9.9500430" lon="-83.8600960">
        <ele>2872.7</ele>
        <time>2020-01-26T19:03:37Z</time>
      </trkpt>
      <trkpt lat="9.9498760" lon="-83.8600050">
        <ele>2871.6</ele>
        <time>2020-01-26T19:03:39Z</time>
      </trkpt>
      <trkpt lat="9.9496990" lon="-83.8599110">
        <ele>2870.2</ele>
        <time>2020-01-26T19:03:41Z</time>
      </trkpt>
      <trkpt lat="9.9495160" lon="-83.8598150">
        <ele>2868.0</ele>
        <time>2020-01-26T19:03:43Z</time>
      </trkpt>
      <trkpt lat="9.9493450" lon="-83.8597270">
        <ele>2865.0</ele>
        <time>2020-01-26T19:03:45Z</time>
      </trkpt>
      <trkpt lat="9.9491080" lon="-83.8595890">
        <ele>2860.2</ele>
        <time>2020-01-26T19:03:48Z</time>
      </trkpt>
      <trkpt lat="9.9489470" lon="-83.8594920">
        <ele>2857.2</ele>
        <time>2020-01-26T19:03:50Z</time>
      </trkpt>
      <trkpt lat="9.9487840" lon="-83.8593950">
        <ele>2854.9</ele>
        <time>2020-01-26T19:03:52Z</time>
      </trkpt>
      <trkpt lat="9.9486170" lon="-83.8592740">
        <ele>2853.1</ele>
        <time>2020-01-26T19:03:54Z</time>
      </trkpt>
      <trkpt lat="9.9484510" lon="-83.8591250">
        <ele>2851.6</ele>
        <time>2020-01-26T19:03:56Z</time>
      </trkpt>
      <trkpt lat="9.9483040" lon="-83.8589780">
        <ele>2850.3</ele>
        <time>2020-01-26T19:03:58Z</time>
      </trkpt>
      <trkpt lat="9.9481220" lon="-83.8588100">
        <ele>2848.7</ele>
        <time>2020-01-26T19:04:01Z</time>
      </trkpt>
      <trkpt lat="9.9479460" lon="-83.8587400">
        <ele>2847.7</ele>
        <time>2020-01-26T19:04:04Z</time>
      </trkpt>
      <trkpt lat="9.9477380" lon="-83.8587940">
        <ele>2845.3</ele>
        <time>2020-01-26T19:04:07Z</time>
      </trkpt>
      <trkpt lat="9.9476070" lon="-83.8589770">
        <ele>2843.5</ele>
        <time>2020-01-26T19:04:10Z</time>
      </trkpt>
      <trkpt lat="9.9476230" lon="-83.8591630">
        <ele>2841.9</ele>
        <time>2020-01-26T19:04:12Z</time>
      </trkpt>
      <trkpt lat="9.9477150" lon="-83.8593460">
        <ele>2840.4</ele>
        <time>2020-01-26T19:04:14Z</time>
      </trkpt>
      <trkpt lat="9.9477770" lon="-83.8594410">
        <ele>2839.2</ele>
        <time>2020-01-26T19:04:15Z</time>
      </trkpt>
      <trkpt lat="9.9479080" lon="-83.8596340">
        <ele>2836.4</ele>
        <time>2020-01-26T19:04:17Z</time>
      </trkpt>
      <trkpt lat="9.9480340" lon="-83.8598100">
        <ele>2833.3</ele>
        <time>2020-01-26T19:04:19Z</time>
      </trkpt>
      <trkpt lat="9.9481360" lon="-83.8599780">
        <ele>2831.5</ele>
        <time>2020-01-26T19:04:21Z</time>
      </trkpt>
      <trkpt lat="9.9481690" lon="-83.8600630">
        <ele>2831.1</ele>
        <time>2020-01-26T19:04:22Z</time>
      </trkpt>
      <trkpt lat="9.9481630" lon="-83.8603190">
        <ele>2829.7</ele>
        <time>2020-01-26T19:04:25Z</time>
      </trkpt>
      <trkpt lat="9.9480610" lon="-83.8604600">
        <ele>2828.0</ele>
        <time>2020-01-26T19:04:27Z</time>
      </trkpt>
      <trkpt lat="9.9479170" lon="-83.8605670">
        <ele>2826.2</ele>
        <time>2020-01-26T19:04:29Z</time>
      </trkpt>
      <trkpt lat="9.9477160" lon="-83.8607030">
        <ele>2823.3</ele>
        <time>2020-01-26T19:04:32Z</time>
      </trkpt>
      <trkpt lat="9.9475420" lon="-83.8607980">
        <ele>2821.6</ele>
        <time>2020-01-26T19:04:35Z</time>
      </trkpt>
      <trkpt lat="9.9473280" lon="-83.8608460">
        <ele>2820.0</ele>
        <time>2020-01-26T19:04:38Z</time>
      </trkpt>
      <trkpt lat="9.9471090" lon="-83.8608730">
        <ele>2818.3</ele>
        <time>2020-01-26T19:04:41Z</time>
      </trkpt>
      <trkpt lat="9.9469040" lon="-83.8608960">
        <ele>2816.7</ele>
        <time>2020-01-26T19:04:44Z</time>
      </trkpt>
      <trkpt lat="9.9468290" lon="-83.8609090">
        <ele>2816.1</ele>
        <time>2020-01-26T19:04:45Z</time>
      </trkpt>
      <trkpt lat="9.9465720" lon="-83.8609430">
        <ele>2814.5</ele>
        <time>2020-01-26T19:04:48Z</time>
      </trkpt>
      <trkpt lat="9.9463880" lon="-83.8609750">
        <ele>2813.4</ele>
        <time>2020-01-26T19:04:50Z</time>
      </trkpt>
      <trkpt lat="9.9461990" lon="-83.8610160">
        <ele>2812.5</ele>
        <time>2020-01-26T19:04:52Z</time>
      </trkpt>
      <trkpt lat="9.9460140" lon="-83.8610870">
        <ele>2811.9</ele>
        <time>2020-01-26T19:04:54Z</time>
      </trkpt>
      <trkpt lat="9.9458330" lon="-83.8611640">
        <ele>2811.3</ele>
        <time>2020-01-26T19:04:56Z</time>
      </trkpt>
      <trkpt lat="9.9456650" lon="-83.8612410">
        <ele>2810.5</ele>
        <time>2020-01-26T19:04:58Z</time>
      </trkpt>
      <trkpt lat="9.9455880" lon="-83.8612800">
        <ele>2810.2</ele>
        <time>2020-01-26T19:04:59Z</time>
      </trkpt>
      <trkpt lat="9.9454420" lon="-83.8613580">
        <ele>2809.6</ele>
        <time>2020-01-26T19:05:01Z</time>
      </trkpt>
      <trkpt lat="9.9452600" lon="-83.8614910">
        <ele>2808.5</ele>
        <time>2020-01-26T19:05:04Z</time>
      </trkpt>
      <trkpt lat="9.9451570" lon="-83.8616040">
        <ele>2807.8</ele>
        <time>2020-01-26T19:05:06Z</time>
      </trkpt>
      <trkpt lat="9.9451140" lon="-83.8616710">
        <ele>2807.4</ele>
        <time>2020-01-26T19:05:07Z</time>
      </trkpt>
      <trkpt lat="9.9450460" lon="-83.8619190">
        <ele>2806.1</ele>
        <time>2020-01-26T19:05:10Z</time>
      </trkpt>
      <trkpt lat="9.9450950" lon="-83.8621570">
        <ele>2805.0</ele>
        <time>2020-01-26T19:05:13Z</time>
      </trkpt>
      <trkpt lat="9.9452690" lon="-83.8622620">
        <ele>2803.8</ele>
        <time>2020-01-26T19:05:15Z</time>
      </trkpt>
      <trkpt lat="9.9454610" lon="-83.8623330">
        <ele>2802.1</ele>
        <time>2020-01-26T19:05:17Z</time>
      </trkpt>
      <trkpt lat="9.9456580" lon="-83.8623520">
        <ele>2799.7</ele>
        <time>2020-01-26T19:05:19Z</time>
      </trkpt>
      <trkpt lat="9.9458520" lon="-83.8623250">
        <ele>2797.4</ele>
        <time>2020-01-26T19:05:21Z</time>
      </trkpt>
      <trkpt lat="9.9460400" lon="-83.8622440">
        <ele>2795.7</ele>
        <time>2020-01-26T19:05:23Z</time>
      </trkpt>
      <trkpt lat="9.9462240" lon="-83.8621350">
        <ele>2793.7</ele>
        <time>2020-01-26T19:05:25Z</time>
      </trkpt>
      <trkpt lat="9.9464210" lon="-83.8620250">
        <ele>2791.9</ele>
        <time>2020-01-26T19:05:27Z</time>
      </trkpt>
      <trkpt lat="9.9466270" lon="-83.8619260">
        <ele>2790.7</ele>
        <time>2020-01-26T19:05:29Z</time>
      </trkpt>
      <trkpt lat="9.9467430" lon="-83.8618910">
        <ele>2789.8</ele>
        <time>2020-01-26T19:05:30Z</time>
      </trkpt>
      <trkpt lat="9.9469820" lon="-83.8618940">
        <ele>2788.5</ele>
        <time>2020-01-26T19:05:32Z</time>
      </trkpt>
      <trkpt lat="9.9472090" lon="-83.8619420">
        <ele>2787.1</ele>
        <time>2020-01-26T19:05:34Z</time>
      </trkpt>
      <trkpt lat="9.9474170" lon="-83.8620160">
        <ele>2785.0</ele>
        <time>2020-01-26T19:05:36Z</time>
      </trkpt>
      <trkpt lat="9.9475070" lon="-83.8620610">
        <ele>2783.9</ele>
        <time>2020-01-26T19:05:37Z</time>
      </trkpt>
      <trkpt lat="9.9475910" lon="-83.8621170">
        <ele>2782.6</ele>
        <time>2020-01-26T19:05:38Z</time>
      </trkpt>
      <trkpt lat="9.9477270" lon="-83.8622520">
        <ele>2780.2</ele>
        <time>2020-01-26T19:05:40Z</time>
      </trkpt>
      <trkpt lat="9.9477400" lon="-83.8625020">
        <ele>2778.1</ele>
        <time>2020-01-26T19:05:43Z</time>
      </trkpt>
      <trkpt lat="9.9475910" lon="-83.8627410">
        <ele>2776.7</ele>
        <time>2020-01-26T19:05:46Z</time>
      </trkpt>
      <trkpt lat="9.9475330" lon="-83.8628200">
        <ele>2776.3</ele>
        <time>2020-01-26T19:05:47Z</time>
      </trkpt>
      <trkpt lat="9.9474080" lon="-83.8629850">
        <ele>2775.0</ele>
        <time>2020-01-26T19:05:49Z</time>
      </trkpt>
      <trkpt lat="9.9472930" lon="-83.8631560">
        <ele>2773.6</ele>
        <time>2020-01-26T19:05:51Z</time>
      </trkpt>
      <trkpt lat="9.9471790" lon="-83.8633300">
        <ele>2772.6</ele>
        <time>2020-01-26T19:05:53Z</time>
      </trkpt>
      <trkpt lat="9.9470760" lon="-83.8634980">
        <ele>2771.9</ele>
        <time>2020-01-26T19:05:55Z</time>
      </trkpt>
      <trkpt lat="9.9470360" lon="-83.8635850">
        <ele>2771.6</ele>
        <time>2020-01-26T19:05:56Z</time>
      </trkpt>
      <trkpt lat="9.9469860" lon="-83.8637610">
        <ele>2771.1</ele>
        <time>2020-01-26T19:05:58Z</time>
      </trkpt>
      <trkpt lat="9.9470000" lon="-83.8640200">
        <ele>2770.4</ele>
        <time>2020-01-26T19:06:01Z</time>
      </trkpt>
      <trkpt lat="9.9470140" lon="-83.8641040">
        <ele>2770.2</ele>
        <time>2020-01-26T19:06:02Z</time>
      </trkpt>
      <trkpt lat="9.9470590" lon="-83.8643420">
        <ele>2769.4</ele>
        <time>2020-01-26T19:06:05Z</time>
      </trkpt>
      <trkpt lat="9.9470830" lon="-83.8645610">
        <ele>2768.5</ele>
        <time>2020-01-26T19:06:08Z</time>
      </trkpt>
      <trkpt lat="9.9470760" lon="-83.8647480">
        <ele>2767.7</ele>
        <time>2020-01-26T19:06:11Z</time>
      </trkpt>
      <trkpt lat="9.9470300" lon="-83.8649260">
        <ele>2766.8</ele>
        <time>2020-01-26T19:06:21Z</time>
      </trkpt>
      <trkpt lat="9.9470310" lon="-83.8649290">
        <ele>2766.8</ele>
        <time>2020-01-26T19:06:22Z</time>
      </trkpt>
      <trkpt lat="9.9470270" lon="-83.8649230">
        <ele>2766.8</ele>
        <time>2020-01-26T19:06:34Z</time>
      </trkpt>
      <trkpt lat="9.9470310" lon="-83.8649140">
        <ele>2766.7</ele>
        <time>2020-01-26T19:06:39Z</time>
      </trkpt>
      <trkpt lat="9.9470400" lon="-83.8649170">
        <ele>2766.7</ele>
        <time>2020-01-26T19:06:42Z</time>
      </trkpt>
      <trkpt lat="9.9470540" lon="-83.8649120">
        <ele>2766.6</ele>
        <time>2020-01-26T19:06:47Z</time>
      </trkpt>
      <trkpt lat="9.9469510" lon="-83.8650520">
        <ele>2765.6</ele>
        <time>2020-01-26T19:07:16Z</time>
      </trkpt>
      <trkpt lat="9.9468480" lon="-83.8652020">
        <ele>2764.2</ele>
        <time>2020-01-26T19:07:22Z</time>
      </trkpt>
      <trkpt lat="9.9468250" lon="-83.8652780">
        <ele>2763.6</ele>
        <time>2020-01-26T19:07:26Z</time>
      </trkpt>
      <trkpt lat="9.9468160" lon="-83.8652990">
        <ele>2763.3</ele>
        <time>2020-01-26T19:07:57Z</time>
      </trkpt>
      <trkpt lat="9.9468150" lon="-83.8652950">
        <ele>2763.3</ele>
        <time>2020-01-26T19:08:01Z</time>
      </trkpt>
      <trkpt lat="9.9468140" lon="-83.8652950">
        <ele>2763.3</ele>
        <time>2020-01-26T19:08:05Z</time>
      </trkpt>
      <trkpt lat="9.9468210" lon="-83.8653030">
        <ele>2763.2</ele>
        <time>2020-01-26T19:08:14Z</time>
      </trkpt>
      <trkpt lat="9.9468240" lon="-83.8652960">
        <ele>2763.3</ele>
        <time>2020-01-26T19:06:46Z</time>
      </trkpt>
      <trkpt lat="9.9468250" lon="-83.8652910">
        <ele>2763.2</ele>
        <time>2020-01-26T19:06:47Z</time>
      </trkpt>
      <trkpt lat="9.9468250" lon="-83.8652860">
        <ele>2763.2</ele>
        <time>2020-01-26T19:06:48Z</time>
      </trkpt>
      <trkpt lat="9.9468230" lon="-83.8652770">
        <ele>2763.1</ele>
        <time>2020-01-26T19:06:50Z</time>
      </trkpt>
      <trkpt lat="9.9468210" lon="-83.8652760">
        <ele>2763.1</ele>
        <time>2020-01-26T19:06:52Z</time>
      </trkpt>
      <trkpt lat="9.9468210" lon="-83.8652760">
        <ele>2763.1</ele>
        <time>2020-01-26T19:06:53Z</time>
      </trkpt>
      <trkpt lat="9.9468230" lon="-83.8652700">
        <ele>2763.0</ele>
        <time>2020-01-26T19:06:54Z</time>
      </trkpt>
      <trkpt lat="9.9468180" lon="-83.8652700">
        <ele>2762.9</ele>
        <time>2020-01-26T19:06:55Z</time>
      </trkpt>
      <trkpt lat="9.9468130" lon="-83.8652720">
        <ele>2762.9</ele>
        <time>2020-01-26T19:06:57Z</time>
      </trkpt>
      <trkpt lat="9.9468110" lon="-83.8652710">
        <ele>2762.9</ele>
        <time>2020-01-26T19:06:58Z</time>
      </trkpt>
      <trkpt lat="9.9468080" lon="-83.8652690">
        <ele>2762.8</ele>
        <time>2020-01-26T19:06:59Z</time>
      </trkpt>
      <trkpt lat="9.9468120" lon="-83.8652680">
        <ele>2762.8</ele>
        <time>2020-01-26T19:07:01Z</time>
      </trkpt>
      <trkpt lat="9.9468150" lon="-83.8652680">
        <ele>2762.8</ele>
        <time>2020-01-26T19:07:03Z</time>
      </trkpt>
      <trkpt lat="9.9468160" lon="-83.8652670">
        <ele>2762.7</ele>
        <time>2020-01-26T19:07:04Z</time>
      </trkpt>
      <trkpt lat="9.9468170" lon="-83.8652650">
        <ele>2762.7</ele>
        <time>2020-01-26T19:07:06Z</time>
      </trkpt>
      <trkpt lat="9.9468170" lon="-83.8652650">
        <ele>2762.7</ele>
        <time>2020-01-26T19:07:07Z</time>
      </trkpt>
      <trkpt lat="9.9468170" lon="-83.8652640">
        <ele>2762.7</ele>
        <time>2020-01-26T19:07:09Z</time>
      </trkpt>
      <trkpt lat="9.9468170" lon="-83.8652640">
        <ele>2762.7</ele>
        <time>2020-01-26T19:07:10Z</time>
      </trkpt>
      <trkpt lat="9.9468170" lon="-83.8652640">
        <ele>2762.7</ele>
        <time>2020-01-26T19:07:11Z</time>
      </trkpt>
      <trkpt lat="9.9468170" lon="-83.8652640">
        <ele>2762.7</ele>
        <time>2020-01-26T19:07:12Z</time>
      </trkpt>
      <trkpt lat="9.9468220" lon="-83.8652570">
        <ele>2762.6</ele>
        <time>2020-01-26T19:07:14Z</time>
      </trkpt>
      <trkpt lat="9.9468230" lon="-83.8652530">
        <ele>2762.6</ele>
        <time>2020-01-26T19:07:15Z</time>
      </trkpt>
      <trkpt lat="9.9468240" lon="-83.8652520">
        <ele>2762.6</ele>
        <time>2020-01-26T19:07:16Z</time>
      </trkpt>
      <trkpt lat="9.9468240" lon="-83.8652520">
        <ele>2762.6</ele>
        <time>2020-01-26T19:07:17Z</time>
      </trkpt>
      <trkpt lat="9.9468240" lon="-83.8652520">
        <ele>2762.6</ele>
        <time>2020-01-26T19:07:18Z</time>
      </trkpt>
      <trkpt lat="9.9468140" lon="-83.8652460">
        <ele>2762.5</ele>
        <time>2020-01-26T19:07:20Z</time>
      </trkpt>
      <trkpt lat="9.9468070" lon="-83.8652490">
        <ele>2762.4</ele>
        <time>2020-01-26T19:07:21Z</time>
      </trkpt>
      <trkpt lat="9.9468060" lon="-83.8652500">
        <ele>2762.4</ele>
        <time>2020-01-26T19:07:22Z</time>
      </trkpt>
      <trkpt lat="9.9468080" lon="-83.8652470">
        <ele>2762.3</ele>
        <time>2020-01-26T19:07:24Z</time>
      </trkpt>
      <trkpt lat="9.9468070" lon="-83.8652480">
        <ele>2762.3</ele>
        <time>2020-01-26T19:07:25Z</time>
      </trkpt>
      <trkpt lat="9.9468050" lon="-83.8652490">
        <ele>2762.3</ele>
        <time>2020-01-26T19:07:26Z</time>
      </trkpt>
      <trkpt lat="9.9468050" lon="-83.8652510">
        <ele>2762.3</ele>
        <time>2020-01-26T19:07:27Z</time>
      </trkpt>
      <trkpt lat="9.9468060" lon="-83.8652510">
        <ele>2762.3</ele>
        <time>2020-01-26T19:07:29Z</time>
      </trkpt>
      <trkpt lat="9.9468060" lon="-83.8652530">
        <ele>2762.3</ele>
        <time>2020-01-26T19:07:31Z</time>
      </trkpt>
      <trkpt lat="9.9468160" lon="-83.8652770">
        <ele>2762.0</ele>
        <time>2020-01-26T19:07:32Z</time>
      </trkpt>
      <trkpt lat="9.9468220" lon="-83.8652920">
        <ele>2761.9</ele>
        <time>2020-01-26T19:07:33Z</time>
      </trkpt>
      <trkpt lat="9.9468290" lon="-83.8653090">
        <ele>2761.7</ele>
        <time>2020-01-26T19:07:35Z</time>
      </trkpt>
      <trkpt lat="9.9468340" lon="-83.8653250">
        <ele>2761.6</ele>
        <time>2020-01-26T19:07:36Z</time>
      </trkpt>
      <trkpt lat="9.9468350" lon="-83.8653290">
        <ele>2761.5</ele>
        <time>2020-01-26T19:07:38Z</time>
      </trkpt>
      <trkpt lat="9.9468440" lon="-83.8653560">
        <ele>2761.3</ele>
        <time>2020-01-26T19:07:40Z</time>
      </trkpt>
      <trkpt lat="9.9468410" lon="-83.8654090">
        <ele>2760.8</ele>
        <time>2020-01-26T19:07:42Z</time>
      </trkpt>
      <trkpt lat="9.9468400" lon="-83.8654960">
        <ele>2760.0</ele>
        <time>2020-01-26T19:07:43Z</time>
      </trkpt>
      <trkpt lat="9.9468540" lon="-83.8656200">
        <ele>2758.7</ele>
        <time>2020-01-26T19:07:45Z</time>
      </trkpt>
      <trkpt lat="9.9468630" lon="-83.8657330">
        <ele>2757.5</ele>
        <time>2020-01-26T19:07:47Z</time>
      </trkpt>
      <trkpt lat="9.9468780" lon="-83.8658540">
        <ele>2756.2</ele>
        <time>2020-01-26T19:07:49Z</time>
      </trkpt>
      <trkpt lat="9.9469070" lon="-83.8659910">
        <ele>2754.7</ele>
        <time>2020-01-26T19:07:51Z</time>
      </trkpt>
      <trkpt lat="9.9469210" lon="-83.8660590">
        <ele>2753.9</ele>
        <time>2020-01-26T19:07:52Z</time>
      </trkpt>
      <trkpt lat="9.9469460" lon="-83.8661930">
        <ele>2752.5</ele>
        <time>2020-01-26T19:07:54Z</time>
      </trkpt>
      <trkpt lat="9.9469640" lon="-83.8663450">
        <ele>2751.0</ele>
        <time>2020-01-26T19:07:56Z</time>
      </trkpt>
      <trkpt lat="9.9469650" lon="-83.8664860">
        <ele>2749.7</ele>
        <time>2020-01-26T19:07:58Z</time>
      </trkpt>
      <trkpt lat="9.9469620" lon="-83.8665580">
        <ele>2749.1</ele>
        <time>2020-01-26T19:07:59Z</time>
      </trkpt>
      <trkpt lat="9.9469430" lon="-83.8666380">
        <ele>2748.4</ele>
        <time>2020-01-26T19:08:00Z</time>
      </trkpt>
      <trkpt lat="9.9468690" lon="-83.8667740">
        <ele>2747.1</ele>
        <time>2020-01-26T19:08:02Z</time>
      </trkpt>
      <trkpt lat="9.9467730" lon="-83.8668710">
        <ele>2745.9</ele>
        <time>2020-01-26T19:08:04Z</time>
      </trkpt>
      <trkpt lat="9.9466830" lon="-83.8669330">
        <ele>2744.8</ele>
        <time>2020-01-26T19:08:06Z</time>
      </trkpt>
      <trkpt lat="9.9466330" lon="-83.8669530">
        <ele>2744.3</ele>
        <time>2020-01-26T19:08:08Z</time>
      </trkpt>
      <trkpt lat="9.9466100" lon="-83.8669480">
        <ele>2744.1</ele>
        <time>2020-01-26T19:08:10Z</time>
      </trkpt>
      <trkpt lat="9.9466100" lon="-83.8669490">
        <ele>2744.0</ele>
        <time>2020-01-26T19:08:11Z</time>
      </trkpt>
      <trkpt lat="9.9466110" lon="-83.8669500">
        <ele>2744.0</ele>
        <time>2020-01-26T19:08:13Z</time>
      </trkpt>
      <trkpt lat="9.9466120" lon="-83.8669480">
        <ele>2744.0</ele>
        <time>2020-01-26T19:08:15Z</time>
      </trkpt>
      <trkpt lat="9.9466130" lon="-83.8669480">
        <ele>2744.0</ele>
        <time>2020-01-26T19:08:16Z</time>
      </trkpt>
      <trkpt lat="9.9466130" lon="-83.8669480">
        <ele>2744.0</ele>
        <time>2020-01-26T19:08:17Z</time>
      </trkpt>
      <trkpt lat="9.9466120" lon="-83.8669500">
        <ele>2744.0</ele>
        <time>2020-01-26T19:08:19Z</time>
      </trkpt>
      <trkpt lat="9.9466110" lon="-83.8669500">
        <ele>2744.0</ele>
        <time>2020-01-26T19:08:20Z</time>
      </trkpt>
      <trkpt lat="9.9466110" lon="-83.8669510">
        <ele>2744.0</ele>
        <time>2020-01-26T19:08:21Z</time>
      </trkpt>
      <trkpt lat="9.9466100" lon="-83.8669520">
        <ele>2743.9</ele>
        <time>2020-01-26T19:08:22Z</time>
      </trkpt>
      <trkpt lat="9.9466100" lon="-83.8669550">
        <ele>2743.9</ele>
        <time>2020-01-26T19:08:24Z</time>
      </trkpt>
      <trkpt lat="9.9466120" lon="-83.8669550">
        <ele>2743.9</ele>
        <time>2020-01-26T19:08:25Z</time>
      </trkpt>
      <trkpt lat="9.9466140" lon="-83.8669540">
        <ele>2743.9</ele>
        <time>2020-01-26T19:08:26Z</time>
      </trkpt>
      <trkpt lat="9.9466160" lon="-83.8669540">
        <ele>2743.9</ele>
        <time>2020-01-26T19:08:28Z</time>
      </trkpt>
      <trkpt lat="9.9466170" lon="-83.8669550">
        <ele>2743.8</ele>
        <time>2020-01-26T19:08:29Z</time>
      </trkpt>
      <trkpt lat="9.9466170" lon="-83.8669560">
        <ele>2743.8</ele>
        <time>2020-01-26T19:08:30Z</time>
      </trkpt>
      <trkpt lat="9.9466180" lon="-83.8669570">
        <ele>2743.8</ele>
        <time>2020-01-26T19:08:31Z</time>
      </trkpt>
      <trkpt lat="9.9466180" lon="-83.8669570">
        <ele>2743.8</ele>
        <time>2020-01-26T19:08:33Z</time>
      </trkpt>
      <trkpt lat="9.9466200" lon="-83.8669580">
        <ele>2743.8</ele>
        <time>2020-01-26T19:08:34Z</time>
      </trkpt>
      <trkpt lat="9.9466230" lon="-83.8669600">
        <ele>2743.8</ele>
        <time>2020-01-26T19:08:36Z</time>
      </trkpt>
      <trkpt lat="9.9466270" lon="-83.8669590">
        <ele>2743.7</ele>
        <time>2020-01-26T19:08:38Z</time>
      </trkpt>
      <trkpt lat="9.9466280" lon="-83.8669590">
        <ele>2743.7</ele>
        <time>2020-01-26T19:08:39Z</time>
      </trkpt>
      <trkpt lat="9.9466290" lon="-83.8669590">
        <ele>2743.7</ele>
        <time>2020-01-26T19:08:40Z</time>
      </trkpt>
      <trkpt lat="9.9466300" lon="-83.8669590">
        <ele>2743.7</ele>
        <time>2020-01-26T19:08:41Z</time>
      </trkpt>
      <trkpt lat="9.9466300" lon="-83.8669590">
        <ele>2743.7</ele>
        <time>2020-01-26T19:08:42Z</time>
      </trkpt>
      <trkpt lat="9.9465970" lon="-83.8669490">
        <ele>2743.4</ele>
        <time>2020-01-26T19:08:44Z</time>
      </trkpt>
      <trkpt lat="9.9465230" lon="-83.8669340">
        <ele>2742.7</ele>
        <time>2020-01-26T19:08:45Z</time>
      </trkpt>
      <trkpt lat="9.9464650" lon="-83.8669190">
        <ele>2742.1</ele>
        <time>2020-01-26T19:08:46Z</time>
      </trkpt>
      <trkpt lat="9.9463500" lon="-83.8668660">
        <ele>2740.8</ele>
        <time>2020-01-26T19:08:48Z</time>
      </trkpt>
      <trkpt lat="9.9462930" lon="-83.8668300">
        <ele>2740.1</ele>
        <time>2020-01-26T19:08:49Z</time>
      </trkpt>
      <trkpt lat="9.9461700" lon="-83.8667370">
        <ele>2738.4</ele>
        <time>2020-01-26T19:08:51Z</time>
      </trkpt>
      <trkpt lat="9.9461040" lon="-83.8666800">
        <ele>2737.4</ele>
        <time>2020-01-26T19:08:52Z</time>
      </trkpt>
      <trkpt lat="9.9460370" lon="-83.8666230">
        <ele>2736.3</ele>
        <time>2020-01-26T19:08:53Z</time>
      </trkpt>
      <trkpt lat="9.9459630" lon="-83.8665710">
        <ele>2735.3</ele>
        <time>2020-01-26T19:08:54Z</time>
      </trkpt>
      <trkpt lat="9.9458240" lon="-83.8664930">
        <ele>2733.3</ele>
        <time>2020-01-26T19:08:56Z</time>
      </trkpt>
      <trkpt lat="9.9457560" lon="-83.8664770">
        <ele>2732.6</ele>
        <time>2020-01-26T19:08:57Z</time>
      </trkpt>
      <trkpt lat="9.9456240" lon="-83.8664820">
        <ele>2731.1</ele>
        <time>2020-01-26T19:08:59Z</time>
      </trkpt>
      <trkpt lat="9.9455490" lon="-83.8664910">
        <ele>2730.2</ele>
        <time>2020-01-26T19:09:00Z</time>
      </trkpt>
      <trkpt lat="9.9454030" lon="-83.8665040">
        <ele>2728.5</ele>
        <time>2020-01-26T19:09:02Z</time>
      </trkpt>
      <trkpt lat="9.9452580" lon="-83.8665010">
        <ele>2727.1</ele>
        <time>2020-01-26T19:09:04Z</time>
      </trkpt>
      <trkpt lat="9.9450990" lon="-83.8664580">
        <ele>2725.4</ele>
        <time>2020-01-26T19:09:06Z</time>
      </trkpt>
      <trkpt lat="9.9449660" lon="-83.8663650">
        <ele>2723.7</ele>
        <time>2020-01-26T19:09:08Z</time>
      </trkpt>
      <trkpt lat="9.9449070" lon="-83.8662970">
        <ele>2722.8</ele>
        <time>2020-01-26T19:09:09Z</time>
      </trkpt>
      <trkpt lat="9.9448310" lon="-83.8661440">
        <ele>2720.9</ele>
        <time>2020-01-26T19:09:11Z</time>
      </trkpt>
      <trkpt lat="9.9448150" lon="-83.8660530">
        <ele>2719.9</ele>
        <time>2020-01-26T19:09:12Z</time>
      </trkpt>
      <trkpt lat="9.9448170" lon="-83.8658820">
        <ele>2718.0</ele>
        <time>2020-01-26T19:09:14Z</time>
      </trkpt>
      <trkpt lat="9.9448290" lon="-83.8657930">
        <ele>2716.9</ele>
        <time>2020-01-26T19:09:15Z</time>
      </trkpt>
      <trkpt lat="9.9448350" lon="-83.8657030">
        <ele>2715.9</ele>
        <time>2020-01-26T19:09:16Z</time>
      </trkpt>
      <trkpt lat="9.9448300" lon="-83.8655330">
        <ele>2713.6</ele>
        <time>2020-01-26T19:09:18Z</time>
      </trkpt>
      <trkpt lat="9.9447780" lon="-83.8653990">
        <ele>2712.0</ele>
        <time>2020-01-26T19:09:20Z</time>
      </trkpt>
      <trkpt lat="9.9446650" lon="-83.8653060">
        <ele>2710.3</ele>
        <time>2020-01-26T19:09:22Z</time>
      </trkpt>
      <trkpt lat="9.9445880" lon="-83.8652840">
        <ele>2709.5</ele>
        <time>2020-01-26T19:09:23Z</time>
      </trkpt>
      <trkpt lat="9.9445080" lon="-83.8652830">
        <ele>2708.6</ele>
        <time>2020-01-26T19:09:24Z</time>
      </trkpt>
      <trkpt lat="9.9444280" lon="-83.8653040">
        <ele>2707.7</ele>
        <time>2020-01-26T19:09:25Z</time>
      </trkpt>
      <trkpt lat="9.9442720" lon="-83.8654030">
        <ele>2705.6</ele>
        <time>2020-01-26T19:09:27Z</time>
      </trkpt>
      <trkpt lat="9.9441900" lon="-83.8654530">
        <ele>2704.5</ele>
        <time>2020-01-26T19:09:28Z</time>
      </trkpt>
      <trkpt lat="9.9441070" lon="-83.8655020">
        <ele>2703.4</ele>
        <time>2020-01-26T19:09:29Z</time>
      </trkpt>
      <trkpt lat="9.9440180" lon="-83.8655560">
        <ele>2702.2</ele>
        <time>2020-01-26T19:09:30Z</time>
      </trkpt>
      <trkpt lat="9.9438520" lon="-83.8656570">
        <ele>2699.9</ele>
        <time>2020-01-26T19:09:32Z</time>
      </trkpt>
      <trkpt lat="9.9437110" lon="-83.8657720">
        <ele>2697.5</ele>
        <time>2020-01-26T19:09:34Z</time>
      </trkpt>
      <trkpt lat="9.9435900" lon="-83.8659480">
        <ele>2694.6</ele>
        <time>2020-01-26T19:09:36Z</time>
      </trkpt>
      <trkpt lat="9.9434880" lon="-83.8661520">
        <ele>2691.7</ele>
        <time>2020-01-26T19:09:38Z</time>
      </trkpt>
      <trkpt lat="9.9433860" lon="-83.8663700">
        <ele>2688.7</ele>
        <time>2020-01-26T19:09:40Z</time>
      </trkpt>
      <trkpt lat="9.9433240" lon="-83.8664810">
        <ele>2687.3</ele>
        <time>2020-01-26T19:09:41Z</time>
      </trkpt>
      <trkpt lat="9.9432600" lon="-83.8665950">
        <ele>2685.9</ele>
        <time>2020-01-26T19:09:42Z</time>
      </trkpt>
      <trkpt lat="9.9431140" lon="-83.8668220">
        <ele>2683.0</ele>
        <time>2020-01-26T19:09:44Z</time>
      </trkpt>
      <trkpt lat="9.9429340" lon="-83.8670440">
        <ele>2680.2</ele>
        <time>2020-01-26T19:09:46Z</time>
      </trkpt>
      <trkpt lat="9.9428360" lon="-83.8671520">
        <ele>2679.0</ele>
        <time>2020-01-26T19:09:47Z</time>
      </trkpt>
      <trkpt lat="9.9427360" lon="-83.8672610">
        <ele>2678.0</ele>
        <time>2020-01-26T19:09:48Z</time>
      </trkpt>
      <trkpt lat="9.9425610" lon="-83.8674550">
        <ele>2676.4</ele>
        <time>2020-01-26T19:09:50Z</time>
      </trkpt>
      <trkpt lat="9.9424720" lon="-83.8675510">
        <ele>2675.7</ele>
        <time>2020-01-26T19:09:51Z</time>
      </trkpt>
      <trkpt lat="9.9423800" lon="-83.8676390">
        <ele>2674.9</ele>
        <time>2020-01-26T19:09:52Z</time>
      </trkpt>
      <trkpt lat="9.9421780" lon="-83.8677960">
        <ele>2673.1</ele>
        <time>2020-01-26T19:09:54Z</time>
      </trkpt>
      <trkpt lat="9.9420720" lon="-83.8678640">
        <ele>2672.1</ele>
        <time>2020-01-26T19:09:55Z</time>
      </trkpt>
      <trkpt lat="9.9418770" lon="-83.8679860">
        <ele>2670.0</ele>
        <time>2020-01-26T19:09:57Z</time>
      </trkpt>
      <trkpt lat="9.9417860" lon="-83.8680440">
        <ele>2669.0</ele>
        <time>2020-01-26T19:09:58Z</time>
      </trkpt>
      <trkpt lat="9.9417010" lon="-83.8681070">
        <ele>2667.9</ele>
        <time>2020-01-26T19:09:59Z</time>
      </trkpt>
      <trkpt lat="9.9415370" lon="-83.8682670">
        <ele>2665.9</ele>
        <time>2020-01-26T19:10:01Z</time>
      </trkpt>
      <trkpt lat="9.9413770" lon="-83.8684450">
        <ele>2663.9</ele>
        <time>2020-01-26T19:10:03Z</time>
      </trkpt>
      <trkpt lat="9.9412980" lon="-83.8685310">
        <ele>2663.2</ele>
        <time>2020-01-26T19:10:04Z</time>
      </trkpt>
      <trkpt lat="9.9412210" lon="-83.8686130">
        <ele>2662.6</ele>
        <time>2020-01-26T19:10:05Z</time>
      </trkpt>
      <trkpt lat="9.9410760" lon="-83.8687430">
        <ele>2661.6</ele>
        <time>2020-01-26T19:10:07Z</time>
      </trkpt>
      <trkpt lat="9.9409050" lon="-83.8688270">
        <ele>2660.6</ele>
        <time>2020-01-26T19:10:09Z</time>
      </trkpt>
      <trkpt lat="9.9407260" lon="-83.8688420">
        <ele>2659.6</ele>
        <time>2020-01-26T19:10:11Z</time>
      </trkpt>
      <trkpt lat="9.9406370" lon="-83.8688160">
        <ele>2659.1</ele>
        <time>2020-01-26T19:10:12Z</time>
      </trkpt>
      <trkpt lat="9.9405590" lon="-83.8687860">
        <ele>2658.6</ele>
        <time>2020-01-26T19:10:13Z</time>
      </trkpt>
      <trkpt lat="9.9405010" lon="-83.8687620">
        <ele>2658.1</ele>
        <time>2020-01-26T19:10:14Z</time>
      </trkpt>
      <trkpt lat="9.9404230" lon="-83.8687160">
        <ele>2657.5</ele>
        <time>2020-01-26T19:10:16Z</time>
      </trkpt>
      <trkpt lat="9.9403540" lon="-83.8686810">
        <ele>2656.9</ele>
        <time>2020-01-26T19:10:18Z</time>
      </trkpt>
      <trkpt lat="9.9403350" lon="-83.8686660">
        <ele>2656.7</ele>
        <time>2020-01-26T19:10:19Z</time>
      </trkpt>
      <trkpt lat="9.9403130" lon="-83.8686470">
        <ele>2656.5</ele>
        <time>2020-01-26T19:10:21Z</time>
      </trkpt>
      <trkpt lat="9.9403060" lon="-83.8686410">
        <ele>2656.4</ele>
        <time>2020-01-26T19:10:23Z</time>
      </trkpt>
      <trkpt lat="9.9403040" lon="-83.8686390">
        <ele>2656.4</ele>
        <time>2020-01-26T19:10:24Z</time>
      </trkpt>
      <trkpt lat="9.9403070" lon="-83.8686400">
        <ele>2656.4</ele>
        <time>2020-01-26T19:10:25Z</time>
      </trkpt>
      <trkpt lat="9.9402880" lon="-83.8686320">
        <ele>2656.2</ele>
        <time>2020-01-26T19:10:26Z</time>
      </trkpt>
      <trkpt lat="9.9401890" lon="-83.8685710">
        <ele>2655.3</ele>
        <time>2020-01-26T19:10:28Z</time>
      </trkpt>
      <trkpt lat="9.9400770" lon="-83.8685030">
        <ele>2654.3</ele>
        <time>2020-01-26T19:10:30Z</time>
      </trkpt>
      <trkpt lat="9.9399530" lon="-83.8684290">
        <ele>2653.1</ele>
        <time>2020-01-26T19:10:32Z</time>
      </trkpt>
      <trkpt lat="9.9398190" lon="-83.8683540">
        <ele>2651.8</ele>
        <time>2020-01-26T19:10:34Z</time>
      </trkpt>
      <trkpt lat="9.9397430" lon="-83.8683090">
        <ele>2651.0</ele>
        <time>2020-01-26T19:10:35Z</time>
      </trkpt>
      <trkpt lat="9.9396690" lon="-83.8682640">
        <ele>2650.1</ele>
        <time>2020-01-26T19:10:36Z</time>
      </trkpt>
      <trkpt lat="9.9395280" lon="-83.8681930">
        <ele>2648.3</ele>
        <time>2020-01-26T19:10:38Z</time>
      </trkpt>
      <trkpt lat="9.9393880" lon="-83.8681660">
        <ele>2646.6</ele>
        <time>2020-01-26T19:10:40Z</time>
      </trkpt>
      <trkpt lat="9.9393140" lon="-83.8681760">
        <ele>2645.6</ele>
        <time>2020-01-26T19:10:41Z</time>
      </trkpt>
      <trkpt lat="9.9391890" lon="-83.8682580">
        <ele>2643.7</ele>
        <time>2020-01-26T19:10:43Z</time>
      </trkpt>
      <trkpt lat="9.9391400" lon="-83.8683240">
        <ele>2642.7</ele>
        <time>2020-01-26T19:10:44Z</time>
      </trkpt>
      <trkpt lat="9.9390680" lon="-83.8684880">
        <ele>2640.8</ele>
        <time>2020-01-26T19:10:46Z</time>
      </trkpt>
      <trkpt lat="9.9390350" lon="-83.8685730">
        <ele>2639.9</ele>
        <time>2020-01-26T19:10:47Z</time>
      </trkpt>
      <trkpt lat="9.9389550" lon="-83.8687520">
        <ele>2638.4</ele>
        <time>2020-01-26T19:10:49Z</time>
      </trkpt>
      <trkpt lat="9.9388650" lon="-83.8689410">
        <ele>2636.9</ele>
        <time>2020-01-26T19:10:51Z</time>
      </trkpt>
      <trkpt lat="9.9388030" lon="-83.8690310">
        <ele>2636.0</ele>
        <time>2020-01-26T19:10:52Z</time>
      </trkpt>
      <trkpt lat="9.9387290" lon="-83.8691170">
        <ele>2635.0</ele>
        <time>2020-01-26T19:10:53Z</time>
      </trkpt>
      <trkpt lat="9.9385590" lon="-83.8692750">
        <ele>2632.7</ele>
        <time>2020-01-26T19:10:55Z</time>
      </trkpt>
      <trkpt lat="9.9384140" lon="-83.8694100">
        <ele>2630.9</ele>
        <time>2020-01-26T19:10:57Z</time>
      </trkpt>
      <trkpt lat="9.9382930" lon="-83.8695480">
        <ele>2629.4</ele>
        <time>2020-01-26T19:10:59Z</time>
      </trkpt>
      <trkpt lat="9.9382430" lon="-83.8696240">
        <ele>2628.6</ele>
        <time>2020-01-26T19:11:00Z</time>
      </trkpt>
      <trkpt lat="9.9381880" lon="-83.8698010">
        <ele>2626.9</ele>
        <time>2020-01-26T19:11:02Z</time>
      </trkpt>
      <trkpt lat="9.9381930" lon="-83.8699750">
        <ele>2625.3</ele>
        <time>2020-01-26T19:11:04Z</time>
      </trkpt>
      <trkpt lat="9.9382390" lon="-83.8701670">
        <ele>2623.4</ele>
        <time>2020-01-26T19:11:06Z</time>
      </trkpt>
      <trkpt lat="9.9383480" lon="-83.8703430">
        <ele>2621.5</ele>
        <time>2020-01-26T19:11:08Z</time>
      </trkpt>
      <trkpt lat="9.9385120" lon="-83.8704940">
        <ele>2619.6</ele>
        <time>2020-01-26T19:11:10Z</time>
      </trkpt>
      <trkpt lat="9.9386940" lon="-83.8706400">
        <ele>2617.7</ele>
        <time>2020-01-26T19:11:12Z</time>
      </trkpt>
      <trkpt lat="9.9388770" lon="-83.8707850">
        <ele>2616.0</ele>
        <time>2020-01-26T19:11:14Z</time>
      </trkpt>
      <trkpt lat="9.9389560" lon="-83.8708490">
        <ele>2615.2</ele>
        <time>2020-01-26T19:11:15Z</time>
      </trkpt>
      <trkpt lat="9.9390800" lon="-83.8709710">
        <ele>2614.0</ele>
        <time>2020-01-26T19:11:17Z</time>
      </trkpt>
      <trkpt lat="9.9391310" lon="-83.8711290">
        <ele>2612.9</ele>
        <time>2020-01-26T19:11:19Z</time>
      </trkpt>
      <trkpt lat="9.9390950" lon="-83.8712900">
        <ele>2611.9</ele>
        <time>2020-01-26T19:11:21Z</time>
      </trkpt>
      <trkpt lat="9.9390470" lon="-83.8713570">
        <ele>2611.4</ele>
        <time>2020-01-26T19:11:22Z</time>
      </trkpt>
      <trkpt lat="9.9389820" lon="-83.8714110">
        <ele>2610.9</ele>
        <time>2020-01-26T19:11:23Z</time>
      </trkpt>
      <trkpt lat="9.9388290" lon="-83.8714590">
        <ele>2609.6</ele>
        <time>2020-01-26T19:11:25Z</time>
      </trkpt>
      <trkpt lat="9.9387450" lon="-83.8714520">
        <ele>2608.8</ele>
        <time>2020-01-26T19:11:26Z</time>
      </trkpt>
      <trkpt lat="9.9386640" lon="-83.8714250">
        <ele>2608.0</ele>
        <time>2020-01-26T19:11:27Z</time>
      </trkpt>
      <trkpt lat="9.9385040" lon="-83.8713380">
        <ele>2606.1</ele>
        <time>2020-01-26T19:11:29Z</time>
      </trkpt>
      <trkpt lat="9.9383440" lon="-83.8712330">
        <ele>2604.2</ele>
        <time>2020-01-26T19:11:31Z</time>
      </trkpt>
      <trkpt lat="9.9382560" lon="-83.8711780">
        <ele>2603.3</ele>
        <time>2020-01-26T19:11:32Z</time>
      </trkpt>
      <trkpt lat="9.9380750" lon="-83.8710580">
        <ele>2601.7</ele>
        <time>2020-01-26T19:11:34Z</time>
      </trkpt>
      <trkpt lat="9.9378880" lon="-83.8709370">
        <ele>2599.8</ele>
        <time>2020-01-26T19:11:36Z</time>
      </trkpt>
      <trkpt lat="9.9377920" lon="-83.8708730">
        <ele>2598.7</ele>
        <time>2020-01-26T19:11:37Z</time>
      </trkpt>
      <trkpt lat="9.9376970" lon="-83.8708080">
        <ele>2597.6</ele>
        <time>2020-01-26T19:11:38Z</time>
      </trkpt>
      <trkpt lat="9.9375020" lon="-83.8706770">
        <ele>2595.4</ele>
        <time>2020-01-26T19:11:40Z</time>
      </trkpt>
      <trkpt lat="9.9372970" lon="-83.8705530">
        <ele>2593.0</ele>
        <time>2020-01-26T19:11:42Z</time>
      </trkpt>
      <trkpt lat="9.9371020" lon="-83.8704290">
        <ele>2590.8</ele>
        <time>2020-01-26T19:11:44Z</time>
      </trkpt>
      <trkpt lat="9.9369170" lon="-83.8703110">
        <ele>2588.8</ele>
        <time>2020-01-26T19:11:46Z</time>
      </trkpt>
      <trkpt lat="9.9367510" lon="-83.8701940">
        <ele>2586.7</ele>
        <time>2020-01-26T19:11:48Z</time>
      </trkpt>
      <trkpt lat="9.9366760" lon="-83.8701320">
        <ele>2585.5</ele>
        <time>2020-01-26T19:11:49Z</time>
      </trkpt>
      <trkpt lat="9.9365460" lon="-83.8699780">
        <ele>2582.8</ele>
        <time>2020-01-26T19:11:51Z</time>
      </trkpt>
      <trkpt lat="9.9364610" lon="-83.8697850">
        <ele>2580.1</ele>
        <time>2020-01-26T19:11:53Z</time>
      </trkpt>
      <trkpt lat="9.9364290" lon="-83.8696770">
        <ele>2578.8</ele>
        <time>2020-01-26T19:11:54Z</time>
      </trkpt>
      <trkpt lat="9.9364050" lon="-83.8695650">
        <ele>2577.6</ele>
        <time>2020-01-26T19:11:55Z</time>
      </trkpt>
      <trkpt lat="9.9363750" lon="-83.8693300">
        <ele>2575.6</ele>
        <time>2020-01-26T19:11:57Z</time>
      </trkpt>
      <trkpt lat="9.9363410" lon="-83.8690870">
        <ele>2573.5</ele>
        <time>2020-01-26T19:11:59Z</time>
      </trkpt>
      <trkpt lat="9.9363200" lon="-83.8689620">
        <ele>2572.4</ele>
        <time>2020-01-26T19:12:00Z</time>
      </trkpt>
      <trkpt lat="9.9363010" lon="-83.8688380">
        <ele>2571.3</ele>
        <time>2020-01-26T19:12:01Z</time>
      </trkpt>
      <trkpt lat="9.9362860" lon="-83.8687110">
        <ele>2570.1</ele>
        <time>2020-01-26T19:12:02Z</time>
      </trkpt>
      <trkpt lat="9.9362530" lon="-83.8684520">
        <ele>2567.8</ele>
        <time>2020-01-26T19:12:04Z</time>
      </trkpt>
      <trkpt lat="9.9362200" lon="-83.8682180">
        <ele>2565.6</ele>
        <time>2020-01-26T19:12:06Z</time>
      </trkpt>
      <trkpt lat="9.9362040" lon="-83.8681090">
        <ele>2564.4</ele>
        <time>2020-01-26T19:12:07Z</time>
      </trkpt>
      <trkpt lat="9.9361870" lon="-83.8680020">
        <ele>2563.3</ele>
        <time>2020-01-26T19:12:08Z</time>
      </trkpt>
      <trkpt lat="9.9361540" lon="-83.8677990">
        <ele>2561.0</ele>
        <time>2020-01-26T19:12:10Z</time>
      </trkpt>
      <trkpt lat="9.9361360" lon="-83.8677040">
        <ele>2559.9</ele>
        <time>2020-01-26T19:12:11Z</time>
      </trkpt>
      <trkpt lat="9.9361150" lon="-83.8676140">
        <ele>2558.9</ele>
        <time>2020-01-26T19:12:12Z</time>
      </trkpt>
      <trkpt lat="9.9360300" lon="-83.8674640">
        <ele>2557.1</ele>
        <time>2020-01-26T19:12:14Z</time>
      </trkpt>
      <trkpt lat="9.9359660" lon="-83.8674020">
        <ele>2556.1</ele>
        <time>2020-01-26T19:12:15Z</time>
      </trkpt>
      <trkpt lat="9.9358040" lon="-83.8673330">
        <ele>2554.1</ele>
        <time>2020-01-26T19:12:17Z</time>
      </trkpt>
      <trkpt lat="9.9357140" lon="-83.8673270">
        <ele>2552.9</ele>
        <time>2020-01-26T19:12:18Z</time>
      </trkpt>
      <trkpt lat="9.9355340" lon="-83.8673680">
        <ele>2550.3</ele>
        <time>2020-01-26T19:12:20Z</time>
      </trkpt>
      <trkpt lat="9.9353700" lon="-83.8674770">
        <ele>2547.4</ele>
        <time>2020-01-26T19:12:22Z</time>
      </trkpt>
      <trkpt lat="9.9351960" lon="-83.8676330">
        <ele>2544.4</ele>
        <time>2020-01-26T19:12:24Z</time>
      </trkpt>
      <trkpt lat="9.9351040" lon="-83.8677220">
        <ele>2543.0</ele>
        <time>2020-01-26T19:12:25Z</time>
      </trkpt>
      <trkpt lat="9.9349030" lon="-83.8679000">
        <ele>2540.0</ele>
        <time>2020-01-26T19:12:27Z</time>
      </trkpt>
      <trkpt lat="9.9348040" lon="-83.8679910">
        <ele>2538.5</ele>
        <time>2020-01-26T19:12:28Z</time>
      </trkpt>
      <trkpt lat="9.9346200" lon="-83.8681570">
        <ele>2535.8</ele>
        <time>2020-01-26T19:12:30Z</time>
      </trkpt>
      <trkpt lat="9.9345250" lon="-83.8682420">
        <ele>2534.5</ele>
        <time>2020-01-26T19:12:31Z</time>
      </trkpt>
      <trkpt lat="9.9344340" lon="-83.8683240">
        <ele>2533.2</ele>
        <time>2020-01-26T19:12:32Z</time>
      </trkpt>
      <trkpt lat="9.9342720" lon="-83.8684730">
        <ele>2530.9</ele>
        <time>2020-01-26T19:12:34Z</time>
      </trkpt>
      <trkpt lat="9.9341950" lon="-83.8685430">
        <ele>2529.9</ele>
        <time>2020-01-26T19:12:35Z</time>
      </trkpt>
      <trkpt lat="9.9341190" lon="-83.8686140">
        <ele>2528.8</ele>
        <time>2020-01-26T19:12:36Z</time>
      </trkpt>
      <trkpt lat="9.9339700" lon="-83.8687690">
        <ele>2526.3</ele>
        <time>2020-01-26T19:12:38Z</time>
      </trkpt>
      <trkpt lat="9.9338210" lon="-83.8689500">
        <ele>2523.4</ele>
        <time>2020-01-26T19:12:40Z</time>
      </trkpt>
      <trkpt lat="9.9336730" lon="-83.8691430">
        <ele>2520.5</ele>
        <time>2020-01-26T19:12:42Z</time>
      </trkpt>
      <trkpt lat="9.9335240" lon="-83.8693400">
        <ele>2517.6</ele>
        <time>2020-01-26T19:12:44Z</time>
      </trkpt>
      <trkpt lat="9.9333730" lon="-83.8695370">
        <ele>2514.7</ele>
        <time>2020-01-26T19:12:46Z</time>
      </trkpt>
      <trkpt lat="9.9332280" lon="-83.8697220">
        <ele>2512.1</ele>
        <time>2020-01-26T19:12:48Z</time>
      </trkpt>
      <trkpt lat="9.9331620" lon="-83.8698120">
        <ele>2511.0</ele>
        <time>2020-01-26T19:12:49Z</time>
      </trkpt>
      <trkpt lat="9.9330270" lon="-83.8699910">
        <ele>2509.0</ele>
        <time>2020-01-26T19:12:51Z</time>
      </trkpt>
      <trkpt lat="9.9328970" lon="-83.8701590">
        <ele>2507.2</ele>
        <time>2020-01-26T19:12:53Z</time>
      </trkpt>
      <trkpt lat="9.9328410" lon="-83.8702430">
        <ele>2506.4</ele>
        <time>2020-01-26T19:12:54Z</time>
      </trkpt>
      <trkpt lat="9.9327480" lon="-83.8704290">
        <ele>2504.6</ele>
        <time>2020-01-26T19:12:56Z</time>
      </trkpt>
      <trkpt lat="9.9327050" lon="-83.8705270">
        <ele>2503.7</ele>
        <time>2020-01-26T19:12:57Z</time>
      </trkpt>
      <trkpt lat="9.9326590" lon="-83.8706270">
        <ele>2502.7</ele>
        <time>2020-01-26T19:12:58Z</time>
      </trkpt>
      <trkpt lat="9.9325630" lon="-83.8708340">
        <ele>2501.0</ele>
        <time>2020-01-26T19:13:00Z</time>
      </trkpt>
      <trkpt lat="9.9324640" lon="-83.8710470">
        <ele>2499.3</ele>
        <time>2020-01-26T19:13:02Z</time>
      </trkpt>
      <trkpt lat="9.9323760" lon="-83.8712560">
        <ele>2497.9</ele>
        <time>2020-01-26T19:13:04Z</time>
      </trkpt>
      <trkpt lat="9.9322900" lon="-83.8714490">
        <ele>2496.5</ele>
        <time>2020-01-26T19:13:06Z</time>
      </trkpt>
      <trkpt lat="9.9322170" lon="-83.8716250">
        <ele>2495.4</ele>
        <time>2020-01-26T19:13:08Z</time>
      </trkpt>
      <trkpt lat="9.9321900" lon="-83.8717100">
        <ele>2494.8</ele>
        <time>2020-01-26T19:13:09Z</time>
      </trkpt>
      <trkpt lat="9.9321550" lon="-83.8718810">
        <ele>2493.7</ele>
        <time>2020-01-26T19:13:11Z</time>
      </trkpt>
      <trkpt lat="9.9321580" lon="-83.8720550">
        <ele>2492.3</ele>
        <time>2020-01-26T19:13:13Z</time>
      </trkpt>
      <trkpt lat="9.9321920" lon="-83.8722330">
        <ele>2490.9</ele>
        <time>2020-01-26T19:13:15Z</time>
      </trkpt>
      <trkpt lat="9.9322420" lon="-83.8724030">
        <ele>2489.4</ele>
        <time>2020-01-26T19:13:17Z</time>
      </trkpt>
      <trkpt lat="9.9323190" lon="-83.8725460">
        <ele>2488.0</ele>
        <time>2020-01-26T19:13:19Z</time>
      </trkpt>
      <trkpt lat="9.9323940" lon="-83.8726560">
        <ele>2486.7</ele>
        <time>2020-01-26T19:13:21Z</time>
      </trkpt>
      <trkpt lat="9.9324230" lon="-83.8726990">
        <ele>2486.2</ele>
        <time>2020-01-26T19:13:22Z</time>
      </trkpt>
      <trkpt lat="9.9324710" lon="-83.8727630">
        <ele>2485.4</ele>
        <time>2020-01-26T19:13:24Z</time>
      </trkpt>
      <trkpt lat="9.9325000" lon="-83.8728020">
        <ele>2484.9</ele>
        <time>2020-01-26T19:13:25Z</time>
      </trkpt>
      <trkpt lat="9.9325470" lon="-83.8728730">
        <ele>2484.2</ele>
        <time>2020-01-26T19:13:27Z</time>
      </trkpt>
      <trkpt lat="9.9325970" lon="-83.8729490">
        <ele>2483.4</ele>
        <time>2020-01-26T19:13:29Z</time>
      </trkpt>
      <trkpt lat="9.9326240" lon="-83.8729910">
        <ele>2483.0</ele>
        <time>2020-01-26T19:13:30Z</time>
      </trkpt>
      <trkpt lat="9.9326820" lon="-83.8730860">
        <ele>2481.7</ele>
        <time>2020-01-26T19:13:32Z</time>
      </trkpt>
      <trkpt lat="9.9327150" lon="-83.8731400">
        <ele>2481.0</ele>
        <time>2020-01-26T19:13:33Z</time>
      </trkpt>
      <trkpt lat="9.9327740" lon="-83.8732580">
        <ele>2480.0</ele>
        <time>2020-01-26T19:13:35Z</time>
      </trkpt>
      <trkpt lat="9.9328160" lon="-83.8733860">
        <ele>2479.0</ele>
        <time>2020-01-26T19:13:37Z</time>
      </trkpt>
      <trkpt lat="9.9328190" lon="-83.8735310">
        <ele>2477.6</ele>
        <time>2020-01-26T19:13:39Z</time>
      </trkpt>
      <trkpt lat="9.9327920" lon="-83.8736740">
        <ele>2476.4</ele>
        <time>2020-01-26T19:13:41Z</time>
      </trkpt>
      <trkpt lat="9.9327720" lon="-83.8737400">
        <ele>2476.0</ele>
        <time>2020-01-26T19:13:42Z</time>
      </trkpt>
      <trkpt lat="9.9327170" lon="-83.8738850">
        <ele>2475.0</ele>
        <time>2020-01-26T19:13:44Z</time>
      </trkpt>
      <trkpt lat="9.9326910" lon="-83.8739620">
        <ele>2474.5</ele>
        <time>2020-01-26T19:13:45Z</time>
      </trkpt>
      <trkpt lat="9.9326350" lon="-83.8741250">
        <ele>2473.1</ele>
        <time>2020-01-26T19:13:47Z</time>
      </trkpt>
      <trkpt lat="9.9325650" lon="-83.8742980">
        <ele>2471.6</ele>
        <time>2020-01-26T19:13:49Z</time>
      </trkpt>
      <trkpt lat="9.9325280" lon="-83.8743910">
        <ele>2470.7</ele>
        <time>2020-01-26T19:13:50Z</time>
      </trkpt>
      <trkpt lat="9.9324550" lon="-83.8745810">
        <ele>2469.0</ele>
        <time>2020-01-26T19:13:52Z</time>
      </trkpt>
      <trkpt lat="9.9323810" lon="-83.8747770">
        <ele>2467.2</ele>
        <time>2020-01-26T19:13:54Z</time>
      </trkpt>
      <trkpt lat="9.9323510" lon="-83.8748730">
        <ele>2466.4</ele>
        <time>2020-01-26T19:13:55Z</time>
      </trkpt>
      <trkpt lat="9.9323250" lon="-83.8749620">
        <ele>2465.6</ele>
        <time>2020-01-26T19:13:56Z</time>
      </trkpt>
      <trkpt lat="9.9322930" lon="-83.8751290">
        <ele>2464.3</ele>
        <time>2020-01-26T19:13:58Z</time>
      </trkpt>
      <trkpt lat="9.9322990" lon="-83.8753170">
        <ele>2462.9</ele>
        <time>2020-01-26T19:14:00Z</time>
      </trkpt>
      <trkpt lat="9.9323410" lon="-83.8755090">
        <ele>2461.5</ele>
        <time>2020-01-26T19:14:02Z</time>
      </trkpt>
      <trkpt lat="9.9323740" lon="-83.8756030">
        <ele>2460.8</ele>
        <time>2020-01-26T19:14:03Z</time>
      </trkpt>
      <trkpt lat="9.9324340" lon="-83.8757890">
        <ele>2459.3</ele>
        <time>2020-01-26T19:14:05Z</time>
      </trkpt>
      <trkpt lat="9.9325240" lon="-83.8760270">
        <ele>2457.7</ele>
        <time>2020-01-26T19:14:08Z</time>
      </trkpt>
      <trkpt lat="9.9325470" lon="-83.8760720">
        <ele>2457.4</ele>
        <time>2020-01-26T19:14:09Z</time>
      </trkpt>
      <trkpt lat="9.9326120" lon="-83.8762030">
        <ele>2456.3</ele>
        <time>2020-01-26T19:14:11Z</time>
      </trkpt>
      <trkpt lat="9.9326970" lon="-83.8763330">
        <ele>2455.2</ele>
        <time>2020-01-26T19:14:13Z</time>
      </trkpt>
      <trkpt lat="9.9327460" lon="-83.8763970">
        <ele>2454.5</ele>
        <time>2020-01-26T19:14:14Z</time>
      </trkpt>
      <trkpt lat="9.9327990" lon="-83.8764610">
        <ele>2453.8</ele>
        <time>2020-01-26T19:14:15Z</time>
      </trkpt>
      <trkpt lat="9.9328600" lon="-83.8765260">
        <ele>2453.0</ele>
        <time>2020-01-26T19:14:16Z</time>
      </trkpt>
      <trkpt lat="9.9329250" lon="-83.8765910">
        <ele>2452.1</ele>
        <time>2020-01-26T19:14:17Z</time>
      </trkpt>
      <trkpt lat="9.9330760" lon="-83.8767120">
        <ele>2450.2</ele>
        <time>2020-01-26T19:14:19Z</time>
      </trkpt>
      <trkpt lat="9.9331630" lon="-83.8767680">
        <ele>2449.2</ele>
        <time>2020-01-26T19:14:20Z</time>
      </trkpt>
      <trkpt lat="9.9333480" lon="-83.8768670">
        <ele>2447.0</ele>
        <time>2020-01-26T19:14:22Z</time>
      </trkpt>
      <trkpt lat="9.9335570" lon="-83.8769440">
        <ele>2444.6</ele>
        <time>2020-01-26T19:14:24Z</time>
      </trkpt>
      <trkpt lat="9.9336670" lon="-83.8769780">
        <ele>2443.5</ele>
        <time>2020-01-26T19:14:25Z</time>
      </trkpt>
      <trkpt lat="9.9337710" lon="-83.8770130">
        <ele>2442.5</ele>
        <time>2020-01-26T19:14:26Z</time>
      </trkpt>
      <trkpt lat="9.9339530" lon="-83.8770740">
        <ele>2441.2</ele>
        <time>2020-01-26T19:14:28Z</time>
      </trkpt>
      <trkpt lat="9.9340970" lon="-83.8771670">
        <ele>2440.2</ele>
        <time>2020-01-26T19:14:30Z</time>
      </trkpt>
      <trkpt lat="9.9341620" lon="-83.8773090">
        <ele>2439.3</ele>
        <time>2020-01-26T19:14:32Z</time>
      </trkpt>
      <trkpt lat="9.9341670" lon="-83.8773910">
        <ele>2438.9</ele>
        <time>2020-01-26T19:14:33Z</time>
      </trkpt>
      <trkpt lat="9.9341660" lon="-83.8775450">
        <ele>2438.3</ele>
        <time>2020-01-26T19:14:35Z</time>
      </trkpt>
      <trkpt lat="9.9341700" lon="-83.8776240">
        <ele>2438.2</ele>
        <time>2020-01-26T19:14:36Z</time>
      </trkpt>
      <trkpt lat="9.9341690" lon="-83.8777810">
        <ele>2437.8</ele>
        <time>2020-01-26T19:14:38Z</time>
      </trkpt>
      <trkpt lat="9.9341690" lon="-83.8778580">
        <ele>2437.7</ele>
        <time>2020-01-26T19:14:39Z</time>
      </trkpt>
      <trkpt lat="9.9341680" lon="-83.8779370">
        <ele>2437.5</ele>
        <time>2020-01-26T19:14:40Z</time>
      </trkpt>
      <trkpt lat="9.9341680" lon="-83.8780920">
        <ele>2437.1</ele>
        <time>2020-01-26T19:14:42Z</time>
      </trkpt>
      <trkpt lat="9.9341610" lon="-83.8781670">
        <ele>2436.9</ele>
        <time>2020-01-26T19:14:43Z</time>
      </trkpt>
      <trkpt lat="9.9341420" lon="-83.8782420">
        <ele>2436.6</ele>
        <time>2020-01-26T19:14:44Z</time>
      </trkpt>
      <trkpt lat="9.9340570" lon="-83.8783630">
        <ele>2435.7</ele>
        <time>2020-01-26T19:14:46Z</time>
      </trkpt>
      <trkpt lat="9.9339310" lon="-83.8784540">
        <ele>2434.7</ele>
        <time>2020-01-26T19:14:48Z</time>
      </trkpt>
      <trkpt lat="9.9338550" lon="-83.8784880">
        <ele>2434.0</ele>
        <time>2020-01-26T19:14:49Z</time>
      </trkpt>
      <trkpt lat="9.9336940" lon="-83.8785490">
        <ele>2432.5</ele>
        <time>2020-01-26T19:14:51Z</time>
      </trkpt>
      <trkpt lat="9.9336020" lon="-83.8785800">
        <ele>2431.6</ele>
        <time>2020-01-26T19:14:52Z</time>
      </trkpt>
      <trkpt lat="9.9334040" lon="-83.8786430">
        <ele>2429.5</ele>
        <time>2020-01-26T19:14:54Z</time>
      </trkpt>
      <trkpt lat="9.9332970" lon="-83.8786790">
        <ele>2428.5</ele>
        <time>2020-01-26T19:14:55Z</time>
      </trkpt>
      <trkpt lat="9.9330990" lon="-83.8787460">
        <ele>2426.5</ele>
        <time>2020-01-26T19:14:57Z</time>
      </trkpt>
      <trkpt lat="9.9329100" lon="-83.8788100">
        <ele>2424.4</ele>
        <time>2020-01-26T19:14:59Z</time>
      </trkpt>
      <trkpt lat="9.9327350" lon="-83.8788690">
        <ele>2422.1</ele>
        <time>2020-01-26T19:15:01Z</time>
      </trkpt>
      <trkpt lat="9.9325610" lon="-83.8789220">
        <ele>2419.9</ele>
        <time>2020-01-26T19:15:03Z</time>
      </trkpt>
      <trkpt lat="9.9324700" lon="-83.8789470">
        <ele>2418.9</ele>
        <time>2020-01-26T19:15:04Z</time>
      </trkpt>
      <trkpt lat="9.9322910" lon="-83.8789900">
        <ele>2417.0</ele>
        <time>2020-01-26T19:15:06Z</time>
      </trkpt>
      <trkpt lat="9.9321970" lon="-83.8790090">
        <ele>2416.0</ele>
        <time>2020-01-26T19:15:07Z</time>
      </trkpt>
      <trkpt lat="9.9320320" lon="-83.8790400">
        <ele>2414.2</ele>
        <time>2020-01-26T19:15:09Z</time>
      </trkpt>
      <trkpt lat="9.9319470" lon="-83.8790600">
        <ele>2413.4</ele>
        <time>2020-01-26T19:15:10Z</time>
      </trkpt>
      <trkpt lat="9.9317590" lon="-83.8790890">
        <ele>2411.2</ele>
        <time>2020-01-26T19:15:12Z</time>
      </trkpt>
      <trkpt lat="9.9316630" lon="-83.8790950">
        <ele>2410.0</ele>
        <time>2020-01-26T19:15:13Z</time>
      </trkpt>
      <trkpt lat="9.9314680" lon="-83.8791060">
        <ele>2407.6</ele>
        <time>2020-01-26T19:15:15Z</time>
      </trkpt>
      <trkpt lat="9.9313650" lon="-83.8791120">
        <ele>2406.5</ele>
        <time>2020-01-26T19:15:16Z</time>
      </trkpt>
      <trkpt lat="9.9311450" lon="-83.8791260">
        <ele>2404.1</ele>
        <time>2020-01-26T19:15:18Z</time>
      </trkpt>
      <trkpt lat="9.9310260" lon="-83.8791310">
        <ele>2402.8</ele>
        <time>2020-01-26T19:15:19Z</time>
      </trkpt>
      <trkpt lat="9.9308150" lon="-83.8791410">
        <ele>2400.5</ele>
        <time>2020-01-26T19:15:21Z</time>
      </trkpt>
      <trkpt lat="9.9306380" lon="-83.8791550">
        <ele>2398.5</ele>
        <time>2020-01-26T19:15:23Z</time>
      </trkpt>
      <trkpt lat="9.9305460" lon="-83.8791550">
        <ele>2397.5</ele>
        <time>2020-01-26T19:15:24Z</time>
      </trkpt>
      <trkpt lat="9.9303510" lon="-83.8791610">
        <ele>2395.4</ele>
        <time>2020-01-26T19:15:26Z</time>
      </trkpt>
      <trkpt lat="9.9302570" lon="-83.8791650">
        <ele>2394.1</ele>
        <time>2020-01-26T19:15:27Z</time>
      </trkpt>
      <trkpt lat="9.9300690" lon="-83.8791730">
        <ele>2392.5</ele>
        <time>2020-01-26T19:15:29Z</time>
      </trkpt>
      <trkpt lat="9.9299740" lon="-83.8791760">
        <ele>2391.6</ele>
        <time>2020-01-26T19:15:30Z</time>
      </trkpt>
      <trkpt lat="9.9298080" lon="-83.8791820">
        <ele>2390.2</ele>
        <time>2020-01-26T19:15:32Z</time>
      </trkpt>
      <trkpt lat="9.9296560" lon="-83.8791910">
        <ele>2388.9</ele>
        <time>2020-01-26T19:15:34Z</time>
      </trkpt>
      <trkpt lat="9.9295800" lon="-83.8792030">
        <ele>2388.1</ele>
        <time>2020-01-26T19:15:35Z</time>
      </trkpt>
      <trkpt lat="9.9294380" lon="-83.8792460">
        <ele>2387.1</ele>
        <time>2020-01-26T19:15:37Z</time>
      </trkpt>
      <trkpt lat="9.9293770" lon="-83.8792860">
        <ele>2386.7</ele>
        <time>2020-01-26T19:15:38Z</time>
      </trkpt>
      <trkpt lat="9.9292940" lon="-83.8794160">
        <ele>2386.0</ele>
        <time>2020-01-26T19:15:40Z</time>
      </trkpt>
      <trkpt lat="9.9292940" lon="-83.8795780">
        <ele>2385.4</ele>
        <time>2020-01-26T19:15:42Z</time>
      </trkpt>
      <trkpt lat="9.9293810" lon="-83.8797090">
        <ele>2385.1</ele>
        <time>2020-01-26T19:15:44Z</time>
      </trkpt>
      <trkpt lat="9.9294510" lon="-83.8797540">
        <ele>2385.1</ele>
        <time>2020-01-26T19:15:45Z</time>
      </trkpt>
      <trkpt lat="9.9296050" lon="-83.8797870">
        <ele>2385.4</ele>
        <time>2020-01-26T19:15:47Z</time>
      </trkpt>
      <trkpt lat="9.9297570" lon="-83.8797290">
        <ele>2385.6</ele>
        <time>2020-01-26T19:15:49Z</time>
      </trkpt>
      <trkpt lat="9.9298910" lon="-83.8796430">
        <ele>2385.4</ele>
        <time>2020-01-26T19:15:51Z</time>
      </trkpt>
      <trkpt lat="9.9300220" lon="-83.8795700">
        <ele>2385.1</ele>
        <time>2020-01-26T19:15:53Z</time>
      </trkpt>
      <trkpt lat="9.9301570" lon="-83.8795070">
        <ele>2384.8</ele>
        <time>2020-01-26T19:15:55Z</time>
      </trkpt>
      <trkpt lat="9.9302990" lon="-83.8794700">
        <ele>2384.5</ele>
        <time>2020-01-26T19:15:57Z</time>
      </trkpt>
      <trkpt lat="9.9303750" lon="-83.8794710">
        <ele>2384.4</ele>
        <time>2020-01-26T19:15:58Z</time>
      </trkpt>
      <trkpt lat="9.9304480" lon="-83.8794810">
        <ele>2383.9</ele>
        <time>2020-01-26T19:15:59Z</time>
      </trkpt>
      <trkpt lat="9.9305870" lon="-83.8795320">
        <ele>2383.2</ele>
        <time>2020-01-26T19:16:01Z</time>
      </trkpt>
      <trkpt lat="9.9306500" lon="-83.8795690">
        <ele>2382.9</ele>
        <time>2020-01-26T19:16:02Z</time>
      </trkpt>
      <trkpt lat="9.9307650" lon="-83.8796590">
        <ele>2382.4</ele>
        <time>2020-01-26T19:16:04Z</time>
      </trkpt>
      <trkpt lat="9.9308820" lon="-83.8797650">
        <ele>2381.3</ele>
        <time>2020-01-26T19:16:06Z</time>
      </trkpt>
      <trkpt lat="9.9309790" lon="-83.8798830">
        <ele>2380.2</ele>
        <time>2020-01-26T19:16:08Z</time>
      </trkpt>
      <trkpt lat="9.9310250" lon="-83.8799450">
        <ele>2379.7</ele>
        <time>2020-01-26T19:16:09Z</time>
      </trkpt>
      <trkpt lat="9.9311010" lon="-83.8800800">
        <ele>2378.2</ele>
        <time>2020-01-26T19:16:11Z</time>
      </trkpt>
      <trkpt lat="9.9311230" lon="-83.8801590">
        <ele>2377.4</ele>
        <time>2020-01-26T19:16:12Z</time>
      </trkpt>
      <trkpt lat="9.9311210" lon="-83.8803320">
        <ele>2375.4</ele>
        <time>2020-01-26T19:16:14Z</time>
      </trkpt>
      <trkpt lat="9.9310590" lon="-83.8804840">
        <ele>2373.5</ele>
        <time>2020-01-26T19:16:16Z</time>
      </trkpt>
      <trkpt lat="9.9309550" lon="-83.8806480">
        <ele>2371.6</ele>
        <time>2020-01-26T19:16:18Z</time>
      </trkpt>
      <trkpt lat="9.9308910" lon="-83.8807340">
        <ele>2370.5</ele>
        <time>2020-01-26T19:16:19Z</time>
      </trkpt>
      <trkpt lat="9.9307600" lon="-83.8809230">
        <ele>2368.1</ele>
        <time>2020-01-26T19:16:21Z</time>
      </trkpt>
      <trkpt lat="9.9306940" lon="-83.8810210">
        <ele>2366.7</ele>
        <time>2020-01-26T19:16:22Z</time>
      </trkpt>
      <trkpt lat="9.9306310" lon="-83.8811160">
        <ele>2365.5</ele>
        <time>2020-01-26T19:16:23Z</time>
      </trkpt>
      <trkpt lat="9.9305180" lon="-83.8812930">
        <ele>2363.3</ele>
        <time>2020-01-26T19:16:25Z</time>
      </trkpt>
      <trkpt lat="9.9304600" lon="-83.8813810">
        <ele>2362.0</ele>
        <time>2020-01-26T19:16:26Z</time>
      </trkpt>
      <trkpt lat="9.9303470" lon="-83.8815450">
        <ele>2359.7</ele>
        <time>2020-01-26T19:16:28Z</time>
      </trkpt>
      <trkpt lat="9.9302050" lon="-83.8816840">
        <ele>2357.6</ele>
        <time>2020-01-26T19:16:30Z</time>
      </trkpt>
      <trkpt lat="9.9300270" lon="-83.8818060">
        <ele>2355.5</ele>
        <time>2020-01-26T19:16:32Z</time>
      </trkpt>
      <trkpt lat="9.9298460" lon="-83.8819250">
        <ele>2353.7</ele>
        <time>2020-01-26T19:16:34Z</time>
      </trkpt>
      <trkpt lat="9.9297500" lon="-83.8819840">
        <ele>2352.4</ele>
        <time>2020-01-26T19:16:35Z</time>
      </trkpt>
      <trkpt lat="9.9295620" lon="-83.8821050">
        <ele>2350.5</ele>
        <time>2020-01-26T19:16:37Z</time>
      </trkpt>
      <trkpt lat="9.9294720" lon="-83.8821650">
        <ele>2349.8</ele>
        <time>2020-01-26T19:16:38Z</time>
      </trkpt>
      <trkpt lat="9.9293850" lon="-83.8822270">
        <ele>2349.2</ele>
        <time>2020-01-26T19:16:39Z</time>
      </trkpt>
      <trkpt lat="9.9292330" lon="-83.8823520">
        <ele>2347.6</ele>
        <time>2020-01-26T19:16:41Z</time>
      </trkpt>
      <trkpt lat="9.9290980" lon="-83.8824840">
        <ele>2346.0</ele>
        <time>2020-01-26T19:16:43Z</time>
      </trkpt>
      <trkpt lat="9.9290390" lon="-83.8825510">
        <ele>2344.9</ele>
        <time>2020-01-26T19:16:44Z</time>
      </trkpt>
      <trkpt lat="9.9289260" lon="-83.8826780">
        <ele>2343.2</ele>
        <time>2020-01-26T19:16:46Z</time>
      </trkpt>
      <trkpt lat="9.9288710" lon="-83.8827410">
        <ele>2342.4</ele>
        <time>2020-01-26T19:16:47Z</time>
      </trkpt>
      <trkpt lat="9.9287560" lon="-83.8828680">
        <ele>2340.8</ele>
        <time>2020-01-26T19:16:49Z</time>
      </trkpt>
      <trkpt lat="9.9286980" lon="-83.8829350">
        <ele>2339.9</ele>
        <time>2020-01-26T19:16:50Z</time>
      </trkpt>
      <trkpt lat="9.9285860" lon="-83.8830620">
        <ele>2338.4</ele>
        <time>2020-01-26T19:16:52Z</time>
      </trkpt>
      <trkpt lat="9.9284860" lon="-83.8831750">
        <ele>2336.9</ele>
        <time>2020-01-26T19:16:54Z</time>
      </trkpt>
      <trkpt lat="9.9283940" lon="-83.8832820">
        <ele>2335.4</ele>
        <time>2020-01-26T19:16:56Z</time>
      </trkpt>
      <trkpt lat="9.9283500" lon="-83.8833320">
        <ele>2334.8</ele>
        <time>2020-01-26T19:16:57Z</time>
      </trkpt>
      <trkpt lat="9.9282580" lon="-83.8834350">
        <ele>2333.4</ele>
        <time>2020-01-26T19:16:59Z</time>
      </trkpt>
      <trkpt lat="9.9281980" lon="-83.8834820">
        <ele>2332.5</ele>
        <time>2020-01-26T19:17:00Z</time>
      </trkpt>
      <trkpt lat="9.9280490" lon="-83.8835720">
        <ele>2330.6</ele>
        <time>2020-01-26T19:17:02Z</time>
      </trkpt>
      <trkpt lat="9.9278590" lon="-83.8836220">
        <ele>2328.0</ele>
        <time>2020-01-26T19:17:04Z</time>
      </trkpt>
      <trkpt lat="9.9277580" lon="-83.8836200">
        <ele>2326.7</ele>
        <time>2020-01-26T19:17:05Z</time>
      </trkpt>
      <trkpt lat="9.9275590" lon="-83.8835590">
        <ele>2323.9</ele>
        <time>2020-01-26T19:17:07Z</time>
      </trkpt>
      <trkpt lat="9.9273650" lon="-83.8834660">
        <ele>2321.2</ele>
        <time>2020-01-26T19:17:09Z</time>
      </trkpt>
      <trkpt lat="9.9272630" lon="-83.8834170">
        <ele>2319.9</ele>
        <time>2020-01-26T19:17:10Z</time>
      </trkpt>
      <trkpt lat="9.9271560" lon="-83.8833720">
        <ele>2318.6</ele>
        <time>2020-01-26T19:17:11Z</time>
      </trkpt>
      <trkpt lat="9.9269390" lon="-83.8833140">
        <ele>2316.2</ele>
        <time>2020-01-26T19:17:13Z</time>
      </trkpt>
      <trkpt lat="9.9267240" lon="-83.8832960">
        <ele>2313.9</ele>
        <time>2020-01-26T19:17:15Z</time>
      </trkpt>
      <trkpt lat="9.9265020" lon="-83.8832980">
        <ele>2311.7</ele>
        <time>2020-01-26T19:17:17Z</time>
      </trkpt>
      <trkpt lat="9.9262860" lon="-83.8832960">
        <ele>2309.5</ele>
        <time>2020-01-26T19:17:19Z</time>
      </trkpt>
      <trkpt lat="9.9261780" lon="-83.8832940">
        <ele>2308.4</ele>
        <time>2020-01-26T19:17:20Z</time>
      </trkpt>
      <trkpt lat="9.9259870" lon="-83.8832770">
        <ele>2306.4</ele>
        <time>2020-01-26T19:17:22Z</time>
      </trkpt>
      <trkpt lat="9.9258160" lon="-83.8831900">
        <ele>2304.3</ele>
        <time>2020-01-26T19:17:24Z</time>
      </trkpt>
      <trkpt lat="9.9257400" lon="-83.8831250">
        <ele>2303.3</ele>
        <time>2020-01-26T19:17:25Z</time>
      </trkpt>
      <trkpt lat="9.9256640" lon="-83.8830510">
        <ele>2302.5</ele>
        <time>2020-01-26T19:17:26Z</time>
      </trkpt>
      <trkpt lat="9.9255850" lon="-83.8829740">
        <ele>2301.8</ele>
        <time>2020-01-26T19:17:27Z</time>
      </trkpt>
      <trkpt lat="9.9254300" lon="-83.8828180">
        <ele>2299.8</ele>
        <time>2020-01-26T19:17:29Z</time>
      </trkpt>
      <trkpt lat="9.9252750" lon="-83.8826670">
        <ele>2298.0</ele>
        <time>2020-01-26T19:17:31Z</time>
      </trkpt>
      <trkpt lat="9.9251220" lon="-83.8825200">
        <ele>2296.1</ele>
        <time>2020-01-26T19:17:33Z</time>
      </trkpt>
      <trkpt lat="9.9249740" lon="-83.8823810">
        <ele>2294.2</ele>
        <time>2020-01-26T19:17:35Z</time>
      </trkpt>
      <trkpt lat="9.9249030" lon="-83.8823170">
        <ele>2293.4</ele>
        <time>2020-01-26T19:17:36Z</time>
      </trkpt>
      <trkpt lat="9.9247550" lon="-83.8822100">
        <ele>2291.6</ele>
        <time>2020-01-26T19:17:38Z</time>
      </trkpt>
      <trkpt lat="9.9245760" lon="-83.8821130">
        <ele>2289.5</ele>
        <time>2020-01-26T19:19:31Z</time>
      </trkpt>
      <trkpt lat="9.9245360" lon="-83.8820970">
        <ele>2289.1</ele>
        <time>2020-01-26T19:19:32Z</time>
      </trkpt>
      <trkpt lat="9.9243580" lon="-83.8820310">
        <ele>2287.0</ele>
        <time>2020-01-26T19:19:34Z</time>
      </trkpt>
      <trkpt lat="9.9242670" lon="-83.8819990">
        <ele>2286.0</ele>
        <time>2020-01-26T19:19:35Z</time>
      </trkpt>
      <trkpt lat="9.9240820" lon="-83.8819320">
        <ele>2283.8</ele>
        <time>2020-01-26T19:19:37Z</time>
      </trkpt>
      <trkpt lat="9.9239940" lon="-83.8819020">
        <ele>2282.7</ele>
        <time>2020-01-26T19:19:38Z</time>
      </trkpt>
      <trkpt lat="9.9238190" lon="-83.8818290">
        <ele>2280.6</ele>
        <time>2020-01-26T19:19:40Z</time>
      </trkpt>
      <trkpt lat="9.9236430" lon="-83.8817620">
        <ele>2278.5</ele>
        <time>2020-01-26T19:19:42Z</time>
      </trkpt>
      <trkpt lat="9.9235590" lon="-83.8817300">
        <ele>2277.3</ele>
        <time>2020-01-26T19:19:43Z</time>
      </trkpt>
      <trkpt lat="9.9234190" lon="-83.8816410">
        <ele>2275.5</ele>
        <time>2020-01-26T19:19:45Z</time>
      </trkpt>
      <trkpt lat="9.9233220" lon="-83.8814980">
        <ele>2274.1</ele>
        <time>2020-01-26T19:19:47Z</time>
      </trkpt>
      <trkpt lat="9.9232960" lon="-83.8813180">
        <ele>2272.2</ele>
        <time>2020-01-26T19:19:49Z</time>
      </trkpt>
      <trkpt lat="9.9233300" lon="-83.8811240">
        <ele>2270.5</ele>
        <time>2020-01-26T19:19:51Z</time>
      </trkpt>
      <trkpt lat="9.9233440" lon="-83.8810220">
        <ele>2269.6</ele>
        <time>2020-01-26T19:19:52Z</time>
      </trkpt>
      <trkpt lat="9.9233680" lon="-83.8808090">
        <ele>2267.5</ele>
        <time>2020-01-26T19:19:54Z</time>
      </trkpt>
      <trkpt lat="9.9233840" lon="-83.8806160">
        <ele>2265.4</ele>
        <time>2020-01-26T19:19:56Z</time>
      </trkpt>
      <trkpt lat="9.9233660" lon="-83.8804470">
        <ele>2263.6</ele>
        <time>2020-01-26T19:19:58Z</time>
      </trkpt>
      <trkpt lat="9.9233090" lon="-83.8802750">
        <ele>2261.8</ele>
        <time>2020-01-26T19:20:00Z</time>
      </trkpt>
      <trkpt lat="9.9232300" lon="-83.8801120">
        <ele>2259.7</ele>
        <time>2020-01-26T19:20:02Z</time>
      </trkpt>
      <trkpt lat="9.9231460" lon="-83.8799600">
        <ele>2258.0</ele>
        <time>2020-01-26T19:20:04Z</time>
      </trkpt>
      <trkpt lat="9.9231060" lon="-83.8798930">
        <ele>2257.5</ele>
        <time>2020-01-26T19:20:05Z</time>
      </trkpt>
      <trkpt lat="9.9229890" lon="-83.8797730">
        <ele>2256.3</ele>
        <time>2020-01-26T19:20:07Z</time>
      </trkpt>
      <trkpt lat="9.9229060" lon="-83.8797230">
        <ele>2255.5</ele>
        <time>2020-01-26T19:20:08Z</time>
      </trkpt>
      <trkpt lat="9.9227170" lon="-83.8796630">
        <ele>2252.8</ele>
        <time>2020-01-26T19:20:10Z</time>
      </trkpt>
      <trkpt lat="9.9225130" lon="-83.8796010">
        <ele>2251.0</ele>
        <time>2020-01-26T19:20:12Z</time>
      </trkpt>
      <trkpt lat="9.9224030" lon="-83.8795690">
        <ele>2250.1</ele>
        <time>2020-01-26T19:20:13Z</time>
      </trkpt>
      <trkpt lat="9.9222880" lon="-83.8795360">
        <ele>2249.0</ele>
        <time>2020-01-26T19:20:14Z</time>
      </trkpt>
      <trkpt lat="9.9220510" lon="-83.8794740">
        <ele>2246.5</ele>
        <time>2020-01-26T19:20:16Z</time>
      </trkpt>
      <trkpt lat="9.9219380" lon="-83.8794400">
        <ele>2245.4</ele>
        <time>2020-01-26T19:20:17Z</time>
      </trkpt>
      <trkpt lat="9.9217390" lon="-83.8793800">
        <ele>2243.1</ele>
        <time>2020-01-26T19:20:19Z</time>
      </trkpt>
      <trkpt lat="9.9216430" lon="-83.8793530">
        <ele>2242.0</ele>
        <time>2020-01-26T19:20:20Z</time>
      </trkpt>
      <trkpt lat="9.9215480" lon="-83.8793300">
        <ele>2241.0</ele>
        <time>2020-01-26T19:20:21Z</time>
      </trkpt>
      <trkpt lat="9.9213540" lon="-83.8792940">
        <ele>2238.5</ele>
        <time>2020-01-26T19:20:23Z</time>
      </trkpt>
      <trkpt lat="9.9211550" lon="-83.8792670">
        <ele>2235.5</ele>
        <time>2020-01-26T19:20:25Z</time>
      </trkpt>
      <trkpt lat="9.9209520" lon="-83.8792470">
        <ele>2232.7</ele>
        <time>2020-01-26T19:20:27Z</time>
      </trkpt>
      <trkpt lat="9.9208480" lon="-83.8792390">
        <ele>2231.3</ele>
        <time>2020-01-26T19:20:28Z</time>
      </trkpt>
      <trkpt lat="9.9206400" lon="-83.8792150">
        <ele>2228.0</ele>
        <time>2020-01-26T19:20:30Z</time>
      </trkpt>
      <trkpt lat="9.9204360" lon="-83.8791950">
        <ele>2225.7</ele>
        <time>2020-01-26T19:20:32Z</time>
      </trkpt>
      <trkpt lat="9.9202710" lon="-83.8791810">
        <ele>2224.5</ele>
        <time>2020-01-26T19:20:34Z</time>
      </trkpt>
      <trkpt lat="9.9201040" lon="-83.8791830">
        <ele>2223.4</ele>
        <time>2020-01-26T19:20:36Z</time>
      </trkpt>
      <trkpt lat="9.9199390" lon="-83.8792280">
        <ele>2221.8</ele>
        <time>2020-01-26T19:20:38Z</time>
      </trkpt>
      <trkpt lat="9.9198570" lon="-83.8792580">
        <ele>2220.7</ele>
        <time>2020-01-26T19:20:39Z</time>
      </trkpt>
      <trkpt lat="9.9196930" lon="-83.8793300">
        <ele>2218.7</ele>
        <time>2020-01-26T19:20:41Z</time>
      </trkpt>
      <trkpt lat="9.9195370" lon="-83.8794200">
        <ele>2216.8</ele>
        <time>2020-01-26T19:20:43Z</time>
      </trkpt>
      <trkpt lat="9.9193860" lon="-83.8795270">
        <ele>2215.1</ele>
        <time>2020-01-26T19:20:45Z</time>
      </trkpt>
      <trkpt lat="9.9193110" lon="-83.8795840">
        <ele>2214.0</ele>
        <time>2020-01-26T19:20:46Z</time>
      </trkpt>
      <trkpt lat="9.9191560" lon="-83.8796870">
        <ele>2210.1</ele>
        <time>2020-01-26T19:20:48Z</time>
      </trkpt>
      <trkpt lat="9.9190570" lon="-83.8797300">
        <ele>2207.9</ele>
        <time>2020-01-26T19:20:49Z</time>
      </trkpt>
      <trkpt lat="9.9188650" lon="-83.8797960">
        <ele>2204.6</ele>
        <time>2020-01-26T19:20:51Z</time>
      </trkpt>
      <trkpt lat="9.9186920" lon="-83.8798500">
        <ele>2202.3</ele>
        <time>2020-01-26T19:20:53Z</time>
      </trkpt>
      <trkpt lat="9.9186190" lon="-83.8798770">
        <ele>2201.4</ele>
        <time>2020-01-26T19:20:54Z</time>
      </trkpt>
      <trkpt lat="9.9185470" lon="-83.8799090">
        <ele>2200.6</ele>
        <time>2020-01-26T19:20:55Z</time>
      </trkpt>
      <trkpt lat="9.9184730" lon="-83.8799510">
        <ele>2199.7</ele>
        <time>2020-01-26T19:20:56Z</time>
      </trkpt>
      <trkpt lat="9.9184020" lon="-83.8799960">
        <ele>2198.8</ele>
        <time>2020-01-26T19:20:57Z</time>
      </trkpt>
      <trkpt lat="9.9182610" lon="-83.8801040">
        <ele>2197.2</ele>
        <time>2020-01-26T19:20:59Z</time>
      </trkpt>
      <trkpt lat="9.9181880" lon="-83.8801660">
        <ele>2196.4</ele>
        <time>2020-01-26T19:21:00Z</time>
      </trkpt>
      <trkpt lat="9.9180410" lon="-83.8802900">
        <ele>2194.7</ele>
        <time>2020-01-26T19:21:02Z</time>
      </trkpt>
      <trkpt lat="9.9178970" lon="-83.8804090">
        <ele>2192.5</ele>
        <time>2020-01-26T19:21:04Z</time>
      </trkpt>
      <trkpt lat="9.9178310" lon="-83.8804660">
        <ele>2191.7</ele>
        <time>2020-01-26T19:21:05Z</time>
      </trkpt>
      <trkpt lat="9.9177030" lon="-83.8805850">
        <ele>2189.1</ele>
        <time>2020-01-26T19:21:07Z</time>
      </trkpt>
      <trkpt lat="9.9176280" lon="-83.8806480">
        <ele>2187.9</ele>
        <time>2020-01-26T19:21:08Z</time>
      </trkpt>
      <trkpt lat="9.9174730" lon="-83.8807760">
        <ele>2185.3</ele>
        <time>2020-01-26T19:21:10Z</time>
      </trkpt>
      <trkpt lat="9.9173970" lon="-83.8808430">
        <ele>2184.1</ele>
        <time>2020-01-26T19:21:11Z</time>
      </trkpt>
      <trkpt lat="9.9172610" lon="-83.8809640">
        <ele>2182.1</ele>
        <time>2020-01-26T19:21:13Z</time>
      </trkpt>
      <trkpt lat="9.9172080" lon="-83.8810210">
        <ele>2181.1</ele>
        <time>2020-01-26T19:21:14Z</time>
      </trkpt>
      <trkpt lat="9.9171590" lon="-83.8810850">
        <ele>2180.3</ele>
        <time>2020-01-26T19:21:15Z</time>
      </trkpt>
      <trkpt lat="9.9170730" lon="-83.8812350">
        <ele>2178.0</ele>
        <time>2020-01-26T19:21:17Z</time>
      </trkpt>
      <trkpt lat="9.9169950" lon="-83.8814080">
        <ele>2176.3</ele>
        <time>2020-01-26T19:21:19Z</time>
      </trkpt>
      <trkpt lat="9.9169560" lon="-83.8815010">
        <ele>2175.0</ele>
        <time>2020-01-26T19:21:20Z</time>
      </trkpt>
      <trkpt lat="9.9168770" lon="-83.8816850">
        <ele>2172.3</ele>
        <time>2020-01-26T19:21:22Z</time>
      </trkpt>
      <trkpt lat="9.9168050" lon="-83.8818740">
        <ele>2169.4</ele>
        <time>2020-01-26T19:21:24Z</time>
      </trkpt>
      <trkpt lat="9.9167250" lon="-83.8820750">
        <ele>2167.5</ele>
        <time>2020-01-26T19:21:26Z</time>
      </trkpt>
      <trkpt lat="9.9166310" lon="-83.8822760">
        <ele>2166.3</ele>
        <time>2020-01-26T19:21:28Z</time>
      </trkpt>
      <trkpt lat="9.9165740" lon="-83.8823690">
        <ele>2165.8</ele>
        <time>2020-01-26T19:21:29Z</time>
      </trkpt>
      <trkpt lat="9.9164400" lon="-83.8825260">
        <ele>2164.8</ele>
        <time>2020-01-26T19:21:31Z</time>
      </trkpt>
      <trkpt lat="9.9162800" lon="-83.8826360">
        <ele>2163.6</ele>
        <time>2020-01-26T19:21:33Z</time>
      </trkpt>
      <trkpt lat="9.9160980" lon="-83.8827220">
        <ele>2162.0</ele>
        <time>2020-01-26T19:21:35Z</time>
      </trkpt>
      <trkpt lat="9.9160010" lon="-83.8827590">
        <ele>2160.9</ele>
        <time>2020-01-26T19:21:36Z</time>
      </trkpt>
      <trkpt lat="9.9157970" lon="-83.8828310">
        <ele>2158.6</ele>
        <time>2020-01-26T19:21:38Z</time>
      </trkpt>
      <trkpt lat="9.9156990" lon="-83.8828650">
        <ele>2157.5</ele>
        <time>2020-01-26T19:21:39Z</time>
      </trkpt>
      <trkpt lat="9.9155390" lon="-83.8829290">
        <ele>2155.7</ele>
        <time>2020-01-26T19:21:41Z</time>
      </trkpt>
      <trkpt lat="9.9154610" lon="-83.8829550">
        <ele>2154.8</ele>
        <time>2020-01-26T19:21:42Z</time>
      </trkpt>
      <trkpt lat="9.9153010" lon="-83.8830020">
        <ele>2152.9</ele>
        <time>2020-01-26T19:21:44Z</time>
      </trkpt>
      <trkpt lat="9.9151530" lon="-83.8830140">
        <ele>2151.1</ele>
        <time>2020-01-26T19:21:46Z</time>
      </trkpt>
      <trkpt lat="9.9150120" lon="-83.8829760">
        <ele>2149.4</ele>
        <time>2020-01-26T19:21:48Z</time>
      </trkpt>
      <trkpt lat="9.9148920" lon="-83.8828850">
        <ele>2147.7</ele>
        <time>2020-01-26T19:21:50Z</time>
      </trkpt>
      <trkpt lat="9.9147910" lon="-83.8827720">
        <ele>2146.0</ele>
        <time>2020-01-26T19:21:52Z</time>
      </trkpt>
      <trkpt lat="9.9147030" lon="-83.8826960">
        <ele>2144.7</ele>
        <time>2020-01-26T19:21:54Z</time>
      </trkpt>
      <trkpt lat="9.9146560" lon="-83.8826550">
        <ele>2143.9</ele>
        <time>2020-01-26T19:21:55Z</time>
      </trkpt>
      <trkpt lat="9.9145550" lon="-83.8825880">
        <ele>2142.5</ele>
        <time>2020-01-26T19:21:57Z</time>
      </trkpt>
      <trkpt lat="9.9144390" lon="-83.8825680">
        <ele>2141.1</ele>
        <time>2020-01-26T19:21:59Z</time>
      </trkpt>
      <trkpt lat="9.9143150" lon="-83.8826040">
        <ele>2139.3</ele>
        <time>2020-01-26T19:22:01Z</time>
      </trkpt>
      <trkpt lat="9.9142600" lon="-83.8826440">
        <ele>2138.4</ele>
        <time>2020-01-26T19:22:02Z</time>
      </trkpt>
      <trkpt lat="9.9142170" lon="-83.8826940">
        <ele>2137.5</ele>
        <time>2020-01-26T19:22:03Z</time>
      </trkpt>
      <trkpt lat="9.9141600" lon="-83.8828220">
        <ele>2135.9</ele>
        <time>2020-01-26T19:22:05Z</time>
      </trkpt>
      <trkpt lat="9.9141250" lon="-83.8829810">
        <ele>2134.0</ele>
        <time>2020-01-26T19:22:07Z</time>
      </trkpt>
      <trkpt lat="9.9141100" lon="-83.8830680">
        <ele>2133.0</ele>
        <time>2020-01-26T19:22:08Z</time>
      </trkpt>
      <trkpt lat="9.9140920" lon="-83.8831620">
        <ele>2131.9</ele>
        <time>2020-01-26T19:22:09Z</time>
      </trkpt>
      <trkpt lat="9.9140570" lon="-83.8833600">
        <ele>2129.6</ele>
        <time>2020-01-26T19:22:11Z</time>
      </trkpt>
      <trkpt lat="9.9140370" lon="-83.8834660">
        <ele>2128.5</ele>
        <time>2020-01-26T19:22:12Z</time>
      </trkpt>
      <trkpt lat="9.9140190" lon="-83.8835760">
        <ele>2127.3</ele>
        <time>2020-01-26T19:22:13Z</time>
      </trkpt>
      <trkpt lat="9.9140050" lon="-83.8836870">
        <ele>2126.2</ele>
        <time>2020-01-26T19:22:14Z</time>
      </trkpt>
      <trkpt lat="9.9139710" lon="-83.8838930">
        <ele>2124.1</ele>
        <time>2020-01-26T19:22:16Z</time>
      </trkpt>
      <trkpt lat="9.9139440" lon="-83.8840840">
        <ele>2122.2</ele>
        <time>2020-01-26T19:22:18Z</time>
      </trkpt>
      <trkpt lat="9.9139160" lon="-83.8842570">
        <ele>2120.5</ele>
        <time>2020-01-26T19:22:20Z</time>
      </trkpt>
      <trkpt lat="9.9139020" lon="-83.8843330">
        <ele>2119.8</ele>
        <time>2020-01-26T19:22:21Z</time>
      </trkpt>
      <trkpt lat="9.9138880" lon="-83.8844080">
        <ele>2119.1</ele>
        <time>2020-01-26T19:22:22Z</time>
      </trkpt>
      <trkpt lat="9.9138750" lon="-83.8844830">
        <ele>2118.5</ele>
        <time>2020-01-26T19:22:23Z</time>
      </trkpt>
      <trkpt lat="9.9138430" lon="-83.8846390">
        <ele>2117.2</ele>
        <time>2020-01-26T19:22:25Z</time>
      </trkpt>
      <trkpt lat="9.9137600" lon="-83.8847870">
        <ele>2116.0</ele>
        <time>2020-01-26T19:22:27Z</time>
      </trkpt>
      <trkpt lat="9.9136240" lon="-83.8849190">
        <ele>2114.3</ele>
        <time>2020-01-26T19:22:29Z</time>
      </trkpt>
      <trkpt lat="9.9135490" lon="-83.8849790">
        <ele>2113.7</ele>
        <time>2020-01-26T19:22:30Z</time>
      </trkpt>
      <trkpt lat="9.9134700" lon="-83.8850380">
        <ele>2113.2</ele>
        <time>2020-01-26T19:22:31Z</time>
      </trkpt>
      <trkpt lat="9.9133110" lon="-83.8851650">
        <ele>2111.3</ele>
        <time>2020-01-26T19:22:33Z</time>
      </trkpt>
      <trkpt lat="9.9131460" lon="-83.8852950">
        <ele>2109.7</ele>
        <time>2020-01-26T19:22:35Z</time>
      </trkpt>
      <trkpt lat="9.9130680" lon="-83.8853540">
        <ele>2108.8</ele>
        <time>2020-01-26T19:22:36Z</time>
      </trkpt>
      <trkpt lat="9.9129230" lon="-83.8854720">
        <ele>2107.4</ele>
        <time>2020-01-26T19:22:38Z</time>
      </trkpt>
      <trkpt lat="9.9127820" lon="-83.8855860">
        <ele>2106.0</ele>
        <time>2020-01-26T19:22:40Z</time>
      </trkpt>
      <trkpt lat="9.9127140" lon="-83.8856410">
        <ele>2105.2</ele>
        <time>2020-01-26T19:22:41Z</time>
      </trkpt>
      <trkpt lat="9.9125760" lon="-83.8857500">
        <ele>2103.6</ele>
        <time>2020-01-26T19:22:43Z</time>
      </trkpt>
      <trkpt lat="9.9124430" lon="-83.8858480">
        <ele>2102.2</ele>
        <time>2020-01-26T19:22:45Z</time>
      </trkpt>
      <trkpt lat="9.9123780" lon="-83.8858900">
        <ele>2101.7</ele>
        <time>2020-01-26T19:22:46Z</time>
      </trkpt>
      <trkpt lat="9.9122560" lon="-83.8859550">
        <ele>2100.7</ele>
        <time>2020-01-26T19:22:48Z</time>
      </trkpt>
      <trkpt lat="9.9121820" lon="-83.8859800">
        <ele>2100.1</ele>
        <time>2020-01-26T19:22:49Z</time>
      </trkpt>
      <trkpt lat="9.9121080" lon="-83.8859860">
        <ele>2099.3</ele>
        <time>2020-01-26T19:22:50Z</time>
      </trkpt>
      <trkpt lat="9.9119480" lon="-83.8859630">
        <ele>2096.9</ele>
        <time>2020-01-26T19:22:52Z</time>
      </trkpt>
      <trkpt lat="9.9118720" lon="-83.8859310">
        <ele>2095.8</ele>
        <time>2020-01-26T19:22:53Z</time>
      </trkpt>
      <trkpt lat="9.9117370" lon="-83.8858270">
        <ele>2094.0</ele>
        <time>2020-01-26T19:22:55Z</time>
      </trkpt>
      <trkpt lat="9.9116800" lon="-83.8857640">
        <ele>2093.5</ele>
        <time>2020-01-26T19:22:56Z</time>
      </trkpt>
      <trkpt lat="9.9115590" lon="-83.8856350">
        <ele>2092.6</ele>
        <time>2020-01-26T19:22:58Z</time>
      </trkpt>
      <trkpt lat="9.9114960" lon="-83.8855690">
        <ele>2092.2</ele>
        <time>2020-01-26T19:22:59Z</time>
      </trkpt>
      <trkpt lat="9.9114280" lon="-83.8855030">
        <ele>2091.9</ele>
        <time>2020-01-26T19:23:00Z</time>
      </trkpt>
      <trkpt lat="9.9112960" lon="-83.8853680">
        <ele>2091.1</ele>
        <time>2020-01-26T19:23:02Z</time>
      </trkpt>
      <trkpt lat="9.9112370" lon="-83.8853040">
        <ele>2090.6</ele>
        <time>2020-01-26T19:23:03Z</time>
      </trkpt>
      <trkpt lat="9.9111330" lon="-83.8851800">
        <ele>2089.8</ele>
        <time>2020-01-26T19:23:05Z</time>
      </trkpt>
      <trkpt lat="9.9110400" lon="-83.8850430">
        <ele>2089.1</ele>
        <time>2020-01-26T19:23:07Z</time>
      </trkpt>
      <trkpt lat="9.9110000" lon="-83.8849690">
        <ele>2088.8</ele>
        <time>2020-01-26T19:23:08Z</time>
      </trkpt>
      <trkpt lat="9.9109660" lon="-83.8848850">
        <ele>2088.5</ele>
        <time>2020-01-26T19:23:09Z</time>
      </trkpt>
      <trkpt lat="9.9109200" lon="-83.8847130">
        <ele>2087.9</ele>
        <time>2020-01-26T19:23:11Z</time>
      </trkpt>
      <trkpt lat="9.9109050" lon="-83.8846210">
        <ele>2087.4</ele>
        <time>2020-01-26T19:23:12Z</time>
      </trkpt>
      <trkpt lat="9.9108810" lon="-83.8844350">
        <ele>2086.0</ele>
        <time>2020-01-26T19:23:14Z</time>
      </trkpt>
      <trkpt lat="9.9108590" lon="-83.8842450">
        <ele>2083.9</ele>
        <time>2020-01-26T19:23:16Z</time>
      </trkpt>
      <trkpt lat="9.9108470" lon="-83.8841460">
        <ele>2082.8</ele>
        <time>2020-01-26T19:23:17Z</time>
      </trkpt>
      <trkpt lat="9.9108210" lon="-83.8839500">
        <ele>2080.7</ele>
        <time>2020-01-26T19:23:19Z</time>
      </trkpt>
      <trkpt lat="9.9108070" lon="-83.8838570">
        <ele>2079.8</ele>
        <time>2020-01-26T19:23:20Z</time>
      </trkpt>
      <trkpt lat="9.9107680" lon="-83.8836780">
        <ele>2078.3</ele>
        <time>2020-01-26T19:23:22Z</time>
      </trkpt>
      <trkpt lat="9.9107460" lon="-83.8835880">
        <ele>2077.6</ele>
        <time>2020-01-26T19:23:23Z</time>
      </trkpt>
      <trkpt lat="9.9106780" lon="-83.8834140">
        <ele>2076.2</ele>
        <time>2020-01-26T19:23:25Z</time>
      </trkpt>
      <trkpt lat="9.9105830" lon="-83.8832570">
        <ele>2074.6</ele>
        <time>2020-01-26T19:23:27Z</time>
      </trkpt>
      <trkpt lat="9.9104610" lon="-83.8831200">
        <ele>2073.0</ele>
        <time>2020-01-26T19:23:29Z</time>
      </trkpt>
      <trkpt lat="9.9103150" lon="-83.8830040">
        <ele>2071.4</ele>
        <time>2020-01-26T19:23:31Z</time>
      </trkpt>
      <trkpt lat="9.9102400" lon="-83.8829510">
        <ele>2070.6</ele>
        <time>2020-01-26T19:23:32Z</time>
      </trkpt>
      <trkpt lat="9.9101630" lon="-83.8829040">
        <ele>2069.9</ele>
        <time>2020-01-26T19:23:33Z</time>
      </trkpt>
      <trkpt lat="9.9099990" lon="-83.8828030">
        <ele>2068.4</ele>
        <time>2020-01-26T19:23:35Z</time>
      </trkpt>
      <trkpt lat="9.9098280" lon="-83.8827050">
        <ele>2067.2</ele>
        <time>2020-01-26T19:23:37Z</time>
      </trkpt>
      <trkpt lat="9.9096580" lon="-83.8826050">
        <ele>2066.1</ele>
        <time>2020-01-26T19:23:39Z</time>
      </trkpt>
      <trkpt lat="9.9094850" lon="-83.8825010">
        <ele>2064.9</ele>
        <time>2020-01-26T19:23:41Z</time>
      </trkpt>
      <trkpt lat="9.9093190" lon="-83.8823980">
        <ele>2063.6</ele>
        <time>2020-01-26T19:23:43Z</time>
      </trkpt>
      <trkpt lat="9.9092290" lon="-83.8823410">
        <ele>2062.8</ele>
        <time>2020-01-26T19:23:44Z</time>
      </trkpt>
      <trkpt lat="9.9090540" lon="-83.8822340">
        <ele>2061.3</ele>
        <time>2020-01-26T19:23:46Z</time>
      </trkpt>
      <trkpt lat="9.9089700" lon="-83.8821810">
        <ele>2060.5</ele>
        <time>2020-01-26T19:23:47Z</time>
      </trkpt>
      <trkpt lat="9.9087990" lon="-83.8820810">
        <ele>2058.9</ele>
        <time>2020-01-26T19:23:49Z</time>
      </trkpt>
      <trkpt lat="9.9087130" lon="-83.8820320">
        <ele>2058.1</ele>
        <time>2020-01-26T19:23:50Z</time>
      </trkpt>
      <trkpt lat="9.9086280" lon="-83.8819830">
        <ele>2057.3</ele>
        <time>2020-01-26T19:23:51Z</time>
      </trkpt>
      <trkpt lat="9.9084650" lon="-83.8818820">
        <ele>2055.6</ele>
        <time>2020-01-26T19:23:53Z</time>
      </trkpt>
      <trkpt lat="9.9083780" lon="-83.8818250">
        <ele>2054.6</ele>
        <time>2020-01-26T19:23:54Z</time>
      </trkpt>
      <trkpt lat="9.9082010" lon="-83.8817100">
        <ele>2052.8</ele>
        <time>2020-01-26T19:23:56Z</time>
      </trkpt>
      <trkpt lat="9.9080390" lon="-83.8815990">
        <ele>2051.3</ele>
        <time>2020-01-26T19:23:58Z</time>
      </trkpt>
      <trkpt lat="9.9079700" lon="-83.8815380">
        <ele>2050.6</ele>
        <time>2020-01-26T19:23:59Z</time>
      </trkpt>
      <trkpt lat="9.9078480" lon="-83.8814160">
        <ele>2049.3</ele>
        <time>2020-01-26T19:24:01Z</time>
      </trkpt>
      <trkpt lat="9.9077910" lon="-83.8813480">
        <ele>2048.6</ele>
        <time>2020-01-26T19:24:02Z</time>
      </trkpt>
      <trkpt lat="9.9077380" lon="-83.8812740">
        <ele>2047.8</ele>
        <time>2020-01-26T19:24:03Z</time>
      </trkpt>
      <trkpt lat="9.9076490" lon="-83.8811190">
        <ele>2046.4</ele>
        <time>2020-01-26T19:24:05Z</time>
      </trkpt>
      <trkpt lat="9.9075730" lon="-83.8809510">
        <ele>2045.0</ele>
        <time>2020-01-26T19:24:07Z</time>
      </trkpt>
      <trkpt lat="9.9075140" lon="-83.8807690">
        <ele>2043.5</ele>
        <time>2020-01-26T19:24:09Z</time>
      </trkpt>
      <trkpt lat="9.9074690" lon="-83.8805860">
        <ele>2042.3</ele>
        <time>2020-01-26T19:24:11Z</time>
      </trkpt>
      <trkpt lat="9.9074440" lon="-83.8804890">
        <ele>2041.8</ele>
        <time>2020-01-26T19:24:12Z</time>
      </trkpt>
      <trkpt lat="9.9074140" lon="-83.8803930">
        <ele>2041.2</ele>
        <time>2020-01-26T19:24:13Z</time>
      </trkpt>
      <trkpt lat="9.9073620" lon="-83.8802080">
        <ele>2040.0</ele>
        <time>2020-01-26T19:24:15Z</time>
      </trkpt>
      <trkpt lat="9.9073410" lon="-83.8801210">
        <ele>2039.3</ele>
        <time>2020-01-26T19:24:16Z</time>
      </trkpt>
      <trkpt lat="9.9073060" lon="-83.8799590">
        <ele>2037.8</ele>
        <time>2020-01-26T19:24:18Z</time>
      </trkpt>
      <trkpt lat="9.9072860" lon="-83.8798770">
        <ele>2037.1</ele>
        <time>2020-01-26T19:24:19Z</time>
      </trkpt>
      <trkpt lat="9.9072590" lon="-83.8797970">
        <ele>2036.4</ele>
        <time>2020-01-26T19:24:20Z</time>
      </trkpt>
      <trkpt lat="9.9071900" lon="-83.8796480">
        <ele>2035.2</ele>
        <time>2020-01-26T19:24:22Z</time>
      </trkpt>
      <trkpt lat="9.9070970" lon="-83.8795110">
        <ele>2034.4</ele>
        <time>2020-01-26T19:24:24Z</time>
      </trkpt>
      <trkpt lat="9.9070480" lon="-83.8794450">
        <ele>2034.1</ele>
        <time>2020-01-26T19:24:25Z</time>
      </trkpt>
      <trkpt lat="9.9070000" lon="-83.8793790">
        <ele>2033.8</ele>
        <time>2020-01-26T19:24:26Z</time>
      </trkpt>
      <trkpt lat="9.9068940" lon="-83.8792490">
        <ele>2033.2</ele>
        <time>2020-01-26T19:24:28Z</time>
      </trkpt>
      <trkpt lat="9.9067910" lon="-83.8791220">
        <ele>2032.2</ele>
        <time>2020-01-26T19:24:30Z</time>
      </trkpt>
      <trkpt lat="9.9067040" lon="-83.8789950">
        <ele>2031.2</ele>
        <time>2020-01-26T19:24:32Z</time>
      </trkpt>
      <trkpt lat="9.9066370" lon="-83.8788670">
        <ele>2030.0</ele>
        <time>2020-01-26T19:24:34Z</time>
      </trkpt>
      <trkpt lat="9.9066040" lon="-83.8787070">
        <ele>2028.8</ele>
        <time>2020-01-26T19:24:36Z</time>
      </trkpt>
      <trkpt lat="9.9066060" lon="-83.8785320">
        <ele>2027.8</ele>
        <time>2020-01-26T19:24:38Z</time>
      </trkpt>
      <trkpt lat="9.9066360" lon="-83.8783470">
        <ele>2027.0</ele>
        <time>2020-01-26T19:24:40Z</time>
      </trkpt>
      <trkpt lat="9.9066550" lon="-83.8782550">
        <ele>2026.7</ele>
        <time>2020-01-26T19:24:41Z</time>
      </trkpt>
      <trkpt lat="9.9066960" lon="-83.8780690">
        <ele>2026.2</ele>
        <time>2020-01-26T19:24:43Z</time>
      </trkpt>
      <trkpt lat="9.9067130" lon="-83.8779740">
        <ele>2026.0</ele>
        <time>2020-01-26T19:24:44Z</time>
      </trkpt>
      <trkpt lat="9.9067540" lon="-83.8777920">
        <ele>2025.6</ele>
        <time>2020-01-26T19:24:46Z</time>
      </trkpt>
      <trkpt lat="9.9067950" lon="-83.8776140">
        <ele>2025.1</ele>
        <time>2020-01-26T19:24:48Z</time>
      </trkpt>
      <trkpt lat="9.9068160" lon="-83.8775250">
        <ele>2024.7</ele>
        <time>2020-01-26T19:24:49Z</time>
      </trkpt>
      <trkpt lat="9.9068570" lon="-83.8773460">
        <ele>2023.7</ele>
        <time>2020-01-26T19:24:51Z</time>
      </trkpt>
      <trkpt lat="9.9068780" lon="-83.8772560">
        <ele>2022.9</ele>
        <time>2020-01-26T19:24:52Z</time>
      </trkpt>
      <trkpt lat="9.9069240" lon="-83.8770730">
        <ele>2020.6</ele>
        <time>2020-01-26T19:24:54Z</time>
      </trkpt>
      <trkpt lat="9.9069750" lon="-83.8768920">
        <ele>2018.3</ele>
        <time>2020-01-26T19:24:56Z</time>
      </trkpt>
      <trkpt lat="9.9070250" lon="-83.8767190">
        <ele>2016.4</ele>
        <time>2020-01-26T19:24:58Z</time>
      </trkpt>
      <trkpt lat="9.9070500" lon="-83.8766300">
        <ele>2015.6</ele>
        <time>2020-01-26T19:24:59Z</time>
      </trkpt>
      <trkpt lat="9.9071040" lon="-83.8764460">
        <ele>2014.2</ele>
        <time>2020-01-26T19:25:01Z</time>
      </trkpt>
      <trkpt lat="9.9071580" lon="-83.8762550">
        <ele>2013.0</ele>
        <time>2020-01-26T19:25:03Z</time>
      </trkpt>
      <trkpt lat="9.9072090" lon="-83.8760710">
        <ele>2011.8</ele>
        <time>2020-01-26T19:25:05Z</time>
      </trkpt>
      <trkpt lat="9.9072350" lon="-83.8759810">
        <ele>2011.2</ele>
        <time>2020-01-26T19:25:06Z</time>
      </trkpt>
      <trkpt lat="9.9072880" lon="-83.8758130">
        <ele>2010.0</ele>
        <time>2020-01-26T19:25:08Z</time>
      </trkpt>
      <trkpt lat="9.9073310" lon="-83.8756500">
        <ele>2008.8</ele>
        <time>2020-01-26T19:25:10Z</time>
      </trkpt>
      <trkpt lat="9.9073550" lon="-83.8755710">
        <ele>2008.2</ele>
        <time>2020-01-26T19:25:11Z</time>
      </trkpt>
      <trkpt lat="9.9073980" lon="-83.8754210">
        <ele>2006.9</ele>
        <time>2020-01-26T19:25:13Z</time>
      </trkpt>
      <trkpt lat="9.9074020" lon="-83.8752620">
        <ele>2005.5</ele>
        <time>2020-01-26T19:25:15Z</time>
      </trkpt>
      <trkpt lat="9.9073660" lon="-83.8750970">
        <ele>2004.2</ele>
        <time>2020-01-26T19:25:17Z</time>
      </trkpt>
      <trkpt lat="9.9073030" lon="-83.8749490">
        <ele>2003.1</ele>
        <time>2020-01-26T19:25:19Z</time>
      </trkpt>
      <trkpt lat="9.9072200" lon="-83.8748110">
        <ele>2002.3</ele>
        <time>2020-01-26T19:25:21Z</time>
      </trkpt>
      <trkpt lat="9.9071200" lon="-83.8746730">
        <ele>2001.5</ele>
        <time>2020-01-26T19:25:23Z</time>
      </trkpt>
      <trkpt lat="9.9070690" lon="-83.8745990">
        <ele>2001.2</ele>
        <time>2020-01-26T19:25:24Z</time>
      </trkpt>
      <trkpt lat="9.9070140" lon="-83.8745220">
        <ele>2000.8</ele>
        <time>2020-01-26T19:25:25Z</time>
      </trkpt>
      <trkpt lat="9.9069010" lon="-83.8743670">
        <ele>1999.9</ele>
        <time>2020-01-26T19:25:27Z</time>
      </trkpt>
      <trkpt lat="9.9068490" lon="-83.8742890">
        <ele>1999.4</ele>
        <time>2020-01-26T19:25:28Z</time>
      </trkpt>
      <trkpt lat="9.9067540" lon="-83.8741370">
        <ele>1998.1</ele>
        <time>2020-01-26T19:25:30Z</time>
      </trkpt>
      <trkpt lat="9.9066610" lon="-83.8739750">
        <ele>1996.5</ele>
        <time>2020-01-26T19:25:32Z</time>
      </trkpt>
      <trkpt lat="9.9066190" lon="-83.8738940">
        <ele>1995.7</ele>
        <time>2020-01-26T19:25:33Z</time>
      </trkpt>
      <trkpt lat="9.9065770" lon="-83.8738160">
        <ele>1994.8</ele>
        <time>2020-01-26T19:25:34Z</time>
      </trkpt>
      <trkpt lat="9.9064900" lon="-83.8736560">
        <ele>1993.3</ele>
        <time>2020-01-26T19:25:36Z</time>
      </trkpt>
      <trkpt lat="9.9064080" lon="-83.8734830">
        <ele>1991.9</ele>
        <time>2020-01-26T19:25:38Z</time>
      </trkpt>
      <trkpt lat="9.9063330" lon="-83.8733010">
        <ele>1990.7</ele>
        <time>2020-01-26T19:25:40Z</time>
      </trkpt>
      <trkpt lat="9.9062650" lon="-83.8731190">
        <ele>1989.5</ele>
        <time>2020-01-26T19:25:42Z</time>
      </trkpt>
      <trkpt lat="9.9062320" lon="-83.8730260">
        <ele>1988.8</ele>
        <time>2020-01-26T19:25:43Z</time>
      </trkpt>
      <trkpt lat="9.9061720" lon="-83.8728380">
        <ele>1987.4</ele>
        <time>2020-01-26T19:25:45Z</time>
      </trkpt>
      <trkpt lat="9.9061220" lon="-83.8726630">
        <ele>1986.3</ele>
        <time>2020-01-26T19:25:47Z</time>
      </trkpt>
      <trkpt lat="9.9060790" lon="-83.8724860">
        <ele>1985.2</ele>
        <time>2020-01-26T19:25:49Z</time>
      </trkpt>
      <trkpt lat="9.9060420" lon="-83.8723210">
        <ele>1984.9</ele>
        <time>2020-01-26T19:25:51Z</time>
      </trkpt>
      <trkpt lat="9.9060240" lon="-83.8722410">
        <ele>1984.9</ele>
        <time>2020-01-26T19:25:52Z</time>
      </trkpt>
      <trkpt lat="9.9060090" lon="-83.8721610">
        <ele>1984.9</ele>
        <time>2020-01-26T19:25:53Z</time>
      </trkpt>
      <trkpt lat="9.9059850" lon="-83.8720070">
        <ele>1984.8</ele>
        <time>2020-01-26T19:25:55Z</time>
      </trkpt>
      <trkpt lat="9.9059750" lon="-83.8719270">
        <ele>1984.6</ele>
        <time>2020-01-26T19:25:56Z</time>
      </trkpt>
      <trkpt lat="9.9059550" lon="-83.8717620">
        <ele>1984.3</ele>
        <time>2020-01-26T19:25:58Z</time>
      </trkpt>
      <trkpt lat="9.9059470" lon="-83.8716810">
        <ele>1984.1</ele>
        <time>2020-01-26T19:25:59Z</time>
      </trkpt>
      <trkpt lat="9.9059410" lon="-83.8716040">
        <ele>1984.0</ele>
        <time>2020-01-26T19:26:00Z</time>
      </trkpt>
      <trkpt lat="9.9059350" lon="-83.8715270">
        <ele>1983.9</ele>
        <time>2020-01-26T19:26:01Z</time>
      </trkpt>
      <trkpt lat="9.9059260" lon="-83.8713750">
        <ele>1983.5</ele>
        <time>2020-01-26T19:26:03Z</time>
      </trkpt>
      <trkpt lat="9.9059180" lon="-83.8712440">
        <ele>1983.2</ele>
        <time>2020-01-26T19:26:05Z</time>
      </trkpt>
      <trkpt lat="9.9059110" lon="-83.8711820">
        <ele>1983.1</ele>
        <time>2020-01-26T19:26:06Z</time>
      </trkpt>
      <trkpt lat="9.9059080" lon="-83.8711200">
        <ele>1982.9</ele>
        <time>2020-01-26T19:26:07Z</time>
      </trkpt>
      <trkpt lat="9.9058940" lon="-83.8709930">
        <ele>1982.4</ele>
        <time>2020-01-26T19:26:09Z</time>
      </trkpt>
      <trkpt lat="9.9058840" lon="-83.8708550">
        <ele>1981.7</ele>
        <time>2020-01-26T19:26:11Z</time>
      </trkpt>
      <trkpt lat="9.9058700" lon="-83.8707110">
        <ele>1980.6</ele>
        <time>2020-01-26T19:26:13Z</time>
      </trkpt>
      <trkpt lat="9.9058630" lon="-83.8706400">
        <ele>1979.9</ele>
        <time>2020-01-26T19:26:14Z</time>
      </trkpt>
      <trkpt lat="9.9058590" lon="-83.8705620">
        <ele>1979.3</ele>
        <time>2020-01-26T19:26:15Z</time>
      </trkpt>
      <trkpt lat="9.9058520" lon="-83.8704790">
        <ele>1978.6</ele>
        <time>2020-01-26T19:26:16Z</time>
      </trkpt>
      <trkpt lat="9.9058400" lon="-83.8703040">
        <ele>1977.3</ele>
        <time>2020-01-26T19:26:18Z</time>
      </trkpt>
      <trkpt lat="9.9058370" lon="-83.8702170">
        <ele>1976.6</ele>
        <time>2020-01-26T19:26:19Z</time>
      </trkpt>
      <trkpt lat="9.9058190" lon="-83.8700370">
        <ele>1975.0</ele>
        <time>2020-01-26T19:26:21Z</time>
      </trkpt>
      <trkpt lat="9.9058100" lon="-83.8699480">
        <ele>1974.2</ele>
        <time>2020-01-26T19:26:22Z</time>
      </trkpt>
      <trkpt lat="9.9057700" lon="-83.8698020">
        <ele>1972.6</ele>
        <time>2020-01-26T19:26:24Z</time>
      </trkpt>
      <trkpt lat="9.9057370" lon="-83.8697440">
        <ele>1971.9</ele>
        <time>2020-01-26T19:26:25Z</time>
      </trkpt>
      <trkpt lat="9.9056470" lon="-83.8696500">
        <ele>1970.4</ele>
        <time>2020-01-26T19:26:27Z</time>
      </trkpt>
      <trkpt lat="9.9055920" lon="-83.8696070">
        <ele>1969.6</ele>
        <time>2020-01-26T19:26:28Z</time>
      </trkpt>
      <trkpt lat="9.9054810" lon="-83.8695520">
        <ele>1968.4</ele>
        <time>2020-01-26T19:26:30Z</time>
      </trkpt>
      <trkpt lat="9.9054150" lon="-83.8695410">
        <ele>1967.9</ele>
        <time>2020-01-26T19:26:31Z</time>
      </trkpt>
      <trkpt lat="9.9052690" lon="-83.8695610">
        <ele>1966.7</ele>
        <time>2020-01-26T19:26:33Z</time>
      </trkpt>
      <trkpt lat="9.9051960" lon="-83.8695900">
        <ele>1966.0</ele>
        <time>2020-01-26T19:26:34Z</time>
      </trkpt>
      <trkpt lat="9.9051320" lon="-83.8696300">
        <ele>1965.3</ele>
        <time>2020-01-26T19:26:35Z</time>
      </trkpt>
      <trkpt lat="9.9050750" lon="-83.8696790">
        <ele>1964.5</ele>
        <time>2020-01-26T19:26:36Z</time>
      </trkpt>
      <trkpt lat="9.9049950" lon="-83.8698200">
        <ele>1963.0</ele>
        <time>2020-01-26T19:26:38Z</time>
      </trkpt>
      <trkpt lat="9.9049710" lon="-83.8699090">
        <ele>1962.4</ele>
        <time>2020-01-26T19:26:39Z</time>
      </trkpt>
      <trkpt lat="9.9049650" lon="-83.8700910">
        <ele>1961.6</ele>
        <time>2020-01-26T19:26:41Z</time>
      </trkpt>
      <trkpt lat="9.9049740" lon="-83.8702850">
        <ele>1960.1</ele>
        <time>2020-01-26T19:26:43Z</time>
      </trkpt>
      <trkpt lat="9.9049760" lon="-83.8703820">
        <ele>1959.3</ele>
        <time>2020-01-26T19:26:44Z</time>
      </trkpt>
      <trkpt lat="9.9049760" lon="-83.8705740">
        <ele>1958.3</ele>
        <time>2020-01-26T19:26:46Z</time>
      </trkpt>
      <trkpt lat="9.9049640" lon="-83.8707560">
        <ele>1957.7</ele>
        <time>2020-01-26T19:26:48Z</time>
      </trkpt>
      <trkpt lat="9.9049460" lon="-83.8708440">
        <ele>1957.5</ele>
        <time>2020-01-26T19:26:49Z</time>
      </trkpt>
      <trkpt lat="9.9048950" lon="-83.8710160">
        <ele>1957.3</ele>
        <time>2020-01-26T19:26:51Z</time>
      </trkpt>
      <trkpt lat="9.9048320" lon="-83.8711860">
        <ele>1957.2</ele>
        <time>2020-01-26T19:26:53Z</time>
      </trkpt>
      <trkpt lat="9.9047640" lon="-83.8713490">
        <ele>1957.1</ele>
        <time>2020-01-26T19:26:55Z</time>
      </trkpt>
      <trkpt lat="9.9046980" lon="-83.8714930">
        <ele>1956.9</ele>
        <time>2020-01-26T19:26:57Z</time>
      </trkpt>
      <trkpt lat="9.9046360" lon="-83.8716300">
        <ele>1956.4</ele>
        <time>2020-01-26T19:26:59Z</time>
      </trkpt>
      <trkpt lat="9.9046030" lon="-83.8716980">
        <ele>1956.0</ele>
        <time>2020-01-26T19:27:00Z</time>
      </trkpt>
      <trkpt lat="9.9045670" lon="-83.8717640">
        <ele>1955.6</ele>
        <time>2020-01-26T19:27:01Z</time>
      </trkpt>
      <trkpt lat="9.9045270" lon="-83.8718340">
        <ele>1955.1</ele>
        <time>2020-01-26T19:27:02Z</time>
      </trkpt>
      <trkpt lat="9.9044830" lon="-83.8719030">
        <ele>1954.5</ele>
        <time>2020-01-26T19:27:03Z</time>
      </trkpt>
      <trkpt lat="9.9043930" lon="-83.8720460">
        <ele>1953.2</ele>
        <time>2020-01-26T19:27:05Z</time>
      </trkpt>
      <trkpt lat="9.9042870" lon="-83.8721920">
        <ele>1951.6</ele>
        <time>2020-01-26T19:27:07Z</time>
      </trkpt>
      <trkpt lat="9.9042280" lon="-83.8722700">
        <ele>1950.6</ele>
        <time>2020-01-26T19:27:08Z</time>
      </trkpt>
      <trkpt lat="9.9041140" lon="-83.8724250">
        <ele>1948.9</ele>
        <time>2020-01-26T19:27:10Z</time>
      </trkpt>
      <trkpt lat="9.9040560" lon="-83.8725040">
        <ele>1947.9</ele>
        <time>2020-01-26T19:27:11Z</time>
      </trkpt>
      <trkpt lat="9.9040010" lon="-83.8725770">
        <ele>1946.8</ele>
        <time>2020-01-26T19:27:12Z</time>
      </trkpt>
      <trkpt lat="9.9039000" lon="-83.8727110">
        <ele>1945.1</ele>
        <time>2020-01-26T19:27:14Z</time>
      </trkpt>
      <trkpt lat="9.9038160" lon="-83.8728510">
        <ele>1944.1</ele>
        <time>2020-01-26T19:27:16Z</time>
      </trkpt>
      <trkpt lat="9.9037570" lon="-83.8730260">
        <ele>1942.9</ele>
        <time>2020-01-26T19:27:18Z</time>
      </trkpt>
      <trkpt lat="9.9037350" lon="-83.8731220">
        <ele>1942.1</ele>
        <time>2020-01-26T19:27:19Z</time>
      </trkpt>
      <trkpt lat="9.9037140" lon="-83.8732190">
        <ele>1941.5</ele>
        <time>2020-01-26T19:27:20Z</time>
      </trkpt>
      <trkpt lat="9.9036820" lon="-83.8734140">
        <ele>1940.1</ele>
        <time>2020-01-26T19:27:22Z</time>
      </trkpt>
      <trkpt lat="9.9036650" lon="-83.8735150">
        <ele>1939.3</ele>
        <time>2020-01-26T19:27:23Z</time>
      </trkpt>
      <trkpt lat="9.9036470" lon="-83.8736100">
        <ele>1938.5</ele>
        <time>2020-01-26T19:27:24Z</time>
      </trkpt>
      <trkpt lat="9.9036120" lon="-83.8737960">
        <ele>1937.1</ele>
        <time>2020-01-26T19:27:26Z</time>
      </trkpt>
      <trkpt lat="9.9035660" lon="-83.8739870">
        <ele>1935.9</ele>
        <time>2020-01-26T19:27:28Z</time>
      </trkpt>
      <trkpt lat="9.9035330" lon="-83.8740770">
        <ele>1935.4</ele>
        <time>2020-01-26T19:27:29Z</time>
      </trkpt>
      <trkpt lat="9.9034430" lon="-83.8742410">
        <ele>1934.2</ele>
        <time>2020-01-26T19:27:31Z</time>
      </trkpt>
      <trkpt lat="9.9033110" lon="-83.8743830">
        <ele>1932.8</ele>
        <time>2020-01-26T19:27:33Z</time>
      </trkpt>
      <trkpt lat="9.9031500" lon="-83.8744950">
        <ele>1931.4</ele>
        <time>2020-01-26T19:27:35Z</time>
      </trkpt>
      <trkpt lat="9.9030620" lon="-83.8745380">
        <ele>1930.8</ele>
        <time>2020-01-26T19:27:36Z</time>
      </trkpt>
      <trkpt lat="9.9029680" lon="-83.8745730">
        <ele>1930.3</ele>
        <time>2020-01-26T19:27:37Z</time>
      </trkpt>
      <trkpt lat="9.9027800" lon="-83.8746130">
        <ele>1929.1</ele>
        <time>2020-01-26T19:27:39Z</time>
      </trkpt>
      <trkpt lat="9.9026780" lon="-83.8746100">
        <ele>1928.5</ele>
        <time>2020-01-26T19:27:40Z</time>
      </trkpt>
      <trkpt lat="9.9025760" lon="-83.8745950">
        <ele>1928.0</ele>
        <time>2020-01-26T19:27:41Z</time>
      </trkpt>
      <trkpt lat="9.9023770" lon="-83.8745480">
        <ele>1926.8</ele>
        <time>2020-01-26T19:27:43Z</time>
      </trkpt>
      <trkpt lat="9.9022790" lon="-83.8745160">
        <ele>1926.2</ele>
        <time>2020-01-26T19:27:44Z</time>
      </trkpt>
      <trkpt lat="9.9021820" lon="-83.8744830">
        <ele>1925.6</ele>
        <time>2020-01-26T19:27:45Z</time>
      </trkpt>
      <trkpt lat="9.9019900" lon="-83.8744270">
        <ele>1924.5</ele>
        <time>2020-01-26T19:27:47Z</time>
      </trkpt>
      <trkpt lat="9.9019020" lon="-83.8743990">
        <ele>1924.1</ele>
        <time>2020-01-26T19:27:48Z</time>
      </trkpt>
      <trkpt lat="9.9017460" lon="-83.8743610">
        <ele>1922.9</ele>
        <time>2020-01-26T19:27:50Z</time>
      </trkpt>
      <trkpt lat="9.9015900" lon="-83.8743440">
        <ele>1922.1</ele>
        <time>2020-01-26T19:27:52Z</time>
      </trkpt>
      <trkpt lat="9.9014310" lon="-83.8743690">
        <ele>1921.4</ele>
        <time>2020-01-26T19:27:54Z</time>
      </trkpt>
      <trkpt lat="9.9013530" lon="-83.8743980">
        <ele>1921.0</ele>
        <time>2020-01-26T19:27:55Z</time>
      </trkpt>
      <trkpt lat="9.9012810" lon="-83.8744380">
        <ele>1920.6</ele>
        <time>2020-01-26T19:27:56Z</time>
      </trkpt>
      <trkpt lat="9.9012160" lon="-83.8744900">
        <ele>1920.2</ele>
        <time>2020-01-26T19:27:57Z</time>
      </trkpt>
      <trkpt lat="9.9011080" lon="-83.8746140">
        <ele>1919.2</ele>
        <time>2020-01-26T19:27:59Z</time>
      </trkpt>
      <trkpt lat="9.9010630" lon="-83.8746920">
        <ele>1918.6</ele>
        <time>2020-01-26T19:28:00Z</time>
      </trkpt>
      <trkpt lat="9.9010060" lon="-83.8748520">
        <ele>1917.6</ele>
        <time>2020-01-26T19:28:02Z</time>
      </trkpt>
      <trkpt lat="9.9009930" lon="-83.8749370">
        <ele>1917.0</ele>
        <time>2020-01-26T19:28:03Z</time>
      </trkpt>
      <trkpt lat="9.9009860" lon="-83.8751150">
        <ele>1915.9</ele>
        <time>2020-01-26T19:28:05Z</time>
      </trkpt>
      <trkpt lat="9.9009870" lon="-83.8752110">
        <ele>1915.4</ele>
        <time>2020-01-26T19:28:06Z</time>
      </trkpt>
      <trkpt lat="9.9009900" lon="-83.8754120">
        <ele>1914.4</ele>
        <time>2020-01-26T19:28:08Z</time>
      </trkpt>
      <trkpt lat="9.9009900" lon="-83.8755180">
        <ele>1913.9</ele>
        <time>2020-01-26T19:28:09Z</time>
      </trkpt>
      <trkpt lat="9.9009890" lon="-83.8756250">
        <ele>1913.4</ele>
        <time>2020-01-26T19:28:10Z</time>
      </trkpt>
      <trkpt lat="9.9009820" lon="-83.8758420">
        <ele>1912.4</ele>
        <time>2020-01-26T19:28:12Z</time>
      </trkpt>
      <trkpt lat="9.9009810" lon="-83.8759550">
        <ele>1911.9</ele>
        <time>2020-01-26T19:28:13Z</time>
      </trkpt>
      <trkpt lat="9.9009680" lon="-83.8761830">
        <ele>1910.9</ele>
        <time>2020-01-26T19:28:15Z</time>
      </trkpt>
      <trkpt lat="9.9009270" lon="-83.8764160">
        <ele>1909.9</ele>
        <time>2020-01-26T19:28:17Z</time>
      </trkpt>
      <trkpt lat="9.9009060" lon="-83.8765320">
        <ele>1909.2</ele>
        <time>2020-01-26T19:28:18Z</time>
      </trkpt>
      <trkpt lat="9.9008670" lon="-83.8767640">
        <ele>1907.8</ele>
        <time>2020-01-26T19:28:20Z</time>
      </trkpt>
      <trkpt lat="9.9008270" lon="-83.8769870">
        <ele>1906.3</ele>
        <time>2020-01-26T19:28:22Z</time>
      </trkpt>
      <trkpt lat="9.9008040" lon="-83.8771010">
        <ele>1905.4</ele>
        <time>2020-01-26T19:28:23Z</time>
      </trkpt>
      <trkpt lat="9.9007650" lon="-83.8773180">
        <ele>1904.1</ele>
        <time>2020-01-26T19:28:25Z</time>
      </trkpt>
      <trkpt lat="9.9007430" lon="-83.8774250">
        <ele>1903.3</ele>
        <time>2020-01-26T19:28:26Z</time>
      </trkpt>
      <trkpt lat="9.9007030" lon="-83.8776340">
        <ele>1901.5</ele>
        <time>2020-01-26T19:28:28Z</time>
      </trkpt>
      <trkpt lat="9.9006570" lon="-83.8778310">
        <ele>1898.6</ele>
        <time>2020-01-26T19:28:30Z</time>
      </trkpt>
      <trkpt lat="9.9006020" lon="-83.8780170">
        <ele>1896.6</ele>
        <time>2020-01-26T19:28:32Z</time>
      </trkpt>
      <trkpt lat="9.9005260" lon="-83.8781850">
        <ele>1895.4</ele>
        <time>2020-01-26T19:28:34Z</time>
      </trkpt>
      <trkpt lat="9.9004350" lon="-83.8783400">
        <ele>1894.4</ele>
        <time>2020-01-26T19:28:36Z</time>
      </trkpt>
      <trkpt lat="9.9003810" lon="-83.8784170">
        <ele>1893.8</ele>
        <time>2020-01-26T19:28:37Z</time>
      </trkpt>
      <trkpt lat="9.9002620" lon="-83.8785550">
        <ele>1892.7</ele>
        <time>2020-01-26T19:28:39Z</time>
      </trkpt>
      <trkpt lat="9.9001970" lon="-83.8786180">
        <ele>1892.3</ele>
        <time>2020-01-26T19:28:40Z</time>
      </trkpt>
      <trkpt lat="9.9001300" lon="-83.8786780">
        <ele>1891.8</ele>
        <time>2020-01-26T19:28:41Z</time>
      </trkpt>
      <trkpt lat="9.8999830" lon="-83.8787880">
        <ele>1890.6</ele>
        <time>2020-01-26T19:28:43Z</time>
      </trkpt>
      <trkpt lat="9.8998160" lon="-83.8788780">
        <ele>1889.7</ele>
        <time>2020-01-26T19:28:45Z</time>
      </trkpt>
      <trkpt lat="9.8997280" lon="-83.8789180">
        <ele>1889.2</ele>
        <time>2020-01-26T19:28:46Z</time>
      </trkpt>
      <trkpt lat="9.8996370" lon="-83.8789550">
        <ele>1888.8</ele>
        <time>2020-01-26T19:28:47Z</time>
      </trkpt>
      <trkpt lat="9.8994510" lon="-83.8790190">
        <ele>1887.8</ele>
        <time>2020-01-26T19:28:49Z</time>
      </trkpt>
      <trkpt lat="9.8993560" lon="-83.8790430">
        <ele>1887.3</ele>
        <time>2020-01-26T19:28:50Z</time>
      </trkpt>
      <trkpt lat="9.8992630" lon="-83.8790690">
        <ele>1886.8</ele>
        <time>2020-01-26T19:28:51Z</time>
      </trkpt>
      <trkpt lat="9.8990740" lon="-83.8791220">
        <ele>1885.7</ele>
        <time>2020-01-26T19:28:53Z</time>
      </trkpt>
      <trkpt lat="9.8988850" lon="-83.8791710">
        <ele>1884.5</ele>
        <time>2020-01-26T19:28:55Z</time>
      </trkpt>
      <trkpt lat="9.8986990" lon="-83.8792200">
        <ele>1883.2</ele>
        <time>2020-01-26T19:28:57Z</time>
      </trkpt>
      <trkpt lat="9.8986020" lon="-83.8792470">
        <ele>1882.5</ele>
        <time>2020-01-26T19:28:58Z</time>
      </trkpt>
      <trkpt lat="9.8985040" lon="-83.8792670">
        <ele>1881.3</ele>
        <time>2020-01-26T19:28:59Z</time>
      </trkpt>
      <trkpt lat="9.8983110" lon="-83.8793150">
        <ele>1879.2</ele>
        <time>2020-01-26T19:29:01Z</time>
      </trkpt>
      <trkpt lat="9.8981250" lon="-83.8793660">
        <ele>1877.3</ele>
        <time>2020-01-26T19:29:03Z</time>
      </trkpt>
      <trkpt lat="9.8980320" lon="-83.8793870">
        <ele>1876.5</ele>
        <time>2020-01-26T19:29:04Z</time>
      </trkpt>
      <trkpt lat="9.8978500" lon="-83.8794270">
        <ele>1875.3</ele>
        <time>2020-01-26T19:29:06Z</time>
      </trkpt>
      <trkpt lat="9.8976610" lon="-83.8794620">
        <ele>1874.2</ele>
        <time>2020-01-26T19:29:08Z</time>
      </trkpt>
      <trkpt lat="9.8974640" lon="-83.8794930">
        <ele>1872.6</ele>
        <time>2020-01-26T19:29:10Z</time>
      </trkpt>
      <trkpt lat="9.8972600" lon="-83.8795270">
        <ele>1871.0</ele>
        <time>2020-01-26T19:29:12Z</time>
      </trkpt>
      <trkpt lat="9.8970600" lon="-83.8795620">
        <ele>1869.8</ele>
        <time>2020-01-26T19:29:14Z</time>
      </trkpt>
      <trkpt lat="9.8969640" lon="-83.8795740">
        <ele>1869.2</ele>
        <time>2020-01-26T19:29:15Z</time>
      </trkpt>
      <trkpt lat="9.8967970" lon="-83.8796110">
        <ele>1868.2</ele>
        <time>2020-01-26T19:29:17Z</time>
      </trkpt>
      <trkpt lat="9.8967100" lon="-83.8796270">
        <ele>1867.6</ele>
        <time>2020-01-26T19:29:18Z</time>
      </trkpt>
      <trkpt lat="9.8966280" lon="-83.8796420">
        <ele>1867.0</ele>
        <time>2020-01-26T19:29:19Z</time>
      </trkpt>
      <trkpt lat="9.8964610" lon="-83.8796650">
        <ele>1866.1</ele>
        <time>2020-01-26T19:29:21Z</time>
      </trkpt>
      <trkpt lat="9.8963780" lon="-83.8796730">
        <ele>1865.7</ele>
        <time>2020-01-26T19:29:22Z</time>
      </trkpt>
      <trkpt lat="9.8962070" lon="-83.8796910">
        <ele>1864.4</ele>
        <time>2020-01-26T19:29:24Z</time>
      </trkpt>
      <trkpt lat="9.8961210" lon="-83.8796980">
        <ele>1863.9</ele>
        <time>2020-01-26T19:29:25Z</time>
      </trkpt>
      <trkpt lat="9.8960380" lon="-83.8797000">
        <ele>1863.4</ele>
        <time>2020-01-26T19:29:26Z</time>
      </trkpt>
      <trkpt lat="9.8958630" lon="-83.8797060">
        <ele>1862.5</ele>
        <time>2020-01-26T19:29:28Z</time>
      </trkpt>
      <trkpt lat="9.8956990" lon="-83.8796940">
        <ele>1861.2</ele>
        <time>2020-01-26T19:29:30Z</time>
      </trkpt>
      <trkpt lat="9.8956220" lon="-83.8796820">
        <ele>1860.7</ele>
        <time>2020-01-26T19:29:31Z</time>
      </trkpt>
      <trkpt lat="9.8954740" lon="-83.8796480">
        <ele>1859.8</ele>
        <time>2020-01-26T19:29:33Z</time>
      </trkpt>
      <trkpt lat="9.8954000" lon="-83.8796280">
        <ele>1859.4</ele>
        <time>2020-01-26T19:29:34Z</time>
      </trkpt>
      <trkpt lat="9.8952510" lon="-83.8795730">
        <ele>1858.4</ele>
        <time>2020-01-26T19:29:36Z</time>
      </trkpt>
      <trkpt lat="9.8951760" lon="-83.8795390">
        <ele>1857.7</ele>
        <time>2020-01-26T19:29:37Z</time>
      </trkpt>
      <trkpt lat="9.8950380" lon="-83.8794610">
        <ele>1856.2</ele>
        <time>2020-01-26T19:29:39Z</time>
      </trkpt>
      <trkpt lat="9.8949690" lon="-83.8794170">
        <ele>1855.4</ele>
        <time>2020-01-26T19:29:40Z</time>
      </trkpt>
      <trkpt lat="9.8949000" lon="-83.8793700">
        <ele>1854.7</ele>
        <time>2020-01-26T19:29:41Z</time>
      </trkpt>
      <trkpt lat="9.8947720" lon="-83.8792640">
        <ele>1853.3</ele>
        <time>2020-01-26T19:29:43Z</time>
      </trkpt>
      <trkpt lat="9.8946500" lon="-83.8791440">
        <ele>1851.4</ele>
        <time>2020-01-26T19:29:45Z</time>
      </trkpt>
      <trkpt lat="9.8945910" lon="-83.8790800">
        <ele>1850.2</ele>
        <time>2020-01-26T19:29:46Z</time>
      </trkpt>
      <trkpt lat="9.8944600" lon="-83.8789480">
        <ele>1847.7</ele>
        <time>2020-01-26T19:29:48Z</time>
      </trkpt>
      <trkpt lat="9.8943320" lon="-83.8788170">
        <ele>1846.1</ele>
        <time>2020-01-26T19:29:50Z</time>
      </trkpt>
      <trkpt lat="9.8942660" lon="-83.8787450">
        <ele>1845.4</ele>
        <time>2020-01-26T19:29:51Z</time>
      </trkpt>
      <trkpt lat="9.8941380" lon="-83.8786110">
        <ele>1844.0</ele>
        <time>2020-01-26T19:29:53Z</time>
      </trkpt>
      <trkpt lat="9.8940770" lon="-83.8785480">
        <ele>1843.2</ele>
        <time>2020-01-26T19:29:54Z</time>
      </trkpt>
      <trkpt lat="9.8939660" lon="-83.8784320">
        <ele>1842.5</ele>
        <time>2020-01-26T19:29:56Z</time>
      </trkpt>
      <trkpt lat="9.8939190" lon="-83.8783770">
        <ele>1842.1</ele>
        <time>2020-01-26T19:29:57Z</time>
      </trkpt>
      <trkpt lat="9.8938320" lon="-83.8782490">
        <ele>1841.1</ele>
        <time>2020-01-26T19:29:59Z</time>
      </trkpt>
      <trkpt lat="9.8937610" lon="-83.8781040">
        <ele>1840.1</ele>
        <time>2020-01-26T19:30:01Z</time>
      </trkpt>
      <trkpt lat="9.8936960" lon="-83.8779420">
        <ele>1838.6</ele>
        <time>2020-01-26T19:30:03Z</time>
      </trkpt>
      <trkpt lat="9.8936300" lon="-83.8777710">
        <ele>1837.1</ele>
        <time>2020-01-26T19:30:05Z</time>
      </trkpt>
      <trkpt lat="9.8935960" lon="-83.8776830">
        <ele>1836.5</ele>
        <time>2020-01-26T19:30:06Z</time>
      </trkpt>
      <trkpt lat="9.8935210" lon="-83.8775080">
        <ele>1835.2</ele>
        <time>2020-01-26T19:30:08Z</time>
      </trkpt>
      <trkpt lat="9.8934530" lon="-83.8773340">
        <ele>1833.8</ele>
        <time>2020-01-26T19:30:10Z</time>
      </trkpt>
      <trkpt lat="9.8933840" lon="-83.8771660">
        <ele>1832.4</ele>
        <time>2020-01-26T19:30:12Z</time>
      </trkpt>
      <trkpt lat="9.8933550" lon="-83.8770890">
        <ele>1831.7</ele>
        <time>2020-01-26T19:30:13Z</time>
      </trkpt>
      <trkpt lat="9.8932940" lon="-83.8769440">
        <ele>1830.5</ele>
        <time>2020-01-26T19:30:15Z</time>
      </trkpt>
      <trkpt lat="9.8932630" lon="-83.8768700">
        <ele>1829.9</ele>
        <time>2020-01-26T19:30:16Z</time>
      </trkpt>
      <trkpt lat="9.8932330" lon="-83.8767960">
        <ele>1829.4</ele>
        <time>2020-01-26T19:30:17Z</time>
      </trkpt>
      <trkpt lat="9.8931580" lon="-83.8766480">
        <ele>1828.4</ele>
        <time>2020-01-26T19:30:19Z</time>
      </trkpt>
      <trkpt lat="9.8930630" lon="-83.8765110">
        <ele>1827.5</ele>
        <time>2020-01-26T19:30:21Z</time>
      </trkpt>
      <trkpt lat="9.8929280" lon="-83.8764150">
        <ele>1825.6</ele>
        <time>2020-01-26T19:30:23Z</time>
      </trkpt>
      <trkpt lat="9.8928500" lon="-83.8763810">
        <ele>1824.2</ele>
        <time>2020-01-26T19:30:24Z</time>
      </trkpt>
      <trkpt lat="9.8926870" lon="-83.8763370">
        <ele>1821.5</ele>
        <time>2020-01-26T19:30:26Z</time>
      </trkpt>
      <trkpt lat="9.8925270" lon="-83.8763430">
        <ele>1819.5</ele>
        <time>2020-01-26T19:30:28Z</time>
      </trkpt>
      <trkpt lat="9.8924530" lon="-83.8763610">
        <ele>1818.7</ele>
        <time>2020-01-26T19:30:29Z</time>
      </trkpt>
      <trkpt lat="9.8923820" lon="-83.8763910">
        <ele>1817.9</ele>
        <time>2020-01-26T19:30:30Z</time>
      </trkpt>
      <trkpt lat="9.8922490" lon="-83.8764790">
        <ele>1816.4</ele>
        <time>2020-01-26T19:30:32Z</time>
      </trkpt>
      <trkpt lat="9.8921260" lon="-83.8765980">
        <ele>1815.1</ele>
        <time>2020-01-26T19:30:34Z</time>
      </trkpt>
      <trkpt lat="9.8920060" lon="-83.8767200">
        <ele>1814.2</ele>
        <time>2020-01-26T19:30:36Z</time>
      </trkpt>
      <trkpt lat="9.8919440" lon="-83.8767790">
        <ele>1813.9</ele>
        <time>2020-01-26T19:30:37Z</time>
      </trkpt>
      <trkpt lat="9.8918780" lon="-83.8768390">
        <ele>1813.7</ele>
        <time>2020-01-26T19:30:38Z</time>
      </trkpt>
      <trkpt lat="9.8917440" lon="-83.8769480">
        <ele>1813.1</ele>
        <time>2020-01-26T19:30:40Z</time>
      </trkpt>
      <trkpt lat="9.8916760" lon="-83.8769990">
        <ele>1812.7</ele>
        <time>2020-01-26T19:30:41Z</time>
      </trkpt>
      <trkpt lat="9.8916030" lon="-83.8770440">
        <ele>1812.4</ele>
        <time>2020-01-26T19:30:42Z</time>
      </trkpt>
      <trkpt lat="9.8914500" lon="-83.8771260">
        <ele>1811.8</ele>
        <time>2020-01-26T19:30:44Z</time>
      </trkpt>
      <trkpt lat="9.8912820" lon="-83.8772040">
        <ele>1811.3</ele>
        <time>2020-01-26T19:30:46Z</time>
      </trkpt>
      <trkpt lat="9.8911940" lon="-83.8772410">
        <ele>1811.1</ele>
        <time>2020-01-26T19:30:47Z</time>
      </trkpt>
      <trkpt lat="9.8911030" lon="-83.8772750">
        <ele>1810.8</ele>
        <time>2020-01-26T19:30:48Z</time>
      </trkpt>
      <trkpt lat="9.8909140" lon="-83.8773320">
        <ele>1810.4</ele>
        <time>2020-01-26T19:30:50Z</time>
      </trkpt>
      <trkpt lat="9.8907220" lon="-83.8773860">
        <ele>1809.7</ele>
        <time>2020-01-26T19:30:52Z</time>
      </trkpt>
      <trkpt lat="9.8905360" lon="-83.8774380">
        <ele>1809.0</ele>
        <time>2020-01-26T19:30:54Z</time>
      </trkpt>
      <trkpt lat="9.8904490" lon="-83.8774640">
        <ele>1808.7</ele>
        <time>2020-01-26T19:30:55Z</time>
      </trkpt>
      <trkpt lat="9.8902830" lon="-83.8775230">
        <ele>1807.5</ele>
        <time>2020-01-26T19:30:57Z</time>
      </trkpt>
      <trkpt lat="9.8902070" lon="-83.8775660">
        <ele>1806.8</ele>
        <time>2020-01-26T19:30:58Z</time>
      </trkpt>
      <trkpt lat="9.8900690" lon="-83.8776670">
        <ele>1805.5</ele>
        <time>2020-01-26T19:31:00Z</time>
      </trkpt>
      <trkpt lat="9.8899310" lon="-83.8777790">
        <ele>1804.1</ele>
        <time>2020-01-26T19:31:02Z</time>
      </trkpt>
      <trkpt lat="9.8897940" lon="-83.8778920">
        <ele>1802.7</ele>
        <time>2020-01-26T19:31:04Z</time>
      </trkpt>
      <trkpt lat="9.8896680" lon="-83.8780110">
        <ele>1801.4</ele>
        <time>2020-01-26T19:31:06Z</time>
      </trkpt>
      <trkpt lat="9.8895440" lon="-83.8781140">
        <ele>1800.6</ele>
        <time>2020-01-26T19:31:08Z</time>
      </trkpt>
      <trkpt lat="9.8894820" lon="-83.8781670">
        <ele>1800.2</ele>
        <time>2020-01-26T19:31:09Z</time>
      </trkpt>
      <trkpt lat="9.8893680" lon="-83.8782700">
        <ele>1799.2</ele>
        <time>2020-01-26T19:31:11Z</time>
      </trkpt>
      <trkpt lat="9.8892630" lon="-83.8783810">
        <ele>1798.2</ele>
        <time>2020-01-26T19:31:13Z</time>
      </trkpt>
      <trkpt lat="9.8892160" lon="-83.8784470">
        <ele>1797.7</ele>
        <time>2020-01-26T19:31:14Z</time>
      </trkpt>
      <trkpt lat="9.8891530" lon="-83.8785980">
        <ele>1796.9</ele>
        <time>2020-01-26T19:31:16Z</time>
      </trkpt>
      <trkpt lat="9.8891170" lon="-83.8787590">
        <ele>1795.9</ele>
        <time>2020-01-26T19:31:18Z</time>
      </trkpt>
      <trkpt lat="9.8890850" lon="-83.8789340">
        <ele>1794.4</ele>
        <time>2020-01-26T19:31:20Z</time>
      </trkpt>
      <trkpt lat="9.8890460" lon="-83.8791200">
        <ele>1793.6</ele>
        <time>2020-01-26T19:31:22Z</time>
      </trkpt>
      <trkpt lat="9.8890160" lon="-83.8793080">
        <ele>1792.9</ele>
        <time>2020-01-26T19:31:24Z</time>
      </trkpt>
      <trkpt lat="9.8890010" lon="-83.8794040">
        <ele>1792.4</ele>
        <time>2020-01-26T19:31:25Z</time>
      </trkpt>
      <trkpt lat="9.8889840" lon="-83.8795040">
        <ele>1791.9</ele>
        <time>2020-01-26T19:31:26Z</time>
      </trkpt>
      <trkpt lat="9.8889690" lon="-83.8796030">
        <ele>1791.7</ele>
        <time>2020-01-26T19:31:27Z</time>
      </trkpt>
      <trkpt lat="9.8889360" lon="-83.8797970">
        <ele>1791.4</ele>
        <time>2020-01-26T19:31:29Z</time>
      </trkpt>
      <trkpt lat="9.8889240" lon="-83.8798960">
        <ele>1791.4</ele>
        <time>2020-01-26T19:31:30Z</time>
      </trkpt>
      <trkpt lat="9.8889180" lon="-83.8800880">
        <ele>1791.3</ele>
        <time>2020-01-26T19:31:32Z</time>
      </trkpt>
      <trkpt lat="9.8889170" lon="-83.8802800">
        <ele>1791.2</ele>
        <time>2020-01-26T19:31:34Z</time>
      </trkpt>
      <trkpt lat="9.8889140" lon="-83.8803780">
        <ele>1791.0</ele>
        <time>2020-01-26T19:31:35Z</time>
      </trkpt>
      <trkpt lat="9.8889100" lon="-83.8805700">
        <ele>1790.7</ele>
        <time>2020-01-26T19:31:37Z</time>
      </trkpt>
      <trkpt lat="9.8889110" lon="-83.8806640">
        <ele>1790.6</ele>
        <time>2020-01-26T19:31:38Z</time>
      </trkpt>
      <trkpt lat="9.8889080" lon="-83.8808510">
        <ele>1790.5</ele>
        <time>2020-01-26T19:31:40Z</time>
      </trkpt>
      <trkpt lat="9.8889030" lon="-83.8810370">
        <ele>1790.5</ele>
        <time>2020-01-26T19:31:42Z</time>
      </trkpt>
      <trkpt lat="9.8889040" lon="-83.8812120">
        <ele>1790.5</ele>
        <time>2020-01-26T19:31:44Z</time>
      </trkpt>
      <trkpt lat="9.8889000" lon="-83.8812970">
        <ele>1790.5</ele>
        <time>2020-01-26T19:31:45Z</time>
      </trkpt>
      <trkpt lat="9.8888970" lon="-83.8814520">
        <ele>1790.4</ele>
        <time>2020-01-26T19:31:47Z</time>
      </trkpt>
      <trkpt lat="9.8888980" lon="-83.8815220">
        <ele>1790.3</ele>
        <time>2020-01-26T19:31:48Z</time>
      </trkpt>
      <trkpt lat="9.8888960" lon="-83.8816500">
        <ele>1790.1</ele>
        <time>2020-01-26T19:31:50Z</time>
      </trkpt>
      <trkpt lat="9.8888950" lon="-83.8817080">
        <ele>1790.0</ele>
        <time>2020-01-26T19:31:51Z</time>
      </trkpt>
      <trkpt lat="9.8888960" lon="-83.8817650">
        <ele>1789.9</ele>
        <time>2020-01-26T19:31:52Z</time>
      </trkpt>
      <trkpt lat="9.8888950" lon="-83.8818190">
        <ele>1789.8</ele>
        <time>2020-01-26T19:31:53Z</time>
      </trkpt>
      <trkpt lat="9.8888970" lon="-83.8818740">
        <ele>1789.6</ele>
        <time>2020-01-26T19:31:54Z</time>
      </trkpt>
      <trkpt lat="9.8888990" lon="-83.8819910">
        <ele>1789.3</ele>
        <time>2020-01-26T19:31:56Z</time>
      </trkpt>
      <trkpt lat="9.8888980" lon="-83.8821080">
        <ele>1789.1</ele>
        <time>2020-01-26T19:31:58Z</time>
      </trkpt>
      <trkpt lat="9.8888970" lon="-83.8821560">
        <ele>1789.0</ele>
        <time>2020-01-26T19:31:59Z</time>
      </trkpt>
      <trkpt lat="9.8888960" lon="-83.8822460">
        <ele>1788.8</ele>
        <time>2020-01-26T19:32:01Z</time>
      </trkpt>
      <trkpt lat="9.8888990" lon="-83.8823410">
        <ele>1788.6</ele>
        <time>2020-01-26T19:32:03Z</time>
      </trkpt>
      <trkpt lat="9.8888940" lon="-83.8824300">
        <ele>1788.1</ele>
        <time>2020-01-26T19:32:05Z</time>
      </trkpt>
      <trkpt lat="9.8888980" lon="-83.8824920">
        <ele>1787.7</ele>
        <time>2020-01-26T19:32:07Z</time>
      </trkpt>
      <trkpt lat="9.8888960" lon="-83.8825460">
        <ele>1787.3</ele>
        <time>2020-01-26T19:32:09Z</time>
      </trkpt>
      <trkpt lat="9.8888790" lon="-83.8825740">
        <ele>1787.1</ele>
        <time>2020-01-26T19:32:10Z</time>
      </trkpt>
      <trkpt lat="9.8888350" lon="-83.8826270">
        <ele>1786.7</ele>
        <time>2020-01-26T19:32:12Z</time>
      </trkpt>
      <trkpt lat="9.8888320" lon="-83.8826370">
        <ele>1786.7</ele>
        <time>2020-01-26T19:32:13Z</time>
      </trkpt>
      <trkpt lat="9.8888180" lon="-83.8826390">
        <ele>1786.6</ele>
        <time>2020-01-26T19:32:14Z</time>
      </trkpt>
      <trkpt lat="9.8888200" lon="-83.8826770">
        <ele>1786.4</ele>
        <time>2020-01-26T19:32:16Z</time>
      </trkpt>
      <trkpt lat="9.8888130" lon="-83.8827100">
        <ele>1786.3</ele>
        <time>2020-01-26T19:32:17Z</time>
      </trkpt>
      <trkpt lat="9.8888090" lon="-83.8827420">
        <ele>1786.2</ele>
        <time>2020-01-26T19:32:18Z</time>
      </trkpt>
      <trkpt lat="9.8888060" lon="-83.8827730">
        <ele>1786.0</ele>
        <time>2020-01-26T19:32:19Z</time>
      </trkpt>
      <trkpt lat="9.8888120" lon="-83.8828250">
        <ele>1785.8</ele>
        <time>2020-01-26T19:32:21Z</time>
      </trkpt>
      <trkpt lat="9.8888100" lon="-83.8828550">
        <ele>1785.6</ele>
        <time>2020-01-26T19:32:22Z</time>
      </trkpt>
      <trkpt lat="9.8888060" lon="-83.8828940">
        <ele>1785.4</ele>
        <time>2020-01-26T19:32:24Z</time>
      </trkpt>
      <trkpt lat="9.8887990" lon="-83.8829290">
        <ele>1785.2</ele>
        <time>2020-01-26T19:32:25Z</time>
      </trkpt>
      <trkpt lat="9.8887930" lon="-83.8829380">
        <ele>1785.1</ele>
        <time>2020-01-26T19:32:26Z</time>
      </trkpt>
      <trkpt lat="9.8887780" lon="-83.8829560">
        <ele>1785.0</ele>
        <time>2020-01-26T19:32:28Z</time>
      </trkpt>
      <trkpt lat="9.8887770" lon="-83.8829600">
        <ele>1784.9</ele>
        <time>2020-01-26T19:32:29Z</time>
      </trkpt>
      <trkpt lat="9.8887770" lon="-83.8829630">
        <ele>1784.9</ele>
        <time>2020-01-26T19:32:31Z</time>
      </trkpt>
      <trkpt lat="9.8887770" lon="-83.8829660">
        <ele>1784.9</ele>
        <time>2020-01-26T19:32:33Z</time>
      </trkpt>
      <trkpt lat="9.8887760" lon="-83.8829700">
        <ele>1784.9</ele>
        <time>2020-01-26T19:32:35Z</time>
      </trkpt>
      <trkpt lat="9.8887760" lon="-83.8829730">
        <ele>1784.9</ele>
        <time>2020-01-26T19:32:36Z</time>
      </trkpt>
      <trkpt lat="9.8887760" lon="-83.8829770">
        <ele>1784.8</ele>
        <time>2020-01-26T19:32:38Z</time>
      </trkpt>
      <trkpt lat="9.8887750" lon="-83.8829800">
        <ele>1784.8</ele>
        <time>2020-01-26T19:32:40Z</time>
      </trkpt>
      <trkpt lat="9.8887750" lon="-83.8829830">
        <ele>1784.8</ele>
        <time>2020-01-26T19:32:42Z</time>
      </trkpt>
      <trkpt lat="9.8887740" lon="-83.8829870">
        <ele>1784.8</ele>
        <time>2020-01-26T19:32:43Z</time>
      </trkpt>
      <trkpt lat="9.8887740" lon="-83.8829900">
        <ele>1784.8</ele>
        <time>2020-01-26T19:32:44Z</time>
      </trkpt>
      <trkpt lat="9.8887740" lon="-83.8829930">
        <ele>1784.7</ele>
        <time>2020-01-26T19:32:46Z</time>
      </trkpt>
      <trkpt lat="9.8887730" lon="-83.8829970">
        <ele>1784.7</ele>
        <time>2020-01-26T19:32:47Z</time>
      </trkpt>
      <trkpt lat="9.8887730" lon="-83.8830000">
        <ele>1784.7</ele>
        <time>2020-01-26T19:32:48Z</time>
      </trkpt>
      <trkpt lat="9.8887750" lon="-83.8830100">
        <ele>1784.6</ele>
        <time>2020-01-26T19:32:49Z</time>
      </trkpt>
      <trkpt lat="9.8887760" lon="-83.8830230">
        <ele>1784.6</ele>
        <time>2020-01-26T19:32:51Z</time>
      </trkpt>
      <trkpt lat="9.8887710" lon="-83.8830280">
        <ele>1784.5</ele>
        <time>2020-01-26T19:32:52Z</time>
      </trkpt>
      <trkpt lat="9.8887680" lon="-83.8830310">
        <ele>1784.5</ele>
        <time>2020-01-26T19:32:53Z</time>
      </trkpt>
      <trkpt lat="9.8887630" lon="-83.8830350">
        <ele>1784.5</ele>
        <time>2020-01-26T19:32:54Z</time>
      </trkpt>
      <trkpt lat="9.8887630" lon="-83.8830370">
        <ele>1784.5</ele>
        <time>2020-01-26T19:32:56Z</time>
      </trkpt>
      <trkpt lat="9.8887620" lon="-83.8830380">
        <ele>1784.4</ele>
        <time>2020-01-26T19:32:57Z</time>
      </trkpt>
      <trkpt lat="9.8887620" lon="-83.8830380">
        <ele>1784.4</ele>
        <time>2020-01-26T19:32:59Z</time>
      </trkpt>
      <trkpt lat="9.8917810" lon="-83.8825640">
        <ele>1817.6</ele>
        <time>2020-01-26T19:33:00Z</time>
      </trkpt>
      <trkpt lat="9.8908450" lon="-83.8827760">
        <ele>1805.6</ele>
        <time>2020-01-26T19:33:02Z</time>
      </trkpt>
      <trkpt lat="9.8899100" lon="-83.8829870">
        <ele>1791.5</ele>
        <time>2020-01-26T19:33:03Z</time>
      </trkpt>
      <trkpt lat="9.8889740" lon="-83.8831980">
        <ele>1782.9</ele>
        <time>2020-01-26T19:33:05Z</time>
      </trkpt>
      <trkpt lat="9.8889300" lon="-83.8831630">
        <ele>1783.1</ele>
        <time>2020-01-26T19:33:07Z</time>
      </trkpt>
      <trkpt lat="9.8888880" lon="-83.8831270">
        <ele>1783.3</ele>
        <time>2020-01-26T19:33:09Z</time>
      </trkpt>
      <trkpt lat="9.8888450" lon="-83.8830920">
        <ele>1783.4</ele>
        <time>2020-01-26T19:33:10Z</time>
      </trkpt>
      <trkpt lat="9.8888030" lon="-83.8830560">
        <ele>1783.6</ele>
        <time>2020-01-26T19:33:11Z</time>
      </trkpt>
      <trkpt lat="9.8887600" lon="-83.8830210">
        <ele>1783.8</ele>
        <time>2020-01-26T19:33:13Z</time>
      </trkpt>
      <trkpt lat="9.8887490" lon="-83.8830120">
        <ele>1783.8</ele>
        <time>2020-01-26T19:33:14Z</time>
      </trkpt>
      <trkpt lat="9.8887470" lon="-83.8830090">
        <ele>1783.8</ele>
        <time>2020-01-26T19:33:16Z</time>
      </trkpt>
      <trkpt lat="9.8887480" lon="-83.8830110">
        <ele>1783.8</ele>
        <time>2020-01-26T19:33:17Z</time>
      </trkpt>
      <trkpt lat="9.8887500" lon="-83.8830130">
        <ele>1783.8</ele>
        <time>2020-01-26T19:33:19Z</time>
      </trkpt>
      <trkpt lat="9.8887520" lon="-83.8830140">
        <ele>1783.8</ele>
        <time>2020-01-26T19:33:20Z</time>
      </trkpt>
      <trkpt lat="9.8887530" lon="-83.8830170">
        <ele>1783.9</ele>
        <time>2020-01-26T19:33:22Z</time>
      </trkpt>
      <trkpt lat="9.8887530" lon="-83.8830150">
        <ele>1783.9</ele>
        <time>2020-01-26T19:33:24Z</time>
      </trkpt>
      <trkpt lat="9.8887540" lon="-83.8830150">
        <ele>1783.9</ele>
        <time>2020-01-26T19:33:25Z</time>
      </trkpt>
      <trkpt lat="9.8887550" lon="-83.8830130">
        <ele>1783.9</ele>
        <time>2020-01-26T19:33:26Z</time>
      </trkpt>
      <trkpt lat="9.8887570" lon="-83.8830110">
        <ele>1783.9</ele>
        <time>2020-01-26T19:33:28Z</time>
      </trkpt>
      <trkpt lat="9.8887560" lon="-83.8830110">
        <ele>1783.9</ele>
        <time>2020-01-26T19:33:30Z</time>
      </trkpt>
      <trkpt lat="9.8887570" lon="-83.8830120">
        <ele>1783.9</ele>
        <time>2020-01-26T19:33:32Z</time>
      </trkpt>
      <trkpt lat="9.8887580" lon="-83.8830120">
        <ele>1783.9</ele>
        <time>2020-01-26T19:33:33Z</time>
      </trkpt>
      <trkpt lat="9.8887580" lon="-83.8830120">
        <ele>1783.9</ele>
        <time>2020-01-26T19:33:34Z</time>
      </trkpt>
      <trkpt lat="9.8887590" lon="-83.8830130">
        <ele>1783.9</ele>
        <time>2020-01-26T19:33:36Z</time>
      </trkpt>
      <trkpt lat="9.8887600" lon="-83.8830110">
        <ele>1783.9</ele>
        <time>2020-01-26T19:33:37Z</time>
      </trkpt>
      <trkpt lat="9.8887640" lon="-83.8830090">
        <ele>1784.0</ele>
        <time>2020-01-26T19:33:39Z</time>
      </trkpt>
      <trkpt lat="9.8887670" lon="-83.8830100">
        <ele>1784.0</ele>
        <time>2020-01-26T19:33:41Z</time>
      </trkpt>
      <trkpt lat="9.8887680" lon="-83.8830120">
        <ele>1784.0</ele>
        <time>2020-01-26T19:33:43Z</time>
      </trkpt>
      <trkpt lat="9.8887660" lon="-83.8830130">
        <ele>1784.0</ele>
        <time>2020-01-26T19:33:45Z</time>
      </trkpt>
      <trkpt lat="9.8887620" lon="-83.8830140">
        <ele>1784.0</ele>
        <time>2020-01-26T19:33:47Z</time>
      </trkpt>
      <trkpt lat="9.8887610" lon="-83.8830140">
        <ele>1784.0</ele>
        <time>2020-01-26T19:33:49Z</time>
      </trkpt>
      <trkpt lat="9.8887600" lon="-83.8830140">
        <ele>1784.0</ele>
        <time>2020-01-26T19:33:51Z</time>
      </trkpt>
      <trkpt lat="9.8887600" lon="-83.8830150">
        <ele>1784.0</ele>
        <time>2020-01-26T19:33:53Z</time>
      </trkpt>
      <trkpt lat="9.8887590" lon="-83.8830150">
        <ele>1784.0</ele>
        <time>2020-01-26T19:33:54Z</time>
      </trkpt>
      <trkpt lat="9.8887590" lon="-83.8830150">
        <ele>1784.0</ele>
        <time>2020-01-26T19:33:56Z</time>
      </trkpt>
      <trkpt lat="9.8887600" lon="-83.8830140">
        <ele>1784.0</ele>
        <time>2020-01-26T19:33:57Z</time>
      </trkpt>
      <trkpt lat="9.8887610" lon="-83.8830140">
        <ele>1784.0</ele>
        <time>2020-01-26T19:33:58Z</time>
      </trkpt>
      <trkpt lat="9.8887620" lon="-83.8830150">
        <ele>1784.0</ele>
        <time>2020-01-26T19:34:00Z</time>
      </trkpt>
      <trkpt lat="9.8887580" lon="-83.8830220">
        <ele>1784.1</ele>
        <time>2020-01-26T19:34:01Z</time>
      </trkpt>
      <trkpt lat="9.8887570" lon="-83.8830260">
        <ele>1784.1</ele>
        <time>2020-01-26T19:34:02Z</time>
      </trkpt>
      <trkpt lat="9.8887570" lon="-83.8830330">
        <ele>1784.1</ele>
        <time>2020-01-26T19:34:04Z</time>
      </trkpt>
      <trkpt lat="9.8887620" lon="-83.8830350">
        <ele>1784.2</ele>
        <time>2020-01-26T19:34:06Z</time>
      </trkpt>
      <trkpt lat="9.8887690" lon="-83.8830340">
        <ele>1784.2</ele>
        <time>2020-01-26T19:34:08Z</time>
      </trkpt>
      <trkpt lat="9.8887730" lon="-83.8830360">
        <ele>1784.2</ele>
        <time>2020-01-26T19:34:09Z</time>
      </trkpt>
      <trkpt lat="9.8887770" lon="-83.8830370">
        <ele>1784.2</ele>
        <time>2020-01-26T19:34:12Z</time>
      </trkpt>
      <trkpt lat="9.8887800" lon="-83.8830390">
        <ele>1784.2</ele>
        <time>2020-01-26T19:34:13Z</time>
      </trkpt>
      <trkpt lat="9.8887780" lon="-83.8830380">
        <ele>1784.3</ele>
        <time>2020-01-26T19:34:15Z</time>
      </trkpt>
      <trkpt lat="9.8887800" lon="-83.8830390">
        <ele>1784.3</ele>
        <time>2020-01-26T19:34:16Z</time>
      </trkpt>
      <trkpt lat="9.8887720" lon="-83.8830380">
        <ele>1784.3</ele>
        <time>2020-01-26T19:34:18Z</time>
      </trkpt>
      <trkpt lat="9.8887710" lon="-83.8830380">
        <ele>1784.3</ele>
        <time>2020-01-26T19:34:19Z</time>
      </trkpt>
      <trkpt lat="9.8887690" lon="-83.8830380">
        <ele>1784.3</ele>
        <time>2020-01-26T19:34:21Z</time>
      </trkpt>
      <trkpt lat="9.8887690" lon="-83.8830380">
        <ele>1784.3</ele>
        <time>2020-01-26T19:34:22Z</time>
      </trkpt>
      <trkpt lat="9.8887680" lon="-83.8830380">
        <ele>1784.3</ele>
        <time>2020-01-26T19:34:23Z</time>
      </trkpt>
      <trkpt lat="9.8887660" lon="-83.8830390">
        <ele>1784.3</ele>
        <time>2020-01-26T19:34:24Z</time>
      </trkpt>
      <trkpt lat="9.8887650" lon="-83.8830400">
        <ele>1784.3</ele>
        <time>2020-01-26T19:34:26Z</time>
      </trkpt>
      <trkpt lat="9.8887640" lon="-83.8830400">
        <ele>1784.3</ele>
        <time>2020-01-26T19:34:28Z</time>
      </trkpt>
      <trkpt lat="9.8887640" lon="-83.8830400">
        <ele>1784.3</ele>
        <time>2020-01-26T19:34:29Z</time>
      </trkpt>
      <trkpt lat="9.8887650" lon="-83.8830410">
        <ele>1784.3</ele>
        <time>2020-01-26T19:34:31Z</time>
      </trkpt>
      <trkpt lat="9.8887670" lon="-83.8830420">
        <ele>1784.4</ele>
        <time>2020-01-26T19:34:32Z</time>
      </trkpt>
      <trkpt lat="9.8887680" lon="-83.8830420">
        <ele>1784.4</ele>
        <time>2020-01-26T19:34:34Z</time>
      </trkpt>
      <trkpt lat="9.8887670" lon="-83.8830410">
        <ele>1784.4</ele>
        <time>2020-01-26T19:34:35Z</time>
      </trkpt>
      <trkpt lat="9.8887690" lon="-83.8830410">
        <ele>1784.4</ele>
        <time>2020-01-26T19:34:37Z</time>
      </trkpt>
      <trkpt lat="9.8887660" lon="-83.8830370">
        <ele>1784.4</ele>
        <time>2020-01-26T19:34:39Z</time>
      </trkpt>
      <trkpt lat="9.8887640" lon="-83.8830330">
        <ele>1784.4</ele>
        <time>2020-01-26T19:34:41Z</time>
      </trkpt>
      <trkpt lat="9.8887640" lon="-83.8830330">
        <ele>1784.4</ele>
        <time>2020-01-26T19:34:42Z</time>
      </trkpt>
      <trkpt lat="9.8887640" lon="-83.8830330">
        <ele>1784.4</ele>
        <time>2020-01-26T19:34:43Z</time>
      </trkpt>
      <trkpt lat="9.8887630" lon="-83.8830360">
        <ele>1784.4</ele>
        <time>2020-01-26T19:34:44Z</time>
      </trkpt>
      <trkpt lat="9.8887620" lon="-83.8830400">
        <ele>1784.4</ele>
        <time>2020-01-26T19:34:46Z</time>
      </trkpt>
      <trkpt lat="9.8887610" lon="-83.8830420">
        <ele>1784.4</ele>
        <time>2020-01-26T19:34:47Z</time>
      </trkpt>
      <trkpt lat="9.8887640" lon="-83.8830410">
        <ele>1784.5</ele>
        <time>2020-01-26T19:34:48Z</time>
      </trkpt>
      <trkpt lat="9.8887680" lon="-83.8830380">
        <ele>1784.5</ele>
        <time>2020-01-26T19:34:50Z</time>
      </trkpt>
      <trkpt lat="9.8887680" lon="-83.8830380">
        <ele>1784.5</ele>
        <time>2020-01-26T19:34:51Z</time>
      </trkpt>
      <trkpt lat="9.8887680" lon="-83.8830400">
        <ele>1784.5</ele>
        <time>2020-01-26T19:34:53Z</time>
      </trkpt>
      <trkpt lat="9.8887660" lon="-83.8830410">
        <ele>1784.5</ele>
        <time>2020-01-26T19:34:54Z</time>
      </trkpt>
      <trkpt lat="9.8887650" lon="-83.8830410">
        <ele>1784.5</ele>
        <time>2020-01-26T19:34:56Z</time>
      </trkpt>
      <trkpt lat="9.8887650" lon="-83.8830410">
        <ele>1784.5</ele>
        <time>2020-01-26T19:34:58Z</time>
      </trkpt>
      <trkpt lat="9.8887680" lon="-83.8830390">
        <ele>1784.5</ele>
        <time>2020-01-26T19:34:59Z</time>
      </trkpt>
      <trkpt lat="9.8887680" lon="-83.8830330">
        <ele>1784.5</ele>
        <time>2020-01-26T19:35:00Z</time>
      </trkpt>
      <trkpt lat="9.8887670" lon="-83.8830290">
        <ele>1784.5</ele>
        <time>2020-01-26T19:35:01Z</time>
      </trkpt>
      <trkpt lat="9.8915760" lon="-83.8826630">
        <ele>1815.3</ele>
        <time>2020-01-26T19:35:03Z</time>
      </trkpt>
      <trkpt lat="9.8915760" lon="-83.8826570">
        <ele>1815.4</ele>
        <time>2020-01-26T19:35:05Z</time>
      </trkpt>
      <trkpt lat="9.8915750" lon="-83.8826540">
        <ele>1815.4</ele>
        <time>2020-01-26T19:35:06Z</time>
      </trkpt>
      <trkpt lat="9.8915750" lon="-83.8826510">
        <ele>1815.4</ele>
        <time>2020-01-26T19:35:08Z</time>
      </trkpt>
      <trkpt lat="9.8915750" lon="-83.8826520">
        <ele>1815.4</ele>
        <time>2020-01-26T19:35:10Z</time>
      </trkpt>
      <trkpt lat="9.8887740" lon="-83.8830440">
        <ele>1784.4</ele>
        <time>2020-01-26T19:35:11Z</time>
      </trkpt>
      <trkpt lat="9.8887720" lon="-83.8830440">
        <ele>1784.4</ele>
        <time>2020-01-26T19:35:12Z</time>
      </trkpt>
      <trkpt lat="9.8887720" lon="-83.8830420">
        <ele>1784.4</ele>
        <time>2020-01-26T19:35:14Z</time>
      </trkpt>
      <trkpt lat="9.8887710" lon="-83.8830410">
        <ele>1784.3</ele>
        <time>2020-01-26T19:35:15Z</time>
      </trkpt>
      <trkpt lat="9.8887700" lon="-83.8830390">
        <ele>1784.3</ele>
        <time>2020-01-26T19:35:17Z</time>
      </trkpt>
      <trkpt lat="9.8887700" lon="-83.8830390">
        <ele>1784.3</ele>
        <time>2020-01-26T19:35:18Z</time>
      </trkpt>
      <trkpt lat="9.8887710" lon="-83.8830390">
        <ele>1784.3</ele>
        <time>2020-01-26T19:35:20Z</time>
      </trkpt>
      <trkpt lat="9.8887710" lon="-83.8830390">
        <ele>1784.3</ele>
        <time>2020-01-26T19:35:22Z</time>
      </trkpt>
      <trkpt lat="9.8887710" lon="-83.8830400">
        <ele>1784.3</ele>
        <time>2020-01-26T19:35:23Z</time>
      </trkpt>
      <trkpt lat="9.8887720" lon="-83.8830400">
        <ele>1784.3</ele>
        <time>2020-01-26T19:35:25Z</time>
      </trkpt>
      <trkpt lat="9.8887720" lon="-83.8830400">
        <ele>1784.3</ele>
        <time>2020-01-26T19:35:26Z</time>
      </trkpt>
      <trkpt lat="9.8887720" lon="-83.8830400">
        <ele>1784.3</ele>
        <time>2020-01-26T19:35:28Z</time>
      </trkpt>
      <trkpt lat="9.8887730" lon="-83.8830400">
        <ele>1784.3</ele>
        <time>2020-01-26T19:35:29Z</time>
      </trkpt>
      <trkpt lat="9.8887730" lon="-83.8830400">
        <ele>1784.3</ele>
        <time>2020-01-26T19:35:30Z</time>
      </trkpt>
      <trkpt lat="9.8887730" lon="-83.8830400">
        <ele>1784.3</ele>
        <time>2020-01-26T19:35:32Z</time>
      </trkpt>
      <trkpt lat="9.8887740" lon="-83.8830410">
        <ele>1784.3</ele>
        <time>2020-01-26T19:35:34Z</time>
      </trkpt>
      <trkpt lat="9.8887740" lon="-83.8830410">
        <ele>1784.3</ele>
        <time>2020-01-26T19:35:35Z</time>
      </trkpt>
      <trkpt lat="9.8887740" lon="-83.8830410">
        <ele>1784.3</ele>
        <time>2020-01-26T19:35:37Z</time>
      </trkpt>
      <trkpt lat="9.8887750" lon="-83.8830410">
        <ele>1784.3</ele>
        <time>2020-01-26T19:35:38Z</time>
      </trkpt>
      <trkpt lat="9.8887750" lon="-83.8830410">
        <ele>1784.3</ele>
        <time>2020-01-26T19:35:39Z</time>
      </trkpt>
      <trkpt lat="9.8887750" lon="-83.8830410">
        <ele>1784.3</ele>
        <time>2020-01-26T19:35:41Z</time>
      </trkpt>
      <trkpt lat="9.8887760" lon="-83.8830410">
        <ele>1784.3</ele>
        <time>2020-01-26T19:35:42Z</time>
      </trkpt>
      <trkpt lat="9.8887760" lon="-83.8830420">
        <ele>1784.3</ele>
        <time>2020-01-26T19:35:44Z</time>
      </trkpt>
      <trkpt lat="9.8887760" lon="-83.8830420">
        <ele>1784.3</ele>
        <time>2020-01-26T19:35:45Z</time>
      </trkpt>
      <trkpt lat="9.8887770" lon="-83.8830420">
        <ele>1784.3</ele>
        <time>2020-01-26T19:35:47Z</time>
      </trkpt>
      <trkpt lat="9.8887770" lon="-83.8830420">
        <ele>1784.3</ele>
        <time>2020-01-26T19:35:49Z</time>
      </trkpt>
      <trkpt lat="9.8887770" lon="-83.8830420">
        <ele>1784.3</ele>
        <time>2020-01-26T19:35:50Z</time>
      </trkpt>
      <trkpt lat="9.8887780" lon="-83.8830420">
        <ele>1784.2</ele>
        <time>2020-01-26T19:35:52Z</time>
      </trkpt>
      <trkpt lat="9.8887780" lon="-83.8830420">
        <ele>1784.2</ele>
        <time>2020-01-26T19:35:53Z</time>
      </trkpt>
      <trkpt lat="9.8887780" lon="-83.8830430">
        <ele>1784.2</ele>
        <time>2020-01-26T19:35:55Z</time>
      </trkpt>
      <trkpt lat="9.8887790" lon="-83.8830430">
        <ele>1784.2</ele>
        <time>2020-01-26T19:35:57Z</time>
      </trkpt>
      <trkpt lat="9.8887790" lon="-83.8830430">
        <ele>1784.2</ele>
        <time>2020-01-26T19:35:59Z</time>
      </trkpt>
      <trkpt lat="9.8887790" lon="-83.8830430">
        <ele>1784.2</ele>
        <time>2020-01-26T19:36:01Z</time>
      </trkpt>
      <trkpt lat="9.8887800" lon="-83.8830430">
        <ele>1784.2</ele>
        <time>2020-01-26T19:36:02Z</time>
      </trkpt>
      <trkpt lat="9.8887800" lon="-83.8830430">
        <ele>1784.2</ele>
        <time>2020-01-26T19:36:04Z</time>
      </trkpt>
      <trkpt lat="9.8887800" lon="-83.8830430">
        <ele>1784.2</ele>
        <time>2020-01-26T19:36:05Z</time>
      </trkpt>
      <trkpt lat="9.8887810" lon="-83.8830440">
        <ele>1784.2</ele>
        <time>2020-01-26T19:36:06Z</time>
      </trkpt>
      <trkpt lat="9.8887810" lon="-83.8830440">
        <ele>1784.2</ele>
        <time>2020-01-26T19:36:08Z</time>
      </trkpt>
      <trkpt lat="9.8887810" lon="-83.8830440">
        <ele>1784.2</ele>
        <time>2020-01-26T19:36:09Z</time>
      </trkpt>
      <trkpt lat="9.8887820" lon="-83.8830440">
        <ele>1784.2</ele>
        <time>2020-01-26T19:36:11Z</time>
      </trkpt>
      <trkpt lat="9.8887820" lon="-83.8830440">
        <ele>1784.2</ele>
        <time>2020-01-26T19:36:13Z</time>
      </trkpt>
      <trkpt lat="9.8887820" lon="-83.8830440">
        <ele>1784.2</ele>
        <time>2020-01-26T19:36:14Z</time>
      </trkpt>
      <trkpt lat="9.8887830" lon="-83.8830440">
        <ele>1784.2</ele>
        <time>2020-01-26T19:36:16Z</time>
      </trkpt>
      <trkpt lat="9.8887830" lon="-83.8830450">
        <ele>1784.2</ele>
        <time>2020-01-26T19:36:18Z</time>
      </trkpt>
      <trkpt lat="9.8887830" lon="-83.8830450">
        <ele>1784.2</ele>
        <time>2020-01-26T19:36:19Z</time>
      </trkpt>
      <trkpt lat="9.8887840" lon="-83.8830450">
        <ele>1784.2</ele>
        <time>2020-01-26T19:36:21Z</time>
      </trkpt>
      <trkpt lat="9.8887840" lon="-83.8830450">
        <ele>1784.2</ele>
        <time>2020-01-26T19:36:23Z</time>
      </trkpt>
      <trkpt lat="9.8887840" lon="-83.8830450">
        <ele>1784.2</ele>
        <time>2020-01-26T19:36:25Z</time>
      </trkpt>
      <trkpt lat="9.8887850" lon="-83.8830450">
        <ele>1784.2</ele>
        <time>2020-01-26T19:36:27Z</time>
      </trkpt>
      <trkpt lat="9.8887850" lon="-83.8830450">
        <ele>1784.2</ele>
        <time>2020-01-26T19:36:29Z</time>
      </trkpt>
      <trkpt lat="9.8887850" lon="-83.8830460">
        <ele>1784.2</ele>
        <time>2020-01-26T19:36:31Z</time>
      </trkpt>
      <trkpt lat="9.8887860" lon="-83.8830460">
        <ele>1784.2</ele>
        <time>2020-01-26T19:36:33Z</time>
      </trkpt>
      <trkpt lat="9.8887860" lon="-83.8830460">
        <ele>1784.2</ele>
        <time>2020-01-26T19:36:34Z</time>
      </trkpt>
      <trkpt lat="9.8887860" lon="-83.8830460">
        <ele>1784.2</ele>
        <time>2020-01-26T19:36:36Z</time>
      </trkpt>
      <trkpt lat="9.8887870" lon="-83.8830460">
        <ele>1784.2</ele>
        <time>2020-01-26T19:36:37Z</time>
      </trkpt>
      <trkpt lat="9.8887870" lon="-83.8830460">
        <ele>1784.2</ele>
        <time>2020-01-26T19:36:39Z</time>
      </trkpt>
      <trkpt lat="9.8887870" lon="-83.8830460">
        <ele>1784.2</ele>
        <time>2020-01-26T19:36:40Z</time>
      </trkpt>
      <trkpt lat="9.8887880" lon="-83.8830470">
        <ele>1784.1</ele>
        <time>2020-01-26T19:36:42Z</time>
      </trkpt>
      <trkpt lat="9.8887880" lon="-83.8830470">
        <ele>1784.1</ele>
        <time>2020-01-26T19:36:44Z</time>
      </trkpt>
      <trkpt lat="9.8887880" lon="-83.8830470">
        <ele>1784.1</ele>
        <time>2020-01-26T19:36:45Z</time>
      </trkpt>
      <trkpt lat="9.8887890" lon="-83.8830470">
        <ele>1784.1</ele>
        <time>2020-01-26T19:36:47Z</time>
      </trkpt>
      <trkpt lat="9.8887890" lon="-83.8830470">
        <ele>1784.1</ele>
        <time>2020-01-26T19:36:49Z</time>
      </trkpt>
      <trkpt lat="9.8887890" lon="-83.8830470">
        <ele>1784.1</ele>
        <time>2020-01-26T19:36:50Z</time>
      </trkpt>
      <trkpt lat="9.8887900" lon="-83.8830470">
        <ele>1784.1</ele>
        <time>2020-01-26T19:36:51Z</time>
      </trkpt>
      <trkpt lat="9.8887900" lon="-83.8830480">
        <ele>1784.1</ele>
        <time>2020-01-26T19:36:53Z</time>
      </trkpt>
      <trkpt lat="9.8887900" lon="-83.8830480">
        <ele>1784.1</ele>
        <time>2020-01-26T19:36:54Z</time>
      </trkpt>
      <trkpt lat="9.8887910" lon="-83.8830480">
        <ele>1784.1</ele>
        <time>2020-01-26T19:36:55Z</time>
      </trkpt>
      <trkpt lat="9.8887910" lon="-83.8830480">
        <ele>1784.1</ele>
        <time>2020-01-26T19:36:57Z</time>
      </trkpt>
      <trkpt lat="9.8887910" lon="-83.8830480">
        <ele>1784.1</ele>
        <time>2020-01-26T19:36:58Z</time>
      </trkpt>
      <trkpt lat="9.8887920" lon="-83.8830480">
        <ele>1784.1</ele>
        <time>2020-01-26T19:36:59Z</time>
      </trkpt>
      <trkpt lat="9.8887920" lon="-83.8830480">
        <ele>1784.1</ele>
        <time>2020-01-26T19:37:01Z</time>
      </trkpt>
      <trkpt lat="9.8887920" lon="-83.8830490">
        <ele>1784.1</ele>
        <time>2020-01-26T19:37:02Z</time>
      </trkpt>
      <trkpt lat="9.8887930" lon="-83.8830490">
        <ele>1784.1</ele>
        <time>2020-01-26T19:37:03Z</time>
      </trkpt>
      <trkpt lat="9.8887930" lon="-83.8830490">
        <ele>1784.1</ele>
        <time>2020-01-26T19:37:05Z</time>
      </trkpt>
      <trkpt lat="9.8887930" lon="-83.8830490">
        <ele>1784.1</ele>
        <time>2020-01-26T19:37:07Z</time>
      </trkpt>
      <trkpt lat="9.8887940" lon="-83.8830490">
        <ele>1784.1</ele>
        <time>2020-01-26T19:37:09Z</time>
      </trkpt>
      <trkpt lat="9.8887940" lon="-83.8830490">
        <ele>1784.1</ele>
        <time>2020-01-26T19:37:10Z</time>
      </trkpt>
      <trkpt lat="9.8887950" lon="-83.8830490">
        <ele>1784.1</ele>
        <time>2020-01-26T19:37:12Z</time>
      </trkpt>
      <trkpt lat="9.8887950" lon="-83.8830500">
        <ele>1784.1</ele>
        <time>2020-01-26T19:37:14Z</time>
      </trkpt>
      <trkpt lat="9.8887950" lon="-83.8830500">
        <ele>1784.1</ele>
        <time>2020-01-26T19:37:16Z</time>
      </trkpt>
      <trkpt lat="9.8887960" lon="-83.8830500">
        <ele>1784.1</ele>
        <time>2020-01-26T19:37:17Z</time>
      </trkpt>
      <trkpt lat="9.8887960" lon="-83.8830500">
        <ele>1784.1</ele>
        <time>2020-01-26T19:37:18Z</time>
      </trkpt>
      <trkpt lat="9.8887960" lon="-83.8830500">
        <ele>1784.1</ele>
        <time>2020-01-26T19:37:19Z</time>
      </trkpt>
      <trkpt lat="9.8887970" lon="-83.8830500">
        <ele>1784.1</ele>
        <time>2020-01-26T19:37:20Z</time>
      </trkpt>
      <trkpt lat="9.8887970" lon="-83.8830510">
        <ele>1784.1</ele>
        <time>2020-01-26T19:37:21Z</time>
      </trkpt>
      <trkpt lat="9.8887970" lon="-83.8830510">
        <ele>1784.1</ele>
        <time>2020-01-26T19:37:23Z</time>
      </trkpt>
      <trkpt lat="9.8887980" lon="-83.8830510">
        <ele>1784.0</ele>
        <time>2020-01-26T19:37:25Z</time>
      </trkpt>
      <trkpt lat="9.8887980" lon="-83.8830510">
        <ele>1784.0</ele>
        <time>2020-01-26T19:37:27Z</time>
      </trkpt>
      <trkpt lat="9.8887980" lon="-83.8830510">
        <ele>1784.0</ele>
        <time>2020-01-26T19:37:28Z</time>
      </trkpt>
      <trkpt lat="9.8887990" lon="-83.8830510">
        <ele>1784.0</ele>
        <time>2020-01-26T19:37:30Z</time>
      </trkpt>
      <trkpt lat="9.8887990" lon="-83.8830510">
        <ele>1784.0</ele>
        <time>2020-01-26T19:37:32Z</time>
      </trkpt>
      <trkpt lat="9.8887990" lon="-83.8830520">
        <ele>1784.0</ele>
        <time>2020-01-26T19:37:33Z</time>
      </trkpt>
      <trkpt lat="9.8888000" lon="-83.8830520">
        <ele>1784.0</ele>
        <time>2020-01-26T19:37:35Z</time>
      </trkpt>
      <trkpt lat="9.8888000" lon="-83.8830520">
        <ele>1784.0</ele>
        <time>2020-01-26T19:37:36Z</time>
      </trkpt>
      <trkpt lat="9.8888000" lon="-83.8830520">
        <ele>1784.0</ele>
        <time>2020-01-26T19:37:38Z</time>
      </trkpt>
      <trkpt lat="9.8888010" lon="-83.8830520">
        <ele>1784.0</ele>
        <time>2020-01-26T19:37:40Z</time>
      </trkpt>
      <trkpt lat="9.8888010" lon="-83.8830520">
        <ele>1784.0</ele>
        <time>2020-01-26T19:37:41Z</time>
      </trkpt>
      <trkpt lat="9.8888010" lon="-83.8830520">
        <ele>1784.0</ele>
        <time>2020-01-26T19:37:42Z</time>
      </trkpt>
      <trkpt lat="9.8888020" lon="-83.8830530">
        <ele>1784.0</ele>
        <time>2020-01-26T19:37:43Z</time>
      </trkpt>
      <trkpt lat="9.8888020" lon="-83.8830530">
        <ele>1784.0</ele>
        <time>2020-01-26T19:37:44Z</time>
      </trkpt>
      <trkpt lat="9.8888020" lon="-83.8830530">
        <ele>1784.0</ele>
        <time>2020-01-26T19:37:46Z</time>
      </trkpt>
      <trkpt lat="9.8888030" lon="-83.8830530">
        <ele>1784.0</ele>
        <time>2020-01-26T19:37:47Z</time>
      </trkpt>
      <trkpt lat="9.8888030" lon="-83.8830530">
        <ele>1784.0</ele>
        <time>2020-01-26T19:37:49Z</time>
      </trkpt>
      <trkpt lat="9.8888030" lon="-83.8830530">
        <ele>1784.0</ele>
        <time>2020-01-26T19:37:50Z</time>
      </trkpt>
      <trkpt lat="9.8888040" lon="-83.8830530">
        <ele>1784.0</ele>
        <time>2020-01-26T19:37:52Z</time>
      </trkpt>
      <trkpt lat="9.8888040" lon="-83.8830540">
        <ele>1784.0</ele>
        <time>2020-01-26T19:37:53Z</time>
      </trkpt>
      <trkpt lat="9.8888040" lon="-83.8830540">
        <ele>1784.0</ele>
        <time>2020-01-26T19:37:55Z</time>
      </trkpt>
      <trkpt lat="9.8888050" lon="-83.8830540">
        <ele>1784.0</ele>
        <time>2020-01-26T19:37:56Z</time>
      </trkpt>
      <trkpt lat="9.8888050" lon="-83.8830540">
        <ele>1784.0</ele>
        <time>2020-01-26T19:37:58Z</time>
      </trkpt>
      <trkpt lat="9.8888050" lon="-83.8830540">
        <ele>1784.0</ele>
        <time>2020-01-26T19:37:59Z</time>
      </trkpt>
      <trkpt lat="9.8888060" lon="-83.8830540">
        <ele>1784.0</ele>
        <time>2020-01-26T19:38:01Z</time>
      </trkpt>
      <trkpt lat="9.8888060" lon="-83.8830540">
        <ele>1784.0</ele>
        <time>2020-01-26T19:38:03Z</time>
      </trkpt>
      <trkpt lat="9.8888060" lon="-83.8830550">
        <ele>1784.0</ele>
        <time>2020-01-26T19:38:05Z</time>
      </trkpt>
      <trkpt lat="9.8888070" lon="-83.8830550">
        <ele>1784.0</ele>
        <time>2020-01-26T19:38:06Z</time>
      </trkpt>
      <trkpt lat="9.8888070" lon="-83.8830550">
        <ele>1784.0</ele>
        <time>2020-01-26T19:38:08Z</time>
      </trkpt>
      <trkpt lat="9.8888070" lon="-83.8830550">
        <ele>1784.0</ele>
        <time>2020-01-26T19:38:10Z</time>
      </trkpt>
      <trkpt lat="9.8888080" lon="-83.8830550">
        <ele>1784.0</ele>
        <time>2020-01-26T19:38:11Z</time>
      </trkpt>
      <trkpt lat="9.8888080" lon="-83.8830550">
        <ele>1784.0</ele>
        <time>2020-01-26T19:38:12Z</time>
      </trkpt>
      <trkpt lat="9.8888080" lon="-83.8830550">
        <ele>1784.0</ele>
        <time>2020-01-26T19:38:13Z</time>
      </trkpt>
      <trkpt lat="9.8888090" lon="-83.8830560">
        <ele>1783.9</ele>
        <time>2020-01-26T19:38:15Z</time>
      </trkpt>
      <trkpt lat="9.8888090" lon="-83.8830560">
        <ele>1783.9</ele>
        <time>2020-01-26T19:38:16Z</time>
      </trkpt>
      <trkpt lat="9.8888090" lon="-83.8830560">
        <ele>1783.9</ele>
        <time>2020-01-26T19:38:18Z</time>
      </trkpt>
      <trkpt lat="9.8888100" lon="-83.8830560">
        <ele>1783.9</ele>
        <time>2020-01-26T19:38:19Z</time>
      </trkpt>
      <trkpt lat="9.8888100" lon="-83.8830560">
        <ele>1783.9</ele>
        <time>2020-01-26T19:38:20Z</time>
      </trkpt>
      <trkpt lat="9.8888100" lon="-83.8830560">
        <ele>1783.9</ele>
        <time>2020-01-26T19:38:21Z</time>
      </trkpt>
      <trkpt lat="9.8888110" lon="-83.8830560">
        <ele>1783.9</ele>
        <time>2020-01-26T19:38:23Z</time>
      </trkpt>
      <trkpt lat="9.8888110" lon="-83.8830570">
        <ele>1783.9</ele>
        <time>2020-01-26T19:38:25Z</time>
      </trkpt>
      <trkpt lat="9.8888110" lon="-83.8830570">
        <ele>1783.9</ele>
        <time>2020-01-26T19:38:26Z</time>
      </trkpt>
      <trkpt lat="9.8888120" lon="-83.8830570">
        <ele>1783.9</ele>
        <time>2020-01-26T19:38:27Z</time>
      </trkpt>
      <trkpt lat="9.8888120" lon="-83.8830570">
        <ele>1783.9</ele>
        <time>2020-01-26T19:38:28Z</time>
      </trkpt>
      <trkpt lat="9.8888120" lon="-83.8830570">
        <ele>1783.9</ele>
        <time>2020-01-26T19:38:29Z</time>
      </trkpt>
      <trkpt lat="9.8888130" lon="-83.8830570">
        <ele>1783.9</ele>
        <time>2020-01-26T19:38:31Z</time>
      </trkpt>
      <trkpt lat="9.8888130" lon="-83.8830570">
        <ele>1783.9</ele>
        <time>2020-01-26T19:38:32Z</time>
      </trkpt>
      <trkpt lat="9.8888130" lon="-83.8830580">
        <ele>1783.9</ele>
        <time>2020-01-26T19:38:34Z</time>
      </trkpt>
      <trkpt lat="9.8888140" lon="-83.8830580">
        <ele>1783.9</ele>
        <time>2020-01-26T19:38:35Z</time>
      </trkpt>
      <trkpt lat="9.8888140" lon="-83.8830580">
        <ele>1783.9</ele>
        <time>2020-01-26T19:38:37Z</time>
      </trkpt>
      <trkpt lat="9.8888140" lon="-83.8830580">
        <ele>1783.9</ele>
        <time>2020-01-26T19:38:38Z</time>
      </trkpt>
      <trkpt lat="9.8888150" lon="-83.8830580">
        <ele>1783.9</ele>
        <time>2020-01-26T19:38:39Z</time>
      </trkpt>
      <trkpt lat="9.8888150" lon="-83.8830580">
        <ele>1783.9</ele>
        <time>2020-01-26T19:38:41Z</time>
      </trkpt>
      <trkpt lat="9.8888150" lon="-83.8830580">
        <ele>1783.9</ele>
        <time>2020-01-26T19:38:42Z</time>
      </trkpt>
      <trkpt lat="9.8888160" lon="-83.8830590">
        <ele>1783.9</ele>
        <time>2020-01-26T19:38:43Z</time>
      </trkpt>
      <trkpt lat="9.8888160" lon="-83.8830590">
        <ele>1783.9</ele>
        <time>2020-01-26T19:38:44Z</time>
      </trkpt>
      <trkpt lat="9.8888160" lon="-83.8830590">
        <ele>1783.9</ele>
        <time>2020-01-26T19:38:45Z</time>
      </trkpt>
      <trkpt lat="9.8888170" lon="-83.8830590">
        <ele>1783.9</ele>
        <time>2020-01-26T19:38:47Z</time>
      </trkpt>
      <trkpt lat="9.8888170" lon="-83.8830590">
        <ele>1783.9</ele>
        <time>2020-01-26T19:38:48Z</time>
      </trkpt>
      <trkpt lat="9.8888170" lon="-83.8830590">
        <ele>1783.9</ele>
        <time>2020-01-26T19:38:50Z</time>
      </trkpt>
      <trkpt lat="9.8888180" lon="-83.8830590">
        <ele>1783.9</ele>
        <time>2020-01-26T19:38:51Z</time>
      </trkpt>
      <trkpt lat="9.8888180" lon="-83.8830600">
        <ele>1783.9</ele>
        <time>2020-01-26T19:38:52Z</time>
      </trkpt>
      <trkpt lat="9.8888180" lon="-83.8830600">
        <ele>1783.9</ele>
        <time>2020-01-26T19:38:53Z</time>
      </trkpt>
      <trkpt lat="9.8888190" lon="-83.8830600">
        <ele>1783.8</ele>
        <time>2020-01-26T19:38:55Z</time>
      </trkpt>
      <trkpt lat="9.8888190" lon="-83.8830600">
        <ele>1783.8</ele>
        <time>2020-01-26T19:38:56Z</time>
      </trkpt>
      <trkpt lat="9.8888830" lon="-83.8831050">
        <ele>1783.5</ele>
        <time>2020-01-26T19:38:58Z</time>
      </trkpt>
      <trkpt lat="9.8889250" lon="-83.8831320">
        <ele>1783.2</ele>
        <time>2020-01-26T19:38:59Z</time>
      </trkpt>
      <trkpt lat="9.8889710" lon="-83.8831790">
        <ele>1782.9</ele>
        <time>2020-01-26T19:39:00Z</time>
      </trkpt>
      <trkpt lat="9.8890210" lon="-83.8832270">
        <ele>1782.6</ele>
        <time>2020-01-26T19:39:01Z</time>
      </trkpt>
      <trkpt lat="9.8890780" lon="-83.8832730">
        <ele>1782.2</ele>
        <time>2020-01-26T19:39:02Z</time>
      </trkpt>
      <trkpt lat="9.8891340" lon="-83.8833100">
        <ele>1781.9</ele>
        <time>2020-01-26T19:39:03Z</time>
      </trkpt>
      <trkpt lat="9.8892400" lon="-83.8833770">
        <ele>1781.3</ele>
        <time>2020-01-26T19:39:05Z</time>
      </trkpt>
      <trkpt lat="9.8893610" lon="-83.8834540">
        <ele>1780.8</ele>
        <time>2020-01-26T19:39:07Z</time>
      </trkpt>
      <trkpt lat="9.8894270" lon="-83.8834960">
        <ele>1780.6</ele>
        <time>2020-01-26T19:39:08Z</time>
      </trkpt>
      <trkpt lat="9.8894950" lon="-83.8835450">
        <ele>1780.3</ele>
        <time>2020-01-26T19:39:09Z</time>
      </trkpt>
      <trkpt lat="9.8896330" lon="-83.8836510">
        <ele>1779.4</ele>
        <time>2020-01-26T19:39:11Z</time>
      </trkpt>
      <trkpt lat="9.8897510" lon="-83.8837730">
        <ele>1778.5</ele>
        <time>2020-01-26T19:39:13Z</time>
      </trkpt>
      <trkpt lat="9.8898100" lon="-83.8838420">
        <ele>1778.0</ele>
        <time>2020-01-26T19:39:14Z</time>
      </trkpt>
      <trkpt lat="9.8899150" lon="-83.8839960">
        <ele>1776.8</ele>
        <time>2020-01-26T19:39:16Z</time>
      </trkpt>
      <trkpt lat="9.8899960" lon="-83.8841630">
        <ele>1775.7</ele>
        <time>2020-01-26T19:39:18Z</time>
      </trkpt>
      <trkpt lat="9.8900300" lon="-83.8842570">
        <ele>1775.2</ele>
        <time>2020-01-26T19:39:19Z</time>
      </trkpt>
      <trkpt lat="9.8900830" lon="-83.8844500">
        <ele>1774.1</ele>
        <time>2020-01-26T19:39:21Z</time>
      </trkpt>
      <trkpt lat="9.8900980" lon="-83.8845490">
        <ele>1773.6</ele>
        <time>2020-01-26T19:39:22Z</time>
      </trkpt>
      <trkpt lat="9.8901010" lon="-83.8847600">
        <ele>1772.7</ele>
        <time>2020-01-26T19:39:24Z</time>
      </trkpt>
      <trkpt lat="9.8900700" lon="-83.8849810">
        <ele>1770.4</ele>
        <time>2020-01-26T19:39:26Z</time>
      </trkpt>
      <trkpt lat="9.8899910" lon="-83.8851810">
        <ele>1768.4</ele>
        <time>2020-01-26T19:39:28Z</time>
      </trkpt>
      <trkpt lat="9.8898800" lon="-83.8853420">
        <ele>1766.1</ele>
        <time>2020-01-26T19:39:30Z</time>
      </trkpt>
      <trkpt lat="9.8898220" lon="-83.8854050">
        <ele>1765.4</ele>
        <time>2020-01-26T19:39:31Z</time>
      </trkpt>
      <trkpt lat="9.8896910" lon="-83.8855100">
        <ele>1763.9</ele>
        <time>2020-01-26T19:39:33Z</time>
      </trkpt>
      <trkpt lat="9.8895400" lon="-83.8855950">
        <ele>1762.4</ele>
        <time>2020-01-26T19:39:35Z</time>
      </trkpt>
      <trkpt lat="9.8893660" lon="-83.8856450">
        <ele>1760.9</ele>
        <time>2020-01-26T19:39:37Z</time>
      </trkpt>
      <trkpt lat="9.8891830" lon="-83.8856590">
        <ele>1759.6</ele>
        <time>2020-01-26T19:39:39Z</time>
      </trkpt>
      <trkpt lat="9.8890010" lon="-83.8856470">
        <ele>1758.1</ele>
        <time>2020-01-26T19:39:41Z</time>
      </trkpt>
      <trkpt lat="9.8887960" lon="-83.8856120">
        <ele>1756.9</ele>
        <time>2020-01-26T19:39:43Z</time>
      </trkpt>
      <trkpt lat="9.8886950" lon="-83.8855930">
        <ele>1756.2</ele>
        <time>2020-01-26T19:39:44Z</time>
      </trkpt>
      <trkpt lat="9.8884930" lon="-83.8855620">
        <ele>1754.8</ele>
        <time>2020-01-26T19:39:46Z</time>
      </trkpt>
      <trkpt lat="9.8883930" lon="-83.8855490">
        <ele>1754.3</ele>
        <time>2020-01-26T19:39:47Z</time>
      </trkpt>
      <trkpt lat="9.8881860" lon="-83.8855150">
        <ele>1753.3</ele>
        <time>2020-01-26T19:39:49Z</time>
      </trkpt>
      <trkpt lat="9.8879710" lon="-83.8854790">
        <ele>1752.1</ele>
        <time>2020-01-26T19:39:51Z</time>
      </trkpt>
      <trkpt lat="9.8877810" lon="-83.8854510">
        <ele>1751.0</ele>
        <time>2020-01-26T19:39:53Z</time>
      </trkpt>
      <trkpt lat="9.8876900" lon="-83.8854340">
        <ele>1750.6</ele>
        <time>2020-01-26T19:39:54Z</time>
      </trkpt>
      <trkpt lat="9.8876000" lon="-83.8854130">
        <ele>1750.2</ele>
        <time>2020-01-26T19:39:55Z</time>
      </trkpt>
      <trkpt lat="9.8875120" lon="-83.8853910">
        <ele>1749.8</ele>
        <time>2020-01-26T19:39:56Z</time>
      </trkpt>
      <trkpt lat="9.8873470" lon="-83.8853450">
        <ele>1749.1</ele>
        <time>2020-01-26T19:39:58Z</time>
      </trkpt>
      <trkpt lat="9.8871890" lon="-83.8852810">
        <ele>1748.3</ele>
        <time>2020-01-26T19:40:00Z</time>
      </trkpt>
      <trkpt lat="9.8870180" lon="-83.8852190">
        <ele>1747.4</ele>
        <time>2020-01-26T19:40:02Z</time>
      </trkpt>
      <trkpt lat="9.8868510" lon="-83.8851410">
        <ele>1746.5</ele>
        <time>2020-01-26T19:40:04Z</time>
      </trkpt>
      <trkpt lat="9.8866720" lon="-83.8850640">
        <ele>1745.5</ele>
        <time>2020-01-26T19:40:06Z</time>
      </trkpt>
      <trkpt lat="9.8864940" lon="-83.8849870">
        <ele>1744.2</ele>
        <time>2020-01-26T19:40:08Z</time>
      </trkpt>
      <trkpt lat="9.8864050" lon="-83.8849470">
        <ele>1743.6</ele>
        <time>2020-01-26T19:40:09Z</time>
      </trkpt>
      <trkpt lat="9.8862260" lon="-83.8848650">
        <ele>1742.2</ele>
        <time>2020-01-26T19:40:11Z</time>
      </trkpt>
      <trkpt lat="9.8861360" lon="-83.8848250">
        <ele>1741.6</ele>
        <time>2020-01-26T19:40:12Z</time>
      </trkpt>
      <trkpt lat="9.8859590" lon="-83.8847530">
        <ele>1740.2</ele>
        <time>2020-01-26T19:40:14Z</time>
      </trkpt>
      <trkpt lat="9.8858700" lon="-83.8847200">
        <ele>1739.5</ele>
        <time>2020-01-26T19:40:15Z</time>
      </trkpt>
      <trkpt lat="9.8856910" lon="-83.8846830">
        <ele>1738.2</ele>
        <time>2020-01-26T19:40:17Z</time>
      </trkpt>
      <trkpt lat="9.8855070" lon="-83.8846760">
        <ele>1737.1</ele>
        <time>2020-01-26T19:40:19Z</time>
      </trkpt>
      <trkpt lat="9.8854280" lon="-83.8846740">
        <ele>1736.6</ele>
        <time>2020-01-26T19:40:20Z</time>
      </trkpt>
      <trkpt lat="9.8853390" lon="-83.8847040">
        <ele>1735.9</ele>
        <time>2020-01-26T19:40:21Z</time>
      </trkpt>
      <trkpt lat="9.8851700" lon="-83.8848160">
        <ele>1734.4</ele>
        <time>2020-01-26T19:40:23Z</time>
      </trkpt>
      <trkpt lat="9.8850940" lon="-83.8848730">
        <ele>1733.8</ele>
        <time>2020-01-26T19:40:24Z</time>
      </trkpt>
      <trkpt lat="9.8850200" lon="-83.8849350">
        <ele>1733.3</ele>
        <time>2020-01-26T19:40:25Z</time>
      </trkpt>
      <trkpt lat="9.8849510" lon="-83.8850020">
        <ele>1732.8</ele>
        <time>2020-01-26T19:40:26Z</time>
      </trkpt>
      <trkpt lat="9.8848280" lon="-83.8851680">
        <ele>1731.2</ele>
        <time>2020-01-26T19:40:28Z</time>
      </trkpt>
      <trkpt lat="9.8847430" lon="-83.8853610">
        <ele>1729.5</ele>
        <time>2020-01-26T19:40:30Z</time>
      </trkpt>
      <trkpt lat="9.8846820" lon="-83.8855590">
        <ele>1727.9</ele>
        <time>2020-01-26T19:40:32Z</time>
      </trkpt>
      <trkpt lat="9.8846560" lon="-83.8856590">
        <ele>1727.1</ele>
        <time>2020-01-26T19:40:33Z</time>
      </trkpt>
      <trkpt lat="9.8846280" lon="-83.8857640">
        <ele>1726.2</ele>
        <time>2020-01-26T19:40:34Z</time>
      </trkpt>
      <trkpt lat="9.8845760" lon="-83.8859530">
        <ele>1724.6</ele>
        <time>2020-01-26T19:40:36Z</time>
      </trkpt>
      <trkpt lat="9.8845350" lon="-83.8861420">
        <ele>1722.9</ele>
        <time>2020-01-26T19:40:38Z</time>
      </trkpt>
      <trkpt lat="9.8845250" lon="-83.8863570">
        <ele>1720.8</ele>
        <time>2020-01-26T19:40:40Z</time>
      </trkpt>
      <trkpt lat="9.8845430" lon="-83.8865790">
        <ele>1718.5</ele>
        <time>2020-01-26T19:40:42Z</time>
      </trkpt>
      <trkpt lat="9.8845490" lon="-83.8866980">
        <ele>1717.3</ele>
        <time>2020-01-26T19:40:43Z</time>
      </trkpt>
      <trkpt lat="9.8845600" lon="-83.8868190">
        <ele>1716.0</ele>
        <time>2020-01-26T19:40:44Z</time>
      </trkpt>
      <trkpt lat="9.8845700" lon="-83.8869440">
        <ele>1714.7</ele>
        <time>2020-01-26T19:40:45Z</time>
      </trkpt>
      <trkpt lat="9.8845910" lon="-83.8871830">
        <ele>1712.1</ele>
        <time>2020-01-26T19:40:47Z</time>
      </trkpt>
      <trkpt lat="9.8846070" lon="-83.8874220">
        <ele>1709.2</ele>
        <time>2020-01-26T19:40:49Z</time>
      </trkpt>
      <trkpt lat="9.8845860" lon="-83.8876570">
        <ele>1705.9</ele>
        <time>2020-01-26T19:40:51Z</time>
      </trkpt>
      <trkpt lat="9.8845510" lon="-83.8877820">
        <ele>1703.6</ele>
        <time>2020-01-26T19:40:52Z</time>
      </trkpt>
      <trkpt lat="9.8844630" lon="-83.8880190">
        <ele>1701.4</ele>
        <time>2020-01-26T19:40:54Z</time>
      </trkpt>
      <trkpt lat="9.8844180" lon="-83.8881380">
        <ele>1700.3</ele>
        <time>2020-01-26T19:40:55Z</time>
      </trkpt>
      <trkpt lat="9.8843740" lon="-83.8882600">
        <ele>1699.0</ele>
        <time>2020-01-26T19:40:56Z</time>
      </trkpt>
      <trkpt lat="9.8842850" lon="-83.8884880">
        <ele>1696.7</ele>
        <time>2020-01-26T19:40:58Z</time>
      </trkpt>
      <trkpt lat="9.8842460" lon="-83.8886050">
        <ele>1695.5</ele>
        <time>2020-01-26T19:40:59Z</time>
      </trkpt>
      <trkpt lat="9.8842140" lon="-83.8887130">
        <ele>1694.3</ele>
        <time>2020-01-26T19:41:00Z</time>
      </trkpt>
      <trkpt lat="9.8841970" lon="-83.8888260">
        <ele>1693.1</ele>
        <time>2020-01-26T19:41:01Z</time>
      </trkpt>
      <trkpt lat="9.8841810" lon="-83.8890540">
        <ele>1690.6</ele>
        <time>2020-01-26T19:41:03Z</time>
      </trkpt>
      <trkpt lat="9.8841800" lon="-83.8892720">
        <ele>1688.4</ele>
        <time>2020-01-26T19:41:05Z</time>
      </trkpt>
      <trkpt lat="9.8841750" lon="-83.8894900">
        <ele>1686.3</ele>
        <time>2020-01-26T19:41:07Z</time>
      </trkpt>
      <trkpt lat="9.8841660" lon="-83.8897010">
        <ele>1684.6</ele>
        <time>2020-01-26T19:41:09Z</time>
      </trkpt>
      <trkpt lat="9.8841520" lon="-83.8899300">
        <ele>1682.3</ele>
        <time>2020-01-26T19:41:11Z</time>
      </trkpt>
      <trkpt lat="9.8841380" lon="-83.8900530">
        <ele>1681.3</ele>
        <time>2020-01-26T19:41:12Z</time>
      </trkpt>
      <trkpt lat="9.8841050" lon="-83.8903080">
        <ele>1679.2</ele>
        <time>2020-01-26T19:41:14Z</time>
      </trkpt>
      <trkpt lat="9.8840700" lon="-83.8905750">
        <ele>1675.4</ele>
        <time>2020-01-26T19:41:16Z</time>
      </trkpt>
      <trkpt lat="9.8840360" lon="-83.8908270">
        <ele>1670.8</ele>
        <time>2020-01-26T19:41:18Z</time>
      </trkpt>
      <trkpt lat="9.8840020" lon="-83.8910740">
        <ele>1667.0</ele>
        <time>2020-01-26T19:41:20Z</time>
      </trkpt>
      <trkpt lat="9.8839850" lon="-83.8912010">
        <ele>1665.3</ele>
        <time>2020-01-26T19:41:21Z</time>
      </trkpt>
      <trkpt lat="9.8839620" lon="-83.8914320">
        <ele>1662.3</ele>
        <time>2020-01-26T19:41:23Z</time>
      </trkpt>
      <trkpt lat="9.8839500" lon="-83.8915370">
        <ele>1661.3</ele>
        <time>2020-01-26T19:41:24Z</time>
      </trkpt>
      <trkpt lat="9.8839440" lon="-83.8916390">
        <ele>1660.2</ele>
        <time>2020-01-26T19:41:25Z</time>
      </trkpt>
      <trkpt lat="9.8839620" lon="-83.8918520">
        <ele>1657.4</ele>
        <time>2020-01-26T19:41:27Z</time>
      </trkpt>
      <trkpt lat="9.8840160" lon="-83.8920670">
        <ele>1655.5</ele>
        <time>2020-01-26T19:41:29Z</time>
      </trkpt>
      <trkpt lat="9.8840690" lon="-83.8922840">
        <ele>1653.2</ele>
        <time>2020-01-26T19:41:31Z</time>
      </trkpt>
      <trkpt lat="9.8840950" lon="-83.8924010">
        <ele>1652.4</ele>
        <time>2020-01-26T19:41:32Z</time>
      </trkpt>
      <trkpt lat="9.8841530" lon="-83.8926270">
        <ele>1651.0</ele>
        <time>2020-01-26T19:41:34Z</time>
      </trkpt>
      <trkpt lat="9.8841810" lon="-83.8927360">
        <ele>1650.4</ele>
        <time>2020-01-26T19:41:35Z</time>
      </trkpt>
      <trkpt lat="9.8842330" lon="-83.8929280">
        <ele>1649.4</ele>
        <time>2020-01-26T19:41:37Z</time>
      </trkpt>
      <trkpt lat="9.8842930" lon="-83.8931160">
        <ele>1647.8</ele>
        <time>2020-01-26T19:41:39Z</time>
      </trkpt>
      <trkpt lat="9.8843800" lon="-83.8932980">
        <ele>1646.1</ele>
        <time>2020-01-26T19:41:41Z</time>
      </trkpt>
      <trkpt lat="9.8844350" lon="-83.8933930">
        <ele>1644.7</ele>
        <time>2020-01-26T19:41:42Z</time>
      </trkpt>
      <trkpt lat="9.8844940" lon="-83.8934900">
        <ele>1643.1</ele>
        <time>2020-01-26T19:41:43Z</time>
      </trkpt>
      <trkpt lat="9.8846170" lon="-83.8936760">
        <ele>1640.2</ele>
        <time>2020-01-26T19:41:45Z</time>
      </trkpt>
      <trkpt lat="9.8846810" lon="-83.8937710">
        <ele>1638.9</ele>
        <time>2020-01-26T19:41:46Z</time>
      </trkpt>
      <trkpt lat="9.8847950" lon="-83.8939620">
        <ele>1636.6</ele>
        <time>2020-01-26T19:41:48Z</time>
      </trkpt>
      <trkpt lat="9.8848560" lon="-83.8941740">
        <ele>1634.3</ele>
        <time>2020-01-26T19:41:50Z</time>
      </trkpt>
      <trkpt lat="9.8848510" lon="-83.8942790">
        <ele>1633.2</ele>
        <time>2020-01-26T19:41:51Z</time>
      </trkpt>
      <trkpt lat="9.8848000" lon="-83.8944860">
        <ele>1631.1</ele>
        <time>2020-01-26T19:41:53Z</time>
      </trkpt>
      <trkpt lat="9.8847620" lon="-83.8945840">
        <ele>1630.3</ele>
        <time>2020-01-26T19:41:54Z</time>
      </trkpt>
      <trkpt lat="9.8846930" lon="-83.8947800">
        <ele>1629.3</ele>
        <time>2020-01-26T19:41:56Z</time>
      </trkpt>
      <trkpt lat="9.8846550" lon="-83.8949680">
        <ele>1628.6</ele>
        <time>2020-01-26T19:41:58Z</time>
      </trkpt>
      <trkpt lat="9.8846500" lon="-83.8950590">
        <ele>1628.3</ele>
        <time>2020-01-26T19:41:59Z</time>
      </trkpt>
      <trkpt lat="9.8846600" lon="-83.8951460">
        <ele>1627.9</ele>
        <time>2020-01-26T19:42:00Z</time>
      </trkpt>
      <trkpt lat="9.8847180" lon="-83.8953080">
        <ele>1627.1</ele>
        <time>2020-01-26T19:42:02Z</time>
      </trkpt>
      <trkpt lat="9.8847610" lon="-83.8953790">
        <ele>1626.7</ele>
        <time>2020-01-26T19:42:03Z</time>
      </trkpt>
      <trkpt lat="9.8848730" lon="-83.8955220">
        <ele>1625.6</ele>
        <time>2020-01-26T19:42:05Z</time>
      </trkpt>
      <trkpt lat="9.8849330" lon="-83.8955870">
        <ele>1624.9</ele>
        <time>2020-01-26T19:42:06Z</time>
      </trkpt>
      <trkpt lat="9.8849950" lon="-83.8956580">
        <ele>1624.2</ele>
        <time>2020-01-26T19:42:07Z</time>
      </trkpt>
      <trkpt lat="9.8851310" lon="-83.8958170">
        <ele>1622.8</ele>
        <time>2020-01-26T19:42:09Z</time>
      </trkpt>
      <trkpt lat="9.8852610" lon="-83.8959910">
        <ele>1620.6</ele>
        <time>2020-01-26T19:42:11Z</time>
      </trkpt>
      <trkpt lat="9.8853380" lon="-83.8962180">
        <ele>1618.7</ele>
        <time>2020-01-26T19:42:13Z</time>
      </trkpt>
      <trkpt lat="9.8853560" lon="-83.8963350">
        <ele>1618.2</ele>
        <time>2020-01-26T19:42:14Z</time>
      </trkpt>
      <trkpt lat="9.8853590" lon="-83.8964490">
        <ele>1617.8</ele>
        <time>2020-01-26T19:42:15Z</time>
      </trkpt>
      <trkpt lat="9.8853350" lon="-83.8966610">
        <ele>1617.4</ele>
        <time>2020-01-26T19:42:17Z</time>
      </trkpt>
      <trkpt lat="9.8852950" lon="-83.8967640">
        <ele>1617.3</ele>
        <time>2020-01-26T19:42:18Z</time>
      </trkpt>
      <trkpt lat="9.8851780" lon="-83.8969340">
        <ele>1616.8</ele>
        <time>2020-01-26T19:42:20Z</time>
      </trkpt>
      <trkpt lat="9.8851070" lon="-83.8970030">
        <ele>1616.6</ele>
        <time>2020-01-26T19:42:21Z</time>
      </trkpt>
      <trkpt lat="9.8850290" lon="-83.8970590">
        <ele>1616.4</ele>
        <time>2020-01-26T19:42:22Z</time>
      </trkpt>
      <trkpt lat="9.8849410" lon="-83.8971080">
        <ele>1616.1</ele>
        <time>2020-01-26T19:42:23Z</time>
      </trkpt>
      <trkpt lat="9.8848490" lon="-83.8971570">
        <ele>1615.7</ele>
        <time>2020-01-26T19:42:24Z</time>
      </trkpt>
      <trkpt lat="9.8846610" lon="-83.8972040">
        <ele>1615.2</ele>
        <time>2020-01-26T19:42:26Z</time>
      </trkpt>
      <trkpt lat="9.8845680" lon="-83.8972100">
        <ele>1614.9</ele>
        <time>2020-01-26T19:42:27Z</time>
      </trkpt>
      <trkpt lat="9.8844780" lon="-83.8972080">
        <ele>1614.6</ele>
        <time>2020-01-26T19:42:28Z</time>
      </trkpt>
      <trkpt lat="9.8843890" lon="-83.8972020">
        <ele>1614.2</ele>
        <time>2020-01-26T19:42:29Z</time>
      </trkpt>
      <trkpt lat="9.8842130" lon="-83.8971920">
        <ele>1613.2</ele>
        <time>2020-01-26T19:42:31Z</time>
      </trkpt>
      <trkpt lat="9.8841200" lon="-83.8971850">
        <ele>1612.7</ele>
        <time>2020-01-26T19:42:32Z</time>
      </trkpt>
      <trkpt lat="9.8839370" lon="-83.8971630">
        <ele>1611.5</ele>
        <time>2020-01-26T19:42:34Z</time>
      </trkpt>
      <trkpt lat="9.8838430" lon="-83.8971590">
        <ele>1610.6</ele>
        <time>2020-01-26T19:42:35Z</time>
      </trkpt>
      <trkpt lat="9.8836600" lon="-83.8971510">
        <ele>1609.0</ele>
        <time>2020-01-26T19:42:37Z</time>
      </trkpt>
      <trkpt lat="9.8834760" lon="-83.8971540">
        <ele>1607.2</ele>
        <time>2020-01-26T19:42:39Z</time>
      </trkpt>
      <trkpt lat="9.8832990" lon="-83.8971700">
        <ele>1605.7</ele>
        <time>2020-01-26T19:42:41Z</time>
      </trkpt>
      <trkpt lat="9.8831320" lon="-83.8972360">
        <ele>1603.8</ele>
        <time>2020-01-26T19:42:43Z</time>
      </trkpt>
      <trkpt lat="9.8829700" lon="-83.8973330">
        <ele>1601.9</ele>
        <time>2020-01-26T19:42:45Z</time>
      </trkpt>
      <trkpt lat="9.8828820" lon="-83.8973820">
        <ele>1601.0</ele>
        <time>2020-01-26T19:42:46Z</time>
      </trkpt>
      <trkpt lat="9.8827000" lon="-83.8974670">
        <ele>1599.5</ele>
        <time>2020-01-26T19:42:48Z</time>
      </trkpt>
      <trkpt lat="9.8826020" lon="-83.8975190">
        <ele>1598.5</ele>
        <time>2020-01-26T19:42:49Z</time>
      </trkpt>
      <trkpt lat="9.8823990" lon="-83.8976290">
        <ele>1596.6</ele>
        <time>2020-01-26T19:42:51Z</time>
      </trkpt>
      <trkpt lat="9.8822970" lon="-83.8976860">
        <ele>1595.5</ele>
        <time>2020-01-26T19:42:52Z</time>
      </trkpt>
      <trkpt lat="9.8822040" lon="-83.8977400">
        <ele>1594.3</ele>
        <time>2020-01-26T19:42:53Z</time>
      </trkpt>
      <trkpt lat="9.8821130" lon="-83.8977930">
        <ele>1592.9</ele>
        <time>2020-01-26T19:42:54Z</time>
      </trkpt>
      <trkpt lat="9.8819370" lon="-83.8979130">
        <ele>1589.7</ele>
        <time>2020-01-26T19:42:56Z</time>
      </trkpt>
      <trkpt lat="9.8818500" lon="-83.8979890">
        <ele>1588.2</ele>
        <time>2020-01-26T19:42:57Z</time>
      </trkpt>
      <trkpt lat="9.8816900" lon="-83.8981550">
        <ele>1585.7</ele>
        <time>2020-01-26T19:42:59Z</time>
      </trkpt>
      <trkpt lat="9.8816070" lon="-83.8982470">
        <ele>1584.5</ele>
        <time>2020-01-26T19:43:00Z</time>
      </trkpt>
      <trkpt lat="9.8814420" lon="-83.8984420">
        <ele>1582.2</ele>
        <time>2020-01-26T19:43:02Z</time>
      </trkpt>
      <trkpt lat="9.8813550" lon="-83.8985430">
        <ele>1581.0</ele>
        <time>2020-01-26T19:43:03Z</time>
      </trkpt>
      <trkpt lat="9.8811880" lon="-83.8987470">
        <ele>1578.8</ele>
        <time>2020-01-26T19:43:05Z</time>
      </trkpt>
      <trkpt lat="9.8811040" lon="-83.8988490">
        <ele>1577.7</ele>
        <time>2020-01-26T19:43:06Z</time>
      </trkpt>
      <trkpt lat="9.8810230" lon="-83.8989480">
        <ele>1576.9</ele>
        <time>2020-01-26T19:43:07Z</time>
      </trkpt>
      <trkpt lat="9.8809430" lon="-83.8990480">
        <ele>1576.4</ele>
        <time>2020-01-26T19:43:08Z</time>
      </trkpt>
      <trkpt lat="9.8807920" lon="-83.8992360">
        <ele>1575.5</ele>
        <time>2020-01-26T19:43:10Z</time>
      </trkpt>
      <trkpt lat="9.8806470" lon="-83.8994110">
        <ele>1574.7</ele>
        <time>2020-01-26T19:43:12Z</time>
      </trkpt>
      <trkpt lat="9.8805710" lon="-83.8994990">
        <ele>1574.3</ele>
        <time>2020-01-26T19:43:13Z</time>
      </trkpt>
      <trkpt lat="9.8804940" lon="-83.8995860">
        <ele>1571.1</ele>
        <time>2020-01-26T19:43:14Z</time>
      </trkpt>
      <trkpt lat="9.8803490" lon="-83.8997600">
        <ele>1567.6</ele>
        <time>2020-01-26T19:43:16Z</time>
      </trkpt>
      <trkpt lat="9.8802060" lon="-83.8999310">
        <ele>1565.3</ele>
        <time>2020-01-26T19:43:18Z</time>
      </trkpt>
      <trkpt lat="9.8801330" lon="-83.9000140">
        <ele>1564.1</ele>
        <time>2020-01-26T19:43:19Z</time>
      </trkpt>
      <trkpt lat="9.8800070" lon="-83.9001630">
        <ele>1562.6</ele>
        <time>2020-01-26T19:43:21Z</time>
      </trkpt>
      <trkpt lat="9.8798790" lon="-83.9003060">
        <ele>1560.8</ele>
        <time>2020-01-26T19:43:23Z</time>
      </trkpt>
      <trkpt lat="9.8797510" lon="-83.9004490">
        <ele>1558.8</ele>
        <time>2020-01-26T19:43:25Z</time>
      </trkpt>
      <trkpt lat="9.8796870" lon="-83.9005210">
        <ele>1558.0</ele>
        <time>2020-01-26T19:43:26Z</time>
      </trkpt>
      <trkpt lat="9.8795610" lon="-83.9006660">
        <ele>1556.3</ele>
        <time>2020-01-26T19:43:28Z</time>
      </trkpt>
      <trkpt lat="9.8794980" lon="-83.9007370">
        <ele>1555.8</ele>
        <time>2020-01-26T19:43:29Z</time>
      </trkpt>
      <trkpt lat="9.8794330" lon="-83.9008150">
        <ele>1555.6</ele>
        <time>2020-01-26T19:43:30Z</time>
      </trkpt>
      <trkpt lat="9.8793140" lon="-83.9009560">
        <ele>1555.1</ele>
        <time>2020-01-26T19:43:32Z</time>
      </trkpt>
      <trkpt lat="9.8792710" lon="-83.9010070">
        <ele>1554.8</ele>
        <time>2020-01-26T19:43:33Z</time>
      </trkpt>
      <trkpt lat="9.8791640" lon="-83.9011220">
        <ele>1554.1</ele>
        <time>2020-01-26T19:43:35Z</time>
      </trkpt>
      <trkpt lat="9.8791080" lon="-83.9011880">
        <ele>1553.8</ele>
        <time>2020-01-26T19:43:36Z</time>
      </trkpt>
      <trkpt lat="9.8790470" lon="-83.9012570">
        <ele>1552.0</ele>
        <time>2020-01-26T19:43:37Z</time>
      </trkpt>
      <trkpt lat="9.8789300" lon="-83.9013940">
        <ele>1549.6</ele>
        <time>2020-01-26T19:43:39Z</time>
      </trkpt>
      <trkpt lat="9.8788720" lon="-83.9014640">
        <ele>1548.4</ele>
        <time>2020-01-26T19:43:40Z</time>
      </trkpt>
      <trkpt lat="9.8788130" lon="-83.9015320">
        <ele>1547.4</ele>
        <time>2020-01-26T19:43:41Z</time>
      </trkpt>
      <trkpt lat="9.8787170" lon="-83.9016670">
        <ele>1545.5</ele>
        <time>2020-01-26T19:43:43Z</time>
      </trkpt>
      <trkpt lat="9.8786780" lon="-83.9017450">
        <ele>1544.4</ele>
        <time>2020-01-26T19:43:44Z</time>
      </trkpt>
      <trkpt lat="9.8786490" lon="-83.9018280">
        <ele>1543.3</ele>
        <time>2020-01-26T19:43:45Z</time>
      </trkpt>
      <trkpt lat="9.8786270" lon="-83.9019140">
        <ele>1542.2</ele>
        <time>2020-01-26T19:43:46Z</time>
      </trkpt>
      <trkpt lat="9.8785910" lon="-83.9020870">
        <ele>1540.5</ele>
        <time>2020-01-26T19:43:48Z</time>
      </trkpt>
      <trkpt lat="9.8785510" lon="-83.9022820">
        <ele>1539.2</ele>
        <time>2020-01-26T19:43:50Z</time>
      </trkpt>
      <trkpt lat="9.8785100" lon="-83.9024980">
        <ele>1538.2</ele>
        <time>2020-01-26T19:43:52Z</time>
      </trkpt>
      <trkpt lat="9.8784660" lon="-83.9027080">
        <ele>1537.0</ele>
        <time>2020-01-26T19:43:54Z</time>
      </trkpt>
      <trkpt lat="9.8784430" lon="-83.9028170">
        <ele>1536.4</ele>
        <time>2020-01-26T19:43:55Z</time>
      </trkpt>
      <trkpt lat="9.8784010" lon="-83.9030380">
        <ele>1535.2</ele>
        <time>2020-01-26T19:43:57Z</time>
      </trkpt>
      <trkpt lat="9.8783570" lon="-83.9032640">
        <ele>1533.7</ele>
        <time>2020-01-26T19:43:59Z</time>
      </trkpt>
      <trkpt lat="9.8783360" lon="-83.9033820">
        <ele>1532.5</ele>
        <time>2020-01-26T19:44:00Z</time>
      </trkpt>
      <trkpt lat="9.8782930" lon="-83.9036030">
        <ele>1531.8</ele>
        <time>2020-01-26T19:44:02Z</time>
      </trkpt>
      <trkpt lat="9.8782710" lon="-83.9037090">
        <ele>1532.1</ele>
        <time>2020-01-26T19:44:03Z</time>
      </trkpt>
      <trkpt lat="9.8782500" lon="-83.9038150">
        <ele>1532.2</ele>
        <time>2020-01-26T19:44:04Z</time>
      </trkpt>
      <trkpt lat="9.8782070" lon="-83.9040240">
        <ele>1532.3</ele>
        <time>2020-01-26T19:44:06Z</time>
      </trkpt>
      <trkpt lat="9.8781640" lon="-83.9042420">
        <ele>1532.1</ele>
        <time>2020-01-26T19:44:08Z</time>
      </trkpt>
      <trkpt lat="9.8781280" lon="-83.9044690">
        <ele>1531.3</ele>
        <time>2020-01-26T19:44:10Z</time>
      </trkpt>
      <trkpt lat="9.8781120" lon="-83.9045890">
        <ele>1530.7</ele>
        <time>2020-01-26T19:44:11Z</time>
      </trkpt>
      <trkpt lat="9.8780890" lon="-83.9048280">
        <ele>1529.4</ele>
        <time>2020-01-26T19:44:13Z</time>
      </trkpt>
      <trkpt lat="9.8780800" lon="-83.9049350">
        <ele>1528.9</ele>
        <time>2020-01-26T19:44:14Z</time>
      </trkpt>
      <trkpt lat="9.8780840" lon="-83.9050380">
        <ele>1528.7</ele>
        <time>2020-01-26T19:44:15Z</time>
      </trkpt>
      <trkpt lat="9.8781120" lon="-83.9052380">
        <ele>1528.0</ele>
        <time>2020-01-26T19:44:17Z</time>
      </trkpt>
      <trkpt lat="9.8781320" lon="-83.9054390">
        <ele>1527.3</ele>
        <time>2020-01-26T19:44:19Z</time>
      </trkpt>
      <trkpt lat="9.8781450" lon="-83.9055390">
        <ele>1526.7</ele>
        <time>2020-01-26T19:44:20Z</time>
      </trkpt>
      <trkpt lat="9.8781640" lon="-83.9057340">
        <ele>1525.6</ele>
        <time>2020-01-26T19:44:22Z</time>
      </trkpt>
      <trkpt lat="9.8781830" lon="-83.9059140">
        <ele>1524.5</ele>
        <time>2020-01-26T19:44:24Z</time>
      </trkpt>
      <trkpt lat="9.8781920" lon="-83.9060030">
        <ele>1524.0</ele>
        <time>2020-01-26T19:44:25Z</time>
      </trkpt>
      <trkpt lat="9.8782130" lon="-83.9061860">
        <ele>1522.9</ele>
        <time>2020-01-26T19:44:27Z</time>
      </trkpt>
      <trkpt lat="9.8782220" lon="-83.9062830">
        <ele>1522.9</ele>
        <time>2020-01-26T19:44:28Z</time>
      </trkpt>
      <trkpt lat="9.8782390" lon="-83.9064730">
        <ele>1523.4</ele>
        <time>2020-01-26T19:44:30Z</time>
      </trkpt>
      <trkpt lat="9.8782470" lon="-83.9065660">
        <ele>1523.6</ele>
        <time>2020-01-26T19:44:31Z</time>
      </trkpt>
      <trkpt lat="9.8782650" lon="-83.9067430">
        <ele>1523.7</ele>
        <time>2020-01-26T19:44:33Z</time>
      </trkpt>
      <trkpt lat="9.8782790" lon="-83.9069110">
        <ele>1523.8</ele>
        <time>2020-01-26T19:44:35Z</time>
      </trkpt>
      <trkpt lat="9.8782850" lon="-83.9069940">
        <ele>1523.8</ele>
        <time>2020-01-26T19:44:36Z</time>
      </trkpt>
      <trkpt lat="9.8783020" lon="-83.9071620">
        <ele>1524.0</ele>
        <time>2020-01-26T19:44:38Z</time>
      </trkpt>
      <trkpt lat="9.8783080" lon="-83.9072420">
        <ele>1524.1</ele>
        <time>2020-01-26T19:44:39Z</time>
      </trkpt>
      <trkpt lat="9.8783240" lon="-83.9074030">
        <ele>1524.3</ele>
        <time>2020-01-26T19:44:41Z</time>
      </trkpt>
      <trkpt lat="9.8783360" lon="-83.9074800">
        <ele>1524.4</ele>
        <time>2020-01-26T19:44:42Z</time>
      </trkpt>
      <trkpt lat="9.8783550" lon="-83.9076230">
        <ele>1524.5</ele>
        <time>2020-01-26T19:44:44Z</time>
      </trkpt>
      <trkpt lat="9.8783720" lon="-83.9077580">
        <ele>1524.5</ele>
        <time>2020-01-26T19:44:46Z</time>
      </trkpt>
      <trkpt lat="9.8783780" lon="-83.9078240">
        <ele>1524.4</ele>
        <time>2020-01-26T19:44:47Z</time>
      </trkpt>
      <trkpt lat="9.8783870" lon="-83.9079520">
        <ele>1524.3</ele>
        <time>2020-01-26T19:44:49Z</time>
      </trkpt>
      <trkpt lat="9.8783990" lon="-83.9080790">
        <ele>1524.1</ele>
        <time>2020-01-26T19:44:51Z</time>
      </trkpt>
      <trkpt lat="9.8784030" lon="-83.9081440">
        <ele>1524.1</ele>
        <time>2020-01-26T19:44:52Z</time>
      </trkpt>
      <trkpt lat="9.8784070" lon="-83.9082110">
        <ele>1523.9</ele>
        <time>2020-01-26T19:44:53Z</time>
      </trkpt>
      <trkpt lat="9.8784200" lon="-83.9083440">
        <ele>1523.6</ele>
        <time>2020-01-26T19:44:55Z</time>
      </trkpt>
      <trkpt lat="9.8784320" lon="-83.9084840">
        <ele>1523.1</ele>
        <time>2020-01-26T19:44:57Z</time>
      </trkpt>
      <trkpt lat="9.8784420" lon="-83.9085570">
        <ele>1522.9</ele>
        <time>2020-01-26T19:44:58Z</time>
      </trkpt>
      <trkpt lat="9.8784540" lon="-83.9086990">
        <ele>1522.7</ele>
        <time>2020-01-26T19:45:00Z</time>
      </trkpt>
      <trkpt lat="9.8784640" lon="-83.9088470">
        <ele>1522.8</ele>
        <time>2020-01-26T19:45:02Z</time>
      </trkpt>
      <trkpt lat="9.8784810" lon="-83.9089960">
        <ele>1522.8</ele>
        <time>2020-01-26T19:45:04Z</time>
      </trkpt>
      <trkpt lat="9.8784920" lon="-83.9091480">
        <ele>1522.6</ele>
        <time>2020-01-26T19:45:06Z</time>
      </trkpt>
      <trkpt lat="9.8785120" lon="-83.9093070">
        <ele>1522.3</ele>
        <time>2020-01-26T19:45:08Z</time>
      </trkpt>
      <trkpt lat="9.8785270" lon="-83.9094710">
        <ele>1521.9</ele>
        <time>2020-01-26T19:45:10Z</time>
      </trkpt>
      <trkpt lat="9.8785430" lon="-83.9096320">
        <ele>1521.5</ele>
        <time>2020-01-26T19:45:12Z</time>
      </trkpt>
      <trkpt lat="9.8785520" lon="-83.9097120">
        <ele>1521.2</ele>
        <time>2020-01-26T19:45:13Z</time>
      </trkpt>
      <trkpt lat="9.8785710" lon="-83.9099420">
        <ele>1520.5</ele>
        <time>2020-01-26T19:45:16Z</time>
      </trkpt>
      <trkpt lat="9.8785740" lon="-83.9100090">
        <ele>1520.2</ele>
        <time>2020-01-26T19:45:17Z</time>
      </trkpt>
      <trkpt lat="9.8785800" lon="-83.9101530">
        <ele>1519.8</ele>
        <time>2020-01-26T19:45:19Z</time>
      </trkpt>
      <trkpt lat="9.8785800" lon="-83.9102290">
        <ele>1519.7</ele>
        <time>2020-01-26T19:45:20Z</time>
      </trkpt>
      <trkpt lat="9.8785880" lon="-83.9103100">
        <ele>1519.5</ele>
        <time>2020-01-26T19:45:21Z</time>
      </trkpt>
      <trkpt lat="9.8786030" lon="-83.9104680">
        <ele>1519.1</ele>
        <time>2020-01-26T19:45:23Z</time>
      </trkpt>
      <trkpt lat="9.8786200" lon="-83.9106270">
        <ele>1519.3</ele>
        <time>2020-01-26T19:45:25Z</time>
      </trkpt>
      <trkpt lat="9.8786350" lon="-83.9107100">
        <ele>1519.6</ele>
        <time>2020-01-26T19:45:26Z</time>
      </trkpt>
      <trkpt lat="9.8786550" lon="-83.9108680">
        <ele>1520.0</ele>
        <time>2020-01-26T19:45:28Z</time>
      </trkpt>
      <trkpt lat="9.8786700" lon="-83.9110290">
        <ele>1521.2</ele>
        <time>2020-01-26T19:45:30Z</time>
      </trkpt>
      <trkpt lat="9.8786770" lon="-83.9111090">
        <ele>1522.0</ele>
        <time>2020-01-26T19:45:31Z</time>
      </trkpt>
      <trkpt lat="9.8786820" lon="-83.9111860">
        <ele>1522.7</ele>
        <time>2020-01-26T19:45:32Z</time>
      </trkpt>
      <trkpt lat="9.8786960" lon="-83.9113280">
        <ele>1524.0</ele>
        <time>2020-01-26T19:45:34Z</time>
      </trkpt>
      <trkpt lat="9.8786900" lon="-83.9114660">
        <ele>1525.2</ele>
        <time>2020-01-26T19:45:36Z</time>
      </trkpt>
      <trkpt lat="9.8787060" lon="-83.9115950">
        <ele>1526.3</ele>
        <time>2020-01-26T19:45:38Z</time>
      </trkpt>
      <trkpt lat="9.8787260" lon="-83.9117230">
        <ele>1527.5</ele>
        <time>2020-01-26T19:45:40Z</time>
      </trkpt>
      <trkpt lat="9.8787390" lon="-83.9118400">
        <ele>1528.0</ele>
        <time>2020-01-26T19:45:42Z</time>
      </trkpt>
      <trkpt lat="9.8787360" lon="-83.9118980">
        <ele>1528.2</ele>
        <time>2020-01-26T19:45:43Z</time>
      </trkpt>
      <trkpt lat="9.8787390" lon="-83.9120060">
        <ele>1528.5</ele>
        <time>2020-01-26T19:45:45Z</time>
      </trkpt>
      <trkpt lat="9.8787430" lon="-83.9120590">
        <ele>1528.7</ele>
        <time>2020-01-26T19:45:46Z</time>
      </trkpt>
      <trkpt lat="9.8787460" lon="-83.9121160">
        <ele>1528.2</ele>
        <time>2020-01-26T19:45:47Z</time>
      </trkpt>
      <trkpt lat="9.8787460" lon="-83.9121680">
        <ele>1527.9</ele>
        <time>2020-01-26T19:45:48Z</time>
      </trkpt>
      <trkpt lat="9.8787480" lon="-83.9122860">
        <ele>1527.7</ele>
        <time>2020-01-26T19:45:50Z</time>
      </trkpt>
      <trkpt lat="9.8787490" lon="-83.9123970">
        <ele>1527.7</ele>
        <time>2020-01-26T19:45:52Z</time>
      </trkpt>
      <trkpt lat="9.8787550" lon="-83.9124530">
        <ele>1527.7</ele>
        <time>2020-01-26T19:45:53Z</time>
      </trkpt>
      <trkpt lat="9.8787700" lon="-83.9125640">
        <ele>1527.8</ele>
        <time>2020-01-26T19:45:55Z</time>
      </trkpt>
      <trkpt lat="9.8787920" lon="-83.9126710">
        <ele>1528.1</ele>
        <time>2020-01-26T19:45:57Z</time>
      </trkpt>
      <trkpt lat="9.8787990" lon="-83.9127240">
        <ele>1528.3</ele>
        <time>2020-01-26T19:45:58Z</time>
      </trkpt>
      <trkpt lat="9.8788090" lon="-83.9127800">
        <ele>1528.4</ele>
        <time>2020-01-26T19:45:59Z</time>
      </trkpt>
      <trkpt lat="9.8788260" lon="-83.9128890">
        <ele>1528.6</ele>
        <time>2020-01-26T19:46:01Z</time>
      </trkpt>
      <trkpt lat="9.8788420" lon="-83.9129890">
        <ele>1528.3</ele>
        <time>2020-01-26T19:46:03Z</time>
      </trkpt>
      <trkpt lat="9.8788500" lon="-83.9130830">
        <ele>1527.8</ele>
        <time>2020-01-26T19:46:05Z</time>
      </trkpt>
      <trkpt lat="9.8788560" lon="-83.9131320">
        <ele>1527.5</ele>
        <time>2020-01-26T19:46:06Z</time>
      </trkpt>
      <trkpt lat="9.8788660" lon="-83.9131810">
        <ele>1527.9</ele>
        <time>2020-01-26T19:46:07Z</time>
      </trkpt>
      <trkpt lat="9.8788810" lon="-83.9132850">
        <ele>1528.7</ele>
        <time>2020-01-26T19:46:09Z</time>
      </trkpt>
      <trkpt lat="9.8788930" lon="-83.9133790">
        <ele>1529.2</ele>
        <time>2020-01-26T19:46:11Z</time>
      </trkpt>
      <trkpt lat="9.8788960" lon="-83.9134260">
        <ele>1529.4</ele>
        <time>2020-01-26T19:46:12Z</time>
      </trkpt>
      <trkpt lat="9.8789110" lon="-83.9135170">
        <ele>1529.9</ele>
        <time>2020-01-26T19:46:14Z</time>
      </trkpt>
      <trkpt lat="9.8789210" lon="-83.9136140">
        <ele>1530.4</ele>
        <time>2020-01-26T19:46:16Z</time>
      </trkpt>
      <trkpt lat="9.8789230" lon="-83.9136640">
        <ele>1530.8</ele>
        <time>2020-01-26T19:46:17Z</time>
      </trkpt>
      <trkpt lat="9.8789270" lon="-83.9137120">
        <ele>1531.1</ele>
        <time>2020-01-26T19:46:18Z</time>
      </trkpt>
      <trkpt lat="9.8789390" lon="-83.9138060">
        <ele>1531.8</ele>
        <time>2020-01-26T19:46:20Z</time>
      </trkpt>
      <trkpt lat="9.8789410" lon="-83.9138520">
        <ele>1532.1</ele>
        <time>2020-01-26T19:46:21Z</time>
      </trkpt>
      <trkpt lat="9.8789490" lon="-83.9139470">
        <ele>1532.6</ele>
        <time>2020-01-26T19:46:23Z</time>
      </trkpt>
      <trkpt lat="9.8789570" lon="-83.9140380">
        <ele>1532.9</ele>
        <time>2020-01-26T19:46:25Z</time>
      </trkpt>
      <trkpt lat="9.8789640" lon="-83.9141300">
        <ele>1533.2</ele>
        <time>2020-01-26T19:46:27Z</time>
      </trkpt>
      <trkpt lat="9.8789710" lon="-83.9142270">
        <ele>1533.5</ele>
        <time>2020-01-26T19:46:29Z</time>
      </trkpt>
      <trkpt lat="9.8789800" lon="-83.9143280">
        <ele>1533.8</ele>
        <time>2020-01-26T19:46:31Z</time>
      </trkpt>
      <trkpt lat="9.8789880" lon="-83.9144310">
        <ele>1534.2</ele>
        <time>2020-01-26T19:46:33Z</time>
      </trkpt>
      <trkpt lat="9.8789990" lon="-83.9145340">
        <ele>1534.7</ele>
        <time>2020-01-26T19:46:35Z</time>
      </trkpt>
      <trkpt lat="9.8790070" lon="-83.9146310">
        <ele>1535.2</ele>
        <time>2020-01-26T19:46:37Z</time>
      </trkpt>
      <trkpt lat="9.8790120" lon="-83.9146820">
        <ele>1535.4</ele>
        <time>2020-01-26T19:46:38Z</time>
      </trkpt>
      <trkpt lat="9.8790170" lon="-83.9147310">
        <ele>1535.5</ele>
        <time>2020-01-26T19:46:39Z</time>
      </trkpt>
      <trkpt lat="9.8790250" lon="-83.9148370">
        <ele>1535.8</ele>
        <time>2020-01-26T19:46:41Z</time>
      </trkpt>
      <trkpt lat="9.8790320" lon="-83.9148880">
        <ele>1536.0</ele>
        <time>2020-01-26T19:46:42Z</time>
      </trkpt>
      <trkpt lat="9.8790410" lon="-83.9149930">
        <ele>1536.4</ele>
        <time>2020-01-26T19:46:44Z</time>
      </trkpt>
      <trkpt lat="9.8790550" lon="-83.9151010">
        <ele>1536.7</ele>
        <time>2020-01-26T19:46:46Z</time>
      </trkpt>
      <trkpt lat="9.8790610" lon="-83.9151590">
        <ele>1536.6</ele>
        <time>2020-01-26T19:46:47Z</time>
      </trkpt>
      <trkpt lat="9.8790690" lon="-83.9152700">
        <ele>1536.5</ele>
        <time>2020-01-26T19:46:49Z</time>
      </trkpt>
      <trkpt lat="9.8790760" lon="-83.9153260">
        <ele>1536.5</ele>
        <time>2020-01-26T19:46:50Z</time>
      </trkpt>
      <trkpt lat="9.8790860" lon="-83.9154330">
        <ele>1536.7</ele>
        <time>2020-01-26T19:46:52Z</time>
      </trkpt>
      <trkpt lat="9.8790950" lon="-83.9154830">
        <ele>1536.8</ele>
        <time>2020-01-26T19:46:53Z</time>
      </trkpt>
      <trkpt lat="9.8791060" lon="-83.9155350">
        <ele>1537.0</ele>
        <time>2020-01-26T19:46:54Z</time>
      </trkpt>
      <trkpt lat="9.8791240" lon="-83.9156390">
        <ele>1537.3</ele>
        <time>2020-01-26T19:46:56Z</time>
      </trkpt>
      <trkpt lat="9.8791340" lon="-83.9156930">
        <ele>1537.6</ele>
        <time>2020-01-26T19:46:57Z</time>
      </trkpt>
      <trkpt lat="9.8791480" lon="-83.9157470">
        <ele>1537.9</ele>
        <time>2020-01-26T19:46:58Z</time>
      </trkpt>
      <trkpt lat="9.8791640" lon="-83.9158010">
        <ele>1538.1</ele>
        <time>2020-01-26T19:46:59Z</time>
      </trkpt>
      <trkpt lat="9.8791980" lon="-83.9159110">
        <ele>1538.4</ele>
        <time>2020-01-26T19:47:01Z</time>
      </trkpt>
      <trkpt lat="9.8792350" lon="-83.9160170">
        <ele>1538.7</ele>
        <time>2020-01-26T19:47:03Z</time>
      </trkpt>
      <trkpt lat="9.8792770" lon="-83.9161220">
        <ele>1538.9</ele>
        <time>2020-01-26T19:47:05Z</time>
      </trkpt>
      <trkpt lat="9.8793000" lon="-83.9161770">
        <ele>1539.0</ele>
        <time>2020-01-26T19:47:06Z</time>
      </trkpt>
      <trkpt lat="9.8793480" lon="-83.9162850">
        <ele>1539.0</ele>
        <time>2020-01-26T19:47:08Z</time>
      </trkpt>
      <trkpt lat="9.8793700" lon="-83.9163410">
        <ele>1539.0</ele>
        <time>2020-01-26T19:47:09Z</time>
      </trkpt>
      <trkpt lat="9.8794160" lon="-83.9164470">
        <ele>1538.9</ele>
        <time>2020-01-26T19:47:11Z</time>
      </trkpt>
      <trkpt lat="9.8794380" lon="-83.9164940">
        <ele>1538.9</ele>
        <time>2020-01-26T19:47:12Z</time>
      </trkpt>
      <trkpt lat="9.8794870" lon="-83.9165970">
        <ele>1538.7</ele>
        <time>2020-01-26T19:47:14Z</time>
      </trkpt>
      <trkpt lat="9.8795130" lon="-83.9166520">
        <ele>1538.6</ele>
        <time>2020-01-26T19:47:15Z</time>
      </trkpt>
      <trkpt lat="9.8795590" lon="-83.9167590">
        <ele>1536.7</ele>
        <time>2020-01-26T19:47:17Z</time>
      </trkpt>
      <trkpt lat="9.8795830" lon="-83.9168110">
        <ele>1536.3</ele>
        <time>2020-01-26T19:47:18Z</time>
      </trkpt>
      <trkpt lat="9.8796080" lon="-83.9168640">
        <ele>1535.9</ele>
        <time>2020-01-26T19:47:19Z</time>
      </trkpt>
      <trkpt lat="9.8796350" lon="-83.9169120">
        <ele>1535.7</ele>
        <time>2020-01-26T19:47:20Z</time>
      </trkpt>
      <trkpt lat="9.8796840" lon="-83.9170090">
        <ele>1536.1</ele>
        <time>2020-01-26T19:47:22Z</time>
      </trkpt>
      <trkpt lat="9.8797050" lon="-83.9170590">
        <ele>1536.3</ele>
        <time>2020-01-26T19:47:23Z</time>
      </trkpt>
      <trkpt lat="9.8797490" lon="-83.9171580">
        <ele>1536.8</ele>
        <time>2020-01-26T19:47:25Z</time>
      </trkpt>
      <trkpt lat="9.8797890" lon="-83.9172470">
        <ele>1537.4</ele>
        <time>2020-01-26T19:47:27Z</time>
      </trkpt>
      <trkpt lat="9.8798090" lon="-83.9172930">
        <ele>1537.6</ele>
        <time>2020-01-26T19:47:28Z</time>
      </trkpt>
      <trkpt lat="9.8798280" lon="-83.9173400">
        <ele>1537.9</ele>
        <time>2020-01-26T19:47:29Z</time>
      </trkpt>
      <trkpt lat="9.8798680" lon="-83.9174270">
        <ele>1538.3</ele>
        <time>2020-01-26T19:47:31Z</time>
      </trkpt>
      <trkpt lat="9.8799050" lon="-83.9175200">
        <ele>1538.6</ele>
        <time>2020-01-26T19:47:33Z</time>
      </trkpt>
      <trkpt lat="9.8799240" lon="-83.9175650">
        <ele>1538.8</ele>
        <time>2020-01-26T19:47:34Z</time>
      </trkpt>
      <trkpt lat="9.8799440" lon="-83.9176100">
        <ele>1538.9</ele>
        <time>2020-01-26T19:47:35Z</time>
      </trkpt>
      <trkpt lat="9.8799660" lon="-83.9176510">
        <ele>1539.0</ele>
        <time>2020-01-26T19:47:36Z</time>
      </trkpt>
      <trkpt lat="9.8800090" lon="-83.9177350">
        <ele>1539.5</ele>
        <time>2020-01-26T19:47:38Z</time>
      </trkpt>
      <trkpt lat="9.8800300" lon="-83.9177800">
        <ele>1539.7</ele>
        <time>2020-01-26T19:47:39Z</time>
      </trkpt>
      <trkpt lat="9.8800700" lon="-83.9178640">
        <ele>1540.0</ele>
        <time>2020-01-26T19:47:41Z</time>
      </trkpt>
      <trkpt lat="9.8801140" lon="-83.9179450">
        <ele>1540.1</ele>
        <time>2020-01-26T19:47:43Z</time>
      </trkpt>
      <trkpt lat="9.8801540" lon="-83.9180340">
        <ele>1540.3</ele>
        <time>2020-01-26T19:47:45Z</time>
      </trkpt>
      <trkpt lat="9.8801750" lon="-83.9180760">
        <ele>1540.4</ele>
        <time>2020-01-26T19:47:46Z</time>
      </trkpt>
      <trkpt lat="9.8801930" lon="-83.9181170">
        <ele>1540.5</ele>
        <time>2020-01-26T19:47:47Z</time>
      </trkpt>
      <trkpt lat="9.8802350" lon="-83.9182030">
        <ele>1540.7</ele>
        <time>2020-01-26T19:47:49Z</time>
      </trkpt>
      <trkpt lat="9.8802980" lon="-83.9183350">
        <ele>1540.8</ele>
        <time>2020-01-26T19:47:52Z</time>
      </trkpt>
      <trkpt lat="9.8803120" lon="-83.9183800">
        <ele>1540.9</ele>
        <time>2020-01-26T19:47:53Z</time>
      </trkpt>
      <trkpt lat="9.8803340" lon="-83.9184280">
        <ele>1540.9</ele>
        <time>2020-01-26T19:47:54Z</time>
      </trkpt>
      <trkpt lat="9.8803550" lon="-83.9184770">
        <ele>1541.0</ele>
        <time>2020-01-26T19:47:55Z</time>
      </trkpt>
      <trkpt lat="9.8803950" lon="-83.9185670">
        <ele>1541.1</ele>
        <time>2020-01-26T19:47:57Z</time>
      </trkpt>
      <trkpt lat="9.8804370" lon="-83.9186610">
        <ele>1541.1</ele>
        <time>2020-01-26T19:47:59Z</time>
      </trkpt>
      <trkpt lat="9.8804770" lon="-83.9187480">
        <ele>1540.8</ele>
        <time>2020-01-26T19:48:01Z</time>
      </trkpt>
      <trkpt lat="9.8804780" lon="-83.9187830">
        <ele>1540.6</ele>
        <time>2020-01-26T19:48:02Z</time>
      </trkpt>
      <trkpt lat="9.8805010" lon="-83.9188320">
        <ele>1540.5</ele>
        <time>2020-01-26T19:48:03Z</time>
      </trkpt>
      <trkpt lat="9.8805370" lon="-83.9188970">
        <ele>1540.4</ele>
        <time>2020-01-26T19:48:05Z</time>
      </trkpt>
      <trkpt lat="9.8805730" lon="-83.9189620">
        <ele>1540.3</ele>
        <time>2020-01-26T19:48:06Z</time>
      </trkpt>
      <trkpt lat="9.8806120" lon="-83.9190520">
        <ele>1541.6</ele>
        <time>2020-01-26T19:48:08Z</time>
      </trkpt>
      <trkpt lat="9.8806320" lon="-83.9190980">
        <ele>1542.1</ele>
        <time>2020-01-26T19:48:09Z</time>
      </trkpt>
      <trkpt lat="9.8806550" lon="-83.9191400">
        <ele>1542.6</ele>
        <time>2020-01-26T19:48:10Z</time>
      </trkpt>
      <trkpt lat="9.8806790" lon="-83.9191820">
        <ele>1542.9</ele>
        <time>2020-01-26T19:48:11Z</time>
      </trkpt>
      <trkpt lat="9.8806990" lon="-83.9192260">
        <ele>1543.3</ele>
        <time>2020-01-26T19:48:12Z</time>
      </trkpt>
      <trkpt lat="9.8807360" lon="-83.9193040">
        <ele>1543.8</ele>
        <time>2020-01-26T19:48:14Z</time>
      </trkpt>
      <trkpt lat="9.8807570" lon="-83.9193450">
        <ele>1544.1</ele>
        <time>2020-01-26T19:48:15Z</time>
      </trkpt>
      <trkpt lat="9.8807940" lon="-83.9194320">
        <ele>1544.9</ele>
        <time>2020-01-26T19:48:17Z</time>
      </trkpt>
      <trkpt lat="9.8808350" lon="-83.9195170">
        <ele>1545.4</ele>
        <time>2020-01-26T19:48:19Z</time>
      </trkpt>
      <trkpt lat="9.8808780" lon="-83.9196010">
        <ele>1545.7</ele>
        <time>2020-01-26T19:48:21Z</time>
      </trkpt>
      <trkpt lat="9.8809160" lon="-83.9196890">
        <ele>1545.6</ele>
        <time>2020-01-26T19:48:23Z</time>
      </trkpt>
      <trkpt lat="9.8809580" lon="-83.9197780">
        <ele>1545.4</ele>
        <time>2020-01-26T19:48:25Z</time>
      </trkpt>
      <trkpt lat="9.8809770" lon="-83.9198250">
        <ele>1545.4</ele>
        <time>2020-01-26T19:48:26Z</time>
      </trkpt>
      <trkpt lat="9.8809940" lon="-83.9198720">
        <ele>1545.3</ele>
        <time>2020-01-26T19:48:27Z</time>
      </trkpt>
      <trkpt lat="9.8810270" lon="-83.9199580">
        <ele>1545.2</ele>
        <time>2020-01-26T19:48:29Z</time>
      </trkpt>
      <trkpt lat="9.8810690" lon="-83.9200530">
        <ele>1544.9</ele>
        <time>2020-01-26T19:48:31Z</time>
      </trkpt>
      <trkpt lat="9.8811070" lon="-83.9201460">
        <ele>1544.5</ele>
        <time>2020-01-26T19:48:33Z</time>
      </trkpt>
      <trkpt lat="9.8811310" lon="-83.9201970">
        <ele>1544.3</ele>
        <time>2020-01-26T19:48:34Z</time>
      </trkpt>
      <trkpt lat="9.8811540" lon="-83.9202480">
        <ele>1544.1</ele>
        <time>2020-01-26T19:48:35Z</time>
      </trkpt>
      <trkpt lat="9.8812030" lon="-83.9203460">
        <ele>1543.7</ele>
        <time>2020-01-26T19:48:37Z</time>
      </trkpt>
      <trkpt lat="9.8812230" lon="-83.9203940">
        <ele>1543.4</ele>
        <time>2020-01-26T19:48:38Z</time>
      </trkpt>
      <trkpt lat="9.8812900" lon="-83.9205380">
        <ele>1542.8</ele>
        <time>2020-01-26T19:48:41Z</time>
      </trkpt>
      <trkpt lat="9.8813130" lon="-83.9205860">
        <ele>1542.7</ele>
        <time>2020-01-26T19:48:42Z</time>
      </trkpt>
      <trkpt lat="9.8813350" lon="-83.9206330">
        <ele>1542.7</ele>
        <time>2020-01-26T19:48:43Z</time>
      </trkpt>
      <trkpt lat="9.8813810" lon="-83.9207290">
        <ele>1542.7</ele>
        <time>2020-01-26T19:48:45Z</time>
      </trkpt>
      <trkpt lat="9.8814020" lon="-83.9207780">
        <ele>1542.7</ele>
        <time>2020-01-26T19:48:46Z</time>
      </trkpt>
      <trkpt lat="9.8814230" lon="-83.9208290">
        <ele>1542.7</ele>
        <time>2020-01-26T19:48:47Z</time>
      </trkpt>
      <trkpt lat="9.8814640" lon="-83.9209340">
        <ele>1542.5</ele>
        <time>2020-01-26T19:48:49Z</time>
      </trkpt>
      <trkpt lat="9.8814860" lon="-83.9209920">
        <ele>1542.5</ele>
        <time>2020-01-26T19:48:50Z</time>
      </trkpt>
      <trkpt lat="9.8815030" lon="-83.9210540">
        <ele>1542.4</ele>
        <time>2020-01-26T19:48:51Z</time>
      </trkpt>
      <trkpt lat="9.8815150" lon="-83.9211160">
        <ele>1542.2</ele>
        <time>2020-01-26T19:48:52Z</time>
      </trkpt>
      <trkpt lat="9.8815370" lon="-83.9212490">
        <ele>1541.7</ele>
        <time>2020-01-26T19:48:54Z</time>
      </trkpt>
      <trkpt lat="9.8815430" lon="-83.9213150">
        <ele>1541.5</ele>
        <time>2020-01-26T19:48:55Z</time>
      </trkpt>
      <trkpt lat="9.8815400" lon="-83.9214660">
        <ele>1540.8</ele>
        <time>2020-01-26T19:48:57Z</time>
      </trkpt>
      <trkpt lat="9.8815330" lon="-83.9215400">
        <ele>1540.4</ele>
        <time>2020-01-26T19:48:58Z</time>
      </trkpt>
      <trkpt lat="9.8815010" lon="-83.9216910">
        <ele>1539.6</ele>
        <time>2020-01-26T19:49:00Z</time>
      </trkpt>
      <trkpt lat="9.8814690" lon="-83.9217670">
        <ele>1539.0</ele>
        <time>2020-01-26T19:49:01Z</time>
      </trkpt>
      <trkpt lat="9.8814360" lon="-83.9218420">
        <ele>1538.7</ele>
        <time>2020-01-26T19:49:02Z</time>
      </trkpt>
      <trkpt lat="9.8813430" lon="-83.9219840">
        <ele>1537.7</ele>
        <time>2020-01-26T19:49:04Z</time>
      </trkpt>
      <trkpt lat="9.8812870" lon="-83.9220530">
        <ele>1537.0</ele>
        <time>2020-01-26T19:49:05Z</time>
      </trkpt>
      <trkpt lat="9.8811640" lon="-83.9221760">
        <ele>1535.8</ele>
        <time>2020-01-26T19:49:07Z</time>
      </trkpt>
      <trkpt lat="9.8810220" lon="-83.9222880">
        <ele>1534.7</ele>
        <time>2020-01-26T19:49:09Z</time>
      </trkpt>
      <trkpt lat="9.8809390" lon="-83.9223300">
        <ele>1534.2</ele>
        <time>2020-01-26T19:49:10Z</time>
      </trkpt>
      <trkpt lat="9.8807600" lon="-83.9224040">
        <ele>1533.3</ele>
        <time>2020-01-26T19:49:12Z</time>
      </trkpt>
      <trkpt lat="9.8806660" lon="-83.9224360">
        <ele>1532.8</ele>
        <time>2020-01-26T19:49:13Z</time>
      </trkpt>
      <trkpt lat="9.8804770" lon="-83.9224960">
        <ele>1531.7</ele>
        <time>2020-01-26T19:49:15Z</time>
      </trkpt>
      <trkpt lat="9.8803880" lon="-83.9225210">
        <ele>1531.1</ele>
        <time>2020-01-26T19:49:16Z</time>
      </trkpt>
      <trkpt lat="9.8802170" lon="-83.9225730">
        <ele>1530.1</ele>
        <time>2020-01-26T19:49:18Z</time>
      </trkpt>
      <trkpt lat="9.8800530" lon="-83.9226220">
        <ele>1529.3</ele>
        <time>2020-01-26T19:49:20Z</time>
      </trkpt>
      <trkpt lat="9.8799820" lon="-83.9226470">
        <ele>1529.0</ele>
        <time>2020-01-26T19:49:21Z</time>
      </trkpt>
      <trkpt lat="9.8798340" lon="-83.9227110">
        <ele>1526.7</ele>
        <time>2020-01-26T19:49:23Z</time>
      </trkpt>
      <trkpt lat="9.8796820" lon="-83.9228010">
        <ele>1524.9</ele>
        <time>2020-01-26T19:49:25Z</time>
      </trkpt>
      <trkpt lat="9.8795200" lon="-83.9229220">
        <ele>1521.8</ele>
        <time>2020-01-26T19:49:27Z</time>
      </trkpt>
      <trkpt lat="9.8794400" lon="-83.9229920">
        <ele>1520.0</ele>
        <time>2020-01-26T19:49:28Z</time>
      </trkpt>
      <trkpt lat="9.8792840" lon="-83.9231550">
        <ele>1517.1</ele>
        <time>2020-01-26T19:49:30Z</time>
      </trkpt>
      <trkpt lat="9.8792120" lon="-83.9232440">
        <ele>1516.5</ele>
        <time>2020-01-26T19:49:31Z</time>
      </trkpt>
      <trkpt lat="9.8791480" lon="-83.9233400">
        <ele>1516.0</ele>
        <time>2020-01-26T19:49:32Z</time>
      </trkpt>
      <trkpt lat="9.8790220" lon="-83.9235430">
        <ele>1515.0</ele>
        <time>2020-01-26T19:49:34Z</time>
      </trkpt>
      <trkpt lat="9.8789590" lon="-83.9236470">
        <ele>1514.3</ele>
        <time>2020-01-26T19:49:35Z</time>
      </trkpt>
      <trkpt lat="9.8788250" lon="-83.9238560">
        <ele>1513.2</ele>
        <time>2020-01-26T19:49:37Z</time>
      </trkpt>
      <trkpt lat="9.8787570" lon="-83.9239650">
        <ele>1512.8</ele>
        <time>2020-01-26T19:49:38Z</time>
      </trkpt>
      <trkpt lat="9.8786190" lon="-83.9241760">
        <ele>1511.5</ele>
        <time>2020-01-26T19:49:40Z</time>
      </trkpt>
      <trkpt lat="9.8785410" lon="-83.9242790">
        <ele>1510.7</ele>
        <time>2020-01-26T19:49:41Z</time>
      </trkpt>
      <trkpt lat="9.8783800" lon="-83.9244770">
        <ele>1508.8</ele>
        <time>2020-01-26T19:49:43Z</time>
      </trkpt>
      <trkpt lat="9.8782080" lon="-83.9246760">
        <ele>1506.6</ele>
        <time>2020-01-26T19:49:45Z</time>
      </trkpt>
      <trkpt lat="9.8780260" lon="-83.9248670">
        <ele>1504.4</ele>
        <time>2020-01-26T19:49:47Z</time>
      </trkpt>
      <trkpt lat="9.8779380" lon="-83.9249560">
        <ele>1503.5</ele>
        <time>2020-01-26T19:49:48Z</time>
      </trkpt>
      <trkpt lat="9.8778530" lon="-83.9250430">
        <ele>1502.7</ele>
        <time>2020-01-26T19:49:49Z</time>
      </trkpt>
      <trkpt lat="9.8776900" lon="-83.9252170">
        <ele>1500.7</ele>
        <time>2020-01-26T19:49:51Z</time>
      </trkpt>
      <trkpt lat="9.8776120" lon="-83.9253000">
        <ele>1499.8</ele>
        <time>2020-01-26T19:49:52Z</time>
      </trkpt>
      <trkpt lat="9.8774840" lon="-83.9254350">
        <ele>1498.5</ele>
        <time>2020-01-26T19:49:54Z</time>
      </trkpt>
      <trkpt lat="9.8773800" lon="-83.9255520">
        <ele>1497.3</ele>
        <time>2020-01-26T19:49:56Z</time>
      </trkpt>
      <trkpt lat="9.8772880" lon="-83.9256710">
        <ele>1495.8</ele>
        <time>2020-01-26T19:49:58Z</time>
      </trkpt>
      <trkpt lat="9.8772470" lon="-83.9257320">
        <ele>1495.3</ele>
        <time>2020-01-26T19:49:59Z</time>
      </trkpt>
      <trkpt lat="9.8772080" lon="-83.9257930">
        <ele>1494.8</ele>
        <time>2020-01-26T19:50:00Z</time>
      </trkpt>
      <trkpt lat="9.8771570" lon="-83.9259130">
        <ele>1494.0</ele>
        <time>2020-01-26T19:50:02Z</time>
      </trkpt>
      <trkpt lat="9.8771370" lon="-83.9259690">
        <ele>1493.7</ele>
        <time>2020-01-26T19:50:03Z</time>
      </trkpt>
      <trkpt lat="9.8771030" lon="-83.9260570">
        <ele>1493.1</ele>
        <time>2020-01-26T19:50:05Z</time>
      </trkpt>
      <trkpt lat="9.8770800" lon="-83.9261290">
        <ele>1492.5</ele>
        <time>2020-01-26T19:50:07Z</time>
      </trkpt>
      <trkpt lat="9.8770730" lon="-83.9261600">
        <ele>1492.3</ele>
        <time>2020-01-26T19:50:08Z</time>
      </trkpt>
      <trkpt lat="9.8770640" lon="-83.9262220">
        <ele>1491.8</ele>
        <time>2020-01-26T19:50:10Z</time>
      </trkpt>
      <trkpt lat="9.8770560" lon="-83.9262550">
        <ele>1491.6</ele>
        <time>2020-01-26T19:50:12Z</time>
      </trkpt>
      <trkpt lat="9.8770510" lon="-83.9263040">
        <ele>1491.2</ele>
        <time>2020-01-26T19:50:13Z</time>
      </trkpt>
      <trkpt lat="9.8770480" lon="-83.9263400">
        <ele>1491.0</ele>
        <time>2020-01-26T19:50:14Z</time>
      </trkpt>
      <trkpt lat="9.8770450" lon="-83.9263700">
        <ele>1490.8</ele>
        <time>2020-01-26T19:50:15Z</time>
      </trkpt>
      <trkpt lat="9.8770400" lon="-83.9264060">
        <ele>1490.5</ele>
        <time>2020-01-26T19:50:16Z</time>
      </trkpt>
      <trkpt lat="9.8770380" lon="-83.9264390">
        <ele>1490.4</ele>
        <time>2020-01-26T19:50:17Z</time>
      </trkpt>
      <trkpt lat="9.8770340" lon="-83.9264820">
        <ele>1490.1</ele>
        <time>2020-01-26T19:50:19Z</time>
      </trkpt>
      <trkpt lat="9.8770280" lon="-83.9265320">
        <ele>1489.8</ele>
        <time>2020-01-26T19:50:20Z</time>
      </trkpt>
      <trkpt lat="9.8770350" lon="-83.9266030">
        <ele>1489.5</ele>
        <time>2020-01-26T19:50:21Z</time>
      </trkpt>
      <trkpt lat="9.8770430" lon="-83.9266740">
        <ele>1489.2</ele>
        <time>2020-01-26T19:50:23Z</time>
      </trkpt>
      <trkpt lat="9.8770490" lon="-83.9267530">
        <ele>1489.0</ele>
        <time>2020-01-26T19:50:24Z</time>
      </trkpt>
      <trkpt lat="9.8770570" lon="-83.9268130">
        <ele>1488.8</ele>
        <time>2020-01-26T19:50:25Z</time>
      </trkpt>
      <trkpt lat="9.8770720" lon="-83.9269190">
        <ele>1488.5</ele>
        <time>2020-01-26T19:50:27Z</time>
      </trkpt>
      <trkpt lat="9.8770810" lon="-83.9269490">
        <ele>1488.4</ele>
        <time>2020-01-26T19:50:28Z</time>
      </trkpt>
      <trkpt lat="9.8770820" lon="-83.9269610">
        <ele>1488.3</ele>
        <time>2020-01-26T19:50:29Z</time>
      </trkpt>
      <trkpt lat="9.8770680" lon="-83.9270030">
        <ele>1488.2</ele>
        <time>2020-01-26T19:50:30Z</time>
      </trkpt>
      <trkpt lat="9.8771010" lon="-83.9271160">
        <ele>1487.9</ele>
        <time>2020-01-26T19:50:32Z</time>
      </trkpt>
      <trkpt lat="9.8771290" lon="-83.9271730">
        <ele>1488.0</ele>
        <time>2020-01-26T19:50:33Z</time>
      </trkpt>
      <trkpt lat="9.8771770" lon="-83.9272940">
        <ele>1488.1</ele>
        <time>2020-01-26T19:50:35Z</time>
      </trkpt>
      <trkpt lat="9.8772030" lon="-83.9273460">
        <ele>1488.1</ele>
        <time>2020-01-26T19:50:36Z</time>
      </trkpt>
      <trkpt lat="9.8772260" lon="-83.9273820">
        <ele>1488.1</ele>
        <time>2020-01-26T19:50:37Z</time>
      </trkpt>
      <trkpt lat="9.8772490" lon="-83.9274270">
        <ele>1488.1</ele>
        <time>2020-01-26T19:50:38Z</time>
      </trkpt>
      <trkpt lat="9.8773060" lon="-83.9275370">
        <ele>1488.1</ele>
        <time>2020-01-26T19:50:40Z</time>
      </trkpt>
      <trkpt lat="9.8773460" lon="-83.9275950">
        <ele>1487.9</ele>
        <time>2020-01-26T19:50:41Z</time>
      </trkpt>
      <trkpt lat="9.8774180" lon="-83.9277150">
        <ele>1487.3</ele>
        <time>2020-01-26T19:50:43Z</time>
      </trkpt>
      <trkpt lat="9.8774450" lon="-83.9277740">
        <ele>1486.9</ele>
        <time>2020-01-26T19:50:44Z</time>
      </trkpt>
      <trkpt lat="9.8774530" lon="-83.9277850">
        <ele>1486.9</ele>
        <time>2020-01-26T19:50:45Z</time>
      </trkpt>
      <trkpt lat="9.8774860" lon="-83.9278520">
        <ele>1486.4</ele>
        <time>2020-01-26T19:50:47Z</time>
      </trkpt>
      <trkpt lat="9.8774950" lon="-83.9278670">
        <ele>1486.3</ele>
        <time>2020-01-26T19:50:49Z</time>
      </trkpt>
      <trkpt lat="9.8775020" lon="-83.9278790">
        <ele>1486.2</ele>
        <time>2020-01-26T19:50:50Z</time>
      </trkpt>
      <trkpt lat="9.8775100" lon="-83.9278920">
        <ele>1486.1</ele>
        <time>2020-01-26T19:50:52Z</time>
      </trkpt>
      <trkpt lat="9.8775170" lon="-83.9279040">
        <ele>1486.0</ele>
        <time>2020-01-26T19:50:53Z</time>
      </trkpt>
      <trkpt lat="9.8775450" lon="-83.9279690">
        <ele>1485.6</ele>
        <time>2020-01-26T19:50:54Z</time>
      </trkpt>
      <trkpt lat="9.8775750" lon="-83.9280220">
        <ele>1485.3</ele>
        <time>2020-01-26T19:50:55Z</time>
      </trkpt>
      <trkpt lat="9.8776420" lon="-83.9281340">
        <ele>1484.8</ele>
        <time>2020-01-26T19:50:57Z</time>
      </trkpt>
      <trkpt lat="9.8776750" lon="-83.9281940">
        <ele>1484.5</ele>
        <time>2020-01-26T19:50:58Z</time>
      </trkpt>
      <trkpt lat="9.8777090" lon="-83.9282580">
        <ele>1484.2</ele>
        <time>2020-01-26T19:50:59Z</time>
      </trkpt>
      <trkpt lat="9.8777700" lon="-83.9283810">
        <ele>1483.5</ele>
        <time>2020-01-26T19:51:01Z</time>
      </trkpt>
      <trkpt lat="9.8778330" lon="-83.9284920">
        <ele>1483.0</ele>
        <time>2020-01-26T19:51:03Z</time>
      </trkpt>
      <trkpt lat="9.8778880" lon="-83.9285910">
        <ele>1482.5</ele>
        <time>2020-01-26T19:51:05Z</time>
      </trkpt>
      <trkpt lat="9.8779280" lon="-83.9286660">
        <ele>1482.1</ele>
        <time>2020-01-26T19:51:07Z</time>
      </trkpt>
      <trkpt lat="9.8779460" lon="-83.9287060">
        <ele>1482.0</ele>
        <time>2020-01-26T19:51:08Z</time>
      </trkpt>
      <trkpt lat="9.8779680" lon="-83.9287450">
        <ele>1481.8</ele>
        <time>2020-01-26T19:51:09Z</time>
      </trkpt>
      <trkpt lat="9.8779920" lon="-83.9287810">
        <ele>1481.6</ele>
        <time>2020-01-26T19:51:10Z</time>
      </trkpt>
      <trkpt lat="9.8780130" lon="-83.9288220">
        <ele>1481.4</ele>
        <time>2020-01-26T19:51:11Z</time>
      </trkpt>
      <trkpt lat="9.8780300" lon="-83.9288570">
        <ele>1481.2</ele>
        <time>2020-01-26T19:51:12Z</time>
      </trkpt>
      <trkpt lat="9.8780150" lon="-83.9288380">
        <ele>1481.2</ele>
        <time>2020-01-26T19:51:14Z</time>
      </trkpt>
      <trkpt lat="9.8780720" lon="-83.9289310">
        <ele>1480.7</ele>
        <time>2020-01-26T19:51:16Z</time>
      </trkpt>
      <trkpt lat="9.8781120" lon="-83.9290020">
        <ele>1480.4</ele>
        <time>2020-01-26T19:51:18Z</time>
      </trkpt>
      <trkpt lat="9.8781680" lon="-83.9290900">
        <ele>1479.9</ele>
        <time>2020-01-26T19:51:20Z</time>
      </trkpt>
      <trkpt lat="9.8781930" lon="-83.9291350">
        <ele>1479.7</ele>
        <time>2020-01-26T19:51:21Z</time>
      </trkpt>
      <trkpt lat="9.8782190" lon="-83.9291890">
        <ele>1479.4</ele>
        <time>2020-01-26T19:51:23Z</time>
      </trkpt>
      <trkpt lat="9.8782420" lon="-83.9292320">
        <ele>1479.2</ele>
        <time>2020-01-26T19:51:24Z</time>
      </trkpt>
      <trkpt lat="9.8782700" lon="-83.9292790">
        <ele>1478.9</ele>
        <time>2020-01-26T19:51:25Z</time>
      </trkpt>
      <trkpt lat="9.8783180" lon="-83.9293730">
        <ele>1478.4</ele>
        <time>2020-01-26T19:51:27Z</time>
      </trkpt>
      <trkpt lat="9.8783500" lon="-83.9294210">
        <ele>1478.1</ele>
        <time>2020-01-26T19:51:28Z</time>
      </trkpt>
      <trkpt lat="9.8783690" lon="-83.9294510">
        <ele>1477.9</ele>
        <time>2020-01-26T19:51:29Z</time>
      </trkpt>
      <trkpt lat="9.8784040" lon="-83.9295240">
        <ele>1477.5</ele>
        <time>2020-01-26T19:51:31Z</time>
      </trkpt>
      <trkpt lat="9.8784300" lon="-83.9295830">
        <ele>1477.2</ele>
        <time>2020-01-26T19:51:33Z</time>
      </trkpt>
      <trkpt lat="9.8784180" lon="-83.9295830">
        <ele>1477.2</ele>
        <time>2020-01-26T19:51:34Z</time>
      </trkpt>
      <trkpt lat="9.8784480" lon="-83.9296210">
        <ele>1477.0</ele>
        <time>2020-01-26T19:51:36Z</time>
      </trkpt>
      <trkpt lat="9.8784840" lon="-83.9296470">
        <ele>1476.8</ele>
        <time>2020-01-26T19:51:38Z</time>
      </trkpt>
      <trkpt lat="9.8784970" lon="-83.9296770">
        <ele>1476.6</ele>
        <time>2020-01-26T19:51:39Z</time>
      </trkpt>
      <trkpt lat="9.8785130" lon="-83.9297080">
        <ele>1476.5</ele>
        <time>2020-01-26T19:51:40Z</time>
      </trkpt>
      <trkpt lat="9.8785500" lon="-83.9297490">
        <ele>1476.2</ele>
        <time>2020-01-26T19:51:41Z</time>
      </trkpt>
      <trkpt lat="9.8785660" lon="-83.9297730">
        <ele>1476.1</ele>
        <time>2020-01-26T19:51:42Z</time>
      </trkpt>
      <trkpt lat="9.8785830" lon="-83.9298000">
        <ele>1475.9</ele>
        <time>2020-01-26T19:51:44Z</time>
      </trkpt>
      <trkpt lat="9.8786000" lon="-83.9298350">
        <ele>1475.8</ele>
        <time>2020-01-26T19:51:45Z</time>
      </trkpt>
      <trkpt lat="9.8786090" lon="-83.9298520">
        <ele>1475.7</ele>
        <time>2020-01-26T19:51:47Z</time>
      </trkpt>
      <trkpt lat="9.8786090" lon="-83.9298530">
        <ele>1475.7</ele>
        <time>2020-01-26T19:51:48Z</time>
      </trkpt>
      <trkpt lat="9.8786080" lon="-83.9298510">
        <ele>1475.7</ele>
        <time>2020-01-26T19:51:50Z</time>
      </trkpt>
      <trkpt lat="9.8786070" lon="-83.9298510">
        <ele>1475.7</ele>
        <time>2020-01-26T19:51:52Z</time>
      </trkpt>
      <trkpt lat="9.8786080" lon="-83.9298560">
        <ele>1475.7</ele>
        <time>2020-01-26T19:51:53Z</time>
      </trkpt>
      <trkpt lat="9.8786080" lon="-83.9298620">
        <ele>1475.6</ele>
        <time>2020-01-26T19:51:55Z</time>
      </trkpt>
      <trkpt lat="9.8786130" lon="-83.9298690">
        <ele>1475.6</ele>
        <time>2020-01-26T19:51:56Z</time>
      </trkpt>
      <trkpt lat="9.8786160" lon="-83.9298740">
        <ele>1475.6</ele>
        <time>2020-01-26T19:51:57Z</time>
      </trkpt>
      <trkpt lat="9.8786180" lon="-83.9298790">
        <ele>1475.5</ele>
        <time>2020-01-26T19:51:58Z</time>
      </trkpt>
      <trkpt lat="9.8786160" lon="-83.9298770">
        <ele>1475.5</ele>
        <time>2020-01-26T19:52:00Z</time>
      </trkpt>
      <trkpt lat="9.8786160" lon="-83.9298780">
        <ele>1475.5</ele>
        <time>2020-01-26T19:52:02Z</time>
      </trkpt>
      <trkpt lat="9.8786140" lon="-83.9298800">
        <ele>1475.5</ele>
        <time>2020-01-26T19:52:04Z</time>
      </trkpt>
      <trkpt lat="9.8786140" lon="-83.9298810">
        <ele>1475.5</ele>
        <time>2020-01-26T19:52:05Z</time>
      </trkpt>
      <trkpt lat="9.8786140" lon="-83.9298820">
        <ele>1475.5</ele>
        <time>2020-01-26T19:52:07Z</time>
      </trkpt>
      <trkpt lat="9.8786120" lon="-83.9298830">
        <ele>1475.5</ele>
        <time>2020-01-26T19:52:08Z</time>
      </trkpt>
      <trkpt lat="9.8786120" lon="-83.9298860">
        <ele>1475.5</ele>
        <time>2020-01-26T19:52:10Z</time>
      </trkpt>
      <trkpt lat="9.8786110" lon="-83.9298850">
        <ele>1475.5</ele>
        <time>2020-01-26T19:52:11Z</time>
      </trkpt>
      <trkpt lat="9.8786090" lon="-83.9298840">
        <ele>1475.5</ele>
        <time>2020-01-26T19:52:12Z</time>
      </trkpt>
      <trkpt lat="9.8786050" lon="-83.9298790">
        <ele>1475.4</ele>
        <time>2020-01-26T19:52:14Z</time>
      </trkpt>
      <trkpt lat="9.8786010" lon="-83.9298770">
        <ele>1475.4</ele>
        <time>2020-01-26T19:52:16Z</time>
      </trkpt>
      <trkpt lat="9.8786050" lon="-83.9298900">
        <ele>1475.4</ele>
        <time>2020-01-26T19:52:17Z</time>
      </trkpt>
      <trkpt lat="9.8786030" lon="-83.9298960">
        <ele>1475.3</ele>
        <time>2020-01-26T19:52:18Z</time>
      </trkpt>
      <trkpt lat="9.8785990" lon="-83.9298890">
        <ele>1475.3</ele>
        <time>2020-01-26T19:52:19Z</time>
      </trkpt>
      <trkpt lat="9.8785980" lon="-83.9298920">
        <ele>1475.3</ele>
        <time>2020-01-26T19:52:21Z</time>
      </trkpt>
      <trkpt lat="9.8786020" lon="-83.9298880">
        <ele>1475.3</ele>
        <time>2020-01-26T19:52:23Z</time>
      </trkpt>
      <trkpt lat="9.8786110" lon="-83.9298850">
        <ele>1475.2</ele>
        <time>2020-01-26T19:52:24Z</time>
      </trkpt>
      <trkpt lat="9.8786190" lon="-83.9298930">
        <ele>1475.2</ele>
        <time>2020-01-26T19:52:26Z</time>
      </trkpt>
      <trkpt lat="9.8786170" lon="-83.9298890">
        <ele>1475.2</ele>
        <time>2020-01-26T19:52:28Z</time>
      </trkpt>
      <trkpt lat="9.8786180" lon="-83.9298900">
        <ele>1475.2</ele>
        <time>2020-01-26T19:52:29Z</time>
      </trkpt>
      <trkpt lat="9.8786200" lon="-83.9298950">
        <ele>1475.1</ele>
        <time>2020-01-26T19:52:31Z</time>
      </trkpt>
      <trkpt lat="9.8786230" lon="-83.9299040">
        <ele>1475.1</ele>
        <time>2020-01-26T19:52:33Z</time>
      </trkpt>
      <trkpt lat="9.8786250" lon="-83.9299070">
        <ele>1475.1</ele>
        <time>2020-01-26T19:52:34Z</time>
      </trkpt>
      <trkpt lat="9.8786280" lon="-83.9299120">
        <ele>1475.1</ele>
        <time>2020-01-26T19:52:35Z</time>
      </trkpt>
      <trkpt lat="9.8786300" lon="-83.9299150">
        <ele>1475.0</ele>
        <time>2020-01-26T19:52:36Z</time>
      </trkpt>
      <trkpt lat="9.8786340" lon="-83.9299260">
        <ele>1475.0</ele>
        <time>2020-01-26T19:52:37Z</time>
      </trkpt>
      <trkpt lat="9.8786230" lon="-83.9299310">
        <ele>1474.9</ele>
        <time>2020-01-26T19:52:39Z</time>
      </trkpt>
      <trkpt lat="9.8786080" lon="-83.9299330">
        <ele>1474.9</ele>
        <time>2020-01-26T19:52:40Z</time>
      </trkpt>
      <trkpt lat="9.8786010" lon="-83.9299370">
        <ele>1474.8</ele>
        <time>2020-01-26T19:52:41Z</time>
      </trkpt>
      <trkpt lat="9.8786010" lon="-83.9299290">
        <ele>1474.8</ele>
        <time>2020-01-26T19:52:42Z</time>
      </trkpt>
      <trkpt lat="9.8785990" lon="-83.9299290">
        <ele>1474.8</ele>
        <time>2020-01-26T19:52:43Z</time>
      </trkpt>
      <trkpt lat="9.8785990" lon="-83.9299310">
        <ele>1474.8</ele>
        <time>2020-01-26T19:52:44Z</time>
      </trkpt>
      <trkpt lat="9.8785990" lon="-83.9299350">
        <ele>1474.8</ele>
        <time>2020-01-26T19:52:46Z</time>
      </trkpt>
      <trkpt lat="9.8785990" lon="-83.9299400">
        <ele>1474.7</ele>
        <time>2020-01-26T19:52:48Z</time>
      </trkpt>
      <trkpt lat="9.8785990" lon="-83.9299410">
        <ele>1474.7</ele>
        <time>2020-01-26T19:52:49Z</time>
      </trkpt>
      <trkpt lat="9.8785970" lon="-83.9299410">
        <ele>1474.7</ele>
        <time>2020-01-26T19:52:50Z</time>
      </trkpt>
      <trkpt lat="9.8785920" lon="-83.9299420">
        <ele>1474.7</ele>
        <time>2020-01-26T19:52:52Z</time>
      </trkpt>
      <trkpt lat="9.8785850" lon="-83.9299410">
        <ele>1474.7</ele>
        <time>2020-01-26T19:52:54Z</time>
      </trkpt>
      <trkpt lat="9.8785780" lon="-83.9299410">
        <ele>1474.6</ele>
        <time>2020-01-26T19:52:56Z</time>
      </trkpt>
      <trkpt lat="9.8785760" lon="-83.9299410">
        <ele>1474.6</ele>
        <time>2020-01-26T19:52:57Z</time>
      </trkpt>
      <trkpt lat="9.8785760" lon="-83.9299410">
        <ele>1474.6</ele>
        <time>2020-01-26T19:52:58Z</time>
      </trkpt>
      <trkpt lat="9.8785740" lon="-83.9299290">
        <ele>1474.6</ele>
        <time>2020-01-26T19:52:59Z</time>
      </trkpt>
      <trkpt lat="9.8785720" lon="-83.9299180">
        <ele>1474.5</ele>
        <time>2020-01-26T19:53:00Z</time>
      </trkpt>
      <trkpt lat="9.8785720" lon="-83.9299110">
        <ele>1474.5</ele>
        <time>2020-01-26T19:53:02Z</time>
      </trkpt>
      <trkpt lat="9.8785740" lon="-83.9299000">
        <ele>1474.4</ele>
        <time>2020-01-26T19:53:03Z</time>
      </trkpt>
      <trkpt lat="9.8785750" lon="-83.9298890">
        <ele>1474.4</ele>
        <time>2020-01-26T19:53:05Z</time>
      </trkpt>
      <trkpt lat="9.8785860" lon="-83.9298640">
        <ele>1474.2</ele>
        <time>2020-01-26T19:53:07Z</time>
      </trkpt>
      <trkpt lat="9.8785860" lon="-83.9298650">
        <ele>1474.2</ele>
        <time>2020-01-26T19:53:08Z</time>
      </trkpt>
      <trkpt lat="9.8785860" lon="-83.9298660">
        <ele>1474.2</ele>
        <time>2020-01-26T19:53:09Z</time>
      </trkpt>
      <trkpt lat="9.8785860" lon="-83.9298660">
        <ele>1474.2</ele>
        <time>2020-01-26T19:53:10Z</time>
      </trkpt>
      <trkpt lat="9.8785850" lon="-83.9298760">
        <ele>1474.1</ele>
        <time>2020-01-26T19:53:12Z</time>
      </trkpt>
      <trkpt lat="9.8785830" lon="-83.9298910">
        <ele>1474.0</ele>
        <time>2020-01-26T19:53:13Z</time>
      </trkpt>
      <trkpt lat="9.8785780" lon="-83.9299200">
        <ele>1473.9</ele>
        <time>2020-01-26T19:53:15Z</time>
      </trkpt>
      <trkpt lat="9.8785990" lon="-83.9299650">
        <ele>1473.5</ele>
        <time>2020-01-26T19:53:17Z</time>
      </trkpt>
      <trkpt lat="9.8786750" lon="-83.9300380">
        <ele>1472.7</ele>
        <time>2020-01-26T19:53:19Z</time>
      </trkpt>
      <trkpt lat="9.8787250" lon="-83.9301290">
        <ele>1472.0</ele>
        <time>2020-01-26T19:53:21Z</time>
      </trkpt>
      <trkpt lat="9.8787530" lon="-83.9301810">
        <ele>1471.7</ele>
        <time>2020-01-26T19:53:22Z</time>
      </trkpt>
      <trkpt lat="9.8787840" lon="-83.9302410">
        <ele>1471.3</ele>
        <time>2020-01-26T19:53:23Z</time>
      </trkpt>
      <trkpt lat="9.8788610" lon="-83.9303820">
        <ele>1470.5</ele>
        <time>2020-01-26T19:53:25Z</time>
      </trkpt>
      <trkpt lat="9.8789490" lon="-83.9305390">
        <ele>1469.7</ele>
        <time>2020-01-26T19:53:27Z</time>
      </trkpt>
      <trkpt lat="9.8790540" lon="-83.9307300">
        <ele>1468.8</ele>
        <time>2020-01-26T19:53:29Z</time>
      </trkpt>
      <trkpt lat="9.8791070" lon="-83.9308340">
        <ele>1468.4</ele>
        <time>2020-01-26T19:53:30Z</time>
      </trkpt>
      <trkpt lat="9.8792190" lon="-83.9310390">
        <ele>1467.8</ele>
        <time>2020-01-26T19:53:32Z</time>
      </trkpt>
      <trkpt lat="9.8793210" lon="-83.9312330">
        <ele>1467.3</ele>
        <time>2020-01-26T19:53:34Z</time>
      </trkpt>
      <trkpt lat="9.8793730" lon="-83.9313310">
        <ele>1467.1</ele>
        <time>2020-01-26T19:53:35Z</time>
      </trkpt>
      <trkpt lat="9.8795220" lon="-83.9316100">
        <ele>1466.5</ele>
        <time>2020-01-26T19:53:38Z</time>
      </trkpt>
      <trkpt lat="9.8795720" lon="-83.9317020">
        <ele>1466.2</ele>
        <time>2020-01-26T19:53:39Z</time>
      </trkpt>
      <trkpt lat="9.8796760" lon="-83.9318820">
        <ele>1465.6</ele>
        <time>2020-01-26T19:53:41Z</time>
      </trkpt>
      <trkpt lat="9.8797780" lon="-83.9320680">
        <ele>1464.8</ele>
        <time>2020-01-26T19:53:43Z</time>
      </trkpt>
      <trkpt lat="9.8798320" lon="-83.9321590">
        <ele>1464.5</ele>
        <time>2020-01-26T19:53:44Z</time>
      </trkpt>
      <trkpt lat="9.8798840" lon="-83.9322480">
        <ele>1464.2</ele>
        <time>2020-01-26T19:53:45Z</time>
      </trkpt>
      <trkpt lat="9.8799310" lon="-83.9323340">
        <ele>1463.9</ele>
        <time>2020-01-26T19:53:46Z</time>
      </trkpt>
      <trkpt lat="9.8800090" lon="-83.9324880">
        <ele>1463.6</ele>
        <time>2020-01-26T19:53:48Z</time>
      </trkpt>
      <trkpt lat="9.8800540" lon="-83.9325610">
        <ele>1463.4</ele>
        <time>2020-01-26T19:53:49Z</time>
      </trkpt>
      <trkpt lat="9.8801340" lon="-83.9327120">
        <ele>1462.9</ele>
        <time>2020-01-26T19:53:51Z</time>
      </trkpt>
      <trkpt lat="9.8801770" lon="-83.9327870">
        <ele>1462.6</ele>
        <time>2020-01-26T19:53:52Z</time>
      </trkpt>
      <trkpt lat="9.8802700" lon="-83.9329430">
        <ele>1462.0</ele>
        <time>2020-01-26T19:53:54Z</time>
      </trkpt>
      <trkpt lat="9.8803560" lon="-83.9331010">
        <ele>1461.3</ele>
        <time>2020-01-26T19:53:56Z</time>
      </trkpt>
      <trkpt lat="9.8803980" lon="-83.9331770">
        <ele>1461.1</ele>
        <time>2020-01-26T19:53:57Z</time>
      </trkpt>
      <trkpt lat="9.8804800" lon="-83.9333280">
        <ele>1460.6</ele>
        <time>2020-01-26T19:53:59Z</time>
      </trkpt>
      <trkpt lat="9.8805190" lon="-83.9334010">
        <ele>1460.4</ele>
        <time>2020-01-26T19:54:00Z</time>
      </trkpt>
      <trkpt lat="9.8805510" lon="-83.9334720">
        <ele>1460.1</ele>
        <time>2020-01-26T19:54:01Z</time>
      </trkpt>
      <trkpt lat="9.8806150" lon="-83.9335960">
        <ele>1459.6</ele>
        <time>2020-01-26T19:54:03Z</time>
      </trkpt>
      <trkpt lat="9.8806440" lon="-83.9336630">
        <ele>1459.4</ele>
        <time>2020-01-26T19:54:04Z</time>
      </trkpt>
      <trkpt lat="9.8806900" lon="-83.9338140">
        <ele>1459.0</ele>
        <time>2020-01-26T19:54:06Z</time>
      </trkpt>
      <trkpt lat="9.8807080" lon="-83.9338970">
        <ele>1458.9</ele>
        <time>2020-01-26T19:54:07Z</time>
      </trkpt>
      <trkpt lat="9.8807520" lon="-83.9340530">
        <ele>1457.8</ele>
        <time>2020-01-26T19:54:09Z</time>
      </trkpt>
      <trkpt lat="9.8807980" lon="-83.9342190">
        <ele>1457.2</ele>
        <time>2020-01-26T19:54:11Z</time>
      </trkpt>
      <trkpt lat="9.8808400" lon="-83.9343870">
        <ele>1456.7</ele>
        <time>2020-01-26T19:54:13Z</time>
      </trkpt>
      <trkpt lat="9.8808540" lon="-83.9344530">
        <ele>1456.5</ele>
        <time>2020-01-26T19:54:14Z</time>
      </trkpt>
      <trkpt lat="9.8808660" lon="-83.9345080">
        <ele>1456.3</ele>
        <time>2020-01-26T19:54:15Z</time>
      </trkpt>
      <trkpt lat="9.8808900" lon="-83.9346040">
        <ele>1456.1</ele>
        <time>2020-01-26T19:54:17Z</time>
      </trkpt>
      <trkpt lat="9.8809010" lon="-83.9346370">
        <ele>1456.1</ele>
        <time>2020-01-26T19:54:18Z</time>
      </trkpt>
      <trkpt lat="9.8809180" lon="-83.9346760">
        <ele>1456.0</ele>
        <time>2020-01-26T19:54:19Z</time>
      </trkpt>
      <trkpt lat="9.8809320" lon="-83.9347130">
        <ele>1456.0</ele>
        <time>2020-01-26T19:54:20Z</time>
      </trkpt>
      <trkpt lat="9.8809440" lon="-83.9347530">
        <ele>1455.9</ele>
        <time>2020-01-26T19:54:21Z</time>
      </trkpt>
      <trkpt lat="9.8809640" lon="-83.9348360">
        <ele>1455.8</ele>
        <time>2020-01-26T19:54:23Z</time>
      </trkpt>
      <trkpt lat="9.8809860" lon="-83.9349360">
        <ele>1455.7</ele>
        <time>2020-01-26T19:54:25Z</time>
      </trkpt>
      <trkpt lat="9.8810010" lon="-83.9349830">
        <ele>1455.6</ele>
        <time>2020-01-26T19:54:26Z</time>
      </trkpt>
      <trkpt lat="9.8810340" lon="-83.9350800">
        <ele>1455.4</ele>
        <time>2020-01-26T19:54:28Z</time>
      </trkpt>
      <trkpt lat="9.8810570" lon="-83.9351750">
        <ele>1455.2</ele>
        <time>2020-01-26T19:54:30Z</time>
      </trkpt>
      <trkpt lat="9.8810640" lon="-83.9352710">
        <ele>1455.1</ele>
        <time>2020-01-26T19:54:32Z</time>
      </trkpt>
      <trkpt lat="9.8810970" lon="-83.9353650">
        <ele>1455.1</ele>
        <time>2020-01-26T19:54:34Z</time>
      </trkpt>
      <trkpt lat="9.8811400" lon="-83.9354690">
        <ele>1455.4</ele>
        <time>2020-01-26T19:54:37Z</time>
      </trkpt>
      <trkpt lat="9.8811690" lon="-83.9354870">
        <ele>1455.6</ele>
        <time>2020-01-26T19:54:38Z</time>
      </trkpt>
      <trkpt lat="9.8812180" lon="-83.9355340">
        <ele>1455.9</ele>
        <time>2020-01-26T19:54:40Z</time>
      </trkpt>
      <trkpt lat="9.8812620" lon="-83.9355710">
        <ele>1455.9</ele>
        <time>2020-01-26T19:54:42Z</time>
      </trkpt>
      <trkpt lat="9.8812940" lon="-83.9355870">
        <ele>1456.0</ele>
        <time>2020-01-26T19:54:43Z</time>
      </trkpt>
      <trkpt lat="9.8813290" lon="-83.9356090">
        <ele>1455.9</ele>
        <time>2020-01-26T19:54:44Z</time>
      </trkpt>
      <trkpt lat="9.8813860" lon="-83.9356400">
        <ele>1455.9</ele>
        <time>2020-01-26T19:54:46Z</time>
      </trkpt>
      <trkpt lat="9.8814280" lon="-83.9356680">
        <ele>1455.8</ele>
        <time>2020-01-26T19:54:47Z</time>
      </trkpt>
      <trkpt lat="9.8814810" lon="-83.9356980">
        <ele>1455.8</ele>
        <time>2020-01-26T19:54:49Z</time>
      </trkpt>
      <trkpt lat="9.8815120" lon="-83.9357150">
        <ele>1455.9</ele>
        <time>2020-01-26T19:54:50Z</time>
      </trkpt>
      <trkpt lat="9.8815520" lon="-83.9357370">
        <ele>1456.0</ele>
        <time>2020-01-26T19:54:52Z</time>
      </trkpt>
      <trkpt lat="9.8816040" lon="-83.9357610">
        <ele>1456.1</ele>
        <time>2020-01-26T19:54:53Z</time>
      </trkpt>
      <trkpt lat="9.8816390" lon="-83.9357760">
        <ele>1456.1</ele>
        <time>2020-01-26T19:54:54Z</time>
      </trkpt>
      <trkpt lat="9.8816480" lon="-83.9357800">
        <ele>1456.1</ele>
        <time>2020-01-26T19:54:55Z</time>
      </trkpt>
      <trkpt lat="9.8816590" lon="-83.9357830">
        <ele>1456.1</ele>
        <time>2020-01-26T19:54:56Z</time>
      </trkpt>
      <trkpt lat="9.8816940" lon="-83.9357970">
        <ele>1456.0</ele>
        <time>2020-01-26T19:54:58Z</time>
      </trkpt>
      <trkpt lat="9.8817330" lon="-83.9358260">
        <ele>1455.9</ele>
        <time>2020-01-26T19:54:59Z</time>
      </trkpt>
      <trkpt lat="9.8817950" lon="-83.9358510">
        <ele>1455.6</ele>
        <time>2020-01-26T19:55:00Z</time>
      </trkpt>
      <trkpt lat="9.8818860" lon="-83.9358960">
        <ele>1455.2</ele>
        <time>2020-01-26T19:55:02Z</time>
      </trkpt>
      <trkpt lat="9.8819350" lon="-83.9359200">
        <ele>1455.0</ele>
        <time>2020-01-26T19:55:03Z</time>
      </trkpt>
      <trkpt lat="9.8820380" lon="-83.9359640">
        <ele>1454.9</ele>
        <time>2020-01-26T19:55:05Z</time>
      </trkpt>
      <trkpt lat="9.8821370" lon="-83.9360040">
        <ele>1454.9</ele>
        <time>2020-01-26T19:55:07Z</time>
      </trkpt>
      <trkpt lat="9.8822570" lon="-83.9360420">
        <ele>1454.8</ele>
        <time>2020-01-26T19:55:09Z</time>
      </trkpt>
      <trkpt lat="9.8823800" lon="-83.9360800">
        <ele>1454.7</ele>
        <time>2020-01-26T19:55:11Z</time>
      </trkpt>
      <trkpt lat="9.8824890" lon="-83.9361050">
        <ele>1454.6</ele>
        <time>2020-01-26T19:55:13Z</time>
      </trkpt>
      <trkpt lat="9.8825970" lon="-83.9361260">
        <ele>1454.7</ele>
        <time>2020-01-26T19:55:15Z</time>
      </trkpt>
      <trkpt lat="9.8827140" lon="-83.9361280">
        <ele>1455.0</ele>
        <time>2020-01-26T19:55:17Z</time>
      </trkpt>
      <trkpt lat="9.8827690" lon="-83.9361340">
        <ele>1455.1</ele>
        <time>2020-01-26T19:55:18Z</time>
      </trkpt>
      <trkpt lat="9.8828290" lon="-83.9361400">
        <ele>1455.4</ele>
        <time>2020-01-26T19:55:19Z</time>
      </trkpt>
      <trkpt lat="9.8829460" lon="-83.9361430">
        <ele>1456.1</ele>
        <time>2020-01-26T19:55:21Z</time>
      </trkpt>
      <trkpt lat="9.8830040" lon="-83.9361410">
        <ele>1456.5</ele>
        <time>2020-01-26T19:55:22Z</time>
      </trkpt>
      <trkpt lat="9.8831160" lon="-83.9361420">
        <ele>1457.2</ele>
        <time>2020-01-26T19:55:24Z</time>
      </trkpt>
      <trkpt lat="9.8831710" lon="-83.9361380">
        <ele>1457.5</ele>
        <time>2020-01-26T19:55:25Z</time>
      </trkpt>
      <trkpt lat="9.8832800" lon="-83.9361260">
        <ele>1458.3</ele>
        <time>2020-01-26T19:55:27Z</time>
      </trkpt>
      <trkpt lat="9.8833850" lon="-83.9361110">
        <ele>1459.3</ele>
        <time>2020-01-26T19:55:29Z</time>
      </trkpt>
      <trkpt lat="9.8834380" lon="-83.9361020">
        <ele>1459.7</ele>
        <time>2020-01-26T19:55:30Z</time>
      </trkpt>
      <trkpt lat="9.8834920" lon="-83.9360930">
        <ele>1460.2</ele>
        <time>2020-01-26T19:55:31Z</time>
      </trkpt>
      <trkpt lat="9.8836030" lon="-83.9360720">
        <ele>1461.1</ele>
        <time>2020-01-26T19:55:33Z</time>
      </trkpt>
      <trkpt lat="9.8837090" lon="-83.9360400">
        <ele>1462.0</ele>
        <time>2020-01-26T19:55:35Z</time>
      </trkpt>
      <trkpt lat="9.8838060" lon="-83.9360000">
        <ele>1462.1</ele>
        <time>2020-01-26T19:55:37Z</time>
      </trkpt>
      <trkpt lat="9.8838990" lon="-83.9359580">
        <ele>1462.1</ele>
        <time>2020-01-26T19:55:39Z</time>
      </trkpt>
      <trkpt lat="9.8839450" lon="-83.9359350">
        <ele>1462.1</ele>
        <time>2020-01-26T19:55:40Z</time>
      </trkpt>
      <trkpt lat="9.8839940" lon="-83.9359120">
        <ele>1462.1</ele>
        <time>2020-01-26T19:55:41Z</time>
      </trkpt>
      <trkpt lat="9.8840870" lon="-83.9358730">
        <ele>1462.1</ele>
        <time>2020-01-26T19:55:43Z</time>
      </trkpt>
      <trkpt lat="9.8841350" lon="-83.9358520">
        <ele>1462.1</ele>
        <time>2020-01-26T19:55:44Z</time>
      </trkpt>
      <trkpt lat="9.8841790" lon="-83.9358330">
        <ele>1462.1</ele>
        <time>2020-01-26T19:55:45Z</time>
      </trkpt>
      <trkpt lat="9.8842660" lon="-83.9357880">
        <ele>1462.2</ele>
        <time>2020-01-26T19:55:47Z</time>
      </trkpt>
      <trkpt lat="9.8843540" lon="-83.9357520">
        <ele>1462.4</ele>
        <time>2020-01-26T19:55:49Z</time>
      </trkpt>
      <trkpt lat="9.8844320" lon="-83.9357100">
        <ele>1462.6</ele>
        <time>2020-01-26T19:55:51Z</time>
      </trkpt>
      <trkpt lat="9.8844680" lon="-83.9356900">
        <ele>1462.7</ele>
        <time>2020-01-26T19:55:52Z</time>
      </trkpt>
      <trkpt lat="9.8845060" lon="-83.9356690">
        <ele>1462.8</ele>
        <time>2020-01-26T19:55:53Z</time>
      </trkpt>
      <trkpt lat="9.8845740" lon="-83.9356320">
        <ele>1462.9</ele>
        <time>2020-01-26T19:55:55Z</time>
      </trkpt>
      <trkpt lat="9.8846380" lon="-83.9355910">
        <ele>1462.9</ele>
        <time>2020-01-26T19:55:57Z</time>
      </trkpt>
      <trkpt lat="9.8846600" lon="-83.9355710">
        <ele>1463.0</ele>
        <time>2020-01-26T19:55:59Z</time>
      </trkpt>
      <trkpt lat="9.8847270" lon="-83.9355440">
        <ele>1463.0</ele>
        <time>2020-01-26T19:56:01Z</time>
      </trkpt>
      <trkpt lat="9.8847800" lon="-83.9355150">
        <ele>1463.0</ele>
        <time>2020-01-26T19:56:02Z</time>
      </trkpt>
      <trkpt lat="9.8848180" lon="-83.9354970">
        <ele>1463.0</ele>
        <time>2020-01-26T19:56:03Z</time>
      </trkpt>
      <trkpt lat="9.8848360" lon="-83.9354870">
        <ele>1463.0</ele>
        <time>2020-01-26T19:56:04Z</time>
      </trkpt>
      <trkpt lat="9.8848940" lon="-83.9354570">
        <ele>1463.0</ele>
        <time>2020-01-26T19:56:05Z</time>
      </trkpt>
      <trkpt lat="9.8849370" lon="-83.9354370">
        <ele>1463.2</ele>
        <time>2020-01-26T19:56:07Z</time>
      </trkpt>
      <trkpt lat="9.8849940" lon="-83.9354050">
        <ele>1463.6</ele>
        <time>2020-01-26T19:56:09Z</time>
      </trkpt>
      <trkpt lat="9.8850440" lon="-83.9353760">
        <ele>1463.8</ele>
        <time>2020-01-26T19:56:10Z</time>
      </trkpt>
      <trkpt lat="9.8850840" lon="-83.9353510">
        <ele>1464.1</ele>
        <time>2020-01-26T19:56:11Z</time>
      </trkpt>
      <trkpt lat="9.8851200" lon="-83.9353330">
        <ele>1464.3</ele>
        <time>2020-01-26T19:56:12Z</time>
      </trkpt>
      <trkpt lat="9.8851710" lon="-83.9353070">
        <ele>1464.5</ele>
        <time>2020-01-26T19:56:14Z</time>
      </trkpt>
      <trkpt lat="9.8852220" lon="-83.9352750">
        <ele>1464.9</ele>
        <time>2020-01-26T19:56:15Z</time>
      </trkpt>
      <trkpt lat="9.8852560" lon="-83.9352520">
        <ele>1465.3</ele>
        <time>2020-01-26T19:56:17Z</time>
      </trkpt>
      <trkpt lat="9.8852890" lon="-83.9352370">
        <ele>1465.6</ele>
        <time>2020-01-26T19:56:18Z</time>
      </trkpt>
      <trkpt lat="9.8853200" lon="-83.9352210">
        <ele>1465.7</ele>
        <time>2020-01-26T19:56:19Z</time>
      </trkpt>
      <trkpt lat="9.8853710" lon="-83.9351950">
        <ele>1466.0</ele>
        <time>2020-01-26T19:56:21Z</time>
      </trkpt>
      <trkpt lat="9.8854050" lon="-83.9351760">
        <ele>1466.3</ele>
        <time>2020-01-26T19:56:22Z</time>
      </trkpt>
      <trkpt lat="9.8854370" lon="-83.9351610">
        <ele>1466.4</ele>
        <time>2020-01-26T19:56:23Z</time>
      </trkpt>
      <trkpt lat="9.8854740" lon="-83.9351400">
        <ele>1466.6</ele>
        <time>2020-01-26T19:56:24Z</time>
      </trkpt>
      <trkpt lat="9.8855090" lon="-83.9351190">
        <ele>1466.8</ele>
        <time>2020-01-26T19:56:25Z</time>
      </trkpt>
      <trkpt lat="9.8855560" lon="-83.9350920">
        <ele>1467.1</ele>
        <time>2020-01-26T19:56:27Z</time>
      </trkpt>
      <trkpt lat="9.8855890" lon="-83.9350770">
        <ele>1467.2</ele>
        <time>2020-01-26T19:56:28Z</time>
      </trkpt>
      <trkpt lat="9.8856240" lon="-83.9350590">
        <ele>1467.4</ele>
        <time>2020-01-26T19:56:29Z</time>
      </trkpt>
      <trkpt lat="9.8856590" lon="-83.9350390">
        <ele>1467.6</ele>
        <time>2020-01-26T19:56:31Z</time>
      </trkpt>
      <trkpt lat="9.8857050" lon="-83.9350140">
        <ele>1467.8</ele>
        <time>2020-01-26T19:56:32Z</time>
      </trkpt>
      <trkpt lat="9.8857610" lon="-83.9349880">
        <ele>1468.4</ele>
        <time>2020-01-26T19:56:33Z</time>
      </trkpt>
      <trkpt lat="9.8857930" lon="-83.9349680">
        <ele>1468.9</ele>
        <time>2020-01-26T19:56:35Z</time>
      </trkpt>
      <trkpt lat="9.8858250" lon="-83.9349500">
        <ele>1469.2</ele>
        <time>2020-01-26T19:56:36Z</time>
      </trkpt>
      <trkpt lat="9.8858630" lon="-83.9349340">
        <ele>1469.6</ele>
        <time>2020-01-26T19:56:37Z</time>
      </trkpt>
      <trkpt lat="9.8859020" lon="-83.9349130">
        <ele>1470.0</ele>
        <time>2020-01-26T19:56:38Z</time>
      </trkpt>
      <trkpt lat="9.8859380" lon="-83.9348930">
        <ele>1470.3</ele>
        <time>2020-01-26T19:56:39Z</time>
      </trkpt>
      <trkpt lat="9.8859690" lon="-83.9348750">
        <ele>1470.6</ele>
        <time>2020-01-26T19:56:41Z</time>
      </trkpt>
      <trkpt lat="9.8860190" lon="-83.9348490">
        <ele>1471.1</ele>
        <time>2020-01-26T19:56:42Z</time>
      </trkpt>
      <trkpt lat="9.8860530" lon="-83.9348300">
        <ele>1471.4</ele>
        <time>2020-01-26T19:56:43Z</time>
      </trkpt>
      <trkpt lat="9.8860860" lon="-83.9348130">
        <ele>1471.7</ele>
        <time>2020-01-26T19:56:45Z</time>
      </trkpt>
      <trkpt lat="9.8861220" lon="-83.9347930">
        <ele>1472.3</ele>
        <time>2020-01-26T19:56:46Z</time>
      </trkpt>
      <trkpt lat="9.8861510" lon="-83.9347780">
        <ele>1472.5</ele>
        <time>2020-01-26T19:56:47Z</time>
      </trkpt>
      <trkpt lat="9.8861980" lon="-83.9347560">
        <ele>1472.8</ele>
        <time>2020-01-26T19:56:49Z</time>
      </trkpt>
      <trkpt lat="9.8862420" lon="-83.9347340">
        <ele>1473.0</ele>
        <time>2020-01-26T19:56:50Z</time>
      </trkpt>
      <trkpt lat="9.8862950" lon="-83.9347050">
        <ele>1473.4</ele>
        <time>2020-01-26T19:56:52Z</time>
      </trkpt>
      <trkpt lat="9.8863280" lon="-83.9346880">
        <ele>1473.6</ele>
        <time>2020-01-26T19:56:53Z</time>
      </trkpt>
      <trkpt lat="9.8863990" lon="-83.9346550">
        <ele>1474.0</ele>
        <time>2020-01-26T19:56:55Z</time>
      </trkpt>
      <trkpt lat="9.8864330" lon="-83.9346360">
        <ele>1474.2</ele>
        <time>2020-01-26T19:56:56Z</time>
      </trkpt>
      <trkpt lat="9.8864880" lon="-83.9346090">
        <ele>1474.5</ele>
        <time>2020-01-26T19:56:58Z</time>
      </trkpt>
      <trkpt lat="9.8865120" lon="-83.9345980">
        <ele>1474.7</ele>
        <time>2020-01-26T19:56:59Z</time>
      </trkpt>
      <trkpt lat="9.8865570" lon="-83.9345810">
        <ele>1475.0</ele>
        <time>2020-01-26T19:57:01Z</time>
      </trkpt>
      <trkpt lat="9.8865900" lon="-83.9345710">
        <ele>1475.2</ele>
        <time>2020-01-26T19:57:02Z</time>
      </trkpt>
      <trkpt lat="9.8866200" lon="-83.9345620">
        <ele>1475.4</ele>
        <time>2020-01-26T19:57:03Z</time>
      </trkpt>
      <trkpt lat="9.8866730" lon="-83.9345420">
        <ele>1475.8</ele>
        <time>2020-01-26T19:57:05Z</time>
      </trkpt>
      <trkpt lat="9.8867080" lon="-83.9345290">
        <ele>1476.1</ele>
        <time>2020-01-26T19:57:06Z</time>
      </trkpt>
      <trkpt lat="9.8867410" lon="-83.9345160">
        <ele>1476.3</ele>
        <time>2020-01-26T19:57:07Z</time>
      </trkpt>
      <trkpt lat="9.8867770" lon="-83.9345040">
        <ele>1476.5</ele>
        <time>2020-01-26T19:57:08Z</time>
      </trkpt>
      <trkpt lat="9.8868280" lon="-83.9344890">
        <ele>1476.8</ele>
        <time>2020-01-26T19:57:10Z</time>
      </trkpt>
      <trkpt lat="9.8868590" lon="-83.9344790">
        <ele>1477.0</ele>
        <time>2020-01-26T19:57:11Z</time>
      </trkpt>
      <trkpt lat="9.8868920" lon="-83.9344700">
        <ele>1477.2</ele>
        <time>2020-01-26T19:57:12Z</time>
      </trkpt>
      <trkpt lat="9.8869390" lon="-83.9344570">
        <ele>1477.5</ele>
        <time>2020-01-26T19:57:14Z</time>
      </trkpt>
      <trkpt lat="9.8870130" lon="-83.9344380">
        <ele>1477.9</ele>
        <time>2020-01-26T19:57:16Z</time>
      </trkpt>
      <trkpt lat="9.8870420" lon="-83.9344340">
        <ele>1478.0</ele>
        <time>2020-01-26T19:57:17Z</time>
      </trkpt>
      <trkpt lat="9.8870890" lon="-83.9344210">
        <ele>1478.3</ele>
        <time>2020-01-26T19:57:19Z</time>
      </trkpt>
      <trkpt lat="9.8871530" lon="-83.9344110">
        <ele>1478.6</ele>
        <time>2020-01-26T19:57:21Z</time>
      </trkpt>
      <trkpt lat="9.8871860" lon="-83.9344050">
        <ele>1478.9</ele>
        <time>2020-01-26T19:57:22Z</time>
      </trkpt>
      <trkpt lat="9.8872250" lon="-83.9343990">
        <ele>1479.2</ele>
        <time>2020-01-26T19:57:23Z</time>
      </trkpt>
      <trkpt lat="9.8872660" lon="-83.9343940">
        <ele>1479.5</ele>
        <time>2020-01-26T19:57:24Z</time>
      </trkpt>
      <trkpt lat="9.8873250" lon="-83.9343880">
        <ele>1480.0</ele>
        <time>2020-01-26T19:57:26Z</time>
      </trkpt>
      <trkpt lat="9.8873520" lon="-83.9343840">
        <ele>1480.2</ele>
        <time>2020-01-26T19:57:27Z</time>
      </trkpt>
      <trkpt lat="9.8874070" lon="-83.9343790">
        <ele>1480.5</ele>
        <time>2020-01-26T19:57:29Z</time>
      </trkpt>
      <trkpt lat="9.8874410" lon="-83.9343750">
        <ele>1480.8</ele>
        <time>2020-01-26T19:57:30Z</time>
      </trkpt>
      <trkpt lat="9.8874810" lon="-83.9343730">
        <ele>1481.0</ele>
        <time>2020-01-26T19:57:31Z</time>
      </trkpt>
      <trkpt lat="9.8875220" lon="-83.9343720">
        <ele>1481.3</ele>
        <time>2020-01-26T19:57:32Z</time>
      </trkpt>
      <trkpt lat="9.8875550" lon="-83.9343720">
        <ele>1481.5</ele>
        <time>2020-01-26T19:57:33Z</time>
      </trkpt>
      <trkpt lat="9.8876090" lon="-83.9343720">
        <ele>1481.8</ele>
        <time>2020-01-26T19:57:35Z</time>
      </trkpt>
      <trkpt lat="9.8876480" lon="-83.9343710">
        <ele>1481.9</ele>
        <time>2020-01-26T19:57:36Z</time>
      </trkpt>
      <trkpt lat="9.8877080" lon="-83.9343670">
        <ele>1482.1</ele>
        <time>2020-01-26T19:57:38Z</time>
      </trkpt>
      <trkpt lat="9.8877510" lon="-83.9343690">
        <ele>1482.2</ele>
        <time>2020-01-26T19:57:39Z</time>
      </trkpt>
      <trkpt lat="9.8878030" lon="-83.9343740">
        <ele>1482.4</ele>
        <time>2020-01-26T19:57:40Z</time>
      </trkpt>
      <trkpt lat="9.8878310" lon="-83.9343760">
        <ele>1482.8</ele>
        <time>2020-01-26T19:57:41Z</time>
      </trkpt>
      <trkpt lat="9.8878690" lon="-83.9343760">
        <ele>1483.1</ele>
        <time>2020-01-26T19:57:42Z</time>
      </trkpt>
      <trkpt lat="9.8879100" lon="-83.9343780">
        <ele>1483.4</ele>
        <time>2020-01-26T19:57:44Z</time>
      </trkpt>
      <trkpt lat="9.8879500" lon="-83.9343850">
        <ele>1483.6</ele>
        <time>2020-01-26T19:57:45Z</time>
      </trkpt>
      <trkpt lat="9.8880060" lon="-83.9343920">
        <ele>1484.1</ele>
        <time>2020-01-26T19:57:47Z</time>
      </trkpt>
      <trkpt lat="9.8880430" lon="-83.9343980">
        <ele>1484.4</ele>
        <time>2020-01-26T19:57:48Z</time>
      </trkpt>
      <trkpt lat="9.8880810" lon="-83.9344040">
        <ele>1484.7</ele>
        <time>2020-01-26T19:57:49Z</time>
      </trkpt>
      <trkpt lat="9.8881220" lon="-83.9344110">
        <ele>1485.0</ele>
        <time>2020-01-26T19:57:50Z</time>
      </trkpt>
      <trkpt lat="9.8881620" lon="-83.9344190">
        <ele>1485.4</ele>
        <time>2020-01-26T19:57:51Z</time>
      </trkpt>
      <trkpt lat="9.8882130" lon="-83.9344260">
        <ele>1485.9</ele>
        <time>2020-01-26T19:57:53Z</time>
      </trkpt>
      <trkpt lat="9.8882670" lon="-83.9344350">
        <ele>1486.3</ele>
        <time>2020-01-26T19:57:55Z</time>
      </trkpt>
      <trkpt lat="9.8883010" lon="-83.9344420">
        <ele>1486.6</ele>
        <time>2020-01-26T19:57:56Z</time>
      </trkpt>
      <trkpt lat="9.8883350" lon="-83.9344510">
        <ele>1486.9</ele>
        <time>2020-01-26T19:57:57Z</time>
      </trkpt>
      <trkpt lat="9.8883830" lon="-83.9344660">
        <ele>1487.3</ele>
        <time>2020-01-26T19:57:59Z</time>
      </trkpt>
      <trkpt lat="9.8884340" lon="-83.9344800">
        <ele>1487.7</ele>
        <time>2020-01-26T19:58:00Z</time>
      </trkpt>
      <trkpt lat="9.8884820" lon="-83.9344970">
        <ele>1488.1</ele>
        <time>2020-01-26T19:58:02Z</time>
      </trkpt>
      <trkpt lat="9.8885360" lon="-83.9345180">
        <ele>1488.7</ele>
        <time>2020-01-26T19:58:04Z</time>
      </trkpt>
      <trkpt lat="9.8885810" lon="-83.9345330">
        <ele>1489.2</ele>
        <time>2020-01-26T19:58:06Z</time>
      </trkpt>
      <trkpt lat="9.8886260" lon="-83.9345540">
        <ele>1489.6</ele>
        <time>2020-01-26T19:58:07Z</time>
      </trkpt>
      <trkpt lat="9.8886690" lon="-83.9345730">
        <ele>1490.1</ele>
        <time>2020-01-26T19:58:08Z</time>
      </trkpt>
      <trkpt lat="9.8886960" lon="-83.9345850">
        <ele>1490.4</ele>
        <time>2020-01-26T19:58:09Z</time>
      </trkpt>
      <trkpt lat="9.8887480" lon="-83.9346090">
        <ele>1491.0</ele>
        <time>2020-01-26T19:58:11Z</time>
      </trkpt>
      <trkpt lat="9.8887840" lon="-83.9346250">
        <ele>1491.4</ele>
        <time>2020-01-26T19:58:12Z</time>
      </trkpt>
      <trkpt lat="9.8888390" lon="-83.9346530">
        <ele>1491.9</ele>
        <time>2020-01-26T19:58:14Z</time>
      </trkpt>
      <trkpt lat="9.8888630" lon="-83.9346660">
        <ele>1492.1</ele>
        <time>2020-01-26T19:58:15Z</time>
      </trkpt>
      <trkpt lat="9.8888960" lon="-83.9346820">
        <ele>1492.4</ele>
        <time>2020-01-26T19:58:16Z</time>
      </trkpt>
      <trkpt lat="9.8889270" lon="-83.9346990">
        <ele>1492.7</ele>
        <time>2020-01-26T19:58:18Z</time>
      </trkpt>
      <trkpt lat="9.8889590" lon="-83.9347180">
        <ele>1493.1</ele>
        <time>2020-01-26T19:58:19Z</time>
      </trkpt>
      <trkpt lat="9.8890090" lon="-83.9347500">
        <ele>1493.5</ele>
        <time>2020-01-26T19:58:20Z</time>
      </trkpt>
      <trkpt lat="9.8890520" lon="-83.9347780">
        <ele>1493.9</ele>
        <time>2020-01-26T19:58:22Z</time>
      </trkpt>
      <trkpt lat="9.8890980" lon="-83.9348080">
        <ele>1494.4</ele>
        <time>2020-01-26T19:58:24Z</time>
      </trkpt>
      <trkpt lat="9.8891320" lon="-83.9348320">
        <ele>1494.7</ele>
        <time>2020-01-26T19:58:25Z</time>
      </trkpt>
      <trkpt lat="9.8891770" lon="-83.9348640">
        <ele>1495.1</ele>
        <time>2020-01-26T19:58:26Z</time>
      </trkpt>
      <trkpt lat="9.8892120" lon="-83.9348850">
        <ele>1495.4</ele>
        <time>2020-01-26T19:58:28Z</time>
      </trkpt>
      <trkpt lat="9.8892410" lon="-83.9349060">
        <ele>1495.7</ele>
        <time>2020-01-26T19:58:29Z</time>
      </trkpt>
      <trkpt lat="9.8892660" lon="-83.9349260">
        <ele>1496.0</ele>
        <time>2020-01-26T19:58:30Z</time>
      </trkpt>
      <trkpt lat="9.8892940" lon="-83.9349470">
        <ele>1496.3</ele>
        <time>2020-01-26T19:58:31Z</time>
      </trkpt>
      <trkpt lat="9.8893220" lon="-83.9349720">
        <ele>1496.8</ele>
        <time>2020-01-26T19:58:32Z</time>
      </trkpt>
      <trkpt lat="9.8893480" lon="-83.9349960">
        <ele>1497.2</ele>
        <time>2020-01-26T19:58:33Z</time>
      </trkpt>
      <trkpt lat="9.8893860" lon="-83.9350280">
        <ele>1497.6</ele>
        <time>2020-01-26T19:58:35Z</time>
      </trkpt>
      <trkpt lat="9.8894200" lon="-83.9350540">
        <ele>1497.9</ele>
        <time>2020-01-26T19:58:36Z</time>
      </trkpt>
      <trkpt lat="9.8894350" lon="-83.9350670">
        <ele>1498.1</ele>
        <time>2020-01-26T19:58:37Z</time>
      </trkpt>
      <trkpt lat="9.8894750" lon="-83.9351060">
        <ele>1498.6</ele>
        <time>2020-01-26T19:58:39Z</time>
      </trkpt>
      <trkpt lat="9.8895190" lon="-83.9351510">
        <ele>1499.1</ele>
        <time>2020-01-26T19:58:40Z</time>
      </trkpt>
      <trkpt lat="9.8895480" lon="-83.9351800">
        <ele>1499.4</ele>
        <time>2020-01-26T19:58:41Z</time>
      </trkpt>
      <trkpt lat="9.8895730" lon="-83.9352020">
        <ele>1499.7</ele>
        <time>2020-01-26T19:58:42Z</time>
      </trkpt>
      <trkpt lat="9.8895980" lon="-83.9352300">
        <ele>1499.9</ele>
        <time>2020-01-26T19:58:44Z</time>
      </trkpt>
      <trkpt lat="9.8896330" lon="-83.9352730">
        <ele>1500.3</ele>
        <time>2020-01-26T19:58:45Z</time>
      </trkpt>
      <trkpt lat="9.8896580" lon="-83.9353000">
        <ele>1500.5</ele>
        <time>2020-01-26T19:58:47Z</time>
      </trkpt>
      <trkpt lat="9.8896960" lon="-83.9353430">
        <ele>1500.9</ele>
        <time>2020-01-26T19:58:48Z</time>
      </trkpt>
      <trkpt lat="9.8897220" lon="-83.9353730">
        <ele>1501.4</ele>
        <time>2020-01-26T19:58:49Z</time>
      </trkpt>
      <trkpt lat="9.8897560" lon="-83.9354110">
        <ele>1502.0</ele>
        <time>2020-01-26T19:58:51Z</time>
      </trkpt>
      <trkpt lat="9.8897850" lon="-83.9354480">
        <ele>1502.5</ele>
        <time>2020-01-26T19:58:52Z</time>
      </trkpt>
      <trkpt lat="9.8897970" lon="-83.9354650">
        <ele>1502.7</ele>
        <time>2020-01-26T19:58:53Z</time>
      </trkpt>
      <trkpt lat="9.8898310" lon="-83.9355080">
        <ele>1503.1</ele>
        <time>2020-01-26T19:58:55Z</time>
      </trkpt>
      <trkpt lat="9.8898570" lon="-83.9355420">
        <ele>1503.4</ele>
        <time>2020-01-26T19:58:56Z</time>
      </trkpt>
      <trkpt lat="9.8898780" lon="-83.9355700">
        <ele>1503.6</ele>
        <time>2020-01-26T19:58:57Z</time>
      </trkpt>
      <trkpt lat="9.8899050" lon="-83.9356150">
        <ele>1504.0</ele>
        <time>2020-01-26T19:58:59Z</time>
      </trkpt>
      <trkpt lat="9.8899270" lon="-83.9356490">
        <ele>1504.3</ele>
        <time>2020-01-26T19:59:00Z</time>
      </trkpt>
      <trkpt lat="9.8899480" lon="-83.9356780">
        <ele>1504.6</ele>
        <time>2020-01-26T19:59:01Z</time>
      </trkpt>
      <trkpt lat="9.8899770" lon="-83.9357230">
        <ele>1505.1</ele>
        <time>2020-01-26T19:59:03Z</time>
      </trkpt>
      <trkpt lat="9.8899980" lon="-83.9357640">
        <ele>1505.4</ele>
        <time>2020-01-26T19:59:04Z</time>
      </trkpt>
      <trkpt lat="9.8900270" lon="-83.9358190">
        <ele>1505.9</ele>
        <time>2020-01-26T19:59:06Z</time>
      </trkpt>
      <trkpt lat="9.8900470" lon="-83.9358510">
        <ele>1506.2</ele>
        <time>2020-01-26T19:59:07Z</time>
      </trkpt>
      <trkpt lat="9.8900660" lon="-83.9358860">
        <ele>1506.5</ele>
        <time>2020-01-26T19:59:08Z</time>
      </trkpt>
      <trkpt lat="9.8900750" lon="-83.9359050">
        <ele>1506.6</ele>
        <time>2020-01-26T19:59:09Z</time>
      </trkpt>
      <trkpt lat="9.8900930" lon="-83.9359410">
        <ele>1506.9</ele>
        <time>2020-01-26T19:59:10Z</time>
      </trkpt>
      <trkpt lat="9.8901180" lon="-83.9359880">
        <ele>1507.3</ele>
        <time>2020-01-26T19:59:12Z</time>
      </trkpt>
      <trkpt lat="9.8901360" lon="-83.9360230">
        <ele>1507.6</ele>
        <time>2020-01-26T19:59:13Z</time>
      </trkpt>
      <trkpt lat="9.8901500" lon="-83.9360620">
        <ele>1508.0</ele>
        <time>2020-01-26T19:59:14Z</time>
      </trkpt>
      <trkpt lat="9.8901710" lon="-83.9361110">
        <ele>1508.6</ele>
        <time>2020-01-26T19:59:15Z</time>
      </trkpt>
      <trkpt lat="9.8901830" lon="-83.9361420">
        <ele>1508.9</ele>
        <time>2020-01-26T19:59:17Z</time>
      </trkpt>
      <trkpt lat="9.8901960" lon="-83.9361770">
        <ele>1509.2</ele>
        <time>2020-01-26T19:59:18Z</time>
      </trkpt>
      <trkpt lat="9.8902070" lon="-83.9362090">
        <ele>1509.5</ele>
        <time>2020-01-26T19:59:19Z</time>
      </trkpt>
      <trkpt lat="9.8902270" lon="-83.9362630">
        <ele>1510.0</ele>
        <time>2020-01-26T19:59:21Z</time>
      </trkpt>
      <trkpt lat="9.8902430" lon="-83.9363150">
        <ele>1510.5</ele>
        <time>2020-01-26T19:59:22Z</time>
      </trkpt>
      <trkpt lat="9.8902600" lon="-83.9363660">
        <ele>1510.9</ele>
        <time>2020-01-26T19:59:24Z</time>
      </trkpt>
      <trkpt lat="9.8902810" lon="-83.9364270">
        <ele>1511.4</ele>
        <time>2020-01-26T19:59:26Z</time>
      </trkpt>
      <trkpt lat="9.8902910" lon="-83.9364610">
        <ele>1511.7</ele>
        <time>2020-01-26T19:59:27Z</time>
      </trkpt>
      <trkpt lat="9.8903020" lon="-83.9365120">
        <ele>1512.1</ele>
        <time>2020-01-26T19:59:28Z</time>
      </trkpt>
      <trkpt lat="9.8903130" lon="-83.9365480">
        <ele>1512.5</ele>
        <time>2020-01-26T19:59:30Z</time>
      </trkpt>
      <trkpt lat="9.8903240" lon="-83.9365840">
        <ele>1512.8</ele>
        <time>2020-01-26T19:59:31Z</time>
      </trkpt>
      <trkpt lat="9.8903310" lon="-83.9366180">
        <ele>1513.1</ele>
        <time>2020-01-26T19:59:32Z</time>
      </trkpt>
      <trkpt lat="9.8903410" lon="-83.9366570">
        <ele>1513.5</ele>
        <time>2020-01-26T19:59:33Z</time>
      </trkpt>
      <trkpt lat="9.8903540" lon="-83.9366990">
        <ele>1513.9</ele>
        <time>2020-01-26T19:59:34Z</time>
      </trkpt>
      <trkpt lat="9.8903670" lon="-83.9367530">
        <ele>1514.4</ele>
        <time>2020-01-26T19:59:36Z</time>
      </trkpt>
      <trkpt lat="9.8903790" lon="-83.9367910">
        <ele>1514.7</ele>
        <time>2020-01-26T19:59:37Z</time>
      </trkpt>
      <trkpt lat="9.8903900" lon="-83.9368290">
        <ele>1515.0</ele>
        <time>2020-01-26T19:59:38Z</time>
      </trkpt>
      <trkpt lat="9.8904020" lon="-83.9368750">
        <ele>1515.4</ele>
        <time>2020-01-26T19:59:40Z</time>
      </trkpt>
      <trkpt lat="9.8904110" lon="-83.9369150">
        <ele>1515.7</ele>
        <time>2020-01-26T19:59:41Z</time>
      </trkpt>
      <trkpt lat="9.8904180" lon="-83.9369490">
        <ele>1516.0</ele>
        <time>2020-01-26T19:59:42Z</time>
      </trkpt>
      <trkpt lat="9.8904320" lon="-83.9370020">
        <ele>1516.6</ele>
        <time>2020-01-26T19:59:44Z</time>
      </trkpt>
      <trkpt lat="9.8904450" lon="-83.9370500">
        <ele>1517.1</ele>
        <time>2020-01-26T19:59:46Z</time>
      </trkpt>
      <trkpt lat="9.8904590" lon="-83.9370960">
        <ele>1517.4</ele>
        <time>2020-01-26T19:59:47Z</time>
      </trkpt>
      <trkpt lat="9.8904710" lon="-83.9371440">
        <ele>1517.8</ele>
        <time>2020-01-26T19:59:49Z</time>
      </trkpt>
      <trkpt lat="9.8904810" lon="-83.9371860">
        <ele>1518.1</ele>
        <time>2020-01-26T19:59:51Z</time>
      </trkpt>
      <trkpt lat="9.8904910" lon="-83.9372140">
        <ele>1518.3</ele>
        <time>2020-01-26T19:59:52Z</time>
      </trkpt>
      <trkpt lat="9.8905030" lon="-83.9372610">
        <ele>1518.7</ele>
        <time>2020-01-26T19:59:53Z</time>
      </trkpt>
      <trkpt lat="9.8905100" lon="-83.9372930">
        <ele>1519.0</ele>
        <time>2020-01-26T19:59:55Z</time>
      </trkpt>
      <trkpt lat="9.8905190" lon="-83.9373290">
        <ele>1519.3</ele>
        <time>2020-01-26T19:59:56Z</time>
      </trkpt>
      <trkpt lat="9.8905250" lon="-83.9373630">
        <ele>1519.6</ele>
        <time>2020-01-26T19:59:57Z</time>
      </trkpt>
      <trkpt lat="9.8905370" lon="-83.9374110">
        <ele>1520.1</ele>
        <time>2020-01-26T19:59:59Z</time>
      </trkpt>
      <trkpt lat="9.8905440" lon="-83.9374460">
        <ele>1520.4</ele>
        <time>2020-01-26T20:00:00Z</time>
      </trkpt>
      <trkpt lat="9.8905540" lon="-83.9374800">
        <ele>1520.8</ele>
        <time>2020-01-26T20:00:01Z</time>
      </trkpt>
      <trkpt lat="9.8905620" lon="-83.9375070">
        <ele>1521.1</ele>
        <time>2020-01-26T20:00:02Z</time>
      </trkpt>
      <trkpt lat="9.8905710" lon="-83.9375430">
        <ele>1521.4</ele>
        <time>2020-01-26T20:00:03Z</time>
      </trkpt>
      <trkpt lat="9.8905790" lon="-83.9375780">
        <ele>1521.6</ele>
        <time>2020-01-26T20:00:05Z</time>
      </trkpt>
      <trkpt lat="9.8905900" lon="-83.9376180">
        <ele>1521.8</ele>
        <time>2020-01-26T20:00:06Z</time>
      </trkpt>
      <trkpt lat="9.8906000" lon="-83.9376660">
        <ele>1522.0</ele>
        <time>2020-01-26T20:00:08Z</time>
      </trkpt>
      <trkpt lat="9.8906090" lon="-83.9376990">
        <ele>1522.2</ele>
        <time>2020-01-26T20:00:09Z</time>
      </trkpt>
      <trkpt lat="9.8906160" lon="-83.9377280">
        <ele>1522.4</ele>
        <time>2020-01-26T20:00:10Z</time>
      </trkpt>
      <trkpt lat="9.8906250" lon="-83.9377630">
        <ele>1522.6</ele>
        <time>2020-01-26T20:00:11Z</time>
      </trkpt>
      <trkpt lat="9.8906330" lon="-83.9377930">
        <ele>1522.9</ele>
        <time>2020-01-26T20:00:12Z</time>
      </trkpt>
      <trkpt lat="9.8906410" lon="-83.9378270">
        <ele>1523.2</ele>
        <time>2020-01-26T20:00:13Z</time>
      </trkpt>
      <trkpt lat="9.8906510" lon="-83.9378700">
        <ele>1523.6</ele>
        <time>2020-01-26T20:00:15Z</time>
      </trkpt>
      <trkpt lat="9.8906600" lon="-83.9379050">
        <ele>1523.8</ele>
        <time>2020-01-26T20:00:16Z</time>
      </trkpt>
      <trkpt lat="9.8906710" lon="-83.9379410">
        <ele>1524.0</ele>
        <time>2020-01-26T20:00:18Z</time>
      </trkpt>
      <trkpt lat="9.8906820" lon="-83.9379930">
        <ele>1524.4</ele>
        <time>2020-01-26T20:00:19Z</time>
      </trkpt>
      <trkpt lat="9.8906940" lon="-83.9380380">
        <ele>1524.7</ele>
        <time>2020-01-26T20:00:20Z</time>
      </trkpt>
      <trkpt lat="9.8907020" lon="-83.9380660">
        <ele>1524.9</ele>
        <time>2020-01-26T20:00:21Z</time>
      </trkpt>
      <trkpt lat="9.8907120" lon="-83.9380990">
        <ele>1525.2</ele>
        <time>2020-01-26T20:00:23Z</time>
      </trkpt>
      <trkpt lat="9.8907240" lon="-83.9381350">
        <ele>1525.5</ele>
        <time>2020-01-26T20:00:24Z</time>
      </trkpt>
      <trkpt lat="9.8907380" lon="-83.9381890">
        <ele>1526.0</ele>
        <time>2020-01-26T20:00:25Z</time>
      </trkpt>
      <trkpt lat="9.8907460" lon="-83.9382180">
        <ele>1526.3</ele>
        <time>2020-01-26T20:00:26Z</time>
      </trkpt>
      <trkpt lat="9.8907560" lon="-83.9382510">
        <ele>1526.6</ele>
        <time>2020-01-26T20:00:28Z</time>
      </trkpt>
      <trkpt lat="9.8907670" lon="-83.9382850">
        <ele>1526.9</ele>
        <time>2020-01-26T20:00:29Z</time>
      </trkpt>
      <trkpt lat="9.8907800" lon="-83.9383380">
        <ele>1527.3</ele>
        <time>2020-01-26T20:00:30Z</time>
      </trkpt>
      <trkpt lat="9.8907940" lon="-83.9383850">
        <ele>1527.7</ele>
        <time>2020-01-26T20:00:32Z</time>
      </trkpt>
      <trkpt lat="9.8908080" lon="-83.9384170">
        <ele>1527.9</ele>
        <time>2020-01-26T20:00:33Z</time>
      </trkpt>
      <trkpt lat="9.8908220" lon="-83.9384520">
        <ele>1528.1</ele>
        <time>2020-01-26T20:00:34Z</time>
      </trkpt>
      <trkpt lat="9.8908400" lon="-83.9384980">
        <ele>1528.5</ele>
        <time>2020-01-26T20:00:36Z</time>
      </trkpt>
      <trkpt lat="9.8908530" lon="-83.9385310">
        <ele>1528.8</ele>
        <time>2020-01-26T20:00:37Z</time>
      </trkpt>
      <trkpt lat="9.8908640" lon="-83.9385660">
        <ele>1529.1</ele>
        <time>2020-01-26T20:00:38Z</time>
      </trkpt>
      <trkpt lat="9.8908790" lon="-83.9386120">
        <ele>1529.4</ele>
        <time>2020-01-26T20:00:40Z</time>
      </trkpt>
      <trkpt lat="9.8908990" lon="-83.9386660">
        <ele>1529.8</ele>
        <time>2020-01-26T20:00:42Z</time>
      </trkpt>
      <trkpt lat="9.8909190" lon="-83.9387210">
        <ele>1530.1</ele>
        <time>2020-01-26T20:00:43Z</time>
      </trkpt>
      <trkpt lat="9.8909330" lon="-83.9387560">
        <ele>1530.3</ele>
        <time>2020-01-26T20:00:45Z</time>
      </trkpt>
      <trkpt lat="9.8909570" lon="-83.9388100">
        <ele>1530.7</ele>
        <time>2020-01-26T20:00:46Z</time>
      </trkpt>
      <trkpt lat="9.8909750" lon="-83.9388450">
        <ele>1530.9</ele>
        <time>2020-01-26T20:00:47Z</time>
      </trkpt>
      <trkpt lat="9.8909920" lon="-83.9388730">
        <ele>1531.1</ele>
        <time>2020-01-26T20:00:48Z</time>
      </trkpt>
      <trkpt lat="9.8910060" lon="-83.9388990">
        <ele>1531.4</ele>
        <time>2020-01-26T20:00:50Z</time>
      </trkpt>
      <trkpt lat="9.8910260" lon="-83.9389530">
        <ele>1531.9</ele>
        <time>2020-01-26T20:00:52Z</time>
      </trkpt>
      <trkpt lat="9.8910360" lon="-83.9389870">
        <ele>1532.1</ele>
        <time>2020-01-26T20:00:53Z</time>
      </trkpt>
      <trkpt lat="9.8910560" lon="-83.9390360">
        <ele>1532.4</ele>
        <time>2020-01-26T20:00:55Z</time>
      </trkpt>
      <trkpt lat="9.8910820" lon="-83.9390890">
        <ele>1532.8</ele>
        <time>2020-01-26T20:00:56Z</time>
      </trkpt>
      <trkpt lat="9.8911010" lon="-83.9391350">
        <ele>1533.1</ele>
        <time>2020-01-26T20:00:58Z</time>
      </trkpt>
      <trkpt lat="9.8911270" lon="-83.9391830">
        <ele>1533.5</ele>
        <time>2020-01-26T20:01:00Z</time>
      </trkpt>
      <trkpt lat="9.8911440" lon="-83.9392120">
        <ele>1533.7</ele>
        <time>2020-01-26T20:01:01Z</time>
      </trkpt>
      <trkpt lat="9.8911670" lon="-83.9392530">
        <ele>1534.0</ele>
        <time>2020-01-26T20:01:03Z</time>
      </trkpt>
      <trkpt lat="9.8911810" lon="-83.9392860">
        <ele>1534.3</ele>
        <time>2020-01-26T20:01:04Z</time>
      </trkpt>
      <trkpt lat="9.8912050" lon="-83.9393300">
        <ele>1534.6</ele>
        <time>2020-01-26T20:01:06Z</time>
      </trkpt>
      <trkpt lat="9.8912290" lon="-83.9393750">
        <ele>1535.0</ele>
        <time>2020-01-26T20:01:07Z</time>
      </trkpt>
      <trkpt lat="9.8912370" lon="-83.9393900">
        <ele>1535.1</ele>
        <time>2020-01-26T20:01:08Z</time>
      </trkpt>
      <trkpt lat="9.8912610" lon="-83.9394310">
        <ele>1535.4</ele>
        <time>2020-01-26T20:01:10Z</time>
      </trkpt>
      <trkpt lat="9.8912860" lon="-83.9394710">
        <ele>1535.8</ele>
        <time>2020-01-26T20:01:11Z</time>
      </trkpt>
      <trkpt lat="9.8913030" lon="-83.9395020">
        <ele>1536.0</ele>
        <time>2020-01-26T20:01:12Z</time>
      </trkpt>
      <trkpt lat="9.8913210" lon="-83.9395370">
        <ele>1536.3</ele>
        <time>2020-01-26T20:01:14Z</time>
      </trkpt>
      <trkpt lat="9.8913390" lon="-83.9395680">
        <ele>1536.5</ele>
        <time>2020-01-26T20:01:15Z</time>
      </trkpt>
      <trkpt lat="9.8913570" lon="-83.9396020">
        <ele>1536.7</ele>
        <time>2020-01-26T20:01:16Z</time>
      </trkpt>
      <trkpt lat="9.8913810" lon="-83.9396440">
        <ele>1537.0</ele>
        <time>2020-01-26T20:01:18Z</time>
      </trkpt>
      <trkpt lat="9.8914000" lon="-83.9396740">
        <ele>1537.2</ele>
        <time>2020-01-26T20:01:19Z</time>
      </trkpt>
      <trkpt lat="9.8914180" lon="-83.9397060">
        <ele>1537.4</ele>
        <time>2020-01-26T20:01:20Z</time>
      </trkpt>
      <trkpt lat="9.8914320" lon="-83.9397330">
        <ele>1537.6</ele>
        <time>2020-01-26T20:01:22Z</time>
      </trkpt>
      <trkpt lat="9.8914600" lon="-83.9397780">
        <ele>1537.9</ele>
        <time>2020-01-26T20:01:23Z</time>
      </trkpt>
      <trkpt lat="9.8914840" lon="-83.9398150">
        <ele>1538.1</ele>
        <time>2020-01-26T20:01:24Z</time>
      </trkpt>
      <trkpt lat="9.8914980" lon="-83.9398360">
        <ele>1538.3</ele>
        <time>2020-01-26T20:01:25Z</time>
      </trkpt>
      <trkpt lat="9.8915260" lon="-83.9398780">
        <ele>1538.6</ele>
        <time>2020-01-26T20:01:27Z</time>
      </trkpt>
      <trkpt lat="9.8915490" lon="-83.9399080">
        <ele>1538.8</ele>
        <time>2020-01-26T20:01:28Z</time>
      </trkpt>
      <trkpt lat="9.8915790" lon="-83.9399510">
        <ele>1539.1</ele>
        <time>2020-01-26T20:01:30Z</time>
      </trkpt>
      <trkpt lat="9.8916030" lon="-83.9399820">
        <ele>1539.4</ele>
        <time>2020-01-26T20:01:31Z</time>
      </trkpt>
      <trkpt lat="9.8916220" lon="-83.9400100">
        <ele>1539.7</ele>
        <time>2020-01-26T20:01:32Z</time>
      </trkpt>
      <trkpt lat="9.8916520" lon="-83.9400500">
        <ele>1540.0</ele>
        <time>2020-01-26T20:01:34Z</time>
      </trkpt>
      <trkpt lat="9.8916710" lon="-83.9400770">
        <ele>1540.2</ele>
        <time>2020-01-26T20:01:35Z</time>
      </trkpt>
      <trkpt lat="9.8917010" lon="-83.9401200">
        <ele>1540.5</ele>
        <time>2020-01-26T20:01:37Z</time>
      </trkpt>
      <trkpt lat="9.8917210" lon="-83.9401500">
        <ele>1540.7</ele>
        <time>2020-01-26T20:01:38Z</time>
      </trkpt>
      <trkpt lat="9.8917580" lon="-83.9401950">
        <ele>1541.1</ele>
        <time>2020-01-26T20:01:39Z</time>
      </trkpt>
      <trkpt lat="9.8917800" lon="-83.9402210">
        <ele>1541.3</ele>
        <time>2020-01-26T20:01:41Z</time>
      </trkpt>
      <trkpt lat="9.8918220" lon="-83.9402720">
        <ele>1541.8</ele>
        <time>2020-01-26T20:01:43Z</time>
      </trkpt>
      <trkpt lat="9.8918430" lon="-83.9403020">
        <ele>1542.0</ele>
        <time>2020-01-26T20:01:44Z</time>
      </trkpt>
      <trkpt lat="9.8918640" lon="-83.9403280">
        <ele>1542.3</ele>
        <time>2020-01-26T20:01:45Z</time>
      </trkpt>
      <trkpt lat="9.8918960" lon="-83.9403690">
        <ele>1542.6</ele>
        <time>2020-01-26T20:01:47Z</time>
      </trkpt>
      <trkpt lat="9.8919200" lon="-83.9403960">
        <ele>1542.9</ele>
        <time>2020-01-26T20:01:48Z</time>
      </trkpt>
      <trkpt lat="9.8919520" lon="-83.9404310">
        <ele>1543.2</ele>
        <time>2020-01-26T20:01:49Z</time>
      </trkpt>
      <trkpt lat="9.8919710" lon="-83.9404530">
        <ele>1543.4</ele>
        <time>2020-01-26T20:01:50Z</time>
      </trkpt>
      <trkpt lat="9.8920080" lon="-83.9404930">
        <ele>1543.7</ele>
        <time>2020-01-26T20:01:52Z</time>
      </trkpt>
      <trkpt lat="9.8920250" lon="-83.9405180">
        <ele>1543.9</ele>
        <time>2020-01-26T20:01:53Z</time>
      </trkpt>
      <trkpt lat="9.8920550" lon="-83.9405610">
        <ele>1544.3</ele>
        <time>2020-01-26T20:01:55Z</time>
      </trkpt>
      <trkpt lat="9.8920800" lon="-83.9405900">
        <ele>1544.6</ele>
        <time>2020-01-26T20:01:56Z</time>
      </trkpt>
      <trkpt lat="9.8921060" lon="-83.9406150">
        <ele>1544.9</ele>
        <time>2020-01-26T20:01:57Z</time>
      </trkpt>
      <trkpt lat="9.8921190" lon="-83.9406270">
        <ele>1545.0</ele>
        <time>2020-01-26T20:01:58Z</time>
      </trkpt>
      <trkpt lat="9.8921540" lon="-83.9406650">
        <ele>1545.3</ele>
        <time>2020-01-26T20:02:00Z</time>
      </trkpt>
      <trkpt lat="9.8921780" lon="-83.9406900">
        <ele>1545.5</ele>
        <time>2020-01-26T20:02:01Z</time>
      </trkpt>
      <trkpt lat="9.8922010" lon="-83.9407120">
        <ele>1545.6</ele>
        <time>2020-01-26T20:02:02Z</time>
      </trkpt>
      <trkpt lat="9.8922210" lon="-83.9407310">
        <ele>1545.8</ele>
        <time>2020-01-26T20:02:03Z</time>
      </trkpt>
      <trkpt lat="9.8922630" lon="-83.9407570">
        <ele>1546.0</ele>
        <time>2020-01-26T20:02:05Z</time>
      </trkpt>
      <trkpt lat="9.8922930" lon="-83.9407720">
        <ele>1546.2</ele>
        <time>2020-01-26T20:02:06Z</time>
      </trkpt>
      <trkpt lat="9.8923230" lon="-83.9407840">
        <ele>1546.3</ele>
        <time>2020-01-26T20:02:07Z</time>
      </trkpt>
      <trkpt lat="9.8923510" lon="-83.9407980">
        <ele>1546.5</ele>
        <time>2020-01-26T20:02:08Z</time>
      </trkpt>
      <trkpt lat="9.8923840" lon="-83.9408230">
        <ele>1546.8</ele>
        <time>2020-01-26T20:02:09Z</time>
      </trkpt>
      <trkpt lat="9.8923950" lon="-83.9408350">
        <ele>1546.9</ele>
        <time>2020-01-26T20:02:10Z</time>
      </trkpt>
      <trkpt lat="9.8924150" lon="-83.9408670">
        <ele>1547.2</ele>
        <time>2020-01-26T20:02:12Z</time>
      </trkpt>
      <trkpt lat="9.8924360" lon="-83.9408870">
        <ele>1547.4</ele>
        <time>2020-01-26T20:02:13Z</time>
      </trkpt>
      <trkpt lat="9.8924580" lon="-83.9409070">
        <ele>1547.6</ele>
        <time>2020-01-26T20:02:14Z</time>
      </trkpt>
      <trkpt lat="9.8924940" lon="-83.9409420">
        <ele>1548.1</ele>
        <time>2020-01-26T20:02:16Z</time>
      </trkpt>
      <trkpt lat="9.8925060" lon="-83.9409530">
        <ele>1548.3</ele>
        <time>2020-01-26T20:02:17Z</time>
      </trkpt>
      <trkpt lat="9.8925490" lon="-83.9409870">
        <ele>1548.6</ele>
        <time>2020-01-26T20:02:19Z</time>
      </trkpt>
      <trkpt lat="9.8925710" lon="-83.9410110">
        <ele>1548.9</ele>
        <time>2020-01-26T20:02:20Z</time>
      </trkpt>
      <trkpt lat="9.8926000" lon="-83.9410410">
        <ele>1549.1</ele>
        <time>2020-01-26T20:02:22Z</time>
      </trkpt>
      <trkpt lat="9.8926240" lon="-83.9410560">
        <ele>1549.3</ele>
        <time>2020-01-26T20:02:23Z</time>
      </trkpt>
      <trkpt lat="9.8926520" lon="-83.9410790">
        <ele>1549.5</ele>
        <time>2020-01-26T20:02:25Z</time>
      </trkpt>
      <trkpt lat="9.8926810" lon="-83.9411020">
        <ele>1549.8</ele>
        <time>2020-01-26T20:02:26Z</time>
      </trkpt>
      <trkpt lat="9.8927010" lon="-83.9411210">
        <ele>1549.9</ele>
        <time>2020-01-26T20:02:27Z</time>
      </trkpt>
      <trkpt lat="9.8927180" lon="-83.9411350">
        <ele>1550.1</ele>
        <time>2020-01-26T20:02:28Z</time>
      </trkpt>
      <trkpt lat="9.8927370" lon="-83.9411500">
        <ele>1550.2</ele>
        <time>2020-01-26T20:02:30Z</time>
      </trkpt>
      <trkpt lat="9.8927670" lon="-83.9411780">
        <ele>1550.4</ele>
        <time>2020-01-26T20:02:32Z</time>
      </trkpt>
      <trkpt lat="9.8927950" lon="-83.9412100">
        <ele>1550.7</ele>
        <time>2020-01-26T20:02:33Z</time>
      </trkpt>
      <trkpt lat="9.8928150" lon="-83.9412270">
        <ele>1550.8</ele>
        <time>2020-01-26T20:02:34Z</time>
      </trkpt>
      <trkpt lat="9.8928430" lon="-83.9412420">
        <ele>1551.0</ele>
        <time>2020-01-26T20:02:35Z</time>
      </trkpt>
      <trkpt lat="9.8928680" lon="-83.9412590">
        <ele>1551.1</ele>
        <time>2020-01-26T20:02:37Z</time>
      </trkpt>
      <trkpt lat="9.8928880" lon="-83.9412780">
        <ele>1551.3</ele>
        <time>2020-01-26T20:02:38Z</time>
      </trkpt>
      <trkpt lat="9.8929270" lon="-83.9413070">
        <ele>1551.5</ele>
        <time>2020-01-26T20:02:39Z</time>
      </trkpt>
      <trkpt lat="9.8929540" lon="-83.9413270">
        <ele>1551.7</ele>
        <time>2020-01-26T20:02:40Z</time>
      </trkpt>
      <trkpt lat="9.8929760" lon="-83.9413460">
        <ele>1551.8</ele>
        <time>2020-01-26T20:02:42Z</time>
      </trkpt>
      <trkpt lat="9.8930110" lon="-83.9413750">
        <ele>1552.0</ele>
        <time>2020-01-26T20:02:43Z</time>
      </trkpt>
      <trkpt lat="9.8930360" lon="-83.9413940">
        <ele>1552.1</ele>
        <time>2020-01-26T20:02:45Z</time>
      </trkpt>
      <trkpt lat="9.8930580" lon="-83.9414110">
        <ele>1552.2</ele>
        <time>2020-01-26T20:02:46Z</time>
      </trkpt>
      <trkpt lat="9.8930890" lon="-83.9414320">
        <ele>1552.3</ele>
        <time>2020-01-26T20:02:47Z</time>
      </trkpt>
      <trkpt lat="9.8931180" lon="-83.9414490">
        <ele>1552.5</ele>
        <time>2020-01-26T20:02:48Z</time>
      </trkpt>
      <trkpt lat="9.8931420" lon="-83.9414650">
        <ele>1552.6</ele>
        <time>2020-01-26T20:02:49Z</time>
      </trkpt>
      <trkpt lat="9.8931660" lon="-83.9414880">
        <ele>1552.7</ele>
        <time>2020-01-26T20:02:50Z</time>
      </trkpt>
      <trkpt lat="9.8931990" lon="-83.9415260">
        <ele>1552.8</ele>
        <time>2020-01-26T20:02:52Z</time>
      </trkpt>
      <trkpt lat="9.8932200" lon="-83.9415490">
        <ele>1552.9</ele>
        <time>2020-01-26T20:02:53Z</time>
      </trkpt>
      <trkpt lat="9.8932420" lon="-83.9415710">
        <ele>1553.0</ele>
        <time>2020-01-26T20:02:54Z</time>
      </trkpt>
      <trkpt lat="9.8932940" lon="-83.9416040">
        <ele>1553.2</ele>
        <time>2020-01-26T20:02:56Z</time>
      </trkpt>
      <trkpt lat="9.8933170" lon="-83.9416190">
        <ele>1553.3</ele>
        <time>2020-01-26T20:02:57Z</time>
      </trkpt>
      <trkpt lat="9.8933500" lon="-83.9416380">
        <ele>1553.4</ele>
        <time>2020-01-26T20:02:58Z</time>
      </trkpt>
      <trkpt lat="9.8933830" lon="-83.9416600">
        <ele>1553.5</ele>
        <time>2020-01-26T20:02:59Z</time>
      </trkpt>
      <trkpt lat="9.8934140" lon="-83.9416850">
        <ele>1553.6</ele>
        <time>2020-01-26T20:03:00Z</time>
      </trkpt>
      <trkpt lat="9.8934400" lon="-83.9417090">
        <ele>1553.7</ele>
        <time>2020-01-26T20:03:02Z</time>
      </trkpt>
      <trkpt lat="9.8934800" lon="-83.9417450">
        <ele>1553.8</ele>
        <time>2020-01-26T20:03:03Z</time>
      </trkpt>
      <trkpt lat="9.8935170" lon="-83.9417720">
        <ele>1553.9</ele>
        <time>2020-01-26T20:03:04Z</time>
      </trkpt>
      <trkpt lat="9.8935500" lon="-83.9417980">
        <ele>1554.0</ele>
        <time>2020-01-26T20:03:06Z</time>
      </trkpt>
      <trkpt lat="9.8935790" lon="-83.9418230">
        <ele>1554.1</ele>
        <time>2020-01-26T20:03:07Z</time>
      </trkpt>
      <trkpt lat="9.8936180" lon="-83.9418530">
        <ele>1554.3</ele>
        <time>2020-01-26T20:03:08Z</time>
      </trkpt>
      <trkpt lat="9.8936640" lon="-83.9418900">
        <ele>1554.4</ele>
        <time>2020-01-26T20:03:10Z</time>
      </trkpt>
      <trkpt lat="9.8937090" lon="-83.9419240">
        <ele>1554.6</ele>
        <time>2020-01-26T20:03:11Z</time>
      </trkpt>
      <trkpt lat="9.8937510" lon="-83.9419560">
        <ele>1554.7</ele>
        <time>2020-01-26T20:03:12Z</time>
      </trkpt>
      <trkpt lat="9.8937900" lon="-83.9419850">
        <ele>1554.8</ele>
        <time>2020-01-26T20:03:13Z</time>
      </trkpt>
      <trkpt lat="9.8938460" lon="-83.9420300">
        <ele>1555.0</ele>
        <time>2020-01-26T20:03:15Z</time>
      </trkpt>
      <trkpt lat="9.8938670" lon="-83.9420470">
        <ele>1555.1</ele>
        <time>2020-01-26T20:03:16Z</time>
      </trkpt>
      <trkpt lat="9.8939150" lon="-83.9420910">
        <ele>1555.3</ele>
        <time>2020-01-26T20:03:18Z</time>
      </trkpt>
      <trkpt lat="9.8939640" lon="-83.9421360">
        <ele>1555.4</ele>
        <time>2020-01-26T20:03:19Z</time>
      </trkpt>
      <trkpt lat="9.8940080" lon="-83.9421730">
        <ele>1555.6</ele>
        <time>2020-01-26T20:03:20Z</time>
      </trkpt>
      <trkpt lat="9.8940620" lon="-83.9422200">
        <ele>1555.7</ele>
        <time>2020-01-26T20:03:22Z</time>
      </trkpt>
      <trkpt lat="9.8941160" lon="-83.9422600">
        <ele>1555.8</ele>
        <time>2020-01-26T20:03:23Z</time>
      </trkpt>
      <trkpt lat="9.8941940" lon="-83.9423160">
        <ele>1556.0</ele>
        <time>2020-01-26T20:03:25Z</time>
      </trkpt>
      <trkpt lat="9.8942710" lon="-83.9423740">
        <ele>1556.2</ele>
        <time>2020-01-26T20:03:27Z</time>
      </trkpt>
      <trkpt lat="9.8943070" lon="-83.9424050">
        <ele>1556.3</ele>
        <time>2020-01-26T20:03:28Z</time>
      </trkpt>
      <trkpt lat="9.8943310" lon="-83.9424020">
        <ele>1556.3</ele>
        <time>2020-01-26T20:03:29Z</time>
      </trkpt>
      <trkpt lat="9.8943650" lon="-83.9424350">
        <ele>1556.4</ele>
        <time>2020-01-26T20:03:31Z</time>
      </trkpt>
      <trkpt lat="9.8944350" lon="-83.9425000">
        <ele>1556.6</ele>
        <time>2020-01-26T20:03:32Z</time>
      </trkpt>
      <trkpt lat="9.8944870" lon="-83.9425450">
        <ele>1556.7</ele>
        <time>2020-01-26T20:03:34Z</time>
      </trkpt>
      <trkpt lat="9.8945390" lon="-83.9425970">
        <ele>1556.8</ele>
        <time>2020-01-26T20:03:35Z</time>
      </trkpt>
      <trkpt lat="9.8945810" lon="-83.9426280">
        <ele>1556.9</ele>
        <time>2020-01-26T20:03:36Z</time>
      </trkpt>
      <trkpt lat="9.8946590" lon="-83.9426850">
        <ele>1557.1</ele>
        <time>2020-01-26T20:03:38Z</time>
      </trkpt>
      <trkpt lat="9.8946950" lon="-83.9427100">
        <ele>1557.2</ele>
        <time>2020-01-26T20:03:39Z</time>
      </trkpt>
      <trkpt lat="9.8947720" lon="-83.9427590">
        <ele>1557.3</ele>
        <time>2020-01-26T20:03:41Z</time>
      </trkpt>
      <trkpt lat="9.8948550" lon="-83.9428140">
        <ele>1557.5</ele>
        <time>2020-01-26T20:03:43Z</time>
      </trkpt>
      <trkpt lat="9.8949290" lon="-83.9428590">
        <ele>1557.7</ele>
        <time>2020-01-26T20:03:45Z</time>
      </trkpt>
      <trkpt lat="9.8949600" lon="-83.9428670">
        <ele>1557.7</ele>
        <time>2020-01-26T20:03:46Z</time>
      </trkpt>
      <trkpt lat="9.8949970" lon="-83.9428910">
        <ele>1557.8</ele>
        <time>2020-01-26T20:03:47Z</time>
      </trkpt>
      <trkpt lat="9.8950340" lon="-83.9429050">
        <ele>1557.8</ele>
        <time>2020-01-26T20:03:49Z</time>
      </trkpt>
      <trkpt lat="9.8950690" lon="-83.9429330">
        <ele>1557.9</ele>
        <time>2020-01-26T20:03:50Z</time>
      </trkpt>
      <trkpt lat="9.8951190" lon="-83.9429610">
        <ele>1557.9</ele>
        <time>2020-01-26T20:03:51Z</time>
      </trkpt>
      <trkpt lat="9.8951830" lon="-83.9429960">
        <ele>1558.0</ele>
        <time>2020-01-26T20:03:52Z</time>
      </trkpt>
      <trkpt lat="9.8952620" lon="-83.9430360">
        <ele>1558.0</ele>
        <time>2020-01-26T20:03:54Z</time>
      </trkpt>
      <trkpt lat="9.8953530" lon="-83.9430710">
        <ele>1558.1</ele>
        <time>2020-01-26T20:03:56Z</time>
      </trkpt>
      <trkpt lat="9.8954550" lon="-83.9431060">
        <ele>1558.1</ele>
        <time>2020-01-26T20:03:58Z</time>
      </trkpt>
      <trkpt lat="9.8955080" lon="-83.9431240">
        <ele>1558.1</ele>
        <time>2020-01-26T20:03:59Z</time>
      </trkpt>
      <trkpt lat="9.8956140" lon="-83.9431580">
        <ele>1558.1</ele>
        <time>2020-01-26T20:04:01Z</time>
      </trkpt>
      <trkpt lat="9.8956690" lon="-83.9431750">
        <ele>1558.0</ele>
        <time>2020-01-26T20:04:02Z</time>
      </trkpt>
      <trkpt lat="9.8957230" lon="-83.9431900">
        <ele>1558.0</ele>
        <time>2020-01-26T20:04:03Z</time>
      </trkpt>
      <trkpt lat="9.8958320" lon="-83.9432220">
        <ele>1557.9</ele>
        <time>2020-01-26T20:04:05Z</time>
      </trkpt>
      <trkpt lat="9.8959450" lon="-83.9432600">
        <ele>1557.8</ele>
        <time>2020-01-26T20:04:07Z</time>
      </trkpt>
      <trkpt lat="9.8960660" lon="-83.9432990">
        <ele>1557.5</ele>
        <time>2020-01-26T20:04:09Z</time>
      </trkpt>
      <trkpt lat="9.8961280" lon="-83.9433200">
        <ele>1557.4</ele>
        <time>2020-01-26T20:04:10Z</time>
      </trkpt>
      <trkpt lat="9.8962510" lon="-83.9433660">
        <ele>1556.7</ele>
        <time>2020-01-26T20:04:12Z</time>
      </trkpt>
      <trkpt lat="9.8963170" lon="-83.9433860">
        <ele>1556.3</ele>
        <time>2020-01-26T20:04:13Z</time>
      </trkpt>
      <trkpt lat="9.8963840" lon="-83.9434130">
        <ele>1555.8</ele>
        <time>2020-01-26T20:04:14Z</time>
      </trkpt>
      <trkpt lat="9.8965210" lon="-83.9434770">
        <ele>1554.7</ele>
        <time>2020-01-26T20:04:16Z</time>
      </trkpt>
      <trkpt lat="9.8965870" lon="-83.9435120">
        <ele>1554.2</ele>
        <time>2020-01-26T20:04:17Z</time>
      </trkpt>
      <trkpt lat="9.8967100" lon="-83.9435870">
        <ele>1553.3</ele>
        <time>2020-01-26T20:04:19Z</time>
      </trkpt>
      <trkpt lat="9.8968420" lon="-83.9436750">
        <ele>1552.4</ele>
        <time>2020-01-26T20:04:21Z</time>
      </trkpt>
      <trkpt lat="9.8969770" lon="-83.9437720">
        <ele>1552.0</ele>
        <time>2020-01-26T20:04:23Z</time>
      </trkpt>
      <trkpt lat="9.8971150" lon="-83.9438770">
        <ele>1551.9</ele>
        <time>2020-01-26T20:04:25Z</time>
      </trkpt>
      <trkpt lat="9.8971860" lon="-83.9439310">
        <ele>1551.7</ele>
        <time>2020-01-26T20:04:26Z</time>
      </trkpt>
      <trkpt lat="9.8973290" lon="-83.9440450">
        <ele>1551.3</ele>
        <time>2020-01-26T20:04:28Z</time>
      </trkpt>
      <trkpt lat="9.8974690" lon="-83.9441530">
        <ele>1550.8</ele>
        <time>2020-01-26T20:04:30Z</time>
      </trkpt>
      <trkpt lat="9.8976050" lon="-83.9442590">
        <ele>1550.1</ele>
        <time>2020-01-26T20:04:32Z</time>
      </trkpt>
      <trkpt lat="9.8977350" lon="-83.9443620">
        <ele>1549.4</ele>
        <time>2020-01-26T20:04:34Z</time>
      </trkpt>
      <trkpt lat="9.8978040" lon="-83.9444160">
        <ele>1549.1</ele>
        <time>2020-01-26T20:04:35Z</time>
      </trkpt>
      <trkpt lat="9.8979390" lon="-83.9445200">
        <ele>1548.3</ele>
        <time>2020-01-26T20:04:37Z</time>
      </trkpt>
      <trkpt lat="9.8980030" lon="-83.9445670">
        <ele>1548.0</ele>
        <time>2020-01-26T20:04:38Z</time>
      </trkpt>
      <trkpt lat="9.8981250" lon="-83.9446580">
        <ele>1547.5</ele>
        <time>2020-01-26T20:04:40Z</time>
      </trkpt>
      <trkpt lat="9.8982430" lon="-83.9447510">
        <ele>1547.1</ele>
        <time>2020-01-26T20:04:42Z</time>
      </trkpt>
      <trkpt lat="9.8982970" lon="-83.9447930">
        <ele>1547.1</ele>
        <time>2020-01-26T20:04:43Z</time>
      </trkpt>
      <trkpt lat="9.8984010" lon="-83.9448680">
        <ele>1547.0</ele>
        <time>2020-01-26T20:04:45Z</time>
      </trkpt>
      <trkpt lat="9.8984590" lon="-83.9449040">
        <ele>1547.0</ele>
        <time>2020-01-26T20:04:46Z</time>
      </trkpt>
      <trkpt lat="9.8985220" lon="-83.9449490">
        <ele>1547.0</ele>
        <time>2020-01-26T20:04:47Z</time>
      </trkpt>
      <trkpt lat="9.8986460" lon="-83.9450350">
        <ele>1547.0</ele>
        <time>2020-01-26T20:04:49Z</time>
      </trkpt>
      <trkpt lat="9.8987080" lon="-83.9450770">
        <ele>1547.0</ele>
        <time>2020-01-26T20:04:50Z</time>
      </trkpt>
      <trkpt lat="9.8988300" lon="-83.9451750">
        <ele>1547.0</ele>
        <time>2020-01-26T20:04:52Z</time>
      </trkpt>
      <trkpt lat="9.8988920" lon="-83.9452240">
        <ele>1547.0</ele>
        <time>2020-01-26T20:04:53Z</time>
      </trkpt>
      <trkpt lat="9.8989570" lon="-83.9452700">
        <ele>1547.0</ele>
        <time>2020-01-26T20:04:54Z</time>
      </trkpt>
      <trkpt lat="9.8990720" lon="-83.9453590">
        <ele>1547.0</ele>
        <time>2020-01-26T20:04:56Z</time>
      </trkpt>
      <trkpt lat="9.8991720" lon="-83.9454410">
        <ele>1547.0</ele>
        <time>2020-01-26T20:04:58Z</time>
      </trkpt>
      <trkpt lat="9.8992240" lon="-83.9454900">
        <ele>1547.0</ele>
        <time>2020-01-26T20:04:59Z</time>
      </trkpt>
      <trkpt lat="9.8992820" lon="-83.9455400">
        <ele>1547.0</ele>
        <time>2020-01-26T20:05:00Z</time>
      </trkpt>
      <trkpt lat="9.8994110" lon="-83.9456360">
        <ele>1547.0</ele>
        <time>2020-01-26T20:05:02Z</time>
      </trkpt>
      <trkpt lat="9.8995310" lon="-83.9457320">
        <ele>1547.0</ele>
        <time>2020-01-26T20:05:04Z</time>
      </trkpt>
      <trkpt lat="9.8995920" lon="-83.9457800">
        <ele>1547.0</ele>
        <time>2020-01-26T20:05:05Z</time>
      </trkpt>
      <trkpt lat="9.8997160" lon="-83.9458780">
        <ele>1546.9</ele>
        <time>2020-01-26T20:05:07Z</time>
      </trkpt>
      <trkpt lat="9.8998440" lon="-83.9459720">
        <ele>1546.7</ele>
        <time>2020-01-26T20:05:09Z</time>
      </trkpt>
      <trkpt lat="9.8999110" lon="-83.9460250">
        <ele>1546.6</ele>
        <time>2020-01-26T20:05:10Z</time>
      </trkpt>
      <trkpt lat="9.9001080" lon="-83.9461790">
        <ele>1546.1</ele>
        <time>2020-01-26T20:05:13Z</time>
      </trkpt>
      <trkpt lat="9.9002360" lon="-83.9462830">
        <ele>1545.7</ele>
        <time>2020-01-26T20:05:15Z</time>
      </trkpt>
      <trkpt lat="9.9003680" lon="-83.9463910">
        <ele>1545.2</ele>
        <time>2020-01-26T20:05:17Z</time>
      </trkpt>
      <trkpt lat="9.9004370" lon="-83.9464490">
        <ele>1544.9</ele>
        <time>2020-01-26T20:05:18Z</time>
      </trkpt>
      <trkpt lat="9.9005650" lon="-83.9465660">
        <ele>1544.4</ele>
        <time>2020-01-26T20:05:20Z</time>
      </trkpt>
      <trkpt lat="9.9006270" lon="-83.9466360">
        <ele>1544.2</ele>
        <time>2020-01-26T20:05:21Z</time>
      </trkpt>
      <trkpt lat="9.9006930" lon="-83.9467100">
        <ele>1543.8</ele>
        <time>2020-01-26T20:05:22Z</time>
      </trkpt>
      <trkpt lat="9.9007570" lon="-83.9467820">
        <ele>1543.5</ele>
        <time>2020-01-26T20:05:23Z</time>
      </trkpt>
      <trkpt lat="9.9008160" lon="-83.9468530">
        <ele>1543.2</ele>
        <time>2020-01-26T20:05:24Z</time>
      </trkpt>
      <trkpt lat="9.9009320" lon="-83.9470130">
        <ele>1542.3</ele>
        <time>2020-01-26T20:05:26Z</time>
      </trkpt>
      <trkpt lat="9.9009840" lon="-83.9470900">
        <ele>1541.9</ele>
        <time>2020-01-26T20:05:27Z</time>
      </trkpt>
      <trkpt lat="9.9010310" lon="-83.9471670">
        <ele>1541.4</ele>
        <time>2020-01-26T20:05:28Z</time>
      </trkpt>
      <trkpt lat="9.9010740" lon="-83.9472480">
        <ele>1541.0</ele>
        <time>2020-01-26T20:05:29Z</time>
      </trkpt>
      <trkpt lat="9.9011560" lon="-83.9474090">
        <ele>1540.0</ele>
        <time>2020-01-26T20:05:31Z</time>
      </trkpt>
      <trkpt lat="9.9011930" lon="-83.9474950">
        <ele>1539.8</ele>
        <time>2020-01-26T20:05:32Z</time>
      </trkpt>
      <trkpt lat="9.9012320" lon="-83.9475830">
        <ele>1539.6</ele>
        <time>2020-01-26T20:05:33Z</time>
      </trkpt>
      <trkpt lat="9.9012640" lon="-83.9476670">
        <ele>1539.4</ele>
        <time>2020-01-26T20:05:34Z</time>
      </trkpt>
      <trkpt lat="9.9013220" lon="-83.9478430">
        <ele>1539.0</ele>
        <time>2020-01-26T20:05:36Z</time>
      </trkpt>
      <trkpt lat="9.9013460" lon="-83.9479320">
        <ele>1538.8</ele>
        <time>2020-01-26T20:05:37Z</time>
      </trkpt>
      <trkpt lat="9.9013910" lon="-83.9481120">
        <ele>1538.4</ele>
        <time>2020-01-26T20:05:39Z</time>
      </trkpt>
      <trkpt lat="9.9014120" lon="-83.9482040">
        <ele>1538.3</ele>
        <time>2020-01-26T20:05:40Z</time>
      </trkpt>
      <trkpt lat="9.9014350" lon="-83.9483840">
        <ele>1538.1</ele>
        <time>2020-01-26T20:05:42Z</time>
      </trkpt>
      <trkpt lat="9.9014500" lon="-83.9484750">
        <ele>1538.0</ele>
        <time>2020-01-26T20:05:43Z</time>
      </trkpt>
      <trkpt lat="9.9014740" lon="-83.9486590">
        <ele>1537.9</ele>
        <time>2020-01-26T20:05:45Z</time>
      </trkpt>
      <trkpt lat="9.9014790" lon="-83.9487530">
        <ele>1537.9</ele>
        <time>2020-01-26T20:05:46Z</time>
      </trkpt>
      <trkpt lat="9.9014970" lon="-83.9489400">
        <ele>1537.7</ele>
        <time>2020-01-26T20:05:48Z</time>
      </trkpt>
      <trkpt lat="9.9015050" lon="-83.9490370">
        <ele>1537.6</ele>
        <time>2020-01-26T20:05:49Z</time>
      </trkpt>
      <trkpt lat="9.9015130" lon="-83.9491320">
        <ele>1537.4</ele>
        <time>2020-01-26T20:05:50Z</time>
      </trkpt>
      <trkpt lat="9.9015280" lon="-83.9493190">
        <ele>1537.2</ele>
        <time>2020-01-26T20:05:52Z</time>
      </trkpt>
      <trkpt lat="9.9015350" lon="-83.9494110">
        <ele>1537.1</ele>
        <time>2020-01-26T20:05:53Z</time>
      </trkpt>
      <trkpt lat="9.9015470" lon="-83.9495940">
        <ele>1537.0</ele>
        <time>2020-01-26T20:05:55Z</time>
      </trkpt>
      <trkpt lat="9.9015550" lon="-83.9496870">
        <ele>1536.5</ele>
        <time>2020-01-26T20:05:56Z</time>
      </trkpt>
      <trkpt lat="9.9015690" lon="-83.9498680">
        <ele>1535.6</ele>
        <time>2020-01-26T20:05:58Z</time>
      </trkpt>
      <trkpt lat="9.9015830" lon="-83.9500430">
        <ele>1535.2</ele>
        <time>2020-01-26T20:06:00Z</time>
      </trkpt>
      <trkpt lat="9.9016020" lon="-83.9502180">
        <ele>1535.2</ele>
        <time>2020-01-26T20:06:02Z</time>
      </trkpt>
      <trkpt lat="9.9016090" lon="-83.9503050">
        <ele>1535.2</ele>
        <time>2020-01-26T20:06:03Z</time>
      </trkpt>
      <trkpt lat="9.9016160" lon="-83.9503930">
        <ele>1535.2</ele>
        <time>2020-01-26T20:06:04Z</time>
      </trkpt>
      <trkpt lat="9.9016280" lon="-83.9505600">
        <ele>1535.2</ele>
        <time>2020-01-26T20:06:06Z</time>
      </trkpt>
      <trkpt lat="9.9016410" lon="-83.9507290">
        <ele>1535.0</ele>
        <time>2020-01-26T20:06:08Z</time>
      </trkpt>
      <trkpt lat="9.9016470" lon="-83.9508150">
        <ele>1534.6</ele>
        <time>2020-01-26T20:06:09Z</time>
      </trkpt>
      <trkpt lat="9.9016650" lon="-83.9509840">
        <ele>1533.9</ele>
        <time>2020-01-26T20:06:11Z</time>
      </trkpt>
      <trkpt lat="9.9016760" lon="-83.9511500">
        <ele>1533.5</ele>
        <time>2020-01-26T20:06:13Z</time>
      </trkpt>
      <trkpt lat="9.9016910" lon="-83.9513150">
        <ele>1533.3</ele>
        <time>2020-01-26T20:06:15Z</time>
      </trkpt>
      <trkpt lat="9.9017060" lon="-83.9514740">
        <ele>1533.1</ele>
        <time>2020-01-26T20:06:17Z</time>
      </trkpt>
      <trkpt lat="9.9017220" lon="-83.9516350">
        <ele>1532.5</ele>
        <time>2020-01-26T20:06:19Z</time>
      </trkpt>
      <trkpt lat="9.9017340" lon="-83.9517990">
        <ele>1531.8</ele>
        <time>2020-01-26T20:06:21Z</time>
      </trkpt>
      <trkpt lat="9.9017470" lon="-83.9519650">
        <ele>1531.5</ele>
        <time>2020-01-26T20:06:23Z</time>
      </trkpt>
      <trkpt lat="9.9017700" lon="-83.9521310">
        <ele>1531.4</ele>
        <time>2020-01-26T20:06:25Z</time>
      </trkpt>
      <trkpt lat="9.9017980" lon="-83.9522980">
        <ele>1531.4</ele>
        <time>2020-01-26T20:06:27Z</time>
      </trkpt>
      <trkpt lat="9.9018110" lon="-83.9523860">
        <ele>1531.5</ele>
        <time>2020-01-26T20:06:28Z</time>
      </trkpt>
      <trkpt lat="9.9018240" lon="-83.9524730">
        <ele>1531.5</ele>
        <time>2020-01-26T20:06:29Z</time>
      </trkpt>
      <trkpt lat="9.9018590" lon="-83.9526470">
        <ele>1531.4</ele>
        <time>2020-01-26T20:06:31Z</time>
      </trkpt>
      <trkpt lat="9.9018790" lon="-83.9527320">
        <ele>1531.4</ele>
        <time>2020-01-26T20:06:32Z</time>
      </trkpt>
      <trkpt lat="9.9019530" lon="-83.9529710">
        <ele>1530.9</ele>
        <time>2020-01-26T20:06:35Z</time>
      </trkpt>
      <trkpt lat="9.9020250" lon="-83.9531350">
        <ele>1530.6</ele>
        <time>2020-01-26T20:06:37Z</time>
      </trkpt>
      <trkpt lat="9.9020720" lon="-83.9532160">
        <ele>1530.6</ele>
        <time>2020-01-26T20:06:38Z</time>
      </trkpt>
      <trkpt lat="9.9021740" lon="-83.9533700">
        <ele>1530.4</ele>
        <time>2020-01-26T20:06:40Z</time>
      </trkpt>
      <trkpt lat="9.9022880" lon="-83.9535220">
        <ele>1530.4</ele>
        <time>2020-01-26T20:06:42Z</time>
      </trkpt>
      <trkpt lat="9.9024130" lon="-83.9536690">
        <ele>1530.5</ele>
        <time>2020-01-26T20:06:44Z</time>
      </trkpt>
      <trkpt lat="9.9025350" lon="-83.9538170">
        <ele>1530.9</ele>
        <time>2020-01-26T20:06:46Z</time>
      </trkpt>
      <trkpt lat="9.9026450" lon="-83.9539580">
        <ele>1530.3</ele>
        <time>2020-01-26T20:06:48Z</time>
      </trkpt>
      <trkpt lat="9.9026960" lon="-83.9540290">
        <ele>1529.6</ele>
        <time>2020-01-26T20:06:49Z</time>
      </trkpt>
      <trkpt lat="9.9027470" lon="-83.9541020">
        <ele>1528.7</ele>
        <time>2020-01-26T20:06:50Z</time>
      </trkpt>
      <trkpt lat="9.9028480" lon="-83.9542320">
        <ele>1527.0</ele>
        <time>2020-01-26T20:06:52Z</time>
      </trkpt>
      <trkpt lat="9.9028940" lon="-83.9542900">
        <ele>1526.2</ele>
        <time>2020-01-26T20:06:53Z</time>
      </trkpt>
      <trkpt lat="9.9029920" lon="-83.9544260">
        <ele>1525.1</ele>
        <time>2020-01-26T20:06:55Z</time>
      </trkpt>
      <trkpt lat="9.9030790" lon="-83.9545730">
        <ele>1524.2</ele>
        <time>2020-01-26T20:06:57Z</time>
      </trkpt>
      <trkpt lat="9.9031500" lon="-83.9547390">
        <ele>1523.0</ele>
        <time>2020-01-26T20:06:59Z</time>
      </trkpt>
      <trkpt lat="9.9032400" lon="-83.9550130">
        <ele>1520.7</ele>
        <time>2020-01-26T20:07:02Z</time>
      </trkpt>
      <trkpt lat="9.9032690" lon="-83.9552070">
        <ele>1519.2</ele>
        <time>2020-01-26T20:07:04Z</time>
      </trkpt>
      <trkpt lat="9.9033010" lon="-83.9554030">
        <ele>1517.8</ele>
        <time>2020-01-26T20:07:06Z</time>
      </trkpt>
      <trkpt lat="9.9033190" lon="-83.9555030">
        <ele>1517.1</ele>
        <time>2020-01-26T20:07:07Z</time>
      </trkpt>
      <trkpt lat="9.9033580" lon="-83.9557030">
        <ele>1515.6</ele>
        <time>2020-01-26T20:07:09Z</time>
      </trkpt>
      <trkpt lat="9.9033820" lon="-83.9558050">
        <ele>1514.8</ele>
        <time>2020-01-26T20:07:10Z</time>
      </trkpt>
      <trkpt lat="9.9034420" lon="-83.9559940">
        <ele>1513.1</ele>
        <time>2020-01-26T20:07:12Z</time>
      </trkpt>
      <trkpt lat="9.9034810" lon="-83.9560900">
        <ele>1512.2</ele>
        <time>2020-01-26T20:07:13Z</time>
      </trkpt>
      <trkpt lat="9.9035750" lon="-83.9562710">
        <ele>1510.5</ele>
        <time>2020-01-26T20:07:15Z</time>
      </trkpt>
      <trkpt lat="9.9036710" lon="-83.9564450">
        <ele>1508.8</ele>
        <time>2020-01-26T20:07:17Z</time>
      </trkpt>
      <trkpt lat="9.9037220" lon="-83.9565330">
        <ele>1507.9</ele>
        <time>2020-01-26T20:07:18Z</time>
      </trkpt>
      <trkpt lat="9.9038290" lon="-83.9566960">
        <ele>1506.7</ele>
        <time>2020-01-26T20:07:20Z</time>
      </trkpt>
      <trkpt lat="9.9039490" lon="-83.9568550">
        <ele>1505.2</ele>
        <time>2020-01-26T20:07:22Z</time>
      </trkpt>
      <trkpt lat="9.9040860" lon="-83.9570160">
        <ele>1503.6</ele>
        <time>2020-01-26T20:07:24Z</time>
      </trkpt>
      <trkpt lat="9.9041560" lon="-83.9570940">
        <ele>1502.8</ele>
        <time>2020-01-26T20:07:25Z</time>
      </trkpt>
      <trkpt lat="9.9042290" lon="-83.9571730">
        <ele>1501.8</ele>
        <time>2020-01-26T20:07:26Z</time>
      </trkpt>
      <trkpt lat="9.9043780" lon="-83.9573300">
        <ele>1499.9</ele>
        <time>2020-01-26T20:07:28Z</time>
      </trkpt>
      <trkpt lat="9.9045300" lon="-83.9574730">
        <ele>1498.1</ele>
        <time>2020-01-26T20:07:30Z</time>
      </trkpt>
      <trkpt lat="9.9046050" lon="-83.9575430">
        <ele>1497.4</ele>
        <time>2020-01-26T20:07:31Z</time>
      </trkpt>
      <trkpt lat="9.9046830" lon="-83.9576100">
        <ele>1496.6</ele>
        <time>2020-01-26T20:07:32Z</time>
      </trkpt>
      <trkpt lat="9.9048390" lon="-83.9577360">
        <ele>1495.0</ele>
        <time>2020-01-26T20:07:34Z</time>
      </trkpt>
      <trkpt lat="9.9049170" lon="-83.9577940">
        <ele>1494.2</ele>
        <time>2020-01-26T20:07:35Z</time>
      </trkpt>
      <trkpt lat="9.9049930" lon="-83.9578430">
        <ele>1493.5</ele>
        <time>2020-01-26T20:07:36Z</time>
      </trkpt>
      <trkpt lat="9.9051510" lon="-83.9579300">
        <ele>1492.1</ele>
        <time>2020-01-26T20:07:38Z</time>
      </trkpt>
      <trkpt lat="9.9052320" lon="-83.9579650">
        <ele>1491.6</ele>
        <time>2020-01-26T20:07:39Z</time>
      </trkpt>
      <trkpt lat="9.9054050" lon="-83.9580390">
        <ele>1490.4</ele>
        <time>2020-01-26T20:07:41Z</time>
      </trkpt>
      <trkpt lat="9.9055010" lon="-83.9580750">
        <ele>1489.6</ele>
        <time>2020-01-26T20:07:42Z</time>
      </trkpt>
      <trkpt lat="9.9056930" lon="-83.9581380">
        <ele>1488.0</ele>
        <time>2020-01-26T20:07:44Z</time>
      </trkpt>
      <trkpt lat="9.9058660" lon="-83.9582040">
        <ele>1486.9</ele>
        <time>2020-01-26T20:07:46Z</time>
      </trkpt>
      <trkpt lat="9.9060210" lon="-83.9582740">
        <ele>1486.4</ele>
        <time>2020-01-26T20:07:48Z</time>
      </trkpt>
      <trkpt lat="9.9061710" lon="-83.9583690">
        <ele>1486.3</ele>
        <time>2020-01-26T20:07:50Z</time>
      </trkpt>
      <trkpt lat="9.9063000" lon="-83.9584800">
        <ele>1486.2</ele>
        <time>2020-01-26T20:07:52Z</time>
      </trkpt>
      <trkpt lat="9.9063580" lon="-83.9585460">
        <ele>1485.8</ele>
        <time>2020-01-26T20:07:53Z</time>
      </trkpt>
      <trkpt lat="9.9064570" lon="-83.9587010">
        <ele>1485.2</ele>
        <time>2020-01-26T20:07:55Z</time>
      </trkpt>
      <trkpt lat="9.9065040" lon="-83.9587800">
        <ele>1484.8</ele>
        <time>2020-01-26T20:07:56Z</time>
      </trkpt>
      <trkpt lat="9.9065600" lon="-83.9589590">
        <ele>1483.8</ele>
        <time>2020-01-26T20:07:58Z</time>
      </trkpt>
      <trkpt lat="9.9065750" lon="-83.9591320">
        <ele>1482.8</ele>
        <time>2020-01-26T20:08:00Z</time>
      </trkpt>
      <trkpt lat="9.9065830" lon="-83.9592150">
        <ele>1482.1</ele>
        <time>2020-01-26T20:08:01Z</time>
      </trkpt>
      <trkpt lat="9.9065820" lon="-83.9593800">
        <ele>1480.8</ele>
        <time>2020-01-26T20:08:03Z</time>
      </trkpt>
      <trkpt lat="9.9065710" lon="-83.9594620">
        <ele>1480.2</ele>
        <time>2020-01-26T20:08:04Z</time>
      </trkpt>
      <trkpt lat="9.9065320" lon="-83.9596400">
        <ele>1478.4</ele>
        <time>2020-01-26T20:08:06Z</time>
      </trkpt>
      <trkpt lat="9.9064710" lon="-83.9598290">
        <ele>1476.4</ele>
        <time>2020-01-26T20:08:08Z</time>
      </trkpt>
      <trkpt lat="9.9064360" lon="-83.9599260">
        <ele>1474.9</ele>
        <time>2020-01-26T20:08:09Z</time>
      </trkpt>
      <trkpt lat="9.9063570" lon="-83.9601170">
        <ele>1471.7</ele>
        <time>2020-01-26T20:08:11Z</time>
      </trkpt>
      <trkpt lat="9.9062830" lon="-83.9603000">
        <ele>1469.1</ele>
        <time>2020-01-26T20:08:13Z</time>
      </trkpt>
      <trkpt lat="9.9062190" lon="-83.9604660">
        <ele>1467.3</ele>
        <time>2020-01-26T20:08:15Z</time>
      </trkpt>
      <trkpt lat="9.9061570" lon="-83.9606170">
        <ele>1466.1</ele>
        <time>2020-01-26T20:08:17Z</time>
      </trkpt>
      <trkpt lat="9.9061190" lon="-83.9607510">
        <ele>1465.4</ele>
        <time>2020-01-26T20:08:19Z</time>
      </trkpt>
      <trkpt lat="9.9060980" lon="-83.9608070">
        <ele>1465.2</ele>
        <time>2020-01-26T20:08:20Z</time>
      </trkpt>
      <trkpt lat="9.9060570" lon="-83.9608940">
        <ele>1464.6</ele>
        <time>2020-01-26T20:08:22Z</time>
      </trkpt>
      <trkpt lat="9.9060350" lon="-83.9609460">
        <ele>1464.1</ele>
        <time>2020-01-26T20:08:23Z</time>
      </trkpt>
      <trkpt lat="9.9060200" lon="-83.9609930">
        <ele>1463.7</ele>
        <time>2020-01-26T20:08:24Z</time>
      </trkpt>
      <trkpt lat="9.9059860" lon="-83.9610920">
        <ele>1463.1</ele>
        <time>2020-01-26T20:08:26Z</time>
      </trkpt>
      <trkpt lat="9.9059500" lon="-83.9611850">
        <ele>1463.6</ele>
        <time>2020-01-26T20:08:28Z</time>
      </trkpt>
      <trkpt lat="9.9059090" lon="-83.9612850">
        <ele>1463.6</ele>
        <time>2020-01-26T20:08:30Z</time>
      </trkpt>
      <trkpt lat="9.9058900" lon="-83.9613340">
        <ele>1463.4</ele>
        <time>2020-01-26T20:08:31Z</time>
      </trkpt>
      <trkpt lat="9.9058460" lon="-83.9614400">
        <ele>1463.1</ele>
        <time>2020-01-26T20:08:33Z</time>
      </trkpt>
      <trkpt lat="9.9058020" lon="-83.9615370">
        <ele>1462.9</ele>
        <time>2020-01-26T20:08:35Z</time>
      </trkpt>
      <trkpt lat="9.9057790" lon="-83.9615870">
        <ele>1462.8</ele>
        <time>2020-01-26T20:08:36Z</time>
      </trkpt>
      <trkpt lat="9.9057330" lon="-83.9617030">
        <ele>1462.6</ele>
        <time>2020-01-26T20:08:38Z</time>
      </trkpt>
      <trkpt lat="9.9057090" lon="-83.9617690">
        <ele>1462.5</ele>
        <time>2020-01-26T20:08:39Z</time>
      </trkpt>
      <trkpt lat="9.9056530" lon="-83.9619020">
        <ele>1461.9</ele>
        <time>2020-01-26T20:08:41Z</time>
      </trkpt>
      <trkpt lat="9.9055940" lon="-83.9620450">
        <ele>1461.2</ele>
        <time>2020-01-26T20:08:43Z</time>
      </trkpt>
      <trkpt lat="9.9055380" lon="-83.9621960">
        <ele>1460.9</ele>
        <time>2020-01-26T20:08:45Z</time>
      </trkpt>
      <trkpt lat="9.9054820" lon="-83.9623530">
        <ele>1460.3</ele>
        <time>2020-01-26T20:08:47Z</time>
      </trkpt>
      <trkpt lat="9.9054550" lon="-83.9624350">
        <ele>1459.8</ele>
        <time>2020-01-26T20:08:48Z</time>
      </trkpt>
      <trkpt lat="9.9054350" lon="-83.9625170">
        <ele>1459.5</ele>
        <time>2020-01-26T20:08:49Z</time>
      </trkpt>
      <trkpt lat="9.9054190" lon="-83.9626000">
        <ele>1459.2</ele>
        <time>2020-01-26T20:08:50Z</time>
      </trkpt>
      <trkpt lat="9.9053940" lon="-83.9627690">
        <ele>1458.6</ele>
        <time>2020-01-26T20:08:52Z</time>
      </trkpt>
      <trkpt lat="9.9053890" lon="-83.9629450">
        <ele>1457.5</ele>
        <time>2020-01-26T20:08:54Z</time>
      </trkpt>
      <trkpt lat="9.9053920" lon="-83.9630340">
        <ele>1456.9</ele>
        <time>2020-01-26T20:08:55Z</time>
      </trkpt>
      <trkpt lat="9.9054000" lon="-83.9631220">
        <ele>1456.3</ele>
        <time>2020-01-26T20:08:56Z</time>
      </trkpt>
      <trkpt lat="9.9054360" lon="-83.9633020">
        <ele>1454.9</ele>
        <time>2020-01-26T20:08:58Z</time>
      </trkpt>
      <trkpt lat="9.9054920" lon="-83.9634830">
        <ele>1454.2</ele>
        <time>2020-01-26T20:09:00Z</time>
      </trkpt>
      <trkpt lat="9.9055320" lon="-83.9635670">
        <ele>1453.8</ele>
        <time>2020-01-26T20:09:01Z</time>
      </trkpt>
      <trkpt lat="9.9056220" lon="-83.9637320">
        <ele>1452.8</ele>
        <time>2020-01-26T20:09:03Z</time>
      </trkpt>
      <trkpt lat="9.9057310" lon="-83.9638840">
        <ele>1451.6</ele>
        <time>2020-01-26T20:09:05Z</time>
      </trkpt>
      <trkpt lat="9.9057900" lon="-83.9639520">
        <ele>1450.7</ele>
        <time>2020-01-26T20:09:06Z</time>
      </trkpt>
      <trkpt lat="9.9059170" lon="-83.9640880">
        <ele>1449.8</ele>
        <time>2020-01-26T20:09:08Z</time>
      </trkpt>
      <trkpt lat="9.9060330" lon="-83.9641970">
        <ele>1449.3</ele>
        <time>2020-01-26T20:09:10Z</time>
      </trkpt>
      <trkpt lat="9.9060940" lon="-83.9642510">
        <ele>1449.1</ele>
        <time>2020-01-26T20:09:11Z</time>
      </trkpt>
      <trkpt lat="9.9061530" lon="-83.9643030">
        <ele>1448.9</ele>
        <time>2020-01-26T20:09:12Z</time>
      </trkpt>
      <trkpt lat="9.9062570" lon="-83.9644000">
        <ele>1448.6</ele>
        <time>2020-01-26T20:09:14Z</time>
      </trkpt>
      <trkpt lat="9.9063040" lon="-83.9644470">
        <ele>1448.4</ele>
        <time>2020-01-26T20:09:15Z</time>
      </trkpt>
      <trkpt lat="9.9063940" lon="-83.9645370">
        <ele>1448.0</ele>
        <time>2020-01-26T20:09:17Z</time>
      </trkpt>
      <trkpt lat="9.9065060" lon="-83.9646370">
        <ele>1447.5</ele>
        <time>2020-01-26T20:09:19Z</time>
      </trkpt>
      <trkpt lat="9.9065680" lon="-83.9646910">
        <ele>1447.3</ele>
        <time>2020-01-26T20:09:20Z</time>
      </trkpt>
      <trkpt lat="9.9066290" lon="-83.9647470">
        <ele>1447.1</ele>
        <time>2020-01-26T20:09:21Z</time>
      </trkpt>
      <trkpt lat="9.9067510" lon="-83.9648630">
        <ele>1446.5</ele>
        <time>2020-01-26T20:09:23Z</time>
      </trkpt>
      <trkpt lat="9.9068850" lon="-83.9649780">
        <ele>1445.7</ele>
        <time>2020-01-26T20:09:25Z</time>
      </trkpt>
      <trkpt lat="9.9069570" lon="-83.9650420">
        <ele>1445.2</ele>
        <time>2020-01-26T20:09:26Z</time>
      </trkpt>
      <trkpt lat="9.9070280" lon="-83.9651050">
        <ele>1444.6</ele>
        <time>2020-01-26T20:09:27Z</time>
      </trkpt>
      <trkpt lat="9.9071640" lon="-83.9652370">
        <ele>1443.7</ele>
        <time>2020-01-26T20:09:29Z</time>
      </trkpt>
      <trkpt lat="9.9072850" lon="-83.9653630">
        <ele>1442.6</ele>
        <time>2020-01-26T20:09:31Z</time>
      </trkpt>
      <trkpt lat="9.9073880" lon="-83.9654940">
        <ele>1442.2</ele>
        <time>2020-01-26T20:09:33Z</time>
      </trkpt>
      <trkpt lat="9.9074580" lon="-83.9656360">
        <ele>1441.9</ele>
        <time>2020-01-26T20:09:35Z</time>
      </trkpt>
      <trkpt lat="9.9074810" lon="-83.9657150">
        <ele>1441.8</ele>
        <time>2020-01-26T20:09:36Z</time>
      </trkpt>
      <trkpt lat="9.9075010" lon="-83.9657920">
        <ele>1441.6</ele>
        <time>2020-01-26T20:09:37Z</time>
      </trkpt>
      <trkpt lat="9.9075140" lon="-83.9658690">
        <ele>1441.5</ele>
        <time>2020-01-26T20:09:38Z</time>
      </trkpt>
      <trkpt lat="9.9075190" lon="-83.9659410">
        <ele>1441.3</ele>
        <time>2020-01-26T20:09:39Z</time>
      </trkpt>
      <trkpt lat="9.9075190" lon="-83.9660100">
        <ele>1441.1</ele>
        <time>2020-01-26T20:09:40Z</time>
      </trkpt>
      <trkpt lat="9.9075030" lon="-83.9661570">
        <ele>1440.7</ele>
        <time>2020-01-26T20:09:42Z</time>
      </trkpt>
      <trkpt lat="9.9074800" lon="-83.9662400">
        <ele>1440.2</ele>
        <time>2020-01-26T20:09:43Z</time>
      </trkpt>
      <trkpt lat="9.9074170" lon="-83.9664190">
        <ele>1439.3</ele>
        <time>2020-01-26T20:09:45Z</time>
      </trkpt>
      <trkpt lat="9.9073700" lon="-83.9665130">
        <ele>1438.8</ele>
        <time>2020-01-26T20:09:46Z</time>
      </trkpt>
      <trkpt lat="9.9073080" lon="-83.9666070">
        <ele>1438.0</ele>
        <time>2020-01-26T20:09:47Z</time>
      </trkpt>
      <trkpt lat="9.9072340" lon="-83.9666990">
        <ele>1437.1</ele>
        <time>2020-01-26T20:09:48Z</time>
      </trkpt>
      <trkpt lat="9.9070790" lon="-83.9668730">
        <ele>1435.1</ele>
        <time>2020-01-26T20:09:50Z</time>
      </trkpt>
      <trkpt lat="9.9069910" lon="-83.9669630">
        <ele>1434.3</ele>
        <time>2020-01-26T20:09:51Z</time>
      </trkpt>
      <trkpt lat="9.9069020" lon="-83.9670560">
        <ele>1433.5</ele>
        <time>2020-01-26T20:09:52Z</time>
      </trkpt>
      <trkpt lat="9.9066600" lon="-83.9673150">
        <ele>1431.0</ele>
        <time>2020-01-26T20:09:55Z</time>
      </trkpt>
      <trkpt lat="9.9065820" lon="-83.9673980">
        <ele>1430.2</ele>
        <time>2020-01-26T20:09:56Z</time>
      </trkpt>
      <trkpt lat="9.9064480" lon="-83.9675570">
        <ele>1428.7</ele>
        <time>2020-01-26T20:09:58Z</time>
      </trkpt>
      <trkpt lat="9.9063820" lon="-83.9676360">
        <ele>1428.0</ele>
        <time>2020-01-26T20:09:59Z</time>
      </trkpt>
      <trkpt lat="9.9062600" lon="-83.9677970">
        <ele>1426.5</ele>
        <time>2020-01-26T20:10:01Z</time>
      </trkpt>
      <trkpt lat="9.9062030" lon="-83.9678870">
        <ele>1425.7</ele>
        <time>2020-01-26T20:10:02Z</time>
      </trkpt>
      <trkpt lat="9.9061510" lon="-83.9679800">
        <ele>1425.0</ele>
        <time>2020-01-26T20:10:03Z</time>
      </trkpt>
      <trkpt lat="9.9060540" lon="-83.9681630">
        <ele>1423.4</ele>
        <time>2020-01-26T20:10:05Z</time>
      </trkpt>
      <trkpt lat="9.9060120" lon="-83.9682610">
        <ele>1422.7</ele>
        <time>2020-01-26T20:10:06Z</time>
      </trkpt>
      <trkpt lat="9.9059420" lon="-83.9684540">
        <ele>1421.2</ele>
        <time>2020-01-26T20:10:08Z</time>
      </trkpt>
      <trkpt lat="9.9059080" lon="-83.9685520">
        <ele>1420.6</ele>
        <time>2020-01-26T20:10:09Z</time>
      </trkpt>
      <trkpt lat="9.9058800" lon="-83.9686530">
        <ele>1420.0</ele>
        <time>2020-01-26T20:10:10Z</time>
      </trkpt>
      <trkpt lat="9.9058550" lon="-83.9687540">
        <ele>1419.5</ele>
        <time>2020-01-26T20:10:11Z</time>
      </trkpt>
      <trkpt lat="9.9058160" lon="-83.9689520">
        <ele>1418.4</ele>
        <time>2020-01-26T20:10:13Z</time>
      </trkpt>
      <trkpt lat="9.9058020" lon="-83.9690410">
        <ele>1417.8</ele>
        <time>2020-01-26T20:10:14Z</time>
      </trkpt>
      <trkpt lat="9.9057870" lon="-83.9692150">
        <ele>1416.6</ele>
        <time>2020-01-26T20:10:16Z</time>
      </trkpt>
      <trkpt lat="9.9057900" lon="-83.9693950">
        <ele>1415.2</ele>
        <time>2020-01-26T20:10:18Z</time>
      </trkpt>
      <trkpt lat="9.9057920" lon="-83.9694980">
        <ele>1414.4</ele>
        <time>2020-01-26T20:10:19Z</time>
      </trkpt>
      <trkpt lat="9.9057950" lon="-83.9695990">
        <ele>1413.7</ele>
        <time>2020-01-26T20:10:20Z</time>
      </trkpt>
      <trkpt lat="9.9058240" lon="-83.9698040">
        <ele>1411.1</ele>
        <time>2020-01-26T20:10:22Z</time>
      </trkpt>
      <trkpt lat="9.9058670" lon="-83.9700050">
        <ele>1408.5</ele>
        <time>2020-01-26T20:10:24Z</time>
      </trkpt>
      <trkpt lat="9.9058900" lon="-83.9701020">
        <ele>1407.1</ele>
        <time>2020-01-26T20:10:25Z</time>
      </trkpt>
      <trkpt lat="9.9059370" lon="-83.9702730">
        <ele>1404.6</ele>
        <time>2020-01-26T20:10:27Z</time>
      </trkpt>
      <trkpt lat="9.9059810" lon="-83.9704100">
        <ele>1402.5</ele>
        <time>2020-01-26T20:10:29Z</time>
      </trkpt>
      <trkpt lat="9.9060000" lon="-83.9704770">
        <ele>1401.6</ele>
        <time>2020-01-26T20:10:30Z</time>
      </trkpt>
      <trkpt lat="9.9060160" lon="-83.9705420">
        <ele>1400.6</ele>
        <time>2020-01-26T20:10:31Z</time>
      </trkpt>
      <trkpt lat="9.9060330" lon="-83.9706570">
        <ele>1399.0</ele>
        <time>2020-01-26T20:10:33Z</time>
      </trkpt>
      <trkpt lat="9.9060670" lon="-83.9707010">
        <ele>1398.2</ele>
        <time>2020-01-26T20:10:35Z</time>
      </trkpt>
      <trkpt lat="9.9060730" lon="-83.9707230">
        <ele>1397.9</ele>
        <time>2020-01-26T20:10:36Z</time>
      </trkpt>
      <trkpt lat="9.9060730" lon="-83.9707330">
        <ele>1397.7</ele>
        <time>2020-01-26T20:10:37Z</time>
      </trkpt>
      <trkpt lat="9.9060740" lon="-83.9707440">
        <ele>1397.6</ele>
        <time>2020-01-26T20:10:39Z</time>
      </trkpt>
      <trkpt lat="9.9060740" lon="-83.9707550">
        <ele>1397.4</ele>
        <time>2020-01-26T20:10:40Z</time>
      </trkpt>
      <trkpt lat="9.9060750" lon="-83.9707650">
        <ele>1397.3</ele>
        <time>2020-01-26T20:10:42Z</time>
      </trkpt>
      <trkpt lat="9.9060750" lon="-83.9707760">
        <ele>1397.1</ele>
        <time>2020-01-26T20:10:43Z</time>
      </trkpt>
      <trkpt lat="9.9060810" lon="-83.9708350">
        <ele>1396.2</ele>
        <time>2020-01-26T20:10:44Z</time>
      </trkpt>
      <trkpt lat="9.9060870" lon="-83.9708870">
        <ele>1395.6</ele>
        <time>2020-01-26T20:10:45Z</time>
      </trkpt>
      <trkpt lat="9.9060920" lon="-83.9709420">
        <ele>1395.1</ele>
        <time>2020-01-26T20:10:46Z</time>
      </trkpt>
      <trkpt lat="9.9061000" lon="-83.9709990">
        <ele>1394.6</ele>
        <time>2020-01-26T20:10:47Z</time>
      </trkpt>
      <trkpt lat="9.9061120" lon="-83.9710600">
        <ele>1394.2</ele>
        <time>2020-01-26T20:10:48Z</time>
      </trkpt>
      <trkpt lat="9.9061250" lon="-83.9711940">
        <ele>1393.4</ele>
        <time>2020-01-26T20:10:50Z</time>
      </trkpt>
      <trkpt lat="9.9061270" lon="-83.9712620">
        <ele>1392.8</ele>
        <time>2020-01-26T20:10:51Z</time>
      </trkpt>
      <trkpt lat="9.9061290" lon="-83.9713840">
        <ele>1391.7</ele>
        <time>2020-01-26T20:10:53Z</time>
      </trkpt>
      <trkpt lat="9.9061320" lon="-83.9715100">
        <ele>1390.4</ele>
        <time>2020-01-26T20:10:55Z</time>
      </trkpt>
      <trkpt lat="9.9061350" lon="-83.9715820">
        <ele>1389.7</ele>
        <time>2020-01-26T20:10:56Z</time>
      </trkpt>
      <trkpt lat="9.9061390" lon="-83.9717360">
        <ele>1388.4</ele>
        <time>2020-01-26T20:10:58Z</time>
      </trkpt>
      <trkpt lat="9.9061420" lon="-83.9718080">
        <ele>1387.9</ele>
        <time>2020-01-26T20:10:59Z</time>
      </trkpt>
      <trkpt lat="9.9061460" lon="-83.9719430">
        <ele>1387.1</ele>
        <time>2020-01-26T20:11:01Z</time>
      </trkpt>
      <trkpt lat="9.9061500" lon="-83.9720170">
        <ele>1386.8</ele>
        <time>2020-01-26T20:11:02Z</time>
      </trkpt>
      <trkpt lat="9.9061540" lon="-83.9720980">
        <ele>1386.4</ele>
        <time>2020-01-26T20:11:03Z</time>
      </trkpt>
      <trkpt lat="9.9061580" lon="-83.9721790">
        <ele>1385.9</ele>
        <time>2020-01-26T20:11:04Z</time>
      </trkpt>
      <trkpt lat="9.9061730" lon="-83.9723420">
        <ele>1385.0</ele>
        <time>2020-01-26T20:11:06Z</time>
      </trkpt>
      <trkpt lat="9.9062100" lon="-83.9725040">
        <ele>1383.9</ele>
        <time>2020-01-26T20:11:08Z</time>
      </trkpt>
      <trkpt lat="9.9062350" lon="-83.9725830">
        <ele>1383.3</ele>
        <time>2020-01-26T20:11:09Z</time>
      </trkpt>
      <trkpt lat="9.9062650" lon="-83.9726630">
        <ele>1382.7</ele>
        <time>2020-01-26T20:11:10Z</time>
      </trkpt>
      <trkpt lat="9.9063450" lon="-83.9728040">
        <ele>1381.5</ele>
        <time>2020-01-26T20:11:12Z</time>
      </trkpt>
      <trkpt lat="9.9063920" lon="-83.9728710">
        <ele>1381.0</ele>
        <time>2020-01-26T20:11:13Z</time>
      </trkpt>
      <trkpt lat="9.9064660" lon="-83.9729660">
        <ele>1380.5</ele>
        <time>2020-01-26T20:11:15Z</time>
      </trkpt>
      <trkpt lat="9.9064980" lon="-83.9730010">
        <ele>1380.4</ele>
        <time>2020-01-26T20:11:17Z</time>
      </trkpt>
      <trkpt lat="9.9065400" lon="-83.9730630">
        <ele>1380.4</ele>
        <time>2020-01-26T20:11:19Z</time>
      </trkpt>
      <trkpt lat="9.9066040" lon="-83.9731370">
        <ele>1380.5</ele>
        <time>2020-01-26T20:11:21Z</time>
      </trkpt>
      <trkpt lat="9.9066420" lon="-83.9731750">
        <ele>1380.6</ele>
        <time>2020-01-26T20:11:22Z</time>
      </trkpt>
      <trkpt lat="9.9067190" lon="-83.9732550">
        <ele>1379.7</ele>
        <time>2020-01-26T20:11:24Z</time>
      </trkpt>
      <trkpt lat="9.9067920" lon="-83.9733280">
        <ele>1378.8</ele>
        <time>2020-01-26T20:11:26Z</time>
      </trkpt>
      <trkpt lat="9.9068920" lon="-83.9734000">
        <ele>1378.0</ele>
        <time>2020-01-26T20:11:28Z</time>
      </trkpt>
      <trkpt lat="9.9070050" lon="-83.9734770">
        <ele>1377.2</ele>
        <time>2020-01-26T20:11:30Z</time>
      </trkpt>
      <trkpt lat="9.9070670" lon="-83.9735250">
        <ele>1376.9</ele>
        <time>2020-01-26T20:11:31Z</time>
      </trkpt>
      <trkpt lat="9.9071360" lon="-83.9735680">
        <ele>1376.6</ele>
        <time>2020-01-26T20:11:32Z</time>
      </trkpt>
      <trkpt lat="9.9072110" lon="-83.9736080">
        <ele>1376.2</ele>
        <time>2020-01-26T20:11:33Z</time>
      </trkpt>
      <trkpt lat="9.9072860" lon="-83.9736490">
        <ele>1375.8</ele>
        <time>2020-01-26T20:11:34Z</time>
      </trkpt>
      <trkpt lat="9.9073590" lon="-83.9736900">
        <ele>1375.5</ele>
        <time>2020-01-26T20:11:35Z</time>
      </trkpt>
      <trkpt lat="9.9074310" lon="-83.9737320">
        <ele>1375.2</ele>
        <time>2020-01-26T20:11:36Z</time>
      </trkpt>
      <trkpt lat="9.9075030" lon="-83.9737780">
        <ele>1374.8</ele>
        <time>2020-01-26T20:11:37Z</time>
      </trkpt>
      <trkpt lat="9.9075720" lon="-83.9738290">
        <ele>1374.5</ele>
        <time>2020-01-26T20:11:38Z</time>
      </trkpt>
      <trkpt lat="9.9077050" lon="-83.9739580">
        <ele>1373.7</ele>
        <time>2020-01-26T20:11:40Z</time>
      </trkpt>
      <trkpt lat="9.9078550" lon="-83.9741080">
        <ele>1372.8</ele>
        <time>2020-01-26T20:11:42Z</time>
      </trkpt>
      <trkpt lat="9.9080020" lon="-83.9742880">
        <ele>1371.8</ele>
        <time>2020-01-26T20:11:44Z</time>
      </trkpt>
      <trkpt lat="9.9080700" lon="-83.9743850">
        <ele>1371.3</ele>
        <time>2020-01-26T20:11:45Z</time>
      </trkpt>
      <trkpt lat="9.9081820" lon="-83.9745880">
        <ele>1370.8</ele>
        <time>2020-01-26T20:11:47Z</time>
      </trkpt>
      <trkpt lat="9.9082320" lon="-83.9746930">
        <ele>1370.5</ele>
        <time>2020-01-26T20:11:48Z</time>
      </trkpt>
      <trkpt lat="9.9083070" lon="-83.9749060">
        <ele>1369.2</ele>
        <time>2020-01-26T20:11:50Z</time>
      </trkpt>
      <trkpt lat="9.9083560" lon="-83.9751240">
        <ele>1367.9</ele>
        <time>2020-01-26T20:11:52Z</time>
      </trkpt>
      <trkpt lat="9.9083730" lon="-83.9752390">
        <ele>1367.2</ele>
        <time>2020-01-26T20:11:53Z</time>
      </trkpt>
      <trkpt lat="9.9083820" lon="-83.9754500">
        <ele>1366.1</ele>
        <time>2020-01-26T20:11:55Z</time>
      </trkpt>
      <trkpt lat="9.9083720" lon="-83.9756640">
        <ele>1364.6</ele>
        <time>2020-01-26T20:11:57Z</time>
      </trkpt>
      <trkpt lat="9.9083630" lon="-83.9757720">
        <ele>1364.0</ele>
        <time>2020-01-26T20:11:58Z</time>
      </trkpt>
      <trkpt lat="9.9083250" lon="-83.9759820">
        <ele>1362.9</ele>
        <time>2020-01-26T20:12:00Z</time>
      </trkpt>
      <trkpt lat="9.9082960" lon="-83.9761930">
        <ele>1361.7</ele>
        <time>2020-01-26T20:12:02Z</time>
      </trkpt>
      <trkpt lat="9.9082640" lon="-83.9764060">
        <ele>1360.8</ele>
        <time>2020-01-26T20:12:04Z</time>
      </trkpt>
      <trkpt lat="9.9082470" lon="-83.9765120">
        <ele>1360.0</ele>
        <time>2020-01-26T20:12:05Z</time>
      </trkpt>
      <trkpt lat="9.9082280" lon="-83.9766210">
        <ele>1359.3</ele>
        <time>2020-01-26T20:12:06Z</time>
      </trkpt>
      <trkpt lat="9.9081970" lon="-83.9768310">
        <ele>1358.4</ele>
        <time>2020-01-26T20:12:08Z</time>
      </trkpt>
      <trkpt lat="9.9081830" lon="-83.9769340">
        <ele>1358.1</ele>
        <time>2020-01-26T20:12:09Z</time>
      </trkpt>
      <trkpt lat="9.9081550" lon="-83.9771290">
        <ele>1357.5</ele>
        <time>2020-01-26T20:12:11Z</time>
      </trkpt>
      <trkpt lat="9.9081370" lon="-83.9773280">
        <ele>1357.4</ele>
        <time>2020-01-26T20:12:13Z</time>
      </trkpt>
      <trkpt lat="9.9081280" lon="-83.9774270">
        <ele>1357.3</ele>
        <time>2020-01-26T20:12:14Z</time>
      </trkpt>
      <trkpt lat="9.9081120" lon="-83.9775250">
        <ele>1357.2</ele>
        <time>2020-01-26T20:12:15Z</time>
      </trkpt>
      <trkpt lat="9.9080830" lon="-83.9777270">
        <ele>1357.1</ele>
        <time>2020-01-26T20:12:17Z</time>
      </trkpt>
      <trkpt lat="9.9080520" lon="-83.9779370">
        <ele>1356.8</ele>
        <time>2020-01-26T20:12:19Z</time>
      </trkpt>
      <trkpt lat="9.9080360" lon="-83.9780440">
        <ele>1356.5</ele>
        <time>2020-01-26T20:12:20Z</time>
      </trkpt>
      <trkpt lat="9.9080060" lon="-83.9782530">
        <ele>1356.0</ele>
        <time>2020-01-26T20:12:22Z</time>
      </trkpt>
      <trkpt lat="9.9079830" lon="-83.9784570">
        <ele>1355.9</ele>
        <time>2020-01-26T20:12:24Z</time>
      </trkpt>
      <trkpt lat="9.9079540" lon="-83.9786670">
        <ele>1356.2</ele>
        <time>2020-01-26T20:12:26Z</time>
      </trkpt>
      <trkpt lat="9.9079300" lon="-83.9788850">
        <ele>1357.3</ele>
        <time>2020-01-26T20:12:28Z</time>
      </trkpt>
      <trkpt lat="9.9078940" lon="-83.9790860">
        <ele>1356.1</ele>
        <time>2020-01-26T20:12:30Z</time>
      </trkpt>
      <trkpt lat="9.9078800" lon="-83.9791920">
        <ele>1355.7</ele>
        <time>2020-01-26T20:12:31Z</time>
      </trkpt>
      <trkpt lat="9.9078520" lon="-83.9793970">
        <ele>1355.3</ele>
        <time>2020-01-26T20:12:33Z</time>
      </trkpt>
      <trkpt lat="9.9078360" lon="-83.9794970">
        <ele>1355.2</ele>
        <time>2020-01-26T20:12:34Z</time>
      </trkpt>
      <trkpt lat="9.9078150" lon="-83.9796920">
        <ele>1354.7</ele>
        <time>2020-01-26T20:12:36Z</time>
      </trkpt>
      <trkpt lat="9.9078030" lon="-83.9797810">
        <ele>1354.3</ele>
        <time>2020-01-26T20:12:37Z</time>
      </trkpt>
      <trkpt lat="9.9077740" lon="-83.9799600">
        <ele>1353.2</ele>
        <time>2020-01-26T20:12:39Z</time>
      </trkpt>
      <trkpt lat="9.9077410" lon="-83.9801440">
        <ele>1352.9</ele>
        <time>2020-01-26T20:12:41Z</time>
      </trkpt>
      <trkpt lat="9.9077330" lon="-83.9802380">
        <ele>1352.7</ele>
        <time>2020-01-26T20:12:42Z</time>
      </trkpt>
      <trkpt lat="9.9077020" lon="-83.9804270">
        <ele>1352.1</ele>
        <time>2020-01-26T20:12:44Z</time>
      </trkpt>
      <trkpt lat="9.9076870" lon="-83.9805210">
        <ele>1351.8</ele>
        <time>2020-01-26T20:12:45Z</time>
      </trkpt>
      <trkpt lat="9.9076610" lon="-83.9807030">
        <ele>1351.5</ele>
        <time>2020-01-26T20:12:47Z</time>
      </trkpt>
      <trkpt lat="9.9076540" lon="-83.9807910">
        <ele>1351.3</ele>
        <time>2020-01-26T20:12:48Z</time>
      </trkpt>
      <trkpt lat="9.9076490" lon="-83.9808800">
        <ele>1351.2</ele>
        <time>2020-01-26T20:12:49Z</time>
      </trkpt>
      <trkpt lat="9.9076390" lon="-83.9809680">
        <ele>1351.2</ele>
        <time>2020-01-26T20:12:50Z</time>
      </trkpt>
      <trkpt lat="9.9076240" lon="-83.9810590">
        <ele>1351.2</ele>
        <time>2020-01-26T20:12:51Z</time>
      </trkpt>
      <trkpt lat="9.9076100" lon="-83.9811510">
        <ele>1351.1</ele>
        <time>2020-01-26T20:12:52Z</time>
      </trkpt>
      <trkpt lat="9.9075970" lon="-83.9812430">
        <ele>1350.7</ele>
        <time>2020-01-26T20:12:53Z</time>
      </trkpt>
      <trkpt lat="9.9075720" lon="-83.9814240">
        <ele>1349.9</ele>
        <time>2020-01-26T20:12:55Z</time>
      </trkpt>
      <trkpt lat="9.9075550" lon="-83.9815090">
        <ele>1349.6</ele>
        <time>2020-01-26T20:12:56Z</time>
      </trkpt>
      <trkpt lat="9.9075310" lon="-83.9816900">
        <ele>1348.7</ele>
        <time>2020-01-26T20:12:58Z</time>
      </trkpt>
      <trkpt lat="9.9075220" lon="-83.9817830">
        <ele>1348.3</ele>
        <time>2020-01-26T20:12:59Z</time>
      </trkpt>
      <trkpt lat="9.9075160" lon="-83.9818760">
        <ele>1348.2</ele>
        <time>2020-01-26T20:13:00Z</time>
      </trkpt>
      <trkpt lat="9.9075110" lon="-83.9820660">
        <ele>1349.1</ele>
        <time>2020-01-26T20:13:02Z</time>
      </trkpt>
      <trkpt lat="9.9075090" lon="-83.9821610">
        <ele>1349.7</ele>
        <time>2020-01-26T20:13:03Z</time>
      </trkpt>
      <trkpt lat="9.9075170" lon="-83.9823470">
        <ele>1350.2</ele>
        <time>2020-01-26T20:13:05Z</time>
      </trkpt>
      <trkpt lat="9.9075390" lon="-83.9825390">
        <ele>1350.1</ele>
        <time>2020-01-26T20:13:07Z</time>
      </trkpt>
      <trkpt lat="9.9075540" lon="-83.9826340">
        <ele>1350.5</ele>
        <time>2020-01-26T20:13:08Z</time>
      </trkpt>
      <trkpt lat="9.9075730" lon="-83.9827290">
        <ele>1350.9</ele>
        <time>2020-01-26T20:13:09Z</time>
      </trkpt>
      <trkpt lat="9.9076200" lon="-83.9829090">
        <ele>1350.9</ele>
        <time>2020-01-26T20:13:11Z</time>
      </trkpt>
      <trkpt lat="9.9076330" lon="-83.9829970">
        <ele>1350.8</ele>
        <time>2020-01-26T20:13:12Z</time>
      </trkpt>
      <trkpt lat="9.9076630" lon="-83.9831750">
        <ele>1350.4</ele>
        <time>2020-01-26T20:13:14Z</time>
      </trkpt>
      <trkpt lat="9.9077020" lon="-83.9833500">
        <ele>1350.1</ele>
        <time>2020-01-26T20:13:16Z</time>
      </trkpt>
      <trkpt lat="9.9077200" lon="-83.9834310">
        <ele>1349.8</ele>
        <time>2020-01-26T20:13:17Z</time>
      </trkpt>
      <trkpt lat="9.9077560" lon="-83.9835930">
        <ele>1349.0</ele>
        <time>2020-01-26T20:13:19Z</time>
      </trkpt>
      <trkpt lat="9.9077750" lon="-83.9836710">
        <ele>1348.8</ele>
        <time>2020-01-26T20:13:20Z</time>
      </trkpt>
      <trkpt lat="9.9078100" lon="-83.9838070">
        <ele>1348.4</ele>
        <time>2020-01-26T20:13:22Z</time>
      </trkpt>
      <trkpt lat="9.9078370" lon="-83.9839330">
        <ele>1348.0</ele>
        <time>2020-01-26T20:13:24Z</time>
      </trkpt>
      <trkpt lat="9.9078600" lon="-83.9840330">
        <ele>1347.8</ele>
        <time>2020-01-26T20:13:26Z</time>
      </trkpt>
      <trkpt lat="9.9078670" lon="-83.9840700">
        <ele>1347.8</ele>
        <time>2020-01-26T20:13:27Z</time>
      </trkpt>
      <trkpt lat="9.9078830" lon="-83.9841120">
        <ele>1347.8</ele>
        <time>2020-01-26T20:13:28Z</time>
      </trkpt>
      <trkpt lat="9.9079010" lon="-83.9841720">
        <ele>1347.9</ele>
        <time>2020-01-26T20:13:30Z</time>
      </trkpt>
      <trkpt lat="9.9079050" lon="-83.9842040">
        <ele>1347.9</ele>
        <time>2020-01-26T20:13:31Z</time>
      </trkpt>
      <trkpt lat="9.9079060" lon="-83.9842140">
        <ele>1348.0</ele>
        <time>2020-01-26T20:13:32Z</time>
      </trkpt>
      <trkpt lat="9.9079230" lon="-83.9842500">
        <ele>1348.2</ele>
        <time>2020-01-26T20:13:34Z</time>
      </trkpt>
      <trkpt lat="9.9079480" lon="-83.9842610">
        <ele>1348.3</ele>
        <time>2020-01-26T20:13:35Z</time>
      </trkpt>
      <trkpt lat="9.9079900" lon="-83.9842670">
        <ele>1349.2</ele>
        <time>2020-01-26T20:13:37Z</time>
      </trkpt>
      <trkpt lat="9.9080770" lon="-83.9842620">
        <ele>1349.8</ele>
        <time>2020-01-26T20:13:38Z</time>
      </trkpt>
      <trkpt lat="9.9081360" lon="-83.9842550">
        <ele>1350.2</ele>
        <time>2020-01-26T20:13:39Z</time>
      </trkpt>
      <trkpt lat="9.9081990" lon="-83.9842530">
        <ele>1350.6</ele>
        <time>2020-01-26T20:13:40Z</time>
      </trkpt>
      <trkpt lat="9.9083000" lon="-83.9842320">
        <ele>1351.2</ele>
        <time>2020-01-26T20:13:42Z</time>
      </trkpt>
      <trkpt lat="9.9083490" lon="-83.9842190">
        <ele>1351.5</ele>
        <time>2020-01-26T20:13:43Z</time>
      </trkpt>
      <trkpt lat="9.9084400" lon="-83.9841920">
        <ele>1351.9</ele>
        <time>2020-01-26T20:13:45Z</time>
      </trkpt>
      <trkpt lat="9.9084860" lon="-83.9841850">
        <ele>1352.0</ele>
        <time>2020-01-26T20:13:46Z</time>
      </trkpt>
      <trkpt lat="9.9085770" lon="-83.9841610">
        <ele>1352.4</ele>
        <time>2020-01-26T20:13:48Z</time>
      </trkpt>
      <trkpt lat="9.9086250" lon="-83.9841600">
        <ele>1352.5</ele>
        <time>2020-01-26T20:13:49Z</time>
      </trkpt>
      <trkpt lat="9.9086710" lon="-83.9841800">
        <ele>1352.6</ele>
        <time>2020-01-26T20:13:50Z</time>
      </trkpt>
      <trkpt lat="9.9087110" lon="-83.9842190">
        <ele>1352.6</ele>
        <time>2020-01-26T20:13:51Z</time>
      </trkpt>
      <trkpt lat="9.9087670" lon="-83.9843140">
        <ele>1352.6</ele>
        <time>2020-01-26T20:13:53Z</time>
      </trkpt>
      <trkpt lat="9.9087810" lon="-83.9844270">
        <ele>1352.6</ele>
        <time>2020-01-26T20:13:55Z</time>
      </trkpt>
      <trkpt lat="9.9087920" lon="-83.9844850">
        <ele>1352.6</ele>
        <time>2020-01-26T20:13:56Z</time>
      </trkpt>
      <trkpt lat="9.9088050" lon="-83.9845930">
        <ele>1352.4</ele>
        <time>2020-01-26T20:13:58Z</time>
      </trkpt>
      <trkpt lat="9.9088260" lon="-83.9847120">
        <ele>1352.3</ele>
        <time>2020-01-26T20:14:00Z</time>
      </trkpt>
      <trkpt lat="9.9088490" lon="-83.9847680">
        <ele>1352.2</ele>
        <time>2020-01-26T20:14:01Z</time>
      </trkpt>
      <trkpt lat="9.9088710" lon="-83.9848120">
        <ele>1352.1</ele>
        <time>2020-01-26T20:14:02Z</time>
      </trkpt>
      <trkpt lat="9.9089070" lon="-83.9848840">
        <ele>1352.0</ele>
        <time>2020-01-26T20:14:04Z</time>
      </trkpt>
      <trkpt lat="9.9089220" lon="-83.9850010">
        <ele>1351.8</ele>
        <time>2020-01-26T20:14:06Z</time>
      </trkpt>
      <trkpt lat="9.9089480" lon="-83.9851560">
        <ele>1351.6</ele>
        <time>2020-01-26T20:14:08Z</time>
      </trkpt>
      <trkpt lat="9.9089670" lon="-83.9852370">
        <ele>1351.5</ele>
        <time>2020-01-26T20:14:09Z</time>
      </trkpt>
      <trkpt lat="9.9090040" lon="-83.9854050">
        <ele>1351.0</ele>
        <time>2020-01-26T20:14:11Z</time>
      </trkpt>
      <trkpt lat="9.9090240" lon="-83.9854930">
        <ele>1350.7</ele>
        <time>2020-01-26T20:14:12Z</time>
      </trkpt>
      <trkpt lat="9.9090450" lon="-83.9855750">
        <ele>1350.4</ele>
        <time>2020-01-26T20:14:13Z</time>
      </trkpt>
      <trkpt lat="9.9090640" lon="-83.9856530">
        <ele>1349.8</ele>
        <time>2020-01-26T20:14:14Z</time>
      </trkpt>
      <trkpt lat="9.9090820" lon="-83.9857310">
        <ele>1349.4</ele>
        <time>2020-01-26T20:14:15Z</time>
      </trkpt>
      <trkpt lat="9.9091190" lon="-83.9858960">
        <ele>1348.8</ele>
        <time>2020-01-26T20:14:17Z</time>
      </trkpt>
      <trkpt lat="9.9091540" lon="-83.9860660">
        <ele>1347.8</ele>
        <time>2020-01-26T20:14:19Z</time>
      </trkpt>
      <trkpt lat="9.9091680" lon="-83.9861370">
        <ele>1347.5</ele>
        <time>2020-01-26T20:14:20Z</time>
      </trkpt>
      <trkpt lat="9.9091990" lon="-83.9862780">
        <ele>1346.9</ele>
        <time>2020-01-26T20:14:22Z</time>
      </trkpt>
      <trkpt lat="9.9092240" lon="-83.9864030">
        <ele>1346.5</ele>
        <time>2020-01-26T20:14:24Z</time>
      </trkpt>
      <trkpt lat="9.9092350" lon="-83.9864510">
        <ele>1346.3</ele>
        <time>2020-01-26T20:14:25Z</time>
      </trkpt>
      <trkpt lat="9.9092490" lon="-83.9864870">
        <ele>1346.1</ele>
        <time>2020-01-26T20:14:26Z</time>
      </trkpt>
      <trkpt lat="9.9092710" lon="-83.9865360">
        <ele>1345.9</ele>
        <time>2020-01-26T20:14:28Z</time>
      </trkpt>
      <trkpt lat="9.9092690" lon="-83.9866070">
        <ele>1345.5</ele>
        <time>2020-01-26T20:14:30Z</time>
      </trkpt>
      <trkpt lat="9.9092700" lon="-83.9866960">
        <ele>1345.5</ele>
        <time>2020-01-26T20:14:32Z</time>
      </trkpt>
      <trkpt lat="9.9092830" lon="-83.9867490">
        <ele>1345.5</ele>
        <time>2020-01-26T20:14:33Z</time>
      </trkpt>
      <trkpt lat="9.9093070" lon="-83.9868570">
        <ele>1345.5</ele>
        <time>2020-01-26T20:14:35Z</time>
      </trkpt>
      <trkpt lat="9.9093180" lon="-83.9869180">
        <ele>1345.5</ele>
        <time>2020-01-26T20:14:36Z</time>
      </trkpt>
      <trkpt lat="9.9093340" lon="-83.9869800">
        <ele>1345.5</ele>
        <time>2020-01-26T20:14:37Z</time>
      </trkpt>
      <trkpt lat="9.9093610" lon="-83.9871070">
        <ele>1345.6</ele>
        <time>2020-01-26T20:14:39Z</time>
      </trkpt>
      <trkpt lat="9.9094030" lon="-83.9872430">
        <ele>1345.6</ele>
        <time>2020-01-26T20:14:41Z</time>
      </trkpt>
      <trkpt lat="9.9094330" lon="-83.9873860">
        <ele>1345.8</ele>
        <time>2020-01-26T20:14:43Z</time>
      </trkpt>
      <trkpt lat="9.9094580" lon="-83.9875390">
        <ele>1346.1</ele>
        <time>2020-01-26T20:14:45Z</time>
      </trkpt>
      <trkpt lat="9.9094920" lon="-83.9876980">
        <ele>1346.5</ele>
        <time>2020-01-26T20:14:47Z</time>
      </trkpt>
      <trkpt lat="9.9095250" lon="-83.9878600">
        <ele>1346.7</ele>
        <time>2020-01-26T20:14:49Z</time>
      </trkpt>
      <trkpt lat="9.9095490" lon="-83.9879400">
        <ele>1346.8</ele>
        <time>2020-01-26T20:14:50Z</time>
      </trkpt>
      <trkpt lat="9.9095890" lon="-83.9881020">
        <ele>1347.2</ele>
        <time>2020-01-26T20:14:52Z</time>
      </trkpt>
      <trkpt lat="9.9096160" lon="-83.9882590">
        <ele>1347.3</ele>
        <time>2020-01-26T20:14:54Z</time>
      </trkpt>
      <trkpt lat="9.9096060" lon="-83.9884190">
        <ele>1346.8</ele>
        <time>2020-01-26T20:14:56Z</time>
      </trkpt>
      <trkpt lat="9.9095800" lon="-83.9885960">
        <ele>1345.9</ele>
        <time>2020-01-26T20:14:58Z</time>
      </trkpt>
      <trkpt lat="9.9095610" lon="-83.9886880">
        <ele>1345.6</ele>
        <time>2020-01-26T20:14:59Z</time>
      </trkpt>
      <trkpt lat="9.9095330" lon="-83.9888640">
        <ele>1344.9</ele>
        <time>2020-01-26T20:15:01Z</time>
      </trkpt>
      <trkpt lat="9.9095120" lon="-83.9890200">
        <ele>1344.2</ele>
        <time>2020-01-26T20:15:03Z</time>
      </trkpt>
      <trkpt lat="9.9094400" lon="-83.9891240">
        <ele>1342.8</ele>
        <time>2020-01-26T20:15:05Z</time>
      </trkpt>
      <trkpt lat="9.9093880" lon="-83.9891580">
        <ele>1342.0</ele>
        <time>2020-01-26T20:15:06Z</time>
      </trkpt>
      <trkpt lat="9.9092960" lon="-83.9891880">
        <ele>1340.6</ele>
        <time>2020-01-26T20:15:08Z</time>
      </trkpt>
      <trkpt lat="9.9092340" lon="-83.9891960">
        <ele>1339.9</ele>
        <time>2020-01-26T20:15:10Z</time>
      </trkpt>
      <trkpt lat="9.9091700" lon="-83.9892070">
        <ele>1339.2</ele>
        <time>2020-01-26T20:15:12Z</time>
      </trkpt>
      <trkpt lat="9.9091420" lon="-83.9892170">
        <ele>1338.9</ele>
        <time>2020-01-26T20:15:13Z</time>
      </trkpt>
      <trkpt lat="9.9091200" lon="-83.9892250">
        <ele>1338.7</ele>
        <time>2020-01-26T20:15:14Z</time>
      </trkpt>
      <trkpt lat="9.9090920" lon="-83.9892200">
        <ele>1338.5</ele>
        <time>2020-01-26T20:15:16Z</time>
      </trkpt>
      <trkpt lat="9.9090540" lon="-83.9892300">
        <ele>1338.1</ele>
        <time>2020-01-26T20:15:17Z</time>
      </trkpt>
      <trkpt lat="9.9090050" lon="-83.9892410">
        <ele>1337.6</ele>
        <time>2020-01-26T20:15:19Z</time>
      </trkpt>
      <trkpt lat="9.9089750" lon="-83.9892590">
        <ele>1336.6</ele>
        <time>2020-01-26T20:15:20Z</time>
      </trkpt>
      <trkpt lat="9.9089630" lon="-83.9892660">
        <ele>1336.5</ele>
        <time>2020-01-26T20:15:21Z</time>
      </trkpt>
      <trkpt lat="9.9089420" lon="-83.9893040">
        <ele>1336.1</ele>
        <time>2020-01-26T20:15:22Z</time>
      </trkpt>
      <trkpt lat="9.9089340" lon="-83.9893300">
        <ele>1336.0</ele>
        <time>2020-01-26T20:15:23Z</time>
      </trkpt>
      <trkpt lat="9.9089890" lon="-83.9894940">
        <ele>1335.2</ele>
        <time>2020-01-26T20:15:26Z</time>
      </trkpt>
      <trkpt lat="9.9090000" lon="-83.9896420">
        <ele>1334.7</ele>
        <time>2020-01-26T20:15:28Z</time>
      </trkpt>
      <trkpt lat="9.9090040" lon="-83.9897280">
        <ele>1334.5</ele>
        <time>2020-01-26T20:15:29Z</time>
      </trkpt>
      <trkpt lat="9.9090130" lon="-83.9899080">
        <ele>1333.9</ele>
        <time>2020-01-26T20:15:31Z</time>
      </trkpt>
      <trkpt lat="9.9090150" lon="-83.9899970">
        <ele>1333.6</ele>
        <time>2020-01-26T20:15:32Z</time>
      </trkpt>
      <trkpt lat="9.9090130" lon="-83.9901790">
        <ele>1333.0</ele>
        <time>2020-01-26T20:15:34Z</time>
      </trkpt>
      <trkpt lat="9.9090130" lon="-83.9902690">
        <ele>1332.8</ele>
        <time>2020-01-26T20:15:35Z</time>
      </trkpt>
      <trkpt lat="9.9090170" lon="-83.9904600">
        <ele>1332.6</ele>
        <time>2020-01-26T20:15:37Z</time>
      </trkpt>
      <trkpt lat="9.9090160" lon="-83.9905590">
        <ele>1332.5</ele>
        <time>2020-01-26T20:15:38Z</time>
      </trkpt>
      <trkpt lat="9.9090180" lon="-83.9906560">
        <ele>1332.4</ele>
        <time>2020-01-26T20:15:39Z</time>
      </trkpt>
      <trkpt lat="9.9090160" lon="-83.9907520">
        <ele>1332.4</ele>
        <time>2020-01-26T20:15:40Z</time>
      </trkpt>
      <trkpt lat="9.9090050" lon="-83.9909390">
        <ele>1332.6</ele>
        <time>2020-01-26T20:15:42Z</time>
      </trkpt>
      <trkpt lat="9.9090030" lon="-83.9911250">
        <ele>1332.7</ele>
        <time>2020-01-26T20:15:44Z</time>
      </trkpt>
      <trkpt lat="9.9090080" lon="-83.9912170">
        <ele>1333.0</ele>
        <time>2020-01-26T20:15:45Z</time>
      </trkpt>
      <trkpt lat="9.9090130" lon="-83.9913090">
        <ele>1333.6</ele>
        <time>2020-01-26T20:15:46Z</time>
      </trkpt>
      <trkpt lat="9.9090110" lon="-83.9913980">
        <ele>1333.9</ele>
        <time>2020-01-26T20:15:47Z</time>
      </trkpt>
      <trkpt lat="9.9090110" lon="-83.9914850">
        <ele>1334.3</ele>
        <time>2020-01-26T20:15:48Z</time>
      </trkpt>
      <trkpt lat="9.9090120" lon="-83.9916530">
        <ele>1335.2</ele>
        <time>2020-01-26T20:15:50Z</time>
      </trkpt>
      <trkpt lat="9.9090170" lon="-83.9918220">
        <ele>1335.9</ele>
        <time>2020-01-26T20:15:52Z</time>
      </trkpt>
      <trkpt lat="9.9090180" lon="-83.9919840">
        <ele>1336.6</ele>
        <time>2020-01-26T20:15:54Z</time>
      </trkpt>
      <trkpt lat="9.9090170" lon="-83.9921350">
        <ele>1337.1</ele>
        <time>2020-01-26T20:15:56Z</time>
      </trkpt>
      <trkpt lat="9.9090170" lon="-83.9922750">
        <ele>1337.8</ele>
        <time>2020-01-26T20:15:58Z</time>
      </trkpt>
      <trkpt lat="9.9090160" lon="-83.9923430">
        <ele>1338.2</ele>
        <time>2020-01-26T20:15:59Z</time>
      </trkpt>
      <trkpt lat="9.9090190" lon="-83.9924790">
        <ele>1339.1</ele>
        <time>2020-01-26T20:16:01Z</time>
      </trkpt>
      <trkpt lat="9.9090190" lon="-83.9925450">
        <ele>1339.5</ele>
        <time>2020-01-26T20:16:02Z</time>
      </trkpt>
      <trkpt lat="9.9090160" lon="-83.9926070">
        <ele>1339.8</ele>
        <time>2020-01-26T20:16:03Z</time>
      </trkpt>
      <trkpt lat="9.9090140" lon="-83.9927290">
        <ele>1340.1</ele>
        <time>2020-01-26T20:16:05Z</time>
      </trkpt>
      <trkpt lat="9.9090150" lon="-83.9928510">
        <ele>1340.1</ele>
        <time>2020-01-26T20:16:07Z</time>
      </trkpt>
      <trkpt lat="9.9090110" lon="-83.9929110">
        <ele>1340.1</ele>
        <time>2020-01-26T20:16:08Z</time>
      </trkpt>
      <trkpt lat="9.9090110" lon="-83.9929710">
        <ele>1340.1</ele>
        <time>2020-01-26T20:16:09Z</time>
      </trkpt>
      <trkpt lat="9.9090110" lon="-83.9930870">
        <ele>1340.2</ele>
        <time>2020-01-26T20:16:11Z</time>
      </trkpt>
      <trkpt lat="9.9090130" lon="-83.9931960">
        <ele>1340.3</ele>
        <time>2020-01-26T20:16:13Z</time>
      </trkpt>
      <trkpt lat="9.9090120" lon="-83.9933150">
        <ele>1340.5</ele>
        <time>2020-01-26T20:16:15Z</time>
      </trkpt>
      <trkpt lat="9.9090160" lon="-83.9933760">
        <ele>1340.6</ele>
        <time>2020-01-26T20:16:16Z</time>
      </trkpt>
      <trkpt lat="9.9090270" lon="-83.9935000">
        <ele>1340.1</ele>
        <time>2020-01-26T20:16:18Z</time>
      </trkpt>
      <trkpt lat="9.9090300" lon="-83.9935680">
        <ele>1339.8</ele>
        <time>2020-01-26T20:16:19Z</time>
      </trkpt>
      <trkpt lat="9.9090450" lon="-83.9937020">
        <ele>1339.3</ele>
        <time>2020-01-26T20:16:21Z</time>
      </trkpt>
      <trkpt lat="9.9090500" lon="-83.9937720">
        <ele>1339.0</ele>
        <time>2020-01-26T20:16:22Z</time>
      </trkpt>
      <trkpt lat="9.9090560" lon="-83.9939170">
        <ele>1338.3</ele>
        <time>2020-01-26T20:16:24Z</time>
      </trkpt>
      <trkpt lat="9.9090720" lon="-83.9940720">
        <ele>1337.2</ele>
        <time>2020-01-26T20:16:26Z</time>
      </trkpt>
      <trkpt lat="9.9090870" lon="-83.9941520">
        <ele>1336.6</ele>
        <time>2020-01-26T20:16:27Z</time>
      </trkpt>
      <trkpt lat="9.9091020" lon="-83.9943120">
        <ele>1335.7</ele>
        <time>2020-01-26T20:16:29Z</time>
      </trkpt>
      <trkpt lat="9.9091120" lon="-83.9943930">
        <ele>1335.3</ele>
        <time>2020-01-26T20:16:30Z</time>
      </trkpt>
      <trkpt lat="9.9091330" lon="-83.9945420">
        <ele>1333.3</ele>
        <time>2020-01-26T20:16:32Z</time>
      </trkpt>
      <trkpt lat="9.9091450" lon="-83.9946140">
        <ele>1332.3</ele>
        <time>2020-01-26T20:16:33Z</time>
      </trkpt>
      <trkpt lat="9.9091510" lon="-83.9946900">
        <ele>1331.1</ele>
        <time>2020-01-26T20:16:34Z</time>
      </trkpt>
      <trkpt lat="9.9091760" lon="-83.9948520">
        <ele>1330.6</ele>
        <time>2020-01-26T20:16:36Z</time>
      </trkpt>
      <trkpt lat="9.9091920" lon="-83.9949410">
        <ele>1330.3</ele>
        <time>2020-01-26T20:16:37Z</time>
      </trkpt>
      <trkpt lat="9.9092060" lon="-83.9950320">
        <ele>1329.6</ele>
        <time>2020-01-26T20:16:38Z</time>
      </trkpt>
      <trkpt lat="9.9092390" lon="-83.9952050">
        <ele>1328.6</ele>
        <time>2020-01-26T20:16:40Z</time>
      </trkpt>
      <trkpt lat="9.9092530" lon="-83.9952920">
        <ele>1328.2</ele>
        <time>2020-01-26T20:16:41Z</time>
      </trkpt>
      <trkpt lat="9.9092800" lon="-83.9954590">
        <ele>1327.4</ele>
        <time>2020-01-26T20:16:43Z</time>
      </trkpt>
      <trkpt lat="9.9093040" lon="-83.9955810">
        <ele>1326.5</ele>
        <time>2020-01-26T20:16:45Z</time>
      </trkpt>
      <trkpt lat="9.9093310" lon="-83.9956780">
        <ele>1325.8</ele>
        <time>2020-01-26T20:16:47Z</time>
      </trkpt>
      <trkpt lat="9.9093480" lon="-83.9957610">
        <ele>1325.3</ele>
        <time>2020-01-26T20:16:49Z</time>
      </trkpt>
      <trkpt lat="9.9093570" lon="-83.9957950">
        <ele>1325.1</ele>
        <time>2020-01-26T20:16:50Z</time>
      </trkpt>
      <trkpt lat="9.9093620" lon="-83.9958490">
        <ele>1324.8</ele>
        <time>2020-01-26T20:16:52Z</time>
      </trkpt>
      <trkpt lat="9.9093800" lon="-83.9959170">
        <ele>1324.3</ele>
        <time>2020-01-26T20:16:54Z</time>
      </trkpt>
      <trkpt lat="9.9093940" lon="-83.9959770">
        <ele>1324.0</ele>
        <time>2020-01-26T20:16:55Z</time>
      </trkpt>
      <trkpt lat="9.9094060" lon="-83.9960400">
        <ele>1324.0</ele>
        <time>2020-01-26T20:16:56Z</time>
      </trkpt>
      <trkpt lat="9.9094210" lon="-83.9961730">
        <ele>1324.0</ele>
        <time>2020-01-26T20:16:58Z</time>
      </trkpt>
      <trkpt lat="9.9094320" lon="-83.9962410">
        <ele>1324.1</ele>
        <time>2020-01-26T20:16:59Z</time>
      </trkpt>
      <trkpt lat="9.9094530" lon="-83.9963870">
        <ele>1324.2</ele>
        <time>2020-01-26T20:17:01Z</time>
      </trkpt>
      <trkpt lat="9.9094720" lon="-83.9965420">
        <ele>1324.5</ele>
        <time>2020-01-26T20:17:03Z</time>
      </trkpt>
      <trkpt lat="9.9094800" lon="-83.9966210">
        <ele>1324.4</ele>
        <time>2020-01-26T20:17:04Z</time>
      </trkpt>
      <trkpt lat="9.9094990" lon="-83.9967780">
        <ele>1324.2</ele>
        <time>2020-01-26T20:17:06Z</time>
      </trkpt>
      <trkpt lat="9.9095120" lon="-83.9969230">
        <ele>1323.8</ele>
        <time>2020-01-26T20:17:08Z</time>
      </trkpt>
      <trkpt lat="9.9095190" lon="-83.9969980">
        <ele>1323.7</ele>
        <time>2020-01-26T20:17:09Z</time>
      </trkpt>
      <trkpt lat="9.9095350" lon="-83.9971430">
        <ele>1323.2</ele>
        <time>2020-01-26T20:17:11Z</time>
      </trkpt>
      <trkpt lat="9.9095510" lon="-83.9972960">
        <ele>1322.7</ele>
        <time>2020-01-26T20:17:13Z</time>
      </trkpt>
      <trkpt lat="9.9095600" lon="-83.9974420">
        <ele>1322.5</ele>
        <time>2020-01-26T20:17:15Z</time>
      </trkpt>
      <trkpt lat="9.9095720" lon="-83.9975900">
        <ele>1322.3</ele>
        <time>2020-01-26T20:17:17Z</time>
      </trkpt>
      <trkpt lat="9.9095910" lon="-83.9977480">
        <ele>1322.0</ele>
        <time>2020-01-26T20:17:19Z</time>
      </trkpt>
      <trkpt lat="9.9096010" lon="-83.9978300">
        <ele>1322.0</ele>
        <time>2020-01-26T20:17:20Z</time>
      </trkpt>
      <trkpt lat="9.9096200" lon="-83.9979940">
        <ele>1321.9</ele>
        <time>2020-01-26T20:17:22Z</time>
      </trkpt>
      <trkpt lat="9.9096280" lon="-83.9980760">
        <ele>1321.9</ele>
        <time>2020-01-26T20:17:23Z</time>
      </trkpt>
      <trkpt lat="9.9096410" lon="-83.9982410">
        <ele>1321.4</ele>
        <time>2020-01-26T20:17:25Z</time>
      </trkpt>
      <trkpt lat="9.9096490" lon="-83.9983250">
        <ele>1321.2</ele>
        <time>2020-01-26T20:17:26Z</time>
      </trkpt>
      <trkpt lat="9.9096550" lon="-83.9984080">
        <ele>1320.9</ele>
        <time>2020-01-26T20:17:27Z</time>
      </trkpt>
      <trkpt lat="9.9096630" lon="-83.9984930">
        <ele>1320.6</ele>
        <time>2020-01-26T20:17:28Z</time>
      </trkpt>
      <trkpt lat="9.9096770" lon="-83.9986610">
        <ele>1319.5</ele>
        <time>2020-01-26T20:17:30Z</time>
      </trkpt>
      <trkpt lat="9.9096850" lon="-83.9987440">
        <ele>1319.2</ele>
        <time>2020-01-26T20:17:31Z</time>
      </trkpt>
      <trkpt lat="9.9096900" lon="-83.9988320">
        <ele>1318.9</ele>
        <time>2020-01-26T20:17:32Z</time>
      </trkpt>
      <trkpt lat="9.9097020" lon="-83.9989990">
        <ele>1318.3</ele>
        <time>2020-01-26T20:17:34Z</time>
      </trkpt>
      <trkpt lat="9.9097220" lon="-83.9991650">
        <ele>1317.8</ele>
        <time>2020-01-26T20:17:36Z</time>
      </trkpt>
      <trkpt lat="9.9097280" lon="-83.9992460">
        <ele>1317.5</ele>
        <time>2020-01-26T20:17:37Z</time>
      </trkpt>
      <trkpt lat="9.9097460" lon="-83.9994170">
        <ele>1317.0</ele>
        <time>2020-01-26T20:17:39Z</time>
      </trkpt>
      <trkpt lat="9.9097560" lon="-83.9995920">
        <ele>1316.4</ele>
        <time>2020-01-26T20:17:41Z</time>
      </trkpt>
      <trkpt lat="9.9097660" lon="-83.9997930">
        <ele>1316.6</ele>
        <time>2020-01-26T20:17:43Z</time>
      </trkpt>
      <trkpt lat="9.9097700" lon="-84.0000220">
        <ele>1316.9</ele>
        <time>2020-01-26T20:17:45Z</time>
      </trkpt>
      <trkpt lat="9.9097660" lon="-84.0002480">
        <ele>1317.2</ele>
        <time>2020-01-26T20:17:47Z</time>
      </trkpt>
      <trkpt lat="9.9097490" lon="-84.0003640">
        <ele>1317.3</ele>
        <time>2020-01-26T20:17:48Z</time>
      </trkpt>
      <trkpt lat="9.9097360" lon="-84.0004750">
        <ele>1317.4</ele>
        <time>2020-01-26T20:17:49Z</time>
      </trkpt>
      <trkpt lat="9.9097200" lon="-84.0005860">
        <ele>1317.6</ele>
        <time>2020-01-26T20:17:50Z</time>
      </trkpt>
      <trkpt lat="9.9096930" lon="-84.0007990">
        <ele>1317.3</ele>
        <time>2020-01-26T20:17:52Z</time>
      </trkpt>
      <trkpt lat="9.9096790" lon="-84.0009070">
        <ele>1317.0</ele>
        <time>2020-01-26T20:17:53Z</time>
      </trkpt>
      <trkpt lat="9.9096640" lon="-84.0010170">
        <ele>1316.8</ele>
        <time>2020-01-26T20:17:54Z</time>
      </trkpt>
      <trkpt lat="9.9096340" lon="-84.0012290">
        <ele>1316.4</ele>
        <time>2020-01-26T20:17:56Z</time>
      </trkpt>
      <trkpt lat="9.9096080" lon="-84.0014370">
        <ele>1316.0</ele>
        <time>2020-01-26T20:17:58Z</time>
      </trkpt>
      <trkpt lat="9.9095940" lon="-84.0015390">
        <ele>1316.0</ele>
        <time>2020-01-26T20:17:59Z</time>
      </trkpt>
      <trkpt lat="9.9095830" lon="-84.0016410">
        <ele>1315.8</ele>
        <time>2020-01-26T20:18:00Z</time>
      </trkpt>
      <trkpt lat="9.9095700" lon="-84.0017410">
        <ele>1315.7</ele>
        <time>2020-01-26T20:18:01Z</time>
      </trkpt>
      <trkpt lat="9.9095410" lon="-84.0019390">
        <ele>1315.6</ele>
        <time>2020-01-26T20:18:03Z</time>
      </trkpt>
      <trkpt lat="9.9095270" lon="-84.0020350">
        <ele>1315.5</ele>
        <time>2020-01-26T20:18:04Z</time>
      </trkpt>
      <trkpt lat="9.9094990" lon="-84.0022280">
        <ele>1315.3</ele>
        <time>2020-01-26T20:18:06Z</time>
      </trkpt>
      <trkpt lat="9.9094730" lon="-84.0024210">
        <ele>1315.3</ele>
        <time>2020-01-26T20:18:08Z</time>
      </trkpt>
      <trkpt lat="9.9094590" lon="-84.0025220">
        <ele>1315.4</ele>
        <time>2020-01-26T20:18:09Z</time>
      </trkpt>
      <trkpt lat="9.9094290" lon="-84.0027120">
        <ele>1315.6</ele>
        <time>2020-01-26T20:18:11Z</time>
      </trkpt>
      <trkpt lat="9.9094050" lon="-84.0028990">
        <ele>1314.9</ele>
        <time>2020-01-26T20:18:13Z</time>
      </trkpt>
      <trkpt lat="9.9093860" lon="-84.0029950">
        <ele>1314.5</ele>
        <time>2020-01-26T20:18:14Z</time>
      </trkpt>
      <trkpt lat="9.9093560" lon="-84.0031910">
        <ele>1313.1</ele>
        <time>2020-01-26T20:18:16Z</time>
      </trkpt>
      <trkpt lat="9.9093440" lon="-84.0032890">
        <ele>1312.3</ele>
        <time>2020-01-26T20:18:17Z</time>
      </trkpt>
      <trkpt lat="9.9093180" lon="-84.0034860">
        <ele>1311.1</ele>
        <time>2020-01-26T20:18:19Z</time>
      </trkpt>
      <trkpt lat="9.9092890" lon="-84.0036880">
        <ele>1309.5</ele>
        <time>2020-01-26T20:18:21Z</time>
      </trkpt>
      <trkpt lat="9.9092760" lon="-84.0037880">
        <ele>1309.0</ele>
        <time>2020-01-26T20:18:22Z</time>
      </trkpt>
      <trkpt lat="9.9092580" lon="-84.0038880">
        <ele>1309.5</ele>
        <time>2020-01-26T20:18:23Z</time>
      </trkpt>
      <trkpt lat="9.9092170" lon="-84.0040810">
        <ele>1310.9</ele>
        <time>2020-01-26T20:18:25Z</time>
      </trkpt>
      <trkpt lat="9.9091980" lon="-84.0041790">
        <ele>1311.4</ele>
        <time>2020-01-26T20:18:26Z</time>
      </trkpt>
      <trkpt lat="9.9091780" lon="-84.0042720">
        <ele>1312.0</ele>
        <time>2020-01-26T20:18:27Z</time>
      </trkpt>
      <trkpt lat="9.9091580" lon="-84.0043650">
        <ele>1311.6</ele>
        <time>2020-01-26T20:18:28Z</time>
      </trkpt>
      <trkpt lat="9.9091180" lon="-84.0045610">
        <ele>1307.8</ele>
        <time>2020-01-26T20:18:30Z</time>
      </trkpt>
      <trkpt lat="9.9090990" lon="-84.0046640">
        <ele>1306.2</ele>
        <time>2020-01-26T20:18:31Z</time>
      </trkpt>
      <trkpt lat="9.9090640" lon="-84.0048690">
        <ele>1302.9</ele>
        <time>2020-01-26T20:18:33Z</time>
      </trkpt>
      <trkpt lat="9.9090330" lon="-84.0050600">
        <ele>1299.8</ele>
        <time>2020-01-26T20:18:35Z</time>
      </trkpt>
      <trkpt lat="9.9090190" lon="-84.0051530">
        <ele>1298.5</ele>
        <time>2020-01-26T20:18:36Z</time>
      </trkpt>
      <trkpt lat="9.9090010" lon="-84.0052450">
        <ele>1297.3</ele>
        <time>2020-01-26T20:18:37Z</time>
      </trkpt>
      <trkpt lat="9.9089730" lon="-84.0054270">
        <ele>1295.7</ele>
        <time>2020-01-26T20:18:39Z</time>
      </trkpt>
      <trkpt lat="9.9089580" lon="-84.0055150">
        <ele>1295.2</ele>
        <time>2020-01-26T20:18:40Z</time>
      </trkpt>
      <trkpt lat="9.9089430" lon="-84.0055950">
        <ele>1294.7</ele>
        <time>2020-01-26T20:18:41Z</time>
      </trkpt>
      <trkpt lat="9.9089160" lon="-84.0057390">
        <ele>1294.4</ele>
        <time>2020-01-26T20:18:43Z</time>
      </trkpt>
      <trkpt lat="9.9089040" lon="-84.0058080">
        <ele>1294.4</ele>
        <time>2020-01-26T20:18:44Z</time>
      </trkpt>
      <trkpt lat="9.9088830" lon="-84.0059140">
        <ele>1294.3</ele>
        <time>2020-01-26T20:18:46Z</time>
      </trkpt>
      <trkpt lat="9.9088730" lon="-84.0059600">
        <ele>1294.3</ele>
        <time>2020-01-26T20:18:47Z</time>
      </trkpt>
      <trkpt lat="9.9088540" lon="-84.0060300">
        <ele>1294.3</ele>
        <time>2020-01-26T20:18:49Z</time>
      </trkpt>
      <trkpt lat="9.9088500" lon="-84.0060580">
        <ele>1294.3</ele>
        <time>2020-01-26T20:18:50Z</time>
      </trkpt>
      <trkpt lat="9.9088380" lon="-84.0061150">
        <ele>1294.2</ele>
        <time>2020-01-26T20:18:52Z</time>
      </trkpt>
      <trkpt lat="9.9088190" lon="-84.0061800">
        <ele>1294.0</ele>
        <time>2020-01-26T20:18:54Z</time>
      </trkpt>
      <trkpt lat="9.9088060" lon="-84.0062320">
        <ele>1293.9</ele>
        <time>2020-01-26T20:18:55Z</time>
      </trkpt>
      <trkpt lat="9.9087760" lon="-84.0063470">
        <ele>1293.1</ele>
        <time>2020-01-26T20:18:57Z</time>
      </trkpt>
      <trkpt lat="9.9087430" lon="-84.0064820">
        <ele>1292.9</ele>
        <time>2020-01-26T20:18:59Z</time>
      </trkpt>
      <trkpt lat="9.9087280" lon="-84.0065600">
        <ele>1292.7</ele>
        <time>2020-01-26T20:19:00Z</time>
      </trkpt>
      <trkpt lat="9.9087120" lon="-84.0066380">
        <ele>1292.6</ele>
        <time>2020-01-26T20:19:01Z</time>
      </trkpt>
      <trkpt lat="9.9086970" lon="-84.0067230">
        <ele>1292.4</ele>
        <time>2020-01-26T20:19:02Z</time>
      </trkpt>
      <trkpt lat="9.9086630" lon="-84.0068850">
        <ele>1292.2</ele>
        <time>2020-01-26T20:19:04Z</time>
      </trkpt>
      <trkpt lat="9.9086430" lon="-84.0069820">
        <ele>1292.1</ele>
        <time>2020-01-26T20:19:05Z</time>
      </trkpt>
      <trkpt lat="9.9086100" lon="-84.0071710">
        <ele>1291.4</ele>
        <time>2020-01-26T20:19:07Z</time>
      </trkpt>
      <trkpt lat="9.9085930" lon="-84.0072710">
        <ele>1291.0</ele>
        <time>2020-01-26T20:19:08Z</time>
      </trkpt>
      <trkpt lat="9.9085610" lon="-84.0074650">
        <ele>1290.2</ele>
        <time>2020-01-26T20:19:10Z</time>
      </trkpt>
      <trkpt lat="9.9085470" lon="-84.0075640">
        <ele>1289.8</ele>
        <time>2020-01-26T20:19:11Z</time>
      </trkpt>
      <trkpt lat="9.9085100" lon="-84.0077640">
        <ele>1289.0</ele>
        <time>2020-01-26T20:19:13Z</time>
      </trkpt>
      <trkpt lat="9.9084920" lon="-84.0078600">
        <ele>1288.5</ele>
        <time>2020-01-26T20:19:14Z</time>
      </trkpt>
      <trkpt lat="9.9084780" lon="-84.0079580">
        <ele>1288.0</ele>
        <time>2020-01-26T20:19:15Z</time>
      </trkpt>
      <trkpt lat="9.9084670" lon="-84.0080540">
        <ele>1287.4</ele>
        <time>2020-01-26T20:19:16Z</time>
      </trkpt>
      <trkpt lat="9.9084610" lon="-84.0082340">
        <ele>1286.3</ele>
        <time>2020-01-26T20:19:18Z</time>
      </trkpt>
      <trkpt lat="9.9084700" lon="-84.0084200">
        <ele>1285.1</ele>
        <time>2020-01-26T20:19:20Z</time>
      </trkpt>
      <trkpt lat="9.9084820" lon="-84.0086020">
        <ele>1283.5</ele>
        <time>2020-01-26T20:19:22Z</time>
      </trkpt>
      <trkpt lat="9.9084940" lon="-84.0086920">
        <ele>1282.8</ele>
        <time>2020-01-26T20:19:23Z</time>
      </trkpt>
      <trkpt lat="9.9085300" lon="-84.0088600">
        <ele>1281.6</ele>
        <time>2020-01-26T20:19:25Z</time>
      </trkpt>
      <trkpt lat="9.9085580" lon="-84.0089440">
        <ele>1281.1</ele>
        <time>2020-01-26T20:19:26Z</time>
      </trkpt>
      <trkpt lat="9.9086360" lon="-84.0091370">
        <ele>1279.8</ele>
        <time>2020-01-26T20:19:28Z</time>
      </trkpt>
      <trkpt lat="9.9087300" lon="-84.0093450">
        <ele>1277.9</ele>
        <time>2020-01-26T20:19:30Z</time>
      </trkpt>
      <trkpt lat="9.9087760" lon="-84.0094550">
        <ele>1276.8</ele>
        <time>2020-01-26T20:19:31Z</time>
      </trkpt>
      <trkpt lat="9.9088230" lon="-84.0095620">
        <ele>1276.0</ele>
        <time>2020-01-26T20:19:32Z</time>
      </trkpt>
      <trkpt lat="9.9089120" lon="-84.0097650">
        <ele>1274.6</ele>
        <time>2020-01-26T20:19:34Z</time>
      </trkpt>
      <trkpt lat="9.9089530" lon="-84.0098580">
        <ele>1273.9</ele>
        <time>2020-01-26T20:19:35Z</time>
      </trkpt>
      <trkpt lat="9.9089930" lon="-84.0099460">
        <ele>1273.3</ele>
        <time>2020-01-26T20:19:36Z</time>
      </trkpt>
      <trkpt lat="9.9090820" lon="-84.0101250">
        <ele>1272.1</ele>
        <time>2020-01-26T20:19:38Z</time>
      </trkpt>
      <trkpt lat="9.9091670" lon="-84.0103140">
        <ele>1271.9</ele>
        <time>2020-01-26T20:19:40Z</time>
      </trkpt>
      <trkpt lat="9.9092080" lon="-84.0104090">
        <ele>1271.2</ele>
        <time>2020-01-26T20:19:41Z</time>
      </trkpt>
      <trkpt lat="9.9092520" lon="-84.0105030">
        <ele>1270.6</ele>
        <time>2020-01-26T20:19:42Z</time>
      </trkpt>
      <trkpt lat="9.9093380" lon="-84.0106850">
        <ele>1269.5</ele>
        <time>2020-01-26T20:19:44Z</time>
      </trkpt>
      <trkpt lat="9.9093820" lon="-84.0107730">
        <ele>1269.1</ele>
        <time>2020-01-26T20:19:45Z</time>
      </trkpt>
      <trkpt lat="9.9094260" lon="-84.0108590">
        <ele>1268.6</ele>
        <time>2020-01-26T20:19:46Z</time>
      </trkpt>
      <trkpt lat="9.9095160" lon="-84.0110310">
        <ele>1267.7</ele>
        <time>2020-01-26T20:19:48Z</time>
      </trkpt>
      <trkpt lat="9.9095940" lon="-84.0111920">
        <ele>1267.8</ele>
        <time>2020-01-26T20:19:50Z</time>
      </trkpt>
      <trkpt lat="9.9096770" lon="-84.0113590">
        <ele>1267.9</ele>
        <time>2020-01-26T20:19:52Z</time>
      </trkpt>
      <trkpt lat="9.9097620" lon="-84.0115140">
        <ele>1268.0</ele>
        <time>2020-01-26T20:19:54Z</time>
      </trkpt>
      <trkpt lat="9.9098420" lon="-84.0116590">
        <ele>1267.4</ele>
        <time>2020-01-26T20:19:56Z</time>
      </trkpt>
      <trkpt lat="9.9098800" lon="-84.0117270">
        <ele>1267.1</ele>
        <time>2020-01-26T20:19:57Z</time>
      </trkpt>
      <trkpt lat="9.9099540" lon="-84.0118660">
        <ele>1266.6</ele>
        <time>2020-01-26T20:19:59Z</time>
      </trkpt>
      <trkpt lat="9.9100320" lon="-84.0120060">
        <ele>1266.3</ele>
        <time>2020-01-26T20:20:01Z</time>
      </trkpt>
      <trkpt lat="9.9100720" lon="-84.0120820">
        <ele>1266.1</ele>
        <time>2020-01-26T20:20:02Z</time>
      </trkpt>
      <trkpt lat="9.9101110" lon="-84.0121550">
        <ele>1265.9</ele>
        <time>2020-01-26T20:20:03Z</time>
      </trkpt>
      <trkpt lat="9.9101940" lon="-84.0123090">
        <ele>1265.0</ele>
        <time>2020-01-26T20:20:05Z</time>
      </trkpt>
      <trkpt lat="9.9102370" lon="-84.0123820">
        <ele>1264.5</ele>
        <time>2020-01-26T20:20:06Z</time>
      </trkpt>
      <trkpt lat="9.9102820" lon="-84.0124590">
        <ele>1264.6</ele>
        <time>2020-01-26T20:20:07Z</time>
      </trkpt>
      <trkpt lat="9.9103590" lon="-84.0126170">
        <ele>1264.7</ele>
        <time>2020-01-26T20:20:09Z</time>
      </trkpt>
      <trkpt lat="9.9103990" lon="-84.0126960">
        <ele>1264.8</ele>
        <time>2020-01-26T20:20:10Z</time>
      </trkpt>
      <trkpt lat="9.9104750" lon="-84.0128470">
        <ele>1265.0</ele>
        <time>2020-01-26T20:20:12Z</time>
      </trkpt>
      <trkpt lat="9.9105660" lon="-84.0130050">
        <ele>1265.3</ele>
        <time>2020-01-26T20:20:14Z</time>
      </trkpt>
      <trkpt lat="9.9106070" lon="-84.0130830">
        <ele>1265.5</ele>
        <time>2020-01-26T20:20:15Z</time>
      </trkpt>
      <trkpt lat="9.9106490" lon="-84.0131600">
        <ele>1265.7</ele>
        <time>2020-01-26T20:20:16Z</time>
      </trkpt>
      <trkpt lat="9.9107420" lon="-84.0133090">
        <ele>1265.4</ele>
        <time>2020-01-26T20:20:18Z</time>
      </trkpt>
      <trkpt lat="9.9108310" lon="-84.0134640">
        <ele>1264.9</ele>
        <time>2020-01-26T20:20:20Z</time>
      </trkpt>
      <trkpt lat="9.9108800" lon="-84.0135410">
        <ele>1264.6</ele>
        <time>2020-01-26T20:20:21Z</time>
      </trkpt>
      <trkpt lat="9.9109700" lon="-84.0136860">
        <ele>1263.9</ele>
        <time>2020-01-26T20:20:23Z</time>
      </trkpt>
      <trkpt lat="9.9110220" lon="-84.0137640">
        <ele>1263.5</ele>
        <time>2020-01-26T20:20:24Z</time>
      </trkpt>
      <trkpt lat="9.9111110" lon="-84.0139180">
        <ele>1262.8</ele>
        <time>2020-01-26T20:20:26Z</time>
      </trkpt>
      <trkpt lat="9.9111900" lon="-84.0140710">
        <ele>1261.8</ele>
        <time>2020-01-26T20:20:28Z</time>
      </trkpt>
      <trkpt lat="9.9112190" lon="-84.0141410">
        <ele>1261.4</ele>
        <time>2020-01-26T20:20:29Z</time>
      </trkpt>
      <trkpt lat="9.9112610" lon="-84.0143030">
        <ele>1260.4</ele>
        <time>2020-01-26T20:20:31Z</time>
      </trkpt>
      <trkpt lat="9.9113200" lon="-84.0144830">
        <ele>1259.5</ele>
        <time>2020-01-26T20:20:33Z</time>
      </trkpt>
      <trkpt lat="9.9113470" lon="-84.0145710">
        <ele>1259.1</ele>
        <time>2020-01-26T20:20:34Z</time>
      </trkpt>
      <trkpt lat="9.9113750" lon="-84.0146600">
        <ele>1258.7</ele>
        <time>2020-01-26T20:20:35Z</time>
      </trkpt>
      <trkpt lat="9.9114290" lon="-84.0148380">
        <ele>1257.7</ele>
        <time>2020-01-26T20:20:37Z</time>
      </trkpt>
      <trkpt lat="9.9114810" lon="-84.0150070">
        <ele>1256.8</ele>
        <time>2020-01-26T20:20:39Z</time>
      </trkpt>
      <trkpt lat="9.9115050" lon="-84.0150900">
        <ele>1256.3</ele>
        <time>2020-01-26T20:20:40Z</time>
      </trkpt>
      <trkpt lat="9.9115280" lon="-84.0151690">
        <ele>1255.8</ele>
        <time>2020-01-26T20:20:41Z</time>
      </trkpt>
      <trkpt lat="9.9115470" lon="-84.0152450">
        <ele>1255.3</ele>
        <time>2020-01-26T20:20:42Z</time>
      </trkpt>
      <trkpt lat="9.9115780" lon="-84.0154080">
        <ele>1254.8</ele>
        <time>2020-01-26T20:20:44Z</time>
      </trkpt>
      <trkpt lat="9.9116130" lon="-84.0155960">
        <ele>1254.1</ele>
        <time>2020-01-26T20:20:46Z</time>
      </trkpt>
      <trkpt lat="9.9116320" lon="-84.0156910">
        <ele>1253.8</ele>
        <time>2020-01-26T20:20:47Z</time>
      </trkpt>
      <trkpt lat="9.9116490" lon="-84.0157840">
        <ele>1253.6</ele>
        <time>2020-01-26T20:20:48Z</time>
      </trkpt>
      <trkpt lat="9.9116610" lon="-84.0158620">
        <ele>1253.4</ele>
        <time>2020-01-26T20:20:49Z</time>
      </trkpt>
      <trkpt lat="9.9116810" lon="-84.0159760">
        <ele>1253.3</ele>
        <time>2020-01-26T20:20:51Z</time>
      </trkpt>
      <trkpt lat="9.9116880" lon="-84.0160310">
        <ele>1253.2</ele>
        <time>2020-01-26T20:20:52Z</time>
      </trkpt>
      <trkpt lat="9.9117000" lon="-84.0160790">
        <ele>1253.2</ele>
        <time>2020-01-26T20:20:53Z</time>
      </trkpt>
      <trkpt lat="9.9117230" lon="-84.0161620">
        <ele>1253.1</ele>
        <time>2020-01-26T20:20:55Z</time>
      </trkpt>
      <trkpt lat="9.9117310" lon="-84.0162220">
        <ele>1253.1</ele>
        <time>2020-01-26T20:20:57Z</time>
      </trkpt>
      <trkpt lat="9.9117380" lon="-84.0162500">
        <ele>1253.1</ele>
        <time>2020-01-26T20:20:58Z</time>
      </trkpt>
      <trkpt lat="9.9117400" lon="-84.0162740">
        <ele>1253.1</ele>
        <time>2020-01-26T20:20:59Z</time>
      </trkpt>
      <trkpt lat="9.9117420" lon="-84.0163250">
        <ele>1253.1</ele>
        <time>2020-01-26T20:21:01Z</time>
      </trkpt>
      <trkpt lat="9.9117490" lon="-84.0163680">
        <ele>1253.1</ele>
        <time>2020-01-26T20:21:03Z</time>
      </trkpt>
      <trkpt lat="9.9117610" lon="-84.0164660">
        <ele>1251.4</ele>
        <time>2020-01-26T20:21:04Z</time>
      </trkpt>
      <trkpt lat="9.9117450" lon="-84.0165730">
        <ele>1250.1</ele>
        <time>2020-01-26T20:21:06Z</time>
      </trkpt>
      <trkpt lat="9.9117220" lon="-84.0166240">
        <ele>1249.5</ele>
        <time>2020-01-26T20:21:07Z</time>
      </trkpt>
      <trkpt lat="9.9116900" lon="-84.0166630">
        <ele>1248.9</ele>
        <time>2020-01-26T20:21:08Z</time>
      </trkpt>
      <trkpt lat="9.9115790" lon="-84.0166880">
        <ele>1247.6</ele>
        <time>2020-01-26T20:21:10Z</time>
      </trkpt>
      <trkpt lat="9.9114410" lon="-84.0166980">
        <ele>1247.0</ele>
        <time>2020-01-26T20:21:12Z</time>
      </trkpt>
      <trkpt lat="9.9113670" lon="-84.0167040">
        <ele>1247.0</ele>
        <time>2020-01-26T20:21:13Z</time>
      </trkpt>
      <trkpt lat="9.9112910" lon="-84.0167170">
        <ele>1247.0</ele>
        <time>2020-01-26T20:21:14Z</time>
      </trkpt>
      <trkpt lat="9.9112190" lon="-84.0167260">
        <ele>1247.0</ele>
        <time>2020-01-26T20:21:15Z</time>
      </trkpt>
      <trkpt lat="9.9110860" lon="-84.0167390">
        <ele>1247.0</ele>
        <time>2020-01-26T20:21:17Z</time>
      </trkpt>
      <trkpt lat="9.9110140" lon="-84.0167490">
        <ele>1246.8</ele>
        <time>2020-01-26T20:21:18Z</time>
      </trkpt>
      <trkpt lat="9.9108670" lon="-84.0167870">
        <ele>1246.4</ele>
        <time>2020-01-26T20:21:20Z</time>
      </trkpt>
      <trkpt lat="9.9107930" lon="-84.0168190">
        <ele>1246.4</ele>
        <time>2020-01-26T20:21:21Z</time>
      </trkpt>
      <trkpt lat="9.9106590" lon="-84.0168970">
        <ele>1245.2</ele>
        <time>2020-01-26T20:21:23Z</time>
      </trkpt>
      <trkpt lat="9.9105920" lon="-84.0169320">
        <ele>1244.8</ele>
        <time>2020-01-26T20:21:24Z</time>
      </trkpt>
      <trkpt lat="9.9105290" lon="-84.0169700">
        <ele>1244.5</ele>
        <time>2020-01-26T20:21:25Z</time>
      </trkpt>
      <trkpt lat="9.9104050" lon="-84.0170400">
        <ele>1243.9</ele>
        <time>2020-01-26T20:21:27Z</time>
      </trkpt>
      <trkpt lat="9.9102820" lon="-84.0171110">
        <ele>1243.4</ele>
        <time>2020-01-26T20:21:29Z</time>
      </trkpt>
      <trkpt lat="9.9102350" lon="-84.0171360">
        <ele>1243.3</ele>
        <time>2020-01-26T20:21:30Z</time>
      </trkpt>
      <trkpt lat="9.9102060" lon="-84.0171570">
        <ele>1243.2</ele>
        <time>2020-01-26T20:21:31Z</time>
      </trkpt>
      <trkpt lat="9.9101650" lon="-84.0172030">
        <ele>1243.0</ele>
        <time>2020-01-26T20:21:33Z</time>
      </trkpt>
      <trkpt lat="9.9101420" lon="-84.0172280">
        <ele>1242.8</ele>
        <time>2020-01-26T20:21:34Z</time>
      </trkpt>
      <trkpt lat="9.9101390" lon="-84.0173140">
        <ele>1242.0</ele>
        <time>2020-01-26T20:21:36Z</time>
      </trkpt>
      <trkpt lat="9.9101600" lon="-84.0173650">
        <ele>1241.7</ele>
        <time>2020-01-26T20:21:37Z</time>
      </trkpt>
      <trkpt lat="9.9101850" lon="-84.0174210">
        <ele>1241.4</ele>
        <time>2020-01-26T20:21:38Z</time>
      </trkpt>
      <trkpt lat="9.9102210" lon="-84.0175530">
        <ele>1240.5</ele>
        <time>2020-01-26T20:21:40Z</time>
      </trkpt>
      <trkpt lat="9.9102250" lon="-84.0176270">
        <ele>1239.9</ele>
        <time>2020-01-26T20:21:41Z</time>
      </trkpt>
      <trkpt lat="9.9102230" lon="-84.0177080">
        <ele>1239.2</ele>
        <time>2020-01-26T20:21:42Z</time>
      </trkpt>
      <trkpt lat="9.9102170" lon="-84.0178820">
        <ele>1238.0</ele>
        <time>2020-01-26T20:21:44Z</time>
      </trkpt>
      <trkpt lat="9.9102140" lon="-84.0179790">
        <ele>1237.4</ele>
        <time>2020-01-26T20:21:45Z</time>
      </trkpt>
      <trkpt lat="9.9102170" lon="-84.0180720">
        <ele>1236.8</ele>
        <time>2020-01-26T20:21:46Z</time>
      </trkpt>
      <trkpt lat="9.9102230" lon="-84.0181670">
        <ele>1236.2</ele>
        <time>2020-01-26T20:21:47Z</time>
      </trkpt>
      <trkpt lat="9.9102430" lon="-84.0183470">
        <ele>1234.9</ele>
        <time>2020-01-26T20:21:49Z</time>
      </trkpt>
      <trkpt lat="9.9102880" lon="-84.0185190">
        <ele>1234.0</ele>
        <time>2020-01-26T20:21:51Z</time>
      </trkpt>
      <trkpt lat="9.9103160" lon="-84.0186040">
        <ele>1233.7</ele>
        <time>2020-01-26T20:21:52Z</time>
      </trkpt>
      <trkpt lat="9.9103860" lon="-84.0187710">
        <ele>1233.3</ele>
        <time>2020-01-26T20:21:54Z</time>
      </trkpt>
      <trkpt lat="9.9104520" lon="-84.0189380">
        <ele>1232.9</ele>
        <time>2020-01-26T20:21:56Z</time>
      </trkpt>
      <trkpt lat="9.9104840" lon="-84.0190210">
        <ele>1232.7</ele>
        <time>2020-01-26T20:21:57Z</time>
      </trkpt>
      <trkpt lat="9.9105190" lon="-84.0191040">
        <ele>1232.5</ele>
        <time>2020-01-26T20:21:58Z</time>
      </trkpt>
      <trkpt lat="9.9105910" lon="-84.0192580">
        <ele>1232.3</ele>
        <time>2020-01-26T20:22:00Z</time>
      </trkpt>
      <trkpt lat="9.9106250" lon="-84.0193320">
        <ele>1232.2</ele>
        <time>2020-01-26T20:22:01Z</time>
      </trkpt>
      <trkpt lat="9.9106970" lon="-84.0194860">
        <ele>1232.2</ele>
        <time>2020-01-26T20:22:03Z</time>
      </trkpt>
      <trkpt lat="9.9107290" lon="-84.0195660">
        <ele>1232.2</ele>
        <time>2020-01-26T20:22:04Z</time>
      </trkpt>
      <trkpt lat="9.9107600" lon="-84.0196480">
        <ele>1232.2</ele>
        <time>2020-01-26T20:22:05Z</time>
      </trkpt>
      <trkpt lat="9.9108290" lon="-84.0198080">
        <ele>1232.2</ele>
        <time>2020-01-26T20:22:07Z</time>
      </trkpt>
      <trkpt lat="9.9108650" lon="-84.0198900">
        <ele>1232.2</ele>
        <time>2020-01-26T20:22:08Z</time>
      </trkpt>
      <trkpt lat="9.9109010" lon="-84.0199690">
        <ele>1232.2</ele>
        <time>2020-01-26T20:22:09Z</time>
      </trkpt>
      <trkpt lat="9.9109330" lon="-84.0200490">
        <ele>1232.2</ele>
        <time>2020-01-26T20:22:10Z</time>
      </trkpt>
      <trkpt lat="9.9110060" lon="-84.0202200">
        <ele>1232.1</ele>
        <time>2020-01-26T20:22:12Z</time>
      </trkpt>
      <trkpt lat="9.9110670" lon="-84.0203890">
        <ele>1232.1</ele>
        <time>2020-01-26T20:22:14Z</time>
      </trkpt>
      <trkpt lat="9.9111020" lon="-84.0204770">
        <ele>1232.1</ele>
        <time>2020-01-26T20:22:15Z</time>
      </trkpt>
      <trkpt lat="9.9111420" lon="-84.0205650">
        <ele>1232.1</ele>
        <time>2020-01-26T20:22:16Z</time>
      </trkpt>
      <trkpt lat="9.9112110" lon="-84.0207410">
        <ele>1232.1</ele>
        <time>2020-01-26T20:22:18Z</time>
      </trkpt>
      <trkpt lat="9.9112810" lon="-84.0209130">
        <ele>1232.1</ele>
        <time>2020-01-26T20:22:20Z</time>
      </trkpt>
      <trkpt lat="9.9113510" lon="-84.0210920">
        <ele>1232.1</ele>
        <time>2020-01-26T20:22:22Z</time>
      </trkpt>
      <trkpt lat="9.9114090" lon="-84.0212730">
        <ele>1232.0</ele>
        <time>2020-01-26T20:22:24Z</time>
      </trkpt>
      <trkpt lat="9.9114700" lon="-84.0214580">
        <ele>1231.8</ele>
        <time>2020-01-26T20:22:26Z</time>
      </trkpt>
      <trkpt lat="9.9115010" lon="-84.0215480">
        <ele>1231.6</ele>
        <time>2020-01-26T20:22:27Z</time>
      </trkpt>
      <trkpt lat="9.9115620" lon="-84.0217250">
        <ele>1231.2</ele>
        <time>2020-01-26T20:22:29Z</time>
      </trkpt>
      <trkpt lat="9.9115920" lon="-84.0218110">
        <ele>1231.1</ele>
        <time>2020-01-26T20:22:30Z</time>
      </trkpt>
      <trkpt lat="9.9116530" lon="-84.0219820">
        <ele>1231.0</ele>
        <time>2020-01-26T20:22:32Z</time>
      </trkpt>
      <trkpt lat="9.9116800" lon="-84.0220680">
        <ele>1230.9</ele>
        <time>2020-01-26T20:22:33Z</time>
      </trkpt>
      <trkpt lat="9.9117070" lon="-84.0221540">
        <ele>1230.8</ele>
        <time>2020-01-26T20:22:34Z</time>
      </trkpt>
      <trkpt lat="9.9117350" lon="-84.0222380">
        <ele>1230.6</ele>
        <time>2020-01-26T20:22:35Z</time>
      </trkpt>
      <trkpt lat="9.9117880" lon="-84.0224070">
        <ele>1230.3</ele>
        <time>2020-01-26T20:22:37Z</time>
      </trkpt>
      <trkpt lat="9.9118130" lon="-84.0224920">
        <ele>1230.1</ele>
        <time>2020-01-26T20:22:38Z</time>
      </trkpt>
      <trkpt lat="9.9118530" lon="-84.0226570">
        <ele>1229.9</ele>
        <time>2020-01-26T20:22:40Z</time>
      </trkpt>
      <trkpt lat="9.9119090" lon="-84.0228340">
        <ele>1229.5</ele>
        <time>2020-01-26T20:22:42Z</time>
      </trkpt>
      <trkpt lat="9.9119290" lon="-84.0229230">
        <ele>1229.4</ele>
        <time>2020-01-26T20:22:43Z</time>
      </trkpt>
      <trkpt lat="9.9119520" lon="-84.0230110">
        <ele>1229.2</ele>
        <time>2020-01-26T20:22:44Z</time>
      </trkpt>
      <trkpt lat="9.9120170" lon="-84.0232690">
        <ele>1229.0</ele>
        <time>2020-01-26T20:22:47Z</time>
      </trkpt>
      <trkpt lat="9.9120370" lon="-84.0233550">
        <ele>1229.0</ele>
        <time>2020-01-26T20:22:48Z</time>
      </trkpt>
      <trkpt lat="9.9120540" lon="-84.0234420">
        <ele>1229.0</ele>
        <time>2020-01-26T20:22:49Z</time>
      </trkpt>
      <trkpt lat="9.9120860" lon="-84.0236200">
        <ele>1228.9</ele>
        <time>2020-01-26T20:22:51Z</time>
      </trkpt>
      <trkpt lat="9.9121260" lon="-84.0237990">
        <ele>1228.8</ele>
        <time>2020-01-26T20:22:53Z</time>
      </trkpt>
      <trkpt lat="9.9121630" lon="-84.0239800">
        <ele>1228.5</ele>
        <time>2020-01-26T20:22:55Z</time>
      </trkpt>
      <trkpt lat="9.9122000" lon="-84.0241550">
        <ele>1228.1</ele>
        <time>2020-01-26T20:22:57Z</time>
      </trkpt>
      <trkpt lat="9.9122340" lon="-84.0243180">
        <ele>1228.0</ele>
        <time>2020-01-26T20:22:59Z</time>
      </trkpt>
      <trkpt lat="9.9122470" lon="-84.0244000">
        <ele>1227.9</ele>
        <time>2020-01-26T20:23:00Z</time>
      </trkpt>
      <trkpt lat="9.9122700" lon="-84.0245630">
        <ele>1227.9</ele>
        <time>2020-01-26T20:23:02Z</time>
      </trkpt>
      <trkpt lat="9.9122820" lon="-84.0246440">
        <ele>1227.8</ele>
        <time>2020-01-26T20:23:03Z</time>
      </trkpt>
      <trkpt lat="9.9122950" lon="-84.0247260">
        <ele>1227.8</ele>
        <time>2020-01-26T20:23:04Z</time>
      </trkpt>
      <trkpt lat="9.9123100" lon="-84.0248080">
        <ele>1227.7</ele>
        <time>2020-01-26T20:23:05Z</time>
      </trkpt>
      <trkpt lat="9.9123230" lon="-84.0248910">
        <ele>1227.5</ele>
        <time>2020-01-26T20:23:06Z</time>
      </trkpt>
      <trkpt lat="9.9123520" lon="-84.0250510">
        <ele>1227.2</ele>
        <time>2020-01-26T20:23:08Z</time>
      </trkpt>
      <trkpt lat="9.9123850" lon="-84.0252100">
        <ele>1227.0</ele>
        <time>2020-01-26T20:23:10Z</time>
      </trkpt>
      <trkpt lat="9.9124000" lon="-84.0252880">
        <ele>1226.9</ele>
        <time>2020-01-26T20:23:11Z</time>
      </trkpt>
      <trkpt lat="9.9124120" lon="-84.0253610">
        <ele>1226.9</ele>
        <time>2020-01-26T20:23:12Z</time>
      </trkpt>
      <trkpt lat="9.9124330" lon="-84.0255050">
        <ele>1226.8</ele>
        <time>2020-01-26T20:23:14Z</time>
      </trkpt>
      <trkpt lat="9.9124470" lon="-84.0255810">
        <ele>1226.8</ele>
        <time>2020-01-26T20:23:15Z</time>
      </trkpt>
      <trkpt lat="9.9124650" lon="-84.0256620">
        <ele>1226.8</ele>
        <time>2020-01-26T20:23:16Z</time>
      </trkpt>
      <trkpt lat="9.9124970" lon="-84.0258360">
        <ele>1226.7</ele>
        <time>2020-01-26T20:23:18Z</time>
      </trkpt>
      <trkpt lat="9.9125370" lon="-84.0260200">
        <ele>1226.2</ele>
        <time>2020-01-26T20:23:20Z</time>
      </trkpt>
      <trkpt lat="9.9125770" lon="-84.0262090">
        <ele>1225.6</ele>
        <time>2020-01-26T20:23:22Z</time>
      </trkpt>
      <trkpt lat="9.9125960" lon="-84.0262970">
        <ele>1225.4</ele>
        <time>2020-01-26T20:23:23Z</time>
      </trkpt>
      <trkpt lat="9.9126310" lon="-84.0264580">
        <ele>1225.0</ele>
        <time>2020-01-26T20:23:25Z</time>
      </trkpt>
      <trkpt lat="9.9126690" lon="-84.0266300">
        <ele>1224.8</ele>
        <time>2020-01-26T20:23:27Z</time>
      </trkpt>
      <trkpt lat="9.9126890" lon="-84.0267190">
        <ele>1224.6</ele>
        <time>2020-01-26T20:23:28Z</time>
      </trkpt>
      <trkpt lat="9.9127280" lon="-84.0269000">
        <ele>1224.3</ele>
        <time>2020-01-26T20:23:30Z</time>
      </trkpt>
      <trkpt lat="9.9127470" lon="-84.0269920">
        <ele>1224.2</ele>
        <time>2020-01-26T20:23:31Z</time>
      </trkpt>
      <trkpt lat="9.9127830" lon="-84.0271740">
        <ele>1223.9</ele>
        <time>2020-01-26T20:23:33Z</time>
      </trkpt>
      <trkpt lat="9.9127950" lon="-84.0272630">
        <ele>1223.6</ele>
        <time>2020-01-26T20:23:34Z</time>
      </trkpt>
      <trkpt lat="9.9128240" lon="-84.0274410">
        <ele>1223.0</ele>
        <time>2020-01-26T20:23:36Z</time>
      </trkpt>
      <trkpt lat="9.9128350" lon="-84.0275290">
        <ele>1222.8</ele>
        <time>2020-01-26T20:23:37Z</time>
      </trkpt>
      <trkpt lat="9.9128440" lon="-84.0276160">
        <ele>1222.5</ele>
        <time>2020-01-26T20:23:38Z</time>
      </trkpt>
      <trkpt lat="9.9128690" lon="-84.0277970">
        <ele>1222.0</ele>
        <time>2020-01-26T20:23:40Z</time>
      </trkpt>
      <trkpt lat="9.9128900" lon="-84.0279780">
        <ele>1221.6</ele>
        <time>2020-01-26T20:23:42Z</time>
      </trkpt>
      <trkpt lat="9.9129060" lon="-84.0281610">
        <ele>1221.0</ele>
        <time>2020-01-26T20:23:44Z</time>
      </trkpt>
      <trkpt lat="9.9129130" lon="-84.0283580">
        <ele>1220.5</ele>
        <time>2020-01-26T20:23:46Z</time>
      </trkpt>
      <trkpt lat="9.9129110" lon="-84.0285440">
        <ele>1219.9</ele>
        <time>2020-01-26T20:23:48Z</time>
      </trkpt>
      <trkpt lat="9.9129030" lon="-84.0287360">
        <ele>1219.4</ele>
        <time>2020-01-26T20:23:50Z</time>
      </trkpt>
      <trkpt lat="9.9128960" lon="-84.0288350">
        <ele>1219.2</ele>
        <time>2020-01-26T20:23:51Z</time>
      </trkpt>
      <trkpt lat="9.9128910" lon="-84.0289280">
        <ele>1219.0</ele>
        <time>2020-01-26T20:23:52Z</time>
      </trkpt>
      <trkpt lat="9.9128870" lon="-84.0290160">
        <ele>1218.9</ele>
        <time>2020-01-26T20:23:53Z</time>
      </trkpt>
      <trkpt lat="9.9128650" lon="-84.0292000">
        <ele>1218.5</ele>
        <time>2020-01-26T20:23:55Z</time>
      </trkpt>
      <trkpt lat="9.9128520" lon="-84.0292870">
        <ele>1218.3</ele>
        <time>2020-01-26T20:23:56Z</time>
      </trkpt>
      <trkpt lat="9.9128230" lon="-84.0294700">
        <ele>1217.9</ele>
        <time>2020-01-26T20:23:58Z</time>
      </trkpt>
      <trkpt lat="9.9128070" lon="-84.0295620">
        <ele>1217.7</ele>
        <time>2020-01-26T20:23:59Z</time>
      </trkpt>
      <trkpt lat="9.9127920" lon="-84.0296530">
        <ele>1217.5</ele>
        <time>2020-01-26T20:24:00Z</time>
      </trkpt>
      <trkpt lat="9.9127550" lon="-84.0298310">
        <ele>1217.1</ele>
        <time>2020-01-26T20:24:02Z</time>
      </trkpt>
      <trkpt lat="9.9127140" lon="-84.0300050">
        <ele>1216.7</ele>
        <time>2020-01-26T20:24:04Z</time>
      </trkpt>
      <trkpt lat="9.9126930" lon="-84.0300940">
        <ele>1216.6</ele>
        <time>2020-01-26T20:24:05Z</time>
      </trkpt>
      <trkpt lat="9.9126440" lon="-84.0302720">
        <ele>1216.3</ele>
        <time>2020-01-26T20:24:07Z</time>
      </trkpt>
      <trkpt lat="9.9125860" lon="-84.0304490">
        <ele>1216.3</ele>
        <time>2020-01-26T20:24:09Z</time>
      </trkpt>
      <trkpt lat="9.9125250" lon="-84.0306250">
        <ele>1216.4</ele>
        <time>2020-01-26T20:24:11Z</time>
      </trkpt>
      <trkpt lat="9.9124600" lon="-84.0308080">
        <ele>1216.4</ele>
        <time>2020-01-26T20:24:13Z</time>
      </trkpt>
      <trkpt lat="9.9124030" lon="-84.0309900">
        <ele>1216.3</ele>
        <time>2020-01-26T20:24:15Z</time>
      </trkpt>
      <trkpt lat="9.9123460" lon="-84.0311660">
        <ele>1216.3</ele>
        <time>2020-01-26T20:24:17Z</time>
      </trkpt>
      <trkpt lat="9.9123180" lon="-84.0312520">
        <ele>1216.4</ele>
        <time>2020-01-26T20:24:18Z</time>
      </trkpt>
      <trkpt lat="9.9122570" lon="-84.0314250">
        <ele>1216.4</ele>
        <time>2020-01-26T20:24:20Z</time>
      </trkpt>
      <trkpt lat="9.9122300" lon="-84.0315080">
        <ele>1216.3</ele>
        <time>2020-01-26T20:24:21Z</time>
      </trkpt>
      <trkpt lat="9.9121680" lon="-84.0316890">
        <ele>1215.9</ele>
        <time>2020-01-26T20:24:23Z</time>
      </trkpt>
      <trkpt lat="9.9121140" lon="-84.0318610">
        <ele>1215.9</ele>
        <time>2020-01-26T20:24:25Z</time>
      </trkpt>
      <trkpt lat="9.9120860" lon="-84.0319410">
        <ele>1215.9</ele>
        <time>2020-01-26T20:24:26Z</time>
      </trkpt>
      <trkpt lat="9.9120360" lon="-84.0320900">
        <ele>1215.9</ele>
        <time>2020-01-26T20:24:28Z</time>
      </trkpt>
      <trkpt lat="9.9119890" lon="-84.0322390">
        <ele>1215.9</ele>
        <time>2020-01-26T20:24:30Z</time>
      </trkpt>
      <trkpt lat="9.9119660" lon="-84.0323090">
        <ele>1215.9</ele>
        <time>2020-01-26T20:24:31Z</time>
      </trkpt>
      <trkpt lat="9.9119300" lon="-84.0324430">
        <ele>1215.9</ele>
        <time>2020-01-26T20:24:33Z</time>
      </trkpt>
      <trkpt lat="9.9118780" lon="-84.0325650">
        <ele>1215.9</ele>
        <time>2020-01-26T20:24:35Z</time>
      </trkpt>
      <trkpt lat="9.9118390" lon="-84.0326810">
        <ele>1215.9</ele>
        <time>2020-01-26T20:24:37Z</time>
      </trkpt>
      <trkpt lat="9.9118000" lon="-84.0328040">
        <ele>1215.9</ele>
        <time>2020-01-26T20:24:39Z</time>
      </trkpt>
      <trkpt lat="9.9117630" lon="-84.0329360">
        <ele>1215.9</ele>
        <time>2020-01-26T20:24:41Z</time>
      </trkpt>
      <trkpt lat="9.9117210" lon="-84.0330700">
        <ele>1215.8</ele>
        <time>2020-01-26T20:24:43Z</time>
      </trkpt>
      <trkpt lat="9.9116840" lon="-84.0332130">
        <ele>1215.5</ele>
        <time>2020-01-26T20:24:45Z</time>
      </trkpt>
      <trkpt lat="9.9116650" lon="-84.0332870">
        <ele>1215.2</ele>
        <time>2020-01-26T20:24:46Z</time>
      </trkpt>
      <trkpt lat="9.9116490" lon="-84.0333590">
        <ele>1215.0</ele>
        <time>2020-01-26T20:24:47Z</time>
      </trkpt>
      <trkpt lat="9.9116340" lon="-84.0334290">
        <ele>1214.9</ele>
        <time>2020-01-26T20:24:48Z</time>
      </trkpt>
      <trkpt lat="9.9115990" lon="-84.0335830">
        <ele>1214.5</ele>
        <time>2020-01-26T20:24:50Z</time>
      </trkpt>
      <trkpt lat="9.9115790" lon="-84.0336590">
        <ele>1214.3</ele>
        <time>2020-01-26T20:24:51Z</time>
      </trkpt>
      <trkpt lat="9.9115590" lon="-84.0337330">
        <ele>1214.1</ele>
        <time>2020-01-26T20:24:52Z</time>
      </trkpt>
      <trkpt lat="9.9115460" lon="-84.0338170">
        <ele>1213.9</ele>
        <time>2020-01-26T20:24:53Z</time>
      </trkpt>
      <trkpt lat="9.9115320" lon="-84.0338970">
        <ele>1213.8</ele>
        <time>2020-01-26T20:24:54Z</time>
      </trkpt>
      <trkpt lat="9.9115050" lon="-84.0340430">
        <ele>1213.3</ele>
        <time>2020-01-26T20:24:56Z</time>
      </trkpt>
      <trkpt lat="9.9114900" lon="-84.0341160">
        <ele>1213.1</ele>
        <time>2020-01-26T20:24:57Z</time>
      </trkpt>
      <trkpt lat="9.9114720" lon="-84.0342640">
        <ele>1212.5</ele>
        <time>2020-01-26T20:24:59Z</time>
      </trkpt>
      <trkpt lat="9.9114440" lon="-84.0344190">
        <ele>1211.8</ele>
        <time>2020-01-26T20:25:01Z</time>
      </trkpt>
      <trkpt lat="9.9114360" lon="-84.0344960">
        <ele>1211.5</ele>
        <time>2020-01-26T20:25:02Z</time>
      </trkpt>
      <trkpt lat="9.9114240" lon="-84.0345700">
        <ele>1211.2</ele>
        <time>2020-01-26T20:25:03Z</time>
      </trkpt>
      <trkpt lat="9.9114130" lon="-84.0346750">
        <ele>1210.6</ele>
        <time>2020-01-26T20:25:05Z</time>
      </trkpt>
      <trkpt lat="9.9114080" lon="-84.0347170">
        <ele>1210.5</ele>
        <time>2020-01-26T20:25:06Z</time>
      </trkpt>
      <trkpt lat="9.9114060" lon="-84.0347310">
        <ele>1210.4</ele>
        <time>2020-01-26T20:25:07Z</time>
      </trkpt>
      <trkpt lat="9.9114080" lon="-84.0347670">
        <ele>1210.3</ele>
        <time>2020-01-26T20:25:08Z</time>
      </trkpt>
      <trkpt lat="9.9113910" lon="-84.0348780">
        <ele>1209.9</ele>
        <time>2020-01-26T20:25:10Z</time>
      </trkpt>
      <trkpt lat="9.9113810" lon="-84.0350050">
        <ele>1209.4</ele>
        <time>2020-01-26T20:25:12Z</time>
      </trkpt>
      <trkpt lat="9.9113790" lon="-84.0350620">
        <ele>1209.2</ele>
        <time>2020-01-26T20:25:13Z</time>
      </trkpt>
      <trkpt lat="9.9113640" lon="-84.0351690">
        <ele>1208.8</ele>
        <time>2020-01-26T20:25:15Z</time>
      </trkpt>
      <trkpt lat="9.9113560" lon="-84.0352180">
        <ele>1208.6</ele>
        <time>2020-01-26T20:25:16Z</time>
      </trkpt>
      <trkpt lat="9.9113500" lon="-84.0352740">
        <ele>1208.4</ele>
        <time>2020-01-26T20:25:18Z</time>
      </trkpt>
      <trkpt lat="9.9113840" lon="-84.0352940">
        <ele>1208.2</ele>
        <time>2020-01-26T20:25:19Z</time>
      </trkpt>
      <trkpt lat="9.9113430" lon="-84.0354400">
        <ele>1207.7</ele>
        <time>2020-01-26T20:25:21Z</time>
      </trkpt>
      <trkpt lat="9.9113340" lon="-84.0355050">
        <ele>1207.5</ele>
        <time>2020-01-26T20:25:22Z</time>
      </trkpt>
      <trkpt lat="9.9113350" lon="-84.0356320">
        <ele>1207.2</ele>
        <time>2020-01-26T20:25:24Z</time>
      </trkpt>
      <trkpt lat="9.9113420" lon="-84.0357530">
        <ele>1206.9</ele>
        <time>2020-01-26T20:25:26Z</time>
      </trkpt>
      <trkpt lat="9.9113390" lon="-84.0358570">
        <ele>1206.7</ele>
        <time>2020-01-26T20:25:28Z</time>
      </trkpt>
      <trkpt lat="9.9113440" lon="-84.0359300">
        <ele>1206.6</ele>
        <time>2020-01-26T20:25:30Z</time>
      </trkpt>
      <trkpt lat="9.9113420" lon="-84.0359850">
        <ele>1206.6</ele>
        <time>2020-01-26T20:25:32Z</time>
      </trkpt>
      <trkpt lat="9.9113480" lon="-84.0360300">
        <ele>1206.5</ele>
        <time>2020-01-26T20:25:34Z</time>
      </trkpt>
      <trkpt lat="9.9113480" lon="-84.0360470">
        <ele>1206.5</ele>
        <time>2020-01-26T20:25:35Z</time>
      </trkpt>
      <trkpt lat="9.9113500" lon="-84.0360650">
        <ele>1206.5</ele>
        <time>2020-01-26T20:25:37Z</time>
      </trkpt>
      <trkpt lat="9.9113490" lon="-84.0360710">
        <ele>1206.5</ele>
        <time>2020-01-26T20:25:38Z</time>
      </trkpt>
      <trkpt lat="9.9113490" lon="-84.0360720">
        <ele>1206.5</ele>
        <time>2020-01-26T20:25:40Z</time>
      </trkpt>
      <trkpt lat="9.9113490" lon="-84.0360730">
        <ele>1206.5</ele>
        <time>2020-01-26T20:25:41Z</time>
      </trkpt>
      <trkpt lat="9.9113500" lon="-84.0360710">
        <ele>1206.5</ele>
        <time>2020-01-26T20:25:43Z</time>
      </trkpt>
      <trkpt lat="9.9113440" lon="-84.0360620">
        <ele>1206.5</ele>
        <time>2020-01-26T20:25:44Z</time>
      </trkpt>
      <trkpt lat="9.9113380" lon="-84.0360520">
        <ele>1206.4</ele>
        <time>2020-01-26T20:25:45Z</time>
      </trkpt>
      <trkpt lat="9.9113330" lon="-84.0360420">
        <ele>1206.4</ele>
        <time>2020-01-26T20:25:46Z</time>
      </trkpt>
      <trkpt lat="9.9113270" lon="-84.0360330">
        <ele>1206.4</ele>
        <time>2020-01-26T20:25:48Z</time>
      </trkpt>
      <trkpt lat="9.9113220" lon="-84.0360250">
        <ele>1206.4</ele>
        <time>2020-01-26T20:25:49Z</time>
      </trkpt>
      <trkpt lat="9.9113270" lon="-84.0360290">
        <ele>1206.4</ele>
        <time>2020-01-26T20:25:51Z</time>
      </trkpt>
      <trkpt lat="9.9113410" lon="-84.0360500">
        <ele>1206.4</ele>
        <time>2020-01-26T20:25:52Z</time>
      </trkpt>
      <trkpt lat="9.9113350" lon="-84.0360400">
        <ele>1206.4</ele>
        <time>2020-01-26T20:25:54Z</time>
      </trkpt>
      <trkpt lat="9.9113300" lon="-84.0360330">
        <ele>1206.4</ele>
        <time>2020-01-26T20:25:55Z</time>
      </trkpt>
      <trkpt lat="9.9113270" lon="-84.0360300">
        <ele>1206.4</ele>
        <time>2020-01-26T20:25:57Z</time>
      </trkpt>
      <trkpt lat="9.9113320" lon="-84.0360820">
        <ele>1206.3</ele>
        <time>2020-01-26T20:25:59Z</time>
      </trkpt>
      <trkpt lat="9.9113080" lon="-84.0361410">
        <ele>1206.3</ele>
        <time>2020-01-26T20:26:01Z</time>
      </trkpt>
      <trkpt lat="9.9112110" lon="-84.0361960">
        <ele>1206.8</ele>
        <time>2020-01-26T20:26:02Z</time>
      </trkpt>
      <trkpt lat="9.9110530" lon="-84.0362170">
        <ele>1207.2</ele>
        <time>2020-01-26T20:26:04Z</time>
      </trkpt>
      <trkpt lat="9.9109710" lon="-84.0362300">
        <ele>1207.4</ele>
        <time>2020-01-26T20:26:05Z</time>
      </trkpt>
      <trkpt lat="9.9109030" lon="-84.0362520">
        <ele>1207.6</ele>
        <time>2020-01-26T20:26:06Z</time>
      </trkpt>
      <trkpt lat="9.9108450" lon="-84.0362810">
        <ele>1207.7</ele>
        <time>2020-01-26T20:26:07Z</time>
      </trkpt>
      <trkpt lat="9.9107200" lon="-84.0363400">
        <ele>1208.4</ele>
        <time>2020-01-26T20:26:09Z</time>
      </trkpt>
      <trkpt lat="9.9106610" lon="-84.0363790">
        <ele>1208.7</ele>
        <time>2020-01-26T20:26:10Z</time>
      </trkpt>
      <trkpt lat="9.9105500" lon="-84.0364610">
        <ele>1209.3</ele>
        <time>2020-01-26T20:26:12Z</time>
      </trkpt>
      <trkpt lat="9.9104940" lon="-84.0365020">
        <ele>1209.6</ele>
        <time>2020-01-26T20:26:13Z</time>
      </trkpt>
      <trkpt lat="9.9103900" lon="-84.0365950">
        <ele>1208.8</ele>
        <time>2020-01-26T20:26:15Z</time>
      </trkpt>
      <trkpt lat="9.9102990" lon="-84.0367080">
        <ele>1208.0</ele>
        <time>2020-01-26T20:26:17Z</time>
      </trkpt>
      <trkpt lat="9.9102550" lon="-84.0367680">
        <ele>1207.6</ele>
        <time>2020-01-26T20:26:18Z</time>
      </trkpt>
      <trkpt lat="9.9101770" lon="-84.0368740">
        <ele>1207.1</ele>
        <time>2020-01-26T20:26:20Z</time>
      </trkpt>
      <trkpt lat="9.9101000" lon="-84.0369810">
        <ele>1206.7</ele>
        <time>2020-01-26T20:26:22Z</time>
      </trkpt>
      <trkpt lat="9.9100560" lon="-84.0370370">
        <ele>1206.6</ele>
        <time>2020-01-26T20:26:23Z</time>
      </trkpt>
      <trkpt lat="9.9100160" lon="-84.0370970">
        <ele>1206.4</ele>
        <time>2020-01-26T20:26:24Z</time>
      </trkpt>
      <trkpt lat="9.9099780" lon="-84.0371630">
        <ele>1206.3</ele>
        <time>2020-01-26T20:26:25Z</time>
      </trkpt>
      <trkpt lat="9.9098960" lon="-84.0372900">
        <ele>1206.0</ele>
        <time>2020-01-26T20:26:27Z</time>
      </trkpt>
      <trkpt lat="9.9098570" lon="-84.0373560">
        <ele>1205.8</ele>
        <time>2020-01-26T20:26:28Z</time>
      </trkpt>
      <trkpt lat="9.9098170" lon="-84.0374240">
        <ele>1205.5</ele>
        <time>2020-01-26T20:26:29Z</time>
      </trkpt>
      <trkpt lat="9.9097370" lon="-84.0375660">
        <ele>1204.6</ele>
        <time>2020-01-26T20:26:31Z</time>
      </trkpt>
      <trkpt lat="9.9096990" lon="-84.0376420">
        <ele>1204.2</ele>
        <time>2020-01-26T20:26:32Z</time>
      </trkpt>
      <trkpt lat="9.9096650" lon="-84.0377150">
        <ele>1203.8</ele>
        <time>2020-01-26T20:26:33Z</time>
      </trkpt>
      <trkpt lat="9.9096060" lon="-84.0378620">
        <ele>1203.0</ele>
        <time>2020-01-26T20:26:35Z</time>
      </trkpt>
      <trkpt lat="9.9095550" lon="-84.0380160">
        <ele>1201.9</ele>
        <time>2020-01-26T20:26:37Z</time>
      </trkpt>
      <trkpt lat="9.9095210" lon="-84.0381780">
        <ele>1200.4</ele>
        <time>2020-01-26T20:26:39Z</time>
      </trkpt>
      <trkpt lat="9.9095080" lon="-84.0382620">
        <ele>1199.3</ele>
        <time>2020-01-26T20:26:40Z</time>
      </trkpt>
      <trkpt lat="9.9094820" lon="-84.0384280">
        <ele>1196.6</ele>
        <time>2020-01-26T20:26:42Z</time>
      </trkpt>
      <trkpt lat="9.9094760" lon="-84.0384740">
        <ele>1195.8</ele>
        <time>2020-01-26T20:26:43Z</time>
      </trkpt>
      <trkpt lat="9.9094670" lon="-84.0385340">
        <ele>1194.9</ele>
        <time>2020-01-26T20:26:45Z</time>
      </trkpt>
      <trkpt lat="9.9094600" lon="-84.0385640">
        <ele>1194.4</ele>
        <time>2020-01-26T20:26:46Z</time>
      </trkpt>
      <trkpt lat="9.9094490" lon="-84.0386240">
        <ele>1193.5</ele>
        <time>2020-01-26T20:26:48Z</time>
      </trkpt>
      <trkpt lat="9.9094480" lon="-84.0386410">
        <ele>1193.3</ele>
        <time>2020-01-26T20:26:49Z</time>
      </trkpt>
      <trkpt lat="9.9094460" lon="-84.0386550">
        <ele>1193.1</ele>
        <time>2020-01-26T20:26:50Z</time>
      </trkpt>
      <trkpt lat="9.9094450" lon="-84.0386380">
        <ele>1192.9</ele>
        <time>2020-01-26T20:26:52Z</time>
      </trkpt>
      <trkpt lat="9.9094410" lon="-84.0387040">
        <ele>1192.3</ele>
        <time>2020-01-26T20:26:54Z</time>
      </trkpt>
      <trkpt lat="9.9094420" lon="-84.0387440">
        <ele>1192.1</ele>
        <time>2020-01-26T20:26:55Z</time>
      </trkpt>
      <trkpt lat="9.9094420" lon="-84.0387620">
        <ele>1192.0</ele>
        <time>2020-01-26T20:26:56Z</time>
      </trkpt>
      <trkpt lat="9.9094400" lon="-84.0388040">
        <ele>1191.8</ele>
        <time>2020-01-26T20:26:57Z</time>
      </trkpt>
      <trkpt lat="9.9094060" lon="-84.0389160">
        <ele>1191.6</ele>
        <time>2020-01-26T20:26:59Z</time>
      </trkpt>
      <trkpt lat="9.9093830" lon="-84.0390200">
        <ele>1192.1</ele>
        <time>2020-01-26T20:27:01Z</time>
      </trkpt>
      <trkpt lat="9.9093650" lon="-84.0390850">
        <ele>1192.4</ele>
        <time>2020-01-26T20:27:02Z</time>
      </trkpt>
      <trkpt lat="9.9093450" lon="-84.0391500">
        <ele>1192.6</ele>
        <time>2020-01-26T20:27:03Z</time>
      </trkpt>
      <trkpt lat="9.9093080" lon="-84.0392640">
        <ele>1193.0</ele>
        <time>2020-01-26T20:27:05Z</time>
      </trkpt>
      <trkpt lat="9.9092650" lon="-84.0393690">
        <ele>1193.5</ele>
        <time>2020-01-26T20:27:07Z</time>
      </trkpt>
      <trkpt lat="9.9092380" lon="-84.0394350">
        <ele>1193.9</ele>
        <time>2020-01-26T20:27:09Z</time>
      </trkpt>
      <trkpt lat="9.9092160" lon="-84.0394870">
        <ele>1194.3</ele>
        <time>2020-01-26T20:27:10Z</time>
      </trkpt>
      <trkpt lat="9.9091960" lon="-84.0395310">
        <ele>1194.6</ele>
        <time>2020-01-26T20:27:11Z</time>
      </trkpt>
      <trkpt lat="9.9091410" lon="-84.0396330">
        <ele>1193.6</ele>
        <time>2020-01-26T20:27:13Z</time>
      </trkpt>
      <trkpt lat="9.9091080" lon="-84.0396890">
        <ele>1192.9</ele>
        <time>2020-01-26T20:27:14Z</time>
      </trkpt>
      <trkpt lat="9.9090750" lon="-84.0397400">
        <ele>1192.3</ele>
        <time>2020-01-26T20:27:15Z</time>
      </trkpt>
      <trkpt lat="9.9090440" lon="-84.0397890">
        <ele>1191.8</ele>
        <time>2020-01-26T20:27:16Z</time>
      </trkpt>
      <trkpt lat="9.9089760" lon="-84.0398960">
        <ele>1189.7</ele>
        <time>2020-01-26T20:27:18Z</time>
      </trkpt>
      <trkpt lat="9.9089390" lon="-84.0399540">
        <ele>1188.9</ele>
        <time>2020-01-26T20:27:19Z</time>
      </trkpt>
      <trkpt lat="9.9088500" lon="-84.0400800">
        <ele>1187.0</ele>
        <time>2020-01-26T20:27:21Z</time>
      </trkpt>
      <trkpt lat="9.9087650" lon="-84.0402040">
        <ele>1183.9</ele>
        <time>2020-01-26T20:27:23Z</time>
      </trkpt>
      <trkpt lat="9.9087240" lon="-84.0402560">
        <ele>1182.7</ele>
        <time>2020-01-26T20:27:24Z</time>
      </trkpt>
      <trkpt lat="9.9086510" lon="-84.0403710">
        <ele>1181.5</ele>
        <time>2020-01-26T20:27:26Z</time>
      </trkpt>
      <trkpt lat="9.9086130" lon="-84.0404300">
        <ele>1180.9</ele>
        <time>2020-01-26T20:27:27Z</time>
      </trkpt>
      <trkpt lat="9.9085850" lon="-84.0404760">
        <ele>1180.4</ele>
        <time>2020-01-26T20:27:28Z</time>
      </trkpt>
      <trkpt lat="9.9085650" lon="-84.0405060">
        <ele>1180.0</ele>
        <time>2020-01-26T20:27:29Z</time>
      </trkpt>
      <trkpt lat="9.9085390" lon="-84.0405440">
        <ele>1179.7</ele>
        <time>2020-01-26T20:27:30Z</time>
      </trkpt>
      <trkpt lat="9.9084950" lon="-84.0406030">
        <ele>1179.4</ele>
        <time>2020-01-26T20:27:32Z</time>
      </trkpt>
      <trkpt lat="9.9084800" lon="-84.0406230">
        <ele>1179.3</ele>
        <time>2020-01-26T20:27:33Z</time>
      </trkpt>
      <trkpt lat="9.9084700" lon="-84.0406360">
        <ele>1179.3</ele>
        <time>2020-01-26T20:27:35Z</time>
      </trkpt>
      <trkpt lat="9.9084690" lon="-84.0406510">
        <ele>1179.2</ele>
        <time>2020-01-26T20:27:36Z</time>
      </trkpt>
      <trkpt lat="9.9084540" lon="-84.0406720">
        <ele>1179.1</ele>
        <time>2020-01-26T20:27:37Z</time>
      </trkpt>
      <trkpt lat="9.9083820" lon="-84.0407840">
        <ele>1179.0</ele>
        <time>2020-01-26T20:27:39Z</time>
      </trkpt>
      <trkpt lat="9.9083590" lon="-84.0408120">
        <ele>1179.0</ele>
        <time>2020-01-26T20:27:40Z</time>
      </trkpt>
      <trkpt lat="9.9083000" lon="-84.0408810">
        <ele>1178.9</ele>
        <time>2020-01-26T20:27:42Z</time>
      </trkpt>
      <trkpt lat="9.9082420" lon="-84.0409160">
        <ele>1179.0</ele>
        <time>2020-01-26T20:27:43Z</time>
      </trkpt>
      <trkpt lat="9.9081900" lon="-84.0409350">
        <ele>1179.2</ele>
        <time>2020-01-26T20:27:44Z</time>
      </trkpt>
      <trkpt lat="9.9080970" lon="-84.0409500">
        <ele>1179.7</ele>
        <time>2020-01-26T20:27:46Z</time>
      </trkpt>
      <trkpt lat="9.9080080" lon="-84.0409830">
        <ele>1180.7</ele>
        <time>2020-01-26T20:27:48Z</time>
      </trkpt>
      <trkpt lat="9.9079480" lon="-84.0410080">
        <ele>1181.2</ele>
        <time>2020-01-26T20:27:50Z</time>
      </trkpt>
      <trkpt lat="9.9079140" lon="-84.0410510">
        <ele>1181.6</ele>
        <time>2020-01-26T20:27:51Z</time>
      </trkpt>
      <trkpt lat="9.9078780" lon="-84.0411050">
        <ele>1182.1</ele>
        <time>2020-01-26T20:27:52Z</time>
      </trkpt>
      <trkpt lat="9.9078300" lon="-84.0411590">
        <ele>1182.7</ele>
        <time>2020-01-26T20:27:53Z</time>
      </trkpt>
      <trkpt lat="9.9077320" lon="-84.0412870">
        <ele>1183.8</ele>
        <time>2020-01-26T20:27:55Z</time>
      </trkpt>
      <trkpt lat="9.9076180" lon="-84.0414030">
        <ele>1184.6</ele>
        <time>2020-01-26T20:27:57Z</time>
      </trkpt>
      <trkpt lat="9.9075090" lon="-84.0415050">
        <ele>1184.5</ele>
        <time>2020-01-26T20:27:59Z</time>
      </trkpt>
      <trkpt lat="9.9074580" lon="-84.0415520">
        <ele>1184.3</ele>
        <time>2020-01-26T20:28:00Z</time>
      </trkpt>
      <trkpt lat="9.9073520" lon="-84.0416440">
        <ele>1184.0</ele>
        <time>2020-01-26T20:28:02Z</time>
      </trkpt>
      <trkpt lat="9.9073030" lon="-84.0416890">
        <ele>1184.0</ele>
        <time>2020-01-26T20:28:03Z</time>
      </trkpt>
      <trkpt lat="9.9072140" lon="-84.0417690">
        <ele>1183.2</ele>
        <time>2020-01-26T20:28:05Z</time>
      </trkpt>
      <trkpt lat="9.9071670" lon="-84.0418080">
        <ele>1183.0</ele>
        <time>2020-01-26T20:28:06Z</time>
      </trkpt>
      <trkpt lat="9.9071220" lon="-84.0418520">
        <ele>1182.8</ele>
        <time>2020-01-26T20:28:07Z</time>
      </trkpt>
      <trkpt lat="9.9070760" lon="-84.0419010">
        <ele>1182.6</ele>
        <time>2020-01-26T20:28:08Z</time>
      </trkpt>
      <trkpt lat="9.9069760" lon="-84.0420020">
        <ele>1182.1</ele>
        <time>2020-01-26T20:28:10Z</time>
      </trkpt>
      <trkpt lat="9.9068740" lon="-84.0421190">
        <ele>1181.5</ele>
        <time>2020-01-26T20:28:12Z</time>
      </trkpt>
      <trkpt lat="9.9068250" lon="-84.0421810">
        <ele>1181.0</ele>
        <time>2020-01-26T20:28:13Z</time>
      </trkpt>
      <trkpt lat="9.9067720" lon="-84.0422390">
        <ele>1180.5</ele>
        <time>2020-01-26T20:28:14Z</time>
      </trkpt>
      <trkpt lat="9.9066720" lon="-84.0423610">
        <ele>1179.4</ele>
        <time>2020-01-26T20:28:16Z</time>
      </trkpt>
      <trkpt lat="9.9066270" lon="-84.0424270">
        <ele>1178.8</ele>
        <time>2020-01-26T20:28:17Z</time>
      </trkpt>
      <trkpt lat="9.9065800" lon="-84.0424890">
        <ele>1178.2</ele>
        <time>2020-01-26T20:28:18Z</time>
      </trkpt>
      <trkpt lat="9.9065280" lon="-84.0425520">
        <ele>1177.7</ele>
        <time>2020-01-26T20:28:19Z</time>
      </trkpt>
      <trkpt lat="9.9064200" lon="-84.0426750">
        <ele>1176.6</ele>
        <time>2020-01-26T20:28:21Z</time>
      </trkpt>
      <trkpt lat="9.9063650" lon="-84.0427410">
        <ele>1176.1</ele>
        <time>2020-01-26T20:28:22Z</time>
      </trkpt>
      <trkpt lat="9.9062450" lon="-84.0428750">
        <ele>1175.9</ele>
        <time>2020-01-26T20:28:24Z</time>
      </trkpt>
      <trkpt lat="9.9061840" lon="-84.0429440">
        <ele>1176.5</ele>
        <time>2020-01-26T20:28:25Z</time>
      </trkpt>
      <trkpt lat="9.9061180" lon="-84.0430100">
        <ele>1177.1</ele>
        <time>2020-01-26T20:28:26Z</time>
      </trkpt>
      <trkpt lat="9.9060510" lon="-84.0430750">
        <ele>1177.8</ele>
        <time>2020-01-26T20:28:27Z</time>
      </trkpt>
      <trkpt lat="9.9059160" lon="-84.0431920">
        <ele>1179.0</ele>
        <time>2020-01-26T20:28:29Z</time>
      </trkpt>
      <trkpt lat="9.9058510" lon="-84.0432480">
        <ele>1179.6</ele>
        <time>2020-01-26T20:28:30Z</time>
      </trkpt>
      <trkpt lat="9.9057880" lon="-84.0433020">
        <ele>1180.1</ele>
        <time>2020-01-26T20:28:31Z</time>
      </trkpt>
      <trkpt lat="9.9056730" lon="-84.0434110">
        <ele>1181.0</ele>
        <time>2020-01-26T20:28:33Z</time>
      </trkpt>
      <trkpt lat="9.9056150" lon="-84.0434690">
        <ele>1181.4</ele>
        <time>2020-01-26T20:28:34Z</time>
      </trkpt>
      <trkpt lat="9.9055540" lon="-84.0435310">
        <ele>1181.8</ele>
        <time>2020-01-26T20:28:35Z</time>
      </trkpt>
      <trkpt lat="9.9054320" lon="-84.0436410">
        <ele>1181.8</ele>
        <time>2020-01-26T20:28:37Z</time>
      </trkpt>
      <trkpt lat="9.9053690" lon="-84.0436940">
        <ele>1181.5</ele>
        <time>2020-01-26T20:28:38Z</time>
      </trkpt>
      <trkpt lat="9.9052470" lon="-84.0438070">
        <ele>1180.9</ele>
        <time>2020-01-26T20:28:40Z</time>
      </trkpt>
      <trkpt lat="9.9051240" lon="-84.0439100">
        <ele>1180.5</ele>
        <time>2020-01-26T20:28:42Z</time>
      </trkpt>
      <trkpt lat="9.9050610" lon="-84.0439650">
        <ele>1180.1</ele>
        <time>2020-01-26T20:28:43Z</time>
      </trkpt>
      <trkpt lat="9.9049450" lon="-84.0440710">
        <ele>1179.5</ele>
        <time>2020-01-26T20:28:45Z</time>
      </trkpt>
      <trkpt lat="9.9048880" lon="-84.0441230">
        <ele>1179.2</ele>
        <time>2020-01-26T20:28:46Z</time>
      </trkpt>
      <trkpt lat="9.9047760" lon="-84.0442260">
        <ele>1178.3</ele>
        <time>2020-01-26T20:28:48Z</time>
      </trkpt>
      <trkpt lat="9.9047210" lon="-84.0442870">
        <ele>1177.8</ele>
        <time>2020-01-26T20:28:49Z</time>
      </trkpt>
      <trkpt lat="9.9046200" lon="-84.0444080">
        <ele>1176.8</ele>
        <time>2020-01-26T20:28:51Z</time>
      </trkpt>
      <trkpt lat="9.9045210" lon="-84.0445370">
        <ele>1176.3</ele>
        <time>2020-01-26T20:28:53Z</time>
      </trkpt>
      <trkpt lat="9.9044740" lon="-84.0446020">
        <ele>1176.1</ele>
        <time>2020-01-26T20:28:54Z</time>
      </trkpt>
      <trkpt lat="9.9044300" lon="-84.0446670">
        <ele>1176.0</ele>
        <time>2020-01-26T20:28:55Z</time>
      </trkpt>
      <trkpt lat="9.9043850" lon="-84.0447320">
        <ele>1176.0</ele>
        <time>2020-01-26T20:28:56Z</time>
      </trkpt>
      <trkpt lat="9.9043440" lon="-84.0447840">
        <ele>1175.9</ele>
        <time>2020-01-26T20:28:57Z</time>
      </trkpt>
      <trkpt lat="9.9042750" lon="-84.0448600">
        <ele>1175.9</ele>
        <time>2020-01-26T20:28:59Z</time>
      </trkpt>
      <trkpt lat="9.9042230" lon="-84.0449050">
        <ele>1175.9</ele>
        <time>2020-01-26T20:29:01Z</time>
      </trkpt>
      <trkpt lat="9.9042010" lon="-84.0449230">
        <ele>1176.0</ele>
        <time>2020-01-26T20:29:02Z</time>
      </trkpt>
      <trkpt lat="9.9041830" lon="-84.0449390">
        <ele>1176.0</ele>
        <time>2020-01-26T20:29:03Z</time>
      </trkpt>
      <trkpt lat="9.9041610" lon="-84.0449620">
        <ele>1176.0</ele>
        <time>2020-01-26T20:29:05Z</time>
      </trkpt>
      <trkpt lat="9.9041340" lon="-84.0449810">
        <ele>1176.0</ele>
        <time>2020-01-26T20:29:07Z</time>
      </trkpt>
      <trkpt lat="9.9041240" lon="-84.0449890">
        <ele>1176.0</ele>
        <time>2020-01-26T20:29:08Z</time>
      </trkpt>
      <trkpt lat="9.9041000" lon="-84.0450070">
        <ele>1176.0</ele>
        <time>2020-01-26T20:29:09Z</time>
      </trkpt>
      <trkpt lat="9.9040930" lon="-84.0450090">
        <ele>1176.0</ele>
        <time>2020-01-26T20:29:10Z</time>
      </trkpt>
      <trkpt lat="9.9040710" lon="-84.0450240">
        <ele>1176.0</ele>
        <time>2020-01-26T20:29:12Z</time>
      </trkpt>
      <trkpt lat="9.9040610" lon="-84.0450290">
        <ele>1176.0</ele>
        <time>2020-01-26T20:29:13Z</time>
      </trkpt>
      <trkpt lat="9.9040020" lon="-84.0450530">
        <ele>1176.0</ele>
        <time>2020-01-26T20:29:14Z</time>
      </trkpt>
      <trkpt lat="9.9038810" lon="-84.0450950">
        <ele>1175.9</ele>
        <time>2020-01-26T20:29:16Z</time>
      </trkpt>
      <trkpt lat="9.9038160" lon="-84.0451110">
        <ele>1175.9</ele>
        <time>2020-01-26T20:29:17Z</time>
      </trkpt>
      <trkpt lat="9.9037460" lon="-84.0451320">
        <ele>1175.8</ele>
        <time>2020-01-26T20:29:18Z</time>
      </trkpt>
      <trkpt lat="9.9036080" lon="-84.0451610">
        <ele>1175.8</ele>
        <time>2020-01-26T20:29:20Z</time>
      </trkpt>
      <trkpt lat="9.9035380" lon="-84.0451720">
        <ele>1175.9</ele>
        <time>2020-01-26T20:29:21Z</time>
      </trkpt>
      <trkpt lat="9.9034640" lon="-84.0451810">
        <ele>1175.9</ele>
        <time>2020-01-26T20:29:22Z</time>
      </trkpt>
      <trkpt lat="9.9033210" lon="-84.0451960">
        <ele>1176.0</ele>
        <time>2020-01-26T20:29:24Z</time>
      </trkpt>
      <trkpt lat="9.9032490" lon="-84.0452030">
        <ele>1175.9</ele>
        <time>2020-01-26T20:29:25Z</time>
      </trkpt>
      <trkpt lat="9.9031090" lon="-84.0452120">
        <ele>1176.0</ele>
        <time>2020-01-26T20:29:27Z</time>
      </trkpt>
      <trkpt lat="9.9030380" lon="-84.0452150">
        <ele>1176.0</ele>
        <time>2020-01-26T20:29:28Z</time>
      </trkpt>
      <trkpt lat="9.9028930" lon="-84.0452230">
        <ele>1175.6</ele>
        <time>2020-01-26T20:29:30Z</time>
      </trkpt>
      <trkpt lat="9.9028190" lon="-84.0452310">
        <ele>1175.3</ele>
        <time>2020-01-26T20:29:31Z</time>
      </trkpt>
      <trkpt lat="9.9027430" lon="-84.0452380">
        <ele>1175.0</ele>
        <time>2020-01-26T20:29:32Z</time>
      </trkpt>
      <trkpt lat="9.9026660" lon="-84.0452430">
        <ele>1174.6</ele>
        <time>2020-01-26T20:29:33Z</time>
      </trkpt>
      <trkpt lat="9.9025060" lon="-84.0452540">
        <ele>1173.9</ele>
        <time>2020-01-26T20:29:35Z</time>
      </trkpt>
      <trkpt lat="9.9024250" lon="-84.0452660">
        <ele>1173.8</ele>
        <time>2020-01-26T20:29:36Z</time>
      </trkpt>
      <trkpt lat="9.9022650" lon="-84.0452900">
        <ele>1174.1</ele>
        <time>2020-01-26T20:29:38Z</time>
      </trkpt>
      <trkpt lat="9.9021880" lon="-84.0453080">
        <ele>1174.3</ele>
        <time>2020-01-26T20:29:39Z</time>
      </trkpt>
      <trkpt lat="9.9021080" lon="-84.0453370">
        <ele>1174.9</ele>
        <time>2020-01-26T20:29:40Z</time>
      </trkpt>
      <trkpt lat="9.9019620" lon="-84.0454010">
        <ele>1175.5</ele>
        <time>2020-01-26T20:29:42Z</time>
      </trkpt>
      <trkpt lat="9.9018190" lon="-84.0455010">
        <ele>1175.9</ele>
        <time>2020-01-26T20:29:44Z</time>
      </trkpt>
      <trkpt lat="9.9017500" lon="-84.0455510">
        <ele>1176.0</ele>
        <time>2020-01-26T20:29:45Z</time>
      </trkpt>
      <trkpt lat="9.9016820" lon="-84.0456000">
        <ele>1176.0</ele>
        <time>2020-01-26T20:29:46Z</time>
      </trkpt>
      <trkpt lat="9.9016100" lon="-84.0456490">
        <ele>1176.1</ele>
        <time>2020-01-26T20:29:47Z</time>
      </trkpt>
      <trkpt lat="9.9014730" lon="-84.0457630">
        <ele>1176.1</ele>
        <time>2020-01-26T20:29:49Z</time>
      </trkpt>
      <trkpt lat="9.9014010" lon="-84.0458260">
        <ele>1176.1</ele>
        <time>2020-01-26T20:29:50Z</time>
      </trkpt>
      <trkpt lat="9.9012590" lon="-84.0459470">
        <ele>1175.5</ele>
        <time>2020-01-26T20:29:52Z</time>
      </trkpt>
      <trkpt lat="9.9011880" lon="-84.0460100">
        <ele>1174.9</ele>
        <time>2020-01-26T20:29:53Z</time>
      </trkpt>
      <trkpt lat="9.9011200" lon="-84.0460750">
        <ele>1174.4</ele>
        <time>2020-01-26T20:29:54Z</time>
      </trkpt>
      <trkpt lat="9.9009840" lon="-84.0462030">
        <ele>1173.5</ele>
        <time>2020-01-26T20:29:56Z</time>
      </trkpt>
      <trkpt lat="9.9009150" lon="-84.0462660">
        <ele>1172.9</ele>
        <time>2020-01-26T20:29:57Z</time>
      </trkpt>
      <trkpt lat="9.9008410" lon="-84.0463180">
        <ele>1172.4</ele>
        <time>2020-01-26T20:29:58Z</time>
      </trkpt>
      <trkpt lat="9.9007070" lon="-84.0464310">
        <ele>1171.4</ele>
        <time>2020-01-26T20:30:00Z</time>
      </trkpt>
      <trkpt lat="9.9006360" lon="-84.0464920">
        <ele>1171.1</ele>
        <time>2020-01-26T20:30:01Z</time>
      </trkpt>
      <trkpt lat="9.9005010" lon="-84.0466190">
        <ele>1170.4</ele>
        <time>2020-01-26T20:30:03Z</time>
      </trkpt>
      <trkpt lat="9.9003730" lon="-84.0467530">
        <ele>1169.4</ele>
        <time>2020-01-26T20:30:05Z</time>
      </trkpt>
      <trkpt lat="9.9002510" lon="-84.0468830">
        <ele>1169.2</ele>
        <time>2020-01-26T20:30:07Z</time>
      </trkpt>
      <trkpt lat="9.9001930" lon="-84.0469440">
        <ele>1169.2</ele>
        <time>2020-01-26T20:30:08Z</time>
      </trkpt>
      <trkpt lat="9.9001350" lon="-84.0469980">
        <ele>1169.2</ele>
        <time>2020-01-26T20:30:09Z</time>
      </trkpt>
      <trkpt lat="9.9000500" lon="-84.0470940">
        <ele>1169.1</ele>
        <time>2020-01-26T20:30:11Z</time>
      </trkpt>
      <trkpt lat="9.9000150" lon="-84.0471290">
        <ele>1169.0</ele>
        <time>2020-01-26T20:30:12Z</time>
      </trkpt>
      <trkpt lat="9.8999720" lon="-84.0471730">
        <ele>1168.9</ele>
        <time>2020-01-26T20:30:14Z</time>
      </trkpt>
      <trkpt lat="9.8999430" lon="-84.0472050">
        <ele>1168.8</ele>
        <time>2020-01-26T20:30:16Z</time>
      </trkpt>
      <trkpt lat="9.8999350" lon="-84.0472160">
        <ele>1168.8</ele>
        <time>2020-01-26T20:30:17Z</time>
      </trkpt>
      <trkpt lat="9.8999320" lon="-84.0472170">
        <ele>1168.8</ele>
        <time>2020-01-26T20:30:18Z</time>
      </trkpt>
      <trkpt lat="9.8999310" lon="-84.0472130">
        <ele>1168.8</ele>
        <time>2020-01-26T20:30:20Z</time>
      </trkpt>
      <trkpt lat="9.8999230" lon="-84.0471870">
        <ele>1168.7</ele>
        <time>2020-01-26T20:30:22Z</time>
      </trkpt>
      <trkpt lat="9.8999180" lon="-84.0471670">
        <ele>1168.7</ele>
        <time>2020-01-26T20:30:24Z</time>
      </trkpt>
      <trkpt lat="9.8999070" lon="-84.0471690">
        <ele>1168.7</ele>
        <time>2020-01-26T20:30:25Z</time>
      </trkpt>
      <trkpt lat="9.8999080" lon="-84.0471790">
        <ele>1168.6</ele>
        <time>2020-01-26T20:30:27Z</time>
      </trkpt>
      <trkpt lat="9.8999110" lon="-84.0471830">
        <ele>1168.6</ele>
        <time>2020-01-26T20:30:29Z</time>
      </trkpt>
      <trkpt lat="9.8999130" lon="-84.0471820">
        <ele>1168.6</ele>
        <time>2020-01-26T20:30:30Z</time>
      </trkpt>
      <trkpt lat="9.8999140" lon="-84.0471820">
        <ele>1168.6</ele>
        <time>2020-01-26T20:30:31Z</time>
      </trkpt>
      <trkpt lat="9.8999180" lon="-84.0471850">
        <ele>1168.6</ele>
        <time>2020-01-26T20:30:33Z</time>
      </trkpt>
      <trkpt lat="9.8999130" lon="-84.0472220">
        <ele>1168.5</ele>
        <time>2020-01-26T20:30:35Z</time>
      </trkpt>
      <trkpt lat="9.8999030" lon="-84.0472420">
        <ele>1168.5</ele>
        <time>2020-01-26T20:30:37Z</time>
      </trkpt>
      <trkpt lat="9.8998970" lon="-84.0472550">
        <ele>1168.5</ele>
        <time>2020-01-26T20:30:39Z</time>
      </trkpt>
      <trkpt lat="9.8999040" lon="-84.0472470">
        <ele>1168.5</ele>
        <time>2020-01-26T20:30:41Z</time>
      </trkpt>
      <trkpt lat="9.8999040" lon="-84.0472450">
        <ele>1168.5</ele>
        <time>2020-01-26T20:30:42Z</time>
      </trkpt>
      <trkpt lat="9.8999040" lon="-84.0472470">
        <ele>1168.4</ele>
        <time>2020-01-26T20:30:43Z</time>
      </trkpt>
      <trkpt lat="9.8999040" lon="-84.0472500">
        <ele>1168.4</ele>
        <time>2020-01-26T20:30:44Z</time>
      </trkpt>
      <trkpt lat="9.8999060" lon="-84.0472550">
        <ele>1168.4</ele>
        <time>2020-01-26T20:30:46Z</time>
      </trkpt>
      <trkpt lat="9.8999020" lon="-84.0472630">
        <ele>1168.4</ele>
        <time>2020-01-26T20:30:47Z</time>
      </trkpt>
      <trkpt lat="9.8998940" lon="-84.0472760">
        <ele>1168.4</ele>
        <time>2020-01-26T20:30:48Z</time>
      </trkpt>
      <trkpt lat="9.8998860" lon="-84.0472890">
        <ele>1168.4</ele>
        <time>2020-01-26T20:30:50Z</time>
      </trkpt>
      <trkpt lat="9.8998830" lon="-84.0472920">
        <ele>1168.4</ele>
        <time>2020-01-26T20:30:51Z</time>
      </trkpt>
      <trkpt lat="9.8998830" lon="-84.0472900">
        <ele>1168.4</ele>
        <time>2020-01-26T20:30:52Z</time>
      </trkpt>
      <trkpt lat="9.8998810" lon="-84.0472930">
        <ele>1168.4</ele>
        <time>2020-01-26T20:30:54Z</time>
      </trkpt>
      <trkpt lat="9.8998630" lon="-84.0473250">
        <ele>1168.3</ele>
        <time>2020-01-26T20:30:56Z</time>
      </trkpt>
      <trkpt lat="9.8998460" lon="-84.0473540">
        <ele>1168.2</ele>
        <time>2020-01-26T20:30:57Z</time>
      </trkpt>
      <trkpt lat="9.8997920" lon="-84.0474460">
        <ele>1168.2</ele>
        <time>2020-01-26T20:30:59Z</time>
      </trkpt>
      <trkpt lat="9.8997440" lon="-84.0475610">
        <ele>1168.1</ele>
        <time>2020-01-26T20:31:01Z</time>
      </trkpt>
      <trkpt lat="9.8997220" lon="-84.0476270">
        <ele>1168.0</ele>
        <time>2020-01-26T20:31:02Z</time>
      </trkpt>
      <trkpt lat="9.8997030" lon="-84.0477020">
        <ele>1167.9</ele>
        <time>2020-01-26T20:31:03Z</time>
      </trkpt>
      <trkpt lat="9.8996550" lon="-84.0478640">
        <ele>1167.3</ele>
        <time>2020-01-26T20:31:05Z</time>
      </trkpt>
      <trkpt lat="9.8996340" lon="-84.0479490">
        <ele>1167.1</ele>
        <time>2020-01-26T20:31:06Z</time>
      </trkpt>
      <trkpt lat="9.8996080" lon="-84.0480330">
        <ele>1166.8</ele>
        <time>2020-01-26T20:31:07Z</time>
      </trkpt>
      <trkpt lat="9.8995380" lon="-84.0481950">
        <ele>1165.9</ele>
        <time>2020-01-26T20:31:09Z</time>
      </trkpt>
      <trkpt lat="9.8994960" lon="-84.0482740">
        <ele>1165.4</ele>
        <time>2020-01-26T20:31:10Z</time>
      </trkpt>
      <trkpt lat="9.8994050" lon="-84.0484210">
        <ele>1165.0</ele>
        <time>2020-01-26T20:31:12Z</time>
      </trkpt>
      <trkpt lat="9.8993570" lon="-84.0484950">
        <ele>1164.9</ele>
        <time>2020-01-26T20:31:13Z</time>
      </trkpt>
      <trkpt lat="9.8993110" lon="-84.0485720">
        <ele>1164.9</ele>
        <time>2020-01-26T20:31:14Z</time>
      </trkpt>
      <trkpt lat="9.8992220" lon="-84.0487240">
        <ele>1165.4</ele>
        <time>2020-01-26T20:31:16Z</time>
      </trkpt>
      <trkpt lat="9.8991420" lon="-84.0488690">
        <ele>1165.8</ele>
        <time>2020-01-26T20:31:18Z</time>
      </trkpt>
      <trkpt lat="9.8990730" lon="-84.0490070">
        <ele>1166.4</ele>
        <time>2020-01-26T20:31:20Z</time>
      </trkpt>
      <trkpt lat="9.8990420" lon="-84.0490780">
        <ele>1166.2</ele>
        <time>2020-01-26T20:31:21Z</time>
      </trkpt>
      <trkpt lat="9.8989810" lon="-84.0492270">
        <ele>1165.8</ele>
        <time>2020-01-26T20:31:23Z</time>
      </trkpt>
      <trkpt lat="9.8989520" lon="-84.0493020">
        <ele>1165.6</ele>
        <time>2020-01-26T20:31:24Z</time>
      </trkpt>
      <trkpt lat="9.8988920" lon="-84.0494560">
        <ele>1164.9</ele>
        <time>2020-01-26T20:31:26Z</time>
      </trkpt>
      <trkpt lat="9.8988570" lon="-84.0495340">
        <ele>1164.9</ele>
        <time>2020-01-26T20:31:27Z</time>
      </trkpt>
      <trkpt lat="9.8987860" lon="-84.0496920">
        <ele>1165.4</ele>
        <time>2020-01-26T20:31:29Z</time>
      </trkpt>
      <trkpt lat="9.8987450" lon="-84.0497720">
        <ele>1165.8</ele>
        <time>2020-01-26T20:31:30Z</time>
      </trkpt>
      <trkpt lat="9.8986560" lon="-84.0499360">
        <ele>1166.3</ele>
        <time>2020-01-26T20:31:32Z</time>
      </trkpt>
      <trkpt lat="9.8986070" lon="-84.0500240">
        <ele>1166.5</ele>
        <time>2020-01-26T20:31:33Z</time>
      </trkpt>
      <trkpt lat="9.8985590" lon="-84.0501120">
        <ele>1166.8</ele>
        <time>2020-01-26T20:31:34Z</time>
      </trkpt>
      <trkpt lat="9.8984620" lon="-84.0502800">
        <ele>1166.7</ele>
        <time>2020-01-26T20:31:36Z</time>
      </trkpt>
      <trkpt lat="9.8983690" lon="-84.0504440">
        <ele>1166.2</ele>
        <time>2020-01-26T20:31:38Z</time>
      </trkpt>
      <trkpt lat="9.8983240" lon="-84.0505290">
        <ele>1166.0</ele>
        <time>2020-01-26T20:31:39Z</time>
      </trkpt>
      <trkpt lat="9.8982450" lon="-84.0506990">
        <ele>1165.7</ele>
        <time>2020-01-26T20:31:41Z</time>
      </trkpt>
      <trkpt lat="9.8981880" lon="-84.0508820">
        <ele>1165.6</ele>
        <time>2020-01-26T20:31:43Z</time>
      </trkpt>
      <trkpt lat="9.8981680" lon="-84.0509740">
        <ele>1165.4</ele>
        <time>2020-01-26T20:31:44Z</time>
      </trkpt>
      <trkpt lat="9.8981540" lon="-84.0510670">
        <ele>1165.1</ele>
        <time>2020-01-26T20:31:45Z</time>
      </trkpt>
      <trkpt lat="9.8981420" lon="-84.0512550">
        <ele>1166.4</ele>
        <time>2020-01-26T20:31:47Z</time>
      </trkpt>
      <trkpt lat="9.8981400" lon="-84.0513440">
        <ele>1167.0</ele>
        <time>2020-01-26T20:31:48Z</time>
      </trkpt>
      <trkpt lat="9.8981420" lon="-84.0515260">
        <ele>1168.6</ele>
        <time>2020-01-26T20:31:50Z</time>
      </trkpt>
      <trkpt lat="9.8981470" lon="-84.0517040">
        <ele>1168.9</ele>
        <time>2020-01-26T20:31:52Z</time>
      </trkpt>
      <trkpt lat="9.8981540" lon="-84.0517930">
        <ele>1168.4</ele>
        <time>2020-01-26T20:31:53Z</time>
      </trkpt>
      <trkpt lat="9.8981780" lon="-84.0519680">
        <ele>1167.4</ele>
        <time>2020-01-26T20:31:55Z</time>
      </trkpt>
      <trkpt lat="9.8982130" lon="-84.0521430">
        <ele>1166.2</ele>
        <time>2020-01-26T20:31:57Z</time>
      </trkpt>
      <trkpt lat="9.8982270" lon="-84.0522300">
        <ele>1165.8</ele>
        <time>2020-01-26T20:31:58Z</time>
      </trkpt>
      <trkpt lat="9.8982650" lon="-84.0524020">
        <ele>1165.0</ele>
        <time>2020-01-26T20:32:00Z</time>
      </trkpt>
      <trkpt lat="9.8982850" lon="-84.0524900">
        <ele>1164.5</ele>
        <time>2020-01-26T20:32:01Z</time>
      </trkpt>
      <trkpt lat="9.8983200" lon="-84.0526530">
        <ele>1162.6</ele>
        <time>2020-01-26T20:32:03Z</time>
      </trkpt>
      <trkpt lat="9.8983400" lon="-84.0527330">
        <ele>1162.1</ele>
        <time>2020-01-26T20:32:04Z</time>
      </trkpt>
      <trkpt lat="9.8983740" lon="-84.0528950">
        <ele>1161.2</ele>
        <time>2020-01-26T20:32:06Z</time>
      </trkpt>
      <trkpt lat="9.8984070" lon="-84.0530540">
        <ele>1162.3</ele>
        <time>2020-01-26T20:32:08Z</time>
      </trkpt>
      <trkpt lat="9.8984440" lon="-84.0532140">
        <ele>1163.3</ele>
        <time>2020-01-26T20:32:10Z</time>
      </trkpt>
      <trkpt lat="9.8984790" lon="-84.0533690">
        <ele>1164.0</ele>
        <time>2020-01-26T20:32:12Z</time>
      </trkpt>
      <trkpt lat="9.8984930" lon="-84.0534490">
        <ele>1164.1</ele>
        <time>2020-01-26T20:32:13Z</time>
      </trkpt>
      <trkpt lat="9.8985190" lon="-84.0535900">
        <ele>1164.4</ele>
        <time>2020-01-26T20:32:15Z</time>
      </trkpt>
      <trkpt lat="9.8985340" lon="-84.0536590">
        <ele>1164.5</ele>
        <time>2020-01-26T20:32:16Z</time>
      </trkpt>
      <trkpt lat="9.8985510" lon="-84.0537790">
        <ele>1164.7</ele>
        <time>2020-01-26T20:32:18Z</time>
      </trkpt>
      <trkpt lat="9.8985070" lon="-84.0538700">
        <ele>1165.2</ele>
        <time>2020-01-26T20:32:20Z</time>
      </trkpt>
      <trkpt lat="9.8984570" lon="-84.0539140">
        <ele>1165.5</ele>
        <time>2020-01-26T20:32:21Z</time>
      </trkpt>
      <trkpt lat="9.8983960" lon="-84.0539400">
        <ele>1165.8</ele>
        <time>2020-01-26T20:32:22Z</time>
      </trkpt>
      <trkpt lat="9.8982840" lon="-84.0539730">
        <ele>1166.3</ele>
        <time>2020-01-26T20:32:24Z</time>
      </trkpt>
      <trkpt lat="9.8982300" lon="-84.0539840">
        <ele>1166.5</ele>
        <time>2020-01-26T20:32:25Z</time>
      </trkpt>
      <trkpt lat="9.8981750" lon="-84.0539920">
        <ele>1166.7</ele>
        <time>2020-01-26T20:32:26Z</time>
      </trkpt>
      <trkpt lat="9.8981210" lon="-84.0540020">
        <ele>1166.9</ele>
        <time>2020-01-26T20:32:27Z</time>
      </trkpt>
      <trkpt lat="9.8980270" lon="-84.0540300">
        <ele>1167.2</ele>
        <time>2020-01-26T20:32:29Z</time>
      </trkpt>
      <trkpt lat="9.8979360" lon="-84.0540620">
        <ele>1167.6</ele>
        <time>2020-01-26T20:32:31Z</time>
      </trkpt>
      <trkpt lat="9.8978890" lon="-84.0540750">
        <ele>1167.8</ele>
        <time>2020-01-26T20:32:32Z</time>
      </trkpt>
      <trkpt lat="9.8978420" lon="-84.0540860">
        <ele>1168.0</ele>
        <time>2020-01-26T20:32:33Z</time>
      </trkpt>
      <trkpt lat="9.8977500" lon="-84.0541070">
        <ele>1168.5</ele>
        <time>2020-01-26T20:32:35Z</time>
      </trkpt>
      <trkpt lat="9.8976650" lon="-84.0541250">
        <ele>1168.9</ele>
        <time>2020-01-26T20:32:37Z</time>
      </trkpt>
      <trkpt lat="9.8975800" lon="-84.0541450">
        <ele>1169.3</ele>
        <time>2020-01-26T20:32:39Z</time>
      </trkpt>
      <trkpt lat="9.8975220" lon="-84.0541600">
        <ele>1169.5</ele>
        <time>2020-01-26T20:32:41Z</time>
      </trkpt>
      <trkpt lat="9.8974970" lon="-84.0541730">
        <ele>1169.6</ele>
        <time>2020-01-26T20:32:42Z</time>
      </trkpt>
      <trkpt lat="9.8974700" lon="-84.0541800">
        <ele>1169.7</ele>
        <time>2020-01-26T20:32:43Z</time>
      </trkpt>
      <trkpt lat="9.8974100" lon="-84.0541980">
        <ele>1170.0</ele>
        <time>2020-01-26T20:32:44Z</time>
      </trkpt>
      <trkpt lat="9.8973350" lon="-84.0542230">
        <ele>1170.2</ele>
        <time>2020-01-26T20:32:46Z</time>
      </trkpt>
      <trkpt lat="9.8972850" lon="-84.0542330">
        <ele>1170.4</ele>
        <time>2020-01-26T20:32:47Z</time>
      </trkpt>
      <trkpt lat="9.8972420" lon="-84.0542470">
        <ele>1170.5</ele>
        <time>2020-01-26T20:32:48Z</time>
      </trkpt>
      <trkpt lat="9.8971990" lon="-84.0542730">
        <ele>1170.6</ele>
        <time>2020-01-26T20:32:49Z</time>
      </trkpt>
      <trkpt lat="9.8971620" lon="-84.0542920">
        <ele>1170.7</ele>
        <time>2020-01-26T20:32:50Z</time>
      </trkpt>
      <trkpt lat="9.8971180" lon="-84.0543190">
        <ele>1170.8</ele>
        <time>2020-01-26T20:32:52Z</time>
      </trkpt>
      <trkpt lat="9.8970650" lon="-84.0543530">
        <ele>1170.9</ele>
        <time>2020-01-26T20:32:53Z</time>
      </trkpt>
      <trkpt lat="9.8970260" lon="-84.0543870">
        <ele>1171.0</ele>
        <time>2020-01-26T20:32:54Z</time>
      </trkpt>
      <trkpt lat="9.8970060" lon="-84.0544070">
        <ele>1171.1</ele>
        <time>2020-01-26T20:32:55Z</time>
      </trkpt>
      <trkpt lat="9.8969330" lon="-84.0544860">
        <ele>1170.1</ele>
        <time>2020-01-26T20:32:57Z</time>
      </trkpt>
      <trkpt lat="9.8969080" lon="-84.0545220">
        <ele>1169.9</ele>
        <time>2020-01-26T20:32:58Z</time>
      </trkpt>
      <trkpt lat="9.8968810" lon="-84.0545600">
        <ele>1169.7</ele>
        <time>2020-01-26T20:32:59Z</time>
      </trkpt>
      <trkpt lat="9.8968460" lon="-84.0546070">
        <ele>1169.4</ele>
        <time>2020-01-26T20:33:01Z</time>
      </trkpt>
      <trkpt lat="9.8967850" lon="-84.0546660">
        <ele>1169.1</ele>
        <time>2020-01-26T20:33:02Z</time>
      </trkpt>
      <trkpt lat="9.8967130" lon="-84.0547470">
        <ele>1168.8</ele>
        <time>2020-01-26T20:33:04Z</time>
      </trkpt>
      <trkpt lat="9.8966840" lon="-84.0547950">
        <ele>1168.6</ele>
        <time>2020-01-26T20:33:05Z</time>
      </trkpt>
      <trkpt lat="9.8966250" lon="-84.0548850">
        <ele>1167.7</ele>
        <time>2020-01-26T20:33:07Z</time>
      </trkpt>
      <trkpt lat="9.8965820" lon="-84.0549980">
        <ele>1167.8</ele>
        <time>2020-01-26T20:33:09Z</time>
      </trkpt>
      <trkpt lat="9.8965730" lon="-84.0550590">
        <ele>1167.9</ele>
        <time>2020-01-26T20:33:10Z</time>
      </trkpt>
      <trkpt lat="9.8965730" lon="-84.0551220">
        <ele>1168.2</ele>
        <time>2020-01-26T20:33:11Z</time>
      </trkpt>
      <trkpt lat="9.8965680" lon="-84.0552490">
        <ele>1168.7</ele>
        <time>2020-01-26T20:33:13Z</time>
      </trkpt>
      <trkpt lat="9.8965650" lon="-84.0553100">
        <ele>1169.1</ele>
        <time>2020-01-26T20:33:14Z</time>
      </trkpt>
      <trkpt lat="9.8965720" lon="-84.0553670">
        <ele>1169.3</ele>
        <time>2020-01-26T20:33:15Z</time>
      </trkpt>
      <trkpt lat="9.8965970" lon="-84.0554750">
        <ele>1169.8</ele>
        <time>2020-01-26T20:33:17Z</time>
      </trkpt>
      <trkpt lat="9.8966430" lon="-84.0555580">
        <ele>1170.2</ele>
        <time>2020-01-26T20:33:19Z</time>
      </trkpt>
      <trkpt lat="9.8966660" lon="-84.0555930">
        <ele>1170.3</ele>
        <time>2020-01-26T20:33:20Z</time>
      </trkpt>
      <trkpt lat="9.8966810" lon="-84.0556220">
        <ele>1170.5</ele>
        <time>2020-01-26T20:33:21Z</time>
      </trkpt>
      <trkpt lat="9.8966830" lon="-84.0556570">
        <ele>1170.6</ele>
        <time>2020-01-26T20:33:22Z</time>
      </trkpt>
      <trkpt lat="9.8966260" lon="-84.0557490">
        <ele>1168.7</ele>
        <time>2020-01-26T20:33:24Z</time>
      </trkpt>
      <trkpt lat="9.8965820" lon="-84.0557830">
        <ele>1167.9</ele>
        <time>2020-01-26T20:33:25Z</time>
      </trkpt>
      <trkpt lat="9.8964660" lon="-84.0558470">
        <ele>1165.9</ele>
        <time>2020-01-26T20:33:27Z</time>
      </trkpt>
      <trkpt lat="9.8963850" lon="-84.0558900">
        <ele>1164.5</ele>
        <time>2020-01-26T20:33:28Z</time>
      </trkpt>
      <trkpt lat="9.8961910" lon="-84.0559870">
        <ele>1162.0</ele>
        <time>2020-01-26T20:33:30Z</time>
      </trkpt>
      <trkpt lat="9.8960790" lon="-84.0560330">
        <ele>1160.6</ele>
        <time>2020-01-26T20:33:31Z</time>
      </trkpt>
      <trkpt lat="9.8958520" lon="-84.0561430">
        <ele>1158.8</ele>
        <time>2020-01-26T20:33:33Z</time>
      </trkpt>
      <trkpt lat="9.8956450" lon="-84.0562560">
        <ele>1157.4</ele>
        <time>2020-01-26T20:33:35Z</time>
      </trkpt>
      <trkpt lat="9.8954350" lon="-84.0563670">
        <ele>1156.6</ele>
        <time>2020-01-26T20:33:37Z</time>
      </trkpt>
      <trkpt lat="9.8953330" lon="-84.0564220">
        <ele>1156.9</ele>
        <time>2020-01-26T20:33:38Z</time>
      </trkpt>
      <trkpt lat="9.8952400" lon="-84.0564770">
        <ele>1157.2</ele>
        <time>2020-01-26T20:33:39Z</time>
      </trkpt>
      <trkpt lat="9.8951570" lon="-84.0565270">
        <ele>1157.4</ele>
        <time>2020-01-26T20:33:40Z</time>
      </trkpt>
      <trkpt lat="9.8949990" lon="-84.0566180">
        <ele>1157.9</ele>
        <time>2020-01-26T20:33:42Z</time>
      </trkpt>
      <trkpt lat="9.8948790" lon="-84.0566830">
        <ele>1158.2</ele>
        <time>2020-01-26T20:33:44Z</time>
      </trkpt>
      <trkpt lat="9.8948160" lon="-84.0567120">
        <ele>1158.4</ele>
        <time>2020-01-26T20:33:47Z</time>
      </trkpt>
      <trkpt lat="9.8948030" lon="-84.0567160">
        <ele>1158.4</ele>
        <time>2020-01-26T20:33:49Z</time>
      </trkpt>
      <trkpt lat="9.8948060" lon="-84.0567120">
        <ele>1158.4</ele>
        <time>2020-01-26T20:33:51Z</time>
      </trkpt>
      <trkpt lat="9.8948260" lon="-84.0567060">
        <ele>1158.5</ele>
        <time>2020-01-26T20:33:53Z</time>
      </trkpt>
      <trkpt lat="9.8948470" lon="-84.0566860">
        <ele>1158.5</ele>
        <time>2020-01-26T20:33:55Z</time>
      </trkpt>
      <trkpt lat="9.8948340" lon="-84.0566890">
        <ele>1158.6</ele>
        <time>2020-01-26T20:33:56Z</time>
      </trkpt>
      <trkpt lat="9.8948330" lon="-84.0566870">
        <ele>1158.6</ele>
        <time>2020-01-26T20:33:58Z</time>
      </trkpt>
      <trkpt lat="9.8948330" lon="-84.0566860">
        <ele>1158.6</ele>
        <time>2020-01-26T20:33:59Z</time>
      </trkpt>
      <trkpt lat="9.8948330" lon="-84.0566830">
        <ele>1158.6</ele>
        <time>2020-01-26T20:34:01Z</time>
      </trkpt>
      <trkpt lat="9.8948380" lon="-84.0566790">
        <ele>1158.6</ele>
        <time>2020-01-26T20:34:03Z</time>
      </trkpt>
      <trkpt lat="9.8948410" lon="-84.0566800">
        <ele>1158.6</ele>
        <time>2020-01-26T20:34:05Z</time>
      </trkpt>
      <trkpt lat="9.8948410" lon="-84.0566810">
        <ele>1158.6</ele>
        <time>2020-01-26T20:34:06Z</time>
      </trkpt>
      <trkpt lat="9.8948100" lon="-84.0567020">
        <ele>1158.7</ele>
        <time>2020-01-26T20:34:08Z</time>
      </trkpt>
      <trkpt lat="9.8948050" lon="-84.0567060">
        <ele>1158.7</ele>
        <time>2020-01-26T20:34:09Z</time>
      </trkpt>
      <trkpt lat="9.8948060" lon="-84.0567050">
        <ele>1158.7</ele>
        <time>2020-01-26T20:34:11Z</time>
      </trkpt>
      <trkpt lat="9.8948070" lon="-84.0567040">
        <ele>1158.7</ele>
        <time>2020-01-26T20:34:13Z</time>
      </trkpt>
      <trkpt lat="9.8948070" lon="-84.0567040">
        <ele>1158.7</ele>
        <time>2020-01-26T20:34:15Z</time>
      </trkpt>
      <trkpt lat="9.8948070" lon="-84.0567040">
        <ele>1158.7</ele>
        <time>2020-01-26T20:34:16Z</time>
      </trkpt>
      <trkpt lat="9.8948070" lon="-84.0567040">
        <ele>1158.7</ele>
        <time>2020-01-26T20:34:17Z</time>
      </trkpt>
      <trkpt lat="9.8948070" lon="-84.0567040">
        <ele>1158.7</ele>
        <time>2020-01-26T20:34:19Z</time>
      </trkpt>
      <trkpt lat="9.8948070" lon="-84.0567040">
        <ele>1158.7</ele>
        <time>2020-01-26T20:34:20Z</time>
      </trkpt>
      <trkpt lat="9.8948070" lon="-84.0567040">
        <ele>1158.7</ele>
        <time>2020-01-26T20:34:21Z</time>
      </trkpt>
      <trkpt lat="9.8948070" lon="-84.0567040">
        <ele>1158.7</ele>
        <time>2020-01-26T20:34:23Z</time>
      </trkpt>
      <trkpt lat="9.8948070" lon="-84.0567040">
        <ele>1158.7</ele>
        <time>2020-01-26T20:34:25Z</time>
      </trkpt>
      <trkpt lat="9.8948070" lon="-84.0567040">
        <ele>1158.7</ele>
        <time>2020-01-26T20:34:26Z</time>
      </trkpt>
      <trkpt lat="9.8948070" lon="-84.0567040">
        <ele>1158.7</ele>
        <time>2020-01-26T20:34:28Z</time>
      </trkpt>
      <trkpt lat="9.8948080" lon="-84.0567030">
        <ele>1158.7</ele>
        <time>2020-01-26T20:34:29Z</time>
      </trkpt>
      <trkpt lat="9.8948080" lon="-84.0567030">
        <ele>1158.7</ele>
        <time>2020-01-26T20:34:31Z</time>
      </trkpt>
      <trkpt lat="9.8948080" lon="-84.0567030">
        <ele>1158.7</ele>
        <time>2020-01-26T20:34:33Z</time>
      </trkpt>
      <trkpt lat="9.8948080" lon="-84.0567030">
        <ele>1158.7</ele>
        <time>2020-01-26T20:34:34Z</time>
      </trkpt>
      <trkpt lat="9.8948080" lon="-84.0567030">
        <ele>1158.7</ele>
        <time>2020-01-26T20:34:35Z</time>
      </trkpt>
      <trkpt lat="9.8948080" lon="-84.0567030">
        <ele>1158.7</ele>
        <time>2020-01-26T20:34:36Z</time>
      </trkpt>
      <trkpt lat="9.8948080" lon="-84.0567030">
        <ele>1158.7</ele>
        <time>2020-01-26T20:34:38Z</time>
      </trkpt>
      <trkpt lat="9.8948080" lon="-84.0567030">
        <ele>1158.7</ele>
        <time>2020-01-26T20:34:39Z</time>
      </trkpt>
      <trkpt lat="9.8948080" lon="-84.0567030">
        <ele>1158.7</ele>
        <time>2020-01-26T20:34:40Z</time>
      </trkpt>
      <trkpt lat="9.8948080" lon="-84.0567030">
        <ele>1158.7</ele>
        <time>2020-01-26T20:34:42Z</time>
      </trkpt>
      <trkpt lat="9.8948080" lon="-84.0567020">
        <ele>1158.7</ele>
        <time>2020-01-26T20:34:44Z</time>
      </trkpt>
      <trkpt lat="9.8948080" lon="-84.0567020">
        <ele>1158.7</ele>
        <time>2020-01-26T20:34:45Z</time>
      </trkpt>
      <trkpt lat="9.8948080" lon="-84.0567030">
        <ele>1158.7</ele>
        <time>2020-01-26T20:34:47Z</time>
      </trkpt>
      <trkpt lat="9.8948080" lon="-84.0567030">
        <ele>1158.7</ele>
        <time>2020-01-26T20:34:49Z</time>
      </trkpt>
      <trkpt lat="9.8948090" lon="-84.0566990">
        <ele>1158.7</ele>
        <time>2020-01-26T20:34:51Z</time>
      </trkpt>
      <trkpt lat="9.8948080" lon="-84.0566980">
        <ele>1158.7</ele>
        <time>2020-01-26T20:34:53Z</time>
      </trkpt>
      <trkpt lat="9.8948100" lon="-84.0566990">
        <ele>1158.7</ele>
        <time>2020-01-26T20:34:54Z</time>
      </trkpt>
      <trkpt lat="9.8948140" lon="-84.0566970">
        <ele>1158.7</ele>
        <time>2020-01-26T20:34:56Z</time>
      </trkpt>
      <trkpt lat="9.8948160" lon="-84.0566960">
        <ele>1158.7</ele>
        <time>2020-01-26T20:34:57Z</time>
      </trkpt>
      <trkpt lat="9.8948210" lon="-84.0566940">
        <ele>1158.7</ele>
        <time>2020-01-26T20:34:59Z</time>
      </trkpt>
      <trkpt lat="9.8948230" lon="-84.0566940">
        <ele>1158.7</ele>
        <time>2020-01-26T20:35:00Z</time>
      </trkpt>
      <trkpt lat="9.8948270" lon="-84.0566970">
        <ele>1158.8</ele>
        <time>2020-01-26T20:35:02Z</time>
      </trkpt>
      <trkpt lat="9.8948320" lon="-84.0566990">
        <ele>1158.8</ele>
        <time>2020-01-26T20:35:04Z</time>
      </trkpt>
      <trkpt lat="9.8948370" lon="-84.0567010">
        <ele>1158.8</ele>
        <time>2020-01-26T20:35:06Z</time>
      </trkpt>
      <trkpt lat="9.8948310" lon="-84.0567080">
        <ele>1158.8</ele>
        <time>2020-01-26T20:35:07Z</time>
      </trkpt>
      <trkpt lat="9.8948050" lon="-84.0567270">
        <ele>1158.8</ele>
        <time>2020-01-26T20:35:08Z</time>
      </trkpt>
      <trkpt lat="9.8947350" lon="-84.0567630">
        <ele>1159.0</ele>
        <time>2020-01-26T20:35:10Z</time>
      </trkpt>
      <trkpt lat="9.8946920" lon="-84.0567900">
        <ele>1159.1</ele>
        <time>2020-01-26T20:35:11Z</time>
      </trkpt>
      <trkpt lat="9.8945820" lon="-84.0568540">
        <ele>1159.1</ele>
        <time>2020-01-26T20:35:13Z</time>
      </trkpt>
      <trkpt lat="9.8944530" lon="-84.0569410">
        <ele>1159.2</ele>
        <time>2020-01-26T20:35:15Z</time>
      </trkpt>
      <trkpt lat="9.8943290" lon="-84.0570120">
        <ele>1159.5</ele>
        <time>2020-01-26T20:35:17Z</time>
      </trkpt>
      <trkpt lat="9.8942690" lon="-84.0570480">
        <ele>1159.7</ele>
        <time>2020-01-26T20:35:18Z</time>
      </trkpt>
      <trkpt lat="9.8941450" lon="-84.0571300">
        <ele>1159.2</ele>
        <time>2020-01-26T20:35:20Z</time>
      </trkpt>
      <trkpt lat="9.8940800" lon="-84.0571730">
        <ele>1158.9</ele>
        <time>2020-01-26T20:35:21Z</time>
      </trkpt>
      <trkpt lat="9.8940180" lon="-84.0572160">
        <ele>1158.6</ele>
        <time>2020-01-26T20:35:22Z</time>
      </trkpt>
      <trkpt lat="9.8938860" lon="-84.0572980">
        <ele>1157.9</ele>
        <time>2020-01-26T20:35:24Z</time>
      </trkpt>
      <trkpt lat="9.8937440" lon="-84.0573840">
        <ele>1157.2</ele>
        <time>2020-01-26T20:35:26Z</time>
      </trkpt>
      <trkpt lat="9.8936690" lon="-84.0574270">
        <ele>1156.8</ele>
        <time>2020-01-26T20:35:27Z</time>
      </trkpt>
      <trkpt lat="9.8935120" lon="-84.0575160">
        <ele>1156.2</ele>
        <time>2020-01-26T20:35:29Z</time>
      </trkpt>
      <trkpt lat="9.8933610" lon="-84.0576080">
        <ele>1156.4</ele>
        <time>2020-01-26T20:35:31Z</time>
      </trkpt>
      <trkpt lat="9.8932150" lon="-84.0577030">
        <ele>1156.7</ele>
        <time>2020-01-26T20:35:33Z</time>
      </trkpt>
      <trkpt lat="9.8930910" lon="-84.0578110">
        <ele>1156.9</ele>
        <time>2020-01-26T20:35:35Z</time>
      </trkpt>
      <trkpt lat="9.8929740" lon="-84.0579160">
        <ele>1157.1</ele>
        <time>2020-01-26T20:35:37Z</time>
      </trkpt>
      <trkpt lat="9.8929190" lon="-84.0579710">
        <ele>1157.1</ele>
        <time>2020-01-26T20:35:38Z</time>
      </trkpt>
      <trkpt lat="9.8928150" lon="-84.0580760">
        <ele>1157.2</ele>
        <time>2020-01-26T20:35:40Z</time>
      </trkpt>
      <trkpt lat="9.8927260" lon="-84.0581800">
        <ele>1157.2</ele>
        <time>2020-01-26T20:35:42Z</time>
      </trkpt>
      <trkpt lat="9.8926860" lon="-84.0582310">
        <ele>1157.2</ele>
        <time>2020-01-26T20:35:43Z</time>
      </trkpt>
      <trkpt lat="9.8926470" lon="-84.0582820">
        <ele>1157.3</ele>
        <time>2020-01-26T20:35:44Z</time>
      </trkpt>
      <trkpt lat="9.8925730" lon="-84.0583760">
        <ele>1157.9</ele>
        <time>2020-01-26T20:35:46Z</time>
      </trkpt>
      <trkpt lat="9.8925400" lon="-84.0584260">
        <ele>1158.4</ele>
        <time>2020-01-26T20:35:47Z</time>
      </trkpt>
      <trkpt lat="9.8924800" lon="-84.0585090">
        <ele>1159.3</ele>
        <time>2020-01-26T20:35:49Z</time>
      </trkpt>
      <trkpt lat="9.8924540" lon="-84.0585470">
        <ele>1159.7</ele>
        <time>2020-01-26T20:35:50Z</time>
      </trkpt>
      <trkpt lat="9.8924000" lon="-84.0586190">
        <ele>1159.4</ele>
        <time>2020-01-26T20:35:52Z</time>
      </trkpt>
      <trkpt lat="9.8923760" lon="-84.0586590">
        <ele>1159.4</ele>
        <time>2020-01-26T20:35:53Z</time>
      </trkpt>
      <trkpt lat="9.8923390" lon="-84.0587350">
        <ele>1159.2</ele>
        <time>2020-01-26T20:35:55Z</time>
      </trkpt>
      <trkpt lat="9.8923030" lon="-84.0588070">
        <ele>1159.0</ele>
        <time>2020-01-26T20:35:57Z</time>
      </trkpt>
      <trkpt lat="9.8922850" lon="-84.0588530">
        <ele>1158.9</ele>
        <time>2020-01-26T20:35:58Z</time>
      </trkpt>
      <trkpt lat="9.8922640" lon="-84.0588980">
        <ele>1158.8</ele>
        <time>2020-01-26T20:36:00Z</time>
      </trkpt>
      <trkpt lat="9.8922390" lon="-84.0589330">
        <ele>1158.9</ele>
        <time>2020-01-26T20:36:01Z</time>
      </trkpt>
      <trkpt lat="9.8922150" lon="-84.0589910">
        <ele>1159.1</ele>
        <time>2020-01-26T20:36:02Z</time>
      </trkpt>
      <trkpt lat="9.8921950" lon="-84.0590440">
        <ele>1159.2</ele>
        <time>2020-01-26T20:36:03Z</time>
      </trkpt>
      <trkpt lat="9.8921850" lon="-84.0590860">
        <ele>1159.4</ele>
        <time>2020-01-26T20:36:05Z</time>
      </trkpt>
      <trkpt lat="9.8921620" lon="-84.0591490">
        <ele>1159.5</ele>
        <time>2020-01-26T20:36:06Z</time>
      </trkpt>
      <trkpt lat="9.8921470" lon="-84.0591950">
        <ele>1159.7</ele>
        <time>2020-01-26T20:36:07Z</time>
      </trkpt>
      <trkpt lat="9.8921340" lon="-84.0592430">
        <ele>1159.8</ele>
        <time>2020-01-26T20:36:08Z</time>
      </trkpt>
      <trkpt lat="9.8921100" lon="-84.0593330">
        <ele>1159.9</ele>
        <time>2020-01-26T20:36:10Z</time>
      </trkpt>
      <trkpt lat="9.8921000" lon="-84.0593810">
        <ele>1160.0</ele>
        <time>2020-01-26T20:36:11Z</time>
      </trkpt>
      <trkpt lat="9.8920890" lon="-84.0594300">
        <ele>1160.0</ele>
        <time>2020-01-26T20:36:12Z</time>
      </trkpt>
      <trkpt lat="9.8920730" lon="-84.0595330">
        <ele>1160.1</ele>
        <time>2020-01-26T20:36:14Z</time>
      </trkpt>
      <trkpt lat="9.8920470" lon="-84.0596400">
        <ele>1160.1</ele>
        <time>2020-01-26T20:36:16Z</time>
      </trkpt>
      <trkpt lat="9.8920450" lon="-84.0597620">
        <ele>1160.2</ele>
        <time>2020-01-26T20:36:18Z</time>
      </trkpt>
      <trkpt lat="9.8920230" lon="-84.0598930">
        <ele>1160.2</ele>
        <time>2020-01-26T20:36:20Z</time>
      </trkpt>
      <trkpt lat="9.8920130" lon="-84.0600450">
        <ele>1159.4</ele>
        <time>2020-01-26T20:36:22Z</time>
      </trkpt>
      <trkpt lat="9.8920020" lon="-84.0602050">
        <ele>1158.4</ele>
        <time>2020-01-26T20:36:24Z</time>
      </trkpt>
      <trkpt lat="9.8919920" lon="-84.0603450">
        <ele>1157.4</ele>
        <time>2020-01-26T20:36:26Z</time>
      </trkpt>
      <trkpt lat="9.8919880" lon="-84.0604050">
        <ele>1157.4</ele>
        <time>2020-01-26T20:36:27Z</time>
      </trkpt>
      <trkpt lat="9.8919860" lon="-84.0604570">
        <ele>1157.4</ele>
        <time>2020-01-26T20:36:28Z</time>
      </trkpt>
      <trkpt lat="9.8919830" lon="-84.0605040">
        <ele>1157.5</ele>
        <time>2020-01-26T20:36:29Z</time>
      </trkpt>
      <trkpt lat="9.8919720" lon="-84.0605910">
        <ele>1157.7</ele>
        <time>2020-01-26T20:36:31Z</time>
      </trkpt>
      <trkpt lat="9.8919660" lon="-84.0606320">
        <ele>1157.7</ele>
        <time>2020-01-26T20:36:32Z</time>
      </trkpt>
      <trkpt lat="9.8919620" lon="-84.0606680">
        <ele>1157.8</ele>
        <time>2020-01-26T20:36:33Z</time>
      </trkpt>
      <trkpt lat="9.8919600" lon="-84.0607030">
        <ele>1157.8</ele>
        <time>2020-01-26T20:36:34Z</time>
      </trkpt>
      <trkpt lat="9.8919600" lon="-84.0607110">
        <ele>1157.8</ele>
        <time>2020-01-26T20:36:35Z</time>
      </trkpt>
      <trkpt lat="9.8919660" lon="-84.0607290">
        <ele>1157.9</ele>
        <time>2020-01-26T20:36:38Z</time>
      </trkpt>
      <trkpt lat="9.8919700" lon="-84.0607350">
        <ele>1157.9</ele>
        <time>2020-01-26T20:36:40Z</time>
      </trkpt>
      <trkpt lat="9.8919650" lon="-84.0607750">
        <ele>1158.0</ele>
        <time>2020-01-26T20:36:42Z</time>
      </trkpt>
      <trkpt lat="9.8919540" lon="-84.0608160">
        <ele>1158.1</ele>
        <time>2020-01-26T20:36:44Z</time>
      </trkpt>
      <trkpt lat="9.8919510" lon="-84.0608260">
        <ele>1158.1</ele>
        <time>2020-01-26T20:36:46Z</time>
      </trkpt>
      <trkpt lat="9.8919480" lon="-84.0608370">
        <ele>1158.2</ele>
        <time>2020-01-26T20:36:48Z</time>
      </trkpt>
      <trkpt lat="9.8919450" lon="-84.0608470">
        <ele>1158.2</ele>
        <time>2020-01-26T20:36:49Z</time>
      </trkpt>
      <trkpt lat="9.8919440" lon="-84.0608690">
        <ele>1158.3</ele>
        <time>2020-01-26T20:36:50Z</time>
      </trkpt>
      <trkpt lat="9.8919430" lon="-84.0608990">
        <ele>1158.4</ele>
        <time>2020-01-26T20:36:52Z</time>
      </trkpt>
      <trkpt lat="9.8919400" lon="-84.0609270">
        <ele>1158.5</ele>
        <time>2020-01-26T20:36:53Z</time>
      </trkpt>
      <trkpt lat="9.8919340" lon="-84.0609680">
        <ele>1158.6</ele>
        <time>2020-01-26T20:36:54Z</time>
      </trkpt>
      <trkpt lat="9.8919310" lon="-84.0610100">
        <ele>1158.8</ele>
        <time>2020-01-26T20:36:56Z</time>
      </trkpt>
      <trkpt lat="9.8919260" lon="-84.0610380">
        <ele>1158.9</ele>
        <time>2020-01-26T20:36:58Z</time>
      </trkpt>
      <trkpt lat="9.8919220" lon="-84.0610700">
        <ele>1159.0</ele>
        <time>2020-01-26T20:36:59Z</time>
      </trkpt>
      <trkpt lat="9.8919180" lon="-84.0611170">
        <ele>1159.2</ele>
        <time>2020-01-26T20:37:00Z</time>
      </trkpt>
      <trkpt lat="9.8919170" lon="-84.0611610">
        <ele>1159.5</ele>
        <time>2020-01-26T20:37:01Z</time>
      </trkpt>
      <trkpt lat="9.8919170" lon="-84.0612290">
        <ele>1160.1</ele>
        <time>2020-01-26T20:37:03Z</time>
      </trkpt>
      <trkpt lat="9.8919120" lon="-84.0612850">
        <ele>1160.6</ele>
        <time>2020-01-26T20:37:05Z</time>
      </trkpt>
      <trkpt lat="9.8919080" lon="-84.0613340">
        <ele>1161.1</ele>
        <time>2020-01-26T20:37:06Z</time>
      </trkpt>
      <trkpt lat="9.8919070" lon="-84.0613430">
        <ele>1161.2</ele>
        <time>2020-01-26T20:37:07Z</time>
      </trkpt>
      <trkpt lat="9.8919090" lon="-84.0613520">
        <ele>1161.3</ele>
        <time>2020-01-26T20:37:09Z</time>
      </trkpt>
      <trkpt lat="9.8919090" lon="-84.0613530">
        <ele>1161.3</ele>
        <time>2020-01-26T20:37:10Z</time>
      </trkpt>
      <trkpt lat="9.8919110" lon="-84.0613530">
        <ele>1161.3</ele>
        <time>2020-01-26T20:37:12Z</time>
      </trkpt>
      <trkpt lat="9.8919120" lon="-84.0613580">
        <ele>1161.4</ele>
        <time>2020-01-26T20:37:13Z</time>
      </trkpt>
      <trkpt lat="9.8919140" lon="-84.0613670">
        <ele>1161.5</ele>
        <time>2020-01-26T20:37:15Z</time>
      </trkpt>
      <trkpt lat="9.8919110" lon="-84.0613930">
        <ele>1161.7</ele>
        <time>2020-01-26T20:37:16Z</time>
      </trkpt>
      <trkpt lat="9.8918910" lon="-84.0614510">
        <ele>1162.3</ele>
        <time>2020-01-26T20:37:18Z</time>
      </trkpt>
      <trkpt lat="9.8918190" lon="-84.0615020">
        <ele>1163.1</ele>
        <time>2020-01-26T20:37:19Z</time>
      </trkpt>
      <trkpt lat="9.8917160" lon="-84.0615210">
        <ele>1163.6</ele>
        <time>2020-01-26T20:37:21Z</time>
      </trkpt>
      <trkpt lat="9.8916520" lon="-84.0615290">
        <ele>1163.8</ele>
        <time>2020-01-26T20:37:23Z</time>
      </trkpt>
      <trkpt lat="9.8915900" lon="-84.0615310">
        <ele>1164.1</ele>
        <time>2020-01-26T20:37:24Z</time>
      </trkpt>
      <trkpt lat="9.8914830" lon="-84.0615650">
        <ele>1164.7</ele>
        <time>2020-01-26T20:37:26Z</time>
      </trkpt>
      <trkpt lat="9.8913850" lon="-84.0616040">
        <ele>1165.0</ele>
        <time>2020-01-26T20:37:28Z</time>
      </trkpt>
      <trkpt lat="9.8913270" lon="-84.0616170">
        <ele>1165.2</ele>
        <time>2020-01-26T20:37:30Z</time>
      </trkpt>
      <trkpt lat="9.8912990" lon="-84.0616230">
        <ele>1165.4</ele>
        <time>2020-01-26T20:37:31Z</time>
      </trkpt>
      <trkpt lat="9.8912490" lon="-84.0616370">
        <ele>1165.7</ele>
        <time>2020-01-26T20:37:32Z</time>
      </trkpt>
      <trkpt lat="9.8911680" lon="-84.0617320">
        <ele>1166.5</ele>
        <time>2020-01-26T20:37:34Z</time>
      </trkpt>
      <trkpt lat="9.8911810" lon="-84.0617800">
        <ele>1166.7</ele>
        <time>2020-01-26T20:37:36Z</time>
      </trkpt>
      <trkpt lat="9.8911810" lon="-84.0618780">
        <ele>1167.1</ele>
        <time>2020-01-26T20:37:37Z</time>
      </trkpt>
      <trkpt lat="9.8911890" lon="-84.0619750">
        <ele>1167.5</ele>
        <time>2020-01-26T20:37:39Z</time>
      </trkpt>
      <trkpt lat="9.8912050" lon="-84.0620600">
        <ele>1167.7</ele>
        <time>2020-01-26T20:37:41Z</time>
      </trkpt>
      <trkpt lat="9.8912040" lon="-84.0621010">
        <ele>1167.7</ele>
        <time>2020-01-26T20:37:43Z</time>
      </trkpt>
      <trkpt lat="9.8912040" lon="-84.0621400">
        <ele>1167.7</ele>
        <time>2020-01-26T20:37:44Z</time>
      </trkpt>
      <trkpt lat="9.8911990" lon="-84.0621940">
        <ele>1167.6</ele>
        <time>2020-01-26T20:37:45Z</time>
      </trkpt>
      <trkpt lat="9.8912080" lon="-84.0623060">
        <ele>1167.6</ele>
        <time>2020-01-26T20:37:47Z</time>
      </trkpt>
      <trkpt lat="9.8912140" lon="-84.0623530">
        <ele>1167.5</ele>
        <time>2020-01-26T20:37:48Z</time>
      </trkpt>
      <trkpt lat="9.8912220" lon="-84.0624500">
        <ele>1167.5</ele>
        <time>2020-01-26T20:37:50Z</time>
      </trkpt>
      <trkpt lat="9.8912210" lon="-84.0624970">
        <ele>1167.4</ele>
        <time>2020-01-26T20:37:51Z</time>
      </trkpt>
      <trkpt lat="9.8912410" lon="-84.0625370">
        <ele>1167.3</ele>
        <time>2020-01-26T20:37:53Z</time>
      </trkpt>
      <trkpt lat="9.8912390" lon="-84.0625980">
        <ele>1167.2</ele>
        <time>2020-01-26T20:37:54Z</time>
      </trkpt>
      <trkpt lat="9.8912370" lon="-84.0626300">
        <ele>1167.1</ele>
        <time>2020-01-26T20:37:55Z</time>
      </trkpt>
      <trkpt lat="9.8912360" lon="-84.0626480">
        <ele>1167.1</ele>
        <time>2020-01-26T20:37:56Z</time>
      </trkpt>
      <trkpt lat="9.8912310" lon="-84.0626800">
        <ele>1167.0</ele>
        <time>2020-01-26T20:37:58Z</time>
      </trkpt>
      <trkpt lat="9.8912320" lon="-84.0626950">
        <ele>1167.0</ele>
        <time>2020-01-26T20:37:59Z</time>
      </trkpt>
      <trkpt lat="9.8912340" lon="-84.0627030">
        <ele>1167.0</ele>
        <time>2020-01-26T20:38:01Z</time>
      </trkpt>
      <trkpt lat="9.8912340" lon="-84.0627070">
        <ele>1167.0</ele>
        <time>2020-01-26T20:38:02Z</time>
      </trkpt>
      <trkpt lat="9.8912340" lon="-84.0627040">
        <ele>1167.0</ele>
        <time>2020-01-26T20:38:04Z</time>
      </trkpt>
      <trkpt lat="9.8912380" lon="-84.0627210">
        <ele>1166.9</ele>
        <time>2020-01-26T20:38:05Z</time>
      </trkpt>
      <trkpt lat="9.8912350" lon="-84.0627670">
        <ele>1166.8</ele>
        <time>2020-01-26T20:38:07Z</time>
      </trkpt>
      <trkpt lat="9.8912360" lon="-84.0627690">
        <ele>1166.6</ele>
        <time>2020-01-26T20:38:08Z</time>
      </trkpt>
      <trkpt lat="9.8912370" lon="-84.0627690">
        <ele>1166.6</ele>
        <time>2020-01-26T20:38:09Z</time>
      </trkpt>
      <trkpt lat="9.8912400" lon="-84.0627750">
        <ele>1166.7</ele>
        <time>2020-01-26T20:38:11Z</time>
      </trkpt>
      <trkpt lat="9.8912400" lon="-84.0627750">
        <ele>1166.7</ele>
        <time>2020-01-26T20:38:12Z</time>
      </trkpt>
      <trkpt lat="9.8912400" lon="-84.0627760">
        <ele>1166.7</ele>
        <time>2020-01-26T20:38:13Z</time>
      </trkpt>
      <trkpt lat="9.8912430" lon="-84.0627840">
        <ele>1166.7</ele>
        <time>2020-01-26T20:38:15Z</time>
      </trkpt>
      <trkpt lat="9.8912450" lon="-84.0627850">
        <ele>1166.7</ele>
        <time>2020-01-26T20:38:16Z</time>
      </trkpt>
      <trkpt lat="9.8912550" lon="-84.0628200">
        <ele>1167.0</ele>
        <time>2020-01-26T20:38:18Z</time>
      </trkpt>
      <trkpt lat="9.8912520" lon="-84.0628700">
        <ele>1167.2</ele>
        <time>2020-01-26T20:38:19Z</time>
      </trkpt>
      <trkpt lat="9.8911830" lon="-84.0628870">
        <ele>1167.4</ele>
        <time>2020-01-26T20:38:21Z</time>
      </trkpt>
      <trkpt lat="9.8911200" lon="-84.0628820">
        <ele>1167.6</ele>
        <time>2020-01-26T20:38:22Z</time>
      </trkpt>
      <trkpt lat="9.8910270" lon="-84.0628730">
        <ele>1167.9</ele>
        <time>2020-01-26T20:38:24Z</time>
      </trkpt>
      <trkpt lat="9.8909780" lon="-84.0628720">
        <ele>1168.1</ele>
        <time>2020-01-26T20:38:25Z</time>
      </trkpt>
      <trkpt lat="9.8909330" lon="-84.0628700">
        <ele>1168.2</ele>
        <time>2020-01-26T20:38:27Z</time>
      </trkpt>
      <trkpt lat="9.8908980" lon="-84.0628730">
        <ele>1168.3</ele>
        <time>2020-01-26T20:38:28Z</time>
      </trkpt>
      <trkpt lat="9.8908060" lon="-84.0628690">
        <ele>1168.5</ele>
        <time>2020-01-26T20:38:29Z</time>
      </trkpt>
      <trkpt lat="9.8907540" lon="-84.0628610">
        <ele>1168.7</ele>
        <time>2020-01-26T20:38:30Z</time>
      </trkpt>
      <trkpt lat="9.8906670" lon="-84.0628440">
        <ele>1168.9</ele>
        <time>2020-01-26T20:38:32Z</time>
      </trkpt>
      <trkpt lat="9.8906270" lon="-84.0628190">
        <ele>1169.0</ele>
        <time>2020-01-26T20:38:34Z</time>
      </trkpt>
      <trkpt lat="9.8905930" lon="-84.0628510">
        <ele>1169.1</ele>
        <time>2020-01-26T20:38:35Z</time>
      </trkpt>
      <trkpt lat="9.8905740" lon="-84.0628970">
        <ele>1169.2</ele>
        <time>2020-01-26T20:38:36Z</time>
      </trkpt>
      <trkpt lat="9.8905840" lon="-84.0630030">
        <ele>1169.2</ele>
        <time>2020-01-26T20:38:37Z</time>
      </trkpt>
      <trkpt lat="9.8905990" lon="-84.0631010">
        <ele>1169.7</ele>
        <time>2020-01-26T20:38:39Z</time>
      </trkpt>
      <trkpt lat="9.8906070" lon="-84.0631540">
        <ele>1170.1</ele>
        <time>2020-01-26T20:38:40Z</time>
      </trkpt>
      <trkpt lat="9.8906000" lon="-84.0631980">
        <ele>1170.4</ele>
        <time>2020-01-26T20:38:41Z</time>
      </trkpt>
      <trkpt lat="9.8905950" lon="-84.0632470">
        <ele>1170.8</ele>
        <time>2020-01-26T20:38:42Z</time>
      </trkpt>
      <trkpt lat="9.8905910" lon="-84.0633320">
        <ele>1171.1</ele>
        <time>2020-01-26T20:38:43Z</time>
      </trkpt>
      <trkpt lat="9.8905930" lon="-84.0633980">
        <ele>1171.2</ele>
        <time>2020-01-26T20:38:45Z</time>
      </trkpt>
      <trkpt lat="9.8905990" lon="-84.0634530">
        <ele>1171.1</ele>
        <time>2020-01-26T20:38:46Z</time>
      </trkpt>
      <trkpt lat="9.8906080" lon="-84.0635060">
        <ele>1171.0</ele>
        <time>2020-01-26T20:38:47Z</time>
      </trkpt>
      <trkpt lat="9.8906080" lon="-84.0635740">
        <ele>1170.9</ele>
        <time>2020-01-26T20:38:49Z</time>
      </trkpt>
      <trkpt lat="9.8906090" lon="-84.0636480">
        <ele>1170.8</ele>
        <time>2020-01-26T20:38:50Z</time>
      </trkpt>
      <trkpt lat="9.8906220" lon="-84.0637390">
        <ele>1170.3</ele>
        <time>2020-01-26T20:38:52Z</time>
      </trkpt>
      <trkpt lat="9.8906330" lon="-84.0637840">
        <ele>1169.8</ele>
        <time>2020-01-26T20:38:53Z</time>
      </trkpt>
      <trkpt lat="9.8906460" lon="-84.0638330">
        <ele>1169.3</ele>
        <time>2020-01-26T20:38:54Z</time>
      </trkpt>
      <trkpt lat="9.8906560" lon="-84.0638670">
        <ele>1169.0</ele>
        <time>2020-01-26T20:38:56Z</time>
      </trkpt>
      <trkpt lat="9.8906550" lon="-84.0639570">
        <ele>1168.6</ele>
        <time>2020-01-26T20:38:57Z</time>
      </trkpt>
      <trkpt lat="9.8906530" lon="-84.0640060">
        <ele>1168.5</ele>
        <time>2020-01-26T20:38:58Z</time>
      </trkpt>
      <trkpt lat="9.8906880" lon="-84.0641000">
        <ele>1168.2</ele>
        <time>2020-01-26T20:39:00Z</time>
      </trkpt>
      <trkpt lat="9.8906910" lon="-84.0641270">
        <ele>1168.1</ele>
        <time>2020-01-26T20:39:02Z</time>
      </trkpt>
      <trkpt lat="9.8906800" lon="-84.0641550">
        <ele>1168.0</ele>
        <time>2020-01-26T20:39:03Z</time>
      </trkpt>
      <trkpt lat="9.8906740" lon="-84.0641700">
        <ele>1167.9</ele>
        <time>2020-01-26T20:39:04Z</time>
      </trkpt>
      <trkpt lat="9.8906630" lon="-84.0642030">
        <ele>1167.8</ele>
        <time>2020-01-26T20:39:06Z</time>
      </trkpt>
      <trkpt lat="9.8906610" lon="-84.0642400">
        <ele>1167.7</ele>
        <time>2020-01-26T20:39:07Z</time>
      </trkpt>
      <trkpt lat="9.8906800" lon="-84.0642650">
        <ele>1167.7</ele>
        <time>2020-01-26T20:39:08Z</time>
      </trkpt>
      <trkpt lat="9.8907190" lon="-84.0642830">
        <ele>1167.5</ele>
        <time>2020-01-26T20:39:10Z</time>
      </trkpt>
      <trkpt lat="9.8907300" lon="-84.0643220">
        <ele>1167.5</ele>
        <time>2020-01-26T20:39:11Z</time>
      </trkpt>
      <trkpt lat="9.8907100" lon="-84.0643540">
        <ele>1167.4</ele>
        <time>2020-01-26T20:39:12Z</time>
      </trkpt>
      <trkpt lat="9.8906620" lon="-84.0643830">
        <ele>1167.3</ele>
        <time>2020-01-26T20:39:14Z</time>
      </trkpt>
      <trkpt lat="9.8905880" lon="-84.0643700">
        <ele>1167.1</ele>
        <time>2020-01-26T20:39:15Z</time>
      </trkpt>
      <trkpt lat="9.8905130" lon="-84.0643780">
        <ele>1166.9</ele>
        <time>2020-01-26T20:39:17Z</time>
      </trkpt>
      <trkpt lat="9.8904560" lon="-84.0643750">
        <ele>1166.8</ele>
        <time>2020-01-26T20:39:18Z</time>
      </trkpt>
      <trkpt lat="9.8903320" lon="-84.0644050">
        <ele>1166.5</ele>
        <time>2020-01-26T20:39:20Z</time>
      </trkpt>
      <trkpt lat="9.8902680" lon="-84.0644180">
        <ele>1166.4</ele>
        <time>2020-01-26T20:39:21Z</time>
      </trkpt>
      <trkpt lat="9.8901440" lon="-84.0644440">
        <ele>1166.2</ele>
        <time>2020-01-26T20:39:23Z</time>
      </trkpt>
      <trkpt lat="9.8900710" lon="-84.0644550">
        <ele>1166.0</ele>
        <time>2020-01-26T20:39:24Z</time>
      </trkpt>
      <trkpt lat="9.8899930" lon="-84.0644670">
        <ele>1165.9</ele>
        <time>2020-01-26T20:39:25Z</time>
      </trkpt>
      <trkpt lat="9.8898430" lon="-84.0644900">
        <ele>1165.6</ele>
        <time>2020-01-26T20:39:27Z</time>
      </trkpt>
      <trkpt lat="9.8897640" lon="-84.0645070">
        <ele>1165.3</ele>
        <time>2020-01-26T20:39:28Z</time>
      </trkpt>
      <trkpt lat="9.8895800" lon="-84.0645660">
        <ele>1164.8</ele>
        <time>2020-01-26T20:39:30Z</time>
      </trkpt>
      <trkpt lat="9.8894950" lon="-84.0646020">
        <ele>1164.7</ele>
        <time>2020-01-26T20:39:31Z</time>
      </trkpt>
      <trkpt lat="9.8893210" lon="-84.0646760">
        <ele>1164.5</ele>
        <time>2020-01-26T20:39:33Z</time>
      </trkpt>
      <trkpt lat="9.8892300" lon="-84.0647150">
        <ele>1164.4</ele>
        <time>2020-01-26T20:39:34Z</time>
      </trkpt>
      <trkpt lat="9.8891440" lon="-84.0647510">
        <ele>1164.2</ele>
        <time>2020-01-26T20:39:35Z</time>
      </trkpt>
      <trkpt lat="9.8889690" lon="-84.0648170">
        <ele>1163.5</ele>
        <time>2020-01-26T20:39:37Z</time>
      </trkpt>
      <trkpt lat="9.8888000" lon="-84.0648730">
        <ele>1162.8</ele>
        <time>2020-01-26T20:39:39Z</time>
      </trkpt>
      <trkpt lat="9.8886310" lon="-84.0649290">
        <ele>1161.8</ele>
        <time>2020-01-26T20:39:41Z</time>
      </trkpt>
      <trkpt lat="9.8885400" lon="-84.0649590">
        <ele>1161.2</ele>
        <time>2020-01-26T20:39:42Z</time>
      </trkpt>
      <trkpt lat="9.8883590" lon="-84.0650160">
        <ele>1160.2</ele>
        <time>2020-01-26T20:39:44Z</time>
      </trkpt>
      <trkpt lat="9.8882670" lon="-84.0650390">
        <ele>1159.6</ele>
        <time>2020-01-26T20:39:45Z</time>
      </trkpt>
      <trkpt lat="9.8880640" lon="-84.0651020">
        <ele>1160.0</ele>
        <time>2020-01-26T20:39:47Z</time>
      </trkpt>
      <trkpt lat="9.8879630" lon="-84.0651330">
        <ele>1161.0</ele>
        <time>2020-01-26T20:39:48Z</time>
      </trkpt>
      <trkpt lat="9.8877650" lon="-84.0651950">
        <ele>1161.6</ele>
        <time>2020-01-26T20:39:50Z</time>
      </trkpt>
      <trkpt lat="9.8876650" lon="-84.0652240">
        <ele>1161.7</ele>
        <time>2020-01-26T20:39:51Z</time>
      </trkpt>
      <trkpt lat="9.8874930" lon="-84.0652720">
        <ele>1161.9</ele>
        <time>2020-01-26T20:39:53Z</time>
      </trkpt>
      <trkpt lat="9.8874060" lon="-84.0652910">
        <ele>1162.1</ele>
        <time>2020-01-26T20:39:54Z</time>
      </trkpt>
      <trkpt lat="9.8873310" lon="-84.0653110">
        <ele>1162.3</ele>
        <time>2020-01-26T20:39:55Z</time>
      </trkpt>
      <trkpt lat="9.8872590" lon="-84.0653300">
        <ele>1162.4</ele>
        <time>2020-01-26T20:39:56Z</time>
      </trkpt>
      <trkpt lat="9.8871260" lon="-84.0653630">
        <ele>1162.5</ele>
        <time>2020-01-26T20:39:58Z</time>
      </trkpt>
      <trkpt lat="9.8870640" lon="-84.0653940">
        <ele>1162.6</ele>
        <time>2020-01-26T20:39:59Z</time>
      </trkpt>
      <trkpt lat="9.8869500" lon="-84.0654460">
        <ele>1162.7</ele>
        <time>2020-01-26T20:40:01Z</time>
      </trkpt>
      <trkpt lat="9.8868390" lon="-84.0654660">
        <ele>1162.9</ele>
        <time>2020-01-26T20:40:03Z</time>
      </trkpt>
      <trkpt lat="9.8868020" lon="-84.0654740">
        <ele>1163.2</ele>
        <time>2020-01-26T20:40:04Z</time>
      </trkpt>
      <trkpt lat="9.8867590" lon="-84.0654850">
        <ele>1163.5</ele>
        <time>2020-01-26T20:40:05Z</time>
      </trkpt>
      <trkpt lat="9.8866590" lon="-84.0655240">
        <ele>1164.2</ele>
        <time>2020-01-26T20:40:07Z</time>
      </trkpt>
      <trkpt lat="9.8866110" lon="-84.0655340">
        <ele>1164.4</ele>
        <time>2020-01-26T20:40:08Z</time>
      </trkpt>
      <trkpt lat="9.8865170" lon="-84.0655460">
        <ele>1164.9</ele>
        <time>2020-01-26T20:40:10Z</time>
      </trkpt>
      <trkpt lat="9.8864430" lon="-84.0655700">
        <ele>1165.2</ele>
        <time>2020-01-26T20:40:12Z</time>
      </trkpt>
      <trkpt lat="9.8863980" lon="-84.0655860">
        <ele>1165.4</ele>
        <time>2020-01-26T20:40:13Z</time>
      </trkpt>
      <trkpt lat="9.8862620" lon="-84.0656360">
        <ele>1166.3</ele>
        <time>2020-01-26T20:40:16Z</time>
      </trkpt>
      <trkpt lat="9.8861750" lon="-84.0656550">
        <ele>1166.7</ele>
        <time>2020-01-26T20:40:18Z</time>
      </trkpt>
      <trkpt lat="9.8861280" lon="-84.0656720">
        <ele>1166.9</ele>
        <time>2020-01-26T20:40:19Z</time>
      </trkpt>
      <trkpt lat="9.8860820" lon="-84.0656920">
        <ele>1167.7</ele>
        <time>2020-01-26T20:40:20Z</time>
      </trkpt>
      <trkpt lat="9.8860340" lon="-84.0657110">
        <ele>1168.1</ele>
        <time>2020-01-26T20:40:21Z</time>
      </trkpt>
      <trkpt lat="9.8859410" lon="-84.0657500">
        <ele>1169.0</ele>
        <time>2020-01-26T20:40:23Z</time>
      </trkpt>
      <trkpt lat="9.8858700" lon="-84.0658200">
        <ele>1169.8</ele>
        <time>2020-01-26T20:40:25Z</time>
      </trkpt>
      <trkpt lat="9.8858470" lon="-84.0658690">
        <ele>1170.4</ele>
        <time>2020-01-26T20:40:26Z</time>
      </trkpt>
      <trkpt lat="9.8858180" lon="-84.0659120">
        <ele>1170.6</ele>
        <time>2020-01-26T20:40:27Z</time>
      </trkpt>
      <trkpt lat="9.8857870" lon="-84.0659530">
        <ele>1170.9</ele>
        <time>2020-01-26T20:40:28Z</time>
      </trkpt>
      <trkpt lat="9.8857630" lon="-84.0659880">
        <ele>1171.2</ele>
        <time>2020-01-26T20:40:29Z</time>
      </trkpt>
      <trkpt lat="9.8857350" lon="-84.0660670">
        <ele>1171.5</ele>
        <time>2020-01-26T20:40:31Z</time>
      </trkpt>
      <trkpt lat="9.8857270" lon="-84.0661020">
        <ele>1171.6</ele>
        <time>2020-01-26T20:40:32Z</time>
      </trkpt>
      <trkpt lat="9.8857100" lon="-84.0661780">
        <ele>1171.8</ele>
        <time>2020-01-26T20:40:34Z</time>
      </trkpt>
      <trkpt lat="9.8856990" lon="-84.0661760">
        <ele>1171.9</ele>
        <time>2020-01-26T20:40:35Z</time>
      </trkpt>
      <trkpt lat="9.8856930" lon="-84.0662370">
        <ele>1172.0</ele>
        <time>2020-01-26T20:40:37Z</time>
      </trkpt>
      <trkpt lat="9.8856800" lon="-84.0663160">
        <ele>1172.2</ele>
        <time>2020-01-26T20:40:38Z</time>
      </trkpt>
      <trkpt lat="9.8856760" lon="-84.0663360">
        <ele>1172.3</ele>
        <time>2020-01-26T20:40:39Z</time>
      </trkpt>
      <trkpt lat="9.8856650" lon="-84.0664110">
        <ele>1172.4</ele>
        <time>2020-01-26T20:40:41Z</time>
      </trkpt>
      <trkpt lat="9.8856540" lon="-84.0664710">
        <ele>1172.5</ele>
        <time>2020-01-26T20:40:43Z</time>
      </trkpt>
      <trkpt lat="9.8856420" lon="-84.0665340">
        <ele>1172.7</ele>
        <time>2020-01-26T20:40:45Z</time>
      </trkpt>
      <trkpt lat="9.8856350" lon="-84.0665730">
        <ele>1172.7</ele>
        <time>2020-01-26T20:40:46Z</time>
      </trkpt>
      <trkpt lat="9.8856260" lon="-84.0666080">
        <ele>1172.7</ele>
        <time>2020-01-26T20:40:48Z</time>
      </trkpt>
      <trkpt lat="9.8856090" lon="-84.0666640">
        <ele>1172.7</ele>
        <time>2020-01-26T20:40:50Z</time>
      </trkpt>
      <trkpt lat="9.8855970" lon="-84.0667040">
        <ele>1172.8</ele>
        <time>2020-01-26T20:40:52Z</time>
      </trkpt>
      <trkpt lat="9.8855820" lon="-84.0667600">
        <ele>1172.8</ele>
        <time>2020-01-26T20:40:53Z</time>
      </trkpt>
      <trkpt lat="9.8855740" lon="-84.0667920">
        <ele>1172.8</ele>
        <time>2020-01-26T20:40:54Z</time>
      </trkpt>
      <trkpt lat="9.8855700" lon="-84.0668070">
        <ele>1172.8</ele>
        <time>2020-01-26T20:40:55Z</time>
      </trkpt>
      <trkpt lat="9.8855480" lon="-84.0668710">
        <ele>1172.5</ele>
        <time>2020-01-26T20:40:57Z</time>
      </trkpt>
      <trkpt lat="9.8854830" lon="-84.0669640">
        <ele>1171.8</ele>
        <time>2020-01-26T20:40:58Z</time>
      </trkpt>
      <trkpt lat="9.8854430" lon="-84.0670160">
        <ele>1171.3</ele>
        <time>2020-01-26T20:40:59Z</time>
      </trkpt>
      <trkpt lat="9.8853530" lon="-84.0671290">
        <ele>1169.6</ele>
        <time>2020-01-26T20:41:01Z</time>
      </trkpt>
      <trkpt lat="9.8853010" lon="-84.0671860">
        <ele>1168.6</ele>
        <time>2020-01-26T20:41:02Z</time>
      </trkpt>
      <trkpt lat="9.8851750" lon="-84.0673130">
        <ele>1166.5</ele>
        <time>2020-01-26T20:41:04Z</time>
      </trkpt>
      <trkpt lat="9.8850380" lon="-84.0674390">
        <ele>1165.0</ele>
        <time>2020-01-26T20:41:06Z</time>
      </trkpt>
      <trkpt lat="9.8849650" lon="-84.0675060">
        <ele>1163.8</ele>
        <time>2020-01-26T20:41:07Z</time>
      </trkpt>
      <trkpt lat="9.8848080" lon="-84.0676450">
        <ele>1161.5</ele>
        <time>2020-01-26T20:41:09Z</time>
      </trkpt>
      <trkpt lat="9.8846510" lon="-84.0677910">
        <ele>1160.2</ele>
        <time>2020-01-26T20:41:11Z</time>
      </trkpt>
      <trkpt lat="9.8845690" lon="-84.0678680">
        <ele>1160.0</ele>
        <time>2020-01-26T20:41:12Z</time>
      </trkpt>
      <trkpt lat="9.8843870" lon="-84.0680380">
        <ele>1159.4</ele>
        <time>2020-01-26T20:41:14Z</time>
      </trkpt>
      <trkpt lat="9.8843020" lon="-84.0681250">
        <ele>1159.1</ele>
        <time>2020-01-26T20:41:15Z</time>
      </trkpt>
      <trkpt lat="9.8841640" lon="-84.0682850">
        <ele>1159.6</ele>
        <time>2020-01-26T20:41:17Z</time>
      </trkpt>
      <trkpt lat="9.8841000" lon="-84.0683590">
        <ele>1160.3</ele>
        <time>2020-01-26T20:41:18Z</time>
      </trkpt>
      <trkpt lat="9.8840400" lon="-84.0684210">
        <ele>1160.8</ele>
        <time>2020-01-26T20:41:19Z</time>
      </trkpt>
      <trkpt lat="9.8839370" lon="-84.0685260">
        <ele>1161.7</ele>
        <time>2020-01-26T20:41:21Z</time>
      </trkpt>
      <trkpt lat="9.8838280" lon="-84.0686060">
        <ele>1162.2</ele>
        <time>2020-01-26T20:41:23Z</time>
      </trkpt>
      <trkpt lat="9.8837760" lon="-84.0686410">
        <ele>1162.5</ele>
        <time>2020-01-26T20:41:24Z</time>
      </trkpt>
      <trkpt lat="9.8836640" lon="-84.0686930">
        <ele>1163.2</ele>
        <time>2020-01-26T20:41:26Z</time>
      </trkpt>
      <trkpt lat="9.8835550" lon="-84.0687210">
        <ele>1164.0</ele>
        <time>2020-01-26T20:41:28Z</time>
      </trkpt>
      <trkpt lat="9.8834990" lon="-84.0687330">
        <ele>1164.9</ele>
        <time>2020-01-26T20:41:29Z</time>
      </trkpt>
      <trkpt lat="9.8833870" lon="-84.0687620">
        <ele>1165.8</ele>
        <time>2020-01-26T20:41:31Z</time>
      </trkpt>
      <trkpt lat="9.8832750" lon="-84.0688020">
        <ele>1166.3</ele>
        <time>2020-01-26T20:41:33Z</time>
      </trkpt>
      <trkpt lat="9.8831570" lon="-84.0688040">
        <ele>1166.8</ele>
        <time>2020-01-26T20:41:35Z</time>
      </trkpt>
      <trkpt lat="9.8831020" lon="-84.0688060">
        <ele>1167.0</ele>
        <time>2020-01-26T20:41:36Z</time>
      </trkpt>
      <trkpt lat="9.8830520" lon="-84.0688190">
        <ele>1167.1</ele>
        <time>2020-01-26T20:41:37Z</time>
      </trkpt>
      <trkpt lat="9.8829460" lon="-84.0688300">
        <ele>1167.4</ele>
        <time>2020-01-26T20:41:39Z</time>
      </trkpt>
      <trkpt lat="9.8828970" lon="-84.0688410">
        <ele>1167.5</ele>
        <time>2020-01-26T20:41:40Z</time>
      </trkpt>
      <trkpt lat="9.8828430" lon="-84.0688530">
        <ele>1167.5</ele>
        <time>2020-01-26T20:41:41Z</time>
      </trkpt>
      <trkpt lat="9.8827410" lon="-84.0688980">
        <ele>1167.6</ele>
        <time>2020-01-26T20:41:43Z</time>
      </trkpt>
      <trkpt lat="9.8826900" lon="-84.0689180">
        <ele>1167.7</ele>
        <time>2020-01-26T20:41:44Z</time>
      </trkpt>
      <trkpt lat="9.8826400" lon="-84.0689410">
        <ele>1167.7</ele>
        <time>2020-01-26T20:41:45Z</time>
      </trkpt>
      <trkpt lat="9.8825450" lon="-84.0689950">
        <ele>1167.6</ele>
        <time>2020-01-26T20:41:47Z</time>
      </trkpt>
      <trkpt lat="9.8825000" lon="-84.0690280">
        <ele>1167.6</ele>
        <time>2020-01-26T20:41:48Z</time>
      </trkpt>
      <trkpt lat="9.8824120" lon="-84.0690980">
        <ele>1167.6</ele>
        <time>2020-01-26T20:41:50Z</time>
      </trkpt>
      <trkpt lat="9.8823720" lon="-84.0691330">
        <ele>1167.5</ele>
        <time>2020-01-26T20:41:51Z</time>
      </trkpt>
      <trkpt lat="9.8823000" lon="-84.0691950">
        <ele>1167.5</ele>
        <time>2020-01-26T20:41:53Z</time>
      </trkpt>
      <trkpt lat="9.8822430" lon="-84.0692870">
        <ele>1167.5</ele>
        <time>2020-01-26T20:41:55Z</time>
      </trkpt>
      <trkpt lat="9.8821930" lon="-84.0693750">
        <ele>1167.4</ele>
        <time>2020-01-26T20:41:57Z</time>
      </trkpt>
      <trkpt lat="9.8821670" lon="-84.0694160">
        <ele>1167.4</ele>
        <time>2020-01-26T20:41:58Z</time>
      </trkpt>
      <trkpt lat="9.8821220" lon="-84.0695080">
        <ele>1167.4</ele>
        <time>2020-01-26T20:42:00Z</time>
      </trkpt>
      <trkpt lat="9.8821050" lon="-84.0695500">
        <ele>1167.4</ele>
        <time>2020-01-26T20:42:01Z</time>
      </trkpt>
      <trkpt lat="9.8820650" lon="-84.0696280">
        <ele>1167.3</ele>
        <time>2020-01-26T20:42:03Z</time>
      </trkpt>
      <trkpt lat="9.8820210" lon="-84.0697110">
        <ele>1167.5</ele>
        <time>2020-01-26T20:42:05Z</time>
      </trkpt>
      <trkpt lat="9.8820000" lon="-84.0697490">
        <ele>1167.8</ele>
        <time>2020-01-26T20:42:06Z</time>
      </trkpt>
      <trkpt lat="9.8819540" lon="-84.0698320">
        <ele>1168.4</ele>
        <time>2020-01-26T20:42:08Z</time>
      </trkpt>
      <trkpt lat="9.8819450" lon="-84.0698610">
        <ele>1168.7</ele>
        <time>2020-01-26T20:42:09Z</time>
      </trkpt>
      <trkpt lat="9.8819170" lon="-84.0698970">
        <ele>1169.0</ele>
        <time>2020-01-26T20:42:11Z</time>
      </trkpt>
      <trkpt lat="9.8818980" lon="-84.0699410">
        <ele>1169.3</ele>
        <time>2020-01-26T20:42:12Z</time>
      </trkpt>
      <trkpt lat="9.8818690" lon="-84.0699990">
        <ele>1169.8</ele>
        <time>2020-01-26T20:42:13Z</time>
      </trkpt>
      <trkpt lat="9.8818480" lon="-84.0700370">
        <ele>1170.1</ele>
        <time>2020-01-26T20:42:14Z</time>
      </trkpt>
      <trkpt lat="9.8818120" lon="-84.0701010">
        <ele>1170.3</ele>
        <time>2020-01-26T20:42:16Z</time>
      </trkpt>
      <trkpt lat="9.8817860" lon="-84.0701560">
        <ele>1170.4</ele>
        <time>2020-01-26T20:42:17Z</time>
      </trkpt>
      <trkpt lat="9.8817600" lon="-84.0702030">
        <ele>1170.5</ele>
        <time>2020-01-26T20:42:18Z</time>
      </trkpt>
      <trkpt lat="9.8817130" lon="-84.0702880">
        <ele>1170.7</ele>
        <time>2020-01-26T20:42:20Z</time>
      </trkpt>
      <trkpt lat="9.8816690" lon="-84.0703720">
        <ele>1170.9</ele>
        <time>2020-01-26T20:42:22Z</time>
      </trkpt>
      <trkpt lat="9.8816330" lon="-84.0704470">
        <ele>1170.9</ele>
        <time>2020-01-26T20:42:24Z</time>
      </trkpt>
      <trkpt lat="9.8816120" lon="-84.0704980">
        <ele>1171.3</ele>
        <time>2020-01-26T20:42:25Z</time>
      </trkpt>
      <trkpt lat="9.8815870" lon="-84.0705620">
        <ele>1171.8</ele>
        <time>2020-01-26T20:42:27Z</time>
      </trkpt>
      <trkpt lat="9.8815640" lon="-84.0706140">
        <ele>1172.2</ele>
        <time>2020-01-26T20:42:28Z</time>
      </trkpt>
      <trkpt lat="9.8815710" lon="-84.0706450">
        <ele>1172.4</ele>
        <time>2020-01-26T20:42:29Z</time>
      </trkpt>
      <trkpt lat="9.8815510" lon="-84.0706860">
        <ele>1172.7</ele>
        <time>2020-01-26T20:42:31Z</time>
      </trkpt>
      <trkpt lat="9.8815320" lon="-84.0707280">
        <ele>1173.1</ele>
        <time>2020-01-26T20:42:32Z</time>
      </trkpt>
      <trkpt lat="9.8815140" lon="-84.0707660">
        <ele>1173.4</ele>
        <time>2020-01-26T20:42:33Z</time>
      </trkpt>
      <trkpt lat="9.8814960" lon="-84.0708000">
        <ele>1173.8</ele>
        <time>2020-01-26T20:42:34Z</time>
      </trkpt>
      <trkpt lat="9.8814770" lon="-84.0708370">
        <ele>1174.0</ele>
        <time>2020-01-26T20:42:35Z</time>
      </trkpt>
      <trkpt lat="9.8814530" lon="-84.0708810">
        <ele>1174.1</ele>
        <time>2020-01-26T20:42:36Z</time>
      </trkpt>
      <trkpt lat="9.8814340" lon="-84.0709250">
        <ele>1174.3</ele>
        <time>2020-01-26T20:42:37Z</time>
      </trkpt>
      <trkpt lat="9.8814210" lon="-84.0709650">
        <ele>1174.4</ele>
        <time>2020-01-26T20:42:39Z</time>
      </trkpt>
      <trkpt lat="9.8814110" lon="-84.0710090">
        <ele>1174.6</ele>
        <time>2020-01-26T20:42:40Z</time>
      </trkpt>
      <trkpt lat="9.8813900" lon="-84.0710840">
        <ele>1174.7</ele>
        <time>2020-01-26T20:42:41Z</time>
      </trkpt>
      <trkpt lat="9.8813690" lon="-84.0711280">
        <ele>1174.8</ele>
        <time>2020-01-26T20:42:42Z</time>
      </trkpt>
      <trkpt lat="9.8813540" lon="-84.0711620">
        <ele>1174.8</ele>
        <time>2020-01-26T20:42:44Z</time>
      </trkpt>
      <trkpt lat="9.8813460" lon="-84.0711900">
        <ele>1174.9</ele>
        <time>2020-01-26T20:42:45Z</time>
      </trkpt>
      <trkpt lat="9.8813290" lon="-84.0712460">
        <ele>1175.0</ele>
        <time>2020-01-26T20:42:46Z</time>
      </trkpt>
      <trkpt lat="9.8813090" lon="-84.0713070">
        <ele>1175.1</ele>
        <time>2020-01-26T20:42:47Z</time>
      </trkpt>
      <trkpt lat="9.8812840" lon="-84.0713820">
        <ele>1175.3</ele>
        <time>2020-01-26T20:42:49Z</time>
      </trkpt>
      <trkpt lat="9.8812720" lon="-84.0714290">
        <ele>1175.4</ele>
        <time>2020-01-26T20:42:50Z</time>
      </trkpt>
      <trkpt lat="9.8812480" lon="-84.0715190">
        <ele>1175.7</ele>
        <time>2020-01-26T20:42:51Z</time>
      </trkpt>
      <trkpt lat="9.8812170" lon="-84.0715690">
        <ele>1175.8</ele>
        <time>2020-01-26T20:42:53Z</time>
      </trkpt>
      <trkpt lat="9.8812070" lon="-84.0716260">
        <ele>1175.9</ele>
        <time>2020-01-26T20:42:54Z</time>
      </trkpt>
      <trkpt lat="9.8811980" lon="-84.0716820">
        <ele>1176.0</ele>
        <time>2020-01-26T20:42:55Z</time>
      </trkpt>
      <trkpt lat="9.8811890" lon="-84.0717330">
        <ele>1176.1</ele>
        <time>2020-01-26T20:42:56Z</time>
      </trkpt>
      <trkpt lat="9.8811730" lon="-84.0717840">
        <ele>1176.2</ele>
        <time>2020-01-26T20:42:57Z</time>
      </trkpt>
      <trkpt lat="9.8811350" lon="-84.0718840">
        <ele>1176.6</ele>
        <time>2020-01-26T20:42:59Z</time>
      </trkpt>
      <trkpt lat="9.8810940" lon="-84.0719830">
        <ele>1177.3</ele>
        <time>2020-01-26T20:43:01Z</time>
      </trkpt>
      <trkpt lat="9.8810780" lon="-84.0720520">
        <ele>1177.8</ele>
        <time>2020-01-26T20:43:03Z</time>
      </trkpt>
      <trkpt lat="9.8810910" lon="-84.0720840">
        <ele>1178.0</ele>
        <time>2020-01-26T20:43:04Z</time>
      </trkpt>
      <trkpt lat="9.8810950" lon="-84.0720990">
        <ele>1178.1</ele>
        <time>2020-01-26T20:43:05Z</time>
      </trkpt>
      <trkpt lat="9.8810820" lon="-84.0721440">
        <ele>1178.4</ele>
        <time>2020-01-26T20:43:06Z</time>
      </trkpt>
      <trkpt lat="9.8810640" lon="-84.0721780">
        <ele>1178.7</ele>
        <time>2020-01-26T20:43:07Z</time>
      </trkpt>
      <trkpt lat="9.8810510" lon="-84.0722050">
        <ele>1178.9</ele>
        <time>2020-01-26T20:43:09Z</time>
      </trkpt>
      <trkpt lat="9.8810320" lon="-84.0722410">
        <ele>1179.2</ele>
        <time>2020-01-26T20:43:10Z</time>
      </trkpt>
      <trkpt lat="9.8810160" lon="-84.0722800">
        <ele>1179.4</ele>
        <time>2020-01-26T20:43:12Z</time>
      </trkpt>
      <trkpt lat="9.8810080" lon="-84.0723020">
        <ele>1179.6</ele>
        <time>2020-01-26T20:43:13Z</time>
      </trkpt>
      <trkpt lat="9.8809970" lon="-84.0723320">
        <ele>1179.8</ele>
        <time>2020-01-26T20:43:15Z</time>
      </trkpt>
      <trkpt lat="9.8809930" lon="-84.0723640">
        <ele>1179.8</ele>
        <time>2020-01-26T20:43:16Z</time>
      </trkpt>
      <trkpt lat="9.8809920" lon="-84.0723720">
        <ele>1179.8</ele>
        <time>2020-01-26T20:43:17Z</time>
      </trkpt>
      <trkpt lat="9.8809870" lon="-84.0723890">
        <ele>1179.8</ele>
        <time>2020-01-26T20:43:18Z</time>
      </trkpt>
      <trkpt lat="9.8809780" lon="-84.0724260">
        <ele>1179.8</ele>
        <time>2020-01-26T20:43:20Z</time>
      </trkpt>
      <trkpt lat="9.8809650" lon="-84.0724750">
        <ele>1179.8</ele>
        <time>2020-01-26T20:43:21Z</time>
      </trkpt>
      <trkpt lat="9.8809560" lon="-84.0725090">
        <ele>1179.9</ele>
        <time>2020-01-26T20:43:23Z</time>
      </trkpt>
      <trkpt lat="9.8809400" lon="-84.0725560">
        <ele>1179.9</ele>
        <time>2020-01-26T20:43:24Z</time>
      </trkpt>
      <trkpt lat="9.8809300" lon="-84.0725870">
        <ele>1179.9</ele>
        <time>2020-01-26T20:43:25Z</time>
      </trkpt>
      <trkpt lat="9.8809120" lon="-84.0726340">
        <ele>1179.9</ele>
        <time>2020-01-26T20:43:27Z</time>
      </trkpt>
      <trkpt lat="9.8808940" lon="-84.0726620">
        <ele>1180.2</ele>
        <time>2020-01-26T20:43:28Z</time>
      </trkpt>
      <trkpt lat="9.8808670" lon="-84.0727260">
        <ele>1180.4</ele>
        <time>2020-01-26T20:43:30Z</time>
      </trkpt>
      <trkpt lat="9.8808520" lon="-84.0727590">
        <ele>1180.6</ele>
        <time>2020-01-26T20:43:32Z</time>
      </trkpt>
      <trkpt lat="9.8808300" lon="-84.0727970">
        <ele>1180.9</ele>
        <time>2020-01-26T20:43:33Z</time>
      </trkpt>
      <trkpt lat="9.8808150" lon="-84.0728260">
        <ele>1181.1</ele>
        <time>2020-01-26T20:43:34Z</time>
      </trkpt>
      <trkpt lat="9.8807990" lon="-84.0728520">
        <ele>1181.3</ele>
        <time>2020-01-26T20:43:36Z</time>
      </trkpt>
      <trkpt lat="9.8807760" lon="-84.0728900">
        <ele>1181.6</ele>
        <time>2020-01-26T20:43:37Z</time>
      </trkpt>
      <trkpt lat="9.8807550" lon="-84.0729220">
        <ele>1181.8</ele>
        <time>2020-01-26T20:43:39Z</time>
      </trkpt>
      <trkpt lat="9.8807350" lon="-84.0729470">
        <ele>1182.0</ele>
        <time>2020-01-26T20:43:40Z</time>
      </trkpt>
      <trkpt lat="9.8807190" lon="-84.0729760">
        <ele>1182.2</ele>
        <time>2020-01-26T20:43:41Z</time>
      </trkpt>
      <trkpt lat="9.8806840" lon="-84.0730230">
        <ele>1182.5</ele>
        <time>2020-01-26T20:43:43Z</time>
      </trkpt>
      <trkpt lat="9.8806570" lon="-84.0730530">
        <ele>1182.7</ele>
        <time>2020-01-26T20:43:44Z</time>
      </trkpt>
      <trkpt lat="9.8806070" lon="-84.0731060">
        <ele>1183.2</ele>
        <time>2020-01-26T20:43:46Z</time>
      </trkpt>
      <trkpt lat="9.8805660" lon="-84.0731490">
        <ele>1183.6</ele>
        <time>2020-01-26T20:43:47Z</time>
      </trkpt>
      <trkpt lat="9.8805350" lon="-84.0731850">
        <ele>1183.9</ele>
        <time>2020-01-26T20:43:49Z</time>
      </trkpt>
      <trkpt lat="9.8805020" lon="-84.0732200">
        <ele>1184.1</ele>
        <time>2020-01-26T20:43:50Z</time>
      </trkpt>
      <trkpt lat="9.8804700" lon="-84.0732510">
        <ele>1184.3</ele>
        <time>2020-01-26T20:43:51Z</time>
      </trkpt>
      <trkpt lat="9.8804190" lon="-84.0732960">
        <ele>1184.5</ele>
        <time>2020-01-26T20:43:53Z</time>
      </trkpt>
      <trkpt lat="9.8803850" lon="-84.0733260">
        <ele>1184.6</ele>
        <time>2020-01-26T20:43:54Z</time>
      </trkpt>
      <trkpt lat="9.8803530" lon="-84.0733520">
        <ele>1184.7</ele>
        <time>2020-01-26T20:43:55Z</time>
      </trkpt>
      <trkpt lat="9.8803240" lon="-84.0733780">
        <ele>1184.8</ele>
        <time>2020-01-26T20:43:56Z</time>
      </trkpt>
      <trkpt lat="9.8802870" lon="-84.0734140">
        <ele>1184.8</ele>
        <time>2020-01-26T20:43:57Z</time>
      </trkpt>
      <trkpt lat="9.8802280" lon="-84.0734670">
        <ele>1184.9</ele>
        <time>2020-01-26T20:43:59Z</time>
      </trkpt>
      <trkpt lat="9.8801790" lon="-84.0735070">
        <ele>1184.9</ele>
        <time>2020-01-26T20:44:01Z</time>
      </trkpt>
      <trkpt lat="9.8801410" lon="-84.0735320">
        <ele>1185.0</ele>
        <time>2020-01-26T20:44:02Z</time>
      </trkpt>
      <trkpt lat="9.8801000" lon="-84.0735670">
        <ele>1185.2</ele>
        <time>2020-01-26T20:44:03Z</time>
      </trkpt>
      <trkpt lat="9.8800100" lon="-84.0736330">
        <ele>1185.9</ele>
        <time>2020-01-26T20:44:05Z</time>
      </trkpt>
      <trkpt lat="9.8799770" lon="-84.0736600">
        <ele>1186.2</ele>
        <time>2020-01-26T20:44:06Z</time>
      </trkpt>
      <trkpt lat="9.8799340" lon="-84.0736890">
        <ele>1186.5</ele>
        <time>2020-01-26T20:44:07Z</time>
      </trkpt>
      <trkpt lat="9.8798920" lon="-84.0736870">
        <ele>1186.9</ele>
        <time>2020-01-26T20:44:09Z</time>
      </trkpt>
      <trkpt lat="9.8798350" lon="-84.0737360">
        <ele>1187.7</ele>
        <time>2020-01-26T20:44:10Z</time>
      </trkpt>
      <trkpt lat="9.8797780" lon="-84.0737860">
        <ele>1188.5</ele>
        <time>2020-01-26T20:44:11Z</time>
      </trkpt>
      <trkpt lat="9.8797410" lon="-84.0738150">
        <ele>1189.0</ele>
        <time>2020-01-26T20:44:12Z</time>
      </trkpt>
      <trkpt lat="9.8796970" lon="-84.0738370">
        <ele>1189.6</ele>
        <time>2020-01-26T20:44:14Z</time>
      </trkpt>
      <trkpt lat="9.8796690" lon="-84.0738590">
        <ele>1189.8</ele>
        <time>2020-01-26T20:44:15Z</time>
      </trkpt>
      <trkpt lat="9.8796320" lon="-84.0738910">
        <ele>1189.9</ele>
        <time>2020-01-26T20:44:16Z</time>
      </trkpt>
      <trkpt lat="9.8795530" lon="-84.0739420">
        <ele>1190.3</ele>
        <time>2020-01-26T20:44:18Z</time>
      </trkpt>
      <trkpt lat="9.8794910" lon="-84.0739840">
        <ele>1190.7</ele>
        <time>2020-01-26T20:44:20Z</time>
      </trkpt>
      <trkpt lat="9.8794510" lon="-84.0740120">
        <ele>1191.0</ele>
        <time>2020-01-26T20:44:21Z</time>
      </trkpt>
      <trkpt lat="9.8794120" lon="-84.0740410">
        <ele>1191.3</ele>
        <time>2020-01-26T20:44:22Z</time>
      </trkpt>
      <trkpt lat="9.8793720" lon="-84.0740700">
        <ele>1191.6</ele>
        <time>2020-01-26T20:44:23Z</time>
      </trkpt>
      <trkpt lat="9.8793330" lon="-84.0740980">
        <ele>1191.8</ele>
        <time>2020-01-26T20:44:25Z</time>
      </trkpt>
      <trkpt lat="9.8792790" lon="-84.0741390">
        <ele>1192.2</ele>
        <time>2020-01-26T20:44:26Z</time>
      </trkpt>
      <trkpt lat="9.8792420" lon="-84.0741680">
        <ele>1192.4</ele>
        <time>2020-01-26T20:44:27Z</time>
      </trkpt>
      <trkpt lat="9.8792230" lon="-84.0741830">
        <ele>1192.6</ele>
        <time>2020-01-26T20:44:28Z</time>
      </trkpt>
      <trkpt lat="9.8791640" lon="-84.0742250">
        <ele>1192.9</ele>
        <time>2020-01-26T20:44:30Z</time>
      </trkpt>
      <trkpt lat="9.8791260" lon="-84.0742520">
        <ele>1193.1</ele>
        <time>2020-01-26T20:44:32Z</time>
      </trkpt>
      <trkpt lat="9.8790750" lon="-84.0742830">
        <ele>1193.5</ele>
        <time>2020-01-26T20:44:34Z</time>
      </trkpt>
      <trkpt lat="9.8790440" lon="-84.0743010">
        <ele>1193.8</ele>
        <time>2020-01-26T20:44:35Z</time>
      </trkpt>
      <trkpt lat="9.8789900" lon="-84.0743320">
        <ele>1194.1</ele>
        <time>2020-01-26T20:44:37Z</time>
      </trkpt>
      <trkpt lat="9.8789550" lon="-84.0743520">
        <ele>1194.3</ele>
        <time>2020-01-26T20:44:38Z</time>
      </trkpt>
      <trkpt lat="9.8789210" lon="-84.0743720">
        <ele>1194.5</ele>
        <time>2020-01-26T20:44:39Z</time>
      </trkpt>
      <trkpt lat="9.8788870" lon="-84.0743910">
        <ele>1194.7</ele>
        <time>2020-01-26T20:44:40Z</time>
      </trkpt>
      <trkpt lat="9.8788310" lon="-84.0744270">
        <ele>1195.0</ele>
        <time>2020-01-26T20:44:42Z</time>
      </trkpt>
      <trkpt lat="9.8787760" lon="-84.0744590">
        <ele>1195.2</ele>
        <time>2020-01-26T20:44:43Z</time>
      </trkpt>
      <trkpt lat="9.8787590" lon="-84.0744670">
        <ele>1195.2</ele>
        <time>2020-01-26T20:44:44Z</time>
      </trkpt>
      <trkpt lat="9.8787010" lon="-84.0744970">
        <ele>1195.2</ele>
        <time>2020-01-26T20:44:46Z</time>
      </trkpt>
      <trkpt lat="9.8786720" lon="-84.0745100">
        <ele>1195.2</ele>
        <time>2020-01-26T20:44:47Z</time>
      </trkpt>
      <trkpt lat="9.8786450" lon="-84.0745270">
        <ele>1195.1</ele>
        <time>2020-01-26T20:44:48Z</time>
      </trkpt>
      <trkpt lat="9.8786150" lon="-84.0745470">
        <ele>1195.0</ele>
        <time>2020-01-26T20:44:50Z</time>
      </trkpt>
      <trkpt lat="9.8785600" lon="-84.0745830">
        <ele>1194.9</ele>
        <time>2020-01-26T20:44:51Z</time>
      </trkpt>
      <trkpt lat="9.8785240" lon="-84.0746080">
        <ele>1194.9</ele>
        <time>2020-01-26T20:44:52Z</time>
      </trkpt>
      <trkpt lat="9.8784720" lon="-84.0746380">
        <ele>1194.9</ele>
        <time>2020-01-26T20:44:53Z</time>
      </trkpt>
      <trkpt lat="9.8784280" lon="-84.0746590">
        <ele>1194.9</ele>
        <time>2020-01-26T20:44:54Z</time>
      </trkpt>
      <trkpt lat="9.8783720" lon="-84.0746700">
        <ele>1194.9</ele>
        <time>2020-01-26T20:44:56Z</time>
      </trkpt>
      <trkpt lat="9.8783160" lon="-84.0747220">
        <ele>1194.9</ele>
        <time>2020-01-26T20:44:57Z</time>
      </trkpt>
      <trkpt lat="9.8782720" lon="-84.0747480">
        <ele>1194.9</ele>
        <time>2020-01-26T20:44:58Z</time>
      </trkpt>
      <trkpt lat="9.8782270" lon="-84.0747730">
        <ele>1194.9</ele>
        <time>2020-01-26T20:44:59Z</time>
      </trkpt>
      <trkpt lat="9.8781420" lon="-84.0748240">
        <ele>1195.2</ele>
        <time>2020-01-26T20:45:01Z</time>
      </trkpt>
      <trkpt lat="9.8780960" lon="-84.0748500">
        <ele>1195.2</ele>
        <time>2020-01-26T20:45:02Z</time>
      </trkpt>
      <trkpt lat="9.8780510" lon="-84.0748780">
        <ele>1195.2</ele>
        <time>2020-01-26T20:45:03Z</time>
      </trkpt>
      <trkpt lat="9.8780050" lon="-84.0749020">
        <ele>1195.0</ele>
        <time>2020-01-26T20:45:04Z</time>
      </trkpt>
      <trkpt lat="9.8779600" lon="-84.0749280">
        <ele>1194.9</ele>
        <time>2020-01-26T20:45:05Z</time>
      </trkpt>
      <trkpt lat="9.8778640" lon="-84.0749850">
        <ele>1195.3</ele>
        <time>2020-01-26T20:45:07Z</time>
      </trkpt>
      <trkpt lat="9.8778400" lon="-84.0750070">
        <ele>1195.6</ele>
        <time>2020-01-26T20:45:08Z</time>
      </trkpt>
      <trkpt lat="9.8777410" lon="-84.0750610">
        <ele>1196.3</ele>
        <time>2020-01-26T20:45:10Z</time>
      </trkpt>
      <trkpt lat="9.8776460" lon="-84.0751090">
        <ele>1196.7</ele>
        <time>2020-01-26T20:45:12Z</time>
      </trkpt>
      <trkpt lat="9.8775980" lon="-84.0751330">
        <ele>1196.9</ele>
        <time>2020-01-26T20:45:13Z</time>
      </trkpt>
      <trkpt lat="9.8775150" lon="-84.0751790">
        <ele>1197.3</ele>
        <time>2020-01-26T20:45:15Z</time>
      </trkpt>
      <trkpt lat="9.8774350" lon="-84.0752200">
        <ele>1197.6</ele>
        <time>2020-01-26T20:45:17Z</time>
      </trkpt>
      <trkpt lat="9.8773490" lon="-84.0752630">
        <ele>1198.0</ele>
        <time>2020-01-26T20:45:19Z</time>
      </trkpt>
      <trkpt lat="9.8773010" lon="-84.0752850">
        <ele>1198.2</ele>
        <time>2020-01-26T20:45:20Z</time>
      </trkpt>
      <trkpt lat="9.8772550" lon="-84.0753100">
        <ele>1198.6</ele>
        <time>2020-01-26T20:45:21Z</time>
      </trkpt>
      <trkpt lat="9.8772110" lon="-84.0753330">
        <ele>1198.9</ele>
        <time>2020-01-26T20:45:22Z</time>
      </trkpt>
      <trkpt lat="9.8771670" lon="-84.0753550">
        <ele>1199.4</ele>
        <time>2020-01-26T20:45:23Z</time>
      </trkpt>
      <trkpt lat="9.8770850" lon="-84.0754030">
        <ele>1199.7</ele>
        <time>2020-01-26T20:45:25Z</time>
      </trkpt>
      <trkpt lat="9.8770410" lon="-84.0754270">
        <ele>1199.9</ele>
        <time>2020-01-26T20:45:26Z</time>
      </trkpt>
      <trkpt lat="9.8769960" lon="-84.0754510">
        <ele>1200.1</ele>
        <time>2020-01-26T20:45:27Z</time>
      </trkpt>
      <trkpt lat="9.8769030" lon="-84.0755040">
        <ele>1200.7</ele>
        <time>2020-01-26T20:45:29Z</time>
      </trkpt>
      <trkpt lat="9.8768040" lon="-84.0755600">
        <ele>1201.2</ele>
        <time>2020-01-26T20:45:31Z</time>
      </trkpt>
      <trkpt lat="9.8767540" lon="-84.0755860">
        <ele>1201.4</ele>
        <time>2020-01-26T20:45:32Z</time>
      </trkpt>
      <trkpt lat="9.8766600" lon="-84.0756350">
        <ele>1201.9</ele>
        <time>2020-01-26T20:45:34Z</time>
      </trkpt>
      <trkpt lat="9.8765720" lon="-84.0756810">
        <ele>1202.3</ele>
        <time>2020-01-26T20:45:36Z</time>
      </trkpt>
      <trkpt lat="9.8764850" lon="-84.0757250">
        <ele>1202.8</ele>
        <time>2020-01-26T20:45:38Z</time>
      </trkpt>
      <trkpt lat="9.8764440" lon="-84.0757450">
        <ele>1203.0</ele>
        <time>2020-01-26T20:45:39Z</time>
      </trkpt>
      <trkpt lat="9.8763610" lon="-84.0757870">
        <ele>1203.0</ele>
        <time>2020-01-26T20:45:41Z</time>
      </trkpt>
      <trkpt lat="9.8762740" lon="-84.0758240">
        <ele>1203.0</ele>
        <time>2020-01-26T20:45:43Z</time>
      </trkpt>
      <trkpt lat="9.8762260" lon="-84.0758510">
        <ele>1203.0</ele>
        <time>2020-01-26T20:45:44Z</time>
      </trkpt>
      <trkpt lat="9.8761600" lon="-84.0758960">
        <ele>1202.9</ele>
        <time>2020-01-26T20:45:46Z</time>
      </trkpt>
      <trkpt lat="9.8760950" lon="-84.0759480">
        <ele>1203.5</ele>
        <time>2020-01-26T20:45:48Z</time>
      </trkpt>
      <trkpt lat="9.8760660" lon="-84.0759790">
        <ele>1203.9</ele>
        <time>2020-01-26T20:45:49Z</time>
      </trkpt>
      <trkpt lat="9.8759960" lon="-84.0760630">
        <ele>1204.7</ele>
        <time>2020-01-26T20:45:51Z</time>
      </trkpt>
      <trkpt lat="9.8759340" lon="-84.0761330">
        <ele>1205.2</ele>
        <time>2020-01-26T20:45:53Z</time>
      </trkpt>
      <trkpt lat="9.8758720" lon="-84.0762150">
        <ele>1205.8</ele>
        <time>2020-01-26T20:45:55Z</time>
      </trkpt>
      <trkpt lat="9.8757720" lon="-84.0763310">
        <ele>1206.6</ele>
        <time>2020-01-26T20:45:58Z</time>
      </trkpt>
      <trkpt lat="9.8757020" lon="-84.0764140">
        <ele>1207.2</ele>
        <time>2020-01-26T20:46:00Z</time>
      </trkpt>
      <trkpt lat="9.8756760" lon="-84.0764550">
        <ele>1207.4</ele>
        <time>2020-01-26T20:46:01Z</time>
      </trkpt>
      <trkpt lat="9.8756190" lon="-84.0765400">
        <ele>1207.6</ele>
        <time>2020-01-26T20:46:03Z</time>
      </trkpt>
      <trkpt lat="9.8755230" lon="-84.0766620">
        <ele>1207.6</ele>
        <time>2020-01-26T20:46:06Z</time>
      </trkpt>
      <trkpt lat="9.8754870" lon="-84.0767040">
        <ele>1207.6</ele>
        <time>2020-01-26T20:46:07Z</time>
      </trkpt>
      <trkpt lat="9.8754190" lon="-84.0767910">
        <ele>1207.8</ele>
        <time>2020-01-26T20:46:09Z</time>
      </trkpt>
      <trkpt lat="9.8753870" lon="-84.0768320">
        <ele>1207.9</ele>
        <time>2020-01-26T20:46:10Z</time>
      </trkpt>
      <trkpt lat="9.8753540" lon="-84.0768730">
        <ele>1208.0</ele>
        <time>2020-01-26T20:46:11Z</time>
      </trkpt>
      <trkpt lat="9.8752840" lon="-84.0769540">
        <ele>1208.2</ele>
        <time>2020-01-26T20:46:13Z</time>
      </trkpt>
      <trkpt lat="9.8752450" lon="-84.0769960">
        <ele>1208.2</ele>
        <time>2020-01-26T20:46:14Z</time>
      </trkpt>
      <trkpt lat="9.8751770" lon="-84.0770700">
        <ele>1208.3</ele>
        <time>2020-01-26T20:46:16Z</time>
      </trkpt>
      <trkpt lat="9.8751130" lon="-84.0771410">
        <ele>1208.2</ele>
        <time>2020-01-26T20:46:18Z</time>
      </trkpt>
      <trkpt lat="9.8750510" lon="-84.0772160">
        <ele>1208.2</ele>
        <time>2020-01-26T20:46:20Z</time>
      </trkpt>
      <trkpt lat="9.8750110" lon="-84.0772520">
        <ele>1208.1</ele>
        <time>2020-01-26T20:46:21Z</time>
      </trkpt>
      <trkpt lat="9.8749290" lon="-84.0773290">
        <ele>1207.9</ele>
        <time>2020-01-26T20:46:23Z</time>
      </trkpt>
      <trkpt lat="9.8748480" lon="-84.0774030">
        <ele>1207.8</ele>
        <time>2020-01-26T20:46:25Z</time>
      </trkpt>
      <trkpt lat="9.8748050" lon="-84.0774400">
        <ele>1207.8</ele>
        <time>2020-01-26T20:46:26Z</time>
      </trkpt>
      <trkpt lat="9.8747650" lon="-84.0774790">
        <ele>1207.8</ele>
        <time>2020-01-26T20:46:27Z</time>
      </trkpt>
      <trkpt lat="9.8746860" lon="-84.0775460">
        <ele>1207.7</ele>
        <time>2020-01-26T20:46:29Z</time>
      </trkpt>
      <trkpt lat="9.8745980" lon="-84.0776100">
        <ele>1207.5</ele>
        <time>2020-01-26T20:46:31Z</time>
      </trkpt>
      <trkpt lat="9.8745520" lon="-84.0776470">
        <ele>1207.3</ele>
        <time>2020-01-26T20:46:32Z</time>
      </trkpt>
      <trkpt lat="9.8744670" lon="-84.0777130">
        <ele>1207.2</ele>
        <time>2020-01-26T20:46:34Z</time>
      </trkpt>
      <trkpt lat="9.8744220" lon="-84.0777430">
        <ele>1207.1</ele>
        <time>2020-01-26T20:46:35Z</time>
      </trkpt>
      <trkpt lat="9.8743760" lon="-84.0777720">
        <ele>1207.0</ele>
        <time>2020-01-26T20:46:36Z</time>
      </trkpt>
      <trkpt lat="9.8743310" lon="-84.0778010">
        <ele>1207.0</ele>
        <time>2020-01-26T20:46:37Z</time>
      </trkpt>
      <trkpt lat="9.8742870" lon="-84.0778320">
        <ele>1206.9</ele>
        <time>2020-01-26T20:46:38Z</time>
      </trkpt>
      <trkpt lat="9.8741870" lon="-84.0778920">
        <ele>1206.9</ele>
        <time>2020-01-26T20:46:40Z</time>
      </trkpt>
      <trkpt lat="9.8741040" lon="-84.0779490">
        <ele>1206.9</ele>
        <time>2020-01-26T20:46:42Z</time>
      </trkpt>
      <trkpt lat="9.8740650" lon="-84.0779720">
        <ele>1206.9</ele>
        <time>2020-01-26T20:46:43Z</time>
      </trkpt>
      <trkpt lat="9.8739910" lon="-84.0780170">
        <ele>1206.8</ele>
        <time>2020-01-26T20:46:45Z</time>
      </trkpt>
      <trkpt lat="9.8739180" lon="-84.0780710">
        <ele>1206.8</ele>
        <time>2020-01-26T20:46:47Z</time>
      </trkpt>
      <trkpt lat="9.8738480" lon="-84.0781180">
        <ele>1206.8</ele>
        <time>2020-01-26T20:46:49Z</time>
      </trkpt>
      <trkpt lat="9.8737820" lon="-84.0781600">
        <ele>1206.9</ele>
        <time>2020-01-26T20:46:51Z</time>
      </trkpt>
      <trkpt lat="9.8737280" lon="-84.0781650">
        <ele>1206.9</ele>
        <time>2020-01-26T20:46:53Z</time>
      </trkpt>
      <trkpt lat="9.8737040" lon="-84.0781820">
        <ele>1206.9</ele>
        <time>2020-01-26T20:46:54Z</time>
      </trkpt>
      <trkpt lat="9.8736390" lon="-84.0782340">
        <ele>1206.9</ele>
        <time>2020-01-26T20:46:55Z</time>
      </trkpt>
      <trkpt lat="9.8735880" lon="-84.0782650">
        <ele>1206.9</ele>
        <time>2020-01-26T20:46:56Z</time>
      </trkpt>
      <trkpt lat="9.8735440" lon="-84.0782940">
        <ele>1207.2</ele>
        <time>2020-01-26T20:46:57Z</time>
      </trkpt>
      <trkpt lat="9.8735000" lon="-84.0783270">
        <ele>1207.5</ele>
        <time>2020-01-26T20:46:58Z</time>
      </trkpt>
      <trkpt lat="9.8734100" lon="-84.0783930">
        <ele>1207.8</ele>
        <time>2020-01-26T20:47:00Z</time>
      </trkpt>
      <trkpt lat="9.8733040" lon="-84.0784640">
        <ele>1207.7</ele>
        <time>2020-01-26T20:47:02Z</time>
      </trkpt>
      <trkpt lat="9.8732430" lon="-84.0785100">
        <ele>1207.6</ele>
        <time>2020-01-26T20:47:03Z</time>
      </trkpt>
      <trkpt lat="9.8731850" lon="-84.0785520">
        <ele>1207.6</ele>
        <time>2020-01-26T20:47:04Z</time>
      </trkpt>
      <trkpt lat="9.8731220" lon="-84.0785960">
        <ele>1207.4</ele>
        <time>2020-01-26T20:47:05Z</time>
      </trkpt>
      <trkpt lat="9.8729970" lon="-84.0786810">
        <ele>1207.0</ele>
        <time>2020-01-26T20:47:07Z</time>
      </trkpt>
      <trkpt lat="9.8728650" lon="-84.0787580">
        <ele>1206.1</ele>
        <time>2020-01-26T20:47:09Z</time>
      </trkpt>
      <trkpt lat="9.8727910" lon="-84.0788060">
        <ele>1205.7</ele>
        <time>2020-01-26T20:47:10Z</time>
      </trkpt>
      <trkpt lat="9.8726370" lon="-84.0789080">
        <ele>1204.8</ele>
        <time>2020-01-26T20:47:12Z</time>
      </trkpt>
      <trkpt lat="9.8724820" lon="-84.0790190">
        <ele>1203.8</ele>
        <time>2020-01-26T20:47:14Z</time>
      </trkpt>
      <trkpt lat="9.8724050" lon="-84.0790870">
        <ele>1203.2</ele>
        <time>2020-01-26T20:47:15Z</time>
      </trkpt>
      <trkpt lat="9.8723370" lon="-84.0791680">
        <ele>1202.5</ele>
        <time>2020-01-26T20:47:16Z</time>
      </trkpt>
      <trkpt lat="9.8722390" lon="-84.0793470">
        <ele>1201.6</ele>
        <time>2020-01-26T20:47:18Z</time>
      </trkpt>
      <trkpt lat="9.8721620" lon="-84.0795220">
        <ele>1201.1</ele>
        <time>2020-01-26T20:47:20Z</time>
      </trkpt>
      <trkpt lat="9.8720960" lon="-84.0796860">
        <ele>1201.3</ele>
        <time>2020-01-26T20:47:22Z</time>
      </trkpt>
      <trkpt lat="9.8720150" lon="-84.0798510">
        <ele>1202.1</ele>
        <time>2020-01-26T20:47:24Z</time>
      </trkpt>
      <trkpt lat="9.8719060" lon="-84.0800050">
        <ele>1202.8</ele>
        <time>2020-01-26T20:47:26Z</time>
      </trkpt>
      <trkpt lat="9.8718410" lon="-84.0800750">
        <ele>1203.3</ele>
        <time>2020-01-26T20:47:27Z</time>
      </trkpt>
      <trkpt lat="9.8716970" lon="-84.0801970">
        <ele>1203.9</ele>
        <time>2020-01-26T20:47:29Z</time>
      </trkpt>
      <trkpt lat="9.8716240" lon="-84.0802520">
        <ele>1204.2</ele>
        <time>2020-01-26T20:47:30Z</time>
      </trkpt>
      <trkpt lat="9.8714960" lon="-84.0803460">
        <ele>1205.3</ele>
        <time>2020-01-26T20:47:32Z</time>
      </trkpt>
      <trkpt lat="9.8713740" lon="-84.0804300">
        <ele>1206.2</ele>
        <time>2020-01-26T20:47:34Z</time>
      </trkpt>
      <trkpt lat="9.8712600" lon="-84.0805060">
        <ele>1207.2</ele>
        <time>2020-01-26T20:47:36Z</time>
      </trkpt>
      <trkpt lat="9.8712040" lon="-84.0805430">
        <ele>1207.7</ele>
        <time>2020-01-26T20:47:37Z</time>
      </trkpt>
      <trkpt lat="9.8711550" lon="-84.0805830">
        <ele>1208.1</ele>
        <time>2020-01-26T20:47:38Z</time>
      </trkpt>
      <trkpt lat="9.8710610" lon="-84.0806400">
        <ele>1208.6</ele>
        <time>2020-01-26T20:47:40Z</time>
      </trkpt>
      <trkpt lat="9.8709690" lon="-84.0807010">
        <ele>1209.1</ele>
        <time>2020-01-26T20:47:42Z</time>
      </trkpt>
      <trkpt lat="9.8709270" lon="-84.0807300">
        <ele>1209.3</ele>
        <time>2020-01-26T20:47:43Z</time>
      </trkpt>
      <trkpt lat="9.8708860" lon="-84.0807610">
        <ele>1209.4</ele>
        <time>2020-01-26T20:47:44Z</time>
      </trkpt>
      <trkpt lat="9.8708480" lon="-84.0807880">
        <ele>1209.6</ele>
        <time>2020-01-26T20:47:45Z</time>
      </trkpt>
      <trkpt lat="9.8707910" lon="-84.0808360">
        <ele>1209.9</ele>
        <time>2020-01-26T20:47:47Z</time>
      </trkpt>
      <trkpt lat="9.8707500" lon="-84.0808730">
        <ele>1210.0</ele>
        <time>2020-01-26T20:47:49Z</time>
      </trkpt>
      <trkpt lat="9.8706930" lon="-84.0809310">
        <ele>1210.2</ele>
        <time>2020-01-26T20:47:51Z</time>
      </trkpt>
      <trkpt lat="9.8706530" lon="-84.0809780">
        <ele>1210.3</ele>
        <time>2020-01-26T20:47:53Z</time>
      </trkpt>
      <trkpt lat="9.8706380" lon="-84.0810010">
        <ele>1210.4</ele>
        <time>2020-01-26T20:47:54Z</time>
      </trkpt>
      <trkpt lat="9.8705920" lon="-84.0810930">
        <ele>1210.8</ele>
        <time>2020-01-26T20:47:56Z</time>
      </trkpt>
      <trkpt lat="9.8705810" lon="-84.0811150">
        <ele>1210.9</ele>
        <time>2020-01-26T20:47:57Z</time>
      </trkpt>
      <trkpt lat="9.8705530" lon="-84.0811730">
        <ele>1211.1</ele>
        <time>2020-01-26T20:47:59Z</time>
      </trkpt>
      <trkpt lat="9.8705440" lon="-84.0811990">
        <ele>1211.2</ele>
        <time>2020-01-26T20:48:00Z</time>
      </trkpt>
      <trkpt lat="9.8705250" lon="-84.0812320">
        <ele>1211.3</ele>
        <time>2020-01-26T20:48:01Z</time>
      </trkpt>
      <trkpt lat="9.8705130" lon="-84.0812500">
        <ele>1211.4</ele>
        <time>2020-01-26T20:48:02Z</time>
      </trkpt>
      <trkpt lat="9.8704830" lon="-84.0812870">
        <ele>1211.6</ele>
        <time>2020-01-26T20:48:04Z</time>
      </trkpt>
      <trkpt lat="9.8704600" lon="-84.0813200">
        <ele>1211.7</ele>
        <time>2020-01-26T20:48:05Z</time>
      </trkpt>
      <trkpt lat="9.8704220" lon="-84.0813990">
        <ele>1212.1</ele>
        <time>2020-01-26T20:48:07Z</time>
      </trkpt>
      <trkpt lat="9.8704050" lon="-84.0814330">
        <ele>1212.3</ele>
        <time>2020-01-26T20:48:08Z</time>
      </trkpt>
      <trkpt lat="9.8703780" lon="-84.0814820">
        <ele>1212.6</ele>
        <time>2020-01-26T20:48:10Z</time>
      </trkpt>
      <trkpt lat="9.8703580" lon="-84.0815130">
        <ele>1212.8</ele>
        <time>2020-01-26T20:48:11Z</time>
      </trkpt>
      <trkpt lat="9.8703210" lon="-84.0815860">
        <ele>1213.1</ele>
        <time>2020-01-26T20:48:13Z</time>
      </trkpt>
      <trkpt lat="9.8703010" lon="-84.0816230">
        <ele>1213.2</ele>
        <time>2020-01-26T20:48:14Z</time>
      </trkpt>
      <trkpt lat="9.8702750" lon="-84.0816650">
        <ele>1213.2</ele>
        <time>2020-01-26T20:48:16Z</time>
      </trkpt>
      <trkpt lat="9.8702580" lon="-84.0816990">
        <ele>1213.3</ele>
        <time>2020-01-26T20:48:17Z</time>
      </trkpt>
      <trkpt lat="9.8702390" lon="-84.0817360">
        <ele>1213.4</ele>
        <time>2020-01-26T20:48:18Z</time>
      </trkpt>
      <trkpt lat="9.8702300" lon="-84.0817520">
        <ele>1213.4</ele>
        <time>2020-01-26T20:48:19Z</time>
      </trkpt>
      <trkpt lat="9.8702050" lon="-84.0818070">
        <ele>1213.5</ele>
        <time>2020-01-26T20:48:21Z</time>
      </trkpt>
      <trkpt lat="9.8701770" lon="-84.0818560">
        <ele>1213.6</ele>
        <time>2020-01-26T20:48:23Z</time>
      </trkpt>
      <trkpt lat="9.8701600" lon="-84.0818880">
        <ele>1213.7</ele>
        <time>2020-01-26T20:48:24Z</time>
      </trkpt>
      <trkpt lat="9.8701320" lon="-84.0819390">
        <ele>1213.8</ele>
        <time>2020-01-26T20:48:26Z</time>
      </trkpt>
      <trkpt lat="9.8701030" lon="-84.0819970">
        <ele>1213.9</ele>
        <time>2020-01-26T20:48:28Z</time>
      </trkpt>
      <trkpt lat="9.8700800" lon="-84.0820420">
        <ele>1213.9</ele>
        <time>2020-01-26T20:48:29Z</time>
      </trkpt>
      <trkpt lat="9.8700650" lon="-84.0820790">
        <ele>1214.0</ele>
        <time>2020-01-26T20:48:30Z</time>
      </trkpt>
      <trkpt lat="9.8700470" lon="-84.0821300">
        <ele>1213.9</ele>
        <time>2020-01-26T20:48:32Z</time>
      </trkpt>
      <trkpt lat="9.8700270" lon="-84.0821690">
        <ele>1213.9</ele>
        <time>2020-01-26T20:48:33Z</time>
      </trkpt>
      <trkpt lat="9.8700100" lon="-84.0822020">
        <ele>1213.8</ele>
        <time>2020-01-26T20:48:34Z</time>
      </trkpt>
      <trkpt lat="9.8699750" lon="-84.0822570">
        <ele>1214.5</ele>
        <time>2020-01-26T20:48:36Z</time>
      </trkpt>
      <trkpt lat="9.8699520" lon="-84.0822940">
        <ele>1214.9</ele>
        <time>2020-01-26T20:48:37Z</time>
      </trkpt>
      <trkpt lat="9.8699320" lon="-84.0823280">
        <ele>1215.3</ele>
        <time>2020-01-26T20:48:38Z</time>
      </trkpt>
      <trkpt lat="9.8699120" lon="-84.0823620">
        <ele>1215.7</ele>
        <time>2020-01-26T20:48:40Z</time>
      </trkpt>
      <trkpt lat="9.8698870" lon="-84.0824080">
        <ele>1216.2</ele>
        <time>2020-01-26T20:48:41Z</time>
      </trkpt>
      <trkpt lat="9.8698720" lon="-84.0824370">
        <ele>1216.6</ele>
        <time>2020-01-26T20:48:42Z</time>
      </trkpt>
      <trkpt lat="9.8698540" lon="-84.0824720">
        <ele>1217.0</ele>
        <time>2020-01-26T20:48:43Z</time>
      </trkpt>
      <trkpt lat="9.8698380" lon="-84.0825050">
        <ele>1217.4</ele>
        <time>2020-01-26T20:48:45Z</time>
      </trkpt>
      <trkpt lat="9.8698140" lon="-84.0825470">
        <ele>1217.9</ele>
        <time>2020-01-26T20:48:46Z</time>
      </trkpt>
      <trkpt lat="9.8697920" lon="-84.0825900">
        <ele>1218.4</ele>
        <time>2020-01-26T20:48:48Z</time>
      </trkpt>
      <trkpt lat="9.8697750" lon="-84.0826240">
        <ele>1218.8</ele>
        <time>2020-01-26T20:48:49Z</time>
      </trkpt>
      <trkpt lat="9.8697590" lon="-84.0826540">
        <ele>1219.1</ele>
        <time>2020-01-26T20:48:50Z</time>
      </trkpt>
      <trkpt lat="9.8697300" lon="-84.0827020">
        <ele>1219.6</ele>
        <time>2020-01-26T20:48:52Z</time>
      </trkpt>
      <trkpt lat="9.8697110" lon="-84.0827290">
        <ele>1219.9</ele>
        <time>2020-01-26T20:48:53Z</time>
      </trkpt>
      <trkpt lat="9.8696940" lon="-84.0827570">
        <ele>1220.2</ele>
        <time>2020-01-26T20:48:54Z</time>
      </trkpt>
      <trkpt lat="9.8696740" lon="-84.0827880">
        <ele>1220.5</ele>
        <time>2020-01-26T20:48:55Z</time>
      </trkpt>
      <trkpt lat="9.8696430" lon="-84.0828380">
        <ele>1221.0</ele>
        <time>2020-01-26T20:48:57Z</time>
      </trkpt>
      <trkpt lat="9.8696260" lon="-84.0828700">
        <ele>1221.3</ele>
        <time>2020-01-26T20:48:58Z</time>
      </trkpt>
      <trkpt lat="9.8695990" lon="-84.0829130">
        <ele>1221.7</ele>
        <time>2020-01-26T20:49:00Z</time>
      </trkpt>
      <trkpt lat="9.8695630" lon="-84.0829720">
        <ele>1222.3</ele>
        <time>2020-01-26T20:49:02Z</time>
      </trkpt>
      <trkpt lat="9.8695450" lon="-84.0830030">
        <ele>1222.6</ele>
        <time>2020-01-26T20:49:03Z</time>
      </trkpt>
      <trkpt lat="9.8695360" lon="-84.0830210">
        <ele>1222.8</ele>
        <time>2020-01-26T20:49:04Z</time>
      </trkpt>
      <trkpt lat="9.8695200" lon="-84.0830540">
        <ele>1223.1</ele>
        <time>2020-01-26T20:49:05Z</time>
      </trkpt>
      <trkpt lat="9.8695000" lon="-84.0830970">
        <ele>1223.6</ele>
        <time>2020-01-26T20:49:07Z</time>
      </trkpt>
      <trkpt lat="9.8694820" lon="-84.0831340">
        <ele>1224.0</ele>
        <time>2020-01-26T20:49:08Z</time>
      </trkpt>
      <trkpt lat="9.8694750" lon="-84.0831470">
        <ele>1224.2</ele>
        <time>2020-01-26T20:49:09Z</time>
      </trkpt>
      <trkpt lat="9.8694390" lon="-84.0832010">
        <ele>1224.8</ele>
        <time>2020-01-26T20:49:11Z</time>
      </trkpt>
      <trkpt lat="9.8694230" lon="-84.0832310">
        <ele>1225.1</ele>
        <time>2020-01-26T20:49:12Z</time>
      </trkpt>
      <trkpt lat="9.8694160" lon="-84.0832460">
        <ele>1225.3</ele>
        <time>2020-01-26T20:49:13Z</time>
      </trkpt>
      <trkpt lat="9.8693980" lon="-84.0832840">
        <ele>1225.7</ele>
        <time>2020-01-26T20:49:15Z</time>
      </trkpt>
      <trkpt lat="9.8693780" lon="-84.0833200">
        <ele>1226.1</ele>
        <time>2020-01-26T20:49:16Z</time>
      </trkpt>
      <trkpt lat="9.8693610" lon="-84.0833530">
        <ele>1226.4</ele>
        <time>2020-01-26T20:49:18Z</time>
      </trkpt>
      <trkpt lat="9.8693440" lon="-84.0833890">
        <ele>1226.7</ele>
        <time>2020-01-26T20:49:19Z</time>
      </trkpt>
      <trkpt lat="9.8693370" lon="-84.0834000">
        <ele>1226.8</ele>
        <time>2020-01-26T20:49:20Z</time>
      </trkpt>
      <trkpt lat="9.8693190" lon="-84.0834270">
        <ele>1227.0</ele>
        <time>2020-01-26T20:49:22Z</time>
      </trkpt>
      <trkpt lat="9.8693040" lon="-84.0834530">
        <ele>1227.2</ele>
        <time>2020-01-26T20:49:23Z</time>
      </trkpt>
      <trkpt lat="9.8692890" lon="-84.0834830">
        <ele>1227.5</ele>
        <time>2020-01-26T20:49:24Z</time>
      </trkpt>
      <trkpt lat="9.8692610" lon="-84.0835320">
        <ele>1227.9</ele>
        <time>2020-01-26T20:49:26Z</time>
      </trkpt>
      <trkpt lat="9.8692470" lon="-84.0835580">
        <ele>1228.0</ele>
        <time>2020-01-26T20:49:27Z</time>
      </trkpt>
      <trkpt lat="9.8692300" lon="-84.0835920">
        <ele>1228.3</ele>
        <time>2020-01-26T20:49:29Z</time>
      </trkpt>
      <trkpt lat="9.8692160" lon="-84.0836260">
        <ele>1228.5</ele>
        <time>2020-01-26T20:49:30Z</time>
      </trkpt>
      <trkpt lat="9.8691930" lon="-84.0836770">
        <ele>1228.8</ele>
        <time>2020-01-26T20:49:32Z</time>
      </trkpt>
      <trkpt lat="9.8691710" lon="-84.0837090">
        <ele>1229.1</ele>
        <time>2020-01-26T20:49:33Z</time>
      </trkpt>
      <trkpt lat="9.8691620" lon="-84.0837210">
        <ele>1229.2</ele>
        <time>2020-01-26T20:49:34Z</time>
      </trkpt>
      <trkpt lat="9.8691400" lon="-84.0837590">
        <ele>1229.4</ele>
        <time>2020-01-26T20:49:36Z</time>
      </trkpt>
      <trkpt lat="9.8691270" lon="-84.0837990">
        <ele>1229.6</ele>
        <time>2020-01-26T20:49:38Z</time>
      </trkpt>
      <trkpt lat="9.8691190" lon="-84.0838220">
        <ele>1229.8</ele>
        <time>2020-01-26T20:49:39Z</time>
      </trkpt>
      <trkpt lat="9.8690960" lon="-84.0838750">
        <ele>1230.1</ele>
        <time>2020-01-26T20:49:41Z</time>
      </trkpt>
      <trkpt lat="9.8690710" lon="-84.0839210">
        <ele>1230.4</ele>
        <time>2020-01-26T20:49:42Z</time>
      </trkpt>
      <trkpt lat="9.8690550" lon="-84.0839500">
        <ele>1230.6</ele>
        <time>2020-01-26T20:49:44Z</time>
      </trkpt>
      <trkpt lat="9.8690360" lon="-84.0839930">
        <ele>1230.8</ele>
        <time>2020-01-26T20:49:45Z</time>
      </trkpt>
      <trkpt lat="9.8690170" lon="-84.0840390">
        <ele>1231.1</ele>
        <time>2020-01-26T20:49:47Z</time>
      </trkpt>
      <trkpt lat="9.8689960" lon="-84.0840750">
        <ele>1231.4</ele>
        <time>2020-01-26T20:49:48Z</time>
      </trkpt>
      <trkpt lat="9.8689740" lon="-84.0841180">
        <ele>1231.7</ele>
        <time>2020-01-26T20:49:50Z</time>
      </trkpt>
      <trkpt lat="9.8689620" lon="-84.0841420">
        <ele>1231.9</ele>
        <time>2020-01-26T20:49:51Z</time>
      </trkpt>
      <trkpt lat="9.8689430" lon="-84.0841810">
        <ele>1232.3</ele>
        <time>2020-01-26T20:49:53Z</time>
      </trkpt>
      <trkpt lat="9.8689290" lon="-84.0842070">
        <ele>1232.5</ele>
        <time>2020-01-26T20:49:54Z</time>
      </trkpt>
      <trkpt lat="9.8689230" lon="-84.0842150">
        <ele>1232.6</ele>
        <time>2020-01-26T20:49:55Z</time>
      </trkpt>
      <trkpt lat="9.8689120" lon="-84.0842330">
        <ele>1232.8</ele>
        <time>2020-01-26T20:49:57Z</time>
      </trkpt>
      <trkpt lat="9.8689070" lon="-84.0842510">
        <ele>1233.0</ele>
        <time>2020-01-26T20:49:58Z</time>
      </trkpt>
      <trkpt lat="9.8688870" lon="-84.0842880">
        <ele>1233.4</ele>
        <time>2020-01-26T20:50:00Z</time>
      </trkpt>
      <trkpt lat="9.8688710" lon="-84.0843220">
        <ele>1233.7</ele>
        <time>2020-01-26T20:50:02Z</time>
      </trkpt>
      <trkpt lat="9.8688560" lon="-84.0843590">
        <ele>1234.1</ele>
        <time>2020-01-26T20:50:04Z</time>
      </trkpt>
      <trkpt lat="9.8688510" lon="-84.0843870">
        <ele>1234.4</ele>
        <time>2020-01-26T20:50:05Z</time>
      </trkpt>
      <trkpt lat="9.8688450" lon="-84.0844140">
        <ele>1234.7</ele>
        <time>2020-01-26T20:50:06Z</time>
      </trkpt>
      <trkpt lat="9.8688360" lon="-84.0844510">
        <ele>1235.0</ele>
        <time>2020-01-26T20:50:07Z</time>
      </trkpt>
      <trkpt lat="9.8688310" lon="-84.0844630">
        <ele>1235.2</ele>
        <time>2020-01-26T20:50:08Z</time>
      </trkpt>
      <trkpt lat="9.8688100" lon="-84.0844970">
        <ele>1235.4</ele>
        <time>2020-01-26T20:50:10Z</time>
      </trkpt>
      <trkpt lat="9.8687860" lon="-84.0845300">
        <ele>1235.6</ele>
        <time>2020-01-26T20:50:11Z</time>
      </trkpt>
      <trkpt lat="9.8687770" lon="-84.0845410">
        <ele>1235.6</ele>
        <time>2020-01-26T20:50:12Z</time>
      </trkpt>
      <trkpt lat="9.8687530" lon="-84.0845850">
        <ele>1235.9</ele>
        <time>2020-01-26T20:50:14Z</time>
      </trkpt>
      <trkpt lat="9.8687370" lon="-84.0846180">
        <ele>1236.0</ele>
        <time>2020-01-26T20:50:15Z</time>
      </trkpt>
      <trkpt lat="9.8687200" lon="-84.0846500">
        <ele>1236.2</ele>
        <time>2020-01-26T20:50:16Z</time>
      </trkpt>
      <trkpt lat="9.8687050" lon="-84.0846820">
        <ele>1236.4</ele>
        <time>2020-01-26T20:50:17Z</time>
      </trkpt>
      <trkpt lat="9.8686810" lon="-84.0847350">
        <ele>1236.6</ele>
        <time>2020-01-26T20:50:19Z</time>
      </trkpt>
      <trkpt lat="9.8686640" lon="-84.0847680">
        <ele>1236.8</ele>
        <time>2020-01-26T20:50:20Z</time>
      </trkpt>
      <trkpt lat="9.8686400" lon="-84.0848200">
        <ele>1237.2</ele>
        <time>2020-01-26T20:50:22Z</time>
      </trkpt>
      <trkpt lat="9.8686150" lon="-84.0848820">
        <ele>1237.6</ele>
        <time>2020-01-26T20:50:24Z</time>
      </trkpt>
      <trkpt lat="9.8686000" lon="-84.0849140">
        <ele>1237.8</ele>
        <time>2020-01-26T20:50:25Z</time>
      </trkpt>
      <trkpt lat="9.8685810" lon="-84.0849650">
        <ele>1238.1</ele>
        <time>2020-01-26T20:50:27Z</time>
      </trkpt>
      <trkpt lat="9.8685670" lon="-84.0850100">
        <ele>1238.3</ele>
        <time>2020-01-26T20:50:28Z</time>
      </trkpt>
      <trkpt lat="9.8685600" lon="-84.0850420">
        <ele>1238.5</ele>
        <time>2020-01-26T20:50:29Z</time>
      </trkpt>
      <trkpt lat="9.8685480" lon="-84.0850740">
        <ele>1238.6</ele>
        <time>2020-01-26T20:50:31Z</time>
      </trkpt>
      <trkpt lat="9.8685370" lon="-84.0851030">
        <ele>1238.8</ele>
        <time>2020-01-26T20:50:32Z</time>
      </trkpt>
      <trkpt lat="9.8685210" lon="-84.0851350">
        <ele>1239.0</ele>
        <time>2020-01-26T20:50:33Z</time>
      </trkpt>
      <trkpt lat="9.8685140" lon="-84.0851450">
        <ele>1239.0</ele>
        <time>2020-01-26T20:50:34Z</time>
      </trkpt>
      <trkpt lat="9.8684980" lon="-84.0851640">
        <ele>1239.1</ele>
        <time>2020-01-26T20:50:36Z</time>
      </trkpt>
      <trkpt lat="9.8684920" lon="-84.0851690">
        <ele>1239.1</ele>
        <time>2020-01-26T20:50:37Z</time>
      </trkpt>
      <trkpt lat="9.8684860" lon="-84.0851740">
        <ele>1239.1</ele>
        <time>2020-01-26T20:50:38Z</time>
      </trkpt>
      <trkpt lat="9.8684750" lon="-84.0851860">
        <ele>1239.2</ele>
        <time>2020-01-26T20:50:40Z</time>
      </trkpt>
      <trkpt lat="9.8684680" lon="-84.0851870">
        <ele>1239.2</ele>
        <time>2020-01-26T20:50:42Z</time>
      </trkpt>
      <trkpt lat="9.8684630" lon="-84.0851890">
        <ele>1239.3</ele>
        <time>2020-01-26T20:50:43Z</time>
      </trkpt>
      <trkpt lat="9.8684600" lon="-84.0851890">
        <ele>1239.3</ele>
        <time>2020-01-26T20:50:44Z</time>
      </trkpt>
      <trkpt lat="9.8684620" lon="-84.0851900">
        <ele>1239.3</ele>
        <time>2020-01-26T20:50:45Z</time>
      </trkpt>
      <trkpt lat="9.8684640" lon="-84.0851940">
        <ele>1239.3</ele>
        <time>2020-01-26T20:50:47Z</time>
      </trkpt>
      <trkpt lat="9.8684640" lon="-84.0851950">
        <ele>1239.3</ele>
        <time>2020-01-26T20:50:49Z</time>
      </trkpt>
      <trkpt lat="9.8684640" lon="-84.0851950">
        <ele>1239.3</ele>
        <time>2020-01-26T20:50:51Z</time>
      </trkpt>
      <trkpt lat="9.8684670" lon="-84.0851960">
        <ele>1239.3</ele>
        <time>2020-01-26T20:50:52Z</time>
      </trkpt>
      <trkpt lat="9.8684680" lon="-84.0851960">
        <ele>1239.3</ele>
        <time>2020-01-26T20:50:53Z</time>
      </trkpt>
      <trkpt lat="9.8684640" lon="-84.0851980">
        <ele>1239.3</ele>
        <time>2020-01-26T20:50:55Z</time>
      </trkpt>
      <trkpt lat="9.8684570" lon="-84.0852000">
        <ele>1239.4</ele>
        <time>2020-01-26T20:50:56Z</time>
      </trkpt>
      <trkpt lat="9.8684320" lon="-84.0852020">
        <ele>1239.4</ele>
        <time>2020-01-26T20:50:58Z</time>
      </trkpt>
      <trkpt lat="9.8683900" lon="-84.0852150">
        <ele>1239.6</ele>
        <time>2020-01-26T20:50:59Z</time>
      </trkpt>
      <trkpt lat="9.8683680" lon="-84.0852340">
        <ele>1239.7</ele>
        <time>2020-01-26T20:51:01Z</time>
      </trkpt>
      <trkpt lat="9.8683480" lon="-84.0852770">
        <ele>1239.9</ele>
        <time>2020-01-26T20:51:02Z</time>
      </trkpt>
      <trkpt lat="9.8683330" lon="-84.0853170">
        <ele>1240.2</ele>
        <time>2020-01-26T20:51:03Z</time>
      </trkpt>
      <trkpt lat="9.8683160" lon="-84.0853550">
        <ele>1240.5</ele>
        <time>2020-01-26T20:51:04Z</time>
      </trkpt>
      <trkpt lat="9.8683030" lon="-84.0853880">
        <ele>1240.8</ele>
        <time>2020-01-26T20:51:06Z</time>
      </trkpt>
      <trkpt lat="9.8682780" lon="-84.0854340">
        <ele>1241.2</ele>
        <time>2020-01-26T20:51:07Z</time>
      </trkpt>
      <trkpt lat="9.8682550" lon="-84.0854760">
        <ele>1241.5</ele>
        <time>2020-01-26T20:51:09Z</time>
      </trkpt>
      <trkpt lat="9.8682410" lon="-84.0855000">
        <ele>1241.7</ele>
        <time>2020-01-26T20:51:10Z</time>
      </trkpt>
      <trkpt lat="9.8682280" lon="-84.0855280">
        <ele>1241.9</ele>
        <time>2020-01-26T20:51:11Z</time>
      </trkpt>
      <trkpt lat="9.8681960" lon="-84.0855710">
        <ele>1242.2</ele>
        <time>2020-01-26T20:51:13Z</time>
      </trkpt>
      <trkpt lat="9.8681800" lon="-84.0856020">
        <ele>1242.4</ele>
        <time>2020-01-26T20:51:14Z</time>
      </trkpt>
      <trkpt lat="9.8681670" lon="-84.0856320">
        <ele>1242.6</ele>
        <time>2020-01-26T20:51:15Z</time>
      </trkpt>
      <trkpt lat="9.8681650" lon="-84.0856740">
        <ele>1242.8</ele>
        <time>2020-01-26T20:51:17Z</time>
      </trkpt>
      <trkpt lat="9.8681600" lon="-84.0857030">
        <ele>1242.9</ele>
        <time>2020-01-26T20:51:18Z</time>
      </trkpt>
      <trkpt lat="9.8681370" lon="-84.0857500">
        <ele>1243.2</ele>
        <time>2020-01-26T20:51:20Z</time>
      </trkpt>
      <trkpt lat="9.8681220" lon="-84.0857810">
        <ele>1243.4</ele>
        <time>2020-01-26T20:51:21Z</time>
      </trkpt>
      <trkpt lat="9.8681090" lon="-84.0858100">
        <ele>1243.6</ele>
        <time>2020-01-26T20:51:22Z</time>
      </trkpt>
      <trkpt lat="9.8680960" lon="-84.0858460">
        <ele>1243.9</ele>
        <time>2020-01-26T20:51:23Z</time>
      </trkpt>
      <trkpt lat="9.8680910" lon="-84.0858570">
        <ele>1243.9</ele>
        <time>2020-01-26T20:51:24Z</time>
      </trkpt>
      <trkpt lat="9.8680790" lon="-84.0858820">
        <ele>1244.1</ele>
        <time>2020-01-26T20:51:26Z</time>
      </trkpt>
      <trkpt lat="9.8680610" lon="-84.0859150">
        <ele>1244.3</ele>
        <time>2020-01-26T20:51:27Z</time>
      </trkpt>
      <trkpt lat="9.8680390" lon="-84.0859420">
        <ele>1244.6</ele>
        <time>2020-01-26T20:51:29Z</time>
      </trkpt>
      <trkpt lat="9.8680110" lon="-84.0859660">
        <ele>1245.1</ele>
        <time>2020-01-26T20:51:31Z</time>
      </trkpt>
      <trkpt lat="9.8679510" lon="-84.0859720">
        <ele>1244.9</ele>
        <time>2020-01-26T20:51:34Z</time>
      </trkpt>
      <trkpt lat="9.8679260" lon="-84.0859650">
        <ele>1244.9</ele>
        <time>2020-01-26T20:51:35Z</time>
      </trkpt>
      <trkpt lat="9.8678780" lon="-84.0859440">
        <ele>1244.8</ele>
        <time>2020-01-26T20:51:37Z</time>
      </trkpt>
      <trkpt lat="9.8678330" lon="-84.0859290">
        <ele>1244.6</ele>
        <time>2020-01-26T20:51:38Z</time>
      </trkpt>
      <trkpt lat="9.8678090" lon="-84.0859250">
        <ele>1244.6</ele>
        <time>2020-01-26T20:51:39Z</time>
      </trkpt>
      <trkpt lat="9.8677760" lon="-84.0859180">
        <ele>1244.5</ele>
        <time>2020-01-26T20:51:41Z</time>
      </trkpt>
      <trkpt lat="9.8677300" lon="-84.0859100">
        <ele>1244.4</ele>
        <time>2020-01-26T20:51:42Z</time>
      </trkpt>
      <trkpt lat="9.8677100" lon="-84.0859050">
        <ele>1244.3</ele>
        <time>2020-01-26T20:51:43Z</time>
      </trkpt>
      <trkpt lat="9.8675970" lon="-84.0858870">
        <ele>1244.0</ele>
        <time>2020-01-26T20:51:45Z</time>
      </trkpt>
      <trkpt lat="9.8675520" lon="-84.0858860">
        <ele>1243.9</ele>
        <time>2020-01-26T20:51:47Z</time>
      </trkpt>
      <trkpt lat="9.8675420" lon="-84.0858870">
        <ele>1243.9</ele>
        <time>2020-01-26T20:51:48Z</time>
      </trkpt>
      <trkpt lat="9.8675360" lon="-84.0858820">
        <ele>1243.9</ele>
        <time>2020-01-26T20:51:49Z</time>
      </trkpt>
      <trkpt lat="9.8675360" lon="-84.0858790">
        <ele>1243.9</ele>
        <time>2020-01-26T20:51:50Z</time>
      </trkpt>
      <trkpt lat="9.8675290" lon="-84.0858760">
        <ele>1243.9</ele>
        <time>2020-01-26T20:51:52Z</time>
      </trkpt>
      <trkpt lat="9.8675400" lon="-84.0858710">
        <ele>1243.9</ele>
        <time>2020-01-26T20:51:54Z</time>
      </trkpt>
      <trkpt lat="9.8675420" lon="-84.0858690">
        <ele>1243.9</ele>
        <time>2020-01-26T20:51:55Z</time>
      </trkpt>
      <trkpt lat="9.8675380" lon="-84.0858690">
        <ele>1243.9</ele>
        <time>2020-01-26T20:51:57Z</time>
      </trkpt>
      <trkpt lat="9.8675330" lon="-84.0858700">
        <ele>1243.8</ele>
        <time>2020-01-26T20:51:59Z</time>
      </trkpt>
      <trkpt lat="9.8675310" lon="-84.0858690">
        <ele>1243.8</ele>
        <time>2020-01-26T20:52:00Z</time>
      </trkpt>
      <trkpt lat="9.8675310" lon="-84.0858690">
        <ele>1243.8</ele>
        <time>2020-01-26T20:52:01Z</time>
      </trkpt>
      <trkpt lat="9.8675310" lon="-84.0858680">
        <ele>1243.8</ele>
        <time>2020-01-26T20:52:03Z</time>
      </trkpt>
      <trkpt lat="9.8675290" lon="-84.0858750">
        <ele>1243.8</ele>
        <time>2020-01-26T20:52:04Z</time>
      </trkpt>
      <trkpt lat="9.8675250" lon="-84.0858770">
        <ele>1243.8</ele>
        <time>2020-01-26T20:52:05Z</time>
      </trkpt>
      <trkpt lat="9.8675220" lon="-84.0858780">
        <ele>1243.8</ele>
        <time>2020-01-26T20:52:07Z</time>
      </trkpt>
      <trkpt lat="9.8675200" lon="-84.0858790">
        <ele>1243.8</ele>
        <time>2020-01-26T20:52:08Z</time>
      </trkpt>
      <trkpt lat="9.8675220" lon="-84.0858800">
        <ele>1243.8</ele>
        <time>2020-01-26T20:52:10Z</time>
      </trkpt>
      <trkpt lat="9.8675250" lon="-84.0858840">
        <ele>1243.8</ele>
        <time>2020-01-26T20:52:12Z</time>
      </trkpt>
      <trkpt lat="9.8675200" lon="-84.0858840">
        <ele>1243.8</ele>
        <time>2020-01-26T20:52:14Z</time>
      </trkpt>
      <trkpt lat="9.8675170" lon="-84.0858860">
        <ele>1243.8</ele>
        <time>2020-01-26T20:52:15Z</time>
      </trkpt>
      <trkpt lat="9.8675100" lon="-84.0858860">
        <ele>1243.8</ele>
        <time>2020-01-26T20:52:16Z</time>
      </trkpt>
      <trkpt lat="9.8675100" lon="-84.0858840">
        <ele>1243.8</ele>
        <time>2020-01-26T20:52:17Z</time>
      </trkpt>
      <trkpt lat="9.8675110" lon="-84.0858870">
        <ele>1243.8</ele>
        <time>2020-01-26T20:52:19Z</time>
      </trkpt>
      <trkpt lat="9.8675100" lon="-84.0858880">
        <ele>1243.8</ele>
        <time>2020-01-26T20:52:20Z</time>
      </trkpt>
      <trkpt lat="9.8675090" lon="-84.0858880">
        <ele>1243.7</ele>
        <time>2020-01-26T20:52:21Z</time>
      </trkpt>
      <trkpt lat="9.8675090" lon="-84.0858880">
        <ele>1243.7</ele>
        <time>2020-01-26T20:52:23Z</time>
      </trkpt>
    </trkseg>
  </trk>
</gpx>
